<?xml version='1.0' encoding='UTF-8'?><gpx version="1.1" creator="JPX - https://github.com/jenetics/jpx" xmlns="http://www.topografix.com/GPX/1/1"><trk><trkseg><trkpt lat="37.96614748402104" lon="15.38620803878693"><ele>17.0</ele><time>2026-04-19T06:31:05Z</time></trkpt><trkpt lat="37.96612548098344" lon="15.386099494295806"><ele>17.0</ele><time>2026-04-19T06:31:06Z</time></trkpt><trkpt lat="37.966087031435684" lon="15.385970217059304"><ele>17.0</ele><time>2026-04-19T06:31:07Z</time></trkpt><trkpt lat="37.96609275236371" lon="15.385796651952191"><ele>17.0</ele><time>2026-04-19T06:31:08Z</time></trkpt><trkpt lat="37.966133567126334" lon="15.38561171164106"><ele>17.75</ele><time>2026-04-19T06:31:09Z</time></trkpt><trkpt lat="37.9661844399046" lon="15.38541807824195"><ele>18.5</ele><time>2026-04-19T06:31:10Z</time></trkpt><trkpt lat="37.96624139302427" lon="15.385250892199702"><ele>19.25</ele><time>2026-04-19T06:31:11Z</time></trkpt><trkpt lat="37.96629649707675" lon="15.385117947360872"><ele>20.0</ele><time>2026-04-19T06:31:12Z</time></trkpt><trkpt lat="37.966350139600536" lon="15.385001361393128"><ele>20.0</ele><time>2026-04-19T06:31:13Z</time></trkpt><trkpt lat="37.966406370940476" lon="15.384912518268795"><ele>20.0</ele><time>2026-04-19T06:31:14Z</time></trkpt><trkpt lat="37.966440623760164" lon="15.384834780468106"><ele>20.0</ele><time>2026-04-19T06:31:15Z</time></trkpt><trkpt lat="37.96660129369726" lon="15.38489317221915"><ele>20.0</ele><time>2026-04-19T06:31:17Z</time></trkpt><trkpt lat="37.96668488799276" lon="15.384969191748707"><ele>20.0</ele><time>2026-04-19T06:31:19Z</time></trkpt><trkpt lat="37.96669895055936" lon="15.385080067310188"><ele>20.5</ele><time>2026-04-19T06:31:21Z</time></trkpt><trkpt lat="37.96672842036045" lon="15.385160875320429"><ele>21.0</ele><time>2026-04-19T06:31:23Z</time></trkpt><trkpt lat="37.96679189659872" lon="15.385227793752257"><ele>21.5</ele><time>2026-04-19T06:31:25Z</time></trkpt><trkpt lat="37.96683417320031" lon="15.385311328001656"><ele>22.0</ele><time>2026-04-19T06:31:27Z</time></trkpt><trkpt lat="37.96688370838469" lon="15.385384874330876"><ele>22.5</ele><time>2026-04-19T06:31:29Z</time></trkpt><trkpt lat="37.96694287067042" lon="15.385459198024034"><ele>23.0</ele><time>2026-04-19T06:31:31Z</time></trkpt><trkpt lat="37.96700646928222" lon="15.385532512340465"><ele>23.0</ele><time>2026-04-19T06:31:33Z</time></trkpt><trkpt lat="37.96707898283071" lon="15.385609832080132"><ele>23.0</ele><time>2026-04-19T06:31:35Z</time></trkpt><trkpt lat="37.9671643760716" lon="15.385685302983706"><ele>23.0</ele><time>2026-04-19T06:31:37Z</time></trkpt><trkpt lat="37.9672545444792" lon="15.385743542063508"><ele>23.0</ele><time>2026-04-19T06:31:39Z</time></trkpt><trkpt lat="37.967343297263334" lon="15.38576647332981"><ele>23.0</ele><time>2026-04-19T06:31:41Z</time></trkpt><trkpt lat="37.967429710122204" lon="15.385784577319662"><ele>23.166666666666668</ele><time>2026-04-19T06:31:43Z</time></trkpt><trkpt lat="37.96754029014407" lon="15.385813510905567"><ele>23.333333333333336</ele><time>2026-04-19T06:31:45Z</time></trkpt><trkpt lat="37.96760284638719" lon="15.385836169719813"><ele>23.5</ele><time>2026-04-19T06:31:46Z</time></trkpt><trkpt lat="37.96766609559561" lon="15.385861828913631"><ele>23.666666666666668</ele><time>2026-04-19T06:31:47Z</time></trkpt><trkpt lat="37.96773448487347" lon="15.385886914189006"><ele>23.833333333333332</ele><time>2026-04-19T06:31:48Z</time></trkpt><trkpt lat="37.96780601099498" lon="15.385910133138157"><ele>24.0</ele><time>2026-04-19T06:31:49Z</time></trkpt><trkpt lat="37.96787637903334" lon="15.38593699787161"><ele>23.999999999999996</ele><time>2026-04-19T06:31:50Z</time></trkpt><trkpt lat="37.967948869883166" lon="15.385961401825591"><ele>24.0</ele><time>2026-04-19T06:31:51Z</time></trkpt><trkpt lat="37.96802290086723" lon="15.385975024254172"><ele>24.0</ele><time>2026-04-19T06:31:52Z</time></trkpt><trkpt lat="37.968098091063986" lon="15.385988472808188"><ele>24.0</ele><time>2026-04-19T06:31:53Z</time></trkpt><trkpt lat="37.96817373375612" lon="15.38599492415138"><ele>24.0</ele><time>2026-04-19T06:31:54Z</time></trkpt><trkpt lat="37.96824251934638" lon="15.386006457600036"><ele>23.999999999999996</ele><time>2026-04-19T06:31:55Z</time></trkpt><trkpt lat="37.96831360791334" lon="15.386010588237411"><ele>24.0</ele><time>2026-04-19T06:31:56Z</time></trkpt><trkpt lat="37.96838432490807" lon="15.386009518279096"><ele>24.166666666666668</ele><time>2026-04-19T06:31:57Z</time></trkpt><trkpt lat="37.96845566119245" lon="15.386007004023996"><ele>24.333333333333336</ele><time>2026-04-19T06:31:58Z</time></trkpt><trkpt lat="37.968532024461496" lon="15.385999991907134"><ele>24.5</ele><time>2026-04-19T06:31:59Z</time></trkpt><trkpt lat="37.96861271222197" lon="15.385989722754204"><ele>24.666666666666668</ele><time>2026-04-19T06:32:00Z</time></trkpt><trkpt lat="37.96869474260971" lon="15.385970333571445"><ele>24.833333333333336</ele><time>2026-04-19T06:32:01Z</time></trkpt><trkpt lat="37.968784333565644" lon="15.385942230564924"><ele>25.0</ele><time>2026-04-19T06:32:02Z</time></trkpt><trkpt lat="37.96887679699522" lon="15.3859085947979"><ele>25.0</ele><time>2026-04-19T06:32:03Z</time></trkpt><trkpt lat="37.968975345723436" lon="15.385868448535701"><ele>25.0</ele><time>2026-04-19T06:32:04Z</time></trkpt><trkpt lat="37.96908122516558" lon="15.385814562946935"><ele>25.0</ele><time>2026-04-19T06:32:05Z</time></trkpt><trkpt lat="37.96919594261543" lon="15.38574400148212"><ele>25.0</ele><time>2026-04-19T06:32:06Z</time></trkpt><trkpt lat="37.96931649183727" lon="15.385694646161618"><ele>25.5</ele><time>2026-04-19T06:32:07Z</time></trkpt><trkpt lat="37.969403131088946" lon="15.385575347814806"><ele>26.0</ele><time>2026-04-19T06:32:08Z</time></trkpt><trkpt lat="37.96950625929504" lon="15.385479199684964"><ele>26.5</ele><time>2026-04-19T06:32:09Z</time></trkpt><trkpt lat="37.96961024220324" lon="15.385369612878927"><ele>27.0</ele><time>2026-04-19T06:32:10Z</time></trkpt><trkpt lat="37.9697136173227" lon="15.385242251445526"><ele>27.75</ele><time>2026-04-19T06:32:11Z</time></trkpt><trkpt lat="37.96981690971669" lon="15.385106245441028"><ele>28.5</ele><time>2026-04-19T06:32:12Z</time></trkpt><trkpt lat="37.96991464890166" lon="15.38496709850557"><ele>29.25</ele><time>2026-04-19T06:32:13Z</time></trkpt><trkpt lat="37.97002289375377" lon="15.384834371035344"><ele>30.0</ele><time>2026-04-19T06:32:14Z</time></trkpt><trkpt lat="37.97011769830068" lon="15.384700358195964"><ele>31.0</ele><time>2026-04-19T06:32:15Z</time></trkpt><trkpt lat="37.970208772976605" lon="15.384592065989038"><ele>32.0</ele><time>2026-04-19T06:32:16Z</time></trkpt><trkpt lat="37.970303982315414" lon="15.384474220688402"><ele>33.0</ele><time>2026-04-19T06:32:17Z</time></trkpt><trkpt lat="37.970391902193406" lon="15.384355166280615"><ele>34.0</ele><time>2026-04-19T06:32:18Z</time></trkpt><trkpt lat="37.97047451675673" lon="15.384230836367573"><ele>34.0</ele><time>2026-04-19T06:32:19Z</time></trkpt><trkpt lat="37.970534266618486" lon="15.38409072173319"><ele>34.0</ele><time>2026-04-19T06:32:20Z</time></trkpt><trkpt lat="37.97055521722686" lon="15.383931507098882"><ele>34.0</ele><time>2026-04-19T06:32:21Z</time></trkpt><trkpt lat="37.970541629920994" lon="15.383761482944642"><ele>34.0</ele><time>2026-04-19T06:32:22Z</time></trkpt><trkpt lat="37.97049148565644" lon="15.383598094852541"><ele>34.25</ele><time>2026-04-19T06:32:23Z</time></trkpt><trkpt lat="37.97040697654279" lon="15.383460839943538"><ele>34.5</ele><time>2026-04-19T06:32:24Z</time></trkpt><trkpt lat="37.97029076191458" lon="15.383357055335171"><ele>34.75</ele><time>2026-04-19T06:32:25Z</time></trkpt><trkpt lat="37.97015620561238" lon="15.38329586173247"><ele>35.0</ele><time>2026-04-19T06:32:26Z</time></trkpt><trkpt lat="37.9700121411308" lon="15.383290192584969"><ele>35.0</ele><time>2026-04-19T06:32:27Z</time></trkpt><trkpt lat="37.96987225875315" lon="15.383340088026426"><ele>35.0</ele><time>2026-04-19T06:32:28Z</time></trkpt><trkpt lat="37.96975492924338" lon="15.383461629752958"><ele>35.0</ele><time>2026-04-19T06:32:29Z</time></trkpt><trkpt lat="37.96962697405162" lon="15.383560910921265"><ele>35.0</ele><time>2026-04-19T06:32:30Z</time></trkpt><trkpt lat="37.96950411960082" lon="15.38367050664791"><ele>35.0</ele><time>2026-04-19T06:32:31Z</time></trkpt><trkpt lat="37.969355525981356" lon="15.383737120017992"><ele>35.0</ele><time>2026-04-19T06:32:32Z</time></trkpt><trkpt lat="37.96919003653294" lon="15.383748779083948"><ele>35.0</ele><time>2026-04-19T06:32:33Z</time></trkpt><trkpt lat="37.969022309171685" lon="15.383727770593286"><ele>34.666666666666664</ele><time>2026-04-19T06:32:34Z</time></trkpt><trkpt lat="37.96885531420164" lon="15.38367617911495"><ele>34.333333333333336</ele><time>2026-04-19T06:32:35Z</time></trkpt><trkpt lat="37.96868764384368" lon="15.383602652877984"><ele>34.0</ele><time>2026-04-19T06:32:36Z</time></trkpt><trkpt lat="37.96852235286927" lon="15.383510196963087"><ele>33.0</ele><time>2026-04-19T06:32:37Z</time></trkpt><trkpt lat="37.968352273342276" lon="15.383401681616196"><ele>32.0</ele><time>2026-04-19T06:32:38Z</time></trkpt><trkpt lat="37.968180812132125" lon="15.383287047581415"><ele>31.0</ele><time>2026-04-19T06:32:39Z</time></trkpt><trkpt lat="37.96800332167017" lon="15.383172504040383"><ele>31.0</ele><time>2026-04-19T06:32:40Z</time></trkpt><trkpt lat="37.96781822279467" lon="15.383050409811558"><ele>31.0</ele><time>2026-04-19T06:32:41Z</time></trkpt><trkpt lat="37.96762723806159" lon="15.38292248311475"><ele>31.0</ele><time>2026-04-19T06:32:42Z</time></trkpt><trkpt lat="37.96741890045153" lon="15.38278540303219"><ele>31.0</ele><time>2026-04-19T06:32:43Z</time></trkpt><trkpt lat="37.967198729169475" lon="15.382635622671948"><ele>31.0</ele><time>2026-04-19T06:32:44Z</time></trkpt><trkpt lat="37.966957404506" lon="15.382474050091433"><ele>31.0</ele><time>2026-04-19T06:32:45Z</time></trkpt><trkpt lat="37.966700071928145" lon="15.382298498387598"><ele>31.0</ele><time>2026-04-19T06:32:46Z</time></trkpt><trkpt lat="37.96643493041628" lon="15.382118639428583"><ele>31.0</ele><time>2026-04-19T06:32:47Z</time></trkpt><trkpt lat="37.96615364254092" lon="15.381923164227196"><ele>31.0</ele><time>2026-04-19T06:32:48Z</time></trkpt><trkpt lat="37.96586102101555" lon="15.381720485855514"><ele>31.0</ele><time>2026-04-19T06:32:49Z</time></trkpt><trkpt lat="37.96555594483947" lon="15.381510059258414"><ele>31.0</ele><time>2026-04-19T06:32:50Z</time></trkpt><trkpt lat="37.96525191617826" lon="15.381297773534154"><ele>37.0</ele><time>2026-04-19T06:32:51Z</time></trkpt><trkpt lat="37.96497005363026" lon="15.381100100731343"><ele>43.0</ele><time>2026-04-19T06:32:52Z</time></trkpt><trkpt lat="37.96470778843062" lon="15.380916999043363"><ele>43.0</ele><time>2026-04-19T06:32:53Z</time></trkpt><trkpt lat="37.964457634529154" lon="15.380733986971716"><ele>43.0</ele><time>2026-04-19T06:32:54Z</time></trkpt><trkpt lat="37.964218839950306" lon="15.380542580789742"><ele>48.5</ele><time>2026-04-19T06:32:55Z</time></trkpt><trkpt lat="37.963996004091165" lon="15.380338721360092"><ele>54.0</ele><time>2026-04-19T06:32:56Z</time></trkpt><trkpt lat="37.96378944654494" lon="15.380121320030888"><ele>54.0</ele><time>2026-04-19T06:32:57Z</time></trkpt><trkpt lat="37.963587109731414" lon="15.379884328716946"><ele>54.0</ele><time>2026-04-19T06:32:58Z</time></trkpt><trkpt lat="37.96339434233303" lon="15.37963585774489"><ele>52.0</ele><time>2026-04-19T06:32:59Z</time></trkpt><trkpt lat="37.963202770355586" lon="15.379383889954221"><ele>50.0</ele><time>2026-04-19T06:33:00Z</time></trkpt><trkpt lat="37.96302597368613" lon="15.379112776628086"><ele>51.0</ele><time>2026-04-19T06:33:01Z</time></trkpt><trkpt lat="37.9628559975216" lon="15.378833054767632"><ele>52.0</ele><time>2026-04-19T06:33:02Z</time></trkpt><trkpt lat="37.962690054378385" lon="15.37855753777324"><ele>42.5</ele><time>2026-04-19T06:33:03Z</time></trkpt><trkpt lat="37.96252168020243" lon="15.378285913184625"><ele>33.0</ele><time>2026-04-19T06:33:04Z</time></trkpt><trkpt lat="37.96235109993769" lon="15.378014911532778"><ele>31.5</ele><time>2026-04-19T06:33:05Z</time></trkpt><trkpt lat="37.96218124072686" lon="15.377743128202509"><ele>30.0</ele><time>2026-04-19T06:33:06Z</time></trkpt><trkpt lat="37.96200669624873" lon="15.377463299574837"><ele>30.0</ele><time>2026-04-19T06:33:07Z</time></trkpt><trkpt lat="37.96183121928925" lon="15.377188563708966"><ele>30.0</ele><time>2026-04-19T06:33:08Z</time></trkpt><trkpt lat="37.96164473607588" lon="15.376911483801676"><ele>26.0</ele><time>2026-04-19T06:33:09Z</time></trkpt><trkpt lat="37.96144313559103" lon="15.376644748440446"><ele>22.0</ele><time>2026-04-19T06:33:10Z</time></trkpt><trkpt lat="37.961236711489356" lon="15.37639059326093"><ele>21.0</ele><time>2026-04-19T06:33:11Z</time></trkpt><trkpt lat="37.96101742558292" lon="15.37614803024313"><ele>20.0</ele><time>2026-04-19T06:33:12Z</time></trkpt><trkpt lat="37.9607963622224" lon="15.375913587798394"><ele>20.0</ele><time>2026-04-19T06:33:13Z</time></trkpt><trkpt lat="37.96057284664082" lon="15.375683095048547"><ele>20.0</ele><time>2026-04-19T06:33:14Z</time></trkpt><trkpt lat="37.96035198097475" lon="15.375453273304934"><ele>20.0</ele><time>2026-04-19T06:33:15Z</time></trkpt><trkpt lat="37.96013014576039" lon="15.375216955143276"><ele>20.0</ele><time>2026-04-19T06:33:16Z</time></trkpt><trkpt lat="37.95990307755102" lon="15.37498024558275"><ele>20.0</ele><time>2026-04-19T06:33:17Z</time></trkpt><trkpt lat="37.959678393188284" lon="15.374739288502052"><ele>20.0</ele><time>2026-04-19T06:33:18Z</time></trkpt><trkpt lat="37.95946181170925" lon="15.374495719539746"><ele>20.0</ele><time>2026-04-19T06:33:19Z</time></trkpt><trkpt lat="37.95924166071506" lon="15.374256860080258"><ele>20.0</ele><time>2026-04-19T06:33:20Z</time></trkpt><trkpt lat="37.959020552210426" lon="15.374022176505221"><ele>22.5</ele><time>2026-04-19T06:33:21Z</time></trkpt><trkpt lat="37.95880386825809" lon="15.373786971051292"><ele>25.0</ele><time>2026-04-19T06:33:22Z</time></trkpt><trkpt lat="37.95858548403623" lon="15.37355466443904"><ele>24.0</ele><time>2026-04-19T06:33:23Z</time></trkpt><trkpt lat="37.95836730198383" lon="15.373323339839436"><ele>23.0</ele><time>2026-04-19T06:33:24Z</time></trkpt><trkpt lat="37.95815174781587" lon="15.373091536424745"><ele>23.5</ele><time>2026-04-19T06:33:25Z</time></trkpt><trkpt lat="37.957937158935415" lon="15.372861563436627"><ele>24.0</ele><time>2026-04-19T06:33:26Z</time></trkpt><trkpt lat="37.95772718798702" lon="15.372632422304711"><ele>24.0</ele><time>2026-04-19T06:33:27Z</time></trkpt><trkpt lat="37.95750885923678" lon="15.372392740890309"><ele>24.0</ele><time>2026-04-19T06:33:28Z</time></trkpt><trkpt lat="37.95729428172574" lon="15.372156649363598"><ele>24.0</ele><time>2026-04-19T06:33:29Z</time></trkpt><trkpt lat="37.9570745948983" lon="15.371920102759397"><ele>24.0</ele><time>2026-04-19T06:33:30Z</time></trkpt><trkpt lat="37.956851674945334" lon="15.371686115192063"><ele>24.5</ele><time>2026-04-19T06:33:31Z</time></trkpt><trkpt lat="37.95662915354292" lon="15.37145312161"><ele>25.0</ele><time>2026-04-19T06:33:32Z</time></trkpt><trkpt lat="37.956401387958394" lon="15.371226911058333"><ele>25.0</ele><time>2026-04-19T06:33:33Z</time></trkpt><trkpt lat="37.95616570863673" lon="15.37101926171796"><ele>25.0</ele><time>2026-04-19T06:33:34Z</time></trkpt><trkpt lat="37.95592264513451" lon="15.370827725421213"><ele>26.0</ele><time>2026-04-19T06:33:35Z</time></trkpt><trkpt lat="37.95567672561175" lon="15.370647932784092"><ele>27.0</ele><time>2026-04-19T06:33:36Z</time></trkpt><trkpt lat="37.955422989178906" lon="15.370485405972369"><ele>27.0</ele><time>2026-04-19T06:33:37Z</time></trkpt><trkpt lat="37.9551679196041" lon="15.370336277393642"><ele>27.0</ele><time>2026-04-19T06:33:38Z</time></trkpt><trkpt lat="37.95490901241011" lon="15.370195464240506"><ele>25.0</ele><time>2026-04-19T06:33:39Z</time></trkpt><trkpt lat="37.95464394323177" lon="15.370061825468094"><ele>23.0</ele><time>2026-04-19T06:33:40Z</time></trkpt><trkpt lat="37.95438226471193" lon="15.369926763138128"><ele>24.0</ele><time>2026-04-19T06:33:41Z</time></trkpt><trkpt lat="37.954119960373205" lon="15.369787578418808"><ele>25.0</ele><time>2026-04-19T06:33:42Z</time></trkpt><trkpt lat="37.953857233746234" lon="15.369648061959225"><ele>26.0</ele><time>2026-04-19T06:33:43Z</time></trkpt><trkpt lat="37.95359120770985" lon="15.369507742132683"><ele>27.0</ele><time>2026-04-19T06:33:44Z</time></trkpt><trkpt lat="37.9533267131299" lon="15.369369712586158"><ele>29.0</ele><time>2026-04-19T06:33:45Z</time></trkpt><trkpt lat="37.95306123671765" lon="15.36922977490158"><ele>31.0</ele><time>2026-04-19T06:33:46Z</time></trkpt><trkpt lat="37.9528007274528" lon="15.3690855846742"><ele>31.0</ele><time>2026-04-19T06:33:47Z</time></trkpt><trkpt lat="37.9525439369824" lon="15.368925774490664"><ele>31.0</ele><time>2026-04-19T06:33:48Z</time></trkpt><trkpt lat="37.95229883794354" lon="15.368739900667395"><ele>47.0</ele><time>2026-04-19T06:33:49Z</time></trkpt><trkpt lat="37.95205874784766" lon="15.368533308815882"><ele>63.0</ele><time>2026-04-19T06:33:50Z</time></trkpt><trkpt lat="37.951831851647434" lon="15.368305237560232"><ele>62.0</ele><time>2026-04-19T06:33:51Z</time></trkpt><trkpt lat="37.951607587710825" lon="15.368063749447062"><ele>61.0</ele><time>2026-04-19T06:33:52Z</time></trkpt><trkpt lat="37.951389206036204" lon="15.367811461769712"><ele>61.0</ele><time>2026-04-19T06:33:53Z</time></trkpt><trkpt lat="37.951172739603074" lon="15.367546662623832"><ele>61.0</ele><time>2026-04-19T06:33:54Z</time></trkpt><trkpt lat="37.95095364720579" lon="15.367277778334453"><ele>65.0</ele><time>2026-04-19T06:33:55Z</time></trkpt><trkpt lat="37.95072316289829" lon="15.367018550158715"><ele>69.0</ele><time>2026-04-19T06:33:56Z</time></trkpt><trkpt lat="37.95048132396527" lon="15.366779095524041"><ele>69.0</ele><time>2026-04-19T06:33:57Z</time></trkpt><trkpt lat="37.95022973627195" lon="15.366554206692241"><ele>69.0</ele><time>2026-04-19T06:33:58Z</time></trkpt><trkpt lat="37.94997087033935" lon="15.366343092552897"><ele>69.5</ele><time>2026-04-19T06:33:59Z</time></trkpt><trkpt lat="37.949703964319504" lon="15.366145349521341"><ele>70.0</ele><time>2026-04-19T06:34:00Z</time></trkpt><trkpt lat="37.94943073961345" lon="15.365956092814947"><ele>67.0</ele><time>2026-04-19T06:34:01Z</time></trkpt><trkpt lat="37.94915176374467" lon="15.365777409830029"><ele>64.0</ele><time>2026-04-19T06:34:02Z</time></trkpt><trkpt lat="37.94887130141152" lon="15.3656005358494"><ele>64.5</ele><time>2026-04-19T06:34:03Z</time></trkpt><trkpt lat="37.94859305008421" lon="15.365420522280715"><ele>65.0</ele><time>2026-04-19T06:34:04Z</time></trkpt><trkpt lat="37.948312327151754" lon="15.365231986487645"><ele>65.0</ele><time>2026-04-19T06:34:05Z</time></trkpt><trkpt lat="37.94803503118228" lon="15.365039817146483"><ele>65.0</ele><time>2026-04-19T06:34:06Z</time></trkpt><trkpt lat="37.94775625443465" lon="15.364850400170715"><ele>64.5</ele><time>2026-04-19T06:34:07Z</time></trkpt><trkpt lat="37.947480885085895" lon="15.364666796371203"><ele>64.0</ele><time>2026-04-19T06:34:08Z</time></trkpt><trkpt lat="37.94720886473136" lon="15.364483894740774"><ele>64.0</ele><time>2026-04-19T06:34:09Z</time></trkpt><trkpt lat="37.946935499231174" lon="15.364302426371394"><ele>64.0</ele><time>2026-04-19T06:34:10Z</time></trkpt><trkpt lat="37.946663389269105" lon="15.364122880950271"><ele>65.5</ele><time>2026-04-19T06:34:11Z</time></trkpt><trkpt lat="37.94639378363524" lon="15.363945778002732"><ele>67.0</ele><time>2026-04-19T06:34:12Z</time></trkpt><trkpt lat="37.94612749103887" lon="15.363767328249976"><ele>63.5</ele><time>2026-04-19T06:34:13Z</time></trkpt><trkpt lat="37.94586111137838" lon="15.363587948833953"><ele>60.0</ele><time>2026-04-19T06:34:14Z</time></trkpt><trkpt lat="37.945598021307205" lon="15.36340190822365"><ele>60.0</ele><time>2026-04-19T06:34:15Z</time></trkpt><trkpt lat="37.94533983933093" lon="15.363210301701054"><ele>60.0</ele><time>2026-04-19T06:34:16Z</time></trkpt><trkpt lat="37.945086388045645" lon="15.363013383055733"><ele>59.0</ele><time>2026-04-19T06:34:17Z</time></trkpt><trkpt lat="37.944837837941456" lon="15.36281564545299"><ele>58.0</ele><time>2026-04-19T06:34:18Z</time></trkpt><trkpt lat="37.944592062657975" lon="15.362619450829321"><ele>58.0</ele><time>2026-04-19T06:34:19Z</time></trkpt><trkpt lat="37.94434740420681" lon="15.362420570130285"><ele>58.0</ele><time>2026-04-19T06:34:20Z</time></trkpt><trkpt lat="37.944101885477345" lon="15.362225286624335"><ele>62.5</ele><time>2026-04-19T06:34:21Z</time></trkpt><trkpt lat="37.94385568958406" lon="15.36202859258674"><ele>67.0</ele><time>2026-04-19T06:34:22Z</time></trkpt><trkpt lat="37.94360676068718" lon="15.361831959208935"><ele>64.5</ele><time>2026-04-19T06:34:23Z</time></trkpt><trkpt lat="37.9433572449302" lon="15.36163427458503"><ele>62.0</ele><time>2026-04-19T06:34:24Z</time></trkpt><trkpt lat="37.943106993086765" lon="15.361433575002573"><ele>61.5</ele><time>2026-04-19T06:34:25Z</time></trkpt><trkpt lat="37.94285872358555" lon="15.361225247684992"><ele>61.0</ele><time>2026-04-19T06:34:26Z</time></trkpt><trkpt lat="37.942612846097006" lon="15.361015566735833"><ele>50.0</ele><time>2026-04-19T06:34:27Z</time></trkpt><trkpt lat="37.942368671531746" lon="15.360799945634664"><ele>39.0</ele><time>2026-04-19T06:34:28Z</time></trkpt><trkpt lat="37.94213396968513" lon="15.36057152402091"><ele>39.0</ele><time>2026-04-19T06:34:29Z</time></trkpt><trkpt lat="37.94190614019056" lon="15.360334488240019"><ele>39.0</ele><time>2026-04-19T06:34:30Z</time></trkpt><trkpt lat="37.9416848228861" lon="15.36008708797988"><ele>39.5</ele><time>2026-04-19T06:34:31Z</time></trkpt><trkpt lat="37.94147334649519" lon="15.359834739959409"><ele>40.0</ele><time>2026-04-19T06:34:32Z</time></trkpt><trkpt lat="37.94127199592613" lon="15.359570717269634"><ele>40.0</ele><time>2026-04-19T06:34:33Z</time></trkpt><trkpt lat="37.94106934505078" lon="15.359303826525444"><ele>40.0</ele><time>2026-04-19T06:34:34Z</time></trkpt><trkpt lat="37.94086842535617" lon="15.359035912970969"><ele>41.5</ele><time>2026-04-19T06:34:35Z</time></trkpt><trkpt lat="37.9406655620417" lon="15.358764412516553"><ele>43.0</ele><time>2026-04-19T06:34:36Z</time></trkpt><trkpt lat="37.940460413468024" lon="15.358492255175307"><ele>43.0</ele><time>2026-04-19T06:34:37Z</time></trkpt><trkpt lat="37.940251344698474" lon="15.358221488362158"><ele>43.0</ele><time>2026-04-19T06:34:38Z</time></trkpt><trkpt lat="37.940042637549645" lon="15.357945861274212"><ele>47.5</ele><time>2026-04-19T06:34:39Z</time></trkpt><trkpt lat="37.9398324782692" lon="15.357666128109855"><ele>52.0</ele><time>2026-04-19T06:34:40Z</time></trkpt><trkpt lat="37.939622035076965" lon="15.35738477292347"><ele>54.0</ele><time>2026-04-19T06:34:41Z</time></trkpt><trkpt lat="37.93940566935647" lon="15.357100707168323"><ele>56.0</ele><time>2026-04-19T06:34:42Z</time></trkpt><trkpt lat="37.93919336070045" lon="15.356821432729282"><ele>53.5</ele><time>2026-04-19T06:34:43Z</time></trkpt><trkpt lat="37.93898072035335" lon="15.356542483336321"><ele>51.0</ele><time>2026-04-19T06:34:44Z</time></trkpt><trkpt lat="37.93877477243603" lon="15.356262854567635"><ele>51.0</ele><time>2026-04-19T06:34:45Z</time></trkpt><trkpt lat="37.93856802376854" lon="15.355984796409206"><ele>51.0</ele><time>2026-04-19T06:34:46Z</time></trkpt><trkpt lat="37.93836049567407" lon="15.355706823242183"><ele>43.5</ele><time>2026-04-19T06:34:47Z</time></trkpt><trkpt lat="37.93815413165741" lon="15.355430501815063"><ele>36.0</ele><time>2026-04-19T06:34:48Z</time></trkpt><trkpt lat="37.93794658003677" lon="15.355156330254573"><ele>36.0</ele><time>2026-04-19T06:34:49Z</time></trkpt><trkpt lat="37.93773663560404" lon="15.35488210564035"><ele>36.0</ele><time>2026-04-19T06:34:50Z</time></trkpt><trkpt lat="37.937528652909926" lon="15.354606445943727"><ele>33.5</ele><time>2026-04-19T06:34:51Z</time></trkpt><trkpt lat="37.937317699325696" lon="15.35433273482081"><ele>31.0</ele><time>2026-04-19T06:34:52Z</time></trkpt><trkpt lat="37.93710386922867" lon="15.354068745510578"><ele>29.0</ele><time>2026-04-19T06:34:53Z</time></trkpt><trkpt lat="37.93688164959576" lon="15.353815289918327"><ele>27.0</ele><time>2026-04-19T06:34:54Z</time></trkpt><trkpt lat="37.93665020740882" lon="15.353575099690946"><ele>27.0</ele><time>2026-04-19T06:34:55Z</time></trkpt><trkpt lat="37.93641523837628" lon="15.35334162671379"><ele>27.0</ele><time>2026-04-19T06:34:56Z</time></trkpt><trkpt lat="37.936174571489595" lon="15.353117742281018"><ele>24.5</ele><time>2026-04-19T06:34:57Z</time></trkpt><trkpt lat="37.93592609747552" lon="15.35290384551892"><ele>22.0</ele><time>2026-04-19T06:34:58Z</time></trkpt><trkpt lat="37.93567042794526" lon="15.352702986667898"><ele>20.0</ele><time>2026-04-19T06:34:59Z</time></trkpt><trkpt lat="37.93541309904939" lon="15.352509401331806"><ele>18.0</ele><time>2026-04-19T06:35:00Z</time></trkpt><trkpt lat="37.935148765764374" lon="15.35232511211168"><ele>16.5</ele><time>2026-04-19T06:35:01Z</time></trkpt><trkpt lat="37.934880698369994" lon="15.352152875881702"><ele>15.0</ele><time>2026-04-19T06:35:02Z</time></trkpt><trkpt lat="37.93461598126415" lon="15.351993044205"><ele>15.0</ele><time>2026-04-19T06:35:03Z</time></trkpt><trkpt lat="37.934344164082006" lon="15.351842581249933"><ele>15.0</ele><time>2026-04-19T06:35:04Z</time></trkpt><trkpt lat="37.934081417676204" lon="15.351687811264117"><ele>15.0</ele><time>2026-04-19T06:35:05Z</time></trkpt><trkpt lat="37.933816733701725" lon="15.351529829348792"><ele>15.0</ele><time>2026-04-19T06:35:06Z</time></trkpt><trkpt lat="37.93355046223457" lon="15.351371515187575"><ele>16.0</ele><time>2026-04-19T06:35:07Z</time></trkpt><trkpt lat="37.9332806907315" lon="15.351219829393468"><ele>17.0</ele><time>2026-04-19T06:35:08Z</time></trkpt><trkpt lat="37.933011274852944" lon="15.351076746382216"><ele>17.0</ele><time>2026-04-19T06:35:09Z</time></trkpt><trkpt lat="37.93273447178004" lon="15.350955204268029"><ele>17.0</ele><time>2026-04-19T06:35:10Z</time></trkpt><trkpt lat="37.932450188897924" lon="15.350865244926545"><ele>17.5</ele><time>2026-04-19T06:35:11Z</time></trkpt><trkpt lat="37.932166993383014" lon="15.350795785118553"><ele>18.0</ele><time>2026-04-19T06:35:12Z</time></trkpt><trkpt lat="37.93187969019004" lon="15.350747837172666"><ele>19.0</ele><time>2026-04-19T06:35:13Z</time></trkpt><trkpt lat="37.931590062292365" lon="15.350724714701824"><ele>20.0</ele><time>2026-04-19T06:35:14Z</time></trkpt><trkpt lat="37.93129859283588" lon="15.35072699826639"><ele>20.0</ele><time>2026-04-19T06:35:15Z</time></trkpt><trkpt lat="37.93100577454581" lon="15.350739723222915"><ele>20.0</ele><time>2026-04-19T06:35:16Z</time></trkpt><trkpt lat="37.930711323825314" lon="15.350755974262613"><ele>22.5</ele><time>2026-04-19T06:35:17Z</time></trkpt><trkpt lat="37.93041962224689" lon="15.350770183411202"><ele>25.0</ele><time>2026-04-19T06:35:18Z</time></trkpt><trkpt lat="37.930127127558" lon="15.350779394599789"><ele>26.0</ele><time>2026-04-19T06:35:19Z</time></trkpt><trkpt lat="37.92983446128393" lon="15.350784933043423"><ele>27.0</ele><time>2026-04-19T06:35:20Z</time></trkpt><trkpt lat="37.929542250773174" lon="15.350775202236639"><ele>27.0</ele><time>2026-04-19T06:35:21Z</time></trkpt><trkpt lat="37.92925565786004" lon="15.35073679392621"><ele>27.0</ele><time>2026-04-19T06:35:22Z</time></trkpt><trkpt lat="37.928970560802" lon="15.350673938940432"><ele>25.5</ele><time>2026-04-19T06:35:23Z</time></trkpt><trkpt lat="37.92868870875846" lon="15.350599934124974"><ele>24.0</ele><time>2026-04-19T06:35:24Z</time></trkpt><trkpt lat="37.9284121109501" lon="15.350501169272649"><ele>35.5</ele><time>2026-04-19T06:35:25Z</time></trkpt><trkpt lat="37.92814355812098" lon="15.350380204702526"><ele>47.0</ele><time>2026-04-19T06:35:26Z</time></trkpt><trkpt lat="37.927880334509666" lon="15.35023272415399"><ele>47.0</ele><time>2026-04-19T06:35:27Z</time></trkpt><trkpt lat="37.927625376723775" lon="15.350054983734378"><ele>47.0</ele><time>2026-04-19T06:35:28Z</time></trkpt><trkpt lat="37.92737915476473" lon="15.349854466419563"><ele>46.5</ele><time>2026-04-19T06:35:29Z</time></trkpt><trkpt lat="37.92713918718797" lon="15.349639574178177"><ele>46.0</ele><time>2026-04-19T06:35:30Z</time></trkpt><trkpt lat="37.926902952630336" lon="15.34940473894261"><ele>44.5</ele><time>2026-04-19T06:35:31Z</time></trkpt><trkpt lat="37.92667846585179" lon="15.349139835783934"><ele>43.0</ele><time>2026-04-19T06:35:32Z</time></trkpt><trkpt lat="37.92644563255947" lon="15.348872259447637"><ele>43.0</ele><time>2026-04-19T06:35:33Z</time></trkpt><trkpt lat="37.92620415026192" lon="15.34860874675338"><ele>43.0</ele><time>2026-04-19T06:35:34Z</time></trkpt><trkpt lat="37.92596239018628" lon="15.348339612504653"><ele>35.5</ele><time>2026-04-19T06:35:35Z</time></trkpt><trkpt lat="37.92571814162165" lon="15.348066825337424"><ele>28.0</ele><time>2026-04-19T06:35:36Z</time></trkpt><trkpt lat="37.92546993722316" lon="15.347794339421993"><ele>28.0</ele><time>2026-04-19T06:35:37Z</time></trkpt><trkpt lat="37.92522136247335" lon="15.347523149971163"><ele>28.0</ele><time>2026-04-19T06:35:38Z</time></trkpt><trkpt lat="37.92497151344796" lon="15.34725087572655"><ele>39.0</ele><time>2026-04-19T06:35:39Z</time></trkpt><trkpt lat="37.92472483006828" lon="15.346974396975211"><ele>50.0</ele><time>2026-04-19T06:35:40Z</time></trkpt><trkpt lat="37.924488614696884" lon="15.346685894446711"><ele>50.0</ele><time>2026-04-19T06:35:41Z</time></trkpt><trkpt lat="37.924260057762865" lon="15.346387761401722"><ele>50.0</ele><time>2026-04-19T06:35:42Z</time></trkpt><trkpt lat="37.924034922440846" lon="15.346079339200545"><ele>51.5</ele><time>2026-04-19T06:35:43Z</time></trkpt><trkpt lat="37.92380339337362" lon="15.345789947206049"><ele>53.0</ele><time>2026-04-19T06:35:44Z</time></trkpt><trkpt lat="37.923580529437444" lon="15.345510502183506"><ele>47.5</ele><time>2026-04-19T06:35:45Z</time></trkpt><trkpt lat="37.923351879442706" lon="15.345241656236041"><ele>42.0</ele><time>2026-04-19T06:35:46Z</time></trkpt><trkpt lat="37.92312313183106" lon="15.344997212967012"><ele>42.0</ele><time>2026-04-19T06:35:47Z</time></trkpt><trkpt lat="37.92289133438258" lon="15.34478285084333"><ele>42.0</ele><time>2026-04-19T06:35:48Z</time></trkpt><trkpt lat="37.92265432050029" lon="15.344594596800476"><ele>44.0</ele><time>2026-04-19T06:35:49Z</time></trkpt><trkpt lat="37.922412693378774" lon="15.344428012685698"><ele>46.0</ele><time>2026-04-19T06:35:50Z</time></trkpt><trkpt lat="37.92215957030418" lon="15.344284154340862"><ele>46.0</ele><time>2026-04-19T06:35:51Z</time></trkpt><trkpt lat="37.92188740245938" lon="15.344160786981854"><ele>46.0</ele><time>2026-04-19T06:35:52Z</time></trkpt><trkpt lat="37.921613750781354" lon="15.344053044266879"><ele>39.0</ele><time>2026-04-19T06:35:53Z</time></trkpt><trkpt lat="37.92134002959244" lon="15.343960381577242"><ele>32.0</ele><time>2026-04-19T06:35:54Z</time></trkpt><trkpt lat="37.921060000760015" lon="15.343890621323895"><ele>42.5</ele><time>2026-04-19T06:35:55Z</time></trkpt><trkpt lat="37.92077103383753" lon="15.343842398851647"><ele>53.0</ele><time>2026-04-19T06:35:56Z</time></trkpt><trkpt lat="37.92047785027664" lon="15.343810586928193"><ele>53.0</ele><time>2026-04-19T06:35:57Z</time></trkpt><trkpt lat="37.9201813127212" lon="15.3437868711519"><ele>53.0</ele><time>2026-04-19T06:35:58Z</time></trkpt><trkpt lat="37.919882566908825" lon="15.343762287060358"><ele>51.0</ele><time>2026-04-19T06:35:59Z</time></trkpt><trkpt lat="37.919579376370784" lon="15.343735785946338"><ele>49.0</ele><time>2026-04-19T06:36:00Z</time></trkpt><trkpt lat="37.9192729242314" lon="15.343706804267757"><ele>48.0</ele><time>2026-04-19T06:36:01Z</time></trkpt><trkpt lat="37.918964029108324" lon="15.343667262148841"><ele>47.0</ele><time>2026-04-19T06:36:02Z</time></trkpt><trkpt lat="37.918662733005476" lon="15.343612041909529"><ele>41.5</ele><time>2026-04-19T06:36:03Z</time></trkpt><trkpt lat="37.918363435889944" lon="15.34353686238523"><ele>36.0</ele><time>2026-04-19T06:36:04Z</time></trkpt><trkpt lat="37.918065619642405" lon="15.343446638252264"><ele>36.0</ele><time>2026-04-19T06:36:05Z</time></trkpt><trkpt lat="37.91776195954013" lon="15.343351055593176"><ele>36.0</ele><time>2026-04-19T06:36:06Z</time></trkpt><trkpt lat="37.917457369671865" lon="15.343243027462469"><ele>32.0</ele><time>2026-04-19T06:36:07Z</time></trkpt><trkpt lat="37.91715269149873" lon="15.343117028380465"><ele>28.0</ele><time>2026-04-19T06:36:08Z</time></trkpt><trkpt lat="37.916851273442234" lon="15.34296991633768"><ele>44.0</ele><time>2026-04-19T06:36:09Z</time></trkpt><trkpt lat="37.91655384105298" lon="15.342803268958068"><ele>60.0</ele><time>2026-04-19T06:36:10Z</time></trkpt><trkpt lat="37.916259950186685" lon="15.342607261137992"><ele>60.0</ele><time>2026-04-19T06:36:11Z</time></trkpt><trkpt lat="37.9159637306729" lon="15.342376657350158"><ele>60.0</ele><time>2026-04-19T06:36:12Z</time></trkpt><trkpt lat="37.91564711612339" lon="15.34213460523587"><ele>96.5</ele><time>2026-04-19T06:36:13.025Z</time></trkpt><trkpt lat="37.915324225778384" lon="15.341910471058654"><ele>133.0</ele><time>2026-04-19T06:36:14.026Z</time></trkpt><trkpt lat="37.91500045919795" lon="15.341679816318536"><ele>133.0</ele><time>2026-04-19T06:36:15.024Z</time></trkpt><trkpt lat="37.914679557267874" lon="15.341452616316275"><ele>133.0</ele><time>2026-04-19T06:36:16.025Z</time></trkpt><trkpt lat="37.91225098619069" lon="15.339837615833858"><ele>177.0</ele><time>2026-04-19T06:36:20.774Z</time></trkpt><trkpt lat="37.911619952235206" lon="15.339398043599791"><ele>177.0</ele><time>2026-04-19T06:36:21.774Z</time></trkpt><trkpt lat="37.91098636265095" lon="15.338964485371937"><ele>142.0</ele><time>2026-04-19T06:36:22.774Z</time></trkpt><trkpt lat="37.91037288571548" lon="15.33848922293794"><ele>106.0</ele><time>2026-04-19T06:36:23.773Z</time></trkpt><trkpt lat="37.909788659745075" lon="15.337955258894903"><ele>106.0</ele><time>2026-04-19T06:36:24.774Z</time></trkpt><trkpt lat="37.909244626492864" lon="15.337360659325094"><ele>79.0</ele><time>2026-04-19T06:36:25.773Z</time></trkpt><trkpt lat="37.90874053443173" lon="15.336709514912222"><ele>59.0</ele><time>2026-04-19T06:36:26.774Z</time></trkpt><trkpt lat="37.90794821925266" lon="15.335232904195166"><ele>59.0</ele><time>2026-04-19T06:36:41Z</time></trkpt><trkpt lat="37.90773672178523" lon="15.334886494857736"><ele>59.0</ele><time>2026-04-19T06:36:42Z</time></trkpt><trkpt lat="37.907469727272684" lon="15.33458878774389"><ele>47.5</ele><time>2026-04-19T06:36:43Z</time></trkpt><trkpt lat="37.90724267398622" lon="15.33426950748503"><ele>36.0</ele><time>2026-04-19T06:36:44Z</time></trkpt><trkpt lat="37.907036088569285" lon="15.333933957709906"><ele>35.5</ele><time>2026-04-19T06:36:45Z</time></trkpt><trkpt lat="37.9068376814198" lon="15.33359908481348"><ele>35.0</ele><time>2026-04-19T06:36:46Z</time></trkpt><trkpt lat="37.90664029649177" lon="15.333261482029538"><ele>28.5</ele><time>2026-04-19T06:36:47Z</time></trkpt><trkpt lat="37.906435076055345" lon="15.33293058002152"><ele>22.0</ele><time>2026-04-19T06:36:48Z</time></trkpt><trkpt lat="37.90622212077262" lon="15.332610866072647"><ele>22.0</ele><time>2026-04-19T06:36:49Z</time></trkpt><trkpt lat="37.90599848764914" lon="15.332301161525123"><ele>22.0</ele><time>2026-04-19T06:36:50Z</time></trkpt><trkpt lat="37.90576685238414" lon="15.3320167103086"><ele>37.0</ele><time>2026-04-19T06:36:51Z</time></trkpt><trkpt lat="37.90552561780567" lon="15.331756632491217"><ele>52.0</ele><time>2026-04-19T06:36:52Z</time></trkpt><trkpt lat="37.905282719283946" lon="15.33149699086579"><ele>76.0</ele><time>2026-04-19T06:36:53Z</time></trkpt><trkpt lat="37.905039606717345" lon="15.331242155182847"><ele>100.0</ele><time>2026-04-19T06:36:54Z</time></trkpt><trkpt lat="37.90478363455438" lon="15.330997169214642"><ele>100.0</ele><time>2026-04-19T06:36:55.02Z</time></trkpt><trkpt lat="37.90452859288998" lon="15.330764967750047"><ele>100.0</ele><time>2026-04-19T06:36:56.02Z</time></trkpt><trkpt lat="37.90426804594611" lon="15.33054354248685"><ele>91.0</ele><time>2026-04-19T06:36:57.021Z</time></trkpt><trkpt lat="37.90400582574852" lon="15.330325618310281"><ele>82.0</ele><time>2026-04-19T06:36:58.022Z</time></trkpt><trkpt lat="37.903203391505315" lon="15.329774022116633"><ele>76.5</ele><time>2026-04-19T06:37:01Z</time></trkpt><trkpt lat="37.90293391549523" lon="15.329575811058126"><ele>71.0</ele><time>2026-04-19T06:37:02Z</time></trkpt><trkpt lat="37.90265815596564" lon="15.329367873980576"><ele>66.0</ele><time>2026-04-19T06:37:03Z</time></trkpt><trkpt lat="37.902394145447985" lon="15.329166296660778"><ele>61.0</ele><time>2026-04-19T06:37:04Z</time></trkpt><trkpt lat="37.90211873843338" lon="15.32896210740437"><ele>63.0</ele><time>2026-04-19T06:37:05Z</time></trkpt><trkpt lat="37.90185162890134" lon="15.328764644978847"><ele>65.0</ele><time>2026-04-19T06:37:06Z</time></trkpt><trkpt lat="37.90157946944029" lon="15.32856939506982"><ele>65.0</ele><time>2026-04-19T06:37:07Z</time></trkpt><trkpt lat="37.90130446596882" lon="15.328384520783741"><ele>65.0</ele><time>2026-04-19T06:37:08Z</time></trkpt><trkpt lat="37.90103677487203" lon="15.3281888898914"><ele>64.5</ele><time>2026-04-19T06:37:09Z</time></trkpt><trkpt lat="37.90076587350823" lon="15.327996143934628"><ele>64.0</ele><time>2026-04-19T06:37:10Z</time></trkpt><trkpt lat="37.90050613815666" lon="15.327783775617187"><ele>64.0</ele><time>2026-04-19T06:37:11Z</time></trkpt><trkpt lat="37.90023110449416" lon="15.327550192572359"><ele>64.0</ele><time>2026-04-19T06:37:12Z</time></trkpt><trkpt lat="37.899969438872645" lon="15.327300776431118"><ele>68.0</ele><time>2026-04-19T06:37:13Z</time></trkpt><trkpt lat="37.8997112255673" lon="15.327034600687886"><ele>72.0</ele><time>2026-04-19T06:37:14Z</time></trkpt><trkpt lat="37.899451670443234" lon="15.326755487955054"><ele>68.5</ele><time>2026-04-19T06:37:15Z</time></trkpt><trkpt lat="37.89920019116996" lon="15.326453330586366"><ele>65.0</ele><time>2026-04-19T06:37:16Z</time></trkpt><trkpt lat="37.898953534879176" lon="15.326124682965668"><ele>65.0</ele><time>2026-04-19T06:37:17Z</time></trkpt><trkpt lat="37.89869136609875" lon="15.325791396203082"><ele>65.0</ele><time>2026-04-19T06:37:18Z</time></trkpt><trkpt lat="37.89841365859311" lon="15.325470297756743"><ele>56.0</ele><time>2026-04-19T06:37:19Z</time></trkpt><trkpt lat="37.89812286755632" lon="15.325157086415379"><ele>47.0</ele><time>2026-04-19T06:37:20Z</time></trkpt><trkpt lat="37.8978325974914" lon="15.324861276202466"><ele>55.5</ele><time>2026-04-19T06:37:21Z</time></trkpt><trkpt lat="37.89754153609187" lon="15.324574999905744"><ele>64.0</ele><time>2026-04-19T06:37:22Z</time></trkpt><trkpt lat="37.89724527945401" lon="15.324300043987831"><ele>64.0</ele><time>2026-04-19T06:37:23Z</time></trkpt><trkpt lat="37.896947785615396" lon="15.324036496452955"><ele>64.0</ele><time>2026-04-19T06:37:24Z</time></trkpt><trkpt lat="37.89664923282081" lon="15.323785075498101"><ele>62.5</ele><time>2026-04-19T06:37:25Z</time></trkpt><trkpt lat="37.896357437401086" lon="15.323537246246445"><ele>61.0</ele><time>2026-04-19T06:37:26Z</time></trkpt><trkpt lat="37.89606811248763" lon="15.323298107346332"><ele>64.0</ele><time>2026-04-19T06:37:27Z</time></trkpt><trkpt lat="37.89578736253427" lon="15.323058325382162"><ele>67.0</ele><time>2026-04-19T06:37:28Z</time></trkpt><trkpt lat="37.89551763204303" lon="15.32281660441197"><ele>67.0</ele><time>2026-04-19T06:37:29Z</time></trkpt><trkpt lat="37.895251794342734" lon="15.322567118602779"><ele>67.0</ele><time>2026-04-19T06:37:30Z</time></trkpt><trkpt lat="37.89498820438726" lon="15.32231488037285"><ele>65.0</ele><time>2026-04-19T06:37:31Z</time></trkpt><trkpt lat="37.894731138347915" lon="15.322063097070904"><ele>63.0</ele><time>2026-04-19T06:37:32Z</time></trkpt><trkpt lat="37.89448133969146" lon="15.321808051597996"><ele>63.5</ele><time>2026-04-19T06:37:33Z</time></trkpt><trkpt lat="37.89423515119238" lon="15.32155230947757"><ele>64.0</ele><time>2026-04-19T06:37:34Z</time></trkpt><trkpt lat="37.89399312398252" lon="15.321295795016862"><ele>64.0</ele><time>2026-04-19T06:37:35Z</time></trkpt><trkpt lat="37.89374753431029" lon="15.321042021896677"><ele>64.0</ele><time>2026-04-19T06:37:36Z</time></trkpt><trkpt lat="37.893504899169066" lon="15.320789053095723"><ele>58.5</ele><time>2026-04-19T06:37:37Z</time></trkpt><trkpt lat="37.893261104509484" lon="15.320537232534994"><ele>53.0</ele><time>2026-04-19T06:37:38Z</time></trkpt><trkpt lat="37.89301833748675" lon="15.320284408977122"><ele>53.0</ele><time>2026-04-19T06:37:39Z</time></trkpt><trkpt lat="37.89277599206345" lon="15.320029069677688"><ele>53.0</ele><time>2026-04-19T06:37:40Z</time></trkpt><trkpt lat="37.892535184025526" lon="15.319772670110542"><ele>49.5</ele><time>2026-04-19T06:37:41Z</time></trkpt><trkpt lat="37.892290871513694" lon="15.319519210340317"><ele>46.0</ele><time>2026-04-19T06:37:42Z</time></trkpt><trkpt lat="37.892048936325715" lon="15.319266298912561"><ele>46.0</ele><time>2026-04-19T06:37:43Z</time></trkpt><trkpt lat="37.89180177714348" lon="15.319010608013174"><ele>46.0</ele><time>2026-04-19T06:37:44Z</time></trkpt><trkpt lat="37.89155135923025" lon="15.3187479401303"><ele>54.5</ele><time>2026-04-19T06:37:45Z</time></trkpt><trkpt lat="37.89129417830729" lon="15.318476023929344"><ele>63.0</ele><time>2026-04-19T06:37:46.025Z</time></trkpt><trkpt lat="37.891043033364255" lon="15.318203969409595"><ele>57.5</ele><time>2026-04-19T06:37:47.029Z</time></trkpt><trkpt lat="37.89079994298624" lon="15.317939815364932"><ele>52.0</ele><time>2026-04-19T06:37:48Z</time></trkpt><trkpt lat="37.890542984952106" lon="15.317689924757312"><ele>52.0</ele><time>2026-04-19T06:37:49Z</time></trkpt><trkpt lat="37.89029921762935" lon="15.317433253779779"><ele>52.0</ele><time>2026-04-19T06:37:50Z</time></trkpt><trkpt lat="37.890060573721954" lon="15.317169505612586"><ele>52.0</ele><time>2026-04-19T06:37:51Z</time></trkpt><trkpt lat="37.88982971043759" lon="15.316889041010718"><ele>52.0</ele><time>2026-04-19T06:37:52Z</time></trkpt><trkpt lat="37.889609207269714" lon="15.316597289137166"><ele>53.5</ele><time>2026-04-19T06:37:53Z</time></trkpt><trkpt lat="37.8894018849807" lon="15.31629893090623"><ele>55.0</ele><time>2026-04-19T06:37:54Z</time></trkpt><trkpt lat="37.889199860099076" lon="15.31599362012072"><ele>55.0</ele><time>2026-04-19T06:37:55Z</time></trkpt><trkpt lat="37.88900816868511" lon="15.315679272402294"><ele>55.0</ele><time>2026-04-19T06:37:56Z</time></trkpt><trkpt lat="37.888824395996465" lon="15.315360586756047"><ele>55.5</ele><time>2026-04-19T06:37:57Z</time></trkpt><trkpt lat="37.8886493822145" lon="15.315038917625014"><ele>56.0</ele><time>2026-04-19T06:37:58Z</time></trkpt><trkpt lat="37.88847596235356" lon="15.31471118935633"><ele>48.0</ele><time>2026-04-19T06:37:59Z</time></trkpt><trkpt lat="37.888301531924256" lon="15.314384797315231"><ele>40.0</ele><time>2026-04-19T06:38:00Z</time></trkpt><trkpt lat="37.888123475026106" lon="15.314066882700939"><ele>48.0</ele><time>2026-04-19T06:38:01Z</time></trkpt><trkpt lat="37.887942390945746" lon="15.313754687697203"><ele>56.0</ele><time>2026-04-19T06:38:02Z</time></trkpt><trkpt lat="37.88775892136135" lon="15.31344558492602"><ele>61.0</ele><time>2026-04-19T06:38:03Z</time></trkpt><trkpt lat="37.88756601832143" lon="15.313143528772434"><ele>66.0</ele><time>2026-04-19T06:38:04Z</time></trkpt><trkpt lat="37.887363548708024" lon="15.312854623076749"><ele>66.0</ele><time>2026-04-19T06:38:05Z</time></trkpt><trkpt lat="37.887137997996376" lon="15.312580589842021"><ele>66.0</ele><time>2026-04-19T06:38:06Z</time></trkpt><trkpt lat="37.88690730314052" lon="15.312320200100777"><ele>68.5</ele><time>2026-04-19T06:38:07Z</time></trkpt><trkpt lat="37.88667519647514" lon="15.312063070655187"><ele>71.0</ele><time>2026-04-19T06:38:08Z</time></trkpt><trkpt lat="37.88644463437772" lon="15.311797501388687"><ele>71.0</ele><time>2026-04-19T06:38:09Z</time></trkpt><trkpt lat="37.886210239372815" lon="15.311531596811042"><ele>71.0</ele><time>2026-04-19T06:38:10Z</time></trkpt><trkpt lat="37.885976883415964" lon="15.311266233281357"><ele>68.0</ele><time>2026-04-19T06:38:11Z</time></trkpt><trkpt lat="37.88574783695125" lon="15.311001756220382"><ele>65.0</ele><time>2026-04-19T06:38:12Z</time></trkpt><trkpt lat="37.885519309238994" lon="15.31073744021196"><ele>62.5</ele><time>2026-04-19T06:38:13Z</time></trkpt><trkpt lat="37.88528758819496" lon="15.31047223174306"><ele>60.0</ele><time>2026-04-19T06:38:14Z</time></trkpt><trkpt lat="37.885058969063174" lon="15.310205871293494"><ele>60.0</ele><time>2026-04-19T06:38:15Z</time></trkpt><trkpt lat="37.88483163979349" lon="15.309938244954793"><ele>60.0</ele><time>2026-04-19T06:38:16Z</time></trkpt><trkpt lat="37.88459952049334" lon="15.30967417744298"><ele>56.0</ele><time>2026-04-19T06:38:17Z</time></trkpt><trkpt lat="37.884363520591364" lon="15.309408964882989"><ele>52.0</ele><time>2026-04-19T06:38:18Z</time></trkpt><trkpt lat="37.88412892388309" lon="15.309141185259532"><ele>52.0</ele><time>2026-04-19T06:38:19Z</time></trkpt><trkpt lat="37.88389531377555" lon="15.308873918966336"><ele>52.0</ele><time>2026-04-19T06:38:20Z</time></trkpt><trkpt lat="37.883666525156855" lon="15.308605631845381"><ele>52.0</ele><time>2026-04-19T06:38:21Z</time></trkpt><trkpt lat="37.883438861439146" lon="15.308341638289075"><ele>52.0</ele><time>2026-04-19T06:38:22Z</time></trkpt><trkpt lat="37.88321229290222" lon="15.308075359597458"><ele>60.5</ele><time>2026-04-19T06:38:23Z</time></trkpt><trkpt lat="37.88300043903185" lon="15.307791725286329"><ele>69.0</ele><time>2026-04-19T06:38:24Z</time></trkpt><trkpt lat="37.882812819430065" lon="15.307485082009975"><ele>64.5</ele><time>2026-04-19T06:38:25Z</time></trkpt><trkpt lat="37.882636851534556" lon="15.307156127538656"><ele>60.0</ele><time>2026-04-19T06:38:26Z</time></trkpt><trkpt lat="37.882478453124364" lon="15.306817220676193"><ele>60.0</ele><time>2026-04-19T06:38:27Z</time></trkpt><trkpt lat="37.88231929795179" lon="15.306475766923478"><ele>60.0</ele><time>2026-04-19T06:38:28Z</time></trkpt><trkpt lat="37.88216400157945" lon="15.306135851952568"><ele>55.5</ele><time>2026-04-19T06:38:29Z</time></trkpt><trkpt lat="37.882003248153445" lon="15.305796353474085"><ele>51.0</ele><time>2026-04-19T06:38:30Z</time></trkpt><trkpt lat="37.881842980030974" lon="15.30545904670659"><ele>38.0</ele><time>2026-04-19T06:38:31Z</time></trkpt><trkpt lat="37.88167470073262" lon="15.30512634474725"><ele>25.0</ele><time>2026-04-19T06:38:32Z</time></trkpt><trkpt lat="37.88148406978804" lon="15.304807570581357"><ele>29.0</ele><time>2026-04-19T06:38:33Z</time></trkpt><trkpt lat="37.88127787709468" lon="15.304505315916286"><ele>33.0</ele><time>2026-04-19T06:38:34Z</time></trkpt><trkpt lat="37.8810533200016" lon="15.30422038882112"><ele>33.0</ele><time>2026-04-19T06:38:35Z</time></trkpt><trkpt lat="37.8808071919132" lon="15.303958569551845"><ele>33.0</ele><time>2026-04-19T06:38:36Z</time></trkpt><trkpt lat="37.88054681856021" lon="15.303713885913787"><ele>29.0</ele><time>2026-04-19T06:38:37Z</time></trkpt><trkpt lat="37.88025907135083" lon="15.30348840362631"><ele>25.0</ele><time>2026-04-19T06:38:38Z</time></trkpt><trkpt lat="37.87994639348698" lon="15.303282211773322"><ele>25.0</ele><time>2026-04-19T06:38:39Z</time></trkpt><trkpt lat="37.87961665992851" lon="15.303091230907693"><ele>25.0</ele><time>2026-04-19T06:38:40Z</time></trkpt><trkpt lat="37.879271799573566" lon="15.302921498118657"><ele>31.5</ele><time>2026-04-19T06:38:41Z</time></trkpt><trkpt lat="37.87892600993957" lon="15.302764205153865"><ele>38.0</ele><time>2026-04-19T06:38:42Z</time></trkpt><trkpt lat="37.87858370183934" lon="15.302610235643908"><ele>38.0</ele><time>2026-04-19T06:38:43Z</time></trkpt><trkpt lat="37.878245439873155" lon="15.302452149967097"><ele>38.0</ele><time>2026-04-19T06:38:44Z</time></trkpt><trkpt lat="37.87790797390313" lon="15.302298975833827"><ele>45.5</ele><time>2026-04-19T06:38:45Z</time></trkpt><trkpt lat="37.87757408916705" lon="15.30214545502992"><ele>53.0</ele><time>2026-04-19T06:38:46Z</time></trkpt><trkpt lat="37.87724222865099" lon="15.301995771605895"><ele>53.0</ele><time>2026-04-19T06:38:47Z</time></trkpt><trkpt lat="37.87691718258614" lon="15.301846111741396"><ele>53.0</ele><time>2026-04-19T06:38:48Z</time></trkpt><trkpt lat="37.87659442599334" lon="15.301698041657536"><ele>40.0</ele><time>2026-04-19T06:38:49Z</time></trkpt><trkpt lat="37.87627349832815" lon="15.301553056780971"><ele>27.0</ele><time>2026-04-19T06:38:50Z</time></trkpt><trkpt lat="37.87595217132913" lon="15.301411159683367"><ele>36.0</ele><time>2026-04-19T06:38:51Z</time></trkpt><trkpt lat="37.87563306275082" lon="15.301269096819574"><ele>45.0</ele><time>2026-04-19T06:38:52Z</time></trkpt><trkpt lat="37.875313463269606" lon="15.301128033682822"><ele>49.5</ele><time>2026-04-19T06:38:53Z</time></trkpt><trkpt lat="37.87499513649609" lon="15.300987753432146"><ele>54.0</ele><time>2026-04-19T06:38:54Z</time></trkpt><trkpt lat="37.87468064309238" lon="15.300838882000997"><ele>54.0</ele><time>2026-04-19T06:38:55Z</time></trkpt><trkpt lat="37.874373322152145" lon="15.300676663661617"><ele>54.0</ele><time>2026-04-19T06:38:56Z</time></trkpt><trkpt lat="37.87407292849674" lon="15.30049423750459"><ele>56.5</ele><time>2026-04-19T06:38:57Z</time></trkpt><trkpt lat="37.873776342281296" lon="15.300299387390627"><ele>59.0</ele><time>2026-04-19T06:38:58Z</time></trkpt><trkpt lat="37.87348113922467" lon="15.300101177009246"><ele>55.0</ele><time>2026-04-19T06:38:59Z</time></trkpt><trkpt lat="37.873184857701006" lon="15.299895995477428"><ele>51.0</ele><time>2026-04-19T06:39:00Z</time></trkpt><trkpt lat="37.8728861195757" lon="15.299694404393811"><ele>44.0</ele><time>2026-04-19T06:39:01Z</time></trkpt><trkpt lat="37.872582076145406" lon="15.29949653129257"><ele>37.0</ele><time>2026-04-19T06:39:02Z</time></trkpt><trkpt lat="37.87227079857683" lon="15.299306823195854"><ele>37.0</ele><time>2026-04-19T06:39:03Z</time></trkpt><trkpt lat="37.871954531277076" lon="15.29913027240051"><ele>37.0</ele><time>2026-04-19T06:39:04Z</time></trkpt><trkpt lat="37.87163720788695" lon="15.29896695344727"><ele>43.0</ele><time>2026-04-19T06:39:05Z</time></trkpt><trkpt lat="37.87131434867334" lon="15.298813999912298"><ele>49.0</ele><time>2026-04-19T06:39:06Z</time></trkpt><trkpt lat="37.87098817353692" lon="15.298664643838023"><ele>49.5</ele><time>2026-04-19T06:39:07Z</time></trkpt><trkpt lat="37.8706635842413" lon="15.298511974524969"><ele>50.0</ele><time>2026-04-19T06:39:08Z</time></trkpt><trkpt lat="37.87033711069017" lon="15.298371170718351"><ele>41.0</ele><time>2026-04-19T06:39:09Z</time></trkpt><trkpt lat="37.87001344862294" lon="15.298225443728096"><ele>32.0</ele><time>2026-04-19T06:39:10Z</time></trkpt><trkpt lat="37.869694788445685" lon="15.298079478294747"><ele>43.5</ele><time>2026-04-19T06:39:11Z</time></trkpt><trkpt lat="37.86937640877386" lon="15.297933425407013"><ele>55.0</ele><time>2026-04-19T06:39:12Z</time></trkpt><trkpt lat="37.86906206876813" lon="15.297780997293689"><ele>55.0</ele><time>2026-04-19T06:39:13Z</time></trkpt><trkpt lat="37.868761466209904" lon="15.297619056364928"><ele>55.0</ele><time>2026-04-19T06:39:14Z</time></trkpt><trkpt lat="37.8684609313985" lon="15.297434176276917"><ele>64.5</ele><time>2026-04-19T06:39:15Z</time></trkpt><trkpt lat="37.868165226033376" lon="15.297244577456317"><ele>74.0</ele><time>2026-04-19T06:39:16Z</time></trkpt><trkpt lat="37.86786707249506" lon="15.297053687477401"><ele>68.0</ele><time>2026-04-19T06:39:17Z</time></trkpt><trkpt lat="37.86756259245071" lon="15.296872830309782"><ele>62.0</ele><time>2026-04-19T06:39:18Z</time></trkpt><trkpt lat="37.86726271793876" lon="15.296685667939576"><ele>62.0</ele><time>2026-04-19T06:39:19Z</time></trkpt><trkpt lat="37.86695588084141" lon="15.296496258094534"><ele>62.0</ele><time>2026-04-19T06:39:20Z</time></trkpt><trkpt lat="37.86664191751043" lon="15.296302545935506"><ele>60.0</ele><time>2026-04-19T06:39:21Z</time></trkpt><trkpt lat="37.86631329943245" lon="15.296113331738576"><ele>58.0</ele><time>2026-04-19T06:39:22Z</time></trkpt><trkpt lat="37.86597311633497" lon="15.29592515172545"><ele>55.5</ele><time>2026-04-19T06:39:23Z</time></trkpt><trkpt lat="37.8656234108623" lon="15.295742548530535"><ele>53.0</ele><time>2026-04-19T06:39:24Z</time></trkpt><trkpt lat="37.865263030183954" lon="15.295564676285291"><ele>62.0</ele><time>2026-04-19T06:39:25Z</time></trkpt><trkpt lat="37.86489570973617" lon="15.295387634565447"><ele>71.0</ele><time>2026-04-19T06:39:26Z</time></trkpt><trkpt lat="37.86452542718372" lon="15.295203011067946"><ele>61.0</ele><time>2026-04-19T06:39:27Z</time></trkpt><trkpt lat="37.864151514273296" lon="15.295007477792655"><ele>51.0</ele><time>2026-04-19T06:39:28Z</time></trkpt><trkpt lat="37.86376580245323" lon="15.294809411110373"><ele>61.0</ele><time>2026-04-19T06:39:29Z</time></trkpt><trkpt lat="37.86337961141586" lon="15.294614388476765"><ele>71.0</ele><time>2026-04-19T06:39:30Z</time></trkpt><trkpt lat="37.86299032097903" lon="15.29441931379873"><ele>78.5</ele><time>2026-04-19T06:39:31Z</time></trkpt><trkpt lat="37.862601824945074" lon="15.294221733513107"><ele>86.0</ele><time>2026-04-19T06:39:32Z</time></trkpt><trkpt lat="37.862210765254694" lon="15.294014782998989"><ele>89.0</ele><time>2026-04-19T06:39:33Z</time></trkpt><trkpt lat="37.86182516371993" lon="15.29380597308716"><ele>92.0</ele><time>2026-04-19T06:39:34Z</time></trkpt><trkpt lat="37.86145411974611" lon="15.293593044046565"><ele>75.0</ele><time>2026-04-19T06:39:35Z</time></trkpt><trkpt lat="37.86107800961698" lon="15.293385141290697"><ele>58.0</ele><time>2026-04-19T06:39:36Z</time></trkpt><trkpt lat="37.860721344938206" lon="15.293156865241043"><ele>57.5</ele><time>2026-04-19T06:39:37Z</time></trkpt><trkpt lat="37.86037203490753" lon="15.292914906306985"><ele>57.0</ele><time>2026-04-19T06:39:38Z</time></trkpt><trkpt lat="37.860040291428845" lon="15.29265063099072"><ele>62.5</ele><time>2026-04-19T06:39:39Z</time></trkpt><trkpt lat="37.85971104612288" lon="15.292366828792572"><ele>68.0</ele><time>2026-04-19T06:39:40Z</time></trkpt><trkpt lat="37.85939140933184" lon="15.292066719868505"><ele>74.0</ele><time>2026-04-19T06:39:41Z</time></trkpt><trkpt lat="37.859084348234674" lon="15.291751215188388"><ele>80.0</ele><time>2026-04-19T06:39:42Z</time></trkpt><trkpt lat="37.8587832937198" lon="15.291418000484331"><ele>91.0</ele><time>2026-04-19T06:39:43Z</time></trkpt><trkpt lat="37.85849811101194" lon="15.291063611400931"><ele>102.0</ele><time>2026-04-19T06:39:44Z</time></trkpt><trkpt lat="37.85823088530598" lon="15.290677676069729"><ele>110.0</ele><time>2026-04-19T06:39:45Z</time></trkpt><trkpt lat="37.85796861787069" lon="15.290268240363016"><ele>118.0</ele><time>2026-04-19T06:39:46Z</time></trkpt><trkpt lat="37.85771305176416" lon="15.289849102125725"><ele>134.0</ele><time>2026-04-19T06:39:47Z</time></trkpt><trkpt lat="37.857484780213426" lon="15.289439344582899"><ele>150.0</ele><time>2026-04-19T06:39:48.024Z</time></trkpt><trkpt lat="37.8572833154517" lon="15.289038009659755"><ele>158.0</ele><time>2026-04-19T06:39:49.023Z</time></trkpt><trkpt lat="37.85709125599891" lon="15.288621889500034"><ele>166.0</ele><time>2026-04-19T06:39:50.024Z</time></trkpt><trkpt lat="37.85689584862624" lon="15.288200130312969"><ele>296.0</ele><time>2026-04-19T06:39:51.024Z</time></trkpt><trkpt lat="37.85564982058303" lon="15.285111665523534"><ele>308.0</ele><time>2026-04-19T06:39:55.774Z</time></trkpt><trkpt lat="37.855309963901874" lon="15.284309996267181"><ele>342.0</ele><time>2026-04-19T06:39:56.774Z</time></trkpt><trkpt lat="37.85497155947552" lon="15.283507382565775"><ele>330.0</ele><time>2026-04-19T06:39:57.774Z</time></trkpt><trkpt lat="37.8546268433471" lon="15.282708618847847"><ele>284.0</ele><time>2026-04-19T06:39:58.774Z</time></trkpt><trkpt lat="37.85426512169479" lon="15.281922781901594"><ele>276.0</ele><time>2026-04-19T06:39:59.774Z</time></trkpt><trkpt lat="37.853877293374254" lon="15.281156680962038"><ele>275.0</ele><time>2026-04-19T06:40:00.774Z</time></trkpt><trkpt lat="37.853475624788146" lon="15.280401991432296"><ele>259.0</ele><time>2026-04-19T06:40:01.774Z</time></trkpt><trkpt lat="37.8530523064662" lon="15.279666449457547"><ele>256.0</ele><time>2026-04-19T06:40:02.774Z</time></trkpt><trkpt lat="37.852611611627786" lon="15.278947123737758"><ele>237.0</ele><time>2026-04-19T06:40:03.774Z</time></trkpt><trkpt lat="37.85215112935525" lon="15.278246662961518"><ele>170.0</ele><time>2026-04-19T06:40:04.775Z</time></trkpt><trkpt lat="37.85167558429044" lon="15.277564026803457"><ele>130.0</ele><time>2026-04-19T06:40:05.774Z</time></trkpt><trkpt lat="37.85118582324125" lon="15.27689810179393"><ele>78.0</ele><time>2026-04-19T06:40:06.774Z</time></trkpt><trkpt lat="37.85019552338668" lon="15.275739580407064"><ele>79.5</ele><time>2026-04-19T06:40:22Z</time></trkpt><trkpt lat="37.84989126302772" lon="15.275378719276924"><ele>81.0</ele><time>2026-04-19T06:40:23Z</time></trkpt><trkpt lat="37.849601386877474" lon="15.275013494502598"><ele>95.5</ele><time>2026-04-19T06:40:24Z</time></trkpt><trkpt lat="37.849286768263255" lon="15.27463953386876"><ele>110.0</ele><time>2026-04-19T06:40:25Z</time></trkpt><trkpt lat="37.84894226309019" lon="15.274294072723235"><ele>110.0</ele><time>2026-04-19T06:40:26Z</time></trkpt><trkpt lat="37.848586388466366" lon="15.27393846324534"><ele>113.5</ele><time>2026-04-19T06:40:27Z</time></trkpt><trkpt lat="37.84823443263131" lon="15.273608932174144"><ele>117.0</ele><time>2026-04-19T06:40:28Z</time></trkpt><trkpt lat="37.84789113275683" lon="15.273299695338983"><ele>112.0</ele><time>2026-04-19T06:40:29Z</time></trkpt><trkpt lat="37.84757688146398" lon="15.27302061341819"><ele>107.0</ele><time>2026-04-19T06:40:30Z</time></trkpt><trkpt lat="37.84725157607099" lon="15.27275550763622"><ele>107.0</ele><time>2026-04-19T06:40:31Z</time></trkpt><trkpt lat="37.846936138632444" lon="15.272497029377694"><ele>107.0</ele><time>2026-04-19T06:40:32Z</time></trkpt><trkpt lat="37.84661848669943" lon="15.272239648855358"><ele>126.0</ele><time>2026-04-19T06:40:33Z</time></trkpt><trkpt lat="37.84629789820108" lon="15.271990354470372"><ele>145.0</ele><time>2026-04-19T06:40:34Z</time></trkpt><trkpt lat="37.84597045679709" lon="15.27173245767399"><ele>126.0</ele><time>2026-04-19T06:40:35.021Z</time></trkpt><trkpt lat="37.84188872206755" lon="15.268873712062154"><ele>116.5</ele><time>2026-04-19T06:40:49Z</time></trkpt><trkpt lat="37.841601833025855" lon="15.26865988558862"><ele>107.0</ele><time>2026-04-19T06:40:50Z</time></trkpt><trkpt lat="37.841336159303594" lon="15.26841507588659"><ele>107.0</ele><time>2026-04-19T06:40:51Z</time></trkpt><trkpt lat="37.84107697578772" lon="15.268170425091757"><ele>107.0</ele><time>2026-04-19T06:40:52Z</time></trkpt><trkpt lat="37.84088613799536" lon="15.267829492215872"><ele>99.0</ele><time>2026-04-19T06:40:53Z</time></trkpt><trkpt lat="37.84066867776764" lon="15.267521033729123"><ele>91.0</ele><time>2026-04-19T06:40:54Z</time></trkpt><trkpt lat="37.84046305059186" lon="15.26719982236141"><ele>85.5</ele><time>2026-04-19T06:40:55Z</time></trkpt><trkpt lat="37.8402601952085" lon="15.266841252262848"><ele>80.0</ele><time>2026-04-19T06:40:56Z</time></trkpt><trkpt lat="37.8400629554519" lon="15.266506708981181"><ele>63.0</ele><time>2026-04-19T06:40:57Z</time></trkpt><trkpt lat="37.839984947865844" lon="15.26607732296704"><ele>46.0</ele><time>2026-04-19T06:40:58Z</time></trkpt><trkpt lat="37.839870703890554" lon="15.265683998436737"><ele>59.5</ele><time>2026-04-19T06:40:59Z</time></trkpt><trkpt lat="37.839772181270696" lon="15.265265982135782"><ele>73.0</ele><time>2026-04-19T06:41:00Z</time></trkpt><trkpt lat="37.83970488229669" lon="15.264831400165775"><ele>82.0</ele><time>2026-04-19T06:41:01Z</time></trkpt><trkpt lat="37.839647817844835" lon="15.264393259059862"><ele>91.0</ele><time>2026-04-19T06:41:02Z</time></trkpt><trkpt lat="37.8396010559597" lon="15.263944161962167"><ele>93.0</ele><time>2026-04-19T06:41:03Z</time></trkpt><trkpt lat="37.83954259273721" lon="15.2634800339892"><ele>95.0</ele><time>2026-04-19T06:41:04Z</time></trkpt><trkpt lat="37.839485102389744" lon="15.263016140636282"><ele>88.5</ele><time>2026-04-19T06:41:05Z</time></trkpt><trkpt lat="37.83942320089744" lon="15.262556166926174"><ele>82.0</ele><time>2026-04-19T06:41:06Z</time></trkpt><trkpt lat="37.83932856267609" lon="15.26211365083147"><ele>76.0</ele><time>2026-04-19T06:41:07Z</time></trkpt><trkpt lat="37.83919715185691" lon="15.261693018265992"><ele>70.0</ele><time>2026-04-19T06:41:08Z</time></trkpt><trkpt lat="37.839045446333145" lon="15.26129239098712"><ele>70.0</ele><time>2026-04-19T06:41:09Z</time></trkpt><trkpt lat="37.838866211233096" lon="15.260914832406138"><ele>70.0</ele><time>2026-04-19T06:41:10Z</time></trkpt><trkpt lat="37.83866575819234" lon="15.260553976999276"><ele>70.0</ele><time>2026-04-19T06:41:11Z</time></trkpt><trkpt lat="37.83845722362198" lon="15.260210930532093"><ele>70.0</ele><time>2026-04-19T06:41:12Z</time></trkpt><trkpt lat="37.83822093782771" lon="15.259890891730644"><ele>76.5</ele><time>2026-04-19T06:41:13Z</time></trkpt><trkpt lat="37.83796335364396" lon="15.259587581829422"><ele>83.0</ele><time>2026-04-19T06:41:14Z</time></trkpt><trkpt lat="37.83769302106432" lon="15.259313967871696"><ele>74.0</ele><time>2026-04-19T06:41:15Z</time></trkpt><trkpt lat="37.83740943341158" lon="15.259064182503002"><ele>65.0</ele><time>2026-04-19T06:41:16Z</time></trkpt><trkpt lat="37.83711446383302" lon="15.258842125445332"><ele>65.0</ele><time>2026-04-19T06:41:17Z</time></trkpt><trkpt lat="37.83681710692379" lon="15.258627883252347"><ele>65.0</ele><time>2026-04-19T06:41:18Z</time></trkpt><trkpt lat="37.83652105028725" lon="15.25840826964624"><ele>61.0</ele><time>2026-04-19T06:41:19Z</time></trkpt><trkpt lat="37.83622810755366" lon="15.258177844418157"><ele>57.0</ele><time>2026-04-19T06:41:20Z</time></trkpt><trkpt lat="37.835944588823125" lon="15.257940427771274"><ele>57.0</ele><time>2026-04-19T06:41:21Z</time></trkpt><trkpt lat="37.835661916311295" lon="15.257691665430066"><ele>57.0</ele><time>2026-04-19T06:41:22Z</time></trkpt><trkpt lat="37.835389224722086" lon="15.257436425931513"><ele>56.5</ele><time>2026-04-19T06:41:23Z</time></trkpt><trkpt lat="37.83512420703692" lon="15.257168755550767"><ele>56.0</ele><time>2026-04-19T06:41:24Z</time></trkpt><trkpt lat="37.83485054978783" lon="15.256896686523413"><ele>56.0</ele><time>2026-04-19T06:41:25Z</time></trkpt><trkpt lat="37.83457607757544" lon="15.256614519117223"><ele>56.0</ele><time>2026-04-19T06:41:26Z</time></trkpt><trkpt lat="37.83430570067922" lon="15.256315707134288"><ele>55.0</ele><time>2026-04-19T06:41:27Z</time></trkpt><trkpt lat="37.834045811634134" lon="15.255997679838506"><ele>54.0</ele><time>2026-04-19T06:41:28Z</time></trkpt><trkpt lat="37.833787088787986" lon="15.255664531329176"><ele>55.0</ele><time>2026-04-19T06:41:29Z</time></trkpt><trkpt lat="37.83350733345041" lon="15.255336858766816"><ele>56.0</ele><time>2026-04-19T06:41:30Z</time></trkpt><trkpt lat="37.833222576709986" lon="15.255022862961514"><ele>59.0</ele><time>2026-04-19T06:41:31Z</time></trkpt><trkpt lat="37.83295360966025" lon="15.254724563851417"><ele>62.0</ele><time>2026-04-19T06:41:32Z</time></trkpt><trkpt lat="37.832671784600684" lon="15.254438894479197"><ele>59.5</ele><time>2026-04-19T06:41:33Z</time></trkpt><trkpt lat="37.83239104154291" lon="15.254169660716224"><ele>57.0</ele><time>2026-04-19T06:41:34Z</time></trkpt><trkpt lat="37.83211317315612" lon="15.253921385166146"><ele>57.0</ele><time>2026-04-19T06:41:35Z</time></trkpt><trkpt lat="37.83183161994296" lon="15.2536872286532"><ele>57.0</ele><time>2026-04-19T06:41:36Z</time></trkpt><trkpt lat="37.831547719908194" lon="15.253460251747713"><ele>54.0</ele><time>2026-04-19T06:41:37Z</time></trkpt><trkpt lat="37.831265360417824" lon="15.253250257645616"><ele>51.0</ele><time>2026-04-19T06:41:38Z</time></trkpt><trkpt lat="37.83098975649225" lon="15.253049258054718"><ele>49.0</ele><time>2026-04-19T06:41:39Z</time></trkpt><trkpt lat="37.83072000237586" lon="15.252853591848252"><ele>47.0</ele><time>2026-04-19T06:41:40Z</time></trkpt><trkpt lat="37.83044722334204" lon="15.25265586743094"><ele>47.0</ele><time>2026-04-19T06:41:41Z</time></trkpt><trkpt lat="37.83017455963699" lon="15.252452714113602"><ele>47.0</ele><time>2026-04-19T06:41:42Z</time></trkpt><trkpt lat="37.8298952643618" lon="15.252246446135436"><ele>47.0</ele><time>2026-04-19T06:41:43Z</time></trkpt><trkpt lat="37.82961709738424" lon="15.252040218092791"><ele>47.0</ele><time>2026-04-19T06:41:44Z</time></trkpt><trkpt lat="37.82933521676192" lon="15.251832687576268"><ele>47.0</ele><time>2026-04-19T06:41:45Z</time></trkpt><trkpt lat="37.82905363778298" lon="15.25161832150975"><ele>47.0</ele><time>2026-04-19T06:41:46Z</time></trkpt><trkpt lat="37.828772069756134" lon="15.25140199082509"><ele>47.0</ele><time>2026-04-19T06:41:47Z</time></trkpt><trkpt lat="37.828483683159114" lon="15.251187536262405"><ele>47.0</ele><time>2026-04-19T06:41:48Z</time></trkpt><trkpt lat="37.82819722710419" lon="15.250968815793886"><ele>50.5</ele><time>2026-04-19T06:41:49Z</time></trkpt><trkpt lat="37.827912597516885" lon="15.250745557949237"><ele>54.0</ele><time>2026-04-19T06:41:50Z</time></trkpt><trkpt lat="37.82762273851317" lon="15.250514743182363"><ele>57.5</ele><time>2026-04-19T06:41:51Z</time></trkpt><trkpt lat="37.82733553166006" lon="15.250266237997005"><ele>61.0</ele><time>2026-04-19T06:41:52Z</time></trkpt><trkpt lat="37.82706711603269" lon="15.249987523159003"><ele>55.5</ele><time>2026-04-19T06:41:53Z</time></trkpt><trkpt lat="37.82680535082952" lon="15.249691297251436"><ele>50.0</ele><time>2026-04-19T06:41:54Z</time></trkpt><trkpt lat="37.826545005421444" lon="15.249380590276644"><ele>50.0</ele><time>2026-04-19T06:41:55Z</time></trkpt><trkpt lat="37.826289081272414" lon="15.249054394854248"><ele>50.0</ele><time>2026-04-19T06:41:56Z</time></trkpt><trkpt lat="37.82605805778104" lon="15.248724272692426"><ele>44.0</ele><time>2026-04-19T06:41:57Z</time></trkpt><trkpt lat="37.825852221000986" lon="15.248386748579456"><ele>38.0</ele><time>2026-04-19T06:41:58Z</time></trkpt><trkpt lat="37.825657133825096" lon="15.248037634794843"><ele>38.0</ele><time>2026-04-19T06:41:59Z</time></trkpt><trkpt lat="37.825461650064916" lon="15.247679359438054"><ele>38.0</ele><time>2026-04-19T06:42:00Z</time></trkpt><trkpt lat="37.825249655198874" lon="15.247312519268442"><ele>37.5</ele><time>2026-04-19T06:42:01Z</time></trkpt><trkpt lat="37.8250259410691" lon="15.246929113929237"><ele>37.0</ele><time>2026-04-19T06:42:02Z</time></trkpt><trkpt lat="37.82478967652093" lon="15.246530424189386"><ele>37.0</ele><time>2026-04-19T06:42:03Z</time></trkpt><trkpt lat="37.82454859512064" lon="15.246149212612595"><ele>37.0</ele><time>2026-04-19T06:42:04Z</time></trkpt><trkpt lat="37.824328995422896" lon="15.245817079174497"><ele>37.0</ele><time>2026-04-19T06:42:05Z</time></trkpt><trkpt lat="37.82413184964874" lon="15.245510497021634"><ele>37.0</ele><time>2026-04-19T06:42:06Z</time></trkpt><trkpt lat="37.82395557026735" lon="15.24521950105609"><ele>37.0</ele><time>2026-04-19T06:42:07Z</time></trkpt><trkpt lat="37.82378739376141" lon="15.244926911353195"><ele>37.0</ele><time>2026-04-19T06:42:08Z</time></trkpt><trkpt lat="37.823610487443545" lon="15.244627490283367"><ele>36.5</ele><time>2026-04-19T06:42:09Z</time></trkpt><trkpt lat="37.823437398352944" lon="15.244323707761309"><ele>36.0</ele><time>2026-04-19T06:42:10Z</time></trkpt><trkpt lat="37.82327007000286" lon="15.24400617500222"><ele>35.5</ele><time>2026-04-19T06:42:11Z</time></trkpt><trkpt lat="37.82308373873898" lon="15.24367772670347"><ele>35.0</ele><time>2026-04-19T06:42:12Z</time></trkpt><trkpt lat="37.82287906304806" lon="15.243339398690795"><ele>34.5</ele><time>2026-04-19T06:42:13Z</time></trkpt><trkpt lat="37.822663876068866" lon="15.24299285579102"><ele>34.0</ele><time>2026-04-19T06:42:14Z</time></trkpt><trkpt lat="37.822448114508475" lon="15.242629101675547"><ele>32.5</ele><time>2026-04-19T06:42:15Z</time></trkpt><trkpt lat="37.82222652592866" lon="15.242251209891961"><ele>31.0</ele><time>2026-04-19T06:42:16Z</time></trkpt><trkpt lat="37.821992453774826" lon="15.241865217843765"><ele>32.0</ele><time>2026-04-19T06:42:17Z</time></trkpt><trkpt lat="37.82175614945193" lon="15.241484859387013"><ele>33.0</ele><time>2026-04-19T06:42:18Z</time></trkpt><trkpt lat="37.82152852368263" lon="15.241129930109981"><ele>30.5</ele><time>2026-04-19T06:42:19Z</time></trkpt><trkpt lat="37.82131099715099" lon="15.240785807712642"><ele>28.0</ele><time>2026-04-19T06:42:20Z</time></trkpt><trkpt lat="37.82109972650581" lon="15.240444412968454"><ele>29.0</ele><time>2026-04-19T06:42:21Z</time></trkpt><trkpt lat="37.82089466574869" lon="15.240096700892211"><ele>30.0</ele><time>2026-04-19T06:42:22Z</time></trkpt><trkpt lat="37.82068904408391" lon="15.239753832363752"><ele>31.0</ele><time>2026-04-19T06:42:23Z</time></trkpt><trkpt lat="37.8204827861721" lon="15.239411815985845"><ele>32.0</ele><time>2026-04-19T06:42:24Z</time></trkpt><trkpt lat="37.820276276007206" lon="15.23906724664517"><ele>34.0</ele><time>2026-04-19T06:42:25Z</time></trkpt><trkpt lat="37.82007522285825" lon="15.238725746696087"><ele>36.0</ele><time>2026-04-19T06:42:26Z</time></trkpt><trkpt lat="37.81987136210016" lon="15.238381582154316"><ele>37.0</ele><time>2026-04-19T06:42:27Z</time></trkpt><trkpt lat="37.81967969587368" lon="15.238036939568659"><ele>38.0</ele><time>2026-04-19T06:42:28Z</time></trkpt><trkpt lat="37.81950077655578" lon="15.237684657234515"><ele>38.0</ele><time>2026-04-19T06:42:29Z</time></trkpt><trkpt lat="37.81933218430232" lon="15.237334817090145"><ele>38.0</ele><time>2026-04-19T06:42:30Z</time></trkpt><trkpt lat="37.81917162293508" lon="15.236986006165967"><ele>38.5</ele><time>2026-04-19T06:42:31Z</time></trkpt><trkpt lat="37.819019280991014" lon="15.23663599728616"><ele>39.0</ele><time>2026-04-19T06:42:32Z</time></trkpt><trkpt lat="37.81886914631852" lon="15.23628569874723"><ele>39.5</ele><time>2026-04-19T06:42:33Z</time></trkpt><trkpt lat="37.81873065560879" lon="15.23593562238303"><ele>40.0</ele><time>2026-04-19T06:42:34Z</time></trkpt><trkpt lat="37.81859764074281" lon="15.235582398893738"><ele>40.5</ele><time>2026-04-19T06:42:35Z</time></trkpt><trkpt lat="37.81846457832461" lon="15.235228064071372"><ele>41.0</ele><time>2026-04-19T06:42:36Z</time></trkpt><trkpt lat="37.818337496227215" lon="15.234870527410889"><ele>43.0</ele><time>2026-04-19T06:42:37Z</time></trkpt><trkpt lat="37.818213207431135" lon="15.23451541062871"><ele>45.0</ele><time>2026-04-19T06:42:38Z</time></trkpt><trkpt lat="37.818089931703526" lon="15.234158879442752"><ele>47.0</ele><time>2026-04-19T06:42:39Z</time></trkpt><trkpt lat="37.81796962293586" lon="15.233805798465895"><ele>49.0</ele><time>2026-04-19T06:42:40Z</time></trkpt><trkpt lat="37.81784689825651" lon="15.23345210097184"><ele>48.5</ele><time>2026-04-19T06:42:41Z</time></trkpt><trkpt lat="37.81772175631779" lon="15.233097232763518"><ele>48.0</ele><time>2026-04-19T06:42:42Z</time></trkpt><trkpt lat="37.81759811411938" lon="15.232743359268458"><ele>48.0</ele><time>2026-04-19T06:42:43Z</time></trkpt><trkpt lat="37.817473386710944" lon="15.232390061552579"><ele>48.0</ele><time>2026-04-19T06:42:44Z</time></trkpt><trkpt lat="37.81735484696042" lon="15.232033753657605"><ele>48.5</ele><time>2026-04-19T06:42:45Z</time></trkpt><trkpt lat="37.81722833155237" lon="15.231677206048275"><ele>49.0</ele><time>2026-04-19T06:42:46Z</time></trkpt><trkpt lat="37.81711486117867" lon="15.231311545449906"><ele>49.0</ele><time>2026-04-19T06:42:47Z</time></trkpt><trkpt lat="37.817004226297556" lon="15.230949102951362"><ele>49.0</ele><time>2026-04-19T06:42:48Z</time></trkpt><trkpt lat="37.81689963036449" lon="15.230586522061145"><ele>48.0</ele><time>2026-04-19T06:42:49Z</time></trkpt><trkpt lat="37.81679748891026" lon="15.230221709286978"><ele>47.0</ele><time>2026-04-19T06:42:50Z</time></trkpt><trkpt lat="37.81670893210828" lon="15.229854558437433"><ele>49.0</ele><time>2026-04-19T06:42:51Z</time></trkpt><trkpt lat="37.816628376917016" lon="15.229489020490345"><ele>51.0</ele><time>2026-04-19T06:42:52Z</time></trkpt><trkpt lat="37.816558169940336" lon="15.22912361671846"><ele>51.5</ele><time>2026-04-19T06:42:53Z</time></trkpt><trkpt lat="37.81649507129602" lon="15.228759354335299"><ele>52.0</ele><time>2026-04-19T06:42:54Z</time></trkpt><trkpt lat="37.8164377484371" lon="15.228394595045554"><ele>52.0</ele><time>2026-04-19T06:42:55Z</time></trkpt><trkpt lat="37.81638470075098" lon="15.228030427464889"><ele>52.0</ele><time>2026-04-19T06:42:56Z</time></trkpt><trkpt lat="37.81633583356157" lon="15.227662860650312"><ele>52.5</ele><time>2026-04-19T06:42:57Z</time></trkpt><trkpt lat="37.816305573508224" lon="15.227288710323966"><ele>53.0</ele><time>2026-04-19T06:42:58Z</time></trkpt><trkpt lat="37.81626998823887" lon="15.226917011662662"><ele>53.0</ele><time>2026-04-19T06:42:59Z</time></trkpt><trkpt lat="37.81624059303164" lon="15.226542293074779"><ele>53.0</ele><time>2026-04-19T06:43:00Z</time></trkpt><trkpt lat="37.816227102272585" lon="15.226166143085877"><ele>55.0</ele><time>2026-04-19T06:43:01Z</time></trkpt><trkpt lat="37.81621928057333" lon="15.225788675778082"><ele>57.0</ele><time>2026-04-19T06:43:02Z</time></trkpt><trkpt lat="37.81621432914846" lon="15.225413714373381"><ele>59.5</ele><time>2026-04-19T06:43:03Z</time></trkpt><trkpt lat="37.816201769186435" lon="15.225035639722023"><ele>62.0</ele><time>2026-04-19T06:43:04Z</time></trkpt><trkpt lat="37.81619447488771" lon="15.224655398275546"><ele>62.0</ele><time>2026-04-19T06:43:05Z</time></trkpt><trkpt lat="37.81618532031036" lon="15.224271324989862"><ele>62.0</ele><time>2026-04-19T06:43:06Z</time></trkpt><trkpt lat="37.81617806596455" lon="15.22388432769794"><ele>64.0</ele><time>2026-04-19T06:43:07Z</time></trkpt><trkpt lat="37.816163402118995" lon="15.223495246924564"><ele>66.0</ele><time>2026-04-19T06:43:08Z</time></trkpt><trkpt lat="37.81613682447156" lon="15.223100873004835"><ele>67.5</ele><time>2026-04-19T06:43:09Z</time></trkpt><trkpt lat="37.816101605254964" lon="15.222706351464764"><ele>69.0</ele><time>2026-04-19T06:43:10Z</time></trkpt><trkpt lat="37.81605605110887" lon="15.2223104281638"><ele>69.0</ele><time>2026-04-19T06:43:11Z</time></trkpt><trkpt lat="37.816002608763135" lon="15.221912835789325"><ele>69.0</ele><time>2026-04-19T06:43:12Z</time></trkpt><trkpt lat="37.81593643119805" lon="15.221513305274216"><ele>70.0</ele><time>2026-04-19T06:43:13Z</time></trkpt><trkpt lat="37.81586448620158" lon="15.22110919916268"><ele>71.0</ele><time>2026-04-19T06:43:14Z</time></trkpt><trkpt lat="37.81578065229346" lon="15.220698420593173"><ele>72.0</ele><time>2026-04-19T06:43:15Z</time></trkpt><trkpt lat="37.815683383369254" lon="15.220273665779532"><ele>73.0</ele><time>2026-04-19T06:43:16Z</time></trkpt><trkpt lat="37.81558315785257" lon="15.219838848835685"><ele>75.0</ele><time>2026-04-19T06:43:17Z</time></trkpt><trkpt lat="37.815481008927236" lon="15.21939372695696"><ele>77.0</ele><time>2026-04-19T06:43:18Z</time></trkpt><trkpt lat="37.81538144227859" lon="15.218957714782093"><ele>81.0</ele><time>2026-04-19T06:43:19Z</time></trkpt><trkpt lat="37.815290811619356" lon="15.218536043108132"><ele>85.0</ele><time>2026-04-19T06:43:20Z</time></trkpt><trkpt lat="37.81519543237458" lon="15.218122068478149"><ele>85.5</ele><time>2026-04-19T06:43:21Z</time></trkpt><trkpt lat="37.81511878341438" lon="15.217706204728715"><ele>86.0</ele><time>2026-04-19T06:43:22Z</time></trkpt><trkpt lat="37.815037218469406" lon="15.217304796214218"><ele>90.0</ele><time>2026-04-19T06:43:23Z</time></trkpt><trkpt lat="37.81494802158761" lon="15.216916131207837"><ele>94.0</ele><time>2026-04-19T06:43:24Z</time></trkpt><trkpt lat="37.81485080125055" lon="15.216535509508645"><ele>96.5</ele><time>2026-04-19T06:43:25Z</time></trkpt><trkpt lat="37.81474430827507" lon="15.216159649702321"><ele>99.0</ele><time>2026-04-19T06:43:26Z</time></trkpt><trkpt lat="37.814631125174635" lon="15.215791122428852"><ele>102.0</ele><time>2026-04-19T06:43:27Z</time></trkpt><trkpt lat="37.81451153974907" lon="15.215427733189854"><ele>105.0</ele><time>2026-04-19T06:43:28Z</time></trkpt><trkpt lat="37.81438411573745" lon="15.215064499876593"><ele>101.0</ele><time>2026-04-19T06:43:29Z</time></trkpt><trkpt lat="37.81425223519234" lon="15.21470953610638"><ele>97.0</ele><time>2026-04-19T06:43:30Z</time></trkpt><trkpt lat="37.81411214753174" lon="15.214363972318669"><ele>97.0</ele><time>2026-04-19T06:43:31Z</time></trkpt><trkpt lat="37.813964324229886" lon="15.214023243812111"><ele>97.0</ele><time>2026-04-19T06:43:32Z</time></trkpt><trkpt lat="37.81380893062528" lon="15.213688669338774"><ele>98.0</ele><time>2026-04-19T06:43:33Z</time></trkpt><trkpt lat="37.81365050305684" lon="15.21335777223319"><ele>99.0</ele><time>2026-04-19T06:43:34Z</time></trkpt><trkpt lat="37.81349266884649" lon="15.213033844133964"><ele>98.5</ele><time>2026-04-19T06:43:35Z</time></trkpt><trkpt lat="37.81333617056773" lon="15.212711631514118"><ele>98.0</ele><time>2026-04-19T06:43:36Z</time></trkpt><trkpt lat="37.81318407119773" lon="15.212389279536188"><ele>100.0</ele><time>2026-04-19T06:43:37Z</time></trkpt><trkpt lat="37.813032227468284" lon="15.212070904928645"><ele>102.0</ele><time>2026-04-19T06:43:38Z</time></trkpt><trkpt lat="37.8128816298168" lon="15.211758535165615"><ele>105.5</ele><time>2026-04-19T06:43:39Z</time></trkpt><trkpt lat="37.81273577012334" lon="15.211449025658625"><ele>109.0</ele><time>2026-04-19T06:43:40Z</time></trkpt><trkpt lat="37.81259246774858" lon="15.211140739128682"><ele>109.0</ele><time>2026-04-19T06:43:41Z</time></trkpt><trkpt lat="37.81244894818307" lon="15.210835361548442"><ele>109.0</ele><time>2026-04-19T06:43:42Z</time></trkpt><trkpt lat="37.81230826506312" lon="15.210536192223556"><ele>112.5</ele><time>2026-04-19T06:43:43Z</time></trkpt><trkpt lat="37.81216804400842" lon="15.210240558854636"><ele>116.0</ele><time>2026-04-19T06:43:44Z</time></trkpt><trkpt lat="37.812027879207434" lon="15.209946915258511"><ele>117.0</ele><time>2026-04-19T06:43:45Z</time></trkpt><trkpt lat="37.81188610291049" lon="15.209661700444913"><ele>118.0</ele><time>2026-04-19T06:43:46Z</time></trkpt><trkpt lat="37.8117364465892" lon="15.209382880080927"><ele>118.0</ele><time>2026-04-19T06:43:47Z</time></trkpt><trkpt lat="37.811577741854435" lon="15.209112776219133"><ele>118.0</ele><time>2026-04-19T06:43:48Z</time></trkpt><trkpt lat="37.81142122840779" lon="15.208843477443207"><ele>123.0</ele><time>2026-04-19T06:43:49Z</time></trkpt><trkpt lat="37.81125930690538" lon="15.208575491780437"><ele>128.0</ele><time>2026-04-19T06:43:50Z</time></trkpt><trkpt lat="37.81108602719883" lon="15.208310695983041"><ele>127.0</ele><time>2026-04-19T06:43:51Z</time></trkpt><trkpt lat="37.81090898256336" lon="15.208041606603153"><ele>126.0</ele><time>2026-04-19T06:43:52Z</time></trkpt><trkpt lat="37.81072119412182" lon="15.207770454917263"><ele>126.0</ele><time>2026-04-19T06:43:53Z</time></trkpt><trkpt lat="37.81053788861752" lon="15.207496049874852"><ele>126.0</ele><time>2026-04-19T06:43:54Z</time></trkpt><trkpt lat="37.81033538139775" lon="15.207222764035706"><ele>128.0</ele><time>2026-04-19T06:43:55Z</time></trkpt><trkpt lat="37.810121737471995" lon="15.20695383368179"><ele>130.0</ele><time>2026-04-19T06:43:56Z</time></trkpt><trkpt lat="37.80989694939738" lon="15.206679103154832"><ele>131.0</ele><time>2026-04-19T06:43:57Z</time></trkpt><trkpt lat="37.80966171823744" lon="15.20640801183396"><ele>132.0</ele><time>2026-04-19T06:43:58Z</time></trkpt><trkpt lat="37.80941754902737" lon="15.206136308506823"><ele>132.5</ele><time>2026-04-19T06:43:59Z</time></trkpt><trkpt lat="37.80916715197784" lon="15.205861498427701"><ele>133.0</ele><time>2026-04-19T06:44:00Z</time></trkpt><trkpt lat="37.80890984306369" lon="15.20557996422608"><ele>135.5</ele><time>2026-04-19T06:44:01Z</time></trkpt><trkpt lat="37.80864347716768" lon="15.205286682603742"><ele>138.0</ele><time>2026-04-19T06:44:02Z</time></trkpt><trkpt lat="37.80837454114529" lon="15.204985653042186"><ele>133.0</ele><time>2026-04-19T06:44:03Z</time></trkpt><trkpt lat="37.80809642516489" lon="15.20467408784008"><ele>128.0</ele><time>2026-04-19T06:44:04Z</time></trkpt><trkpt lat="37.8078141952544" lon="15.204356937574376"><ele>123.5</ele><time>2026-04-19T06:44:05Z</time></trkpt><trkpt lat="37.80751910821152" lon="15.204027793287574"><ele>119.0</ele><time>2026-04-19T06:44:06Z</time></trkpt><trkpt lat="37.8072305410005" lon="15.203684365741571"><ele>117.5</ele><time>2026-04-19T06:44:07Z</time></trkpt><trkpt lat="37.80693607023543" lon="15.203338923214991"><ele>116.0</ele><time>2026-04-19T06:44:08Z</time></trkpt><trkpt lat="37.80665014705692" lon="15.203019889722285"><ele>119.5</ele><time>2026-04-19T06:44:09Z</time></trkpt><trkpt lat="37.8063761892108" lon="15.202717127550345"><ele>123.0</ele><time>2026-04-19T06:44:10Z</time></trkpt><trkpt lat="37.8061009891801" lon="15.202420355150883"><ele>124.0</ele><time>2026-04-19T06:44:11Z</time></trkpt><trkpt lat="37.80582270868466" lon="15.202129780051955"><ele>125.0</ele><time>2026-04-19T06:44:12Z</time></trkpt><trkpt lat="37.8055319404717" lon="15.20184534819939"><ele>125.0</ele><time>2026-04-19T06:44:13Z</time></trkpt><trkpt lat="37.8052366164726" lon="15.201572316417073"><ele>125.0</ele><time>2026-04-19T06:44:14Z</time></trkpt><trkpt lat="37.804937776542594" lon="15.20130580424687"><ele>119.0</ele><time>2026-04-19T06:44:15Z</time></trkpt><trkpt lat="37.80463717960026" lon="15.20104644388426"><ele>113.0</ele><time>2026-04-19T06:44:16Z</time></trkpt><trkpt lat="37.8043345119906" lon="15.200792834204652"><ele>108.0</ele><time>2026-04-19T06:44:17Z</time></trkpt><trkpt lat="37.804034799822645" lon="15.200544391911551"><ele>103.0</ele><time>2026-04-19T06:44:18Z</time></trkpt><trkpt lat="37.80372765099256" lon="15.200304054487006"><ele>108.5</ele><time>2026-04-19T06:44:19Z</time></trkpt><trkpt lat="37.8034139944239" lon="15.200069860923003"><ele>114.0</ele><time>2026-04-19T06:44:20Z</time></trkpt><trkpt lat="37.80309043521831" lon="15.199835107396735"><ele>115.0</ele><time>2026-04-19T06:44:21Z</time></trkpt><trkpt lat="37.80276028217792" lon="15.19959433348287"><ele>116.0</ele><time>2026-04-19T06:44:22Z</time></trkpt><trkpt lat="37.80242106239418" lon="15.19935413406412"><ele>116.5</ele><time>2026-04-19T06:44:23Z</time></trkpt><trkpt lat="37.802080138510064" lon="15.199107407728185"><ele>117.0</ele><time>2026-04-19T06:44:24Z</time></trkpt><trkpt lat="37.80174100133067" lon="15.198838175340153"><ele>118.5</ele><time>2026-04-19T06:44:25Z</time></trkpt><trkpt lat="37.80139585057964" lon="15.19856010999782"><ele>120.0</ele><time>2026-04-19T06:44:26Z</time></trkpt><trkpt lat="37.80104282834415" lon="15.198299160609904"><ele>118.5</ele><time>2026-04-19T06:44:27Z</time></trkpt><trkpt lat="37.800694456041036" lon="15.198048607463637"><ele>117.0</ele><time>2026-04-19T06:44:28Z</time></trkpt><trkpt lat="37.800385408389396" lon="15.197818486115072"><ele>113.0</ele><time>2026-04-19T06:44:29Z</time></trkpt><trkpt lat="37.800111971225625" lon="15.197595365462474"><ele>109.0</ele><time>2026-04-19T06:44:30Z</time></trkpt><trkpt lat="37.79986276822768" lon="15.197372834560372"><ele>112.0</ele><time>2026-04-19T06:44:31Z</time></trkpt><trkpt lat="37.799644581603516" lon="15.197159015734865"><ele>115.0</ele><time>2026-04-19T06:44:32Z</time></trkpt><trkpt lat="37.79944006898347" lon="15.196951199"><ele>111.5</ele><time>2026-04-19T06:44:33Z</time></trkpt><trkpt lat="37.79924562407104" lon="15.196743667078577"><ele>108.0</ele><time>2026-04-19T06:44:34Z</time></trkpt><trkpt lat="37.79906482681651" lon="15.196540851783066"><ele>112.0</ele><time>2026-04-19T06:44:35Z</time></trkpt><trkpt lat="37.79889868035945" lon="15.196336196473872"><ele>116.0</ele><time>2026-04-19T06:44:36Z</time></trkpt><trkpt lat="37.79873949175936" lon="15.19612801239653"><ele>116.0</ele><time>2026-04-19T06:44:37Z</time></trkpt><trkpt lat="37.79859919181073" lon="15.195910706876933"><ele>116.0</ele><time>2026-04-19T06:44:38Z</time></trkpt><trkpt lat="37.79846866831232" lon="15.195690511570865"><ele>116.0</ele><time>2026-04-19T06:44:39Z</time></trkpt><trkpt lat="37.79834527540445" lon="15.195472191639048"><ele>114.33333333333333</ele><time>2026-04-19T06:44:40Z</time></trkpt><trkpt lat="37.79822601523221" lon="15.195270907164176"><ele>112.66666666666666</ele><time>2026-04-19T06:44:41Z</time></trkpt><trkpt lat="37.79810698530534" lon="15.195084231484797"><ele>111.0</ele><time>2026-04-19T06:44:42Z</time></trkpt><trkpt lat="37.79798943319761" lon="15.19491518086485"><ele>113.0</ele><time>2026-04-19T06:44:43Z</time></trkpt><trkpt lat="37.79789125046127" lon="15.194762689901383"><ele>115.0</ele><time>2026-04-19T06:44:44Z</time></trkpt><trkpt lat="37.797815672622086" lon="15.194596778967524"><ele>117.0</ele><time>2026-04-19T06:44:45Z</time></trkpt><trkpt lat="37.797773045266226" lon="15.194410735115845"><ele>117.0</ele><time>2026-04-19T06:44:46Z</time></trkpt><trkpt lat="37.79778283334092" lon="15.194227676110794"><ele>117.0</ele><time>2026-04-19T06:44:47Z</time></trkpt><trkpt lat="37.797840217069506" lon="15.194064987933196"><ele>117.0</ele><time>2026-04-19T06:44:48Z</time></trkpt><trkpt lat="37.7979319987913" lon="15.193933639578727"><ele>117.0</ele><time>2026-04-19T06:44:49Z</time></trkpt><trkpt lat="37.79805126852208" lon="15.193840514399241"><ele>119.5</ele><time>2026-04-19T06:44:50Z</time></trkpt><trkpt lat="37.798183750198" lon="15.193792575398543"><ele>122.0</ele><time>2026-04-19T06:44:51Z</time></trkpt><trkpt lat="37.79832227291831" lon="15.193789137214642"><ele>124.5</ele><time>2026-04-19T06:44:52Z</time></trkpt><trkpt lat="37.79845661589595" lon="15.193831904579561"><ele>127.0</ele><time>2026-04-19T06:44:53Z</time></trkpt><trkpt lat="37.79857821392359" lon="15.193923004065553"><ele>127.0</ele><time>2026-04-19T06:44:54Z</time></trkpt><trkpt lat="37.79869088959058" lon="15.19402510361736"><ele>127.0</ele><time>2026-04-19T06:44:55Z</time></trkpt><trkpt lat="37.79879628776931" lon="15.194134731822807"><ele>127.0</ele><time>2026-04-19T06:44:56Z</time></trkpt><trkpt lat="37.798899335868164" lon="15.194234665887103"><ele>127.0</ele><time>2026-04-19T06:44:57Z</time></trkpt><trkpt lat="37.79900532351222" lon="15.194324701537909"><ele>127.0</ele><time>2026-04-19T06:44:58Z</time></trkpt><trkpt lat="37.79911094396708" lon="15.194412642517552"><ele>127.0</ele><time>2026-04-19T06:44:59Z</time></trkpt><trkpt lat="37.799214360770065" lon="15.194501028939063"><ele>127.0</ele><time>2026-04-19T06:45:00Z</time></trkpt><trkpt lat="37.79931905360376" lon="15.19458549194246"><ele>127.0</ele><time>2026-04-19T06:45:01Z</time></trkpt><trkpt lat="37.79942445942626" lon="15.194668713931499"><ele>128.0</ele><time>2026-04-19T06:45:02Z</time></trkpt><trkpt lat="37.79952338714122" lon="15.194751805166362"><ele>129.0</ele><time>2026-04-19T06:45:03Z</time></trkpt><trkpt lat="37.79962572575281" lon="15.194841615783442"><ele>130.0</ele><time>2026-04-19T06:45:04Z</time></trkpt><trkpt lat="37.799738735754374" lon="15.19491085781087"><ele>131.0</ele><time>2026-04-19T06:45:05Z</time></trkpt><trkpt lat="37.799849222342694" lon="15.194998945999183"><ele>131.0</ele><time>2026-04-19T06:45:06Z</time></trkpt><trkpt lat="37.799926312961475" lon="15.195102635560655"><ele>131.0</ele><time>2026-04-19T06:45:07Z</time></trkpt><trkpt lat="37.80002441081778" lon="15.19517922119527"><ele>131.0</ele><time>2026-04-19T06:45:08Z</time></trkpt><trkpt lat="37.800108345631934" lon="15.195265593162752"><ele>131.0</ele><time>2026-04-19T06:45:09Z</time></trkpt><trkpt lat="37.800178182342314" lon="15.19536221755357"><ele>131.0</ele><time>2026-04-19T06:45:10Z</time></trkpt><trkpt lat="37.80025856089517" lon="15.195440946628999"><ele>130.4</ele><time>2026-04-19T06:45:11Z</time></trkpt><trkpt lat="37.800337738506286" lon="15.19552333886118"><ele>129.8</ele><time>2026-04-19T06:45:12Z</time></trkpt><trkpt lat="37.800418950377" lon="15.19560474192715"><ele>129.20000000000002</ele><time>2026-04-19T06:45:13Z</time></trkpt><trkpt lat="37.80050407522405" lon="15.195688408957725"><ele>128.6</ele><time>2026-04-19T06:45:14Z</time></trkpt><trkpt lat="37.80058891544746" lon="15.195777792290134"><ele>128.0</ele><time>2026-04-19T06:45:15Z</time></trkpt><trkpt lat="37.80067282234645" lon="15.195865765500885"><ele>127.99999999999999</ele><time>2026-04-19T06:45:16Z</time></trkpt><trkpt lat="37.80075256482682" lon="15.19594913070416"><ele>128.0</ele><time>2026-04-19T06:45:17Z</time></trkpt><trkpt lat="37.80082149996202" lon="15.196030016720673"><ele>128.0</ele><time>2026-04-19T06:45:18Z</time></trkpt><trkpt lat="37.80088567618089" lon="15.196102978084191"><ele>128.0</ele><time>2026-04-19T06:45:19Z</time></trkpt><trkpt lat="37.80093266790345" lon="15.196184488746791"><ele>127.99999999999999</ele><time>2026-04-19T06:45:20Z</time></trkpt><trkpt lat="37.800984244518624" lon="15.196253827297248"><ele>128.0</ele><time>2026-04-19T06:45:21Z</time></trkpt><trkpt lat="37.80103512679192" lon="15.196314463141332"><ele>128.5</ele><time>2026-04-19T06:45:22Z</time></trkpt><trkpt lat="37.801088602934946" lon="15.196372762775228"><ele>129.0</ele><time>2026-04-19T06:45:23Z</time></trkpt><trkpt lat="37.801142844158065" lon="15.196430146066163"><ele>129.5</ele><time>2026-04-19T06:45:24Z</time></trkpt><trkpt lat="37.80119939536106" lon="15.196488360217147"><ele>130.0</ele><time>2026-04-19T06:45:25Z</time></trkpt><trkpt lat="37.80126451949929" lon="15.196525753797829"><ele>130.5</ele><time>2026-04-19T06:45:26Z</time></trkpt><trkpt lat="37.801352506035514" lon="15.196635984692865"><ele>131.0</ele><time>2026-04-19T06:45:28Z</time></trkpt><trkpt lat="37.80144557032951" lon="15.19673433799784"><ele>131.0</ele><time>2026-04-19T06:45:30Z</time></trkpt><trkpt lat="37.8015031659906" lon="15.196772796683605"><ele>131.0</ele><time>2026-04-19T06:45:31Z</time></trkpt><trkpt lat="37.80159543125426" lon="15.19687695981378"><ele>131.0</ele><time>2026-04-19T06:45:33Z</time></trkpt><trkpt lat="37.80166468478118" lon="15.196952834436557"><ele>131.0</ele><time>2026-04-19T06:45:35Z</time></trkpt><trkpt lat="37.80168992141398" lon="15.197030526383713"><ele>131.0</ele><time>2026-04-19T06:46:33Z</time></trkpt><trkpt lat="37.801783157237416" lon="15.197131728081395"><ele>131.25</ele><time>2026-04-19T06:46:35Z</time></trkpt><trkpt lat="37.80185882701714" lon="15.197206738442707"><ele>131.5</ele><time>2026-04-19T06:46:36Z</time></trkpt><trkpt lat="37.801972348990816" lon="15.197288208800188"><ele>131.75</ele><time>2026-04-19T06:46:37Z</time></trkpt><trkpt lat="37.802074371573674" lon="15.197397744186901"><ele>132.0</ele><time>2026-04-19T06:46:38Z</time></trkpt><trkpt lat="37.802174790817865" lon="15.197497180727348"><ele>130.5</ele><time>2026-04-19T06:46:39Z</time></trkpt><trkpt lat="37.80228636812167" lon="15.197595020883373"><ele>129.0</ele><time>2026-04-19T06:46:40Z</time></trkpt><trkpt lat="37.80242174484447" lon="15.197679783752298"><ele>127.5</ele><time>2026-04-19T06:46:41Z</time></trkpt><trkpt lat="37.802570576665964" lon="15.197737687531372"><ele>126.0</ele><time>2026-04-19T06:46:42Z</time></trkpt><trkpt lat="37.8027076134655" lon="15.197784043592872"><ele>125.75</ele><time>2026-04-19T06:46:43Z</time></trkpt><trkpt lat="37.80284245108119" lon="15.197777294811132"><ele>125.5</ele><time>2026-04-19T06:46:44Z</time></trkpt><trkpt lat="37.802966668378275" lon="15.197750960777249"><ele>125.25</ele><time>2026-04-19T06:46:45Z</time></trkpt><trkpt lat="37.80307855202156" lon="15.197728316517798"><ele>125.0</ele><time>2026-04-19T06:46:46Z</time></trkpt><trkpt lat="37.803176285440955" lon="15.197722625753949"><ele>124.99999999999999</ele><time>2026-04-19T06:46:47Z</time></trkpt><trkpt lat="37.80326565033721" lon="15.197739743291514"><ele>125.0</ele><time>2026-04-19T06:46:48Z</time></trkpt><trkpt lat="37.80335066995583" lon="15.197736707157954"><ele>125.0</ele><time>2026-04-19T06:46:49Z</time></trkpt><trkpt lat="37.803414180050304" lon="15.197830472694482"><ele>125.0</ele><time>2026-04-19T06:46:50Z</time></trkpt><trkpt lat="37.80348348587427" lon="15.197862209089505"><ele>124.99999999999999</ele><time>2026-04-19T06:46:51Z</time></trkpt><trkpt lat="37.80354773385407" lon="15.197840262569981"><ele>125.0</ele><time>2026-04-19T06:46:52Z</time></trkpt><trkpt lat="37.80363002912701" lon="15.197722715514406"><ele>125.66666666666666</ele><time>2026-04-19T06:46:54Z</time></trkpt><trkpt lat="37.80367007589638" lon="15.197655054696778"><ele>126.33333333333333</ele><time>2026-04-19T06:46:55Z</time></trkpt><trkpt lat="37.803650920196226" lon="15.197538959880907"><ele>127.0</ele><time>2026-04-19T06:46:56Z</time></trkpt><trkpt lat="37.80361360179186" lon="15.197445914662515"><ele>127.66666666666666</ele><time>2026-04-19T06:46:57Z</time></trkpt><trkpt lat="37.80353333664907" lon="15.197372164287128"><ele>128.33333333333334</ele><time>2026-04-19T06:46:58Z</time></trkpt><trkpt lat="37.80345033040982" lon="15.197295025115434"><ele>129.0</ele><time>2026-04-19T06:46:59Z</time></trkpt><trkpt lat="37.80340484835311" lon="15.197164077902343"><ele>129.0</ele><time>2026-04-19T06:47:00Z</time></trkpt><trkpt lat="37.803390240739134" lon="15.197023963671201"><ele>129.0</ele><time>2026-04-19T06:47:01Z</time></trkpt><trkpt lat="37.80337518040831" lon="15.19687613213417"><ele>129.0</ele><time>2026-04-19T06:47:02Z</time></trkpt><trkpt lat="37.80336891812388" lon="15.196719109845388"><ele>129.0</ele><time>2026-04-19T06:47:03Z</time></trkpt><trkpt lat="37.803349758272866" lon="15.196560525667358"><ele>131.33333333333334</ele><time>2026-04-19T06:47:04Z</time></trkpt><trkpt lat="37.803325583215134" lon="15.196369733080877"><ele>133.66666666666669</ele><time>2026-04-19T06:47:05Z</time></trkpt><trkpt lat="37.803298917632276" lon="15.196153566880268"><ele>136.0</ele><time>2026-04-19T06:47:06Z</time></trkpt><trkpt lat="37.8032773954089" lon="15.195945439949288"><ele>136.0</ele><time>2026-04-19T06:47:07Z</time></trkpt><trkpt lat="37.80325205061264" lon="15.19572687148145"><ele>136.0</ele><time>2026-04-19T06:47:08Z</time></trkpt><trkpt lat="37.80320002132632" lon="15.19549247547882"><ele>136.0</ele><time>2026-04-19T06:47:09Z</time></trkpt><trkpt lat="37.80311438368636" lon="15.195235896626677"><ele>137.0</ele><time>2026-04-19T06:47:10Z</time></trkpt><trkpt lat="37.80301250247543" lon="15.194964011279065"><ele>138.0</ele><time>2026-04-19T06:47:11Z</time></trkpt><trkpt lat="37.802899992590106" lon="15.194675568043376"><ele>139.5</ele><time>2026-04-19T06:47:12Z</time></trkpt><trkpt lat="37.80278392451668" lon="15.194406419885654"><ele>141.0</ele><time>2026-04-19T06:47:13Z</time></trkpt><trkpt lat="37.80266003914731" lon="15.194145473978773"><ele>143.0</ele><time>2026-04-19T06:47:14Z</time></trkpt><trkpt lat="37.80253855657171" lon="15.193914276433068"><ele>145.0</ele><time>2026-04-19T06:47:15Z</time></trkpt><trkpt lat="37.80241990184847" lon="15.193703966849602"><ele>147.0</ele><time>2026-04-19T06:47:16Z</time></trkpt><trkpt lat="37.80230545536378" lon="15.193506092454147"><ele>147.0</ele><time>2026-04-19T06:47:17Z</time></trkpt><trkpt lat="37.80219531505172" lon="15.193319583585046"><ele>147.0</ele><time>2026-04-19T06:47:18Z</time></trkpt><trkpt lat="37.80209126085319" lon="15.19314214371389"><ele>147.0</ele><time>2026-04-19T06:47:19Z</time></trkpt><trkpt lat="37.802014879085355" lon="15.19296810502749"><ele>149.6</ele><time>2026-04-19T06:47:20Z</time></trkpt><trkpt lat="37.80192560108843" lon="15.192840271535179"><ele>152.2</ele><time>2026-04-19T06:47:21Z</time></trkpt><trkpt lat="37.80187115915391" lon="15.192720282803581"><ele>154.8</ele><time>2026-04-19T06:47:22Z</time></trkpt><trkpt lat="37.80184555032358" lon="15.192600513982716"><ele>157.4</ele><time>2026-04-19T06:47:23Z</time></trkpt><trkpt lat="37.801861328302195" lon="15.192484181444481"><ele>160.0</ele><time>2026-04-19T06:47:24Z</time></trkpt><trkpt lat="37.80191133806582" lon="15.192402214404527"><ele>160.0</ele><time>2026-04-19T06:47:25Z</time></trkpt><trkpt lat="37.801987806019206" lon="15.192346752425925"><ele>160.0</ele><time>2026-04-19T06:47:26Z</time></trkpt><trkpt lat="37.80208680103475" lon="15.192330041070765"><ele>160.0</ele><time>2026-04-19T06:47:27Z</time></trkpt><trkpt lat="37.802203095822904" lon="15.192356532734454"><ele>160.0</ele><time>2026-04-19T06:47:28Z</time></trkpt><trkpt lat="37.8023293971468" lon="15.19240792320387"><ele>160.0</ele><time>2026-04-19T06:47:29Z</time></trkpt><trkpt lat="37.80246767783867" lon="15.192456213789523"><ele>160.0</ele><time>2026-04-19T06:47:30Z</time></trkpt><trkpt lat="37.80261969730803" lon="15.192511751784966"><ele>160.0</ele><time>2026-04-19T06:47:31Z</time></trkpt><trkpt lat="37.80278515818064" lon="15.19256745442997"><ele>160.0</ele><time>2026-04-19T06:47:32Z</time></trkpt><trkpt lat="37.80297118835785" lon="15.192612392137312"><ele>162.66666666666669</ele><time>2026-04-19T06:47:33Z</time></trkpt><trkpt lat="37.80315920588689" lon="15.192652561027849"><ele>165.33333333333334</ele><time>2026-04-19T06:47:34Z</time></trkpt><trkpt lat="37.803332450719346" lon="15.192685777867103"><ele>168.0</ele><time>2026-04-19T06:47:35Z</time></trkpt><trkpt lat="37.80348296824944" lon="15.192718589646095"><ele>167.4</ele><time>2026-04-19T06:47:36Z</time></trkpt><trkpt lat="37.80362006027864" lon="15.192745899142995"><ele>166.8</ele><time>2026-04-19T06:47:37Z</time></trkpt><trkpt lat="37.80373096217832" lon="15.192778118236337"><ele>166.2</ele><time>2026-04-19T06:47:38Z</time></trkpt><trkpt lat="37.80381294510513" lon="15.192791441124148"><ele>165.6</ele><time>2026-04-19T06:47:39Z</time></trkpt><trkpt lat="37.80388171667939" lon="15.192761998015053"><ele>165.0</ele><time>2026-04-19T06:47:40Z</time></trkpt><trkpt lat="37.803922433788884" lon="15.192689320831507"><ele>165.0</ele><time>2026-04-19T06:47:41Z</time></trkpt><trkpt lat="37.803930612071326" lon="15.192588720449681"><ele>165.0</ele><time>2026-04-19T06:47:42Z</time></trkpt><trkpt lat="37.80389835619397" lon="15.192477232478693"><ele>165.0</ele><time>2026-04-19T06:47:43Z</time></trkpt><trkpt lat="37.80381861918721" lon="15.192391000024575"><ele>165.0</ele><time>2026-04-19T06:47:44Z</time></trkpt><trkpt lat="37.803697874861086" lon="15.192337175350255"><ele>165.0</ele><time>2026-04-19T06:47:45Z</time></trkpt><trkpt lat="37.803567764571895" lon="15.192250992346041"><ele>173.33333333333334</ele><time>2026-04-19T06:47:46Z</time></trkpt><trkpt lat="37.803420172016736" lon="15.192161552538275"><ele>181.66666666666669</ele><time>2026-04-19T06:47:47Z</time></trkpt><trkpt lat="37.80326438443357" lon="15.192067146365556"><ele>190.0</ele><time>2026-04-19T06:47:48Z</time></trkpt><trkpt lat="37.803096823658784" lon="15.19198318325998"><ele>190.0</ele><time>2026-04-19T06:47:49Z</time></trkpt><trkpt lat="37.802937849611254" lon="15.191872902598622"><ele>190.0</ele><time>2026-04-19T06:47:50Z</time></trkpt><trkpt lat="37.8027806735286" lon="15.191748759315852"><ele>190.0</ele><time>2026-04-19T06:47:51Z</time></trkpt><trkpt lat="37.80263617070154" lon="15.191618860106125"><ele>187.0</ele><time>2026-04-19T06:47:52Z</time></trkpt><trkpt lat="37.80247109431584" lon="15.191527785715797"><ele>184.0</ele><time>2026-04-19T06:47:53Z</time></trkpt><trkpt lat="37.80227602991982" lon="15.19147735272317"><ele>181.0</ele><time>2026-04-19T06:47:54Z</time></trkpt><trkpt lat="37.802077605446584" lon="15.19142356056384"><ele>187.0</ele><time>2026-04-19T06:47:55Z</time></trkpt><trkpt lat="37.801894791937016" lon="15.191381378955894"><ele>193.0</ele><time>2026-04-19T06:47:56Z</time></trkpt><trkpt lat="37.80176217754846" lon="15.191267286210497"><ele>199.0</ele><time>2026-04-19T06:47:57Z</time></trkpt><trkpt lat="37.80162069500541" lon="15.191205821046049"><ele>199.0</ele><time>2026-04-19T06:47:58Z</time></trkpt><trkpt lat="37.801476468763035" lon="15.19120871452506"><ele>199.0</ele><time>2026-04-19T06:47:59Z</time></trkpt><trkpt lat="37.80133812912597" lon="15.191272376130817"><ele>199.0</ele><time>2026-04-19T06:48:00Z</time></trkpt><trkpt lat="37.8011846771176" lon="15.191301275378411"><ele>199.0</ele><time>2026-04-19T06:48:01Z</time></trkpt><trkpt lat="37.801029385285936" lon="15.19134285180804"><ele>198.79999999999998</ele><time>2026-04-19T06:48:02Z</time></trkpt><trkpt lat="37.800897494669826" lon="15.191377812984289"><ele>198.6</ele><time>2026-04-19T06:48:03Z</time></trkpt><trkpt lat="37.80078569667105" lon="15.191412588689216"><ele>198.4</ele><time>2026-04-19T06:48:04Z</time></trkpt><trkpt lat="37.800687259952376" lon="15.191408456427148"><ele>198.2</ele><time>2026-04-19T06:48:05Z</time></trkpt><trkpt lat="37.80060727777621" lon="15.191359581722336"><ele>198.0</ele><time>2026-04-19T06:48:06Z</time></trkpt><trkpt lat="37.80055438385655" lon="15.191280974069015"><ele>198.0</ele><time>2026-04-19T06:48:07Z</time></trkpt><trkpt lat="37.800532450818" lon="15.191170627029697"><ele>198.0</ele><time>2026-04-19T06:48:08Z</time></trkpt><trkpt lat="37.80054225525194" lon="15.19103160682094"><ele>198.0</ele><time>2026-04-19T06:48:09Z</time></trkpt><trkpt lat="37.80056918293831" lon="15.190883394302816"><ele>198.0</ele><time>2026-04-19T06:48:10Z</time></trkpt><trkpt lat="37.80061582346595" lon="15.190735500671158"><ele>198.0</ele><time>2026-04-19T06:48:11Z</time></trkpt><trkpt lat="37.80065714587794" lon="15.190611961490594"><ele>199.75</ele><time>2026-04-19T06:48:12Z</time></trkpt><trkpt lat="37.80067215087028" lon="15.19049993814231"><ele>201.5</ele><time>2026-04-19T06:48:13Z</time></trkpt><trkpt lat="37.80063759039105" lon="15.190388048450304"><ele>203.25</ele><time>2026-04-19T06:48:14Z</time></trkpt><trkpt lat="37.80056601149253" lon="15.190269995399177"><ele>205.0</ele><time>2026-04-19T06:48:15Z</time></trkpt><trkpt lat="37.80044771373801" lon="15.190144056512093"><ele>205.0</ele><time>2026-04-19T06:48:16Z</time></trkpt><trkpt lat="37.800308745897865" lon="15.189992163959124"><ele>205.0</ele><time>2026-04-19T06:48:17Z</time></trkpt><trkpt lat="37.80017394426409" lon="15.189809559361672"><ele>205.0</ele><time>2026-04-19T06:48:18Z</time></trkpt><trkpt lat="37.80001424607382" lon="15.18960168015818"><ele>205.0</ele><time>2026-04-19T06:48:19Z</time></trkpt><trkpt lat="37.799848633876664" lon="15.189376465404123"><ele>205.0</ele><time>2026-04-19T06:48:20Z</time></trkpt><trkpt lat="37.79967445289405" lon="15.189140313042264"><ele>209.0</ele><time>2026-04-19T06:48:21Z</time></trkpt><trkpt lat="37.799503300649974" lon="15.188908476915104"><ele>213.0</ele><time>2026-04-19T06:48:22Z</time></trkpt><trkpt lat="37.79934675834681" lon="15.188697824749699"><ele>213.66666666666669</ele><time>2026-04-19T06:48:23Z</time></trkpt><trkpt lat="37.79920560270503" lon="15.188503416170784"><ele>214.33333333333334</ele><time>2026-04-19T06:48:24Z</time></trkpt><trkpt lat="37.79907419612275" lon="15.188324231622305"><ele>215.0</ele><time>2026-04-19T06:48:25Z</time></trkpt><trkpt lat="37.79895181011766" lon="15.188158696554945"><ele>215.0</ele><time>2026-04-19T06:48:26Z</time></trkpt><trkpt lat="37.798843836446906" lon="15.188017159608092"><ele>215.0</ele><time>2026-04-19T06:48:27Z</time></trkpt><trkpt lat="37.798767348322514" lon="15.187909340800042"><ele>215.0</ele><time>2026-04-19T06:48:28Z</time></trkpt><trkpt lat="37.798724784176265" lon="15.187839280240071"><ele>215.0</ele><time>2026-04-19T06:48:29Z</time></trkpt><trkpt lat="37.798725265680176" lon="15.18772444157503"><ele>215.0</ele><time>2026-04-19T06:48:31Z</time></trkpt><trkpt lat="37.79877693316854" lon="15.187676877343527"><ele>215.0</ele><time>2026-04-19T06:48:32Z</time></trkpt><trkpt lat="37.79885174215269" lon="15.187646736554473"><ele>215.0</ele><time>2026-04-19T06:48:33Z</time></trkpt><trkpt lat="37.79893235999269" lon="15.18761647341705"><ele>215.0</ele><time>2026-04-19T06:48:34Z</time></trkpt><trkpt lat="37.79901942481267" lon="15.187574814062442"><ele>215.0</ele><time>2026-04-19T06:48:35Z</time></trkpt><trkpt lat="37.799119177691054" lon="15.187525465622862"><ele>215.0</ele><time>2026-04-19T06:48:36Z</time></trkpt><trkpt lat="37.79923492386496" lon="15.18747913500379"><ele>216.25</ele><time>2026-04-19T06:48:37Z</time></trkpt><trkpt lat="37.79936069987506" lon="15.187438287775612"><ele>217.5</ele><time>2026-04-19T06:48:38Z</time></trkpt><trkpt lat="37.79949306721301" lon="15.18739871437941"><ele>218.75</ele><time>2026-04-19T06:48:39Z</time></trkpt><trkpt lat="37.79962430486353" lon="15.187345896930854"><ele>220.0</ele><time>2026-04-19T06:48:40Z</time></trkpt><trkpt lat="37.799749797115744" lon="15.187269479034647"><ele>221.5</ele><time>2026-04-19T06:48:41Z</time></trkpt><trkpt lat="37.79988195855675" lon="15.187180158913346"><ele>223.0</ele><time>2026-04-19T06:48:42Z</time></trkpt><trkpt lat="37.80002534231814" lon="15.187123842622725"><ele>224.5</ele><time>2026-04-19T06:48:43Z</time></trkpt><trkpt lat="37.800165737516245" lon="15.187133406427224"><ele>226.0</ele><time>2026-04-19T06:48:44Z</time></trkpt><trkpt lat="37.800272251210735" lon="15.187190499342409"><ele>226.5</ele><time>2026-04-19T06:48:45Z</time></trkpt><trkpt lat="37.80035618625128" lon="15.187285822076644"><ele>227.0</ele><time>2026-04-19T06:48:46Z</time></trkpt><trkpt lat="37.80042426258746" lon="15.187411942133995"><ele>227.5</ele><time>2026-04-19T06:48:47Z</time></trkpt><trkpt lat="37.8005002827694" lon="15.18753814755157"><ele>228.0</ele><time>2026-04-19T06:48:48Z</time></trkpt><trkpt lat="37.80058869829942" lon="15.187656195575984"><ele>228.0</ele><time>2026-04-19T06:48:49Z</time></trkpt><trkpt lat="37.800670203884785" lon="15.187765913753314"><ele>228.0</ele><time>2026-04-19T06:48:50Z</time></trkpt><trkpt lat="37.8007430352247" lon="15.18786004086697"><ele>228.0</ele><time>2026-04-19T06:48:51Z</time></trkpt><trkpt lat="37.80081455979048" lon="15.187926323043273"><ele>228.0</ele><time>2026-04-19T06:48:52Z</time></trkpt><trkpt lat="37.80088505675038" lon="15.187958151694422"><ele>228.0</ele><time>2026-04-19T06:48:53Z</time></trkpt><trkpt lat="37.80094756623637" lon="15.187946125425979"><ele>230.8</ele><time>2026-04-19T06:48:54Z</time></trkpt><trkpt lat="37.80100356997203" lon="15.187888008444876"><ele>233.60000000000002</ele><time>2026-04-19T06:48:55Z</time></trkpt><trkpt lat="37.80103952043615" lon="15.187787315339726"><ele>236.39999999999998</ele><time>2026-04-19T06:48:56Z</time></trkpt><trkpt lat="37.801057942268336" lon="15.187654714849064"><ele>239.2</ele><time>2026-04-19T06:48:57Z</time></trkpt><trkpt lat="37.80105322815726" lon="15.187490799952544"><ele>242.0</ele><time>2026-04-19T06:48:58Z</time></trkpt><trkpt lat="37.801078338828965" lon="15.187320329729653"><ele>243.6</ele><time>2026-04-19T06:48:59Z</time></trkpt><trkpt lat="37.80106428072653" lon="15.187145159458026"><ele>245.2</ele><time>2026-04-19T06:49:00Z</time></trkpt><trkpt lat="37.801064958216365" lon="15.186990988797794"><ele>246.8</ele><time>2026-04-19T06:49:01Z</time></trkpt><trkpt lat="37.80106140908584" lon="15.186870168142983"><ele>248.4</ele><time>2026-04-19T06:49:02Z</time></trkpt><trkpt lat="37.801065531906225" lon="15.186768551089235"><ele>250.0</ele><time>2026-04-19T06:49:03Z</time></trkpt><trkpt lat="37.80108037195446" lon="15.186677755210127"><ele>249.99999999999997</ele><time>2026-04-19T06:49:04Z</time></trkpt><trkpt lat="37.80111378395089" lon="15.18659986596001"><ele>250.0</ele><time>2026-04-19T06:49:05Z</time></trkpt><trkpt lat="37.80116968026373" lon="15.18655123868107"><ele>250.0</ele><time>2026-04-19T06:49:06Z</time></trkpt><trkpt lat="37.8012408136384" lon="15.186553169319088"><ele>250.0</ele><time>2026-04-19T06:49:07Z</time></trkpt><trkpt lat="37.80130398011617" lon="15.186608840580623"><ele>249.99999999999997</ele><time>2026-04-19T06:49:08Z</time></trkpt><trkpt lat="37.801356016859614" lon="15.186692279708765"><ele>250.0</ele><time>2026-04-19T06:49:09Z</time></trkpt><trkpt lat="37.801394064560625" lon="15.186801136851422"><ele>250.0</ele><time>2026-04-19T06:49:10Z</time></trkpt><trkpt lat="37.801438735605245" lon="15.186910617457949"><ele>250.0</ele><time>2026-04-19T06:49:11Z</time></trkpt><trkpt lat="37.801488520818594" lon="15.187016990334646"><ele>250.0</ele><time>2026-04-19T06:49:12Z</time></trkpt><trkpt lat="37.801547818282664" lon="15.18711496704072"><ele>250.0</ele><time>2026-04-19T06:49:13Z</time></trkpt><trkpt lat="37.80161213101594" lon="15.18721045265551"><ele>250.0</ele><time>2026-04-19T06:49:14Z</time></trkpt><trkpt lat="37.80167623923024" lon="15.187307191910477"><ele>250.0</ele><time>2026-04-19T06:49:15Z</time></trkpt><trkpt lat="37.80175054332324" lon="15.187396596199855"><ele>250.0</ele><time>2026-04-19T06:49:16Z</time></trkpt><trkpt lat="37.80183435004179" lon="15.187474505806955"><ele>250.0</ele><time>2026-04-19T06:49:17Z</time></trkpt><trkpt lat="37.80190696882134" lon="15.187553413191427"><ele>250.0</ele><time>2026-04-19T06:49:18Z</time></trkpt><trkpt lat="37.801966809309846" lon="15.187613184053097"><ele>250.0</ele><time>2026-04-19T06:49:19Z</time></trkpt><trkpt lat="37.80206205024428" lon="15.187692432190598"><ele>250.0</ele><time>2026-04-19T06:49:21Z</time></trkpt><trkpt lat="37.80213586897727" lon="15.187700120176896"><ele>250.0</ele><time>2026-04-19T06:49:22Z</time></trkpt><trkpt lat="37.802235725393075" lon="15.18766078791466"><ele>250.0</ele><time>2026-04-19T06:49:23Z</time></trkpt><trkpt lat="37.80232866348647" lon="15.187590512112582"><ele>250.0</ele><time>2026-04-19T06:49:24Z</time></trkpt><trkpt lat="37.80241444604255" lon="15.187538574986768"><ele>250.0</ele><time>2026-04-19T06:49:25Z</time></trkpt><trkpt lat="37.802494562263426" lon="15.18748665337267"><ele>249.99999999999997</ele><time>2026-04-19T06:49:26Z</time></trkpt><trkpt lat="37.80257548860202" lon="15.187426644027438"><ele>250.0</ele><time>2026-04-19T06:49:27Z</time></trkpt><trkpt lat="37.80265455015126" lon="15.187363828024978"><ele>250.0</ele><time>2026-04-19T06:49:28Z</time></trkpt><trkpt lat="37.802729562049365" lon="15.187303781966664"><ele>250.0</ele><time>2026-04-19T06:49:29Z</time></trkpt><trkpt lat="37.802796908365025" lon="15.187255136852666"><ele>249.99999999999997</ele><time>2026-04-19T06:49:30Z</time></trkpt><trkpt lat="37.80284905985611" lon="15.187197831817505"><ele>250.0</ele><time>2026-04-19T06:49:31Z</time></trkpt><trkpt lat="37.802880761111055" lon="15.187111187175672"><ele>250.71428571428572</ele><time>2026-04-19T06:49:32Z</time></trkpt><trkpt lat="37.80289987293152" lon="15.187030768670166"><ele>251.42857142857144</ele><time>2026-04-19T06:49:33Z</time></trkpt><trkpt lat="37.802912567644576" lon="15.186951630587663"><ele>252.14285714285717</ele><time>2026-04-19T06:49:34Z</time></trkpt><trkpt lat="37.80293239376241" lon="15.18686518402152"><ele>252.85714285714286</ele><time>2026-04-19T06:49:35Z</time></trkpt><trkpt lat="37.802957041210554" lon="15.18677664243706"><ele>253.5714285714286</ele><time>2026-04-19T06:49:36Z</time></trkpt><trkpt lat="37.802974166544146" lon="15.186692934464482"><ele>254.2857142857143</ele><time>2026-04-19T06:49:37Z</time></trkpt><trkpt lat="37.80296952972387" lon="15.18660597882639"><ele>255.0</ele><time>2026-04-19T06:49:38Z</time></trkpt><trkpt lat="37.8029175128607" lon="15.186515215561723"><ele>256.75</ele><time>2026-04-19T06:49:39Z</time></trkpt><trkpt lat="37.80282153040231" lon="15.186421827521693"><ele>258.5</ele><time>2026-04-19T06:49:40Z</time></trkpt><trkpt lat="37.80270249456957" lon="15.186302745478974"><ele>260.25</ele><time>2026-04-19T06:49:41Z</time></trkpt><trkpt lat="37.80256976344565" lon="15.186161687227154"><ele>262.0</ele><time>2026-04-19T06:49:42Z</time></trkpt><trkpt lat="37.80242478167636" lon="15.186034486228497"><ele>263.0</ele><time>2026-04-19T06:49:43Z</time></trkpt><trkpt lat="37.802313379650876" lon="15.185886133187386"><ele>264.0</ele><time>2026-04-19T06:49:44Z</time></trkpt><trkpt lat="37.80220071627537" lon="15.185731430836"><ele>265.0</ele><time>2026-04-19T06:49:45Z</time></trkpt><trkpt lat="37.80212690318406" lon="15.185535072109637"><ele>267.0</ele><time>2026-04-19T06:49:46Z</time></trkpt><trkpt lat="37.802050040419374" lon="15.185359259715723"><ele>269.0</ele><time>2026-04-19T06:49:47Z</time></trkpt><trkpt lat="37.80201870181454" lon="15.185221355844973"><ele>271.0</ele><time>2026-04-19T06:49:48Z</time></trkpt><trkpt lat="37.801985516735634" lon="15.185133956682256"><ele>273.0</ele><time>2026-04-19T06:49:49Z</time></trkpt><trkpt lat="37.802002750755335" lon="15.185009404875432"><ele>275.0</ele><time>2026-04-19T06:49:51Z</time></trkpt><trkpt lat="37.802125824596466" lon="15.18497448267461"><ele>275.0</ele><time>2026-04-19T06:49:53Z</time></trkpt><trkpt lat="37.80219851664868" lon="15.18502985292353"><ele>275.0</ele><time>2026-04-19T06:49:54Z</time></trkpt><trkpt lat="37.80227653539055" lon="15.18508494754354"><ele>275.0</ele><time>2026-04-19T06:49:55Z</time></trkpt><trkpt lat="37.80238584996822" lon="15.185066906663323"><ele>275.0</ele><time>2026-04-19T06:49:56Z</time></trkpt><trkpt lat="37.80248047065697" lon="15.184976715356537"><ele>275.0</ele><time>2026-04-19T06:49:57Z</time></trkpt><trkpt lat="37.80256442640408" lon="15.184834294199263"><ele>277.0</ele><time>2026-04-19T06:49:58Z</time></trkpt><trkpt lat="37.80265286323446" lon="15.184663206954717"><ele>279.0</ele><time>2026-04-19T06:49:59Z</time></trkpt><trkpt lat="37.80274519954687" lon="15.184483429110605"><ele>281.0</ele><time>2026-04-19T06:50:00Z</time></trkpt><trkpt lat="37.80284363270091" lon="15.184287097447793"><ele>281.0</ele><time>2026-04-19T06:50:01Z</time></trkpt><trkpt lat="37.80291545783317" lon="15.184045049566008"><ele>281.0</ele><time>2026-04-19T06:50:02Z</time></trkpt><trkpt lat="37.802965726271765" lon="15.183778138414015"><ele>281.0</ele><time>2026-04-19T06:50:03Z</time></trkpt><trkpt lat="37.803021060656484" lon="15.18349200722063"><ele>283.33333333333337</ele><time>2026-04-19T06:50:04Z</time></trkpt><trkpt lat="37.80308125695235" lon="15.183223628924676"><ele>285.6666666666667</ele><time>2026-04-19T06:50:05Z</time></trkpt><trkpt lat="37.80312638921334" lon="15.182993486651755"><ele>288.0</ele><time>2026-04-19T06:50:06Z</time></trkpt><trkpt lat="37.803158574432395" lon="15.182762113367184"><ele>291.3333333333333</ele><time>2026-04-19T06:50:07Z</time></trkpt><trkpt lat="37.80315411990614" lon="15.182525455770067"><ele>294.66666666666663</ele><time>2026-04-19T06:50:08Z</time></trkpt><trkpt lat="37.80314866287231" lon="15.18228619711715"><ele>298.0</ele><time>2026-04-19T06:50:09Z</time></trkpt><trkpt lat="37.80314531436095" lon="15.182049196615196"><ele>300.3333333333333</ele><time>2026-04-19T06:50:10Z</time></trkpt><trkpt lat="37.80315028659714" lon="15.181810072691935"><ele>302.6666666666667</ele><time>2026-04-19T06:50:11Z</time></trkpt><trkpt lat="37.80315520867552" lon="15.181566102151507"><ele>305.0</ele><time>2026-04-19T06:50:12Z</time></trkpt><trkpt lat="37.8031544065977" lon="15.181332193148524"><ele>306.33333333333337</ele><time>2026-04-19T06:50:13Z</time></trkpt><trkpt lat="37.80315843106013" lon="15.181096600027317"><ele>307.6666666666667</ele><time>2026-04-19T06:50:14Z</time></trkpt><trkpt lat="37.80316733004095" lon="15.18086445254391"><ele>309.0</ele><time>2026-04-19T06:50:15Z</time></trkpt><trkpt lat="37.803189064749205" lon="15.180646840543364"><ele>311.3333333333333</ele><time>2026-04-19T06:50:16Z</time></trkpt><trkpt lat="37.80321789266989" lon="15.180439399661193"><ele>313.66666666666663</ele><time>2026-04-19T06:50:17Z</time></trkpt><trkpt lat="37.8032264449922" lon="15.180238693746153"><ele>316.0</ele><time>2026-04-19T06:50:18Z</time></trkpt><trkpt lat="37.80323880085418" lon="15.180052319332594"><ele>316.0</ele><time>2026-04-19T06:50:19Z</time></trkpt><trkpt lat="37.8032390804923" lon="15.17988218226953"><ele>316.0</ele><time>2026-04-19T06:50:20Z</time></trkpt><trkpt lat="37.803247059365496" lon="15.179744798881684"><ele>316.0</ele><time>2026-04-19T06:50:21Z</time></trkpt><trkpt lat="37.80327155267674" lon="15.179600970608252"><ele>316.0</ele><time>2026-04-19T06:50:22Z</time></trkpt><trkpt lat="37.8033218871873" lon="15.179476003743524"><ele>318.0</ele><time>2026-04-19T06:50:23Z</time></trkpt><trkpt lat="37.80339532090325" lon="15.17937146522223"><ele>320.0</ele><time>2026-04-19T06:50:24Z</time></trkpt><trkpt lat="37.80348418553795" lon="15.179268649392567"><ele>322.0</ele><time>2026-04-19T06:50:25Z</time></trkpt><trkpt lat="37.803557522127726" lon="15.179138921214092"><ele>324.0</ele><time>2026-04-19T06:50:26Z</time></trkpt><trkpt lat="37.80362852727627" lon="15.17903065117129"><ele>325.0</ele><time>2026-04-19T06:50:27Z</time></trkpt><trkpt lat="37.80368885326917" lon="15.178934592965405"><ele>326.0</ele><time>2026-04-19T06:50:28Z</time></trkpt><trkpt lat="37.803737928440874" lon="15.17884657648505"><ele>327.0</ele><time>2026-04-19T06:50:29Z</time></trkpt><trkpt lat="37.80379231366771" lon="15.178778676885365"><ele>328.0</ele><time>2026-04-19T06:50:30Z</time></trkpt><trkpt lat="37.80386250397536" lon="15.178735304372466"><ele>329.0</ele><time>2026-04-19T06:50:31Z</time></trkpt><trkpt lat="37.80393106284091" lon="15.17873809869007"><ele>330.0</ele><time>2026-04-19T06:50:32Z</time></trkpt><trkpt lat="37.804007046175414" lon="15.178771939475821"><ele>330.0</ele><time>2026-04-19T06:50:33Z</time></trkpt><trkpt lat="37.804088459357146" lon="15.17882766887617"><ele>330.0</ele><time>2026-04-19T06:50:34Z</time></trkpt><trkpt lat="37.80415946593193" lon="15.178902326076818"><ele>330.0</ele><time>2026-04-19T06:50:35Z</time></trkpt><trkpt lat="37.804225429668556" lon="15.178966884061476"><ele>330.0</ele><time>2026-04-19T06:50:36Z</time></trkpt><trkpt lat="37.80429297194919" lon="15.179028889912917"><ele>330.0</ele><time>2026-04-19T06:50:37Z</time></trkpt><trkpt lat="37.80436004444527" lon="15.179105602738538"><ele>330.0</ele><time>2026-04-19T06:50:38Z</time></trkpt><trkpt lat="37.80442280293507" lon="15.179199992471256"><ele>331.6</ele><time>2026-04-19T06:50:39Z</time></trkpt><trkpt lat="37.80447689610068" lon="15.179312359173204"><ele>333.2</ele><time>2026-04-19T06:50:40Z</time></trkpt><trkpt lat="37.804531181642666" lon="15.17941497014919"><ele>334.79999999999995</ele><time>2026-04-19T06:50:41Z</time></trkpt><trkpt lat="37.80459117120739" lon="15.179522766128857"><ele>336.4</ele><time>2026-04-19T06:50:42Z</time></trkpt><trkpt lat="37.80465438023676" lon="15.179636803583637"><ele>338.0</ele><time>2026-04-19T06:50:43Z</time></trkpt><trkpt lat="37.804715146980115" lon="15.179757558995679"><ele>337.79999999999995</ele><time>2026-04-19T06:50:44Z</time></trkpt><trkpt lat="37.804771235373124" lon="15.179873553463842"><ele>337.6</ele><time>2026-04-19T06:50:45Z</time></trkpt><trkpt lat="37.80484072076723" lon="15.179967042222836"><ele>337.4</ele><time>2026-04-19T06:50:46Z</time></trkpt><trkpt lat="37.804920096113975" lon="15.180024500140238"><ele>337.20000000000005</ele><time>2026-04-19T06:50:47Z</time></trkpt><trkpt lat="37.80499785462269" lon="15.18005705232443"><ele>337.0</ele><time>2026-04-19T06:50:48Z</time></trkpt><trkpt lat="37.8050746515793" lon="15.180085240903795"><ele>337.0</ele><time>2026-04-19T06:50:49Z</time></trkpt><trkpt lat="37.805140678726374" lon="15.180111037457797"><ele>337.0</ele><time>2026-04-19T06:50:50Z</time></trkpt><trkpt lat="37.8052720152287" lon="15.18015952497522"><ele>337.0</ele><time>2026-04-19T06:50:52Z</time></trkpt><trkpt lat="37.80539224825099" lon="15.180185908742867"><ele>337.0</ele><time>2026-04-19T06:50:54Z</time></trkpt><trkpt lat="37.805504172546584" lon="15.180193495107911"><ele>337.0</ele><time>2026-04-19T06:50:56Z</time></trkpt><trkpt lat="37.805587181651916" lon="15.180194294257188"><ele>337.8</ele><time>2026-04-19T06:50:58Z</time></trkpt><trkpt lat="37.80566125045265" lon="15.18016254403782"><ele>338.6</ele><time>2026-04-19T06:51:00Z</time></trkpt><trkpt lat="37.80570563119795" lon="15.180033529515807"><ele>339.40000000000003</ele><time>2026-04-19T06:51:02Z</time></trkpt><trkpt lat="37.80570231040438" lon="15.179890388030529"><ele>340.20000000000005</ele><time>2026-04-19T06:51:04Z</time></trkpt><trkpt lat="37.8057026531874" lon="15.179758868999693"><ele>341.0</ele><time>2026-04-19T06:51:06Z</time></trkpt><trkpt lat="37.80570097483503" lon="15.179620104467865"><ele>342.4</ele><time>2026-04-19T06:51:08Z</time></trkpt><trkpt lat="37.805696031360384" lon="15.17948246975495"><ele>343.8</ele><time>2026-04-19T06:51:10Z</time></trkpt><trkpt lat="37.8056970172451" lon="15.179364874477889"><ele>345.2</ele><time>2026-04-19T06:51:12Z</time></trkpt><trkpt lat="37.80571412323022" lon="15.179266606986818"><ele>346.59999999999997</ele><time>2026-04-19T06:51:14Z</time></trkpt><trkpt lat="37.80581665027365" lon="15.179208805955595"><ele>348.0</ele><time>2026-04-19T06:51:17Z</time></trkpt><trkpt lat="37.805895787827566" lon="15.179207558354262"><ele>348.0</ele><time>2026-04-19T06:51:18Z</time></trkpt><trkpt lat="37.80598007519442" lon="15.179218897140716"><ele>348.0</ele><time>2026-04-19T06:51:19Z</time></trkpt><trkpt lat="37.806064563048004" lon="15.17921453609186"><ele>348.0</ele><time>2026-04-19T06:51:20Z</time></trkpt><trkpt lat="37.80616540534813" lon="15.179210628413205"><ele>348.0</ele><time>2026-04-19T06:51:21Z</time></trkpt><trkpt lat="37.80625812859652" lon="15.17921634053887"><ele>348.0</ele><time>2026-04-19T06:51:22Z</time></trkpt><trkpt lat="37.80634904134794" lon="15.179219202427921"><ele>348.4</ele><time>2026-04-19T06:51:23Z</time></trkpt><trkpt lat="37.80642074837632" lon="15.179217443395276"><ele>348.79999999999995</ele><time>2026-04-19T06:51:24Z</time></trkpt><trkpt lat="37.80649564469254" lon="15.179206010684469"><ele>349.2</ele><time>2026-04-19T06:51:26Z</time></trkpt><trkpt lat="37.80661246188551" lon="15.179171577020512"><ele>349.6</ele><time>2026-04-19T06:51:28Z</time></trkpt><trkpt lat="37.80668993395258" lon="15.17908552920802"><ele>350.0</ele><time>2026-04-19T06:51:29Z</time></trkpt><trkpt lat="37.8067608229514" lon="15.178988537265324"><ele>351.0</ele><time>2026-04-19T06:51:30Z</time></trkpt><trkpt lat="37.80683254725963" lon="15.17892024239009"><ele>352.0</ele><time>2026-04-19T06:51:31Z</time></trkpt><trkpt lat="37.80690817555937" lon="15.178854211174501"><ele>353.0</ele><time>2026-04-19T06:51:32Z</time></trkpt><trkpt lat="37.80698722512992" lon="15.178774146287028"><ele>354.0</ele><time>2026-04-19T06:51:33Z</time></trkpt><trkpt lat="37.80706742274742" lon="15.178684642184114"><ele>355.0</ele><time>2026-04-19T06:51:34Z</time></trkpt><trkpt lat="37.80715034309453" lon="15.178594755913227"><ele>355.0</ele><time>2026-04-19T06:51:35Z</time></trkpt><trkpt lat="37.80723519891475" lon="15.178489420847416"><ele>355.0</ele><time>2026-04-19T06:51:36Z</time></trkpt><trkpt lat="37.807343920440516" lon="15.178400589543633"><ele>355.0</ele><time>2026-04-19T06:51:37Z</time></trkpt><trkpt lat="37.807444542407296" lon="15.178270088760616"><ele>355.0</ele><time>2026-04-19T06:51:38Z</time></trkpt><trkpt lat="37.807553503538266" lon="15.178167911396526"><ele>355.25</ele><time>2026-04-19T06:51:39Z</time></trkpt><trkpt lat="37.80766024638807" lon="15.178072069755405"><ele>355.5</ele><time>2026-04-19T06:51:40Z</time></trkpt><trkpt lat="37.80775935336815" lon="15.177970790541444"><ele>355.75</ele><time>2026-04-19T06:51:41Z</time></trkpt><trkpt lat="37.80785736819843" lon="15.177871794040104"><ele>356.0</ele><time>2026-04-19T06:51:42Z</time></trkpt><trkpt lat="37.80795551556272" lon="15.177779197649"><ele>355.5</ele><time>2026-04-19T06:51:43Z</time></trkpt><trkpt lat="37.808048303195264" lon="15.177677961763994"><ele>355.0</ele><time>2026-04-19T06:51:44Z</time></trkpt><trkpt lat="37.80813652433957" lon="15.177585898023498"><ele>354.5</ele><time>2026-04-19T06:51:45Z</time></trkpt><trkpt lat="37.80822207204113" lon="15.177489539184187"><ele>354.0</ele><time>2026-04-19T06:51:46Z</time></trkpt><trkpt lat="37.80831210550401" lon="15.177384315052175"><ele>354.25</ele><time>2026-04-19T06:51:47Z</time></trkpt><trkpt lat="37.808399662177905" lon="15.177299389399897"><ele>354.5</ele><time>2026-04-19T06:51:48Z</time></trkpt><trkpt lat="37.808494426455646" lon="15.177216746155963"><ele>354.75</ele><time>2026-04-19T06:51:49Z</time></trkpt><trkpt lat="37.80859083498641" lon="15.177119031974964"><ele>355.0</ele><time>2026-04-19T06:51:50Z</time></trkpt><trkpt lat="37.808687421718375" lon="15.177023487492614"><ele>355.5</ele><time>2026-04-19T06:51:51Z</time></trkpt><trkpt lat="37.80878555958624" lon="15.176921581092843"><ele>356.0</ele><time>2026-04-19T06:51:52Z</time></trkpt><trkpt lat="37.80888600768118" lon="15.1768165656195"><ele>356.5</ele><time>2026-04-19T06:51:53Z</time></trkpt><trkpt lat="37.80898684267633" lon="15.176715418002978"><ele>357.0</ele><time>2026-04-19T06:51:54Z</time></trkpt><trkpt lat="37.80909278772812" lon="15.176609015599455"><ele>357.75</ele><time>2026-04-19T06:51:55Z</time></trkpt><trkpt lat="37.80919099092801" lon="15.176504809653647"><ele>358.5</ele><time>2026-04-19T06:51:56Z</time></trkpt><trkpt lat="37.809293036378925" lon="15.176401235225418"><ele>359.25</ele><time>2026-04-19T06:51:57Z</time></trkpt><trkpt lat="37.809393328528486" lon="15.176294371592988"><ele>360.0</ele><time>2026-04-19T06:51:58Z</time></trkpt><trkpt lat="37.80948949706801" lon="15.176198285421007"><ele>360.0</ele><time>2026-04-19T06:51:59Z</time></trkpt><trkpt lat="37.80957749529404" lon="15.176102102068873"><ele>360.0</ele><time>2026-04-19T06:52:00Z</time></trkpt><trkpt lat="37.80966600098934" lon="15.176013061429206"><ele>360.0</ele><time>2026-04-19T06:52:01Z</time></trkpt><trkpt lat="37.809749236867944" lon="15.175925903051112"><ele>360.0</ele><time>2026-04-19T06:52:02Z</time></trkpt><trkpt lat="37.809838348786414" lon="15.175837115521247"><ele>360.0</ele><time>2026-04-19T06:52:03Z</time></trkpt><trkpt lat="37.80992440289949" lon="15.17574400557629"><ele>360.0</ele><time>2026-04-19T06:52:04Z</time></trkpt><trkpt lat="37.81001119587499" lon="15.175643576508914"><ele>360.0</ele><time>2026-04-19T06:52:05Z</time></trkpt><trkpt lat="37.81008916040462" lon="15.175527689277386"><ele>360.0</ele><time>2026-04-19T06:52:06Z</time></trkpt><trkpt lat="37.81016857249246" lon="15.175402521920244"><ele>360.5</ele><time>2026-04-19T06:52:07Z</time></trkpt><trkpt lat="37.81024416263624" lon="15.175265345659621"><ele>361.0</ele><time>2026-04-19T06:52:08Z</time></trkpt><trkpt lat="37.81032800697895" lon="15.175106709042973"><ele>361.5</ele><time>2026-04-19T06:52:09Z</time></trkpt><trkpt lat="37.810409599988496" lon="15.174932388837833"><ele>362.0</ele><time>2026-04-19T06:52:10Z</time></trkpt><trkpt lat="37.81049192617924" lon="15.17475591716626"><ele>363.33333333333337</ele><time>2026-04-19T06:52:11Z</time></trkpt><trkpt lat="37.81057899664059" lon="15.174570604411505"><ele>364.6666666666667</ele><time>2026-04-19T06:52:12Z</time></trkpt><trkpt lat="37.8106866186906" lon="15.174363345484029"><ele>366.0</ele><time>2026-04-19T06:52:13Z</time></trkpt><trkpt lat="37.81081305872023" lon="15.174140295425898"><ele>367.6666666666667</ele><time>2026-04-19T06:52:14Z</time></trkpt><trkpt lat="37.81092958148233" lon="15.173939594693406"><ele>369.33333333333337</ele><time>2026-04-19T06:52:15Z</time></trkpt><trkpt lat="37.81102961171437" lon="15.173763123671026"><ele>371.0</ele><time>2026-04-19T06:52:16Z</time></trkpt><trkpt lat="37.81112207631833" lon="15.1735984935276"><ele>371.0</ele><time>2026-04-19T06:52:17Z</time></trkpt><trkpt lat="37.811210042354325" lon="15.173439221165301"><ele>371.0</ele><time>2026-04-19T06:52:18Z</time></trkpt><trkpt lat="37.81130281304983" lon="15.173267501839822"><ele>371.0</ele><time>2026-04-19T06:52:19Z</time></trkpt><trkpt lat="37.81139303900851" lon="15.173092892076495"><ele>372.6666666666667</ele><time>2026-04-19T06:52:20Z</time></trkpt><trkpt lat="37.81147713709252" lon="15.172928414884568"><ele>374.3333333333333</ele><time>2026-04-19T06:52:21Z</time></trkpt><trkpt lat="37.8115612123003" lon="15.172765961289707"><ele>376.0</ele><time>2026-04-19T06:52:22Z</time></trkpt><trkpt lat="37.81164603404844" lon="15.172600236791668"><ele>376.0</ele><time>2026-04-19T06:52:23Z</time></trkpt><trkpt lat="37.81172563065597" lon="15.172428366394515"><ele>376.0</ele><time>2026-04-19T06:52:24Z</time></trkpt><trkpt lat="37.81180024355057" lon="15.172256361777418"><ele>376.0</ele><time>2026-04-19T06:52:25Z</time></trkpt><trkpt lat="37.81185953593058" lon="15.172092213600122"><ele>377.0</ele><time>2026-04-19T06:52:26Z</time></trkpt><trkpt lat="37.81191508781596" lon="15.17194658687084"><ele>378.0</ele><time>2026-04-19T06:52:27Z</time></trkpt><trkpt lat="37.81197461970955" lon="15.171824863452459"><ele>379.0</ele><time>2026-04-19T06:52:28Z</time></trkpt><trkpt lat="37.81204650061391" lon="15.171741201776465"><ele>380.0</ele><time>2026-04-19T06:52:29Z</time></trkpt><trkpt lat="37.812128855336304" lon="15.17170193949418"><ele>381.0</ele><time>2026-04-19T06:52:30Z</time></trkpt><trkpt lat="37.81222214311872" lon="15.171701151549852"><ele>381.0</ele><time>2026-04-19T06:52:31Z</time></trkpt><trkpt lat="37.81232897009246" lon="15.171718050679532"><ele>381.0</ele><time>2026-04-19T06:52:32Z</time></trkpt><trkpt lat="37.81242376154297" lon="15.171659535991916"><ele>381.0</ele><time>2026-04-19T06:52:33Z</time></trkpt><trkpt lat="37.812494674095376" lon="15.17154708426036"><ele>381.0</ele><time>2026-04-19T06:52:34Z</time></trkpt><trkpt lat="37.81253878231523" lon="15.171389153052987"><ele>381.6666666666667</ele><time>2026-04-19T06:52:35Z</time></trkpt><trkpt lat="37.81257895382587" lon="15.171215672828932"><ele>382.33333333333337</ele><time>2026-04-19T06:52:36Z</time></trkpt><trkpt lat="37.81262648244148" lon="15.171035627421098"><ele>383.0</ele><time>2026-04-19T06:52:37Z</time></trkpt><trkpt lat="37.812705119012435" lon="15.170860022693732"><ele>385.6666666666667</ele><time>2026-04-19T06:52:38Z</time></trkpt><trkpt lat="37.812796492361805" lon="15.170688369840384"><ele>388.33333333333337</ele><time>2026-04-19T06:52:39Z</time></trkpt><trkpt lat="37.812875412832355" lon="15.170514096219115"><ele>391.0</ele><time>2026-04-19T06:52:40Z</time></trkpt><trkpt lat="37.81296892707646" lon="15.17037098013644"><ele>391.0</ele><time>2026-04-19T06:52:41Z</time></trkpt><trkpt lat="37.813044614246664" lon="15.170233777529761"><ele>391.0</ele><time>2026-04-19T06:52:42Z</time></trkpt><trkpt lat="37.81311703086555" lon="15.170112862401638"><ele>391.0</ele><time>2026-04-19T06:52:43Z</time></trkpt><trkpt lat="37.81317908119886" lon="15.169999743240433"><ele>391.0</ele><time>2026-04-19T06:52:44Z</time></trkpt><trkpt lat="37.813222532521955" lon="15.169888555626635"><ele>391.8</ele><time>2026-04-19T06:52:45Z</time></trkpt><trkpt lat="37.813266348026026" lon="15.16979932910935"><ele>392.6</ele><time>2026-04-19T06:52:46Z</time></trkpt><trkpt lat="37.81330144279758" lon="15.169705375064114"><ele>393.4</ele><time>2026-04-19T06:52:47Z</time></trkpt><trkpt lat="37.813330516138116" lon="15.169587323368187"><ele>394.2</ele><time>2026-04-19T06:52:48Z</time></trkpt><trkpt lat="37.813349693529275" lon="15.169446093379126"><ele>395.0</ele><time>2026-04-19T06:52:49Z</time></trkpt><trkpt lat="37.81335215476572" lon="15.16927803100703"><ele>395.0</ele><time>2026-04-19T06:52:50Z</time></trkpt><trkpt lat="37.81335701717184" lon="15.169093545602829"><ele>395.0</ele><time>2026-04-19T06:52:51Z</time></trkpt><trkpt lat="37.81336801717713" lon="15.16889483839165"><ele>395.0</ele><time>2026-04-19T06:52:52Z</time></trkpt><trkpt lat="37.813381889986886" lon="15.168693154067336"><ele>395.0</ele><time>2026-04-19T06:52:53Z</time></trkpt><trkpt lat="37.81339637953328" lon="15.168495032826824"><ele>395.0</ele><time>2026-04-19T06:52:54Z</time></trkpt><trkpt lat="37.81341193974638" lon="15.16830986528297"><ele>395.0</ele><time>2026-04-19T06:52:55Z</time></trkpt><trkpt lat="37.81342364490662" lon="15.168131747873925"><ele>395.0</ele><time>2026-04-19T06:52:56Z</time></trkpt><trkpt lat="37.81342866840388" lon="15.16796413936887"><ele>396.0</ele><time>2026-04-19T06:52:57Z</time></trkpt><trkpt lat="37.81343693364136" lon="15.167794979691033"><ele>397.0</ele><time>2026-04-19T06:52:58Z</time></trkpt><trkpt lat="37.81345284590003" lon="15.167619478187998"><ele>398.0</ele><time>2026-04-19T06:52:59Z</time></trkpt><trkpt lat="37.81346606826209" lon="15.167431654875454"><ele>399.0</ele><time>2026-04-19T06:53:00Z</time></trkpt><trkpt lat="37.813474132229565" lon="15.167226545693678"><ele>400.0</ele><time>2026-04-19T06:53:01Z</time></trkpt><trkpt lat="37.8134832355442" lon="15.167011537675977"><ele>401.0</ele><time>2026-04-19T06:53:02Z</time></trkpt><trkpt lat="37.813503131376265" lon="15.166788444698312"><ele>402.0</ele><time>2026-04-19T06:53:03Z</time></trkpt><trkpt lat="37.81351505863057" lon="15.166551639562927"><ele>405.33333333333337</ele><time>2026-04-19T06:53:04Z</time></trkpt><trkpt lat="37.81352962697397" lon="15.166312310888351"><ele>408.6666666666667</ele><time>2026-04-19T06:53:05Z</time></trkpt><trkpt lat="37.813543870525145" lon="15.166084117352112"><ele>412.0</ele><time>2026-04-19T06:53:06Z</time></trkpt><trkpt lat="37.81354863014171" lon="15.165858328233098"><ele>412.33333333333337</ele><time>2026-04-19T06:53:07Z</time></trkpt><trkpt lat="37.81355748013977" lon="15.165647685638985"><ele>412.66666666666663</ele><time>2026-04-19T06:53:08Z</time></trkpt><trkpt lat="37.81357056512444" lon="15.165432841229174"><ele>413.0</ele><time>2026-04-19T06:53:09Z</time></trkpt><trkpt lat="37.813579878382406" lon="15.165211607628146"><ele>413.0</ele><time>2026-04-19T06:53:10Z</time></trkpt><trkpt lat="37.81358365484928" lon="15.164970074754562"><ele>413.0</ele><time>2026-04-19T06:53:11Z</time></trkpt><trkpt lat="37.813597384202524" lon="15.164726041109002"><ele>413.0</ele><time>2026-04-19T06:53:12Z</time></trkpt><trkpt lat="37.81361242261156" lon="15.164478295234941"><ele>414.66666666666663</ele><time>2026-04-19T06:53:13Z</time></trkpt><trkpt lat="37.81364081938169" lon="15.164253302572702"><ele>416.33333333333337</ele><time>2026-04-19T06:53:14Z</time></trkpt><trkpt lat="37.813682683036035" lon="15.16404976377945"><ele>418.0</ele><time>2026-04-19T06:53:15Z</time></trkpt><trkpt lat="37.813753366181416" lon="15.163853310825392"><ele>418.33333333333337</ele><time>2026-04-19T06:53:16Z</time></trkpt><trkpt lat="37.81383944576397" lon="15.163668942136924"><ele>418.66666666666663</ele><time>2026-04-19T06:53:17Z</time></trkpt><trkpt lat="37.81391904560241" lon="15.16348065042118"><ele>419.0</ele><time>2026-04-19T06:53:18Z</time></trkpt><trkpt lat="37.81397707828745" lon="15.163295782600406"><ele>419.5</ele><time>2026-04-19T06:53:19Z</time></trkpt><trkpt lat="37.81402192022272" lon="15.163135833195765"><ele>420.0</ele><time>2026-04-19T06:53:20Z</time></trkpt><trkpt lat="37.8140581086902" lon="15.162981927948792"><ele>420.5</ele><time>2026-04-19T06:53:21Z</time></trkpt><trkpt lat="37.814086296853546" lon="15.1628331853468"><ele>421.0</ele><time>2026-04-19T06:53:22Z</time></trkpt><trkpt lat="37.814113359621636" lon="15.162692935641871"><ele>421.0</ele><time>2026-04-19T06:53:23Z</time></trkpt><trkpt lat="37.814137067176915" lon="15.162564088896746"><ele>421.0</ele><time>2026-04-19T06:53:24Z</time></trkpt><trkpt lat="37.814166603628166" lon="15.162434586371633"><ele>421.0</ele><time>2026-04-19T06:53:25Z</time></trkpt><trkpt lat="37.81421916812458" lon="15.162308901996617"><ele>421.0</ele><time>2026-04-19T06:53:26Z</time></trkpt><trkpt lat="37.81430823900321" lon="15.162205614071429"><ele>421.0</ele><time>2026-04-19T06:53:27Z</time></trkpt><trkpt lat="37.81440795756795" lon="15.162116645545575"><ele>424.5</ele><time>2026-04-19T06:53:28Z</time></trkpt><trkpt lat="37.814512302062674" lon="15.162033279662346"><ele>428.0</ele><time>2026-04-19T06:53:29Z</time></trkpt><trkpt lat="37.814621093969315" lon="15.161948855526575"><ele>431.5</ele><time>2026-04-19T06:53:30Z</time></trkpt><trkpt lat="37.8147341980757" lon="15.16186164274795"><ele>435.0</ele><time>2026-04-19T06:53:31Z</time></trkpt><trkpt lat="37.81485716755723" lon="15.161789611346695"><ele>435.0</ele><time>2026-04-19T06:53:32Z</time></trkpt><trkpt lat="37.81498560634647" lon="15.16173684305746"><ele>435.0</ele><time>2026-04-19T06:53:33Z</time></trkpt><trkpt lat="37.815116506042784" lon="15.161686827336181"><ele>435.0</ele><time>2026-04-19T06:53:34Z</time></trkpt><trkpt lat="37.81523886760121" lon="15.161636136213414"><ele>435.0</ele><time>2026-04-19T06:53:35Z</time></trkpt><trkpt lat="37.81534922171687" lon="15.161601145544386"><ele>436.2</ele><time>2026-04-19T06:53:36Z</time></trkpt><trkpt lat="37.81545316445955" lon="15.161590647522154"><ele>437.4</ele><time>2026-04-19T06:53:37Z</time></trkpt><trkpt lat="37.81556190308215" lon="15.161605513275898"><ele>438.6</ele><time>2026-04-19T06:53:38Z</time></trkpt><trkpt lat="37.81566951269915" lon="15.161658157065036"><ele>439.8</ele><time>2026-04-19T06:53:39Z</time></trkpt><trkpt lat="37.815774823976916" lon="15.161727593829264"><ele>441.0</ele><time>2026-04-19T06:53:40Z</time></trkpt><trkpt lat="37.8158886489868" lon="15.16178438130661"><ele>441.75</ele><time>2026-04-19T06:53:41Z</time></trkpt><trkpt lat="37.81600580919071" lon="15.161828689268937"><ele>442.5</ele><time>2026-04-19T06:53:42Z</time></trkpt><trkpt lat="37.816126783438975" lon="15.161859249152226"><ele>443.25</ele><time>2026-04-19T06:53:43Z</time></trkpt><trkpt lat="37.81625348639345" lon="15.16185632796876"><ele>444.0</ele><time>2026-04-19T06:53:44Z</time></trkpt><trkpt lat="37.81638442463926" lon="15.161821702089334"><ele>444.0</ele><time>2026-04-19T06:53:45Z</time></trkpt><trkpt lat="37.81651639248279" lon="15.161776238034943"><ele>444.0</ele><time>2026-04-19T06:53:46Z</time></trkpt><trkpt lat="37.81663035155492" lon="15.161746000941932"><ele>444.0</ele><time>2026-04-19T06:53:47Z</time></trkpt><trkpt lat="37.81673537899663" lon="15.161722373326207"><ele>444.0</ele><time>2026-04-19T06:53:48Z</time></trkpt><trkpt lat="37.81682486847811" lon="15.161693080451384"><ele>444.0</ele><time>2026-04-19T06:53:49Z</time></trkpt><trkpt lat="37.816902811470946" lon="15.161654540494665"><ele>444.0</ele><time>2026-04-19T06:53:50Z</time></trkpt><trkpt lat="37.81697885535964" lon="15.161581520173716"><ele>444.0</ele><time>2026-04-19T06:53:51Z</time></trkpt><trkpt lat="37.81705127434554" lon="15.161472224687094"><ele>444.0</ele><time>2026-04-19T06:53:52Z</time></trkpt><trkpt lat="37.81711643031762" lon="15.161324190928775"><ele>444.0</ele><time>2026-04-19T06:53:53Z</time></trkpt><trkpt lat="37.81718573852981" lon="15.161147497198355"><ele>445.66666666666663</ele><time>2026-04-19T06:53:54Z</time></trkpt><trkpt lat="37.817264881747604" lon="15.160959961757134"><ele>447.3333333333333</ele><time>2026-04-19T06:53:55Z</time></trkpt><trkpt lat="37.81735892755805" lon="15.16075853965295"><ele>449.0</ele><time>2026-04-19T06:53:56Z</time></trkpt><trkpt lat="37.81745886062605" lon="15.160543491596355"><ele>451.0</ele><time>2026-04-19T06:53:57Z</time></trkpt><trkpt lat="37.81757813145646" lon="15.16033376912192"><ele>453.0</ele><time>2026-04-19T06:53:58Z</time></trkpt><trkpt lat="37.81771115232456" lon="15.160115490801212"><ele>455.0</ele><time>2026-04-19T06:53:59Z</time></trkpt><trkpt lat="37.81784866017045" lon="15.159890668635994"><ele>456.66666666666663</ele><time>2026-04-19T06:54:00Z</time></trkpt><trkpt lat="37.81796830810163" lon="15.159690374583938"><ele>458.33333333333337</ele><time>2026-04-19T06:54:01Z</time></trkpt><trkpt lat="37.818085123635534" lon="15.159513495420475"><ele>460.0</ele><time>2026-04-19T06:54:02Z</time></trkpt><trkpt lat="37.81821390357492" lon="15.15937117872584"><ele>460.0</ele><time>2026-04-19T06:54:03Z</time></trkpt><trkpt lat="37.81835473965137" lon="15.159263316514997"><ele>460.0</ele><time>2026-04-19T06:54:04Z</time></trkpt><trkpt lat="37.81852061093335" lon="15.159184853594375"><ele>460.0</ele><time>2026-04-19T06:54:05Z</time></trkpt><trkpt lat="37.81869970334374" lon="15.159161126613357"><ele>460.33333333333337</ele><time>2026-04-19T06:54:06Z</time></trkpt><trkpt lat="37.8188818859371" lon="15.15912012977754"><ele>460.66666666666663</ele><time>2026-04-19T06:54:07Z</time></trkpt><trkpt lat="37.819064109873906" lon="15.15907495261571"><ele>461.0</ele><time>2026-04-19T06:54:08Z</time></trkpt><trkpt lat="37.81925377655637" lon="15.159011221309642"><ele>463.66666666666663</ele><time>2026-04-19T06:54:09Z</time></trkpt><trkpt lat="37.81943774131087" lon="15.158942105206437"><ele>466.33333333333337</ele><time>2026-04-19T06:54:10Z</time></trkpt><trkpt lat="37.819620894997534" lon="15.158879449778098"><ele>469.0</ele><time>2026-04-19T06:54:11Z</time></trkpt><trkpt lat="37.81979880096407" lon="15.158821648985414"><ele>469.0</ele><time>2026-04-19T06:54:12Z</time></trkpt><trkpt lat="37.81996379565319" lon="15.158758192004123"><ele>469.0</ele><time>2026-04-19T06:54:13Z</time></trkpt><trkpt lat="37.820123695156255" lon="15.15866381112628"><ele>469.0</ele><time>2026-04-19T06:54:14Z</time></trkpt><trkpt lat="37.82027835538956" lon="15.158555984619106"><ele>470.0</ele><time>2026-04-19T06:54:15Z</time></trkpt><trkpt lat="37.82043683546217" lon="15.15843854915429"><ele>471.0</ele><time>2026-04-19T06:54:16Z</time></trkpt><trkpt lat="37.820598617677646" lon="15.158321034270045"><ele>472.0</ele><time>2026-04-19T06:54:17Z</time></trkpt><trkpt lat="37.8207616448433" lon="15.15820137888761"><ele>472.6666666666667</ele><time>2026-04-19T06:54:18Z</time></trkpt><trkpt lat="37.82092646113424" lon="15.15807551450157"><ele>473.33333333333337</ele><time>2026-04-19T06:54:19Z</time></trkpt><trkpt lat="37.821089512635176" lon="15.15794468724346"><ele>474.0</ele><time>2026-04-19T06:54:20Z</time></trkpt><trkpt lat="37.82125844251907" lon="15.157821260101512"><ele>475.33333333333337</ele><time>2026-04-19T06:54:21Z</time></trkpt><trkpt lat="37.82143207099741" lon="15.157704990973164"><ele>476.6666666666667</ele><time>2026-04-19T06:54:22Z</time></trkpt><trkpt lat="37.82160841771134" lon="15.1575918691114"><ele>478.0</ele><time>2026-04-19T06:54:23Z</time></trkpt><trkpt lat="37.821785388420636" lon="15.157479062921986"><ele>479.33333333333337</ele><time>2026-04-19T06:54:24Z</time></trkpt><trkpt lat="37.821950475605696" lon="15.15737767299725"><ele>480.66666666666663</ele><time>2026-04-19T06:54:25Z</time></trkpt><trkpt lat="37.822088927784854" lon="15.157286859880163"><ele>482.0</ele><time>2026-04-19T06:54:26Z</time></trkpt><trkpt lat="37.82220213733322" lon="15.157174801921405"><ele>483.0</ele><time>2026-04-19T06:54:27Z</time></trkpt><trkpt lat="37.822291360735896" lon="15.157031404317618"><ele>484.0</ele><time>2026-04-19T06:54:28Z</time></trkpt><trkpt lat="37.8223772213143" lon="15.156873343435157"><ele>485.0</ele><time>2026-04-19T06:54:29Z</time></trkpt><trkpt lat="37.822464657450176" lon="15.156710087879421"><ele>485.0</ele><time>2026-04-19T06:54:30Z</time></trkpt><trkpt lat="37.822559620382215" lon="15.156549516667944"><ele>485.0</ele><time>2026-04-19T06:54:31Z</time></trkpt><trkpt lat="37.82266026907081" lon="15.15638928330846"><ele>485.0</ele><time>2026-04-19T06:54:32Z</time></trkpt><trkpt lat="37.82275465182579" lon="15.156209176053752"><ele>486.0</ele><time>2026-04-19T06:54:33Z</time></trkpt><trkpt lat="37.82283482664596" lon="15.156022892859877"><ele>487.0</ele><time>2026-04-19T06:54:34Z</time></trkpt><trkpt lat="37.8229020111301" lon="15.155821862659879"><ele>488.0</ele><time>2026-04-19T06:54:35Z</time></trkpt><trkpt lat="37.8229429357518" lon="15.155602785778353"><ele>488.3333333333333</ele><time>2026-04-19T06:54:36Z</time></trkpt><trkpt lat="37.822961308776286" lon="15.155371788368187"><ele>488.66666666666663</ele><time>2026-04-19T06:54:37Z</time></trkpt><trkpt lat="37.82297957164197" lon="15.155132655183303"><ele>489.0</ele><time>2026-04-19T06:54:38Z</time></trkpt><trkpt lat="37.82300844101439" lon="15.154890217660693"><ele>490.33333333333337</ele><time>2026-04-19T06:54:39Z</time></trkpt><trkpt lat="37.8230341029556" lon="15.154650451319673"><ele>491.6666666666667</ele><time>2026-04-19T06:54:40Z</time></trkpt><trkpt lat="37.82305660592017" lon="15.15443130078586"><ele>493.0</ele><time>2026-04-19T06:54:41Z</time></trkpt><trkpt lat="37.823078888963394" lon="15.154234510031088"><ele>493.0</ele><time>2026-04-19T06:54:42Z</time></trkpt><trkpt lat="37.82309591530797" lon="15.15408097418111"><ele>492.99999999999994</ele><time>2026-04-19T06:54:43Z</time></trkpt><trkpt lat="37.82310928664692" lon="15.153963411220746"><ele>492.99999999999994</ele><time>2026-04-19T06:54:44Z</time></trkpt><trkpt lat="37.82312006568429" lon="15.15386751730562"><ele>493.0</ele><time>2026-04-19T06:54:45Z</time></trkpt><trkpt lat="37.82312519883682" lon="15.153784976860326"><ele>493.0</ele><time>2026-04-19T06:54:46Z</time></trkpt><trkpt lat="37.82313816559055" lon="15.153627006782902"><ele>493.2</ele><time>2026-04-19T06:54:48Z</time></trkpt><trkpt lat="37.82314808272841" lon="15.15352815719039"><ele>493.4</ele><time>2026-04-19T06:54:49Z</time></trkpt><trkpt lat="37.82316055244246" lon="15.153409154385745"><ele>493.59999999999997</ele><time>2026-04-19T06:54:50Z</time></trkpt><trkpt lat="37.82317552362456" lon="15.153277555323676"><ele>493.79999999999995</ele><time>2026-04-19T06:54:51Z</time></trkpt><trkpt lat="37.823192077493495" lon="15.153131853789269"><ele>494.0</ele><time>2026-04-19T06:54:52Z</time></trkpt><trkpt lat="37.823223960915314" lon="15.152978306926395"><ele>494.0</ele><time>2026-04-19T06:54:53Z</time></trkpt><trkpt lat="37.82327775300682" lon="15.152836643390266"><ele>494.0</ele><time>2026-04-19T06:54:54Z</time></trkpt><trkpt lat="37.823344369911084" lon="15.152706780982893"><ele>494.0</ele><time>2026-04-19T06:54:55Z</time></trkpt><trkpt lat="37.82340922346134" lon="15.152564585054042"><ele>494.0</ele><time>2026-04-19T06:54:56Z</time></trkpt><trkpt lat="37.823479939172906" lon="15.152431130104139"><ele>493.75</ele><time>2026-04-19T06:54:57Z</time></trkpt><trkpt lat="37.82354640805995" lon="15.152294626425697"><ele>493.5</ele><time>2026-04-19T06:54:58Z</time></trkpt><trkpt lat="37.823608654095125" lon="15.152167807418667"><ele>493.25</ele><time>2026-04-19T06:54:59Z</time></trkpt><trkpt lat="37.823663455880784" lon="15.152028592590803"><ele>493.0</ele><time>2026-04-19T06:55:00Z</time></trkpt><trkpt lat="37.82372840643348" lon="15.151876183587984"><ele>493.0</ele><time>2026-04-19T06:55:01Z</time></trkpt><trkpt lat="37.823808261870205" lon="15.151712554694408"><ele>493.0</ele><time>2026-04-19T06:55:02Z</time></trkpt><trkpt lat="37.823902024082514" lon="15.151527281205167"><ele>493.0</ele><time>2026-04-19T06:55:03Z</time></trkpt><trkpt lat="37.824005296410746" lon="15.1513236075945"><ele>493.6666666666667</ele><time>2026-04-19T06:55:04Z</time></trkpt><trkpt lat="37.824118178105174" lon="15.151105629527828"><ele>494.33333333333337</ele><time>2026-04-19T06:55:05Z</time></trkpt><trkpt lat="37.82422768498908" lon="15.150904765888379"><ele>495.0</ele><time>2026-04-19T06:55:06Z</time></trkpt><trkpt lat="37.82431377813399" lon="15.150718684229162"><ele>495.66666666666663</ele><time>2026-04-19T06:55:07Z</time></trkpt><trkpt lat="37.824401258041924" lon="15.15054641405938"><ele>496.3333333333333</ele><time>2026-04-19T06:55:08Z</time></trkpt><trkpt lat="37.82448540058465" lon="15.150392653537153"><ele>497.0</ele><time>2026-04-19T06:55:09Z</time></trkpt><trkpt lat="37.824567579599176" lon="15.150235865439424"><ele>497.0</ele><time>2026-04-19T06:55:10Z</time></trkpt><trkpt lat="37.824647676081916" lon="15.150077436371156"><ele>497.0</ele><time>2026-04-19T06:55:11Z</time></trkpt><trkpt lat="37.82472735640116" lon="15.149915016948826"><ele>497.0</ele><time>2026-04-19T06:55:12Z</time></trkpt><trkpt lat="37.82481064724768" lon="15.14975277039812"><ele>497.3333333333333</ele><time>2026-04-19T06:55:13Z</time></trkpt><trkpt lat="37.82490676394495" lon="15.149593863539014"><ele>497.66666666666663</ele><time>2026-04-19T06:55:14Z</time></trkpt><trkpt lat="37.82501701934711" lon="15.149438777048267"><ele>498.0</ele><time>2026-04-19T06:55:15Z</time></trkpt><trkpt lat="37.825153666107425" lon="15.149284381765018"><ele>498.0</ele><time>2026-04-19T06:55:16Z</time></trkpt><trkpt lat="37.8253067731125" lon="15.14912919942177"><ele>498.0</ele><time>2026-04-19T06:55:17Z</time></trkpt><trkpt lat="37.82546842817971" lon="15.148970666844697"><ele>498.0</ele><time>2026-04-19T06:55:18Z</time></trkpt><trkpt lat="37.82562118429967" lon="15.14880969993909"><ele>498.33333333333337</ele><time>2026-04-19T06:55:19Z</time></trkpt><trkpt lat="37.82576268169227" lon="15.14866435826069"><ele>498.6666666666667</ele><time>2026-04-19T06:55:20Z</time></trkpt><trkpt lat="37.825895483494655" lon="15.148516921881802"><ele>499.0</ele><time>2026-04-19T06:55:21Z</time></trkpt><trkpt lat="37.82603025546067" lon="15.148364509659698"><ele>498.6666666666667</ele><time>2026-04-19T06:55:22Z</time></trkpt><trkpt lat="37.82617239863055" lon="15.148213124279309"><ele>498.33333333333337</ele><time>2026-04-19T06:55:23Z</time></trkpt><trkpt lat="37.826322751912635" lon="15.148062593448632"><ele>498.0</ele><time>2026-04-19T06:55:24Z</time></trkpt><trkpt lat="37.82647708479331" lon="15.147912283005367"><ele>498.0</ele><time>2026-04-19T06:55:25Z</time></trkpt><trkpt lat="37.82661549612838" lon="15.147775707942593"><ele>498.0</ele><time>2026-04-19T06:55:26Z</time></trkpt><trkpt lat="37.826746676344854" lon="15.147643631683513"><ele>498.0</ele><time>2026-04-19T06:55:27Z</time></trkpt><trkpt lat="37.82687135224074" lon="15.147506548807126"><ele>498.66666666666663</ele><time>2026-04-19T06:55:28Z</time></trkpt><trkpt lat="37.826990439591896" lon="15.14735450738243"><ele>499.3333333333333</ele><time>2026-04-19T06:55:29Z</time></trkpt><trkpt lat="37.82710820262514" lon="15.147197248237564"><ele>500.0</ele><time>2026-04-19T06:55:30Z</time></trkpt><trkpt lat="37.82723525350715" lon="15.147046938365145"><ele>500.0</ele><time>2026-04-19T06:55:31Z</time></trkpt><trkpt lat="37.8273746599398" lon="15.14691227793028"><ele>500.0</ele><time>2026-04-19T06:55:32Z</time></trkpt><trkpt lat="37.82752661799908" lon="15.146792683019385"><ele>500.0</ele><time>2026-04-19T06:55:33Z</time></trkpt><trkpt lat="37.82769490637476" lon="15.146690508855244"><ele>500.3333333333333</ele><time>2026-04-19T06:55:34Z</time></trkpt><trkpt lat="37.82787059132502" lon="15.146601306261724"><ele>500.66666666666663</ele><time>2026-04-19T06:55:35Z</time></trkpt><trkpt lat="37.82803982583807" lon="15.146477744789644"><ele>501.0</ele><time>2026-04-19T06:55:36Z</time></trkpt><trkpt lat="37.82819994634838" lon="15.146332600814135"><ele>502.0</ele><time>2026-04-19T06:55:37Z</time></trkpt><trkpt lat="37.828358418320995" lon="15.146179335322332"><ele>503.0</ele><time>2026-04-19T06:55:38Z</time></trkpt><trkpt lat="37.828522791935896" lon="15.146044313986618"><ele>504.0</ele><time>2026-04-19T06:55:39Z</time></trkpt><trkpt lat="37.82869388517568" lon="15.145939213563377"><ele>504.0</ele><time>2026-04-19T06:55:40Z</time></trkpt><trkpt lat="37.828873271671156" lon="15.14585065364516"><ele>504.0</ele><time>2026-04-19T06:55:41Z</time></trkpt><trkpt lat="37.829044603756216" lon="15.145759316791084"><ele>504.0</ele><time>2026-04-19T06:55:42Z</time></trkpt><trkpt lat="37.82921119425098" lon="15.145678861358393"><ele>506.33333333333337</ele><time>2026-04-19T06:55:43Z</time></trkpt><trkpt lat="37.829375818447254" lon="15.145594167042784"><ele>508.6666666666667</ele><time>2026-04-19T06:55:44Z</time></trkpt><trkpt lat="37.82953424657501" lon="15.145505664288057"><ele>511.0</ele><time>2026-04-19T06:55:45Z</time></trkpt><trkpt lat="37.829684272871596" lon="15.14540967924118"><ele>511.0</ele><time>2026-04-19T06:55:46Z</time></trkpt><trkpt lat="37.82983537310378" lon="15.14531721239476"><ele>511.0</ele><time>2026-04-19T06:55:47Z</time></trkpt><trkpt lat="37.82999106824553" lon="15.145232540784958"><ele>511.0</ele><time>2026-04-19T06:55:48Z</time></trkpt><trkpt lat="37.830152066457906" lon="15.145151607082486"><ele>512.6666666666667</ele><time>2026-04-19T06:55:49Z</time></trkpt><trkpt lat="37.83032084033236" lon="15.145079275398276"><ele>514.3333333333334</ele><time>2026-04-19T06:55:50Z</time></trkpt><trkpt lat="37.83050615658253" lon="15.145027972956441"><ele>516.0</ele><time>2026-04-19T06:55:51Z</time></trkpt><trkpt lat="37.83069528928389" lon="15.14499223912488"><ele>516.0</ele><time>2026-04-19T06:55:52Z</time></trkpt><trkpt lat="37.83089064487666" lon="15.14494598476552"><ele>516.0</ele><time>2026-04-19T06:55:53Z</time></trkpt><trkpt lat="37.83108561470456" lon="15.14490354991081"><ele>516.0</ele><time>2026-04-19T06:55:54Z</time></trkpt><trkpt lat="37.83128201541938" lon="15.144853188518292"><ele>515.3333333333334</ele><time>2026-04-19T06:55:55Z</time></trkpt><trkpt lat="37.83148416388156" lon="15.144786116860699"><ele>514.6666666666667</ele><time>2026-04-19T06:55:56Z</time></trkpt><trkpt lat="37.83168670235809" lon="15.144710614822431"><ele>514.0</ele><time>2026-04-19T06:55:57Z</time></trkpt><trkpt lat="37.831876979225626" lon="15.144640889601979"><ele>514.0</ele><time>2026-04-19T06:55:58Z</time></trkpt><trkpt lat="37.83205899315366" lon="15.14457679715864"><ele>514.0</ele><time>2026-04-19T06:55:59Z</time></trkpt><trkpt lat="37.83223196113607" lon="15.144513302026992"><ele>514.0</ele><time>2026-04-19T06:56:00Z</time></trkpt><trkpt lat="37.83239251426291" lon="15.144457459701785"><ele>514.0</ele><time>2026-04-19T06:56:01Z</time></trkpt><trkpt lat="37.83254259067424" lon="15.144417838081056"><ele>514.0</ele><time>2026-04-19T06:56:02Z</time></trkpt><trkpt lat="37.83268585473688" lon="15.144404019505387"><ele>514.0</ele><time>2026-04-19T06:56:03Z</time></trkpt><trkpt lat="37.83281466115854" lon="15.14442136148198"><ele>514.0</ele><time>2026-04-19T06:56:04Z</time></trkpt><trkpt lat="37.832947701832076" lon="15.144482979957726"><ele>513.6666666666667</ele><time>2026-04-19T06:56:05Z</time></trkpt><trkpt lat="37.8330973794725" lon="15.144523352442594"><ele>513.3333333333334</ele><time>2026-04-19T06:56:06Z</time></trkpt><trkpt lat="37.833254695063786" lon="15.144495813951668"><ele>513.0</ele><time>2026-04-19T06:56:07Z</time></trkpt><trkpt lat="37.833411724736195" lon="15.14443138557885"><ele>514.6666666666666</ele><time>2026-04-19T06:56:08Z</time></trkpt><trkpt lat="37.833575873152206" lon="15.14435733727153"><ele>516.3333333333333</ele><time>2026-04-19T06:56:09Z</time></trkpt><trkpt lat="37.83375319657922" lon="15.14430454667684"><ele>518.0</ele><time>2026-04-19T06:56:10Z</time></trkpt><trkpt lat="37.83393563891671" lon="15.144260038062995"><ele>518.0</ele><time>2026-04-19T06:56:11Z</time></trkpt><trkpt lat="37.83411928488992" lon="15.144195948053369"><ele>518.0</ele><time>2026-04-19T06:56:12Z</time></trkpt><trkpt lat="37.83430627747541" lon="15.144125426717245"><ele>518.0</ele><time>2026-04-19T06:56:13Z</time></trkpt><trkpt lat="37.83448741507362" lon="15.144046546156106"><ele>519.0</ele><time>2026-04-19T06:56:14Z</time></trkpt><trkpt lat="37.83464709609758" lon="15.143949861787615"><ele>520.0</ele><time>2026-04-19T06:56:15Z</time></trkpt><trkpt lat="37.834786021977756" lon="15.14384862280963"><ele>521.0</ele><time>2026-04-19T06:56:16Z</time></trkpt><trkpt lat="37.834919740618474" lon="15.14377133345509"><ele>521.0</ele><time>2026-04-19T06:56:17Z</time></trkpt><trkpt lat="37.83505034076173" lon="15.143722081925688"><ele>521.0</ele><time>2026-04-19T06:56:18Z</time></trkpt><trkpt lat="37.83519349521118" lon="15.143711528616608"><ele>521.0</ele><time>2026-04-19T06:56:19Z</time></trkpt><trkpt lat="37.835341101743495" lon="15.143710921858048"><ele>521.0</ele><time>2026-04-19T06:56:20Z</time></trkpt><trkpt lat="37.835499187981654" lon="15.143721211060196"><ele>522.3333333333333</ele><time>2026-04-19T06:56:21Z</time></trkpt><trkpt lat="37.835663847825536" lon="15.143756550844671"><ele>523.6666666666666</ele><time>2026-04-19T06:56:22Z</time></trkpt><trkpt lat="37.83583154538091" lon="15.143807246515783"><ele>525.0</ele><time>2026-04-19T06:56:23Z</time></trkpt><trkpt lat="37.835998234564705" lon="15.143856701394084"><ele>526.0</ele><time>2026-04-19T06:56:24Z</time></trkpt><trkpt lat="37.836148537933184" lon="15.14392150917924"><ele>527.0</ele><time>2026-04-19T06:56:25Z</time></trkpt><trkpt lat="37.836283103559325" lon="15.14403303786915"><ele>528.0</ele><time>2026-04-19T06:56:26Z</time></trkpt><trkpt lat="37.836411576907736" lon="15.144152960919682"><ele>528.0</ele><time>2026-04-19T06:56:27Z</time></trkpt><trkpt lat="37.8365537189948" lon="15.144269210407023"><ele>528.0</ele><time>2026-04-19T06:56:28Z</time></trkpt><trkpt lat="37.83670350121903" lon="15.144378552610405"><ele>528.0</ele><time>2026-04-19T06:56:29Z</time></trkpt><trkpt lat="37.83684151999713" lon="15.144498004799301"><ele>529.6666666666666</ele><time>2026-04-19T06:56:30Z</time></trkpt><trkpt lat="37.83698776379342" lon="15.144596837610676"><ele>531.3333333333333</ele><time>2026-04-19T06:56:31Z</time></trkpt><trkpt lat="37.837123770155976" lon="15.144690572044913"><ele>533.0</ele><time>2026-04-19T06:56:32Z</time></trkpt><trkpt lat="37.837281273141706" lon="15.144741794427091"><ele>533.0</ele><time>2026-04-19T06:56:33Z</time></trkpt><trkpt lat="37.83744063851433" lon="15.14477749300944"><ele>533.0</ele><time>2026-04-19T06:56:34Z</time></trkpt><trkpt lat="37.837598642636095" lon="15.144787410896521"><ele>533.0</ele><time>2026-04-19T06:56:35Z</time></trkpt><trkpt lat="37.83773900496756" lon="15.144795306316203"><ele>533.4</ele><time>2026-04-19T06:56:36Z</time></trkpt><trkpt lat="37.837845799625775" lon="15.144798496194136"><ele>533.8</ele><time>2026-04-19T06:56:37Z</time></trkpt><trkpt lat="37.837919904114514" lon="15.144800049203493"><ele>534.2</ele><time>2026-04-19T06:56:38Z</time></trkpt><trkpt lat="37.838036017569124" lon="15.144809120270027"><ele>534.6</ele><time>2026-04-19T06:56:40Z</time></trkpt><trkpt lat="37.8381039196349" lon="15.144815341025796"><ele>535.0</ele><time>2026-04-19T06:56:41Z</time></trkpt><trkpt lat="37.83819552335755" lon="15.144811543740593"><ele>535.0</ele><time>2026-04-19T06:56:42Z</time></trkpt><trkpt lat="37.83831031429471" lon="15.144788837842572"><ele>535.0</ele><time>2026-04-19T06:56:43Z</time></trkpt><trkpt lat="37.83843747768291" lon="15.144806797260916"><ele>535.0</ele><time>2026-04-19T06:56:44Z</time></trkpt><trkpt lat="37.838582391674" lon="15.144813839777111"><ele>535.0</ele><time>2026-04-19T06:56:45Z</time></trkpt><trkpt lat="37.83874342527895" lon="15.144797764559266"><ele>535.0</ele><time>2026-04-19T06:56:46Z</time></trkpt><trkpt lat="37.8389163297604" lon="15.144773204944443"><ele>535.0</ele><time>2026-04-19T06:56:47Z</time></trkpt><trkpt lat="37.83908522472047" lon="15.144752014058463"><ele>535.0</ele><time>2026-04-19T06:56:48Z</time></trkpt><trkpt lat="37.839246305973134" lon="15.144723394746016"><ele>535.6666666666667</ele><time>2026-04-19T06:56:49Z</time></trkpt><trkpt lat="37.83939972631548" lon="15.144696627486882"><ele>536.3333333333334</ele><time>2026-04-19T06:56:50Z</time></trkpt><trkpt lat="37.83954982954675" lon="15.144675686497811"><ele>537.0</ele><time>2026-04-19T06:56:51Z</time></trkpt><trkpt lat="37.83969428107386" lon="15.144655021034499"><ele>537.0</ele><time>2026-04-19T06:56:52Z</time></trkpt><trkpt lat="37.83983659433788" lon="15.144631922453552"><ele>537.0</ele><time>2026-04-19T06:56:53Z</time></trkpt><trkpt lat="37.83998218295986" lon="15.144610347313355"><ele>537.0</ele><time>2026-04-19T06:56:54Z</time></trkpt><trkpt lat="37.84013159820672" lon="15.14459423066933"><ele>537.0</ele><time>2026-04-19T06:56:55Z</time></trkpt><trkpt lat="37.840279324016635" lon="15.144571413056415"><ele>537.25</ele><time>2026-04-19T06:56:56Z</time></trkpt><trkpt lat="37.84040579084558" lon="15.144525571957782"><ele>537.5</ele><time>2026-04-19T06:56:57Z</time></trkpt><trkpt lat="37.84051464187279" lon="15.144472630499635"><ele>537.75</ele><time>2026-04-19T06:56:58Z</time></trkpt><trkpt lat="37.840616547416296" lon="15.144393959842066"><ele>538.0</ele><time>2026-04-19T06:56:59Z</time></trkpt><trkpt lat="37.84070740170396" lon="15.14429570497414"><ele>538.0</ele><time>2026-04-19T06:57:00Z</time></trkpt><trkpt lat="37.84079645978268" lon="15.14418767946355"><ele>538.0</ele><time>2026-04-19T06:57:01Z</time></trkpt><trkpt lat="37.840881575779726" lon="15.144072658563228"><ele>538.0</ele><time>2026-04-19T06:57:02Z</time></trkpt><trkpt lat="37.840971160029355" lon="15.143947440952227"><ele>538.0</ele><time>2026-04-19T06:57:03Z</time></trkpt><trkpt lat="37.841059535381305" lon="15.14381080510867"><ele>538.5</ele><time>2026-04-19T06:57:04Z</time></trkpt><trkpt lat="37.84115034727368" lon="15.14367132799123"><ele>539.0</ele><time>2026-04-19T06:57:05Z</time></trkpt><trkpt lat="37.841259009737115" lon="15.14354253614216"><ele>539.5</ele><time>2026-04-19T06:57:06Z</time></trkpt><trkpt lat="37.841352166622364" lon="15.143413348194493"><ele>540.0</ele><time>2026-04-19T06:57:07Z</time></trkpt><trkpt lat="37.84144076070884" lon="15.143282930534713"><ele>540.6</ele><time>2026-04-19T06:57:08Z</time></trkpt><trkpt lat="37.84152065579759" lon="15.143163024468281"><ele>541.2</ele><time>2026-04-19T06:57:09Z</time></trkpt><trkpt lat="37.84159466518574" lon="15.14304360105056"><ele>541.8</ele><time>2026-04-19T06:57:10Z</time></trkpt><trkpt lat="37.84166455705114" lon="15.142948854439604"><ele>542.4</ele><time>2026-04-19T06:57:11Z</time></trkpt><trkpt lat="37.84173123268139" lon="15.142878671725805"><ele>543.0</ele><time>2026-04-19T06:57:12Z</time></trkpt><trkpt lat="37.84180540311199" lon="15.142806880784606"><ele>543.0</ele><time>2026-04-19T06:57:13Z</time></trkpt><trkpt lat="37.84188328257268" lon="15.14273172880037"><ele>543.0</ele><time>2026-04-19T06:57:14Z</time></trkpt><trkpt lat="37.84197209344271" lon="15.142645430171482"><ele>543.0</ele><time>2026-04-19T06:57:15Z</time></trkpt><trkpt lat="37.84206173406498" lon="15.142558207814783"><ele>543.0</ele><time>2026-04-19T06:57:16Z</time></trkpt><trkpt lat="37.8421373709777" lon="15.142441985276188"><ele>543.0</ele><time>2026-04-19T06:57:17Z</time></trkpt><trkpt lat="37.842222864281375" lon="15.142359874142592"><ele>543.1666666666666</ele><time>2026-04-19T06:57:18Z</time></trkpt><trkpt lat="37.842303059369144" lon="15.142283804230802"><ele>543.3333333333334</ele><time>2026-04-19T06:57:19Z</time></trkpt><trkpt lat="37.84237837891587" lon="15.142214468912453"><ele>543.5</ele><time>2026-04-19T06:57:20Z</time></trkpt><trkpt lat="37.84245325156794" lon="15.14215514529234"><ele>543.6666666666667</ele><time>2026-04-19T06:57:21Z</time></trkpt><trkpt lat="37.842518318947526" lon="15.142100500206508"><ele>543.8333333333334</ele><time>2026-04-19T06:57:22Z</time></trkpt><trkpt lat="37.842578613594014" lon="15.142052202462356"><ele>544.0</ele><time>2026-04-19T06:57:23Z</time></trkpt><trkpt lat="37.84262948981332" lon="15.141987089622647"><ele>544.0</ele><time>2026-04-19T06:57:24Z</time></trkpt><trkpt lat="37.84268441426795" lon="15.141947645710923"><ele>544.0</ele><time>2026-04-19T06:57:25Z</time></trkpt><trkpt lat="37.842668787028366" lon="15.141789191208593"><ele>544.0</ele><time>2026-04-19T06:57:26Z</time></trkpt><trkpt lat="37.842639426849644" lon="15.141681471081876"><ele>544.0</ele><time>2026-04-19T06:57:27Z</time></trkpt><trkpt lat="37.8426048203777" lon="15.141556045242364"><ele>544.0</ele><time>2026-04-19T06:57:28Z</time></trkpt><trkpt lat="37.84256784077954" lon="15.141421918782083"><ele>545.25</ele><time>2026-04-19T06:57:29Z</time></trkpt><trkpt lat="37.84253019659724" lon="15.141285381844659"><ele>546.5</ele><time>2026-04-19T06:57:30Z</time></trkpt><trkpt lat="37.842490340913294" lon="15.141140823707264"><ele>547.75</ele><time>2026-04-19T06:57:31Z</time></trkpt><trkpt lat="37.84245050082105" lon="15.140994043889167"><ele>549.0</ele><time>2026-04-19T06:57:32Z</time></trkpt><trkpt lat="37.84241244812779" lon="15.14085159486417"><ele>549.75</ele><time>2026-04-19T06:57:33Z</time></trkpt><trkpt lat="37.842372567686816" lon="15.14070230371083"><ele>550.5</ele><time>2026-04-19T06:57:34Z</time></trkpt><trkpt lat="37.84233306697824" lon="15.140554434080215"><ele>551.25</ele><time>2026-04-19T06:57:35Z</time></trkpt><trkpt lat="37.8422927082098" lon="15.14040335225958"><ele>552.0</ele><time>2026-04-19T06:57:36Z</time></trkpt><trkpt lat="37.842253053396924" lon="15.140254142740064"><ele>552.0</ele><time>2026-04-19T06:57:37Z</time></trkpt><trkpt lat="37.842210964571535" lon="15.14009901660407"><ele>552.0</ele><time>2026-04-19T06:57:38Z</time></trkpt><trkpt lat="37.84217055230859" lon="15.139953443569771"><ele>552.0</ele><time>2026-04-19T06:57:39Z</time></trkpt><trkpt lat="37.84212793221524" lon="15.139799917478092"><ele>552.0</ele><time>2026-04-19T06:57:40Z</time></trkpt><trkpt lat="37.84208468299052" lon="15.13964540994534"><ele>552.25</ele><time>2026-04-19T06:57:41Z</time></trkpt><trkpt lat="37.84204086115376" lon="15.139489083279992"><ele>552.5</ele><time>2026-04-19T06:57:42Z</time></trkpt><trkpt lat="37.84199708173472" lon="15.139332907907434"><ele>552.75</ele><time>2026-04-19T06:57:43Z</time></trkpt><trkpt lat="37.841954387018724" lon="15.139180574836823"><ele>553.0</ele><time>2026-04-19T06:57:44Z</time></trkpt><trkpt lat="37.84191143770566" lon="15.139025688809806"><ele>553.25</ele><time>2026-04-19T06:57:45Z</time></trkpt><trkpt lat="37.841867413697244" lon="15.13886656078897"><ele>553.5</ele><time>2026-04-19T06:57:46Z</time></trkpt><trkpt lat="37.841821993265334" lon="15.138702385289324"><ele>553.75</ele><time>2026-04-19T06:57:47Z</time></trkpt><trkpt lat="37.841774346793095" lon="15.138530163597553"><ele>554.0</ele><time>2026-04-19T06:57:48Z</time></trkpt><trkpt lat="37.841730651538285" lon="15.138372223882925"><ele>555.25</ele><time>2026-04-19T06:57:49Z</time></trkpt><trkpt lat="37.84168348483447" lon="15.138202224657196"><ele>556.5</ele><time>2026-04-19T06:57:50Z</time></trkpt><trkpt lat="37.84163637809044" lon="15.13803246447532"><ele>557.75</ele><time>2026-04-19T06:57:51Z</time></trkpt><trkpt lat="37.841590878106494" lon="15.137874384812877"><ele>559.0</ele><time>2026-04-19T06:57:52Z</time></trkpt><trkpt lat="37.84154686509101" lon="15.137722063282553"><ele>559.0</ele><time>2026-04-19T06:57:53Z</time></trkpt><trkpt lat="37.84149349987678" lon="15.13758447187415"><ele>559.0</ele><time>2026-04-19T06:57:54Z</time></trkpt><trkpt lat="37.841460216345745" lon="15.137458819677667"><ele>559.0</ele><time>2026-04-19T06:57:55Z</time></trkpt><trkpt lat="37.84142515991206" lon="15.1373253441869"><ele>559.0</ele><time>2026-04-19T06:57:56Z</time></trkpt><trkpt lat="37.841383933218694" lon="15.137177774355031"><ele>558.75</ele><time>2026-04-19T06:57:57Z</time></trkpt><trkpt lat="37.84134339308302" lon="15.137022764162671"><ele>558.5</ele><time>2026-04-19T06:57:58Z</time></trkpt><trkpt lat="37.84130115605673" lon="15.13685702668447"><ele>558.25</ele><time>2026-04-19T06:57:59Z</time></trkpt><trkpt lat="37.8412531976144" lon="15.136688649881172"><ele>558.0</ele><time>2026-04-19T06:58:00Z</time></trkpt><trkpt lat="37.841200419068244" lon="15.136508684916388"><ele>558.0</ele><time>2026-04-19T06:58:01Z</time></trkpt><trkpt lat="37.84114384093207" lon="15.136319006701262"><ele>558.0</ele><time>2026-04-19T06:58:02Z</time></trkpt><trkpt lat="37.841087950788605" lon="15.136127006196087"><ele>558.0</ele><time>2026-04-19T06:58:03Z</time></trkpt><trkpt lat="37.84103629648894" lon="15.135934174622792"><ele>558.0</ele><time>2026-04-19T06:58:04Z</time></trkpt><trkpt lat="37.84098274748753" lon="15.135737408971762"><ele>558.0</ele><time>2026-04-19T06:58:05Z</time></trkpt><trkpt lat="37.840926464415524" lon="15.135534053652579"><ele>558.0</ele><time>2026-04-19T06:58:06Z</time></trkpt><trkpt lat="37.84087034426339" lon="15.135325467061545"><ele>561.0</ele><time>2026-04-19T06:58:07Z</time></trkpt><trkpt lat="37.84081202289323" lon="15.135112341496173"><ele>564.0</ele><time>2026-04-19T06:58:08Z</time></trkpt><trkpt lat="37.840753277651174" lon="15.134895168194982"><ele>567.0</ele><time>2026-04-19T06:58:09Z</time></trkpt><trkpt lat="37.840693318311615" lon="15.134680955723006"><ele>568.6666666666666</ele><time>2026-04-19T06:58:10Z</time></trkpt><trkpt lat="37.84064447950964" lon="15.134482020792374"><ele>570.3333333333333</ele><time>2026-04-19T06:58:11Z</time></trkpt><trkpt lat="37.84058942393237" lon="15.134282266763279"><ele>572.0</ele><time>2026-04-19T06:58:12Z</time></trkpt><trkpt lat="37.8405321999827" lon="15.134082204022326"><ele>572.6666666666666</ele><time>2026-04-19T06:58:13Z</time></trkpt><trkpt lat="37.84047450680576" lon="15.133873086731999"><ele>573.3333333333334</ele><time>2026-04-19T06:58:14Z</time></trkpt><trkpt lat="37.84041487361768" lon="15.133651869708709"><ele>574.0</ele><time>2026-04-19T06:58:15Z</time></trkpt><trkpt lat="37.840351700016924" lon="15.133423610133645"><ele>574.0</ele><time>2026-04-19T06:58:16Z</time></trkpt><trkpt lat="37.84029475965976" lon="15.133212651099793"><ele>574.0</ele><time>2026-04-19T06:58:17Z</time></trkpt><trkpt lat="37.84023768032925" lon="15.13300122202895"><ele>574.0</ele><time>2026-04-19T06:58:18Z</time></trkpt><trkpt lat="37.84017987595724" lon="15.132782511936021"><ele>575.0</ele><time>2026-04-19T06:58:19Z</time></trkpt><trkpt lat="37.840119578646934" lon="15.132556691435456"><ele>576.0</ele><time>2026-04-19T06:58:20Z</time></trkpt><trkpt lat="37.840057922660854" lon="15.132326169894773"><ele>577.0</ele><time>2026-04-19T06:58:21Z</time></trkpt><trkpt lat="37.839990837873295" lon="15.132093177658154"><ele>577.6666666666667</ele><time>2026-04-19T06:58:22Z</time></trkpt><trkpt lat="37.8399226816833" lon="15.131854811768223"><ele>578.3333333333334</ele><time>2026-04-19T06:58:23Z</time></trkpt><trkpt lat="37.83985526339614" lon="15.131621732100058"><ele>579.0</ele><time>2026-04-19T06:58:24Z</time></trkpt><trkpt lat="37.83979885317548" lon="15.131407038095846"><ele>579.6666666666666</ele><time>2026-04-19T06:58:25Z</time></trkpt><trkpt lat="37.83974583453479" lon="15.131206785684771"><ele>580.3333333333333</ele><time>2026-04-19T06:58:26Z</time></trkpt><trkpt lat="37.83969384203247" lon="15.131011332062398"><ele>581.0</ele><time>2026-04-19T06:58:27Z</time></trkpt><trkpt lat="37.839637267701995" lon="15.130814783024249"><ele>582.3333333333333</ele><time>2026-04-19T06:58:28Z</time></trkpt><trkpt lat="37.839585376105" lon="15.130617630219563"><ele>583.6666666666666</ele><time>2026-04-19T06:58:29Z</time></trkpt><trkpt lat="37.839529224963606" lon="15.130416127941029"><ele>585.0</ele><time>2026-04-19T06:58:30Z</time></trkpt><trkpt lat="37.83947116078235" lon="15.13020805207114"><ele>585.0</ele><time>2026-04-19T06:58:31Z</time></trkpt><trkpt lat="37.83941215147393" lon="15.1299915035117"><ele>585.0</ele><time>2026-04-19T06:58:32Z</time></trkpt><trkpt lat="37.83935111495561" lon="15.129770185666713"><ele>585.0</ele><time>2026-04-19T06:58:33Z</time></trkpt><trkpt lat="37.83928983690968" lon="15.129542753129837"><ele>585.3333333333334</ele><time>2026-04-19T06:58:34Z</time></trkpt><trkpt lat="37.83922567603707" lon="15.129309538463016"><ele>585.6666666666667</ele><time>2026-04-19T06:58:35Z</time></trkpt><trkpt lat="37.8391610200895" lon="15.129073520841345"><ele>586.0</ele><time>2026-04-19T06:58:36Z</time></trkpt><trkpt lat="37.839096478886695" lon="15.128837544503963"><ele>586.6666666666667</ele><time>2026-04-19T06:58:37Z</time></trkpt><trkpt lat="37.839034549378596" lon="15.128605048123484"><ele>587.3333333333334</ele><time>2026-04-19T06:58:38Z</time></trkpt><trkpt lat="37.83897390825028" lon="15.128381319483243"><ele>588.0</ele><time>2026-04-19T06:58:39Z</time></trkpt><trkpt lat="37.838913577448224" lon="15.128164824495897"><ele>588.6666666666666</ele><time>2026-04-19T06:58:40Z</time></trkpt><trkpt lat="37.83885384156844" lon="15.127949085201623"><ele>589.3333333333333</ele><time>2026-04-19T06:58:41Z</time></trkpt><trkpt lat="37.83879402057615" lon="15.127732971631517"><ele>590.0</ele><time>2026-04-19T06:58:42Z</time></trkpt><trkpt lat="37.83873534362619" lon="15.127514119662765"><ele>591.0</ele><time>2026-04-19T06:58:43Z</time></trkpt><trkpt lat="37.838673586490806" lon="15.127289390915598"><ele>592.0</ele><time>2026-04-19T06:58:44Z</time></trkpt><trkpt lat="37.83861248483655" lon="15.127059409012954"><ele>593.0</ele><time>2026-04-19T06:58:45Z</time></trkpt><trkpt lat="37.83855012309339" lon="15.126822693473422"><ele>593.0</ele><time>2026-04-19T06:58:46Z</time></trkpt><trkpt lat="37.83848742064696" lon="15.126579680595581"><ele>593.0</ele><time>2026-04-19T06:58:47Z</time></trkpt><trkpt lat="37.838422453902844" lon="15.126329430860476"><ele>593.0</ele><time>2026-04-19T06:58:48Z</time></trkpt><trkpt lat="37.838353430124805" lon="15.12607473452292"><ele>593.3333333333333</ele><time>2026-04-19T06:58:49Z</time></trkpt><trkpt lat="37.838283095175576" lon="15.125816675032773"><ele>593.6666666666666</ele><time>2026-04-19T06:58:50Z</time></trkpt><trkpt lat="37.838210971890504" lon="15.125553012905687"><ele>594.0</ele><time>2026-04-19T06:58:51Z</time></trkpt><trkpt lat="37.83813745920125" lon="15.125281580460301"><ele>594.0</ele><time>2026-04-19T06:58:52Z</time></trkpt><trkpt lat="37.838056662850484" lon="15.124991174209232"><ele>594.0</ele><time>2026-04-19T06:58:53Z</time></trkpt><trkpt lat="37.83797407163213" lon="15.12468748244396"><ele>596.5</ele><time>2026-04-19T06:58:54Z</time></trkpt><trkpt lat="37.83789346890678" lon="15.124402647421405"><ele>599.0</ele><time>2026-04-19T06:58:55Z</time></trkpt><trkpt lat="37.83781987870068" lon="15.124134099167092"><ele>602.0</ele><time>2026-04-19T06:58:56Z</time></trkpt><trkpt lat="37.83775174604535" lon="15.123872889910457"><ele>605.0</ele><time>2026-04-19T06:58:57Z</time></trkpt><trkpt lat="37.83768257593618" lon="15.12362743523904"><ele>608.0</ele><time>2026-04-19T06:58:58Z</time></trkpt><trkpt lat="37.837617429231564" lon="15.123394697388452"><ele>609.0</ele><time>2026-04-19T06:58:59Z</time></trkpt><trkpt lat="37.83754377957963" lon="15.123175582323595"><ele>610.0</ele><time>2026-04-19T06:59:00Z</time></trkpt><trkpt lat="37.83743429697922" lon="15.122971878400188"><ele>611.0</ele><time>2026-04-19T06:59:01Z</time></trkpt><trkpt lat="37.83730114741141" lon="15.122795145631454"><ele>611.0</ele><time>2026-04-19T06:59:02Z</time></trkpt><trkpt lat="37.83716192014257" lon="15.122622071512657"><ele>611.0</ele><time>2026-04-19T06:59:03Z</time></trkpt><trkpt lat="37.83704855248046" lon="15.122437610647092"><ele>611.0</ele><time>2026-04-19T06:59:04Z</time></trkpt><trkpt lat="37.83692402874641" lon="15.122297633670515"><ele>611.75</ele><time>2026-04-19T06:59:05Z</time></trkpt><trkpt lat="37.83682932398334" lon="15.122158904351556"><ele>612.5</ele><time>2026-04-19T06:59:06Z</time></trkpt><trkpt lat="37.83676248669231" lon="15.12202561777865"><ele>613.25</ele><time>2026-04-19T06:59:07Z</time></trkpt><trkpt lat="37.836721588717495" lon="15.121875645489235"><ele>614.0</ele><time>2026-04-19T06:59:08Z</time></trkpt><trkpt lat="37.83670449233357" lon="15.121702291886908"><ele>617.3333333333333</ele><time>2026-04-19T06:59:09Z</time></trkpt><trkpt lat="37.83668173984851" lon="15.121511434862791"><ele>620.6666666666666</ele><time>2026-04-19T06:59:10Z</time></trkpt><trkpt lat="37.836651196135584" lon="15.121308263506155"><ele>624.0</ele><time>2026-04-19T06:59:11Z</time></trkpt><trkpt lat="37.83661453995624" lon="15.121093385124597"><ele>624.0</ele><time>2026-04-19T06:59:12Z</time></trkpt><trkpt lat="37.83657594506295" lon="15.12086657791391"><ele>624.0</ele><time>2026-04-19T06:59:13Z</time></trkpt><trkpt lat="37.836542226919946" lon="15.120655058622459"><ele>624.0</ele><time>2026-04-19T06:59:14Z</time></trkpt><trkpt lat="37.83651756518539" lon="15.120468865987371"><ele>625.5</ele><time>2026-04-19T06:59:15Z</time></trkpt><trkpt lat="37.83650250365047" lon="15.12029721993407"><ele>627.0</ele><time>2026-04-19T06:59:16Z</time></trkpt><trkpt lat="37.83652495336416" lon="15.120129502250892"><ele>628.5</ele><time>2026-04-19T06:59:17Z</time></trkpt><trkpt lat="37.836592989359616" lon="15.119975543561141"><ele>630.0</ele><time>2026-04-19T06:59:18Z</time></trkpt><trkpt lat="37.83669170309872" lon="15.119847352053721"><ele>632.25</ele><time>2026-04-19T06:59:19Z</time></trkpt><trkpt lat="37.83681078671682" lon="15.119752214185755"><ele>634.5</ele><time>2026-04-19T06:59:20Z</time></trkpt><trkpt lat="37.83695650021545" lon="15.11970718750707"><ele>636.75</ele><time>2026-04-19T06:59:21Z</time></trkpt><trkpt lat="37.83710822666653" lon="15.119680112750732"><ele>639.0</ele><time>2026-04-19T06:59:22Z</time></trkpt><trkpt lat="37.83726557750664" lon="15.119645259162018"><ele>639.0</ele><time>2026-04-19T06:59:23Z</time></trkpt><trkpt lat="37.83743605179716" lon="15.119651771750645"><ele>639.0</ele><time>2026-04-19T06:59:24Z</time></trkpt><trkpt lat="37.83761354419953" lon="15.11969714006727"><ele>639.0</ele><time>2026-04-19T06:59:25Z</time></trkpt><trkpt lat="37.83779087683045" lon="15.119745048704942"><ele>640.5</ele><time>2026-04-19T06:59:26Z</time></trkpt><trkpt lat="37.83795358288959" lon="15.119754105170882"><ele>642.0</ele><time>2026-04-19T06:59:27Z</time></trkpt><trkpt lat="37.83808911141489" lon="15.11971219837877"><ele>643.5</ele><time>2026-04-19T06:59:28Z</time></trkpt><trkpt lat="37.838214277428776" lon="15.119627982195581"><ele>645.0</ele><time>2026-04-19T06:59:29Z</time></trkpt><trkpt lat="37.83833483307651" lon="15.119510521946612"><ele>645.0</ele><time>2026-04-19T06:59:30Z</time></trkpt><trkpt lat="37.83845143818689" lon="15.119381500372079"><ele>645.0</ele><time>2026-04-19T06:59:31Z</time></trkpt><trkpt lat="37.83855771972748" lon="15.119243057333808"><ele>645.0</ele><time>2026-04-19T06:59:32Z</time></trkpt><trkpt lat="37.83863073282697" lon="15.119081018672924"><ele>644.6666666666666</ele><time>2026-04-19T06:59:33Z</time></trkpt><trkpt lat="37.83865623843512" lon="15.118890651682081"><ele>644.3333333333333</ele><time>2026-04-19T06:59:34Z</time></trkpt><trkpt lat="37.83866090962412" lon="15.118680352435485"><ele>644.0</ele><time>2026-04-19T06:59:35Z</time></trkpt><trkpt lat="37.83866636145768" lon="15.118453117394067"><ele>646.6666666666666</ele><time>2026-04-19T06:59:36Z</time></trkpt><trkpt lat="37.83867290632225" lon="15.118209426857899"><ele>649.3333333333334</ele><time>2026-04-19T06:59:37Z</time></trkpt><trkpt lat="37.838673851784975" lon="15.117945298719647"><ele>652.0</ele><time>2026-04-19T06:59:38Z</time></trkpt><trkpt lat="37.83867808201406" lon="15.117664989287347"><ele>652.0</ele><time>2026-04-19T06:59:39Z</time></trkpt><trkpt lat="37.838691973121875" lon="15.117402619553546"><ele>652.0</ele><time>2026-04-19T06:59:40Z</time></trkpt><trkpt lat="37.83870034883705" lon="15.117181826248448"><ele>652.0</ele><time>2026-04-19T06:59:41Z</time></trkpt><trkpt lat="37.83867470051079" lon="15.11697131112571"><ele>653.3333333333334</ele><time>2026-04-19T06:59:42Z</time></trkpt><trkpt lat="37.838595374535984" lon="15.116783680777443"><ele>654.6666666666666</ele><time>2026-04-19T06:59:43Z</time></trkpt><trkpt lat="37.83848083600317" lon="15.116621718442525"><ele>656.0</ele><time>2026-04-19T06:59:44Z</time></trkpt><trkpt lat="37.838329996310996" lon="15.116483881150204"><ele>658.6666666666666</ele><time>2026-04-19T06:59:45Z</time></trkpt><trkpt lat="37.83817563266548" lon="15.116323423337533"><ele>661.3333333333334</ele><time>2026-04-19T06:59:46Z</time></trkpt><trkpt lat="37.837997321726924" lon="15.116160620662951"><ele>664.0</ele><time>2026-04-19T06:59:47Z</time></trkpt><trkpt lat="37.83785562089702" lon="15.115928409468085"><ele>667.5</ele><time>2026-04-19T06:59:48Z</time></trkpt><trkpt lat="37.837710830440145" lon="15.115687575376171"><ele>671.0</ele><time>2026-04-19T06:59:49Z</time></trkpt><trkpt lat="37.83756043482106" lon="15.115433144678967"><ele>672.5</ele><time>2026-04-19T06:59:50Z</time></trkpt><trkpt lat="37.83740961860295" lon="15.115188997866497"><ele>674.0</ele><time>2026-04-19T06:59:51Z</time></trkpt><trkpt lat="37.83724992716818" lon="15.114958052138173"><ele>675.0</ele><time>2026-04-19T06:59:52Z</time></trkpt><trkpt lat="37.837125736792835" lon="15.114691099469145"><ele>676.0</ele><time>2026-04-19T06:59:53Z</time></trkpt><trkpt lat="37.83700643388018" lon="15.114399548732086"><ele>676.0</ele><time>2026-04-19T06:59:54Z</time></trkpt><trkpt lat="37.836883373126085" lon="15.114108830225081"><ele>676.0</ele><time>2026-04-19T06:59:55Z</time></trkpt><trkpt lat="37.83675804048427" lon="15.113831577437569"><ele>680.0</ele><time>2026-04-19T06:59:56Z</time></trkpt><trkpt lat="37.83663739550712" lon="15.113560655931154"><ele>684.0</ele><time>2026-04-19T06:59:57Z</time></trkpt><trkpt lat="37.836525198666834" lon="15.113303758258866"><ele>685.3333333333334</ele><time>2026-04-19T06:59:58Z</time></trkpt><trkpt lat="37.836420130153535" lon="15.113059590751543"><ele>686.6666666666667</ele><time>2026-04-19T06:59:59Z</time></trkpt><trkpt lat="37.8363212456725" lon="15.112819827363582"><ele>688.0</ele><time>2026-04-19T07:00:00Z</time></trkpt><trkpt lat="37.83622531186014" lon="15.112588621458038"><ele>689.0</ele><time>2026-04-19T07:00:01Z</time></trkpt><trkpt lat="37.83612727348965" lon="15.112365570066775"><ele>690.0</ele><time>2026-04-19T07:00:02Z</time></trkpt><trkpt lat="37.8360204625184" lon="15.112148400710472"><ele>691.0</ele><time>2026-04-19T07:00:03Z</time></trkpt><trkpt lat="37.835904073949095" lon="15.1119426892497"><ele>691.6666666666667</ele><time>2026-04-19T07:00:04Z</time></trkpt><trkpt lat="37.835784383112376" lon="15.111749447072983"><ele>692.3333333333334</ele><time>2026-04-19T07:00:05Z</time></trkpt><trkpt lat="37.835667545455465" lon="15.111565183230477"><ele>693.0</ele><time>2026-04-19T07:00:06Z</time></trkpt><trkpt lat="37.83555638164913" lon="15.11138845681597"><ele>694.0</ele><time>2026-04-19T07:00:07Z</time></trkpt><trkpt lat="37.83544884034903" lon="15.111216466758629"><ele>695.0</ele><time>2026-04-19T07:00:08Z</time></trkpt><trkpt lat="37.83534042939153" lon="15.111050144711843"><ele>696.0</ele><time>2026-04-19T07:00:09Z</time></trkpt><trkpt lat="37.835212929708405" lon="15.1109075297997"><ele>697.6666666666666</ele><time>2026-04-19T07:00:10Z</time></trkpt><trkpt lat="37.83505049647748" lon="15.11082059634069"><ele>699.3333333333333</ele><time>2026-04-19T07:00:11Z</time></trkpt><trkpt lat="37.834876366764696" lon="15.110761385146743"><ele>701.0</ele><time>2026-04-19T07:00:12Z</time></trkpt><trkpt lat="37.83471326748866" lon="15.1106581511601"><ele>702.6666666666666</ele><time>2026-04-19T07:00:13Z</time></trkpt><trkpt lat="37.83454010792175" lon="15.11056401846788"><ele>704.3333333333334</ele><time>2026-04-19T07:00:14Z</time></trkpt><trkpt lat="37.834393666865274" lon="15.110436210299822"><ele>706.0</ele><time>2026-04-19T07:00:15Z</time></trkpt><trkpt lat="37.83423821794033" lon="15.110342705175825"><ele>706.6666666666667</ele><time>2026-04-19T07:00:16Z</time></trkpt><trkpt lat="37.834100598455066" lon="15.110209405118471"><ele>707.3333333333334</ele><time>2026-04-19T07:00:17Z</time></trkpt><trkpt lat="37.83398276872284" lon="15.11005181132666"><ele>708.0</ele><time>2026-04-19T07:00:18Z</time></trkpt><trkpt lat="37.83389151449173" lon="15.109888776630088"><ele>708.8</ele><time>2026-04-19T07:00:19Z</time></trkpt><trkpt lat="37.833824322783705" lon="15.109744055953737"><ele>709.5999999999999</ele><time>2026-04-19T07:00:20Z</time></trkpt><trkpt lat="37.833769737600164" lon="15.109637590378682"><ele>710.4000000000001</ele><time>2026-04-19T07:00:21Z</time></trkpt><trkpt lat="37.83374753174321" lon="15.109548402168903"><ele>711.2</ele><time>2026-04-19T07:00:22Z</time></trkpt><trkpt lat="37.83369666130476" lon="15.109422315129098"><ele>712.0</ele><time>2026-04-19T07:00:24Z</time></trkpt><trkpt lat="37.833645954801035" lon="15.109305658292348"><ele>712.0</ele><time>2026-04-19T07:00:26Z</time></trkpt><trkpt lat="37.83358896741114" lon="15.109182981609454"><ele>712.0</ele><time>2026-04-19T07:00:28Z</time></trkpt><trkpt lat="37.83354168204822" lon="15.109093379127444"><ele>712.0</ele><time>2026-04-19T07:00:30Z</time></trkpt><trkpt lat="37.833504488065806" lon="15.109022898953363"><ele>712.0</ele><time>2026-04-19T07:00:32Z</time></trkpt><trkpt lat="37.833463437876084" lon="15.108956937976158"><ele>712.0</ele><time>2026-04-19T07:00:35Z</time></trkpt><trkpt lat="37.83339953652626" lon="15.108979556582204"><ele>712.0</ele><time>2026-04-19T07:02:19Z</time></trkpt><trkpt lat="37.8333764516438" lon="15.108811311380977"><ele>713.25</ele><time>2026-04-19T07:02:21Z</time></trkpt><trkpt lat="37.83330842043294" lon="15.10869075763571"><ele>714.5</ele><time>2026-04-19T07:02:22Z</time></trkpt><trkpt lat="37.83322333440897" lon="15.108561282433671"><ele>715.75</ele><time>2026-04-19T07:02:23Z</time></trkpt><trkpt lat="37.83314938471783" lon="15.108448450785906"><ele>717.0</ele><time>2026-04-19T07:02:24Z</time></trkpt><trkpt lat="37.83308028240241" lon="15.108330393843456"><ele>719.4000000000001</ele><time>2026-04-19T07:02:25Z</time></trkpt><trkpt lat="37.83300814307006" lon="15.108211096407633"><ele>721.8000000000001</ele><time>2026-04-19T07:02:26Z</time></trkpt><trkpt lat="37.83294271290034" lon="15.108097209553637"><ele>724.2</ele><time>2026-04-19T07:02:27Z</time></trkpt><trkpt lat="37.83286998428813" lon="15.107989274422884"><ele>726.6</ele><time>2026-04-19T07:02:28Z</time></trkpt><trkpt lat="37.83277970866873" lon="15.107918155248269"><ele>729.0</ele><time>2026-04-19T07:02:29Z</time></trkpt><trkpt lat="37.83267294888052" lon="15.107897516175473"><ele>730.75</ele><time>2026-04-19T07:02:30Z</time></trkpt><trkpt lat="37.832561004386484" lon="15.107932998202916"><ele>732.5</ele><time>2026-04-19T07:02:31Z</time></trkpt><trkpt lat="37.832456522735825" lon="15.108013984812846"><ele>734.25</ele><time>2026-04-19T07:02:32Z</time></trkpt><trkpt lat="37.832366391560655" lon="15.108124641432807"><ele>736.0</ele><time>2026-04-19T07:02:33Z</time></trkpt><trkpt lat="37.83227070594191" lon="15.10822241985062"><ele>733.25</ele><time>2026-04-19T07:02:34Z</time></trkpt><trkpt lat="37.83216340133535" lon="15.108315027792322"><ele>730.5</ele><time>2026-04-19T07:02:35Z</time></trkpt><trkpt lat="37.832053341548395" lon="15.108400384304707"><ele>727.75</ele><time>2026-04-19T07:02:36Z</time></trkpt><trkpt lat="37.83193784908223" lon="15.108446043578532"><ele>725.0</ele><time>2026-04-19T07:02:37Z</time></trkpt><trkpt lat="37.83181022926954" lon="15.10844389201729"><ele>728.0</ele><time>2026-04-19T07:02:38Z</time></trkpt><trkpt lat="37.83167971522664" lon="15.108407652411676"><ele>731.0</ele><time>2026-04-19T07:02:39Z</time></trkpt><trkpt lat="37.8315574559767" lon="15.108336619259378"><ele>734.0</ele><time>2026-04-19T07:02:40Z</time></trkpt><trkpt lat="37.83139280973556" lon="15.108249387269083"><ele>737.0</ele><time>2026-04-19T07:02:41Z</time></trkpt><trkpt lat="37.83119938977106" lon="15.108182007746487"><ele>740.3333333333333</ele><time>2026-04-19T07:02:42Z</time></trkpt><trkpt lat="37.831024709867414" lon="15.108146568592202"><ele>743.6666666666666</ele><time>2026-04-19T07:02:43Z</time></trkpt><trkpt lat="37.830867329693795" lon="15.108133201566964"><ele>747.0</ele><time>2026-04-19T07:02:44Z</time></trkpt><trkpt lat="37.83071562815887" lon="15.10813802361611"><ele>748.25</ele><time>2026-04-19T07:02:45Z</time></trkpt><trkpt lat="37.830568016587904" lon="15.108149006474981"><ele>749.5</ele><time>2026-04-19T07:02:46Z</time></trkpt><trkpt lat="37.830415756066564" lon="15.108171245071208"><ele>750.75</ele><time>2026-04-19T07:02:47Z</time></trkpt><trkpt lat="37.83027235906834" lon="15.108195768823414"><ele>752.0</ele><time>2026-04-19T07:02:48Z</time></trkpt><trkpt lat="37.830119105004165" lon="15.108220716882066"><ele>751.6666666666666</ele><time>2026-04-19T07:02:49Z</time></trkpt><trkpt lat="37.829966999250665" lon="15.1082444419898"><ele>751.3333333333334</ele><time>2026-04-19T07:02:50Z</time></trkpt><trkpt lat="37.82981539336215" lon="15.108270259534104"><ele>751.0</ele><time>2026-04-19T07:02:51Z</time></trkpt><trkpt lat="37.829662132030315" lon="15.108302730942519"><ele>751.0</ele><time>2026-04-19T07:02:52Z</time></trkpt><trkpt lat="37.82951262841056" lon="15.108363442069429"><ele>751.0</ele><time>2026-04-19T07:02:53Z</time></trkpt><trkpt lat="37.82936416209325" lon="15.108437787833182"><ele>751.0</ele><time>2026-04-19T07:02:54Z</time></trkpt><trkpt lat="37.829234697946156" lon="15.108556640754598"><ele>751.6666666666667</ele><time>2026-04-19T07:02:55Z</time></trkpt><trkpt lat="37.829114833865994" lon="15.108704861267215"><ele>752.3333333333334</ele><time>2026-04-19T07:02:56Z</time></trkpt><trkpt lat="37.82899711908042" lon="15.10888349298753"><ele>753.0</ele><time>2026-04-19T07:02:57Z</time></trkpt><trkpt lat="37.82886381283959" lon="15.109086500836757"><ele>753.0</ele><time>2026-04-19T07:02:58Z</time></trkpt><trkpt lat="37.82871326554798" lon="15.109304078282191"><ele>753.0</ele><time>2026-04-19T07:02:59Z</time></trkpt><trkpt lat="37.828560312119684" lon="15.109509341333792"><ele>758.0</ele><time>2026-04-19T07:03:00Z</time></trkpt><trkpt lat="37.828398544412266" lon="15.109710719742639"><ele>763.0</ele><time>2026-04-19T07:03:01Z</time></trkpt><trkpt lat="37.8282214482387" lon="15.1099005571955"><ele>761.0</ele><time>2026-04-19T07:03:02Z</time></trkpt><trkpt lat="37.82803869824324" lon="15.110078873326371"><ele>759.0</ele><time>2026-04-19T07:03:03Z</time></trkpt><trkpt lat="37.82785015882586" lon="15.110231241657507"><ele>759.0</ele><time>2026-04-19T07:03:04Z</time></trkpt><trkpt lat="37.827660851587304" lon="15.110371494034203"><ele>759.0</ele><time>2026-04-19T07:03:05Z</time></trkpt><trkpt lat="37.827480718862176" lon="15.11051694992684"><ele>759.0</ele><time>2026-04-19T07:03:06Z</time></trkpt><trkpt lat="37.827307264241696" lon="15.110651736918546"><ele>760.3333333333334</ele><time>2026-04-19T07:03:07Z</time></trkpt><trkpt lat="37.82713667369699" lon="15.110792077087625"><ele>761.6666666666667</ele><time>2026-04-19T07:03:08Z</time></trkpt><trkpt lat="37.82697272502771" lon="15.1109238880036"><ele>763.0</ele><time>2026-04-19T07:03:09Z</time></trkpt><trkpt lat="37.826813099001704" lon="15.111057386815087"><ele>769.0</ele><time>2026-04-19T07:03:10Z</time></trkpt><trkpt lat="37.826656086888406" lon="15.111189735125441"><ele>775.0</ele><time>2026-04-19T07:03:11Z</time></trkpt><trkpt lat="37.82650929443509" lon="15.111308122554556"><ele>781.0</ele><time>2026-04-19T07:03:12Z</time></trkpt><trkpt lat="37.826396781424165" lon="15.111407923569928"><ele>781.0</ele><time>2026-04-19T07:03:13Z</time></trkpt><trkpt lat="37.826299924602296" lon="15.11151790924212"><ele>781.0</ele><time>2026-04-19T07:03:14Z</time></trkpt><trkpt lat="37.826236761779384" lon="15.11165376568545"><ele>781.0</ele><time>2026-04-19T07:03:15Z</time></trkpt><trkpt lat="37.82620682787395" lon="15.11180185248829"><ele>781.0</ele><time>2026-04-19T07:03:16Z</time></trkpt><trkpt lat="37.8262189676414" lon="15.111954036794172"><ele>779.1999999999999</ele><time>2026-04-19T07:03:17Z</time></trkpt><trkpt lat="37.826236615199385" lon="15.112076796650046"><ele>777.4</ele><time>2026-04-19T07:03:18Z</time></trkpt><trkpt lat="37.82621485864371" lon="15.112193619639266"><ele>775.6</ele><time>2026-04-19T07:03:19Z</time></trkpt><trkpt lat="37.826145597650886" lon="15.112281364210238"><ele>773.8</ele><time>2026-04-19T07:03:20Z</time></trkpt><trkpt lat="37.826060301208315" lon="15.112320366783493"><ele>772.0</ele><time>2026-04-19T07:03:21Z</time></trkpt><trkpt lat="37.82595947052006" lon="15.112347259059948"><ele>773.6</ele><time>2026-04-19T07:03:22Z</time></trkpt><trkpt lat="37.82584962837389" lon="15.112384510721375"><ele>775.2</ele><time>2026-04-19T07:03:23Z</time></trkpt><trkpt lat="37.8257434140153" lon="15.112408063776861"><ele>776.8</ele><time>2026-04-19T07:03:24Z</time></trkpt><trkpt lat="37.82565098249837" lon="15.112394217522354"><ele>778.4</ele><time>2026-04-19T07:03:25Z</time></trkpt><trkpt lat="37.825574379798994" lon="15.112344139447503"><ele>780.0</ele><time>2026-04-19T07:03:26Z</time></trkpt><trkpt lat="37.825521229598465" lon="15.112262953723597"><ele>782.8</ele><time>2026-04-19T07:03:27Z</time></trkpt><trkpt lat="37.82550687464906" lon="15.11215282449349"><ele>785.6</ele><time>2026-04-19T07:03:28Z</time></trkpt><trkpt lat="37.82551661720076" lon="15.112043383562892"><ele>788.4000000000001</ele><time>2026-04-19T07:03:29Z</time></trkpt><trkpt lat="37.82556510084624" lon="15.111942510615682"><ele>791.2</ele><time>2026-04-19T07:03:30Z</time></trkpt><trkpt lat="37.82564339463208" lon="15.111853813248523"><ele>794.0</ele><time>2026-04-19T07:03:31Z</time></trkpt><trkpt lat="37.82573909797417" lon="15.111767207866007"><ele>794.0</ele><time>2026-04-19T07:03:32Z</time></trkpt><trkpt lat="37.82583077480689" lon="15.111657729440543"><ele>794.0</ele><time>2026-04-19T07:03:33Z</time></trkpt><trkpt lat="37.82589916967358" lon="15.1115119044098"><ele>794.0</ele><time>2026-04-19T07:03:34Z</time></trkpt><trkpt lat="37.82593239574073" lon="15.11134593628026"><ele>794.0</ele><time>2026-04-19T07:03:35Z</time></trkpt><trkpt lat="37.825933299603165" lon="15.111174157284754"><ele>795.0</ele><time>2026-04-19T07:03:36Z</time></trkpt><trkpt lat="37.825880976774464" lon="15.111007093567016"><ele>796.0</ele><time>2026-04-19T07:03:37Z</time></trkpt><trkpt lat="37.825794114409895" lon="15.11085151134446"><ele>797.0</ele><time>2026-04-19T07:03:38Z</time></trkpt><trkpt lat="37.82567751204833" lon="15.110702703605067"><ele>798.0</ele><time>2026-04-19T07:03:39Z</time></trkpt><trkpt lat="37.82555938528137" lon="15.110540008069853"><ele>799.0</ele><time>2026-04-19T07:03:40Z</time></trkpt><trkpt lat="37.82543840898523" lon="15.110364057979318"><ele>800.0</ele><time>2026-04-19T07:03:41Z</time></trkpt><trkpt lat="37.82530854720695" lon="15.110184099499051"><ele>800.0</ele><time>2026-04-19T07:03:42Z</time></trkpt><trkpt lat="37.825194930264026" lon="15.109989619836044"><ele>800.0</ele><time>2026-04-19T07:03:43Z</time></trkpt><trkpt lat="37.825078396437725" lon="15.109815105915851"><ele>800.0</ele><time>2026-04-19T07:03:44Z</time></trkpt><trkpt lat="37.82497894184051" lon="15.109655302379387"><ele>803.25</ele><time>2026-04-19T07:03:45Z</time></trkpt><trkpt lat="37.82491559981414" lon="15.109494581736913"><ele>806.5</ele><time>2026-04-19T07:03:46Z</time></trkpt><trkpt lat="37.82488338085482" lon="15.10932865332706"><ele>809.75</ele><time>2026-04-19T07:03:47Z</time></trkpt><trkpt lat="37.82489124827729" lon="15.109164692484828"><ele>813.0</ele><time>2026-04-19T07:03:48Z</time></trkpt><trkpt lat="37.8249129585018" lon="15.108986129316422"><ele>816.0</ele><time>2026-04-19T07:03:49Z</time></trkpt><trkpt lat="37.82496927875758" lon="15.108787793494221"><ele>819.0</ele><time>2026-04-19T07:03:50Z</time></trkpt><trkpt lat="37.82501345500526" lon="15.108582590901506"><ele>822.0</ele><time>2026-04-19T07:03:51Z</time></trkpt><trkpt lat="37.825061589534755" lon="15.108358354017197"><ele>823.3333333333333</ele><time>2026-04-19T07:03:52Z</time></trkpt><trkpt lat="37.82510677425624" lon="15.1081487346467"><ele>824.6666666666666</ele><time>2026-04-19T07:03:53Z</time></trkpt><trkpt lat="37.82515061403128" lon="15.107964507348076"><ele>826.0</ele><time>2026-04-19T07:03:54Z</time></trkpt><trkpt lat="37.82521390614381" lon="15.107813988158986"><ele>826.0</ele><time>2026-04-19T07:03:55Z</time></trkpt><trkpt lat="37.825313941589435" lon="15.10771307319775"><ele>826.0</ele><time>2026-04-19T07:03:56Z</time></trkpt><trkpt lat="37.82543444533816" lon="15.10761202105913"><ele>826.0</ele><time>2026-04-19T07:03:57Z</time></trkpt><trkpt lat="37.82556770411047" lon="15.10750065614454"><ele>826.0</ele><time>2026-04-19T07:03:58Z</time></trkpt><trkpt lat="37.82567979993894" lon="15.107336708685125"><ele>829.3333333333333</ele><time>2026-04-19T07:03:59Z</time></trkpt><trkpt lat="37.82578218973295" lon="15.107156771031459"><ele>832.6666666666667</ele><time>2026-04-19T07:04:00Z</time></trkpt><trkpt lat="37.82587785770606" lon="15.106979527330779"><ele>836.0</ele><time>2026-04-19T07:04:01Z</time></trkpt><trkpt lat="37.82595785509589" lon="15.106820460186515"><ele>835.0</ele><time>2026-04-19T07:04:02Z</time></trkpt><trkpt lat="37.82602724452044" lon="15.10667404218511"><ele>834.0</ele><time>2026-04-19T07:04:03Z</time></trkpt><trkpt lat="37.82607045523826" lon="15.106528018000379"><ele>833.0</ele><time>2026-04-19T07:04:04Z</time></trkpt><trkpt lat="37.826071881171295" lon="15.106358574752281"><ele>832.0</ele><time>2026-04-19T07:04:05Z</time></trkpt><trkpt lat="37.826049733156175" lon="15.106186693923823"><ele>832.0</ele><time>2026-04-19T07:04:06Z</time></trkpt><trkpt lat="37.8260355211203" lon="15.10601828170836"><ele>832.0</ele><time>2026-04-19T07:04:07Z</time></trkpt><trkpt lat="37.826062203116074" lon="15.10586889236913"><ele>832.0</ele><time>2026-04-19T07:04:08Z</time></trkpt><trkpt lat="37.82612347271312" lon="15.10572375264781"><ele>832.0</ele><time>2026-04-19T07:04:09Z</time></trkpt><trkpt lat="37.82622198067908" lon="15.105620799776382"><ele>835.0</ele><time>2026-04-19T07:04:10Z</time></trkpt><trkpt lat="37.82633391825707" lon="15.10553618984339"><ele>838.0</ele><time>2026-04-19T07:04:11Z</time></trkpt><trkpt lat="37.82647109517964" lon="15.105506872686549"><ele>841.0</ele><time>2026-04-19T07:04:12Z</time></trkpt><trkpt lat="37.826580207920244" lon="15.105484305362314"><ele>844.0</ele><time>2026-04-19T07:04:13Z</time></trkpt><trkpt lat="37.82666258110242" lon="15.105424510747776"><ele>844.0</ele><time>2026-04-19T07:04:14Z</time></trkpt><trkpt lat="37.82672333439236" lon="15.105310798932033"><ele>844.0</ele><time>2026-04-19T07:04:15Z</time></trkpt><trkpt lat="37.82674835059216" lon="15.105164398068705"><ele>844.0</ele><time>2026-04-19T07:04:16Z</time></trkpt><trkpt lat="37.826732611518665" lon="15.105009288172223"><ele>844.0</ele><time>2026-04-19T07:04:17Z</time></trkpt><trkpt lat="37.82666477919403" lon="15.10487494963115"><ele>847.75</ele><time>2026-04-19T07:04:18Z</time></trkpt><trkpt lat="37.826565061380116" lon="15.104780612613027"><ele>851.5</ele><time>2026-04-19T07:04:19Z</time></trkpt><trkpt lat="37.826437759684396" lon="15.10474978087036"><ele>855.25</ele><time>2026-04-19T07:04:20Z</time></trkpt><trkpt lat="37.82631259580508" lon="15.104775671282257"><ele>859.0</ele><time>2026-04-19T07:04:21Z</time></trkpt><trkpt lat="37.826206464784654" lon="15.104866525352321"><ele>858.5</ele><time>2026-04-19T07:04:22Z</time></trkpt><trkpt lat="37.82612227369938" lon="15.105002539914834"><ele>858.0</ele><time>2026-04-19T07:04:23Z</time></trkpt><trkpt lat="37.82602683649097" lon="15.105146852736492"><ele>857.5</ele><time>2026-04-19T07:04:24Z</time></trkpt><trkpt lat="37.82591233020273" lon="15.105291329131605"><ele>857.0</ele><time>2026-04-19T07:04:25Z</time></trkpt><trkpt lat="37.825794327842566" lon="15.105431783053495"><ele>857.0</ele><time>2026-04-19T07:04:26Z</time></trkpt><trkpt lat="37.82568939559932" lon="15.105563659575655"><ele>857.0</ele><time>2026-04-19T07:04:27Z</time></trkpt><trkpt lat="37.82559511894632" lon="15.10568092065069"><ele>857.0</ele><time>2026-04-19T07:04:28Z</time></trkpt><trkpt lat="37.825498630063095" lon="15.105769639578156"><ele>857.0</ele><time>2026-04-19T07:04:29Z</time></trkpt><trkpt lat="37.82538174088365" lon="15.10580793763881"><ele>858.0</ele><time>2026-04-19T07:04:30Z</time></trkpt><trkpt lat="37.82525014330142" lon="15.105797523975314"><ele>859.0</ele><time>2026-04-19T07:04:31Z</time></trkpt><trkpt lat="37.82510945584787" lon="15.105781583747765"><ele>860.0</ele><time>2026-04-19T07:04:32Z</time></trkpt><trkpt lat="37.82495382501494" lon="15.105775882334855"><ele>861.0</ele><time>2026-04-19T07:04:33Z</time></trkpt><trkpt lat="37.824788226330675" lon="15.105787376504601"><ele>861.0</ele><time>2026-04-19T07:04:34Z</time></trkpt><trkpt lat="37.824619387082585" lon="15.105821690794691"><ele>861.0</ele><time>2026-04-19T07:04:35Z</time></trkpt><trkpt lat="37.8244540312469" lon="15.105895030916296"><ele>861.0</ele><time>2026-04-19T07:04:36Z</time></trkpt><trkpt lat="37.82430717324802" lon="15.105993535726029"><ele>866.6666666666667</ele><time>2026-04-19T07:04:37Z</time></trkpt><trkpt lat="37.824189349598626" lon="15.106115579281157"><ele>872.3333333333334</ele><time>2026-04-19T07:04:38Z</time></trkpt><trkpt lat="37.82406321867382" lon="15.106248867226386"><ele>878.0</ele><time>2026-04-19T07:04:39Z</time></trkpt><trkpt lat="37.82397565704536" lon="15.106389985725155"><ele>878.0</ele><time>2026-04-19T07:04:40Z</time></trkpt><trkpt lat="37.823866232208495" lon="15.106465509116969"><ele>878.0</ele><time>2026-04-19T07:04:41Z</time></trkpt><trkpt lat="37.82375181164078" lon="15.106486392394736"><ele>878.0</ele><time>2026-04-19T07:04:42Z</time></trkpt><trkpt lat="37.82363945472331" lon="15.10645390672151"><ele>878.0</ele><time>2026-04-19T07:04:43Z</time></trkpt><trkpt lat="37.82351275052006" lon="15.10640411486041"><ele>882.0</ele><time>2026-04-19T07:04:44Z</time></trkpt><trkpt lat="37.82335689959203" lon="15.106349463487147"><ele>886.0</ele><time>2026-04-19T07:04:45Z</time></trkpt><trkpt lat="37.823184760222325" lon="15.10629531381258"><ele>890.0</ele><time>2026-04-19T07:04:46Z</time></trkpt><trkpt lat="37.823023295912165" lon="15.106232833833124"><ele>890.0</ele><time>2026-04-19T07:04:47Z</time></trkpt><trkpt lat="37.82287149306575" lon="15.106177243801191"><ele>890.0</ele><time>2026-04-19T07:04:48Z</time></trkpt><trkpt lat="37.822730554473075" lon="15.10614319696932"><ele>890.0</ele><time>2026-04-19T07:04:49Z</time></trkpt><trkpt lat="37.82260450059837" lon="15.10613624876742"><ele>890.0</ele><time>2026-04-19T07:04:50Z</time></trkpt><trkpt lat="37.822486428608656" lon="15.106173871661092"><ele>888.25</ele><time>2026-04-19T07:04:51Z</time></trkpt><trkpt lat="37.82237145883663" lon="15.106262345185414"><ele>886.5</ele><time>2026-04-19T07:04:52Z</time></trkpt><trkpt lat="37.822264251144006" lon="15.106385492609673"><ele>884.75</ele><time>2026-04-19T07:04:53Z</time></trkpt><trkpt lat="37.82216335049449" lon="15.106527388494634"><ele>883.0</ele><time>2026-04-19T07:04:54Z</time></trkpt><trkpt lat="37.822075089414945" lon="15.10668825369059"><ele>883.0</ele><time>2026-04-19T07:04:55Z</time></trkpt><trkpt lat="37.82200439960004" lon="15.106874228725134"><ele>883.0</ele><time>2026-04-19T07:04:56Z</time></trkpt><trkpt lat="37.82191812842844" lon="15.107049781414554"><ele>883.0</ele><time>2026-04-19T07:04:57Z</time></trkpt><trkpt lat="37.821815610259634" lon="15.107178260232917"><ele>888.0</ele><time>2026-04-19T07:04:58Z</time></trkpt><trkpt lat="37.8217056942504" lon="15.107258725942897"><ele>893.0</ele><time>2026-04-19T07:04:59Z</time></trkpt><trkpt lat="37.82159128885707" lon="15.107308531716706"><ele>898.0</ele><time>2026-04-19T07:05:00Z</time></trkpt><trkpt lat="37.82146808064105" lon="15.107355863881656"><ele>903.0</ele><time>2026-04-19T07:05:01Z</time></trkpt><trkpt lat="37.8213522352827" lon="15.10736424581452"><ele>903.0</ele><time>2026-04-19T07:05:02Z</time></trkpt><trkpt lat="37.82123281268128" lon="15.10731755168089"><ele>903.0</ele><time>2026-04-19T07:05:03Z</time></trkpt><trkpt lat="37.82110775991989" lon="15.107236776389016"><ele>903.0</ele><time>2026-04-19T07:05:04Z</time></trkpt><trkpt lat="37.82097006337705" lon="15.10712778063385"><ele>903.0</ele><time>2026-04-19T07:05:05Z</time></trkpt><trkpt lat="37.820820539112475" lon="15.107003163901377"><ele>906.3333333333333</ele><time>2026-04-19T07:05:06Z</time></trkpt><trkpt lat="37.82065331850878" lon="15.106877246160824"><ele>909.6666666666666</ele><time>2026-04-19T07:05:07Z</time></trkpt><trkpt lat="37.8204745983102" lon="15.106744170609026"><ele>913.0</ele><time>2026-04-19T07:05:08Z</time></trkpt><trkpt lat="37.82030035001989" lon="15.106608875580854"><ele>918.0</ele><time>2026-04-19T07:05:09Z</time></trkpt><trkpt lat="37.820135367439164" lon="15.106462009838426"><ele>923.0</ele><time>2026-04-19T07:05:10Z</time></trkpt><trkpt lat="37.819983750386804" lon="15.10628714980308"><ele>928.0</ele><time>2026-04-19T07:05:11Z</time></trkpt><trkpt lat="37.819841817046886" lon="15.1061056068796"><ele>928.0</ele><time>2026-04-19T07:05:12Z</time></trkpt><trkpt lat="37.819703634483616" lon="15.1059270375975"><ele>928.0</ele><time>2026-04-19T07:05:13Z</time></trkpt><trkpt lat="37.81956287906522" lon="15.105773301867265"><ele>928.0</ele><time>2026-04-19T07:05:14Z</time></trkpt><trkpt lat="37.81944155358543" lon="15.10566155911039"><ele>931.75</ele><time>2026-04-19T07:05:15Z</time></trkpt><trkpt lat="37.819322041782485" lon="15.105595551378318"><ele>935.5</ele><time>2026-04-19T07:05:16Z</time></trkpt><trkpt lat="37.81919296278607" lon="15.10557687729221"><ele>939.25</ele><time>2026-04-19T07:05:17Z</time></trkpt><trkpt lat="37.81906388389321" lon="15.10560701518188"><ele>943.0</ele><time>2026-04-19T07:05:18Z</time></trkpt><trkpt lat="37.818938960001255" lon="15.105688361569234"><ele>937.75</ele><time>2026-04-19T07:05:19Z</time></trkpt><trkpt lat="37.81883767044721" lon="15.105806409532269"><ele>932.5</ele><time>2026-04-19T07:05:20Z</time></trkpt><trkpt lat="37.81872413978147" lon="15.105928207889491"><ele>927.25</ele><time>2026-04-19T07:05:21Z</time></trkpt><trkpt lat="37.818620392750596" lon="15.106069022689665"><ele>922.0</ele><time>2026-04-19T07:05:22Z</time></trkpt><trkpt lat="37.81851803640052" lon="15.106164031287399"><ele>923.8</ele><time>2026-04-19T07:05:23Z</time></trkpt><trkpt lat="37.81840791160284" lon="15.106210263821241"><ele>925.6</ele><time>2026-04-19T07:05:24Z</time></trkpt><trkpt lat="37.81830537305723" lon="15.10620246773072"><ele>927.3999999999999</ele><time>2026-04-19T07:05:25Z</time></trkpt><trkpt lat="37.81822967708794" lon="15.106138624428183"><ele>929.1999999999999</ele><time>2026-04-19T07:05:26Z</time></trkpt><trkpt lat="37.818191145162494" lon="15.106049745521164"><ele>931.0</ele><time>2026-04-19T07:05:27Z</time></trkpt><trkpt lat="37.81817891305875" lon="15.105933352895889"><ele>931.0</ele><time>2026-04-19T07:05:28Z</time></trkpt><trkpt lat="37.81820075599265" lon="15.10581388689564"><ele>931.0</ele><time>2026-04-19T07:05:29Z</time></trkpt><trkpt lat="37.8182639573176" lon="15.10569650943289"><ele>931.0</ele><time>2026-04-19T07:05:30Z</time></trkpt><trkpt lat="37.818362690869954" lon="15.105591558257638"><ele>931.0</ele><time>2026-04-19T07:05:31Z</time></trkpt><trkpt lat="37.81847794167647" lon="15.105488034690534"><ele>934.0</ele><time>2026-04-19T07:05:32Z</time></trkpt><trkpt lat="37.818595330690016" lon="15.105367407303072"><ele>937.0</ele><time>2026-04-19T07:05:33Z</time></trkpt><trkpt lat="37.81870819441349" lon="15.105244592290731"><ele>940.0</ele><time>2026-04-19T07:05:34Z</time></trkpt><trkpt lat="37.81882078427733" lon="15.105125046475795"><ele>943.0</ele><time>2026-04-19T07:05:35Z</time></trkpt><trkpt lat="37.81896657743982" lon="15.10506935476865"><ele>943.0</ele><time>2026-04-19T07:05:36Z</time></trkpt><trkpt lat="37.81911723500817" lon="15.105043450159702"><ele>943.0</ele><time>2026-04-19T07:05:37Z</time></trkpt><trkpt lat="37.81927076415633" lon="15.105061465930127"><ele>943.0</ele><time>2026-04-19T07:05:38Z</time></trkpt><trkpt lat="37.81941835633505" lon="15.105135494168424"><ele>943.75</ele><time>2026-04-19T07:05:39Z</time></trkpt><trkpt lat="37.81956221963923" lon="15.105205037271217"><ele>944.5</ele><time>2026-04-19T07:05:40Z</time></trkpt><trkpt lat="37.81971041509963" lon="15.105235300737773"><ele>945.25</ele><time>2026-04-19T07:05:41Z</time></trkpt><trkpt lat="37.81984774438688" lon="15.105218028203735"><ele>946.0</ele><time>2026-04-19T07:05:42Z</time></trkpt><trkpt lat="37.819971294262594" lon="15.10514410891652"><ele>946.0</ele><time>2026-04-19T07:05:43Z</time></trkpt><trkpt lat="37.82007647253077" lon="15.105023186704235"><ele>946.0</ele><time>2026-04-19T07:05:44Z</time></trkpt><trkpt lat="37.82016167597714" lon="15.104865907637125"><ele>946.0</ele><time>2026-04-19T07:05:45Z</time></trkpt><trkpt lat="37.820243465845316" lon="15.104697838831116"><ele>946.0</ele><time>2026-04-19T07:05:46Z</time></trkpt><trkpt lat="37.82033141908845" lon="15.104517867879226"><ele>946.0</ele><time>2026-04-19T07:05:47Z</time></trkpt><trkpt lat="37.8204270964123" lon="15.10432642262671"><ele>946.0</ele><time>2026-04-19T07:05:48Z</time></trkpt><trkpt lat="37.820529300394206" lon="15.104127924335096"><ele>946.0</ele><time>2026-04-19T07:05:49Z</time></trkpt><trkpt lat="37.82062594351435" lon="15.103905131780467"><ele>951.0</ele><time>2026-04-19T07:05:50Z</time></trkpt><trkpt lat="37.82066702585636" lon="15.103654620805342"><ele>956.0</ele><time>2026-04-19T07:05:51Z</time></trkpt><trkpt lat="37.820719366298135" lon="15.103443088731904"><ele>961.0</ele><time>2026-04-19T07:05:52Z</time></trkpt><trkpt lat="37.820763986352574" lon="15.103256301550863"><ele>960.5</ele><time>2026-04-19T07:05:53Z</time></trkpt><trkpt lat="37.82078285046691" lon="15.103083664218971"><ele>960.0</ele><time>2026-04-19T07:05:54Z</time></trkpt><trkpt lat="37.8207521621723" lon="15.102914691141686"><ele>959.5</ele><time>2026-04-19T07:05:55Z</time></trkpt><trkpt lat="37.82070221201284" lon="15.102747165584365"><ele>959.0</ele><time>2026-04-19T07:05:56Z</time></trkpt><trkpt lat="37.82059202535225" lon="15.102615490553728"><ele>959.0</ele><time>2026-04-19T07:05:57Z</time></trkpt><trkpt lat="37.820451484465806" lon="15.102539904674563"><ele>959.0</ele><time>2026-04-19T07:05:58Z</time></trkpt><trkpt lat="37.820303136886004" lon="15.102486222499833"><ele>959.0</ele><time>2026-04-19T07:05:59Z</time></trkpt><trkpt lat="37.82014487003619" lon="15.102436671782414"><ele>962.6666666666667</ele><time>2026-04-19T07:06:00Z</time></trkpt><trkpt lat="37.81997620370219" lon="15.102383578246142"><ele>966.3333333333333</ele><time>2026-04-19T07:06:01Z</time></trkpt><trkpt lat="37.81980714233934" lon="15.10233004679058"><ele>970.0</ele><time>2026-04-19T07:06:02Z</time></trkpt><trkpt lat="37.81965541279578" lon="15.102262807062923"><ele>970.0</ele><time>2026-04-19T07:06:03Z</time></trkpt><trkpt lat="37.819546308889464" lon="15.10215531333443"><ele>970.0</ele><time>2026-04-19T07:06:04Z</time></trkpt><trkpt lat="37.819471501958" lon="15.102037216921412"><ele>970.0</ele><time>2026-04-19T07:06:05Z</time></trkpt><trkpt lat="37.819432583485515" lon="15.101913779684539"><ele>970.0</ele><time>2026-04-19T07:06:06Z</time></trkpt><trkpt lat="37.819422340928" lon="15.101776277327556"><ele>970.0</ele><time>2026-04-19T07:06:07Z</time></trkpt><trkpt lat="37.819430376102666" lon="15.10162332861526"><ele>970.0</ele><time>2026-04-19T07:06:08Z</time></trkpt><trkpt lat="37.819427045200804" lon="15.101444290440439"><ele>970.0</ele><time>2026-04-19T07:06:09Z</time></trkpt><trkpt lat="37.81940071604045" lon="15.101268303881955"><ele>970.0</ele><time>2026-04-19T07:06:10Z</time></trkpt><trkpt lat="37.8193199085461" lon="15.101106078619548"><ele>974.6666666666666</ele><time>2026-04-19T07:06:11Z</time></trkpt><trkpt lat="37.81919352561246" lon="15.100971005697922"><ele>979.3333333333333</ele><time>2026-04-19T07:06:12Z</time></trkpt><trkpt lat="37.81907092690132" lon="15.100862220482862"><ele>984.0</ele><time>2026-04-19T07:06:13Z</time></trkpt><trkpt lat="37.81894360522703" lon="15.10077590604482"><ele>984.0</ele><time>2026-04-19T07:06:14Z</time></trkpt><trkpt lat="37.81880819612722" lon="15.100748306612912"><ele>984.0</ele><time>2026-04-19T07:06:15Z</time></trkpt><trkpt lat="37.818675017026095" lon="15.100786461469417"><ele>984.0</ele><time>2026-04-19T07:06:16Z</time></trkpt><trkpt lat="37.81855991775" lon="15.100884918216495"><ele>984.0</ele><time>2026-04-19T07:06:17Z</time></trkpt><trkpt lat="37.81846457079828" lon="15.101018544725564"><ele>986.75</ele><time>2026-04-19T07:06:18Z</time></trkpt><trkpt lat="37.81839624325815" lon="15.1011760837386"><ele>989.5</ele><time>2026-04-19T07:06:19Z</time></trkpt><trkpt lat="37.81829364132633" lon="15.101287680755961"><ele>992.25</ele><time>2026-04-19T07:06:20Z</time></trkpt><trkpt lat="37.81814592353813" lon="15.101319087032152"><ele>995.0</ele><time>2026-04-19T07:06:21Z</time></trkpt><trkpt lat="37.81801710564583" lon="15.101290532856822"><ele>995.0</ele><time>2026-04-19T07:06:22Z</time></trkpt><trkpt lat="37.81789922076328" lon="15.101204929485414"><ele>995.0</ele><time>2026-04-19T07:06:23Z</time></trkpt><trkpt lat="37.81776527378221" lon="15.101110120256825"><ele>995.0</ele><time>2026-04-19T07:06:24Z</time></trkpt><trkpt lat="37.81765519402672" lon="15.10097100599835"><ele>995.0</ele><time>2026-04-19T07:06:25Z</time></trkpt><trkpt lat="37.81750856642527" lon="15.10085257517173"><ele>997.0</ele><time>2026-04-19T07:06:26Z</time></trkpt><trkpt lat="37.81735987559091" lon="15.100778810092448"><ele>999.0</ele><time>2026-04-19T07:06:27Z</time></trkpt><trkpt lat="37.81721906343037" lon="15.100757896759303"><ele>1001.0</ele><time>2026-04-19T07:06:28Z</time></trkpt><trkpt lat="37.817089706975906" lon="15.100796318155682"><ele>1003.0</ele><time>2026-04-19T07:06:29Z</time></trkpt><trkpt lat="37.81696059924791" lon="15.100891560386065"><ele>1003.0</ele><time>2026-04-19T07:06:30Z</time></trkpt><trkpt lat="37.81684903173698" lon="15.101021918905879"><ele>1003.0</ele><time>2026-04-19T07:06:31Z</time></trkpt><trkpt lat="37.81675066381018" lon="15.101123838645737"><ele>1003.0</ele><time>2026-04-19T07:06:32Z</time></trkpt><trkpt lat="37.81664103944238" lon="15.101119207658256"><ele>1003.0</ele><time>2026-04-19T07:06:33Z</time></trkpt><trkpt lat="37.81654327908292" lon="15.10110497526946"><ele>1004.5999999999999</ele><time>2026-04-19T07:06:34Z</time></trkpt><trkpt lat="37.81644552688867" lon="15.101025518555558"><ele>1006.1999999999999</ele><time>2026-04-19T07:06:35Z</time></trkpt><trkpt lat="37.816380225773145" lon="15.100941674114047"><ele>1007.8</ele><time>2026-04-19T07:06:36Z</time></trkpt><trkpt lat="37.816334422825875" lon="15.100822551818176"><ele>1009.4</ele><time>2026-04-19T07:06:37Z</time></trkpt><trkpt lat="37.81630231500963" lon="15.100681184234617"><ele>1011.0</ele><time>2026-04-19T07:06:38Z</time></trkpt><trkpt lat="37.816315299133166" lon="15.100527368897588"><ele>1012.75</ele><time>2026-04-19T07:06:39Z</time></trkpt><trkpt lat="37.81639249833199" lon="15.100394655398862"><ele>1014.5</ele><time>2026-04-19T07:06:40Z</time></trkpt><trkpt lat="37.81648723717878" lon="15.100291881567806"><ele>1016.25</ele><time>2026-04-19T07:06:41Z</time></trkpt><trkpt lat="37.81661264526379" lon="15.100229278099096"><ele>1018.0</ele><time>2026-04-19T07:06:42Z</time></trkpt><trkpt lat="37.81674090637095" lon="15.100153507474944"><ele>1018.25</ele><time>2026-04-19T07:06:43Z</time></trkpt><trkpt lat="37.81686382999582" lon="15.10013211617636"><ele>1018.5</ele><time>2026-04-19T07:06:44Z</time></trkpt><trkpt lat="37.81695100508947" lon="15.100055859244936"><ele>1018.75</ele><time>2026-04-19T07:06:45Z</time></trkpt><trkpt lat="37.817014922019005" lon="15.099929082332192"><ele>1019.0</ele><time>2026-04-19T07:06:46Z</time></trkpt><trkpt lat="37.81703974565246" lon="15.099764529957696"><ele>1019.0</ele><time>2026-04-19T07:06:47Z</time></trkpt><trkpt lat="37.81703271244404" lon="15.09959945074497"><ele>1019.0</ele><time>2026-04-19T07:06:48Z</time></trkpt><trkpt lat="37.81697942420671" lon="15.099440147298722"><ele>1019.0</ele><time>2026-04-19T07:06:49Z</time></trkpt><trkpt lat="37.81687729922423" lon="15.099306293305657"><ele>1019.0</ele><time>2026-04-19T07:06:50Z</time></trkpt><trkpt lat="37.816750295435874" lon="15.099224210822392"><ele>1020.25</ele><time>2026-04-19T07:06:51Z</time></trkpt><trkpt lat="37.81661685727427" lon="15.099206423204977"><ele>1021.5</ele><time>2026-04-19T07:06:52Z</time></trkpt><trkpt lat="37.81648180413745" lon="15.099237601421924"><ele>1022.75</ele><time>2026-04-19T07:06:53Z</time></trkpt><trkpt lat="37.816355380258706" lon="15.099336843165654"><ele>1024.0</ele><time>2026-04-19T07:06:54Z</time></trkpt><trkpt lat="37.816237069903785" lon="15.09939831503054"><ele>1024.0</ele><time>2026-04-19T07:06:55Z</time></trkpt><trkpt lat="37.816120908725026" lon="15.099386794439146"><ele>1024.0</ele><time>2026-04-19T07:06:56Z</time></trkpt><trkpt lat="37.81601138717228" lon="15.099299451036432"><ele>1024.0</ele><time>2026-04-19T07:06:57Z</time></trkpt><trkpt lat="37.81590270704804" lon="15.099187037125787"><ele>1024.0</ele><time>2026-04-19T07:06:58Z</time></trkpt><trkpt lat="37.81575163062408" lon="15.099119927678741"><ele>1026.3333333333333</ele><time>2026-04-19T07:06:59Z</time></trkpt><trkpt lat="37.81559032901429" lon="15.099103007830832"><ele>1028.6666666666667</ele><time>2026-04-19T07:07:00Z</time></trkpt><trkpt lat="37.815425195262776" lon="15.099136622283826"><ele>1031.0</ele><time>2026-04-19T07:07:01Z</time></trkpt><trkpt lat="37.815280287399155" lon="15.099189883157635"><ele>1032.75</ele><time>2026-04-19T07:07:02Z</time></trkpt><trkpt lat="37.815153064131685" lon="15.09922244515762"><ele>1034.5</ele><time>2026-04-19T07:07:03Z</time></trkpt><trkpt lat="37.81503851412893" lon="15.099198151478053"><ele>1036.25</ele><time>2026-04-19T07:07:04Z</time></trkpt><trkpt lat="37.81495514067342" lon="15.099082817389492"><ele>1038.0</ele><time>2026-04-19T07:07:05Z</time></trkpt><trkpt lat="37.81487055508742" lon="15.098952562661472"><ele>1039.6</ele><time>2026-04-19T07:07:06Z</time></trkpt><trkpt lat="37.814842053303884" lon="15.098822149046086"><ele>1041.1999999999998</ele><time>2026-04-19T07:07:07Z</time></trkpt><trkpt lat="37.81483750519534" lon="15.098684310090725"><ele>1042.8</ele><time>2026-04-19T07:07:08Z</time></trkpt><trkpt lat="37.81488367739741" lon="15.098550629834842"><ele>1044.3999999999999</ele><time>2026-04-19T07:07:09Z</time></trkpt><trkpt lat="37.81496108349592" lon="15.098437725940318"><ele>1046.0</ele><time>2026-04-19T07:07:10Z</time></trkpt><trkpt lat="37.81507035208558" lon="15.098355870679713"><ele>1044.75</ele><time>2026-04-19T07:07:11Z</time></trkpt><trkpt lat="37.81518596348962" lon="15.098259844238115"><ele>1043.5</ele><time>2026-04-19T07:07:12Z</time></trkpt><trkpt lat="37.81531667970672" lon="15.098173373660362"><ele>1042.25</ele><time>2026-04-19T07:07:13Z</time></trkpt><trkpt lat="37.815440060344955" lon="15.098059832902432"><ele>1041.0</ele><time>2026-04-19T07:07:14Z</time></trkpt><trkpt lat="37.815555863520665" lon="15.097919836480441"><ele>1044.6666666666667</ele><time>2026-04-19T07:07:15Z</time></trkpt><trkpt lat="37.81566244068072" lon="15.097736832237526"><ele>1048.3333333333335</ele><time>2026-04-19T07:07:16Z</time></trkpt><trkpt lat="37.81575752227366" lon="15.097532708854024"><ele>1052.0</ele><time>2026-04-19T07:07:17Z</time></trkpt><trkpt lat="37.81587956514486" lon="15.097319416587894"><ele>1051.6666666666667</ele><time>2026-04-19T07:07:18Z</time></trkpt><trkpt lat="37.81599762161946" lon="15.097094004539269"><ele>1051.3333333333333</ele><time>2026-04-19T07:07:19Z</time></trkpt><trkpt lat="37.81609383886931" lon="15.096897850659845"><ele>1051.0</ele><time>2026-04-19T07:07:20Z</time></trkpt><trkpt lat="37.81617543186395" lon="15.096776610245275"><ele>1051.0</ele><time>2026-04-19T07:07:21Z</time></trkpt><trkpt lat="37.816206946143474" lon="15.096621272288559"><ele>1051.0</ele><time>2026-04-19T07:07:22Z</time></trkpt><trkpt lat="37.81618830213703" lon="15.096433620560683"><ele>1051.0</ele><time>2026-04-19T07:07:23Z</time></trkpt><trkpt lat="37.816163492636456" lon="15.096241802357659"><ele>1051.0</ele><time>2026-04-19T07:07:24Z</time></trkpt><trkpt lat="37.81614538423985" lon="15.096053674596597"><ele>1053.0</ele><time>2026-04-19T07:07:25Z</time></trkpt><trkpt lat="37.81614864904323" lon="15.095869633687114"><ele>1055.0</ele><time>2026-04-19T07:07:26Z</time></trkpt><trkpt lat="37.816201588823084" lon="15.095704922940529"><ele>1057.0</ele><time>2026-04-19T07:07:27Z</time></trkpt><trkpt lat="37.816276133074226" lon="15.095567813807255"><ele>1059.0</ele><time>2026-04-19T07:07:28Z</time></trkpt><trkpt lat="37.816370356455494" lon="15.095482591276452"><ele>1061.6666666666667</ele><time>2026-04-19T07:07:29Z</time></trkpt><trkpt lat="37.816496558817825" lon="15.095360197307706"><ele>1064.3333333333335</ele><time>2026-04-19T07:07:30Z</time></trkpt><trkpt lat="37.8166300123073" lon="15.095252250046276"><ele>1067.0</ele><time>2026-04-19T07:07:31Z</time></trkpt><trkpt lat="37.8167396289382" lon="15.09514797216583"><ele>1067.0</ele><time>2026-04-19T07:07:32Z</time></trkpt><trkpt lat="37.816806253750414" lon="15.095031040415984"><ele>1067.0</ele><time>2026-04-19T07:07:33Z</time></trkpt><trkpt lat="37.816845185264796" lon="15.094870396186067"><ele>1067.0</ele><time>2026-04-19T07:07:34Z</time></trkpt><trkpt lat="37.81682257178101" lon="15.094706748533774"><ele>1067.0</ele><time>2026-04-19T07:07:35Z</time></trkpt><trkpt lat="37.81677021169631" lon="15.094556059249637"><ele>1070.5</ele><time>2026-04-19T07:07:36Z</time></trkpt><trkpt lat="37.816699393787715" lon="15.094428113178408"><ele>1074.0</ele><time>2026-04-19T07:07:37Z</time></trkpt><trkpt lat="37.816578779316075" lon="15.09436425519612"><ele>1077.5</ele><time>2026-04-19T07:07:38Z</time></trkpt><trkpt lat="37.816460143125646" lon="15.094328870901148"><ele>1081.0</ele><time>2026-04-19T07:07:39Z</time></trkpt><trkpt lat="37.8163399368209" lon="15.094350401452772"><ele>1081.0</ele><time>2026-04-19T07:07:40Z</time></trkpt><trkpt lat="37.816224503120836" lon="15.094427519852696"><ele>1081.0</ele><time>2026-04-19T07:07:41Z</time></trkpt><trkpt lat="37.816129626436464" lon="15.09454467992092"><ele>1081.0</ele><time>2026-04-19T07:07:42Z</time></trkpt><trkpt lat="37.816041427632214" lon="15.094684591439133"><ele>1081.0</ele><time>2026-04-19T07:07:43Z</time></trkpt><trkpt lat="37.81593155378902" lon="15.094801468917463"><ele>1080.25</ele><time>2026-04-19T07:07:44Z</time></trkpt><trkpt lat="37.81581551894375" lon="15.094913870924952"><ele>1079.5</ele><time>2026-04-19T07:07:45Z</time></trkpt><trkpt lat="37.815711251867945" lon="15.095017079088308"><ele>1078.75</ele><time>2026-04-19T07:07:46Z</time></trkpt><trkpt lat="37.815593123884405" lon="15.09507641797374"><ele>1078.0</ele><time>2026-04-19T07:07:47Z</time></trkpt><trkpt lat="37.815461318886584" lon="15.095089708351995"><ele>1078.0</ele><time>2026-04-19T07:07:48Z</time></trkpt><trkpt lat="37.81532792783671" lon="15.095051778510369"><ele>1078.0</ele><time>2026-04-19T07:07:49Z</time></trkpt><trkpt lat="37.81520069144931" lon="15.094974434304186"><ele>1078.0</ele><time>2026-04-19T07:07:50Z</time></trkpt><trkpt lat="37.81508484825064" lon="15.094913908781676"><ele>1078.0</ele><time>2026-04-19T07:07:51Z</time></trkpt><trkpt lat="37.814958379443645" lon="15.094927513647228"><ele>1080.75</ele><time>2026-04-19T07:07:52Z</time></trkpt><trkpt lat="37.814836196454" lon="15.095002734055884"><ele>1083.5</ele><time>2026-04-19T07:07:53Z</time></trkpt><trkpt lat="37.81472630596658" lon="15.095116986121399"><ele>1086.25</ele><time>2026-04-19T07:07:54Z</time></trkpt><trkpt lat="37.81459307595998" lon="15.09519369605948"><ele>1089.0</ele><time>2026-04-19T07:07:55Z</time></trkpt><trkpt lat="37.81443657841305" lon="15.09523081287474"><ele>1094.3333333333333</ele><time>2026-04-19T07:07:56Z</time></trkpt><trkpt lat="37.81427643052286" lon="15.095283463899127"><ele>1099.6666666666665</ele><time>2026-04-19T07:07:57Z</time></trkpt><trkpt lat="37.81412698248645" lon="15.095320068230642"><ele>1105.0</ele><time>2026-04-19T07:07:58Z</time></trkpt><trkpt lat="37.8139873785608" lon="15.095332657818275"><ele>1105.0</ele><time>2026-04-19T07:07:59Z</time></trkpt><trkpt lat="37.81384744297781" lon="15.095296590761206"><ele>1105.0</ele><time>2026-04-19T07:08:00Z</time></trkpt><trkpt lat="37.81372537655193" lon="15.095216352975386"><ele>1105.0</ele><time>2026-04-19T07:08:01Z</time></trkpt><trkpt lat="37.81356659277275" lon="15.095204543194738"><ele>1105.0</ele><time>2026-04-19T07:08:02Z</time></trkpt><trkpt lat="37.813439245881135" lon="15.09525768766734"><ele>1107.25</ele><time>2026-04-19T07:08:03Z</time></trkpt><trkpt lat="37.81331745306951" lon="15.095363854652694"><ele>1109.5</ele><time>2026-04-19T07:08:04Z</time></trkpt><trkpt lat="37.813206587661796" lon="15.095486309278073"><ele>1111.75</ele><time>2026-04-19T07:08:05Z</time></trkpt><trkpt lat="37.813084531557536" lon="15.095583385277262"><ele>1114.0</ele><time>2026-04-19T07:08:06Z</time></trkpt><trkpt lat="37.812955144380226" lon="15.095620542069833"><ele>1114.0</ele><time>2026-04-19T07:08:07Z</time></trkpt><trkpt lat="37.812827842795464" lon="15.09560940665096"><ele>1114.0</ele><time>2026-04-19T07:08:08Z</time></trkpt><trkpt lat="37.812697334650544" lon="15.095561392193941"><ele>1114.0</ele><time>2026-04-19T07:08:09Z</time></trkpt><trkpt lat="37.812550559010575" lon="15.095495217652829"><ele>1114.0</ele><time>2026-04-19T07:08:10Z</time></trkpt><trkpt lat="37.81239096544169" lon="15.095468395554615"><ele>1117.6666666666665</ele><time>2026-04-19T07:08:11Z</time></trkpt><trkpt lat="37.812219555075906" lon="15.095467824509873"><ele>1121.3333333333333</ele><time>2026-04-19T07:08:12Z</time></trkpt><trkpt lat="37.8120520326995" lon="15.095506904760077"><ele>1125.0</ele><time>2026-04-19T07:08:13Z</time></trkpt><trkpt lat="37.811904127918126" lon="15.095579766796742"><ele>1125.25</ele><time>2026-04-19T07:08:14Z</time></trkpt><trkpt lat="37.811767419950414" lon="15.095640320056473"><ele>1125.5</ele><time>2026-04-19T07:08:15Z</time></trkpt><trkpt lat="37.811637837517054" lon="15.09563116974241"><ele>1125.75</ele><time>2026-04-19T07:08:16Z</time></trkpt><trkpt lat="37.81153508770322" lon="15.095565815508985"><ele>1126.0</ele><time>2026-04-19T07:08:17Z</time></trkpt><trkpt lat="37.81146044901493" lon="15.095474594517242"><ele>1126.0</ele><time>2026-04-19T07:08:18Z</time></trkpt><trkpt lat="37.811417180490615" lon="15.095355031625491"><ele>1126.0</ele><time>2026-04-19T07:08:19Z</time></trkpt><trkpt lat="37.81139182344565" lon="15.095229900885512"><ele>1126.0</ele><time>2026-04-19T07:08:20Z</time></trkpt><trkpt lat="37.81139457484196" lon="15.095099318287192"><ele>1126.0</ele><time>2026-04-19T07:08:21Z</time></trkpt><trkpt lat="37.811432944805695" lon="15.094973246968541"><ele>1126.0</ele><time>2026-04-19T07:08:22Z</time></trkpt><trkpt lat="37.81150320135968" lon="15.09485896654032"><ele>1129.5</ele><time>2026-04-19T07:08:23Z</time></trkpt><trkpt lat="37.81160093894897" lon="15.094762707475411"><ele>1133.0</ele><time>2026-04-19T07:08:24Z</time></trkpt><trkpt lat="37.81173170974801" lon="15.094753825143787"><ele>1136.5</ele><time>2026-04-19T07:08:25Z</time></trkpt><trkpt lat="37.811859290583406" lon="15.09476263931899"><ele>1140.0</ele><time>2026-04-19T07:08:26Z</time></trkpt><trkpt lat="37.81198544362981" lon="15.094831391615648"><ele>1140.0</ele><time>2026-04-19T07:08:27Z</time></trkpt><trkpt lat="37.812119342067014" lon="15.09482180270376"><ele>1140.0</ele><time>2026-04-19T07:08:28Z</time></trkpt><trkpt lat="37.81224910485512" lon="15.094749886825651"><ele>1140.0</ele><time>2026-04-19T07:08:29Z</time></trkpt><trkpt lat="37.812366984796135" lon="15.094648394384906"><ele>1140.0</ele><time>2026-04-19T07:08:30Z</time></trkpt><trkpt lat="37.81248500250861" lon="15.09453156465164"><ele>1140.0</ele><time>2026-04-19T07:08:31Z</time></trkpt><trkpt lat="37.81260664104437" lon="15.094372363169335"><ele>1140.0</ele><time>2026-04-19T07:08:32Z</time></trkpt><trkpt lat="37.812757439350115" lon="15.09421776418305"><ele>1140.0</ele><time>2026-04-19T07:08:33Z</time></trkpt><trkpt lat="37.81290765530635" lon="15.094024293343702"><ele>1143.0</ele><time>2026-04-19T07:08:34Z</time></trkpt><trkpt lat="37.8130804154534" lon="15.093840951101752"><ele>1146.0</ele><time>2026-04-19T07:08:35Z</time></trkpt><trkpt lat="37.81326313208078" lon="15.093643781795802"><ele>1146.0</ele><time>2026-04-19T07:08:36Z</time></trkpt><trkpt lat="37.813437929733404" lon="15.093431293906146"><ele>1146.0</ele><time>2026-04-19T07:08:37Z</time></trkpt><trkpt lat="37.813574762852916" lon="15.09323329009054"><ele>1145.0</ele><time>2026-04-19T07:08:38Z</time></trkpt><trkpt lat="37.813675116230456" lon="15.09304105827371"><ele>1144.0</ele><time>2026-04-19T07:08:39Z</time></trkpt><trkpt lat="37.81374685061217" lon="15.09289576513569"><ele>1143.0</ele><time>2026-04-19T07:08:40Z</time></trkpt><trkpt lat="37.813796422841236" lon="15.092811622621436"><ele>1142.0</ele><time>2026-04-19T07:08:41Z</time></trkpt><trkpt lat="37.81383499585852" lon="15.09271969398635"><ele>1142.0</ele><time>2026-04-19T07:08:42Z</time></trkpt><trkpt lat="37.81382025848428" lon="15.092623327644578"><ele>1142.0</ele><time>2026-04-19T07:08:43Z</time></trkpt><trkpt lat="37.813746336985865" lon="15.092573441789394"><ele>1142.0</ele><time>2026-04-19T07:08:44Z</time></trkpt><trkpt lat="37.813667498810574" lon="15.092565384419347"><ele>1142.0</ele><time>2026-04-19T07:08:45Z</time></trkpt><trkpt lat="37.81358281589641" lon="15.092614615590318"><ele>1142.0</ele><time>2026-04-19T07:08:46Z</time></trkpt><trkpt lat="37.813519084674546" lon="15.092724861471575"><ele>1142.0</ele><time>2026-04-19T07:08:47Z</time></trkpt><trkpt lat="37.813481218941675" lon="15.092860033993322"><ele>1146.75</ele><time>2026-04-19T07:08:48Z</time></trkpt><trkpt lat="37.81340244200112" lon="15.092976348717565"><ele>1151.5</ele><time>2026-04-19T07:08:49Z</time></trkpt><trkpt lat="37.81328499448626" lon="15.093033101863298"><ele>1156.25</ele><time>2026-04-19T07:08:50Z</time></trkpt><trkpt lat="37.81314244942695" lon="15.093063221144675"><ele>1161.0</ele><time>2026-04-19T07:08:51Z</time></trkpt><trkpt lat="37.812987006476" lon="15.093057517774396"><ele>1161.0</ele><time>2026-04-19T07:08:52Z</time></trkpt><trkpt lat="37.812827695665824" lon="15.093077129431045"><ele>1161.0</ele><time>2026-04-19T07:08:53Z</time></trkpt><trkpt lat="37.81266803649844" lon="15.093097279184024"><ele>1161.0</ele><time>2026-04-19T07:08:54Z</time></trkpt><trkpt lat="37.812513147194075" lon="15.09307989213455"><ele>1163.75</ele><time>2026-04-19T07:08:55Z</time></trkpt><trkpt lat="37.81237890890032" lon="15.09303328162631"><ele>1166.5</ele><time>2026-04-19T07:08:56Z</time></trkpt><trkpt lat="37.812294584420265" lon="15.092924458089236"><ele>1169.25</ele><time>2026-04-19T07:08:57Z</time></trkpt><trkpt lat="37.81220125985353" lon="15.0928391367168"><ele>1172.0</ele><time>2026-04-19T07:08:58Z</time></trkpt><trkpt lat="37.81210897498773" lon="15.092704874355997"><ele>1172.0</ele><time>2026-04-19T07:08:59Z</time></trkpt><trkpt lat="37.81199674574586" lon="15.092559870131348"><ele>1172.0</ele><time>2026-04-19T07:09:00Z</time></trkpt><trkpt lat="37.81189000058906" lon="15.092427277548413"><ele>1172.0</ele><time>2026-04-19T07:09:01Z</time></trkpt><trkpt lat="37.811789416316856" lon="15.092302675123024"><ele>1175.25</ele><time>2026-04-19T07:09:02Z</time></trkpt><trkpt lat="37.8116889163868" lon="15.092199713900671"><ele>1178.5</ele><time>2026-04-19T07:09:03Z</time></trkpt><trkpt lat="37.81157415008433" lon="15.092147746884157"><ele>1181.75</ele><time>2026-04-19T07:09:04Z</time></trkpt><trkpt lat="37.81144382878673" lon="15.092154633146793"><ele>1185.0</ele><time>2026-04-19T07:09:05Z</time></trkpt><trkpt lat="37.81131192741116" lon="15.092204235907621"><ele>1185.0</ele><time>2026-04-19T07:09:06Z</time></trkpt><trkpt lat="37.81118946777142" lon="15.092247024579235"><ele>1185.0</ele><time>2026-04-19T07:09:07Z</time></trkpt><trkpt lat="37.81105759432077" lon="15.092245098071917"><ele>1185.0</ele><time>2026-04-19T07:09:08Z</time></trkpt><trkpt lat="37.81094454167159" lon="15.092150799227468"><ele>1185.0</ele><time>2026-04-19T07:09:09Z</time></trkpt><trkpt lat="37.81086835026" lon="15.092055519582965"><ele>1185.25</ele><time>2026-04-19T07:09:10Z</time></trkpt><trkpt lat="37.810828235737596" lon="15.091896009743765"><ele>1185.5</ele><time>2026-04-19T07:09:11Z</time></trkpt><trkpt lat="37.810835747156325" lon="15.091765840786037"><ele>1185.75</ele><time>2026-04-19T07:09:12Z</time></trkpt><trkpt lat="37.81084650318396" lon="15.091656558466871"><ele>1186.0</ele><time>2026-04-19T07:09:13Z</time></trkpt><trkpt lat="37.810957775300814" lon="15.091560770628993"><ele>1188.0</ele><time>2026-04-19T07:09:14Z</time></trkpt><trkpt lat="37.811052188773075" lon="15.091457950342894"><ele>1190.0</ele><time>2026-04-19T07:09:15Z</time></trkpt><trkpt lat="37.81117321185245" lon="15.09139571884279"><ele>1192.0</ele><time>2026-04-19T07:09:16Z</time></trkpt><trkpt lat="37.81126752113933" lon="15.09137109815019"><ele>1194.0</ele><time>2026-04-19T07:09:17Z</time></trkpt><trkpt lat="37.81142241817508" lon="15.0912945930205"><ele>1194.0</ele><time>2026-04-19T07:09:18Z</time></trkpt><trkpt lat="37.811547809154305" lon="15.091176872798814"><ele>1194.0</ele><time>2026-04-19T07:09:19Z</time></trkpt><trkpt lat="37.811670185990046" lon="15.091045065896319"><ele>1194.0</ele><time>2026-04-19T07:09:20Z</time></trkpt><trkpt lat="37.811812825504425" lon="15.090893122028545"><ele>1193.5</ele><time>2026-04-19T07:09:21Z</time></trkpt><trkpt lat="37.81194586256576" lon="15.090785359082755"><ele>1193.0</ele><time>2026-04-19T07:09:22Z</time></trkpt><trkpt lat="37.812064446077684" lon="15.090683455619105"><ele>1192.5</ele><time>2026-04-19T07:09:23Z</time></trkpt><trkpt lat="37.81215766658612" lon="15.09055864330741"><ele>1192.0</ele><time>2026-04-19T07:09:24Z</time></trkpt><trkpt lat="37.81219078215797" lon="15.090407027688359"><ele>1194.0</ele><time>2026-04-19T07:09:25Z</time></trkpt><trkpt lat="37.812174960046434" lon="15.090241389744362"><ele>1196.0</ele><time>2026-04-19T07:09:26Z</time></trkpt><trkpt lat="37.8121136073359" lon="15.090071454166337"><ele>1198.0</ele><time>2026-04-19T07:09:27Z</time></trkpt><trkpt lat="37.81202423216717" lon="15.08993424148836"><ele>1200.0</ele><time>2026-04-19T07:09:28Z</time></trkpt><trkpt lat="37.81190806633363" lon="15.08983651883114"><ele>1201.0</ele><time>2026-04-19T07:09:29Z</time></trkpt><trkpt lat="37.81177584869521" lon="15.08980956158973"><ele>1202.0</ele><time>2026-04-19T07:09:30Z</time></trkpt><trkpt lat="37.811647946371934" lon="15.089841415704303"><ele>1203.0</ele><time>2026-04-19T07:09:31Z</time></trkpt><trkpt lat="37.81153097383759" lon="15.089911456554177"><ele>1204.0</ele><time>2026-04-19T07:09:32Z</time></trkpt><trkpt lat="37.81143851864308" lon="15.090020025441833"><ele>1204.0</ele><time>2026-04-19T07:09:33Z</time></trkpt><trkpt lat="37.81134676322928" lon="15.090106151864818"><ele>1204.0</ele><time>2026-04-19T07:09:34Z</time></trkpt><trkpt lat="37.81123312856504" lon="15.090168319626091"><ele>1204.0</ele><time>2026-04-19T07:09:35Z</time></trkpt><trkpt lat="37.811119092501585" lon="15.09013720762277"><ele>1204.0</ele><time>2026-04-19T07:09:36Z</time></trkpt><trkpt lat="37.81095846828664" lon="15.090125587172077"><ele>1205.75</ele><time>2026-04-19T07:09:37Z</time></trkpt><trkpt lat="37.81083658162848" lon="15.090067560109132"><ele>1207.5</ele><time>2026-04-19T07:09:38Z</time></trkpt><trkpt lat="37.81072512697173" lon="15.089987203211468"><ele>1209.25</ele><time>2026-04-19T07:09:39Z</time></trkpt><trkpt lat="37.81064851353065" lon="15.089904892097445"><ele>1211.0</ele><time>2026-04-19T07:09:40Z</time></trkpt><trkpt lat="37.81056328707107" lon="15.089751428164663"><ele>1216.0</ele><time>2026-04-19T07:09:41Z</time></trkpt><trkpt lat="37.81046999223783" lon="15.089582223309229"><ele>1221.0</ele><time>2026-04-19T07:09:42Z</time></trkpt><trkpt lat="37.81034911872618" lon="15.089463582775519"><ele>1226.0</ele><time>2026-04-19T07:09:43Z</time></trkpt><trkpt lat="37.81020667750254" lon="15.08939151614032"><ele>1227.6666666666667</ele><time>2026-04-19T07:09:44Z</time></trkpt><trkpt lat="37.8100400998198" lon="15.089388828757563"><ele>1229.3333333333333</ele><time>2026-04-19T07:09:45Z</time></trkpt><trkpt lat="37.80987036078223" lon="15.089405193273842"><ele>1231.0</ele><time>2026-04-19T07:09:46Z</time></trkpt><trkpt lat="37.80970573878503" lon="15.08938313029735"><ele>1231.0</ele><time>2026-04-19T07:09:47Z</time></trkpt><trkpt lat="37.80954094170366" lon="15.089370413437846"><ele>1231.0</ele><time>2026-04-19T07:09:48Z</time></trkpt><trkpt lat="37.809375069581606" lon="15.089345541507432"><ele>1231.0</ele><time>2026-04-19T07:09:49Z</time></trkpt><trkpt lat="37.80921815021696" lon="15.089276758647818"><ele>1231.6666666666665</ele><time>2026-04-19T07:09:50Z</time></trkpt><trkpt lat="37.80905668118954" lon="15.089163683562008"><ele>1232.3333333333333</ele><time>2026-04-19T07:09:51Z</time></trkpt><trkpt lat="37.80888614583457" lon="15.089027720456768"><ele>1233.0</ele><time>2026-04-19T07:09:52Z</time></trkpt><trkpt lat="37.80874211976456" lon="15.088912968510064"><ele>1237.6666666666667</ele><time>2026-04-19T07:09:53Z</time></trkpt><trkpt lat="37.80858964382218" lon="15.088790872036649"><ele>1242.3333333333335</ele><time>2026-04-19T07:09:54Z</time></trkpt><trkpt lat="37.80846346153316" lon="15.088682332693486"><ele>1247.0</ele><time>2026-04-19T07:09:55Z</time></trkpt><trkpt lat="37.80836669798399" lon="15.088564327809827"><ele>1247.0</ele><time>2026-04-19T07:09:56Z</time></trkpt><trkpt lat="37.80829265661554" lon="15.088411590555797"><ele>1247.0</ele><time>2026-04-19T07:09:57Z</time></trkpt><trkpt lat="37.80827179736983" lon="15.088273376807319"><ele>1247.0</ele><time>2026-04-19T07:09:58Z</time></trkpt><trkpt lat="37.80826797540675" lon="15.088053060466295"><ele>1247.0</ele><time>2026-04-19T07:09:59Z</time></trkpt><trkpt lat="37.80831046155722" lon="15.087899985550028"><ele>1248.75</ele><time>2026-04-19T07:10:00Z</time></trkpt><trkpt lat="37.8083725594213" lon="15.087772772235859"><ele>1250.5</ele><time>2026-04-19T07:10:01Z</time></trkpt><trkpt lat="37.80846209257235" lon="15.087669768225334"><ele>1252.25</ele><time>2026-04-19T07:10:02Z</time></trkpt><trkpt lat="37.8085821848147" lon="15.08759477695823"><ele>1254.0</ele><time>2026-04-19T07:10:03Z</time></trkpt><trkpt lat="37.808689209644164" lon="15.087530483741837"><ele>1254.0</ele><time>2026-04-19T07:10:04Z</time></trkpt><trkpt lat="37.808857615221044" lon="15.087474065838057"><ele>1254.0</ele><time>2026-04-19T07:10:05Z</time></trkpt><trkpt lat="37.80899391423214" lon="15.087318368688658"><ele>1254.0</ele><time>2026-04-19T07:10:06Z</time></trkpt><trkpt lat="37.80914219384945" lon="15.087175398676466"><ele>1256.0</ele><time>2026-04-19T07:10:07Z</time></trkpt><trkpt lat="37.809287074471435" lon="15.087015384255558"><ele>1258.0</ele><time>2026-04-19T07:10:08Z</time></trkpt><trkpt lat="37.809452097462724" lon="15.086838007424678"><ele>1260.0</ele><time>2026-04-19T07:10:09Z</time></trkpt><trkpt lat="37.80962577954198" lon="15.086649538391253"><ele>1261.6666666666667</ele><time>2026-04-19T07:10:10Z</time></trkpt><trkpt lat="37.80980277238515" lon="15.086460966934315"><ele>1263.3333333333335</ele><time>2026-04-19T07:10:11Z</time></trkpt><trkpt lat="37.80996655671626" lon="15.086289531419052"><ele>1265.0</ele><time>2026-04-19T07:10:12Z</time></trkpt><trkpt lat="37.81011318898315" lon="15.086124782866749"><ele>1265.3333333333335</ele><time>2026-04-19T07:10:13Z</time></trkpt><trkpt lat="37.810231761830984" lon="15.085980867109983"><ele>1265.6666666666667</ele><time>2026-04-19T07:10:14Z</time></trkpt><trkpt lat="37.81033715700287" lon="15.08584007225156"><ele>1266.0</ele><time>2026-04-19T07:10:15Z</time></trkpt><trkpt lat="37.81041119466015" lon="15.085690392027306"><ele>1267.0</ele><time>2026-04-19T07:10:16Z</time></trkpt><trkpt lat="37.810448581218665" lon="15.085478886254622"><ele>1268.0</ele><time>2026-04-19T07:10:17Z</time></trkpt><trkpt lat="37.81045071731651" lon="15.085277618894315"><ele>1269.0</ele><time>2026-04-19T07:10:18Z</time></trkpt><trkpt lat="37.81043024782293" lon="15.085076475225645"><ele>1272.0</ele><time>2026-04-19T07:10:19Z</time></trkpt><trkpt lat="37.81033957559756" lon="15.08491585070298"><ele>1275.0</ele><time>2026-04-19T07:10:20Z</time></trkpt><trkpt lat="37.81024517912142" lon="15.084757665803934"><ele>1278.0</ele><time>2026-04-19T07:10:21Z</time></trkpt><trkpt lat="37.810108762298775" lon="15.084667776321984"><ele>1278.6666666666667</ele><time>2026-04-19T07:10:22Z</time></trkpt><trkpt lat="37.80996497970082" lon="15.084597837502596"><ele>1279.3333333333335</ele><time>2026-04-19T07:10:23Z</time></trkpt><trkpt lat="37.80980926027316" lon="15.084552660861917"><ele>1280.0</ele><time>2026-04-19T07:10:24Z</time></trkpt><trkpt lat="37.809646157161865" lon="15.08454220291692"><ele>1280.0</ele><time>2026-04-19T07:10:25Z</time></trkpt><trkpt lat="37.809486799039476" lon="15.08452512679753"><ele>1280.0</ele><time>2026-04-19T07:10:26Z</time></trkpt><trkpt lat="37.809331943949346" lon="15.084520673624489"><ele>1280.0</ele><time>2026-04-19T07:10:27Z</time></trkpt><trkpt lat="37.809191300037355" lon="15.08453739720981"><ele>1281.0</ele><time>2026-04-19T07:10:28Z</time></trkpt><trkpt lat="37.80907035693633" lon="15.084535569209022"><ele>1282.0</ele><time>2026-04-19T07:10:29Z</time></trkpt><trkpt lat="37.80895741401605" lon="15.084589826376565"><ele>1283.0</ele><time>2026-04-19T07:10:30Z</time></trkpt><trkpt lat="37.80883950878713" lon="15.084610812392617"><ele>1284.0</ele><time>2026-04-19T07:10:31Z</time></trkpt><trkpt lat="37.808743674299855" lon="15.084627278718813"><ele>1284.0</ele><time>2026-04-19T07:10:32Z</time></trkpt><trkpt lat="37.80867281680105" lon="15.084579015093917"><ele>1284.0</ele><time>2026-04-19T07:10:33Z</time></trkpt><trkpt lat="37.808618873072305" lon="15.084526910433917"><ele>1284.0</ele><time>2026-04-19T07:10:34Z</time></trkpt><trkpt lat="37.8085828188757" lon="15.084435059537098"><ele>1284.0</ele><time>2026-04-19T07:10:35Z</time></trkpt><trkpt lat="37.80858256439438" lon="15.084335785552572"><ele>1284.0</ele><time>2026-04-19T07:10:36Z</time></trkpt><trkpt lat="37.80860841395663" lon="15.084229640000295"><ele>1284.0</ele><time>2026-04-19T07:10:37Z</time></trkpt><trkpt lat="37.808672713444786" lon="15.084140997679627"><ele>1284.0</ele><time>2026-04-19T07:10:38Z</time></trkpt><trkpt lat="37.8087830866672" lon="15.084098923050297"><ele>1284.0</ele><time>2026-04-19T07:10:39Z</time></trkpt><trkpt lat="37.80891109419326" lon="15.084098377215527"><ele>1284.0</ele><time>2026-04-19T07:10:40Z</time></trkpt><trkpt lat="37.80906301024615" lon="15.084091297282798"><ele>1284.0</ele><time>2026-04-19T07:10:41Z</time></trkpt><trkpt lat="37.809229536801915" lon="15.08406008325913"><ele>1290.6666666666667</ele><time>2026-04-19T07:10:42Z</time></trkpt><trkpt lat="37.809407646476615" lon="15.083983749346737"><ele>1297.3333333333335</ele><time>2026-04-19T07:10:43Z</time></trkpt><trkpt lat="37.8095847084194" lon="15.083914930381317"><ele>1304.0</ele><time>2026-04-19T07:10:44Z</time></trkpt><trkpt lat="37.80977690200524" lon="15.08384498797661"><ele>1304.0</ele><time>2026-04-19T07:10:45Z</time></trkpt><trkpt lat="37.80995027623947" lon="15.083768998019144"><ele>1304.0</ele><time>2026-04-19T07:10:46Z</time></trkpt><trkpt lat="37.81010374627708" lon="15.083667538292627"><ele>1304.0</ele><time>2026-04-19T07:10:47Z</time></trkpt><trkpt lat="37.81023966840528" lon="15.083525800365958"><ele>1305.25</ele><time>2026-04-19T07:10:48Z</time></trkpt><trkpt lat="37.81037027251497" lon="15.08339143784197"><ele>1306.5</ele><time>2026-04-19T07:10:49Z</time></trkpt><trkpt lat="37.81045875400755" lon="15.083280070283358"><ele>1307.75</ele><time>2026-04-19T07:10:50Z</time></trkpt><trkpt lat="37.81053512378543" lon="15.083191387057223"><ele>1309.0</ele><time>2026-04-19T07:10:51Z</time></trkpt><trkpt lat="37.81059441334299" lon="15.08306317556748"><ele>1309.0</ele><time>2026-04-19T07:10:52Z</time></trkpt><trkpt lat="37.81062099732351" lon="15.082901186666557"><ele>1309.0</ele><time>2026-04-19T07:10:53Z</time></trkpt><trkpt lat="37.8106498526086" lon="15.082728229554188"><ele>1309.0</ele><time>2026-04-19T07:10:54Z</time></trkpt><trkpt lat="37.81069626708482" lon="15.082553229770594"><ele>1309.0</ele><time>2026-04-19T07:10:55Z</time></trkpt><trkpt lat="37.81078527210333" lon="15.08240956800088"><ele>1308.0</ele><time>2026-04-19T07:10:56Z</time></trkpt><trkpt lat="37.8108909468775" lon="15.082261867153013"><ele>1307.0</ele><time>2026-04-19T07:10:57Z</time></trkpt><trkpt lat="37.81101252149703" lon="15.082099225397332"><ele>1306.0</ele><time>2026-04-19T07:10:58Z</time></trkpt><trkpt lat="37.811123887182355" lon="15.081952586983043"><ele>1306.0</ele><time>2026-04-19T07:10:59Z</time></trkpt><trkpt lat="37.811254360059685" lon="15.081797740560253"><ele>1306.0</ele><time>2026-04-19T07:11:00Z</time></trkpt><trkpt lat="37.81137837176424" lon="15.081679346027661"><ele>1306.0</ele><time>2026-04-19T07:11:01Z</time></trkpt><trkpt lat="37.81152326764473" lon="15.08160045676962"><ele>1305.75</ele><time>2026-04-19T07:11:02Z</time></trkpt><trkpt lat="37.81163108050882" lon="15.081537822098237"><ele>1305.5</ele><time>2026-04-19T07:11:03Z</time></trkpt><trkpt lat="37.81173120764388" lon="15.081409250614865"><ele>1305.25</ele><time>2026-04-19T07:11:04Z</time></trkpt><trkpt lat="37.811807347503304" lon="15.08124887757432"><ele>1305.0</ele><time>2026-04-19T07:11:05Z</time></trkpt><trkpt lat="37.81184222376057" lon="15.081065713281461"><ele>1305.0</ele><time>2026-04-19T07:11:06Z</time></trkpt><trkpt lat="37.811829455344004" lon="15.080883883265455"><ele>1305.0</ele><time>2026-04-19T07:11:07Z</time></trkpt><trkpt lat="37.811777604321605" lon="15.080730137503435"><ele>1305.0</ele><time>2026-04-19T07:11:08Z</time></trkpt><trkpt lat="37.81170216883509" lon="15.080607772979237"><ele>1305.0</ele><time>2026-04-19T07:11:09Z</time></trkpt><trkpt lat="37.81158010560412" lon="15.080539542369058"><ele>1309.75</ele><time>2026-04-19T07:11:10Z</time></trkpt><trkpt lat="37.81146090737391" lon="15.08047710263636"><ele>1314.5</ele><time>2026-04-19T07:11:11Z</time></trkpt><trkpt lat="37.81133212623704" lon="15.08045617474942"><ele>1319.25</ele><time>2026-04-19T07:11:12Z</time></trkpt><trkpt lat="37.81120347371203" lon="15.080479914801927"><ele>1324.0</ele><time>2026-04-19T07:11:13Z</time></trkpt><trkpt lat="37.81108052255041" lon="15.080544441648367"><ele>1326.0</ele><time>2026-04-19T07:11:14Z</time></trkpt><trkpt lat="37.81096713909751" lon="15.080658822216042"><ele>1328.0</ele><time>2026-04-19T07:11:15Z</time></trkpt><trkpt lat="37.81087371296378" lon="15.080810809548984"><ele>1330.0</ele><time>2026-04-19T07:11:16Z</time></trkpt><trkpt lat="37.81078546288744" lon="15.080974920128085"><ele>1330.0</ele><time>2026-04-19T07:11:17Z</time></trkpt><trkpt lat="37.81067779958566" lon="15.081137820469477"><ele>1330.0</ele><time>2026-04-19T07:11:18Z</time></trkpt><trkpt lat="37.810553871934914" lon="15.081277356683279"><ele>1330.0</ele><time>2026-04-19T07:11:19Z</time></trkpt><trkpt lat="37.81041062609777" lon="15.081380512270737"><ele>1330.0</ele><time>2026-04-19T07:11:20Z</time></trkpt><trkpt lat="37.810245703427036" lon="15.081443424163098"><ele>1330.0</ele><time>2026-04-19T07:11:21Z</time></trkpt><trkpt lat="37.810064880890295" lon="15.081467249971036"><ele>1330.0</ele><time>2026-04-19T07:11:22Z</time></trkpt><trkpt lat="37.80988629945631" lon="15.081482063005502"><ele>1330.0</ele><time>2026-04-19T07:11:23Z</time></trkpt><trkpt lat="37.80972131706354" lon="15.08149981616765"><ele>1330.0</ele><time>2026-04-19T07:11:24Z</time></trkpt><trkpt lat="37.80959183151168" lon="15.081577714914753"><ele>1330.0</ele><time>2026-04-19T07:11:25Z</time></trkpt><trkpt lat="37.80946833168421" lon="15.081673727131497"><ele>1330.0</ele><time>2026-04-19T07:11:26Z</time></trkpt><trkpt lat="37.80934991643043" lon="15.081739492541681"><ele>1330.0</ele><time>2026-04-19T07:11:27Z</time></trkpt><trkpt lat="37.80922984556583" lon="15.08179357642557"><ele>1330.0</ele><time>2026-04-19T07:11:28Z</time></trkpt><trkpt lat="37.809116255516216" lon="15.08180182674113"><ele>1330.0</ele><time>2026-04-19T07:11:29Z</time></trkpt><trkpt lat="37.809049175142036" lon="15.081734318754487"><ele>1331.8</ele><time>2026-04-19T07:11:30Z</time></trkpt><trkpt lat="37.80901808300032" lon="15.081615032918675"><ele>1333.6</ele><time>2026-04-19T07:11:32Z</time></trkpt><trkpt lat="37.8090404527375" lon="15.081458522965196"><ele>1335.4</ele><time>2026-04-19T07:11:34Z</time></trkpt><trkpt lat="37.80906859030378" lon="15.081369505844197"><ele>1337.2</ele><time>2026-04-19T07:11:35Z</time></trkpt><trkpt lat="37.8091590451197" lon="15.081301454568276"><ele>1339.0</ele><time>2026-04-19T07:11:36Z</time></trkpt><trkpt lat="37.80926919824521" lon="15.081271517754542"><ele>1340.3333333333333</ele><time>2026-04-19T07:11:37Z</time></trkpt><trkpt lat="37.80939762869006" lon="15.081218870543758"><ele>1341.6666666666667</ele><time>2026-04-19T07:11:38Z</time></trkpt><trkpt lat="37.8095051752503" lon="15.081069250422066"><ele>1343.0</ele><time>2026-04-19T07:11:39Z</time></trkpt><trkpt lat="37.80961298718387" lon="15.080913305836802"><ele>1346.3333333333335</ele><time>2026-04-19T07:11:40Z</time></trkpt><trkpt lat="37.80970620227312" lon="15.08074699652066"><ele>1349.6666666666667</ele><time>2026-04-19T07:11:41Z</time></trkpt><trkpt lat="37.80981101899033" lon="15.080606703961616"><ele>1353.0</ele><time>2026-04-19T07:11:42Z</time></trkpt><trkpt lat="37.80990283856892" lon="15.080474457242664"><ele>1353.0</ele><time>2026-04-19T07:11:43Z</time></trkpt><trkpt lat="37.809978346718104" lon="15.080346329619184"><ele>1353.0</ele><time>2026-04-19T07:11:44Z</time></trkpt><trkpt lat="37.81003129371696" lon="15.080212213568508"><ele>1353.0</ele><time>2026-04-19T07:11:45Z</time></trkpt><trkpt lat="37.81005047046164" lon="15.080056505272474"><ele>1353.0</ele><time>2026-04-19T07:11:46Z</time></trkpt><trkpt lat="37.81003750205903" lon="15.079897496592867"><ele>1354.0</ele><time>2026-04-19T07:11:47Z</time></trkpt><trkpt lat="37.809992782798886" lon="15.079744099841696"><ele>1355.0</ele><time>2026-04-19T07:11:48Z</time></trkpt><trkpt lat="37.809944336488456" lon="15.079611890200445"><ele>1356.0</ele><time>2026-04-19T07:11:49Z</time></trkpt><trkpt lat="37.80986700980638" lon="15.079521767078168"><ele>1357.0</ele><time>2026-04-19T07:11:50Z</time></trkpt><trkpt lat="37.80977000944027" lon="15.07947111609636"><ele>1357.0</ele><time>2026-04-19T07:11:51Z</time></trkpt><trkpt lat="37.809613595225535" lon="15.079522444642098"><ele>1357.0</ele><time>2026-04-19T07:11:52Z</time></trkpt><trkpt lat="37.809499402055316" lon="15.079586504634126"><ele>1357.0</ele><time>2026-04-19T07:11:53Z</time></trkpt><trkpt lat="37.80939366220624" lon="15.079682983860968"><ele>1357.0</ele><time>2026-04-19T07:11:54Z</time></trkpt><trkpt lat="37.809292481887766" lon="15.079770188519523"><ele>1361.0</ele><time>2026-04-19T07:11:55Z</time></trkpt><trkpt lat="37.809173928627565" lon="15.079844335486804"><ele>1365.0</ele><time>2026-04-19T07:11:56Z</time></trkpt><trkpt lat="37.80903902904177" lon="15.079871555963711"><ele>1369.0</ele><time>2026-04-19T07:11:57Z</time></trkpt><trkpt lat="37.8088928197809" lon="15.079848183406671"><ele>1373.0</ele><time>2026-04-19T07:11:58Z</time></trkpt><trkpt lat="37.80871941704509" lon="15.079808983497182"><ele>1373.0</ele><time>2026-04-19T07:11:59Z</time></trkpt><trkpt lat="37.808541499337565" lon="15.079767526773052"><ele>1373.0</ele><time>2026-04-19T07:12:00Z</time></trkpt><trkpt lat="37.808365723889395" lon="15.079742921408801"><ele>1373.0</ele><time>2026-04-19T07:12:01Z</time></trkpt><trkpt lat="37.808207970074314" lon="15.07971302842394"><ele>1375.6666666666667</ele><time>2026-04-19T07:12:02Z</time></trkpt><trkpt lat="37.808061450085134" lon="15.079744847502663"><ele>1378.3333333333333</ele><time>2026-04-19T07:12:03Z</time></trkpt><trkpt lat="37.80789988725058" lon="15.079839808069906"><ele>1381.0</ele><time>2026-04-19T07:12:04Z</time></trkpt><trkpt lat="37.80774637297954" lon="15.079891341452933"><ele>1383.75</ele><time>2026-04-19T07:12:05Z</time></trkpt><trkpt lat="37.80759185636242" lon="15.07989589089285"><ele>1386.5</ele><time>2026-04-19T07:12:06Z</time></trkpt><trkpt lat="37.807458853752806" lon="15.079895335593987"><ele>1389.25</ele><time>2026-04-19T07:12:07Z</time></trkpt><trkpt lat="37.80731792541177" lon="15.079836352320283"><ele>1392.0</ele><time>2026-04-19T07:12:08Z</time></trkpt><trkpt lat="37.807168459294964" lon="15.07978349506506"><ele>1392.0</ele><time>2026-04-19T07:12:09Z</time></trkpt><trkpt lat="37.80704014904855" lon="15.07973530888244"><ele>1392.0</ele><time>2026-04-19T07:12:10Z</time></trkpt><trkpt lat="37.806927984766574" lon="15.079681580593594"><ele>1392.0</ele><time>2026-04-19T07:12:11Z</time></trkpt><trkpt lat="37.80684457889463" lon="15.079597953699338"><ele>1392.0</ele><time>2026-04-19T07:12:12Z</time></trkpt><trkpt lat="37.80680778668813" lon="15.079466008874258"><ele>1390.75</ele><time>2026-04-19T07:12:13Z</time></trkpt><trkpt lat="37.80679543153501" lon="15.079339283115225"><ele>1389.5</ele><time>2026-04-19T07:12:14Z</time></trkpt><trkpt lat="37.80677493150027" lon="15.079160121529496"><ele>1388.25</ele><time>2026-04-19T07:12:15Z</time></trkpt><trkpt lat="37.80675083218653" lon="15.078930369611944"><ele>1387.0</ele><time>2026-04-19T07:12:16Z</time></trkpt><trkpt lat="37.80672738672537" lon="15.078726673755304"><ele>1386.5</ele><time>2026-04-19T07:12:17Z</time></trkpt><trkpt lat="37.80670016392086" lon="15.078524291622578"><ele>1386.0</ele><time>2026-04-19T07:12:18Z</time></trkpt><trkpt lat="37.806670983843524" lon="15.07832136232075"><ele>1385.5</ele><time>2026-04-19T07:12:19Z</time></trkpt><trkpt lat="37.80663350012933" lon="15.07817841745527"><ele>1385.0</ele><time>2026-04-19T07:12:20Z</time></trkpt><trkpt lat="37.806628324567484" lon="15.078060000460326"><ele>1386.2</ele><time>2026-04-19T07:12:21Z</time></trkpt><trkpt lat="37.80664761139016" lon="15.077958297218839"><ele>1387.4</ele><time>2026-04-19T07:12:22Z</time></trkpt><trkpt lat="37.80670029253725" lon="15.077862733941494"><ele>1388.6</ele><time>2026-04-19T07:12:23Z</time></trkpt><trkpt lat="37.8067909664592" lon="15.077821289865863"><ele>1389.8</ele><time>2026-04-19T07:12:24Z</time></trkpt><trkpt lat="37.80690744881811" lon="15.077802316509844"><ele>1391.0</ele><time>2026-04-19T07:12:26Z</time></trkpt><trkpt lat="37.806995228436506" lon="15.077936760770163"><ele>1392.5</ele><time>2026-04-19T07:12:27Z</time></trkpt><trkpt lat="37.80703479698644" lon="15.07808447955209"><ele>1394.0</ele><time>2026-04-19T07:12:28Z</time></trkpt><trkpt lat="37.80704702184853" lon="15.078254703373165"><ele>1395.5</ele><time>2026-04-19T07:12:29Z</time></trkpt><trkpt lat="37.80703960764827" lon="15.07843852375971"><ele>1397.0</ele><time>2026-04-19T07:12:30Z</time></trkpt><trkpt lat="37.807041106437225" lon="15.078637878612053"><ele>1397.0</ele><time>2026-04-19T07:12:31Z</time></trkpt><trkpt lat="37.807038382584714" lon="15.078835512607892"><ele>1397.0</ele><time>2026-04-19T07:12:32Z</time></trkpt><trkpt lat="37.807040633777355" lon="15.079009435555603"><ele>1397.0</ele><time>2026-04-19T07:12:33Z</time></trkpt><trkpt lat="37.80705670413963" lon="15.079172970257355"><ele>1397.0</ele><time>2026-04-19T07:12:34Z</time></trkpt><trkpt lat="37.80710625137893" lon="15.079288494491857"><ele>1396.0</ele><time>2026-04-19T07:12:35Z</time></trkpt><trkpt lat="37.807200699778214" lon="15.079374032907303"><ele>1395.0</ele><time>2026-04-19T07:12:36Z</time></trkpt><trkpt lat="37.80729515592393" lon="15.079422111951077"><ele>1394.0</ele><time>2026-04-19T07:12:37Z</time></trkpt><trkpt lat="37.807393589205624" lon="15.079399224637214"><ele>1393.0</ele><time>2026-04-19T07:12:38Z</time></trkpt><trkpt lat="37.807484261832364" lon="15.079329282310598"><ele>1392.0</ele><time>2026-04-19T07:12:39Z</time></trkpt><trkpt lat="37.80755188998114" lon="15.079214187478366"><ele>1393.25</ele><time>2026-04-19T07:12:40Z</time></trkpt><trkpt lat="37.807594192059724" lon="15.079089918966453"><ele>1394.5</ele><time>2026-04-19T07:12:41Z</time></trkpt><trkpt lat="37.80754368223268" lon="15.078915132235153"><ele>1395.75</ele><time>2026-04-19T07:12:42Z</time></trkpt><trkpt lat="37.807508018453184" lon="15.07873117536961"><ele>1397.0</ele><time>2026-04-19T07:12:43Z</time></trkpt><trkpt lat="37.807484592845796" lon="15.078553097102983"><ele>1397.0</ele><time>2026-04-19T07:12:44Z</time></trkpt><trkpt lat="37.80752214494767" lon="15.078402777135794"><ele>1397.0</ele><time>2026-04-19T07:12:45Z</time></trkpt><trkpt lat="37.80757639056053" lon="15.078265000926192"><ele>1397.0</ele><time>2026-04-19T07:12:46Z</time></trkpt><trkpt lat="37.80766510073366" lon="15.078078173987771"><ele>1397.0</ele><time>2026-04-19T07:12:47Z</time></trkpt><trkpt lat="37.80775008488431" lon="15.077906847948654"><ele>1400.0</ele><time>2026-04-19T07:12:48Z</time></trkpt><trkpt lat="37.80783299484641" lon="15.077739703374709"><ele>1403.0</ele><time>2026-04-19T07:12:49Z</time></trkpt><trkpt lat="37.807927007337305" lon="15.077550535885452"><ele>1406.0</ele><time>2026-04-19T07:12:50Z</time></trkpt><trkpt lat="37.80801773650224" lon="15.077367974622518"><ele>1409.0</ele><time>2026-04-19T07:12:51Z</time></trkpt><trkpt lat="37.80811601432908" lon="15.077170224344536"><ele>1412.0</ele><time>2026-04-19T07:12:52Z</time></trkpt><trkpt lat="37.80820610892068" lon="15.076955535454575"><ele>1415.0</ele><time>2026-04-19T07:12:53Z</time></trkpt><trkpt lat="37.8083061401434" lon="15.076766529275535"><ele>1416.6666666666667</ele><time>2026-04-19T07:12:54Z</time></trkpt><trkpt lat="37.80840243417208" lon="15.07660156923864"><ele>1418.3333333333333</ele><time>2026-04-19T07:12:55Z</time></trkpt><trkpt lat="37.80847239436588" lon="15.076442483664431"><ele>1420.0</ele><time>2026-04-19T07:12:56Z</time></trkpt><trkpt lat="37.80849982713278" lon="15.07626110865163"><ele>1419.75</ele><time>2026-04-19T07:12:57Z</time></trkpt><trkpt lat="37.808501583892344" lon="15.076098535303428"><ele>1419.5</ele><time>2026-04-19T07:12:58Z</time></trkpt><trkpt lat="37.80849752304383" lon="15.075915114757684"><ele>1419.25</ele><time>2026-04-19T07:12:59Z</time></trkpt><trkpt lat="37.80847076336523" lon="15.075735946649202"><ele>1419.0</ele><time>2026-04-19T07:13:00Z</time></trkpt><trkpt lat="37.80843879253032" lon="15.075550798291744"><ele>1419.0</ele><time>2026-04-19T07:13:01Z</time></trkpt><trkpt lat="37.8083871434931" lon="15.07535891221201"><ele>1419.0</ele><time>2026-04-19T07:13:02Z</time></trkpt><trkpt lat="37.808368114301146" lon="15.075162320496386"><ele>1419.0</ele><time>2026-04-19T07:13:03Z</time></trkpt><trkpt lat="37.80834122909814" lon="15.07501443827553"><ele>1419.0</ele><time>2026-04-19T07:13:04Z</time></trkpt><trkpt lat="37.80831733883486" lon="15.074878785380427"><ele>1418.8000000000002</ele><time>2026-04-19T07:13:05Z</time></trkpt><trkpt lat="37.808282601216064" lon="15.074761416072356"><ele>1418.6000000000001</ele><time>2026-04-19T07:13:06Z</time></trkpt><trkpt lat="37.80827148626931" lon="15.074661019518592"><ele>1418.4</ele><time>2026-04-19T07:13:07Z</time></trkpt><trkpt lat="37.80825740858276" lon="15.074527077403433"><ele>1418.2</ele><time>2026-04-19T07:13:09Z</time></trkpt><trkpt lat="37.80823966430392" lon="15.0744229421528"><ele>1418.0</ele><time>2026-04-19T07:13:12Z</time></trkpt><trkpt lat="37.80814249127518" lon="15.074392968140932"><ele>1418.0</ele><time>2026-04-19T07:13:21Z</time></trkpt><trkpt lat="37.80815444616286" lon="15.074312146691236"><ele>1418.0</ele><time>2026-04-19T07:13:43Z</time></trkpt><trkpt lat="37.808155085590485" lon="15.074141165249749"><ele>1418.0</ele><time>2026-04-19T07:13:45Z</time></trkpt><trkpt lat="37.80818285436481" lon="15.074038779172712"><ele>1418.0</ele><time>2026-04-19T07:13:46Z</time></trkpt><trkpt lat="37.80816913182279" lon="15.073930369975251"><ele>1418.0</ele><time>2026-04-19T07:13:47Z</time></trkpt><trkpt lat="37.80815668702832" lon="15.07380806752499"><ele>1420.0</ele><time>2026-04-19T07:13:48Z</time></trkpt><trkpt lat="37.80815026293902" lon="15.073695501436829"><ele>1422.0</ele><time>2026-04-19T07:13:49Z</time></trkpt><trkpt lat="37.80815858487397" lon="15.073588961349365"><ele>1424.0</ele><time>2026-04-19T07:13:50Z</time></trkpt><trkpt lat="37.808220575711935" lon="15.073501727677444"><ele>1426.0</ele><time>2026-04-19T07:13:51Z</time></trkpt><trkpt lat="37.808290118527346" lon="15.073414594491743"><ele>1428.0</ele><time>2026-04-19T07:13:52Z</time></trkpt><trkpt lat="37.80838572756568" lon="15.073347058826535"><ele>1428.0</ele><time>2026-04-19T07:13:53Z</time></trkpt><trkpt lat="37.80848836027715" lon="15.07333689031133"><ele>1428.0</ele><time>2026-04-19T07:13:54Z</time></trkpt><trkpt lat="37.808625262569954" lon="15.073300920884304"><ele>1428.0</ele><time>2026-04-19T07:13:55Z</time></trkpt><trkpt lat="37.8087215908127" lon="15.073199523300637"><ele>1428.0</ele><time>2026-04-19T07:13:56Z</time></trkpt><trkpt lat="37.80880755461342" lon="15.073082316300829"><ele>1430.75</ele><time>2026-04-19T07:13:57Z</time></trkpt><trkpt lat="37.808860102187225" lon="15.072935198090256"><ele>1433.5</ele><time>2026-04-19T07:13:58Z</time></trkpt><trkpt lat="37.808873255209846" lon="15.072749480511687"><ele>1436.25</ele><time>2026-04-19T07:13:59Z</time></trkpt><trkpt lat="37.80887150200962" lon="15.072554363494016"><ele>1439.0</ele><time>2026-04-19T07:14:00Z</time></trkpt><trkpt lat="37.808866232962735" lon="15.072325370473813"><ele>1443.0</ele><time>2026-04-19T07:14:01Z</time></trkpt><trkpt lat="37.80887822811497" lon="15.072119878545577"><ele>1447.0</ele><time>2026-04-19T07:14:02Z</time></trkpt><trkpt lat="37.80888250534668" lon="15.071921234748338"><ele>1451.0</ele><time>2026-04-19T07:14:03Z</time></trkpt><trkpt lat="37.80888685855396" lon="15.071728191207933"><ele>1453.0</ele><time>2026-04-19T07:14:04Z</time></trkpt><trkpt lat="37.808891966542525" lon="15.07152678575342"><ele>1455.0</ele><time>2026-04-19T07:14:05Z</time></trkpt><trkpt lat="37.808897194534815" lon="15.07132064814234"><ele>1457.0</ele><time>2026-04-19T07:14:06Z</time></trkpt><trkpt lat="37.80890140460218" lon="15.071120388788517"><ele>1457.0</ele><time>2026-04-19T07:14:07Z</time></trkpt><trkpt lat="37.808904086180384" lon="15.070917448709107"><ele>1457.0</ele><time>2026-04-19T07:14:08Z</time></trkpt><trkpt lat="37.80890755012686" lon="15.070724975336287"><ele>1457.0</ele><time>2026-04-19T07:14:09Z</time></trkpt><trkpt lat="37.808918079867624" lon="15.070537283315891"><ele>1458.3333333333335</ele><time>2026-04-19T07:14:10Z</time></trkpt><trkpt lat="37.80893488375063" lon="15.07036201602113"><ele>1459.6666666666667</ele><time>2026-04-19T07:14:11Z</time></trkpt><trkpt lat="37.80897983171067" lon="15.070148038256123"><ele>1461.0</ele><time>2026-04-19T07:14:12Z</time></trkpt><trkpt lat="37.80904037526629" lon="15.069942032302922"><ele>1463.25</ele><time>2026-04-19T07:14:13Z</time></trkpt><trkpt lat="37.80911334520817" lon="15.069788234386357"><ele>1465.5</ele><time>2026-04-19T07:14:14Z</time></trkpt><trkpt lat="37.809192473968366" lon="15.06959701443411"><ele>1467.75</ele><time>2026-04-19T07:14:15Z</time></trkpt><trkpt lat="37.80924954561294" lon="15.069443603228523"><ele>1470.0</ele><time>2026-04-19T07:14:16Z</time></trkpt><trkpt lat="37.80928564008266" lon="15.069327480519892"><ele>1470.0</ele><time>2026-04-19T07:14:17Z</time></trkpt><trkpt lat="37.80930084206565" lon="15.069188782639698"><ele>1470.0</ele><time>2026-04-19T07:14:18Z</time></trkpt><trkpt lat="37.80925610644021" lon="15.069021192027726"><ele>1470.0</ele><time>2026-04-19T07:14:19Z</time></trkpt><trkpt lat="37.809180182067266" lon="15.068922304210814"><ele>1470.0</ele><time>2026-04-19T07:14:20Z</time></trkpt><trkpt lat="37.8090687196553" lon="15.068897378087655"><ele>1470.0</ele><time>2026-04-19T07:14:21Z</time></trkpt><trkpt lat="37.80896016088578" lon="15.068873542640555"><ele>1470.0</ele><time>2026-04-19T07:14:22Z</time></trkpt><trkpt lat="37.808852969851216" lon="15.068911269719631"><ele>1470.0</ele><time>2026-04-19T07:14:23Z</time></trkpt><trkpt lat="37.80875900631462" lon="15.069004142371933"><ele>1470.0</ele><time>2026-04-19T07:14:24Z</time></trkpt><trkpt lat="37.8086866443805" lon="15.069137555700857"><ele>1470.0</ele><time>2026-04-19T07:14:25Z</time></trkpt><trkpt lat="37.80863174688365" lon="15.069292798559234"><ele>1470.0</ele><time>2026-04-19T07:14:26Z</time></trkpt><trkpt lat="37.80854703162542" lon="15.069444330555983"><ele>1470.0</ele><time>2026-04-19T07:14:27Z</time></trkpt><trkpt lat="37.80843617011672" lon="15.06956506063849"><ele>1470.0</ele><time>2026-04-19T07:14:28Z</time></trkpt><trkpt lat="37.80830692870503" lon="15.069581296626454"><ele>1471.8</ele><time>2026-04-19T07:14:29Z</time></trkpt><trkpt lat="37.808215111797836" lon="15.069504370375764"><ele>1473.6</ele><time>2026-04-19T07:14:30Z</time></trkpt><trkpt lat="37.80814104647385" lon="15.06944317017892"><ele>1475.4</ele><time>2026-04-19T07:14:31Z</time></trkpt><trkpt lat="37.80806918828363" lon="15.069404867701106"><ele>1477.2</ele><time>2026-04-19T07:14:32Z</time></trkpt><trkpt lat="37.80798240751951" lon="15.069309196350416"><ele>1479.0</ele><time>2026-04-19T07:14:33Z</time></trkpt><trkpt lat="37.80786358362123" lon="15.069213949634447"><ele>1478.0</ele><time>2026-04-19T07:14:34Z</time></trkpt><trkpt lat="37.807751108064366" lon="15.0690993178018"><ele>1477.0</ele><time>2026-04-19T07:14:35Z</time></trkpt><trkpt lat="37.807659066160255" lon="15.068965966991325"><ele>1476.0</ele><time>2026-04-19T07:14:36Z</time></trkpt><trkpt lat="37.807611911013424" lon="15.068769974321985"><ele>1475.0</ele><time>2026-04-19T07:14:37Z</time></trkpt><trkpt lat="37.807539658540314" lon="15.0685470017555"><ele>1475.0</ele><time>2026-04-19T07:14:38Z</time></trkpt><trkpt lat="37.80746226289171" lon="15.06831444482137"><ele>1475.0</ele><time>2026-04-19T07:14:39Z</time></trkpt><trkpt lat="37.807388486198136" lon="15.068070723993953"><ele>1475.0</ele><time>2026-04-19T07:14:40Z</time></trkpt><trkpt lat="37.80731559217797" lon="15.06784439138195"><ele>1478.6666666666667</ele><time>2026-04-19T07:14:41Z</time></trkpt><trkpt lat="37.80724001601958" lon="15.067632615273546"><ele>1482.3333333333333</ele><time>2026-04-19T07:14:42Z</time></trkpt><trkpt lat="37.8071248336805" lon="15.067436837177778"><ele>1486.0</ele><time>2026-04-19T07:14:43Z</time></trkpt><trkpt lat="37.80695817829748" lon="15.067285510811276"><ele>1485.0</ele><time>2026-04-19T07:14:44Z</time></trkpt><trkpt lat="37.80677946990889" lon="15.067149233021164"><ele>1484.0</ele><time>2026-04-19T07:14:45Z</time></trkpt><trkpt lat="37.80661263329788" lon="15.066985014929138"><ele>1483.0</ele><time>2026-04-19T07:14:46Z</time></trkpt><trkpt lat="37.806450568678635" lon="15.066819963495178"><ele>1483.0</ele><time>2026-04-19T07:14:47Z</time></trkpt><trkpt lat="37.806287717067285" lon="15.066657031387289"><ele>1483.0</ele><time>2026-04-19T07:14:48Z</time></trkpt><trkpt lat="37.80613268087228" lon="15.066506218958352"><ele>1483.0</ele><time>2026-04-19T07:14:49Z</time></trkpt><trkpt lat="37.80600067243353" lon="15.066381225099367"><ele>1485.0</ele><time>2026-04-19T07:14:50Z</time></trkpt><trkpt lat="37.80588126101056" lon="15.066240456386017"><ele>1487.0</ele><time>2026-04-19T07:14:51Z</time></trkpt><trkpt lat="37.805748661883655" lon="15.066105607254315"><ele>1489.0</ele><time>2026-04-19T07:14:52Z</time></trkpt><trkpt lat="37.80561661487622" lon="15.065953107710055"><ele>1491.6666666666665</ele><time>2026-04-19T07:14:53Z</time></trkpt><trkpt lat="37.805528278745705" lon="15.065766078863662"><ele>1494.3333333333333</ele><time>2026-04-19T07:14:54Z</time></trkpt><trkpt lat="37.8054641398231" lon="15.06559103148185"><ele>1497.0</ele><time>2026-04-19T07:14:55Z</time></trkpt><trkpt lat="37.805401229042175" lon="15.065440692172759"><ele>1497.0</ele><time>2026-04-19T07:14:56Z</time></trkpt><trkpt lat="37.80531875698652" lon="15.065316161026315"><ele>1497.0</ele><time>2026-04-19T07:14:57Z</time></trkpt><trkpt lat="37.80521143368202" lon="15.065234010125932"><ele>1497.0</ele><time>2026-04-19T07:14:58Z</time></trkpt><trkpt lat="37.80508231723388" lon="15.065208084462549"><ele>1497.0</ele><time>2026-04-19T07:14:59Z</time></trkpt><trkpt lat="37.80492437934998" lon="15.065236094136003"><ele>1496.0</ele><time>2026-04-19T07:15:00Z</time></trkpt><trkpt lat="37.80475726258358" lon="15.065278519997545"><ele>1495.0</ele><time>2026-04-19T07:15:01Z</time></trkpt><trkpt lat="37.80457679150119" lon="15.065321441224807"><ele>1494.0</ele><time>2026-04-19T07:15:02Z</time></trkpt><trkpt lat="37.80437958818486" lon="15.065348440126927"><ele>1494.6666666666667</ele><time>2026-04-19T07:15:03Z</time></trkpt><trkpt lat="37.804180451701164" lon="15.065398677300001"><ele>1495.3333333333335</ele><time>2026-04-19T07:15:04Z</time></trkpt><trkpt lat="37.80398103460029" lon="15.065423931948214"><ele>1496.0</ele><time>2026-04-19T07:15:05Z</time></trkpt><trkpt lat="37.80378415934362" lon="15.06545661956115"><ele>1496.0</ele><time>2026-04-19T07:15:06Z</time></trkpt><trkpt lat="37.803589043317864" lon="15.06550021698696"><ele>1496.0</ele><time>2026-04-19T07:15:07Z</time></trkpt><trkpt lat="37.80338954822243" lon="15.06552346503949"><ele>1496.0</ele><time>2026-04-19T07:15:08Z</time></trkpt><trkpt lat="37.8032062936066" lon="15.065564244209673"><ele>1497.3333333333335</ele><time>2026-04-19T07:15:09Z</time></trkpt><trkpt lat="37.80303737437952" lon="15.065574400317356"><ele>1498.6666666666667</ele><time>2026-04-19T07:15:10Z</time></trkpt><trkpt lat="37.80287559494626" lon="15.065533717726408"><ele>1500.0</ele><time>2026-04-19T07:15:11Z</time></trkpt><trkpt lat="37.80272117015062" lon="15.065444096620777"><ele>1498.3333333333333</ele><time>2026-04-19T07:15:12Z</time></trkpt><trkpt lat="37.802567175165194" lon="15.06531250346703"><ele>1496.6666666666665</ele><time>2026-04-19T07:15:13Z</time></trkpt><trkpt lat="37.80241327473889" lon="15.065222392222529"><ele>1495.0</ele><time>2026-04-19T07:15:14Z</time></trkpt><trkpt lat="37.80222564754221" lon="15.065116718036649"><ele>1495.0</ele><time>2026-04-19T07:15:15Z</time></trkpt><trkpt lat="37.802043469078924" lon="15.065025849211695"><ele>1495.0</ele><time>2026-04-19T07:15:16Z</time></trkpt><trkpt lat="37.80187463482694" lon="15.064954645391646"><ele>1495.0</ele><time>2026-04-19T07:15:17Z</time></trkpt><trkpt lat="37.801721508534676" lon="15.064887180797596"><ele>1495.0</ele><time>2026-04-19T07:15:18Z</time></trkpt><trkpt lat="37.80159286182314" lon="15.064828955043009"><ele>1495.0</ele><time>2026-04-19T07:15:19Z</time></trkpt><trkpt lat="37.80147424333739" lon="15.064811020781125"><ele>1495.0</ele><time>2026-04-19T07:15:20Z</time></trkpt><trkpt lat="37.80136556175852" lon="15.064865089104641"><ele>1495.0</ele><time>2026-04-19T07:15:21Z</time></trkpt><trkpt lat="37.80126106596798" lon="15.06497153554752"><ele>1495.0</ele><time>2026-04-19T07:15:22Z</time></trkpt><trkpt lat="37.80115665753539" lon="15.06513245060195"><ele>1495.0</ele><time>2026-04-19T07:15:23Z</time></trkpt><trkpt lat="37.801046652411024" lon="15.065259112544682"><ele>1495.0</ele><time>2026-04-19T07:15:24Z</time></trkpt><trkpt lat="37.80092556539501" lon="15.06534737500647"><ele>1497.6666666666665</ele><time>2026-04-19T07:15:25Z</time></trkpt><trkpt lat="37.80079598711017" lon="15.065400436228925"><ele>1500.3333333333333</ele><time>2026-04-19T07:15:26Z</time></trkpt><trkpt lat="37.800645753649974" lon="15.065419768932342"><ele>1503.0</ele><time>2026-04-19T07:15:27Z</time></trkpt><trkpt lat="37.80047261691497" lon="15.065395008861548"><ele>1503.0</ele><time>2026-04-19T07:15:28Z</time></trkpt><trkpt lat="37.800296217902826" lon="15.065384535684606"><ele>1503.0</ele><time>2026-04-19T07:15:29Z</time></trkpt><trkpt lat="37.80011173400408" lon="15.065344571942495"><ele>1503.0</ele><time>2026-04-19T07:15:30Z</time></trkpt><trkpt lat="37.799925179641775" lon="15.065269258125051"><ele>1503.3333333333333</ele><time>2026-04-19T07:15:31Z</time></trkpt><trkpt lat="37.79973362069223" lon="15.065198561591766"><ele>1503.6666666666665</ele><time>2026-04-19T07:15:32Z</time></trkpt><trkpt lat="37.79952465550545" lon="15.065141584792434"><ele>1504.0</ele><time>2026-04-19T07:15:33Z</time></trkpt><trkpt lat="37.79932100112279" lon="15.065121688085133"><ele>1504.0</ele><time>2026-04-19T07:15:34Z</time></trkpt><trkpt lat="37.79910491205693" lon="15.0651429738101"><ele>1504.0</ele><time>2026-04-19T07:15:35Z</time></trkpt><trkpt lat="37.79888678590999" lon="15.065197963802156"><ele>1504.0</ele><time>2026-04-19T07:15:36Z</time></trkpt><trkpt lat="37.798665815821984" lon="15.065293549188905"><ele>1507.0</ele><time>2026-04-19T07:15:37Z</time></trkpt><trkpt lat="37.7984532549141" lon="15.065374955396098"><ele>1510.0</ele><time>2026-04-19T07:15:38Z</time></trkpt><trkpt lat="37.798265308832654" lon="15.065442731042104"><ele>1513.0</ele><time>2026-04-19T07:15:39Z</time></trkpt><trkpt lat="37.79809268054801" lon="15.065503926594515"><ele>1513.0</ele><time>2026-04-19T07:15:40Z</time></trkpt><trkpt lat="37.79792887642987" lon="15.065501914504326"><ele>1513.0</ele><time>2026-04-19T07:15:41Z</time></trkpt><trkpt lat="37.79777947444304" lon="15.065451328308926"><ele>1513.0</ele><time>2026-04-19T07:15:42Z</time></trkpt><trkpt lat="37.797641473822175" lon="15.065400202139243"><ele>1513.75</ele><time>2026-04-19T07:15:43Z</time></trkpt><trkpt lat="37.79753191394612" lon="15.065307144653577"><ele>1514.5</ele><time>2026-04-19T07:15:44Z</time></trkpt><trkpt lat="37.79743145768503" lon="15.06518569812552"><ele>1515.25</ele><time>2026-04-19T07:15:45Z</time></trkpt><trkpt lat="37.797365255844966" lon="15.065016099817585"><ele>1516.0</ele><time>2026-04-19T07:15:46Z</time></trkpt><trkpt lat="37.7973029306798" lon="15.064839137789173"><ele>1518.0</ele><time>2026-04-19T07:15:47Z</time></trkpt><trkpt lat="37.79723726313309" lon="15.064647658612536"><ele>1520.0</ele><time>2026-04-19T07:15:48Z</time></trkpt><trkpt lat="37.79715914179863" lon="15.064450738246837"><ele>1522.0</ele><time>2026-04-19T07:15:49Z</time></trkpt><trkpt lat="37.7970904886212" lon="15.064245947163993"><ele>1523.3333333333333</ele><time>2026-04-19T07:15:50Z</time></trkpt><trkpt lat="37.7970238607457" lon="15.064047843350012"><ele>1524.6666666666667</ele><time>2026-04-19T07:15:51Z</time></trkpt><trkpt lat="37.796960998067554" lon="15.063857297860086"><ele>1526.0</ele><time>2026-04-19T07:15:52Z</time></trkpt><trkpt lat="37.796904533697415" lon="15.063666835444023"><ele>1526.0</ele><time>2026-04-19T07:15:53Z</time></trkpt><trkpt lat="37.79684785422025" lon="15.063480121298603"><ele>1526.0</ele><time>2026-04-19T07:15:54Z</time></trkpt><trkpt lat="37.79678455398573" lon="15.063307250485966"><ele>1526.0</ele><time>2026-04-19T07:15:55Z</time></trkpt><trkpt lat="37.79673214874718" lon="15.063148308856805"><ele>1526.0</ele><time>2026-04-19T07:15:56Z</time></trkpt><trkpt lat="37.796698393185395" lon="15.062979251495815"><ele>1526.75</ele><time>2026-04-19T07:15:57Z</time></trkpt><trkpt lat="37.79668740748442" lon="15.062800768825555"><ele>1527.5</ele><time>2026-04-19T07:15:58Z</time></trkpt><trkpt lat="37.79670669604564" lon="15.06262121980724"><ele>1528.25</ele><time>2026-04-19T07:15:59Z</time></trkpt><trkpt lat="37.79674363060662" lon="15.062445350147996"><ele>1529.0</ele><time>2026-04-19T07:16:00Z</time></trkpt><trkpt lat="37.79684567591694" lon="15.062287144917091"><ele>1534.0</ele><time>2026-04-19T07:16:01Z</time></trkpt><trkpt lat="37.79693765418703" lon="15.062126531998123"><ele>1539.0</ele><time>2026-04-19T07:16:02Z</time></trkpt><trkpt lat="37.79701033351622" lon="15.06193937331773"><ele>1544.0</ele><time>2026-04-19T07:16:03Z</time></trkpt><trkpt lat="37.79709510388869" lon="15.061752041337101"><ele>1546.6666666666665</ele><time>2026-04-19T07:16:04Z</time></trkpt><trkpt lat="37.79719412149245" lon="15.06156427606617"><ele>1549.3333333333335</ele><time>2026-04-19T07:16:05Z</time></trkpt><trkpt lat="37.797277334559794" lon="15.061382670696512"><ele>1552.0</ele><time>2026-04-19T07:16:06Z</time></trkpt><trkpt lat="37.79735392810887" lon="15.061224753828911"><ele>1552.0</ele><time>2026-04-19T07:16:07Z</time></trkpt><trkpt lat="37.79742719225829" lon="15.061057956412562"><ele>1552.0</ele><time>2026-04-19T07:16:08Z</time></trkpt><trkpt lat="37.79747160173598" lon="15.060871983905896"><ele>1552.0</ele><time>2026-04-19T07:16:09Z</time></trkpt><trkpt lat="37.79751032373676" lon="15.06067737566291"><ele>1556.0</ele><time>2026-04-19T07:16:10Z</time></trkpt><trkpt lat="37.79750429869386" lon="15.060472674885213"><ele>1560.0</ele><time>2026-04-19T07:16:11Z</time></trkpt><trkpt lat="37.79746761725496" lon="15.0602747093788"><ele>1564.0</ele><time>2026-04-19T07:16:12Z</time></trkpt><trkpt lat="37.79740264562846" lon="15.060090922987467"><ele>1568.3333333333335</ele><time>2026-04-19T07:16:13Z</time></trkpt><trkpt lat="37.79731527538963" lon="15.05992111458941"><ele>1572.6666666666665</ele><time>2026-04-19T07:16:14Z</time></trkpt><trkpt lat="37.79719252243527" lon="15.05976869344405"><ele>1577.0</ele><time>2026-04-19T07:16:15Z</time></trkpt><trkpt lat="37.79703159666026" lon="15.059662754752864"><ele>1577.0</ele><time>2026-04-19T07:16:16Z</time></trkpt><trkpt lat="37.796864485500706" lon="15.059569983065744"><ele>1577.0</ele><time>2026-04-19T07:16:17Z</time></trkpt><trkpt lat="37.79668690848782" lon="15.059480102902997"><ele>1577.0</ele><time>2026-04-19T07:16:18Z</time></trkpt><trkpt lat="37.79649569324702" lon="15.059394516249352"><ele>1576.0</ele><time>2026-04-19T07:16:19Z</time></trkpt><trkpt lat="37.79630064710386" lon="15.05928833082227"><ele>1575.0</ele><time>2026-04-19T07:16:20Z</time></trkpt><trkpt lat="37.796106330678406" lon="15.059179428203633"><ele>1574.0</ele><time>2026-04-19T07:16:21Z</time></trkpt><trkpt lat="37.79591965828613" lon="15.05907275357595"><ele>1577.0</ele><time>2026-04-19T07:16:22Z</time></trkpt><trkpt lat="37.79574070962184" lon="15.058975959640716"><ele>1580.0</ele><time>2026-04-19T07:16:23Z</time></trkpt><trkpt lat="37.79556408055662" lon="15.058914281567567"><ele>1583.0</ele><time>2026-04-19T07:16:24Z</time></trkpt><trkpt lat="37.79537750557375" lon="15.058880377253006"><ele>1583.0</ele><time>2026-04-19T07:16:25Z</time></trkpt><trkpt lat="37.795188979987095" lon="15.058860002174676"><ele>1583.0</ele><time>2026-04-19T07:16:26Z</time></trkpt><trkpt lat="37.795009973262175" lon="15.058840149164068"><ele>1583.0</ele><time>2026-04-19T07:16:27Z</time></trkpt><trkpt lat="37.794843613890286" lon="15.05882489818602"><ele>1584.6666666666665</ele><time>2026-04-19T07:16:28Z</time></trkpt><trkpt lat="37.79469333477511" lon="15.05874588763187"><ele>1586.3333333333335</ele><time>2026-04-19T07:16:29Z</time></trkpt><trkpt lat="37.794559247156464" lon="15.058631243205623"><ele>1588.0</ele><time>2026-04-19T07:16:30Z</time></trkpt><trkpt lat="37.79446164855304" lon="15.0584830771566"><ele>1588.0</ele><time>2026-04-19T07:16:31Z</time></trkpt><trkpt lat="37.79438874802122" lon="15.058317428526536"><ele>1588.0</ele><time>2026-04-19T07:16:32Z</time></trkpt><trkpt lat="37.79435205332271" lon="15.05812757908125"><ele>1588.0</ele><time>2026-04-19T07:16:33Z</time></trkpt><trkpt lat="37.79434883357006" lon="15.05793112592923"><ele>1591.3333333333335</ele><time>2026-04-19T07:16:34Z</time></trkpt><trkpt lat="37.794380535726845" lon="15.057746149055266"><ele>1594.6666666666665</ele><time>2026-04-19T07:16:35Z</time></trkpt><trkpt lat="37.79444544870303" lon="15.057565140427718"><ele>1598.0</ele><time>2026-04-19T07:16:36Z</time></trkpt><trkpt lat="37.79454102066158" lon="15.057394564050037"><ele>1600.6666666666665</ele><time>2026-04-19T07:16:37Z</time></trkpt><trkpt lat="37.79465407905741" lon="15.05722888261513"><ele>1603.3333333333335</ele><time>2026-04-19T07:16:38Z</time></trkpt><trkpt lat="37.794754672143796" lon="15.057036783048344"><ele>1606.0</ele><time>2026-04-19T07:16:39Z</time></trkpt><trkpt lat="37.79483494325321" lon="15.056817869629132"><ele>1608.6666666666667</ele><time>2026-04-19T07:16:40Z</time></trkpt><trkpt lat="37.794887825841144" lon="15.056572367582637"><ele>1611.3333333333335</ele><time>2026-04-19T07:16:41Z</time></trkpt><trkpt lat="37.79493532146782" lon="15.05633233454165"><ele>1614.0</ele><time>2026-04-19T07:16:42Z</time></trkpt><trkpt lat="37.79500823760772" lon="15.05610570915362"><ele>1614.0</ele><time>2026-04-19T07:16:43Z</time></trkpt><trkpt lat="37.795111528224716" lon="15.055894105089514"><ele>1614.0</ele><time>2026-04-19T07:16:44Z</time></trkpt><trkpt lat="37.795254114653815" lon="15.055713879669598"><ele>1614.0</ele><time>2026-04-19T07:16:45Z</time></trkpt><trkpt lat="37.79540993414323" lon="15.055551490754844"><ele>1619.0</ele><time>2026-04-19T07:16:46Z</time></trkpt><trkpt lat="37.79555514924337" lon="15.055387445606849"><ele>1624.0</ele><time>2026-04-19T07:16:47Z</time></trkpt><trkpt lat="37.795695286515176" lon="15.05522337966777"><ele>1629.0</ele><time>2026-04-19T07:16:48Z</time></trkpt><trkpt lat="37.795820951418534" lon="15.055049090060372"><ele>1629.6666666666665</ele><time>2026-04-19T07:16:49Z</time></trkpt><trkpt lat="37.795927393978396" lon="15.054849203423222"><ele>1630.3333333333333</ele><time>2026-04-19T07:16:50Z</time></trkpt><trkpt lat="37.796022138245505" lon="15.054636592259666"><ele>1631.0</ele><time>2026-04-19T07:16:51Z</time></trkpt><trkpt lat="37.79611559261759" lon="15.054417442897499"><ele>1631.3333333333333</ele><time>2026-04-19T07:16:52Z</time></trkpt><trkpt lat="37.796205942195094" lon="15.05419479502212"><ele>1631.6666666666665</ele><time>2026-04-19T07:16:53Z</time></trkpt><trkpt lat="37.796295844470755" lon="15.053971192064214"><ele>1632.0</ele><time>2026-04-19T07:16:54Z</time></trkpt><trkpt lat="37.79638344976008" lon="15.053757981171586"><ele>1635.0</ele><time>2026-04-19T07:16:55Z</time></trkpt><trkpt lat="37.79647831404334" lon="15.05356915183723"><ele>1638.0</ele><time>2026-04-19T07:16:56Z</time></trkpt><trkpt lat="37.796558787419784" lon="15.053378502000594"><ele>1641.0</ele><time>2026-04-19T07:16:57Z</time></trkpt><trkpt lat="37.79663378472553" lon="15.053204734034132"><ele>1644.25</ele><time>2026-04-19T07:16:58Z</time></trkpt><trkpt lat="37.79669611225843" lon="15.053043276972337"><ele>1647.5</ele><time>2026-04-19T07:16:59Z</time></trkpt><trkpt lat="37.79679860317819" lon="15.052911214651923"><ele>1650.75</ele><time>2026-04-19T07:17:00Z</time></trkpt><trkpt lat="37.796924627643804" lon="15.052810448331957"><ele>1654.0</ele><time>2026-04-19T07:17:01Z</time></trkpt><trkpt lat="37.797072050658315" lon="15.052758008343181"><ele>1654.75</ele><time>2026-04-19T07:17:02Z</time></trkpt><trkpt lat="37.79721459770898" lon="15.052723936939273"><ele>1655.5</ele><time>2026-04-19T07:17:03Z</time></trkpt><trkpt lat="37.79733588994898" lon="15.052655998674755"><ele>1656.25</ele><time>2026-04-19T07:17:04Z</time></trkpt><trkpt lat="37.79745045942663" lon="15.052568957826583"><ele>1657.0</ele><time>2026-04-19T07:17:05Z</time></trkpt><trkpt lat="37.79755650543157" lon="15.052492400178002"><ele>1658.75</ele><time>2026-04-19T07:17:06Z</time></trkpt><trkpt lat="37.7976776257342" lon="15.05247098270134"><ele>1660.5</ele><time>2026-04-19T07:17:07Z</time></trkpt><trkpt lat="37.79780316788499" lon="15.052517295438104"><ele>1662.25</ele><time>2026-04-19T07:17:08Z</time></trkpt><trkpt lat="37.79792273382735" lon="15.052591602788238"><ele>1664.0</ele><time>2026-04-19T07:17:09Z</time></trkpt><trkpt lat="37.79802607193367" lon="15.05258204324276"><ele>1664.0</ele><time>2026-04-19T07:17:10Z</time></trkpt><trkpt lat="37.798137860695796" lon="15.052519809814934"><ele>1664.0</ele><time>2026-04-19T07:17:11Z</time></trkpt><trkpt lat="37.79825244157422" lon="15.052420984793258"><ele>1664.0</ele><time>2026-04-19T07:17:12Z</time></trkpt><trkpt lat="37.79838357044644" lon="15.052311835616258"><ele>1664.0</ele><time>2026-04-19T07:17:13Z</time></trkpt><trkpt lat="37.79853853218363" lon="15.052240054939233"><ele>1668.6666666666665</ele><time>2026-04-19T07:17:14Z</time></trkpt><trkpt lat="37.79870376256066" lon="15.052171427046593"><ele>1673.3333333333335</ele><time>2026-04-19T07:17:15Z</time></trkpt><trkpt lat="37.79887915628967" lon="15.052099699350821"><ele>1678.0</ele><time>2026-04-19T07:17:16Z</time></trkpt><trkpt lat="37.79905233882224" lon="15.052029269753978"><ele>1678.0</ele><time>2026-04-19T07:17:17Z</time></trkpt><trkpt lat="37.79922099235329" lon="15.051962823409218"><ele>1678.0</ele><time>2026-04-19T07:17:18Z</time></trkpt><trkpt lat="37.799369862673245" lon="15.051902065043967"><ele>1678.0</ele><time>2026-04-19T07:17:19Z</time></trkpt><trkpt lat="37.79949154932237" lon="15.05184806597079"><ele>1678.6000000000001</ele><time>2026-04-19T07:17:20Z</time></trkpt><trkpt lat="37.79959291309303" lon="15.051774128040012"><ele>1679.2</ele><time>2026-04-19T07:17:21Z</time></trkpt><trkpt lat="37.79966071245779" lon="15.051680413094015"><ele>1679.8</ele><time>2026-04-19T07:17:22Z</time></trkpt><trkpt lat="37.799719213533095" lon="15.051575488893505"><ele>1680.4</ele><time>2026-04-19T07:17:23Z</time></trkpt><trkpt lat="37.79973002591015" lon="15.05143838806941"><ele>1681.0</ele><time>2026-04-19T07:17:24Z</time></trkpt><trkpt lat="37.79966779825916" lon="15.051312487340214"><ele>1684.4</ele><time>2026-04-19T07:17:25Z</time></trkpt><trkpt lat="37.79959532749801" lon="15.051209995851599"><ele>1687.8</ele><time>2026-04-19T07:17:26Z</time></trkpt><trkpt lat="37.7995316508657" lon="15.051110247888225"><ele>1691.2</ele><time>2026-04-19T07:17:27Z</time></trkpt><trkpt lat="37.79950631751225" lon="15.051016460240495"><ele>1694.6000000000001</ele><time>2026-04-19T07:17:28Z</time></trkpt><trkpt lat="37.79952592858486" lon="15.050911869801142"><ele>1698.0</ele><time>2026-04-19T07:17:29Z</time></trkpt><trkpt lat="37.79953639298607" lon="15.050778596288998"><ele>1701.5</ele><time>2026-04-19T07:17:30Z</time></trkpt><trkpt lat="37.79953674282771" lon="15.05062425437406"><ele>1705.0</ele><time>2026-04-19T07:17:31Z</time></trkpt><trkpt lat="37.79952184632391" lon="15.050455574885378"><ele>1708.5</ele><time>2026-04-19T07:17:32Z</time></trkpt><trkpt lat="37.79948298287337" lon="15.05028790566778"><ele>1712.0</ele><time>2026-04-19T07:17:33Z</time></trkpt><trkpt lat="37.79944212559381" lon="15.050143538059775"><ele>1712.0</ele><time>2026-04-19T07:17:34Z</time></trkpt><trkpt lat="37.79941006925073" lon="15.05003525430844"><ele>1711.9999999999998</ele><time>2026-04-19T07:17:35Z</time></trkpt><trkpt lat="37.79940186331814" lon="15.049929723119"><ele>1711.9999999999998</ele><time>2026-04-19T07:17:36Z</time></trkpt><trkpt lat="37.79947188445042" lon="15.04984101255304"><ele>1712.0</ele><time>2026-04-19T07:17:37Z</time></trkpt><trkpt lat="37.79953418255122" lon="15.049737290840937"><ele>1712.0</ele><time>2026-04-19T07:17:38Z</time></trkpt><trkpt lat="37.79955726692005" lon="15.049599861947554"><ele>1714.5</ele><time>2026-04-19T07:17:39Z</time></trkpt><trkpt lat="37.79953530604686" lon="15.04944999577869"><ele>1717.0</ele><time>2026-04-19T07:17:40Z</time></trkpt><trkpt lat="37.79951098348299" lon="15.049288583549409"><ele>1719.5</ele><time>2026-04-19T07:17:41Z</time></trkpt><trkpt lat="37.79949003470678" lon="15.049141486272664"><ele>1722.0</ele><time>2026-04-19T07:17:42Z</time></trkpt><trkpt lat="37.79949529312754" lon="15.048993601352587"><ele>1723.6</ele><time>2026-04-19T07:17:43Z</time></trkpt><trkpt lat="37.79954971657466" lon="15.048876478549184"><ele>1725.1999999999998</ele><time>2026-04-19T07:17:44Z</time></trkpt><trkpt lat="37.79965316722275" lon="15.048836645301137"><ele>1726.8</ele><time>2026-04-19T07:17:45Z</time></trkpt><trkpt lat="37.79975261594763" lon="15.048796053968106"><ele>1728.4</ele><time>2026-04-19T07:17:46Z</time></trkpt><trkpt lat="37.79985302503678" lon="15.048727271354739"><ele>1730.0</ele><time>2026-04-19T07:17:47Z</time></trkpt><trkpt lat="37.79992061405004" lon="15.048618040597162"><ele>1730.0</ele><time>2026-04-19T07:17:48Z</time></trkpt><trkpt lat="37.79995960917823" lon="15.048490880050691"><ele>1730.0</ele><time>2026-04-19T07:17:49Z</time></trkpt><trkpt lat="37.79996886622662" lon="15.04837271173583"><ele>1730.0</ele><time>2026-04-19T07:17:50Z</time></trkpt><trkpt lat="37.79995348043257" lon="15.048276609272849"><ele>1730.0</ele><time>2026-04-19T07:17:51Z</time></trkpt><trkpt lat="37.799941440873006" lon="15.04819156304554"><ele>1730.0</ele><time>2026-04-19T07:17:52Z</time></trkpt><trkpt lat="37.79984520777612" lon="15.048131179229374"><ele>1731.8</ele><time>2026-04-19T07:17:53Z</time></trkpt><trkpt lat="37.79976214562711" lon="15.048076852578403"><ele>1733.6</ele><time>2026-04-19T07:17:54Z</time></trkpt><trkpt lat="37.799665850661185" lon="15.048024690548045"><ele>1735.4</ele><time>2026-04-19T07:17:55Z</time></trkpt><trkpt lat="37.799563375425684" lon="15.047964226011057"><ele>1737.2</ele><time>2026-04-19T07:17:56Z</time></trkpt><trkpt lat="37.799475785122006" lon="15.047869601007035"><ele>1739.0</ele><time>2026-04-19T07:17:57Z</time></trkpt><trkpt lat="37.79937780096347" lon="15.047789014546513"><ele>1739.4</ele><time>2026-04-19T07:17:58Z</time></trkpt><trkpt lat="37.799297308793726" lon="15.047717187332085"><ele>1739.8000000000002</ele><time>2026-04-19T07:17:59Z</time></trkpt><trkpt lat="37.79922174274504" lon="15.047643784041252"><ele>1740.1999999999998</ele><time>2026-04-19T07:18:00Z</time></trkpt><trkpt lat="37.79917479136184" lon="15.047574837474356"><ele>1740.6</ele><time>2026-04-19T07:18:01Z</time></trkpt><trkpt lat="37.79917589713556" lon="15.047454895523762"><ele>1741.0</ele><time>2026-04-19T07:18:02Z</time></trkpt><trkpt lat="37.79921274217362" lon="15.047348026632053"><ele>1741.0</ele><time>2026-04-19T07:18:03Z</time></trkpt><trkpt lat="37.79922925363544" lon="15.047233411344747"><ele>1741.0</ele><time>2026-04-19T07:18:04Z</time></trkpt><trkpt lat="37.79921005485467" lon="15.047127834032102"><ele>1741.0</ele><time>2026-04-19T07:18:05Z</time></trkpt><trkpt lat="37.79912820925067" lon="15.047033079623304"><ele>1741.0</ele><time>2026-04-19T07:18:06Z</time></trkpt><trkpt lat="37.799022102857045" lon="15.046975868490298"><ele>1741.0</ele><time>2026-04-19T07:18:07Z</time></trkpt><trkpt lat="37.79890555926039" lon="15.046941090854494"><ele>1741.0</ele><time>2026-04-19T07:18:08Z</time></trkpt><trkpt lat="37.79878491277002" lon="15.04691760378125"><ele>1741.0</ele><time>2026-04-19T07:18:09Z</time></trkpt><trkpt lat="37.798694116138925" lon="15.04684122882994"><ele>1741.0</ele><time>2026-04-19T07:18:10Z</time></trkpt><trkpt lat="37.79866209311271" lon="15.046686369067277"><ele>1741.0</ele><time>2026-04-19T07:18:11Z</time></trkpt><trkpt lat="37.79867396310283" lon="15.046606127421763"><ele>1741.0</ele><time>2026-04-19T07:18:12Z</time></trkpt><trkpt lat="37.79869601358657" lon="15.046483627807518"><ele>1741.8</ele><time>2026-04-19T07:18:13Z</time></trkpt><trkpt lat="37.79874974854418" lon="15.04637771201158"><ele>1742.6</ele><time>2026-04-19T07:18:14Z</time></trkpt><trkpt lat="37.7988251804231" lon="15.046300944110113"><ele>1743.4</ele><time>2026-04-19T07:18:15Z</time></trkpt><trkpt lat="37.79891617994668" lon="15.046235440465557"><ele>1744.2</ele><time>2026-04-19T07:18:16Z</time></trkpt><trkpt lat="37.79899989133784" lon="15.046142914343504"><ele>1745.0</ele><time>2026-04-19T07:18:17Z</time></trkpt><trkpt lat="37.7990572862102" lon="15.046030160357427"><ele>1744.9999999999998</ele><time>2026-04-19T07:18:18Z</time></trkpt><trkpt lat="37.79909792821529" lon="15.045917596745076"><ele>1745.0</ele><time>2026-04-19T07:18:19Z</time></trkpt><trkpt lat="37.79912306867998" lon="15.045806952662371"><ele>1745.0</ele><time>2026-04-19T07:18:20Z</time></trkpt><trkpt lat="37.799114246179045" lon="15.04570720689268"><ele>1745.0</ele><time>2026-04-19T07:18:21Z</time></trkpt><trkpt lat="37.79908777284295" lon="15.04562392356592"><ele>1744.9999999999998</ele><time>2026-04-19T07:18:22Z</time></trkpt><trkpt lat="37.79903498803822" lon="15.045552029317138"><ele>1745.0</ele><time>2026-04-19T07:18:23Z</time></trkpt><trkpt lat="37.798952048819714" lon="15.045505099653298"><ele>1747.6</ele><time>2026-04-19T07:18:24Z</time></trkpt><trkpt lat="37.79887104307126" lon="15.045458813469212"><ele>1750.2</ele><time>2026-04-19T07:18:25Z</time></trkpt><trkpt lat="37.79880396139781" lon="15.045363726144908"><ele>1752.8000000000002</ele><time>2026-04-19T07:18:26Z</time></trkpt><trkpt lat="37.79877796908493" lon="15.045250209406923"><ele>1755.4</ele><time>2026-04-19T07:18:27Z</time></trkpt><trkpt lat="37.79877947474061" lon="15.045089024268865"><ele>1758.0</ele><time>2026-04-19T07:18:28Z</time></trkpt><trkpt lat="37.798762251659426" lon="15.044942122718295"><ele>1759.1666666666667</ele><time>2026-04-19T07:18:29Z</time></trkpt><trkpt lat="37.79874540048277" lon="15.044812023584722"><ele>1760.3333333333335</ele><time>2026-04-19T07:18:30Z</time></trkpt><trkpt lat="37.79872914471704" lon="15.044697940768213"><ele>1761.5</ele><time>2026-04-19T07:18:31Z</time></trkpt><trkpt lat="37.79873455428773" lon="15.044608077228888"><ele>1762.6666666666667</ele><time>2026-04-19T07:18:32Z</time></trkpt><trkpt lat="37.79877049182141" lon="15.044516144615258"><ele>1763.8333333333335</ele><time>2026-04-19T07:18:33Z</time></trkpt><trkpt lat="37.79882419700395" lon="15.044436979180677"><ele>1765.0</ele><time>2026-04-19T07:18:34Z</time></trkpt><trkpt lat="37.79888332220288" lon="15.044369231931945"><ele>1765.0000000000002</ele><time>2026-04-19T07:18:35Z</time></trkpt><trkpt lat="37.79894527046034" lon="15.04431226205169"><ele>1765.0</ele><time>2026-04-19T07:18:36Z</time></trkpt><trkpt lat="37.799011434100464" lon="15.04424927666636"><ele>1765.0</ele><time>2026-04-19T07:18:37Z</time></trkpt><trkpt lat="37.799074701165424" lon="15.04418556787195"><ele>1765.0</ele><time>2026-04-19T07:18:38Z</time></trkpt><trkpt lat="37.79914471340991" lon="15.044127650145972"><ele>1765.0000000000002</ele><time>2026-04-19T07:18:39Z</time></trkpt><trkpt lat="37.7992356586849" lon="15.044049583870605"><ele>1765.0</ele><time>2026-04-19T07:18:40Z</time></trkpt><trkpt lat="37.79929191381182" lon="15.043929970521623"><ele>1766.0</ele><time>2026-04-19T07:18:41Z</time></trkpt><trkpt lat="37.79928626669067" lon="15.043786953802707"><ele>1767.0</ele><time>2026-04-19T07:18:42Z</time></trkpt><trkpt lat="37.79926218473206" lon="15.043655139937515"><ele>1768.0</ele><time>2026-04-19T07:18:43Z</time></trkpt><trkpt lat="37.7991565367964" lon="15.043580207641954"><ele>1769.0</ele><time>2026-04-19T07:18:44Z</time></trkpt><trkpt lat="37.799054830551576" lon="15.04357040268742"><ele>1770.0</ele><time>2026-04-19T07:18:45Z</time></trkpt><trkpt lat="37.79895667920832" lon="15.043560678549257"><ele>1770.0</ele><time>2026-04-19T07:18:46Z</time></trkpt><trkpt lat="37.79885680626648" lon="15.043554617574738"><ele>1770.0</ele><time>2026-04-19T07:18:47Z</time></trkpt><trkpt lat="37.79875952662991" lon="15.043536872630652"><ele>1770.0</ele><time>2026-04-19T07:18:48Z</time></trkpt><trkpt lat="37.798674832415585" lon="15.043478285337857"><ele>1770.0</ele><time>2026-04-19T07:18:49Z</time></trkpt><trkpt lat="37.79860107208208" lon="15.043386626109305"><ele>1770.0</ele><time>2026-04-19T07:18:50Z</time></trkpt><trkpt lat="37.798535392984114" lon="15.043290048065169"><ele>1771.0</ele><time>2026-04-19T07:18:51Z</time></trkpt><trkpt lat="37.79848701323187" lon="15.043214444666308"><ele>1772.0</ele><time>2026-04-19T07:18:52Z</time></trkpt><trkpt lat="37.79844425798055" lon="15.043147630673742"><ele>1773.0</ele><time>2026-04-19T07:18:53Z</time></trkpt><trkpt lat="37.798403029058214" lon="15.04308320188021"><ele>1774.0</ele><time>2026-04-19T07:18:54Z</time></trkpt><trkpt lat="37.79836340585002" lon="15.04302113597875"><ele>1775.0</ele><time>2026-04-19T07:18:55Z</time></trkpt><trkpt lat="37.798322133398116" lon="15.042956088702025"><ele>1776.0</ele><time>2026-04-19T07:18:56Z</time></trkpt><trkpt lat="37.79827700033885" lon="15.042885328020443"><ele>1777.0</ele><time>2026-04-19T07:18:57Z</time></trkpt><trkpt lat="37.79822961096184" lon="15.04281096526311"><ele>1777.0</ele><time>2026-04-19T07:18:58Z</time></trkpt><trkpt lat="37.79817797293414" lon="15.042729935728778"><ele>1776.9999999999998</ele><time>2026-04-19T07:18:59Z</time></trkpt><trkpt lat="37.79812069499131" lon="15.042639506736732"><ele>1776.9999999999998</ele><time>2026-04-19T07:19:00Z</time></trkpt><trkpt lat="37.79805743743831" lon="15.042539566813712"><ele>1777.0</ele><time>2026-04-19T07:19:01Z</time></trkpt><trkpt lat="37.79799457460017" lon="15.042438296813616"><ele>1777.0</ele><time>2026-04-19T07:19:02Z</time></trkpt><trkpt lat="37.79793114508047" lon="15.042334254147287"><ele>1777.0</ele><time>2026-04-19T07:19:03Z</time></trkpt><trkpt lat="37.79786871337515" lon="15.042229006716761"><ele>1776.9999999999998</ele><time>2026-04-19T07:19:04Z</time></trkpt><trkpt lat="37.79779804114231" lon="15.042131068110523"><ele>1776.9999999999998</ele><time>2026-04-19T07:19:05Z</time></trkpt><trkpt lat="37.79774570878209" lon="15.042019144205067"><ele>1777.0</ele><time>2026-04-19T07:19:06Z</time></trkpt><trkpt lat="37.797697938912904" lon="15.041912624008289"><ele>1777.0</ele><time>2026-04-19T07:19:07Z</time></trkpt><trkpt lat="37.79764898075175" lon="15.04181452357476"><ele>1777.0000000000002</ele><time>2026-04-19T07:19:08Z</time></trkpt><trkpt lat="37.7976264911986" lon="15.041712786840826"><ele>1777.0</ele><time>2026-04-19T07:19:09Z</time></trkpt><trkpt lat="37.79757826824195" lon="15.041635041664927"><ele>1777.0</ele><time>2026-04-19T07:19:10Z</time></trkpt><trkpt lat="37.797552413374945" lon="15.041539935832692"><ele>1777.0</ele><time>2026-04-19T07:19:11Z</time></trkpt><trkpt lat="37.79752220971357" lon="15.04144509700869"><ele>1777.0000000000002</ele><time>2026-04-19T07:19:12Z</time></trkpt><trkpt lat="37.79748971845272" lon="15.041353160255408"><ele>1777.0</ele><time>2026-04-19T07:19:13Z</time></trkpt><trkpt lat="37.797459787455125" lon="15.041257187634207"><ele>1777.8</ele><time>2026-04-19T07:19:14Z</time></trkpt><trkpt lat="37.79743692866347" lon="15.041152002662292"><ele>1778.6</ele><time>2026-04-19T07:19:15Z</time></trkpt><trkpt lat="37.79741172836605" lon="15.041042056408003"><ele>1779.3999999999999</ele><time>2026-04-19T07:19:16Z</time></trkpt><trkpt lat="37.79738591381283" lon="15.040926146989987"><ele>1780.1999999999998</ele><time>2026-04-19T07:19:17Z</time></trkpt><trkpt lat="37.797362853281136" lon="15.040806932690128"><ele>1781.0</ele><time>2026-04-19T07:19:18Z</time></trkpt><trkpt lat="37.797344069449466" lon="15.04068370952268"><ele>1782.4</ele><time>2026-04-19T07:19:19Z</time></trkpt><trkpt lat="37.797337835040544" lon="15.040556261768126"><ele>1783.8</ele><time>2026-04-19T07:19:20Z</time></trkpt><trkpt lat="37.79733664491168" lon="15.04042298443692"><ele>1785.2000000000003</ele><time>2026-04-19T07:19:21Z</time></trkpt><trkpt lat="37.79734043854787" lon="15.040293114237555"><ele>1786.6000000000001</ele><time>2026-04-19T07:19:22Z</time></trkpt><trkpt lat="37.797350737680716" lon="15.040157968779383"><ele>1788.0</ele><time>2026-04-19T07:19:23Z</time></trkpt><trkpt lat="37.79736700802251" lon="15.04002351521958"><ele>1789.2</ele><time>2026-04-19T07:19:24Z</time></trkpt><trkpt lat="37.79738816352635" lon="15.039891061953416"><ele>1790.4</ele><time>2026-04-19T07:19:25Z</time></trkpt><trkpt lat="37.79740911548838" lon="15.039757125981087"><ele>1791.6000000000001</ele><time>2026-04-19T07:19:26Z</time></trkpt><trkpt lat="37.79743073365961" lon="15.03962730861452"><ele>1792.8000000000002</ele><time>2026-04-19T07:19:27Z</time></trkpt><trkpt lat="37.79745337083775" lon="15.039501611118496"><ele>1794.0</ele><time>2026-04-19T07:19:28Z</time></trkpt><trkpt lat="37.79747436975348" lon="15.039375797905345"><ele>1794.0</ele><time>2026-04-19T07:19:29Z</time></trkpt><trkpt lat="37.79749589956836" lon="15.03925348907159"><ele>1794.0</ele><time>2026-04-19T07:19:30Z</time></trkpt><trkpt lat="37.79751846966994" lon="15.0391322856345"><ele>1794.0</ele><time>2026-04-19T07:19:31Z</time></trkpt><trkpt lat="37.79754210151561" lon="15.039014203231835"><ele>1794.0</ele><time>2026-04-19T07:19:32Z</time></trkpt><trkpt lat="37.7975682447682" lon="15.038897150991572"><ele>1794.0</ele><time>2026-04-19T07:19:33Z</time></trkpt><trkpt lat="37.79759430433349" lon="15.038779569146406"><ele>1795.8000000000002</ele><time>2026-04-19T07:19:34Z</time></trkpt><trkpt lat="37.797614152306735" lon="15.038661617300994"><ele>1797.6000000000001</ele><time>2026-04-19T07:19:35Z</time></trkpt><trkpt lat="37.79762778765714" lon="15.038542135357929"><ele>1799.4</ele><time>2026-04-19T07:19:36Z</time></trkpt><trkpt lat="37.797636591361204" lon="15.038423539675474"><ele>1801.2</ele><time>2026-04-19T07:19:37Z</time></trkpt><trkpt lat="37.79763693083402" lon="15.038303225772273"><ele>1803.0</ele><time>2026-04-19T07:19:38Z</time></trkpt><trkpt lat="37.79764190748194" lon="15.038175481434742"><ele>1803.2</ele><time>2026-04-19T07:19:39Z</time></trkpt><trkpt lat="37.79762131458378" lon="15.038050878396678"><ele>1803.4</ele><time>2026-04-19T07:19:40Z</time></trkpt><trkpt lat="37.7975718168687" lon="15.03793553904414"><ele>1803.6000000000001</ele><time>2026-04-19T07:19:41Z</time></trkpt><trkpt lat="37.79757006422553" lon="15.037812377703288"><ele>1803.8000000000002</ele><time>2026-04-19T07:19:42Z</time></trkpt><trkpt lat="37.79760476716381" lon="15.037717327156983"><ele>1804.0</ele><time>2026-04-19T07:19:43Z</time></trkpt><trkpt lat="37.797638115377914" lon="15.037640713161343"><ele>1804.0000000000002</ele><time>2026-04-19T07:19:44Z</time></trkpt><trkpt lat="37.79770836557138" lon="15.03752703453063"><ele>1804.0</ele><time>2026-04-19T07:19:46Z</time></trkpt><trkpt lat="37.79781739079503" lon="15.037536323397529"><ele>1804.0</ele><time>2026-04-19T07:19:47Z</time></trkpt><trkpt lat="37.79787356481063" lon="15.03748875066124"><ele>1804.0</ele><time>2026-04-19T07:19:48Z</time></trkpt><trkpt lat="37.79792987626324" lon="15.037436754732076"><ele>1804.0000000000002</ele><time>2026-04-19T07:19:49Z</time></trkpt><trkpt lat="37.79798311796893" lon="15.037371494313295"><ele>1804.0</ele><time>2026-04-19T07:19:50Z</time></trkpt><trkpt lat="37.798038630450144" lon="15.03731926063381"><ele>1804.0000000000002</ele><time>2026-04-19T07:19:51Z</time></trkpt><trkpt lat="37.79813595462867" lon="15.037244708846162"><ele>1804.0</ele><time>2026-04-19T07:19:53Z</time></trkpt><trkpt lat="37.7982117375777" lon="15.037172388194259"><ele>1804.0</ele><time>2026-04-19T07:19:55Z</time></trkpt><trkpt lat="37.798259857001696" lon="15.037113047151252"><ele>1804.0</ele><time>2026-04-19T07:19:57Z</time></trkpt><trkpt lat="37.79829961675341" lon="15.037047634222805"><ele>1804.0000000000002</ele><time>2026-04-19T07:20:00Z</time></trkpt><trkpt lat="37.79824621656375" lon="15.036986717457088"><ele>1804.0</ele><time>2026-04-19T07:21:05Z</time></trkpt><trkpt lat="37.79823914743296" lon="15.037135606029292"><ele>1804.0</ele><time>2026-04-19T07:50:34.999Z</time></trkpt><trkpt lat="37.79815696218154" lon="15.037247984574003"><ele>1804.0</ele><time>2026-04-19T07:50:36.999Z</time></trkpt><trkpt lat="37.79808527630571" lon="15.037301714102785"><ele>1804.0</ele><time>2026-04-19T07:50:37.999Z</time></trkpt><trkpt lat="37.79799973820882" lon="15.037362280886455"><ele>1804.0</ele><time>2026-04-19T07:50:38.999Z</time></trkpt><trkpt lat="37.79791394866114" lon="15.037428815757728"><ele>1804.0</ele><time>2026-04-19T07:50:39.999Z</time></trkpt><trkpt lat="37.7978496171507" lon="15.037491691235482"><ele>1804.0000000000002</ele><time>2026-04-19T07:50:40.999Z</time></trkpt><trkpt lat="37.79776764238366" lon="15.037527249328829"><ele>1804.0</ele><time>2026-04-19T07:50:41.999Z</time></trkpt><trkpt lat="37.79769928403309" lon="15.037613750650769"><ele>1804.0</ele><time>2026-04-19T07:50:42.999Z</time></trkpt><trkpt lat="37.79762118363765" lon="15.037683697777071"><ele>1804.0</ele><time>2026-04-19T07:50:43.999Z</time></trkpt><trkpt lat="37.79757398906091" lon="15.037772546217278"><ele>1804.0000000000002</ele><time>2026-04-19T07:50:44.999Z</time></trkpt><trkpt lat="37.79754914186997" lon="15.037872528732091"><ele>1804.0</ele><time>2026-04-19T07:50:45.999Z</time></trkpt><trkpt lat="37.79754846406831" lon="15.037994388018635"><ele>1804.0</ele><time>2026-04-19T07:50:46.999Z</time></trkpt><trkpt lat="37.7975793290128" lon="15.038138747995914"><ele>1804.0</ele><time>2026-04-19T07:50:47.999Z</time></trkpt><trkpt lat="37.79761236992186" lon="15.038292374215949"><ele>1804.0</ele><time>2026-04-19T07:50:48.999Z</time></trkpt><trkpt lat="37.79761362838997" lon="15.038450029238769"><ele>1804.0</ele><time>2026-04-19T07:50:49.999Z</time></trkpt><trkpt lat="37.79759475164739" lon="15.038592469582692"><ele>1803.8000000000002</ele><time>2026-04-19T07:50:50.999Z</time></trkpt><trkpt lat="37.79757546767298" lon="15.038719909759346"><ele>1803.6000000000001</ele><time>2026-04-19T07:50:51.999Z</time></trkpt><trkpt lat="37.79755676987333" lon="15.038843098695896"><ele>1803.4</ele><time>2026-04-19T07:50:52.999Z</time></trkpt><trkpt lat="37.79754002898411" lon="15.038964094928104"><ele>1803.2</ele><time>2026-04-19T07:50:53.999Z</time></trkpt><trkpt lat="37.79751827696724" lon="15.039093608083046"><ele>1803.0</ele><time>2026-04-19T07:50:54.999Z</time></trkpt><trkpt lat="37.79748479691219" lon="15.039248515798816"><ele>1800.75</ele><time>2026-04-19T07:50:55.999Z</time></trkpt><trkpt lat="37.79744823062178" lon="15.039401197929564"><ele>1798.5</ele><time>2026-04-19T07:50:56.999Z</time></trkpt><trkpt lat="37.79741884979065" lon="15.039544557870341"><ele>1796.25</ele><time>2026-04-19T07:50:57.999Z</time></trkpt><trkpt lat="37.79739453279122" lon="15.039700916221015"><ele>1794.0</ele><time>2026-04-19T07:50:58.999Z</time></trkpt><trkpt lat="37.79736533991079" lon="15.03987171926004"><ele>1792.5</ele><time>2026-04-19T07:50:59.999Z</time></trkpt><trkpt lat="37.79733573355841" lon="15.040048969154713"><ele>1791.0</ele><time>2026-04-19T07:51:00.999Z</time></trkpt><trkpt lat="37.79731400401575" lon="15.04022956880153"><ele>1789.5</ele><time>2026-04-19T07:51:01.999Z</time></trkpt><trkpt lat="37.797298900739754" lon="15.040412765724945"><ele>1788.0</ele><time>2026-04-19T07:51:02.999Z</time></trkpt><trkpt lat="37.79729849009505" lon="15.04059361824219"><ele>1788.0</ele><time>2026-04-19T07:51:04Z</time></trkpt><trkpt lat="37.79731818123263" lon="15.040775422340422"><ele>1788.0</ele><time>2026-04-19T07:51:05Z</time></trkpt><trkpt lat="37.79735260193929" lon="15.040959527740316"><ele>1788.0</ele><time>2026-04-19T07:51:06Z</time></trkpt><trkpt lat="37.79739793578106" lon="15.041142709320379"><ele>1788.0</ele><time>2026-04-19T07:51:07Z</time></trkpt><trkpt lat="37.79744704330481" lon="15.041332978531896"><ele>1787.0</ele><time>2026-04-19T07:51:08Z</time></trkpt><trkpt lat="37.797504815904276" lon="15.041517465209072"><ele>1786.0</ele><time>2026-04-19T07:51:09Z</time></trkpt><trkpt lat="37.797563959753276" lon="15.041692066035358"><ele>1785.0</ele><time>2026-04-19T07:51:10Z</time></trkpt><trkpt lat="37.79762290285908" lon="15.0418469121342"><ele>1784.0</ele><time>2026-04-19T07:51:11Z</time></trkpt><trkpt lat="37.797685732110054" lon="15.041983620595698"><ele>1783.9999999999998</ele><time>2026-04-19T07:51:12Z</time></trkpt><trkpt lat="37.797747238942385" lon="15.042105518341879"><ele>1784.0</ele><time>2026-04-19T07:51:13Z</time></trkpt><trkpt lat="37.79780444989254" lon="15.042212010510205"><ele>1784.0</ele><time>2026-04-19T07:51:14Z</time></trkpt><trkpt lat="37.79785915936715" lon="15.042301723076358"><ele>1784.0</ele><time>2026-04-19T07:51:15Z</time></trkpt><trkpt lat="37.797904028694596" lon="15.0423701596353"><ele>1783.9999999999998</ele><time>2026-04-19T07:51:16Z</time></trkpt><trkpt lat="37.79794985195675" lon="15.042438118060337"><ele>1784.0</ele><time>2026-04-19T07:51:17Z</time></trkpt><trkpt lat="37.797997137048554" lon="15.042512356771136"><ele>1782.8333333333333</ele><time>2026-04-19T07:51:18Z</time></trkpt><trkpt lat="37.79804907601092" lon="15.04260300728618"><ele>1781.6666666666665</ele><time>2026-04-19T07:51:19Z</time></trkpt><trkpt lat="37.79810568330804" lon="15.04269854610753"><ele>1780.5</ele><time>2026-04-19T07:51:20Z</time></trkpt><trkpt lat="37.79815879293242" lon="15.042784844083936"><ele>1779.3333333333335</ele><time>2026-04-19T07:51:21Z</time></trkpt><trkpt lat="37.79820999409342" lon="15.042867305388146"><ele>1778.1666666666667</ele><time>2026-04-19T07:51:22Z</time></trkpt><trkpt lat="37.79826235229877" lon="15.042952267039196"><ele>1777.0</ele><time>2026-04-19T07:51:23Z</time></trkpt><trkpt lat="37.79831662828655" lon="15.043036787496842"><ele>1777.0000000000002</ele><time>2026-04-19T07:51:24Z</time></trkpt><trkpt lat="37.79837244176612" lon="15.043125628633586"><ele>1777.0</ele><time>2026-04-19T07:51:25Z</time></trkpt><trkpt lat="37.79842713622129" lon="15.043213897171047"><ele>1777.0</ele><time>2026-04-19T07:51:26Z</time></trkpt><trkpt lat="37.798481846396214" lon="15.043303777495332"><ele>1777.0</ele><time>2026-04-19T07:51:27Z</time></trkpt><trkpt lat="37.7985374875504" lon="15.043390365174737"><ele>1777.0000000000002</ele><time>2026-04-19T07:51:28Z</time></trkpt><trkpt lat="37.79859684001992" lon="15.04347385500792"><ele>1777.0</ele><time>2026-04-19T07:51:29Z</time></trkpt><trkpt lat="37.79866927513103" lon="15.04353872334879"><ele>1775.8333333333335</ele><time>2026-04-19T07:51:30Z</time></trkpt><trkpt lat="37.798754261455564" lon="15.043580421086606"><ele>1774.6666666666667</ele><time>2026-04-19T07:51:31Z</time></trkpt><trkpt lat="37.798849148887605" lon="15.04359814581959"><ele>1773.5</ele><time>2026-04-19T07:51:32Z</time></trkpt><trkpt lat="37.798941493103925" lon="15.04359925884984"><ele>1772.3333333333335</ele><time>2026-04-19T07:51:33Z</time></trkpt><trkpt lat="37.79902567305471" lon="15.043602212724863"><ele>1771.1666666666667</ele><time>2026-04-19T07:51:34Z</time></trkpt><trkpt lat="37.799103424736764" lon="15.043615434960387"><ele>1770.0</ele><time>2026-04-19T07:51:35Z</time></trkpt><trkpt lat="37.79916968732927" lon="15.043655996477417"><ele>1770.0</ele><time>2026-04-19T07:51:36Z</time></trkpt><trkpt lat="37.79922598127732" lon="15.043714857681849"><ele>1770.0</ele><time>2026-04-19T07:51:37Z</time></trkpt><trkpt lat="37.799258451094076" lon="15.043795399842356"><ele>1770.0</ele><time>2026-04-19T07:51:38Z</time></trkpt><trkpt lat="37.7992606068818" lon="15.043891429668276"><ele>1770.0</ele><time>2026-04-19T07:51:39Z</time></trkpt><trkpt lat="37.79923341110469" lon="15.043982014514192"><ele>1770.0</ele><time>2026-04-19T07:51:40Z</time></trkpt><trkpt lat="37.799181117929706" lon="15.044061156113305"><ele>1770.0</ele><time>2026-04-19T07:51:41Z</time></trkpt><trkpt lat="37.799110582462234" lon="15.04413356405456"><ele>1769.0</ele><time>2026-04-19T07:51:42Z</time></trkpt><trkpt lat="37.79902276483541" lon="15.044207791118115"><ele>1768.0</ele><time>2026-04-19T07:51:43Z</time></trkpt><trkpt lat="37.79894344575419" lon="15.04428099400419"><ele>1767.0</ele><time>2026-04-19T07:51:44Z</time></trkpt><trkpt lat="37.79887823338563" lon="15.04433687606175"><ele>1766.0</ele><time>2026-04-19T07:51:45Z</time></trkpt><trkpt lat="37.79878681102025" lon="15.044419619626813"><ele>1765.0</ele><time>2026-04-19T07:51:47Z</time></trkpt><trkpt lat="37.798727267546475" lon="15.0445371222939"><ele>1765.0</ele><time>2026-04-19T07:51:49Z</time></trkpt><trkpt lat="37.7987315099682" lon="15.044708783357835"><ele>1765.0</ele><time>2026-04-19T07:51:51Z</time></trkpt><trkpt lat="37.79874755801127" lon="15.044815767575942"><ele>1765.0</ele><time>2026-04-19T07:51:52Z</time></trkpt><trkpt lat="37.798745497507" lon="15.044937187228662"><ele>1765.0</ele><time>2026-04-19T07:51:53Z</time></trkpt><trkpt lat="37.798752292289755" lon="15.045063615814179"><ele>1765.0</ele><time>2026-04-19T07:51:54Z</time></trkpt><trkpt lat="37.798765654280906" lon="15.045197481500992"><ele>1763.6</ele><time>2026-04-19T07:51:55Z</time></trkpt><trkpt lat="37.79877783183602" lon="15.045325440908435"><ele>1762.2</ele><time>2026-04-19T07:51:56Z</time></trkpt><trkpt lat="37.798820949138" lon="15.045440244914138"><ele>1760.8000000000002</ele><time>2026-04-19T07:51:57Z</time></trkpt><trkpt lat="37.79889530099165" lon="15.04552211054833"><ele>1759.4</ele><time>2026-04-19T07:51:58Z</time></trkpt><trkpt lat="37.79898731230791" lon="15.045559475607533"><ele>1758.0</ele><time>2026-04-19T07:51:59Z</time></trkpt><trkpt lat="37.799061284591694" lon="15.045597457764465"><ele>1758.0</ele><time>2026-04-19T07:52:00Z</time></trkpt><trkpt lat="37.79910901088353" lon="15.045659138485702"><ele>1758.0</ele><time>2026-04-19T07:52:01Z</time></trkpt><trkpt lat="37.79909990274389" lon="15.045813431748012"><ele>1758.0</ele><time>2026-04-19T07:52:03Z</time></trkpt><trkpt lat="37.79906019765818" lon="15.04588548202589"><ele>1758.0</ele><time>2026-04-19T07:52:04Z</time></trkpt><trkpt lat="37.799018662299645" lon="15.045959212850397"><ele>1758.0</ele><time>2026-04-19T07:52:05Z</time></trkpt><trkpt lat="37.79898680083656" lon="15.046048822721918"><ele>1758.0</ele><time>2026-04-19T07:52:06Z</time></trkpt><trkpt lat="37.79893839292731" lon="15.046131911378131"><ele>1755.4</ele><time>2026-04-19T07:52:07Z</time></trkpt><trkpt lat="37.79887595948823" lon="15.04620778796513"><ele>1752.8000000000002</ele><time>2026-04-19T07:52:08Z</time></trkpt><trkpt lat="37.798795156305154" lon="15.046270400047499"><ele>1750.2</ele><time>2026-04-19T07:52:09Z</time></trkpt><trkpt lat="37.79871338477349" lon="15.046338762811772"><ele>1747.6</ele><time>2026-04-19T07:52:10Z</time></trkpt><trkpt lat="37.798658721488785" lon="15.046454514623113"><ele>1745.0</ele><time>2026-04-19T07:52:11Z</time></trkpt><trkpt lat="37.798629399340854" lon="15.046591951130326"><ele>1744.2</ele><time>2026-04-19T07:52:12Z</time></trkpt><trkpt lat="37.79863350169387" lon="15.046731184365724"><ele>1743.4</ele><time>2026-04-19T07:52:13Z</time></trkpt><trkpt lat="37.79867232074616" lon="15.046859512183211"><ele>1742.6</ele><time>2026-04-19T07:52:14Z</time></trkpt><trkpt lat="37.79875605336042" lon="15.046949935854265"><ele>1741.8</ele><time>2026-04-19T07:52:15Z</time></trkpt><trkpt lat="37.798856627041744" lon="15.046993475163593"><ele>1741.0</ele><time>2026-04-19T07:52:16Z</time></trkpt><trkpt lat="37.79896124684125" lon="15.04700770270414"><ele>1741.0000000000002</ele><time>2026-04-19T07:52:17Z</time></trkpt><trkpt lat="37.7990653191374" lon="15.047042162202349"><ele>1741.0</ele><time>2026-04-19T07:52:18Z</time></trkpt><trkpt lat="37.79914967763678" lon="15.047093498107056"><ele>1741.0</ele><time>2026-04-19T07:52:19Z</time></trkpt><trkpt lat="37.799200607393" lon="15.047166480854344"><ele>1741.0</ele><time>2026-04-19T07:52:20Z</time></trkpt><trkpt lat="37.7992351052391" lon="15.047254652713864"><ele>1741.0000000000002</ele><time>2026-04-19T07:52:21Z</time></trkpt><trkpt lat="37.79922370613756" lon="15.047360988868563"><ele>1741.0</ele><time>2026-04-19T07:52:22Z</time></trkpt><trkpt lat="37.79915149233152" lon="15.04746265573569"><ele>1740.6</ele><time>2026-04-19T07:52:23Z</time></trkpt><trkpt lat="37.79913840541297" lon="15.047579807239778"><ele>1740.1999999999998</ele><time>2026-04-19T07:52:24Z</time></trkpt><trkpt lat="37.79918316505131" lon="15.047682781430805"><ele>1739.8000000000002</ele><time>2026-04-19T07:52:25Z</time></trkpt><trkpt lat="37.7992615833157" lon="15.047762056810093"><ele>1739.4</ele><time>2026-04-19T07:52:26Z</time></trkpt><trkpt lat="37.79934943176144" lon="15.047824938720888"><ele>1739.0</ele><time>2026-04-19T07:52:27Z</time></trkpt><trkpt lat="37.79943586509623" lon="15.047875579207975"><ele>1739.0</ele><time>2026-04-19T07:52:28Z</time></trkpt><trkpt lat="37.799521537625616" lon="15.047951759334229"><ele>1739.0</ele><time>2026-04-19T07:52:29Z</time></trkpt><trkpt lat="37.79960797891017" lon="15.048018373723126"><ele>1739.0</ele><time>2026-04-19T07:52:30Z</time></trkpt><trkpt lat="37.7996855780593" lon="15.048062171595538"><ele>1739.0</ele><time>2026-04-19T07:52:31Z</time></trkpt><trkpt lat="37.79977980883473" lon="15.048116914423842"><ele>1739.0</ele><time>2026-04-19T07:52:32Z</time></trkpt><trkpt lat="37.799848613210806" lon="15.04816108770883"><ele>1738.9999999999998</ele><time>2026-04-19T07:52:33Z</time></trkpt><trkpt lat="37.799905100713815" lon="15.048266352223509"><ele>1739.0</ele><time>2026-04-19T07:52:35Z</time></trkpt><trkpt lat="37.7999061540002" lon="15.048413446292903"><ele>1739.0</ele><time>2026-04-19T07:52:37Z</time></trkpt><trkpt lat="37.79989281502497" lon="15.0484982359188"><ele>1739.0</ele><time>2026-04-19T07:52:38Z</time></trkpt><trkpt lat="37.79987695362691" lon="15.048588780941468"><ele>1738.9999999999998</ele><time>2026-04-19T07:52:39Z</time></trkpt><trkpt lat="37.79983081652451" lon="15.048667962175786"><ele>1739.0</ele><time>2026-04-19T07:52:40Z</time></trkpt><trkpt lat="37.799778224388135" lon="15.048755647947036"><ele>1737.4999999999998</ele><time>2026-04-19T07:52:41Z</time></trkpt><trkpt lat="37.799694665969845" lon="15.048785050269569"><ele>1736.0</ele><time>2026-04-19T07:52:42Z</time></trkpt><trkpt lat="37.79961947857835" lon="15.048823840646682"><ele>1734.5</ele><time>2026-04-19T07:52:43Z</time></trkpt><trkpt lat="37.799554042808886" lon="15.048894461583108"><ele>1733.0</ele><time>2026-04-19T07:52:44Z</time></trkpt><trkpt lat="37.79948192950808" lon="15.04896315875882"><ele>1731.4999999999998</ele><time>2026-04-19T07:52:45Z</time></trkpt><trkpt lat="37.79944807068452" lon="15.049085650892946"><ele>1730.0</ele><time>2026-04-19T07:52:46Z</time></trkpt><trkpt lat="37.79945808403241" lon="15.049224021086651"><ele>1728.4</ele><time>2026-04-19T07:52:47Z</time></trkpt><trkpt lat="37.79948485390589" lon="15.04935615703373"><ele>1726.8</ele><time>2026-04-19T07:52:48Z</time></trkpt><trkpt lat="37.7995169639866" lon="15.04946771447711"><ele>1725.1999999999998</ele><time>2026-04-19T07:52:49Z</time></trkpt><trkpt lat="37.79952715364416" lon="15.04956115951741"><ele>1723.6</ele><time>2026-04-19T07:52:50Z</time></trkpt><trkpt lat="37.79950460499302" lon="15.049668095836147"><ele>1722.0</ele><time>2026-04-19T07:52:51Z</time></trkpt><trkpt lat="37.799445720389706" lon="15.049753340570165"><ele>1722.0</ele><time>2026-04-19T07:52:52Z</time></trkpt><trkpt lat="37.79939892200209" lon="15.049841464046347"><ele>1722.0</ele><time>2026-04-19T07:52:53Z</time></trkpt><trkpt lat="37.79935292023365" lon="15.049932733746065"><ele>1722.0</ele><time>2026-04-19T07:52:54Z</time></trkpt><trkpt lat="37.799346257428596" lon="15.05003690208879"><ele>1722.0</ele><time>2026-04-19T07:52:55Z</time></trkpt><trkpt lat="37.799381159990794" lon="15.050150387412213"><ele>1722.0</ele><time>2026-04-19T07:52:56Z</time></trkpt><trkpt lat="37.799425894282514" lon="15.050258637055947"><ele>1722.0</ele><time>2026-04-19T07:52:57Z</time></trkpt><trkpt lat="37.79945873650871" lon="15.050378780807227"><ele>1719.5</ele><time>2026-04-19T07:52:58Z</time></trkpt><trkpt lat="37.799475290920654" lon="15.050513287598267"><ele>1717.0</ele><time>2026-04-19T07:52:59Z</time></trkpt><trkpt lat="37.79947293116177" lon="15.05065088551116"><ele>1714.5</ele><time>2026-04-19T07:53:00Z</time></trkpt><trkpt lat="37.79948515278813" lon="15.050803790754316"><ele>1712.0</ele><time>2026-04-19T07:53:01Z</time></trkpt><trkpt lat="37.79947286961618" lon="15.050947845446574"><ele>1709.6666666666665</ele><time>2026-04-19T07:53:02Z</time></trkpt><trkpt lat="37.79946957328189" lon="15.051059243004238"><ele>1707.3333333333333</ele><time>2026-04-19T07:53:03Z</time></trkpt><trkpt lat="37.799493877027366" lon="15.051155068772236"><ele>1705.0</ele><time>2026-04-19T07:53:04Z</time></trkpt><trkpt lat="37.79954850586419" lon="15.051232423414513"><ele>1702.6666666666665</ele><time>2026-04-19T07:53:05Z</time></trkpt><trkpt lat="37.799615567572175" lon="15.051292467238737"><ele>1700.3333333333333</ele><time>2026-04-19T07:53:06Z</time></trkpt><trkpt lat="37.79966221653045" lon="15.051361200728358"><ele>1698.0</ele><time>2026-04-19T07:53:07Z</time></trkpt><trkpt lat="37.799709768232255" lon="15.05142940406069"><ele>1698.0</ele><time>2026-04-19T07:53:08Z</time></trkpt><trkpt lat="37.79969254799715" lon="15.051557355899277"><ele>1698.0</ele><time>2026-04-19T07:53:09Z</time></trkpt><trkpt lat="37.799637396751216" lon="15.05167162912682"><ele>1698.0</ele><time>2026-04-19T07:53:10Z</time></trkpt><trkpt lat="37.799559641644095" lon="15.051769077967474"><ele>1698.0</ele><time>2026-04-19T07:53:11Z</time></trkpt><trkpt lat="37.79946042973667" lon="15.051820093678016"><ele>1698.0</ele><time>2026-04-19T07:53:12Z</time></trkpt><trkpt lat="37.79936191492989" lon="15.051889472317196"><ele>1693.0</ele><time>2026-04-19T07:53:13Z</time></trkpt><trkpt lat="37.7992459952512" lon="15.051934056968012"><ele>1688.0</ele><time>2026-04-19T07:53:14Z</time></trkpt><trkpt lat="37.79911824433853" lon="15.05198149281687"><ele>1683.0</ele><time>2026-04-19T07:53:15Z</time></trkpt><trkpt lat="37.79898641841703" lon="15.052023578635529"><ele>1678.0</ele><time>2026-04-19T07:53:16Z</time></trkpt><trkpt lat="37.798846134111514" lon="15.052067288814474"><ele>1678.0</ele><time>2026-04-19T07:53:17Z</time></trkpt><trkpt lat="37.79869712169267" lon="15.052112756451187"><ele>1678.0</ele><time>2026-04-19T07:53:18Z</time></trkpt><trkpt lat="37.798566224884" lon="15.052187167861778"><ele>1678.0</ele><time>2026-04-19T07:53:19Z</time></trkpt><trkpt lat="37.79844513868245" lon="15.052257841737475"><ele>1678.0</ele><time>2026-04-19T07:53:20Z</time></trkpt><trkpt lat="37.798316916656425" lon="15.052319250387203"><ele>1676.75</ele><time>2026-04-19T07:53:21Z</time></trkpt><trkpt lat="37.79820974721178" lon="15.052409070388988"><ele>1675.5</ele><time>2026-04-19T07:53:22Z</time></trkpt><trkpt lat="37.798107159127866" lon="15.052481588419152"><ele>1674.25</ele><time>2026-04-19T07:53:23Z</time></trkpt><trkpt lat="37.797999166594586" lon="15.052536766678696"><ele>1673.0</ele><time>2026-04-19T07:53:24Z</time></trkpt><trkpt lat="37.79789227477679" lon="15.05252610276501"><ele>1672.9999999999998</ele><time>2026-04-19T07:53:25Z</time></trkpt><trkpt lat="37.79781968373929" lon="15.05247296246919"><ele>1673.0</ele><time>2026-04-19T07:53:26Z</time></trkpt><trkpt lat="37.79772971905951" lon="15.05242884006291"><ele>1673.0</ele><time>2026-04-19T07:53:27Z</time></trkpt><trkpt lat="37.79764616538992" lon="15.052407747207056"><ele>1673.0</ele><time>2026-04-19T07:53:28Z</time></trkpt><trkpt lat="37.797557634281134" lon="15.052430531068048"><ele>1672.9999999999998</ele><time>2026-04-19T07:53:29Z</time></trkpt><trkpt lat="37.79747125768839" lon="15.05247182926964"><ele>1673.0</ele><time>2026-04-19T07:53:30Z</time></trkpt><trkpt lat="37.79738471731993" lon="15.052538338202703"><ele>1669.0</ele><time>2026-04-19T07:53:31Z</time></trkpt><trkpt lat="37.79728963145343" lon="15.052605085446222"><ele>1665.0</ele><time>2026-04-19T07:53:32Z</time></trkpt><trkpt lat="37.79718210162626" lon="15.052662924128528"><ele>1661.0</ele><time>2026-04-19T07:53:33Z</time></trkpt><trkpt lat="37.79705609466466" lon="15.052703398560418"><ele>1657.0</ele><time>2026-04-19T07:53:34Z</time></trkpt><trkpt lat="37.79692809518633" lon="15.05275103584902"><ele>1656.25</ele><time>2026-04-19T07:53:35Z</time></trkpt><trkpt lat="37.796813956251995" lon="15.05282458536412"><ele>1655.5</ele><time>2026-04-19T07:53:36Z</time></trkpt><trkpt lat="37.796707781308285" lon="15.052929567177738"><ele>1654.75</ele><time>2026-04-19T07:53:37Z</time></trkpt><trkpt lat="37.79662542827805" lon="15.053078165633362"><ele>1654.0</ele><time>2026-04-19T07:53:38Z</time></trkpt><trkpt lat="37.796554760144666" lon="15.053243409781379"><ele>1649.6666666666667</ele><time>2026-04-19T07:53:39Z</time></trkpt><trkpt lat="37.79648226375259" lon="15.053422602139507"><ele>1645.3333333333335</ele><time>2026-04-19T07:53:40Z</time></trkpt><trkpt lat="37.79641001152802" lon="15.05361013581486"><ele>1641.0</ele><time>2026-04-19T07:53:41Z</time></trkpt><trkpt lat="37.796340398296394" lon="15.053783130641696"><ele>1641.0</ele><time>2026-04-19T07:53:42Z</time></trkpt><trkpt lat="37.796272695772" lon="15.053948147649859"><ele>1641.0</ele><time>2026-04-19T07:53:43Z</time></trkpt><trkpt lat="37.79620790105257" lon="15.054110571713416"><ele>1641.0</ele><time>2026-04-19T07:53:44Z</time></trkpt><trkpt lat="37.796147424622404" lon="15.054264827906627"><ele>1641.0</ele><time>2026-04-19T07:53:45Z</time></trkpt><trkpt lat="37.79608833813941" lon="15.054413977936353"><ele>1638.75</ele><time>2026-04-19T07:53:46Z</time></trkpt><trkpt lat="37.79602893690752" lon="15.054556877942773"><ele>1636.5</ele><time>2026-04-19T07:53:47Z</time></trkpt><trkpt lat="37.795968438629096" lon="15.05469260947832"><ele>1634.25</ele><time>2026-04-19T07:53:48Z</time></trkpt><trkpt lat="37.795896964643234" lon="15.05482549477602"><ele>1632.0</ele><time>2026-04-19T07:53:49Z</time></trkpt><trkpt lat="37.7958169786214" lon="15.054961029036482"><ele>1631.0</ele><time>2026-04-19T07:53:50Z</time></trkpt><trkpt lat="37.795723968963095" lon="15.05510092217234"><ele>1630.0</ele><time>2026-04-19T07:53:51Z</time></trkpt><trkpt lat="37.79561595252058" lon="15.05523837651862"><ele>1629.0</ele><time>2026-04-19T07:53:52Z</time></trkpt><trkpt lat="37.795499174798906" lon="15.05537003658798"><ele>1629.0</ele><time>2026-04-19T07:53:53Z</time></trkpt><trkpt lat="37.795373915312084" lon="15.055498924582922"><ele>1629.0</ele><time>2026-04-19T07:53:54Z</time></trkpt><trkpt lat="37.79524865783155" lon="15.055632520299152"><ele>1629.0</ele><time>2026-04-19T07:53:55Z</time></trkpt><trkpt lat="37.79513356769013" lon="15.05577355397818"><ele>1624.0</ele><time>2026-04-19T07:53:56Z</time></trkpt><trkpt lat="37.79503446970585" lon="15.055923742222584"><ele>1619.0</ele><time>2026-04-19T07:53:57Z</time></trkpt><trkpt lat="37.7949567941587" lon="15.056092209373594"><ele>1614.0</ele><time>2026-04-19T07:53:58Z</time></trkpt><trkpt lat="37.7949004793571" lon="15.056277724172592"><ele>1614.0</ele><time>2026-04-19T07:53:59Z</time></trkpt><trkpt lat="37.794859519449645" lon="15.056473567988496"><ele>1614.0</ele><time>2026-04-19T07:54:00Z</time></trkpt><trkpt lat="37.794827895838885" lon="15.056675751606962"><ele>1614.0</ele><time>2026-04-19T07:54:01Z</time></trkpt><trkpt lat="37.79478357991163" lon="15.05687377933712"><ele>1611.3333333333335</ele><time>2026-04-19T07:54:02Z</time></trkpt><trkpt lat="37.79471227583611" lon="15.057049469531941"><ele>1608.6666666666667</ele><time>2026-04-19T07:54:03Z</time></trkpt><trkpt lat="37.7946123431445" lon="15.057210446900614"><ele>1606.0</ele><time>2026-04-19T07:54:04Z</time></trkpt><trkpt lat="37.79450758177921" lon="15.057364164541161"><ele>1604.3333333333335</ele><time>2026-04-19T07:54:05Z</time></trkpt><trkpt lat="37.79441663612021" lon="15.057528037044767"><ele>1602.6666666666665</ele><time>2026-04-19T07:54:06Z</time></trkpt><trkpt lat="37.79435177688609" lon="15.05769841545365"><ele>1601.0</ele><time>2026-04-19T07:54:07Z</time></trkpt><trkpt lat="37.79431423948258" lon="15.057875915257952"><ele>1601.0</ele><time>2026-04-19T07:54:08Z</time></trkpt><trkpt lat="37.79430715695662" lon="15.058058131076775"><ele>1601.0</ele><time>2026-04-19T07:54:09Z</time></trkpt><trkpt lat="37.79433269135681" lon="15.058236457313694"><ele>1601.0</ele><time>2026-04-19T07:54:10Z</time></trkpt><trkpt lat="37.79438723414568" lon="15.05839961948363"><ele>1601.0</ele><time>2026-04-19T07:54:11Z</time></trkpt><trkpt lat="37.79446067139575" lon="15.058548029411316"><ele>1597.75</ele><time>2026-04-19T07:54:12Z</time></trkpt><trkpt lat="37.79455190149264" lon="15.05867692898237"><ele>1594.5</ele><time>2026-04-19T07:54:13Z</time></trkpt><trkpt lat="37.79466384518997" lon="15.058781630646848"><ele>1591.25</ele><time>2026-04-19T07:54:14Z</time></trkpt><trkpt lat="37.79479107194244" lon="15.05885325958612"><ele>1588.0</ele><time>2026-04-19T07:54:15Z</time></trkpt><trkpt lat="37.794928464107024" lon="15.058881369067116"><ele>1588.0</ele><time>2026-04-19T07:54:16Z</time></trkpt><trkpt lat="37.79506989226857" lon="15.058877089249714"><ele>1588.0</ele><time>2026-04-19T07:54:17Z</time></trkpt><trkpt lat="37.7952132550937" lon="15.05890450815874"><ele>1588.0</ele><time>2026-04-19T07:54:18Z</time></trkpt><trkpt lat="37.79536406492645" lon="15.05890562105118"><ele>1588.0</ele><time>2026-04-19T07:54:19Z</time></trkpt><trkpt lat="37.79551171395058" lon="15.058941621346461"><ele>1586.3333333333335</ele><time>2026-04-19T07:54:20Z</time></trkpt><trkpt lat="37.79565941974611" lon="15.05898822980126"><ele>1584.6666666666665</ele><time>2026-04-19T07:54:21Z</time></trkpt><trkpt lat="37.79580249997662" lon="15.059045339589154"><ele>1583.0</ele><time>2026-04-19T07:54:22Z</time></trkpt><trkpt lat="37.79594103183642" lon="15.059116748205174"><ele>1580.75</ele><time>2026-04-19T07:54:23Z</time></trkpt><trkpt lat="37.79607404560376" lon="15.05918924694757"><ele>1578.5</ele><time>2026-04-19T07:54:24Z</time></trkpt><trkpt lat="37.79620354395209" lon="15.059268181462507"><ele>1576.25</ele><time>2026-04-19T07:54:25Z</time></trkpt><trkpt lat="37.79633118807743" lon="15.05934408250737"><ele>1574.0</ele><time>2026-04-19T07:54:26Z</time></trkpt><trkpt lat="37.79645775839743" lon="15.05941472336347"><ele>1574.0</ele><time>2026-04-19T07:54:27Z</time></trkpt><trkpt lat="37.796585299649415" lon="15.059484041394322"><ele>1574.0</ele><time>2026-04-19T07:54:28Z</time></trkpt><trkpt lat="37.7967106422354" lon="15.059551915173078"><ele>1574.0</ele><time>2026-04-19T07:54:29Z</time></trkpt><trkpt lat="37.79683454320467" lon="15.059619636491982"><ele>1574.0</ele><time>2026-04-19T07:54:30Z</time></trkpt><trkpt lat="37.79696043758741" lon="15.059671917561799"><ele>1574.75</ele><time>2026-04-19T07:54:31Z</time></trkpt><trkpt lat="37.797077691723466" lon="15.059737742691526"><ele>1575.5</ele><time>2026-04-19T07:54:32Z</time></trkpt><trkpt lat="37.79719117924875" lon="15.05983721896389"><ele>1576.25</ele><time>2026-04-19T07:54:33Z</time></trkpt><trkpt lat="37.79729168661973" lon="15.059961572662862"><ele>1577.0</ele><time>2026-04-19T07:54:34Z</time></trkpt><trkpt lat="37.79736761960182" lon="15.060113800273161"><ele>1573.75</ele><time>2026-04-19T07:54:35Z</time></trkpt><trkpt lat="37.79742088775467" lon="15.060283647396979"><ele>1570.5</ele><time>2026-04-19T07:54:36Z</time></trkpt><trkpt lat="37.79745223213463" lon="15.060466359260205"><ele>1567.25</ele><time>2026-04-19T07:54:37Z</time></trkpt><trkpt lat="37.79746379739723" lon="15.060655188520384"><ele>1564.0</ele><time>2026-04-19T07:54:38Z</time></trkpt><trkpt lat="37.79744925258745" lon="15.060843937878216"><ele>1561.0</ele><time>2026-04-19T07:54:39Z</time></trkpt><trkpt lat="37.79740400458436" lon="15.06101874073867"><ele>1558.0</ele><time>2026-04-19T07:54:40Z</time></trkpt><trkpt lat="37.797335163772125" lon="15.06117704485004"><ele>1555.0</ele><time>2026-04-19T07:54:41Z</time></trkpt><trkpt lat="37.79726258322883" lon="15.06131684342064"><ele>1552.0</ele><time>2026-04-19T07:54:42Z</time></trkpt><trkpt lat="37.79720068366777" lon="15.061455938235353"><ele>1552.0000000000002</ele><time>2026-04-19T07:54:43Z</time></trkpt><trkpt lat="37.79715318941842" lon="15.061573751470272"><ele>1552.0</ele><time>2026-04-19T07:54:44Z</time></trkpt><trkpt lat="37.79711559190611" lon="15.061656460614463"><ele>1552.0</ele><time>2026-04-19T07:54:45Z</time></trkpt><trkpt lat="37.797079426440426" lon="15.061737234014526"><ele>1552.0</ele><time>2026-04-19T07:54:46Z</time></trkpt><trkpt lat="37.79704646768486" lon="15.061812089302272"><ele>1552.0000000000002</ele><time>2026-04-19T07:54:47Z</time></trkpt><trkpt lat="37.79701411437937" lon="15.061883763193375"><ele>1552.0</ele><time>2026-04-19T07:54:48Z</time></trkpt><trkpt lat="37.79695865515824" lon="15.062001133188845"><ele>1550.6666666666667</ele><time>2026-04-19T07:54:50Z</time></trkpt><trkpt lat="37.79692162166024" lon="15.062079236215443"><ele>1549.3333333333335</ele><time>2026-04-19T07:54:52Z</time></trkpt><trkpt lat="37.79688234992643" lon="15.062148767397458"><ele>1548.0</ele><time>2026-04-19T07:54:54Z</time></trkpt><trkpt lat="37.796824802857365" lon="15.062253609460221"><ele>1546.6666666666665</ele><time>2026-04-19T07:54:56Z</time></trkpt><trkpt lat="37.796768181247124" lon="15.062350455359521"><ele>1545.3333333333333</ele><time>2026-04-19T07:54:58Z</time></trkpt><trkpt lat="37.79669687905801" lon="15.06244711550564"><ele>1544.0</ele><time>2026-04-19T07:55:00Z</time></trkpt><trkpt lat="37.796632181398444" lon="15.06252436473419"><ele>1541.4999999999998</ele><time>2026-04-19T07:55:02Z</time></trkpt><trkpt lat="37.796569484125" lon="15.062589714378854"><ele>1539.0</ele><time>2026-04-19T07:55:04Z</time></trkpt><trkpt lat="37.79651946591955" lon="15.062661251711447"><ele>1536.5</ele><time>2026-04-19T07:55:06Z</time></trkpt><trkpt lat="37.7965369214922" lon="15.062756151879103"><ele>1534.0</ele><time>2026-04-19T07:55:07Z</time></trkpt><trkpt lat="37.79655389788041" lon="15.062842434914758"><ele>1531.5</ele><time>2026-04-19T07:55:08Z</time></trkpt><trkpt lat="37.796586399446745" lon="15.062939550416333"><ele>1529.0</ele><time>2026-04-19T07:55:09Z</time></trkpt><trkpt lat="37.796622672344164" lon="15.063047735724938"><ele>1529.0</ele><time>2026-04-19T07:55:10Z</time></trkpt><trkpt lat="37.7966627173148" lon="15.06317662805634"><ele>1529.0</ele><time>2026-04-19T07:55:11Z</time></trkpt><trkpt lat="37.79670625638272" lon="15.063299729929735"><ele>1529.0</ele><time>2026-04-19T07:55:12Z</time></trkpt><trkpt lat="37.79674565661275" lon="15.063408140096632"><ele>1529.0</ele><time>2026-04-19T07:55:13Z</time></trkpt><trkpt lat="37.796780568946566" lon="15.06350876662694"><ele>1529.0</ele><time>2026-04-19T07:55:14Z</time></trkpt><trkpt lat="37.79681208558784" lon="15.063606683434694"><ele>1528.5714285714284</ele><time>2026-04-19T07:55:15Z</time></trkpt><trkpt lat="37.79684481048609" lon="15.063703538826235"><ele>1528.142857142857</ele><time>2026-04-19T07:55:16Z</time></trkpt><trkpt lat="37.796876176814955" lon="15.063794100008003"><ele>1527.7142857142858</ele><time>2026-04-19T07:55:17Z</time></trkpt><trkpt lat="37.79690453691718" lon="15.063877075726158"><ele>1527.2857142857142</ele><time>2026-04-19T07:55:18Z</time></trkpt><trkpt lat="37.796932353288646" lon="15.063955249241303"><ele>1526.857142857143</ele><time>2026-04-19T07:55:19Z</time></trkpt><trkpt lat="37.79696263364209" lon="15.064031667706718"><ele>1526.4285714285713</ele><time>2026-04-19T07:55:20Z</time></trkpt><trkpt lat="37.79699455034512" lon="15.064105702394796"><ele>1526.0</ele><time>2026-04-19T07:55:21Z</time></trkpt><trkpt lat="37.79701893065374" lon="15.064180159173349"><ele>1525.1999999999998</ele><time>2026-04-19T07:55:22Z</time></trkpt><trkpt lat="37.79706634338844" lon="15.064318679371768"><ele>1524.3999999999999</ele><time>2026-04-19T07:55:24Z</time></trkpt><trkpt lat="37.79711578817898" lon="15.064439986347683"><ele>1523.6</ele><time>2026-04-19T07:55:26Z</time></trkpt><trkpt lat="37.797146423589616" lon="15.064529312487922"><ele>1522.8</ele><time>2026-04-19T07:55:28Z</time></trkpt><trkpt lat="37.7971670061042" lon="15.064620470342156"><ele>1522.0</ele><time>2026-04-19T07:55:31Z</time></trkpt><trkpt lat="37.79719716095503" lon="15.064715929126935"><ele>1522.0</ele><time>2026-04-19T07:55:59Z</time></trkpt><trkpt lat="37.79723127384035" lon="15.064803586673525"><ele>1522.0</ele><time>2026-04-19T07:56:02Z</time></trkpt><trkpt lat="37.79724389921542" lon="15.06463821446476"><ele>1522.0</ele><time>2026-04-19T07:56:07Z</time></trkpt><trkpt lat="37.7971988992006" lon="15.06457373926055"><ele>1522.0</ele><time>2026-04-19T07:56:08Z</time></trkpt><trkpt lat="37.797167167529665" lon="15.064494349632604"><ele>1522.0</ele><time>2026-04-19T07:56:09Z</time></trkpt><trkpt lat="37.79713616176136" lon="15.06440462577681"><ele>1522.0</ele><time>2026-04-19T07:56:10Z</time></trkpt><trkpt lat="37.79710659442501" lon="15.064302793810873"><ele>1522.0</ele><time>2026-04-19T07:56:11Z</time></trkpt><trkpt lat="37.797076807865444" lon="15.064196097645837"><ele>1522.0</ele><time>2026-04-19T07:56:12Z</time></trkpt><trkpt lat="37.79704277780857" lon="15.064071916996806"><ele>1522.0</ele><time>2026-04-19T07:56:13Z</time></trkpt><trkpt lat="37.797006002294076" lon="15.063932721278292"><ele>1522.0</ele><time>2026-04-19T07:56:14Z</time></trkpt><trkpt lat="37.79696889094556" lon="15.063798891417429"><ele>1522.0</ele><time>2026-04-19T07:56:15Z</time></trkpt><trkpt lat="37.79692253420341" lon="15.063659264289601"><ele>1523.0</ele><time>2026-04-19T07:56:16Z</time></trkpt><trkpt lat="37.79688153722404" lon="15.063508062685125"><ele>1524.0</ele><time>2026-04-19T07:56:17Z</time></trkpt><trkpt lat="37.79683094283027" lon="15.063342259771277"><ele>1525.0</ele><time>2026-04-19T07:56:18Z</time></trkpt><trkpt lat="37.796769102860246" lon="15.063166364269565"><ele>1526.0</ele><time>2026-04-19T07:56:19Z</time></trkpt><trkpt lat="37.796703878470375" lon="15.063013371497945"><ele>1526.75</ele><time>2026-04-19T07:56:20Z</time></trkpt><trkpt lat="37.79663506868253" lon="15.062859884460789"><ele>1527.5</ele><time>2026-04-19T07:56:21Z</time></trkpt><trkpt lat="37.796568394375576" lon="15.062700378684019"><ele>1528.25</ele><time>2026-04-19T07:56:22Z</time></trkpt><trkpt lat="37.79650385682132" lon="15.06253415100255"><ele>1529.0</ele><time>2026-04-19T07:56:23Z</time></trkpt><trkpt lat="37.79642733006844" lon="15.062374945631666"><ele>1532.25</ele><time>2026-04-19T07:56:24Z</time></trkpt><trkpt lat="37.79633524256011" lon="15.062234351525847"><ele>1535.5</ele><time>2026-04-19T07:56:25Z</time></trkpt><trkpt lat="37.7962129220902" lon="15.062126868624084"><ele>1538.75</ele><time>2026-04-19T07:56:26Z</time></trkpt><trkpt lat="37.796077200036024" lon="15.062060560028343"><ele>1542.0</ele><time>2026-04-19T07:56:27Z</time></trkpt><trkpt lat="37.79592685902798" lon="15.062027273396602"><ele>1542.6666666666665</ele><time>2026-04-19T07:56:28Z</time></trkpt><trkpt lat="37.79576895968504" lon="15.062038103737919"><ele>1543.3333333333333</ele><time>2026-04-19T07:56:29Z</time></trkpt><trkpt lat="37.79560696504313" lon="15.06205038623677"><ele>1544.0</ele><time>2026-04-19T07:56:30Z</time></trkpt><trkpt lat="37.795446470295815" lon="15.06208615569541"><ele>1544.0</ele><time>2026-04-19T07:56:31Z</time></trkpt><trkpt lat="37.79528566624616" lon="15.06211955155905"><ele>1544.0</ele><time>2026-04-19T07:56:32Z</time></trkpt><trkpt lat="37.795127387310096" lon="15.062135296001335"><ele>1544.0</ele><time>2026-04-19T07:56:33Z</time></trkpt><trkpt lat="37.7949717443904" lon="15.06209279409551"><ele>1543.6666666666665</ele><time>2026-04-19T07:56:34Z</time></trkpt><trkpt lat="37.79482871325936" lon="15.062024979426575"><ele>1543.3333333333335</ele><time>2026-04-19T07:56:35Z</time></trkpt><trkpt lat="37.794686802614855" lon="15.061946773509407"><ele>1543.0</ele><time>2026-04-19T07:56:36Z</time></trkpt><trkpt lat="37.794537886738475" lon="15.061887677288851"><ele>1543.0</ele><time>2026-04-19T07:56:37Z</time></trkpt><trkpt lat="37.7943745980764" lon="15.061878238900295"><ele>1543.0</ele><time>2026-04-19T07:56:38Z</time></trkpt><trkpt lat="37.794196675766514" lon="15.061900881332662"><ele>1543.0</ele><time>2026-04-19T07:56:39Z</time></trkpt><trkpt lat="37.79401025018627" lon="15.061936431766272"><ele>1547.3333333333335</ele><time>2026-04-19T07:56:40Z</time></trkpt><trkpt lat="37.79379623514529" lon="15.061983838629125"><ele>1551.6666666666665</ele><time>2026-04-19T07:56:41Z</time></trkpt><trkpt lat="37.793572124871886" lon="15.062007815826766"><ele>1556.0</ele><time>2026-04-19T07:56:42Z</time></trkpt><trkpt lat="37.79334452047741" lon="15.062020717145082"><ele>1557.6666666666665</ele><time>2026-04-19T07:56:43Z</time></trkpt><trkpt lat="37.79313237792843" lon="15.062005945311661"><ele>1559.3333333333335</ele><time>2026-04-19T07:56:44Z</time></trkpt><trkpt lat="37.792924574371305" lon="15.061988297735514"><ele>1561.0</ele><time>2026-04-19T07:56:45Z</time></trkpt><trkpt lat="37.792729961795615" lon="15.061978483009844"><ele>1561.6666666666667</ele><time>2026-04-19T07:56:46Z</time></trkpt><trkpt lat="37.79253632261268" lon="15.061978378431032"><ele>1562.3333333333335</ele><time>2026-04-19T07:56:47Z</time></trkpt><trkpt lat="37.79234329516243" lon="15.061993262788045"><ele>1563.0</ele><time>2026-04-19T07:56:48Z</time></trkpt><trkpt lat="37.79216558138209" lon="15.06199093460179"><ele>1563.0</ele><time>2026-04-19T07:56:49Z</time></trkpt><trkpt lat="37.79201790321741" lon="15.061963067299127"><ele>1563.0</ele><time>2026-04-19T07:56:50Z</time></trkpt><trkpt lat="37.79188140922601" lon="15.061907119287707"><ele>1563.0</ele><time>2026-04-19T07:56:51Z</time></trkpt><trkpt lat="37.79174512690723" lon="15.061840416704811"><ele>1563.0</ele><time>2026-04-19T07:56:52.001Z</time></trkpt><trkpt lat="37.79162260872416" lon="15.061731906252069"><ele>1564.0</ele><time>2026-04-19T07:56:53.001Z</time></trkpt><trkpt lat="37.79150341478839" lon="15.061655464547187"><ele>1565.0</ele><time>2026-04-19T07:56:54.001Z</time></trkpt><trkpt lat="37.791388658442706" lon="15.06156744205663"><ele>1566.0</ele><time>2026-04-19T07:56:55.001Z</time></trkpt><trkpt lat="37.791260145518486" lon="15.061486265722564"><ele>1567.0</ele><time>2026-04-19T07:56:56.001Z</time></trkpt><trkpt lat="37.79111249136214" lon="15.061442516794603"><ele>1572.6666666666667</ele><time>2026-04-19T07:56:57.001Z</time></trkpt><trkpt lat="37.790947292849516" lon="15.061433661151932"><ele>1578.3333333333335</ele><time>2026-04-19T07:56:58.001Z</time></trkpt><trkpt lat="37.79077378364048" lon="15.06143581221037"><ele>1584.0</ele><time>2026-04-19T07:56:59.001Z</time></trkpt><trkpt lat="37.790593951573825" lon="15.06142592219038"><ele>1584.0</ele><time>2026-04-19T07:57:00.001Z</time></trkpt><trkpt lat="37.79043673694754" lon="15.061381742781265"><ele>1584.0</ele><time>2026-04-19T07:57:01.001Z</time></trkpt><trkpt lat="37.790278861031766" lon="15.061372823212228"><ele>1584.0</ele><time>2026-04-19T07:57:02.001Z</time></trkpt><trkpt lat="37.790119487334906" lon="15.061417860870062"><ele>1584.3333333333335</ele><time>2026-04-19T07:57:03.001Z</time></trkpt><trkpt lat="37.78996076945111" lon="15.061491431388704"><ele>1584.6666666666667</ele><time>2026-04-19T07:57:04Z</time></trkpt><trkpt lat="37.789799910037566" lon="15.061585341109817"><ele>1585.0</ele><time>2026-04-19T07:57:05Z</time></trkpt><trkpt lat="37.78964084049778" lon="15.061659917298009"><ele>1582.3333333333335</ele><time>2026-04-19T07:57:06Z</time></trkpt><trkpt lat="37.789478727968344" lon="15.061731842412465"><ele>1579.6666666666665</ele><time>2026-04-19T07:57:07Z</time></trkpt><trkpt lat="37.789323741717936" lon="15.061802182409698"><ele>1577.0</ele><time>2026-04-19T07:57:08Z</time></trkpt><trkpt lat="37.78917097424332" lon="15.061870627825742"><ele>1577.0</ele><time>2026-04-19T07:57:09Z</time></trkpt><trkpt lat="37.78902328919015" lon="15.061943126674441"><ele>1577.0</ele><time>2026-04-19T07:57:10Z</time></trkpt><trkpt lat="37.78887302841944" lon="15.06201458331475"><ele>1577.0</ele><time>2026-04-19T07:57:11Z</time></trkpt><trkpt lat="37.78872628562052" lon="15.062086497594716"><ele>1577.0</ele><time>2026-04-19T07:57:12Z</time></trkpt><trkpt lat="37.788580988248015" lon="15.06215980259781"><ele>1577.0</ele><time>2026-04-19T07:57:13Z</time></trkpt><trkpt lat="37.78843809649965" lon="15.062253576793879"><ele>1577.0</ele><time>2026-04-19T07:57:14Z</time></trkpt><trkpt lat="37.78829062792254" lon="15.062348738980827"><ele>1580.3333333333333</ele><time>2026-04-19T07:57:15Z</time></trkpt><trkpt lat="37.78813897051026" lon="15.062444633791344"><ele>1583.6666666666665</ele><time>2026-04-19T07:57:16Z</time></trkpt><trkpt lat="37.7879864693941" lon="15.062547070327334"><ele>1587.0</ele><time>2026-04-19T07:57:17Z</time></trkpt><trkpt lat="37.78783152319247" lon="15.06265269611278"><ele>1587.0</ele><time>2026-04-19T07:57:18Z</time></trkpt><trkpt lat="37.7876771847707" lon="15.062765864315047"><ele>1587.0</ele><time>2026-04-19T07:57:19Z</time></trkpt><trkpt lat="37.78752000625763" lon="15.062876288946267"><ele>1587.0</ele><time>2026-04-19T07:57:20Z</time></trkpt><trkpt lat="37.787362698493475" lon="15.062994307829156"><ele>1591.0</ele><time>2026-04-19T07:57:21Z</time></trkpt><trkpt lat="37.78719835252731" lon="15.06307487165746"><ele>1595.0</ele><time>2026-04-19T07:57:22Z</time></trkpt><trkpt lat="37.7870309272875" lon="15.06310545896362"><ele>1599.0</ele><time>2026-04-19T07:57:23Z</time></trkpt><trkpt lat="37.78685800151874" lon="15.063092902303524"><ele>1602.6666666666665</ele><time>2026-04-19T07:57:24Z</time></trkpt><trkpt lat="37.78666979958484" lon="15.06306030864583"><ele>1606.3333333333333</ele><time>2026-04-19T07:57:25Z</time></trkpt><trkpt lat="37.786492401191566" lon="15.06300323057332"><ele>1610.0</ele><time>2026-04-19T07:57:26Z</time></trkpt><trkpt lat="37.78632105912405" lon="15.06295642859081"><ele>1610.0</ele><time>2026-04-19T07:57:27Z</time></trkpt><trkpt lat="37.78618189043898" lon="15.062885029889555"><ele>1610.0</ele><time>2026-04-19T07:57:28Z</time></trkpt><trkpt lat="37.7860757481728" lon="15.062755408418562"><ele>1610.0</ele><time>2026-04-19T07:57:29Z</time></trkpt><trkpt lat="37.7859765190122" lon="15.06260461422895"><ele>1607.6666666666665</ele><time>2026-04-19T07:57:30Z</time></trkpt><trkpt lat="37.78586748030647" lon="15.062451396810246"><ele>1605.3333333333335</ele><time>2026-04-19T07:57:31Z</time></trkpt><trkpt lat="37.78576813666073" lon="15.062263313984774"><ele>1603.0</ele><time>2026-04-19T07:57:32Z</time></trkpt><trkpt lat="37.785653677727666" lon="15.062084475445984"><ele>1609.6666666666667</ele><time>2026-04-19T07:57:33Z</time></trkpt><trkpt lat="37.785529782784174" lon="15.061907867149491"><ele>1616.3333333333335</ele><time>2026-04-19T07:57:34Z</time></trkpt><trkpt lat="37.785415649676956" lon="15.061726174363338"><ele>1623.0</ele><time>2026-04-19T07:57:35Z</time></trkpt><trkpt lat="37.78530064626898" lon="15.06154104541489"><ele>1621.6666666666665</ele><time>2026-04-19T07:57:36Z</time></trkpt><trkpt lat="37.785192168653175" lon="15.061351259310193"><ele>1620.3333333333333</ele><time>2026-04-19T07:57:37Z</time></trkpt><trkpt lat="37.78506939585678" lon="15.06118452794652"><ele>1619.0</ele><time>2026-04-19T07:57:38Z</time></trkpt><trkpt lat="37.78495963108558" lon="15.061009302643248"><ele>1619.0</ele><time>2026-04-19T07:57:39Z</time></trkpt><trkpt lat="37.784849583165354" lon="15.06082650191975"><ele>1619.0</ele><time>2026-04-19T07:57:40Z</time></trkpt><trkpt lat="37.78473888287947" lon="15.060652943566442"><ele>1619.0</ele><time>2026-04-19T07:57:41Z</time></trkpt><trkpt lat="37.78464012946811" lon="15.06047322507953"><ele>1620.75</ele><time>2026-04-19T07:57:42Z</time></trkpt><trkpt lat="37.78453587479108" lon="15.060316741851143"><ele>1622.5</ele><time>2026-04-19T07:57:43Z</time></trkpt><trkpt lat="37.78444162164415" lon="15.060189046737502"><ele>1624.25</ele><time>2026-04-19T07:57:44Z</time></trkpt><trkpt lat="37.784354112681406" lon="15.060108141366438"><ele>1626.0</ele><time>2026-04-19T07:57:45Z</time></trkpt><trkpt lat="37.78425816790935" lon="15.060072134746116"><ele>1626.25</ele><time>2026-04-19T07:57:46Z</time></trkpt><trkpt lat="37.784155055259845" lon="15.060087711970917"><ele>1626.5</ele><time>2026-04-19T07:57:47Z</time></trkpt><trkpt lat="37.7840435944661" lon="15.060154481072553"><ele>1626.75</ele><time>2026-04-19T07:57:48Z</time></trkpt><trkpt lat="37.78392987977567" lon="15.060244282755063"><ele>1627.0</ele><time>2026-04-19T07:57:49Z</time></trkpt><trkpt lat="37.78379481798648" lon="15.060325204989152"><ele>1627.0</ele><time>2026-04-19T07:57:50Z</time></trkpt><trkpt lat="37.78365085161673" lon="15.06040095110443"><ele>1627.0</ele><time>2026-04-19T07:57:51Z</time></trkpt><trkpt lat="37.783502555116435" lon="15.060456268043797"><ele>1627.0</ele><time>2026-04-19T07:57:52Z</time></trkpt><trkpt lat="37.78334124288541" lon="15.060479541821099"><ele>1629.0</ele><time>2026-04-19T07:57:53Z</time></trkpt><trkpt lat="37.783172285160965" lon="15.060467789602027"><ele>1631.0</ele><time>2026-04-19T07:57:54Z</time></trkpt><trkpt lat="37.78301301322423" lon="15.060431886954314"><ele>1633.0</ele><time>2026-04-19T07:57:55Z</time></trkpt><trkpt lat="37.78285881006468" lon="15.060403039473092"><ele>1633.0</ele><time>2026-04-19T07:57:56Z</time></trkpt><trkpt lat="37.78271173224018" lon="15.06042717540139"><ele>1633.0</ele><time>2026-04-19T07:57:57Z</time></trkpt><trkpt lat="37.78256573111427" lon="15.060503924559708"><ele>1633.0</ele><time>2026-04-19T07:57:58Z</time></trkpt><trkpt lat="37.78242893137567" lon="15.060627521613185"><ele>1633.0</ele><time>2026-04-19T07:57:59Z</time></trkpt><trkpt lat="37.782300708427286" lon="15.060784492354617"><ele>1633.0</ele><time>2026-04-19T07:58:00Z</time></trkpt><trkpt lat="37.78217369121142" lon="15.060983973516954"><ele>1633.0</ele><time>2026-04-19T07:58:01Z</time></trkpt><trkpt lat="37.78203194688558" lon="15.061198483398496"><ele>1633.0</ele><time>2026-04-19T07:58:02Z</time></trkpt><trkpt lat="37.7818593284561" lon="15.061427803361278"><ele>1633.0</ele><time>2026-04-19T07:58:03Z</time></trkpt><trkpt lat="37.78167654601452" lon="15.061678472394936"><ele>1633.0</ele><time>2026-04-19T07:58:04Z</time></trkpt><trkpt lat="37.781488658533775" lon="15.061941281724232"><ele>1633.0</ele><time>2026-04-19T07:58:05Z</time></trkpt><trkpt lat="37.781316356363774" lon="15.062184063653667"><ele>1633.0</ele><time>2026-04-19T07:58:06Z</time></trkpt><trkpt lat="37.78115568038101" lon="15.062414876155255"><ele>1633.0</ele><time>2026-04-19T07:58:07Z</time></trkpt><trkpt lat="37.781001772187075" lon="15.062629188339153"><ele>1636.0</ele><time>2026-04-19T07:58:08Z</time></trkpt><trkpt lat="37.780856743535374" lon="15.062829927957946"><ele>1639.0</ele><time>2026-04-19T07:58:09Z</time></trkpt><trkpt lat="37.780729812194934" lon="15.063020421812652"><ele>1642.0</ele><time>2026-04-19T07:58:10Z</time></trkpt><trkpt lat="37.78062747963283" lon="15.06320892192133"><ele>1640.3333333333335</ele><time>2026-04-19T07:58:11Z</time></trkpt><trkpt lat="37.780540644999675" lon="15.06339534924623"><ele>1638.6666666666665</ele><time>2026-04-19T07:58:12Z</time></trkpt><trkpt lat="37.780460995318556" lon="15.063600208747532"><ele>1637.0</ele><time>2026-04-19T07:58:13Z</time></trkpt><trkpt lat="37.78038483823751" lon="15.063821652686293"><ele>1637.0</ele><time>2026-04-19T07:58:14Z</time></trkpt><trkpt lat="37.78030470885303" lon="15.064051558048424"><ele>1637.0</ele><time>2026-04-19T07:58:15Z</time></trkpt><trkpt lat="37.78021770972052" lon="15.064285908210978"><ele>1637.0</ele><time>2026-04-19T07:58:16Z</time></trkpt><trkpt lat="37.78012996001628" lon="15.064527770400314"><ele>1634.0</ele><time>2026-04-19T07:58:17Z</time></trkpt><trkpt lat="37.78004840630869" lon="15.06476031927195"><ele>1631.0</ele><time>2026-04-19T07:58:18Z</time></trkpt><trkpt lat="37.779970204826256" lon="15.064986514707666"><ele>1628.0</ele><time>2026-04-19T07:58:19Z</time></trkpt><trkpt lat="37.77989099998934" lon="15.065189249014443"><ele>1626.0</ele><time>2026-04-19T07:58:20Z</time></trkpt><trkpt lat="37.779808807066416" lon="15.065363020268379"><ele>1624.0</ele><time>2026-04-19T07:58:21Z</time></trkpt><trkpt lat="37.77969059856336" lon="15.065504483427954"><ele>1622.0</ele><time>2026-04-19T07:58:22Z</time></trkpt><trkpt lat="37.77954419951579" lon="15.065610230326424"><ele>1622.0</ele><time>2026-04-19T07:58:23Z</time></trkpt><trkpt lat="37.77937081784215" lon="15.065670631164876"><ele>1622.0</ele><time>2026-04-19T07:58:24Z</time></trkpt><trkpt lat="37.779175642731154" lon="15.065700756196991"><ele>1622.0</ele><time>2026-04-19T07:58:25Z</time></trkpt><trkpt lat="37.77896843345529" lon="15.065757722821694"><ele>1617.5</ele><time>2026-04-19T07:58:26Z</time></trkpt><trkpt lat="37.77874451909529" lon="15.065834948778285"><ele>1613.0</ele><time>2026-04-19T07:58:27Z</time></trkpt><trkpt lat="37.778500982260745" lon="15.065914870301992"><ele>1609.0</ele><time>2026-04-19T07:58:28Z</time></trkpt><trkpt lat="37.778234611854124" lon="15.065994962991118"><ele>1605.0</ele><time>2026-04-19T07:58:29Z</time></trkpt><trkpt lat="37.7779501992919" lon="15.06607095219882"><ele>1605.5</ele><time>2026-04-19T07:58:30Z</time></trkpt><trkpt lat="37.77766986198641" lon="15.066141737040466"><ele>1606.0</ele><time>2026-04-19T07:58:31Z</time></trkpt><trkpt lat="37.777403745433936" lon="15.06621177695884"><ele>1606.0</ele><time>2026-04-19T07:58:32Z</time></trkpt><trkpt lat="37.77713952804094" lon="15.066267288510973"><ele>1606.0</ele><time>2026-04-19T07:58:33Z</time></trkpt><trkpt lat="37.776884672853996" lon="15.066320977044374"><ele>1606.0</ele><time>2026-04-19T07:58:34Z</time></trkpt><trkpt lat="37.776631135834926" lon="15.066349419256518"><ele>1606.0</ele><time>2026-04-19T07:58:35Z</time></trkpt><trkpt lat="37.776370750272804" lon="15.066337831103366"><ele>1606.0</ele><time>2026-04-19T07:58:36Z</time></trkpt><trkpt lat="37.77611234966671" lon="15.066300693916011"><ele>1606.0</ele><time>2026-04-19T07:58:37Z</time></trkpt><trkpt lat="37.7758585625731" lon="15.066271177371974"><ele>1607.5</ele><time>2026-04-19T07:58:38Z</time></trkpt><trkpt lat="37.775610273373196" lon="15.066250544187417"><ele>1609.0</ele><time>2026-04-19T07:58:39Z</time></trkpt><trkpt lat="37.77536533985618" lon="15.066224622872186"><ele>1609.5</ele><time>2026-04-19T07:58:40Z</time></trkpt><trkpt lat="37.77512903140472" lon="15.066186254074411"><ele>1610.0</ele><time>2026-04-19T07:58:41Z</time></trkpt><trkpt lat="37.77491676436099" lon="15.066142105455215"><ele>1610.0</ele><time>2026-04-19T07:58:42Z</time></trkpt><trkpt lat="37.77474860253983" lon="15.066091069057064"><ele>1610.0</ele><time>2026-04-19T07:58:43Z</time></trkpt><trkpt lat="37.77460400911365" lon="15.066049564487042"><ele>1610.0</ele><time>2026-04-19T07:58:44Z</time></trkpt><trkpt lat="37.77447422506435" lon="15.066015177747001"><ele>1610.0</ele><time>2026-04-19T07:58:45Z</time></trkpt><trkpt lat="37.77435485254349" lon="15.066012931881003"><ele>1610.0</ele><time>2026-04-19T07:58:46Z</time></trkpt><trkpt lat="37.774232825351085" lon="15.066046001817291"><ele>1610.0</ele><time>2026-04-19T07:58:47Z</time></trkpt><trkpt lat="37.77410851940457" lon="15.06612464875398"><ele>1610.0</ele><time>2026-04-19T07:58:48Z</time></trkpt><trkpt lat="37.77398355051712" lon="15.066243426337296"><ele>1608.6666666666665</ele><time>2026-04-19T07:58:49Z</time></trkpt><trkpt lat="37.773849402376264" lon="15.066361742625832"><ele>1607.3333333333335</ele><time>2026-04-19T07:58:50Z</time></trkpt><trkpt lat="37.77370357025136" lon="15.066475258033437"><ele>1606.0</ele><time>2026-04-19T07:58:51Z</time></trkpt><trkpt lat="37.773548741446554" lon="15.066581283724135"><ele>1602.3333333333335</ele><time>2026-04-19T07:58:52Z</time></trkpt><trkpt lat="37.773392297394516" lon="15.066697832183532"><ele>1598.6666666666665</ele><time>2026-04-19T07:58:53Z</time></trkpt><trkpt lat="37.77323972431077" lon="15.066831998929613"><ele>1595.0</ele><time>2026-04-19T07:58:54Z</time></trkpt><trkpt lat="37.77310095615292" lon="15.066995457779674"><ele>1595.0</ele><time>2026-04-19T07:58:55Z</time></trkpt><trkpt lat="37.772989405581214" lon="15.06718850343208"><ele>1595.0</ele><time>2026-04-19T07:58:56Z</time></trkpt><trkpt lat="37.77290047812057" lon="15.067410433496777"><ele>1595.0</ele><time>2026-04-19T07:58:57Z</time></trkpt><trkpt lat="37.77283636792689" lon="15.067656287569697"><ele>1591.3333333333333</ele><time>2026-04-19T07:58:58Z</time></trkpt><trkpt lat="37.77278615456611" lon="15.067923580727767"><ele>1587.6666666666665</ele><time>2026-04-19T07:58:59Z</time></trkpt><trkpt lat="37.772734828628685" lon="15.068197059609131"><ele>1584.0</ele><time>2026-04-19T07:59:00Z</time></trkpt><trkpt lat="37.772683259465275" lon="15.068459466124141"><ele>1584.0</ele><time>2026-04-19T07:59:01Z</time></trkpt><trkpt lat="37.77262407533815" lon="15.068711941992392"><ele>1584.0</ele><time>2026-04-19T07:59:02Z</time></trkpt><trkpt lat="37.77255095171273" lon="15.06895801317683"><ele>1584.0</ele><time>2026-04-19T07:59:03Z</time></trkpt><trkpt lat="37.77244979628409" lon="15.069184465339267"><ele>1581.0</ele><time>2026-04-19T07:59:04Z</time></trkpt><trkpt lat="37.77231102815237" lon="15.069384432426585"><ele>1578.0</ele><time>2026-04-19T07:59:05Z</time></trkpt><trkpt lat="37.772142507146796" lon="15.06955522087392"><ele>1575.0</ele><time>2026-04-19T07:59:06Z</time></trkpt><trkpt lat="37.77196016264002" lon="15.069701694798313"><ele>1576.5</ele><time>2026-04-19T07:59:07Z</time></trkpt><trkpt lat="37.77177253644389" lon="15.069853905988559"><ele>1578.0</ele><time>2026-04-19T07:59:08Z</time></trkpt><trkpt lat="37.77158847850062" lon="15.070023175509778"><ele>1572.0</ele><time>2026-04-19T07:59:09Z</time></trkpt><trkpt lat="37.77139787709977" lon="15.070194784133383"><ele>1566.0</ele><time>2026-04-19T07:59:10Z</time></trkpt><trkpt lat="37.771204489056736" lon="15.07036686879659"><ele>1568.5</ele><time>2026-04-19T07:59:11Z</time></trkpt><trkpt lat="37.77100689440309" lon="15.07054295020405"><ele>1571.0</ele><time>2026-04-19T07:59:12Z</time></trkpt><trkpt lat="37.770807402761086" lon="15.07072290396639"><ele>1567.0</ele><time>2026-04-19T07:59:13Z</time></trkpt><trkpt lat="37.770609279455364" lon="15.07089802881462"><ele>1563.0</ele><time>2026-04-19T07:59:14Z</time></trkpt><trkpt lat="37.77041789255633" lon="15.071064941034832"><ele>1563.0</ele><time>2026-04-19T07:59:15Z</time></trkpt><trkpt lat="37.77023250080291" lon="15.071227883128914"><ele>1563.0</ele><time>2026-04-19T07:59:16Z</time></trkpt><trkpt lat="37.77005254189162" lon="15.071384350116912"><ele>1563.0</ele><time>2026-04-19T07:59:17Z</time></trkpt><trkpt lat="37.76990848736683" lon="15.07150911510043"><ele>1561.0</ele><time>2026-04-19T07:59:18Z</time></trkpt><trkpt lat="37.76978713158977" lon="15.071616944276403"><ele>1559.0</ele><time>2026-04-19T07:59:19Z</time></trkpt><trkpt lat="37.76967685660056" lon="15.071754210229006"><ele>1557.0</ele><time>2026-04-19T07:59:20Z</time></trkpt><trkpt lat="37.76960784761042" lon="15.0719347523826"><ele>1557.0</ele><time>2026-04-19T07:59:21Z</time></trkpt><trkpt lat="37.769589294402124" lon="15.072136188492397"><ele>1557.0</ele><time>2026-04-19T07:59:22Z</time></trkpt><trkpt lat="37.7696168061807" lon="15.072339565153827"><ele>1557.0</ele><time>2026-04-19T07:59:23Z</time></trkpt><trkpt lat="37.76967977602121" lon="15.072539414258474"><ele>1555.0</ele><time>2026-04-19T07:59:24Z</time></trkpt><trkpt lat="37.76975888245946" lon="15.07274489117478"><ele>1553.0</ele><time>2026-04-19T07:59:25Z</time></trkpt><trkpt lat="37.76984581326753" lon="15.072958215268816"><ele>1551.0</ele><time>2026-04-19T07:59:26Z</time></trkpt><trkpt lat="37.769925601377146" lon="15.073179064268398"><ele>1548.0</ele><time>2026-04-19T07:59:27Z</time></trkpt><trkpt lat="37.7700176138113" lon="15.073394571057584"><ele>1545.0</ele><time>2026-04-19T07:59:28Z</time></trkpt><trkpt lat="37.77014303792909" lon="15.073587988441597"><ele>1542.0</ele><time>2026-04-19T07:59:29Z</time></trkpt><trkpt lat="37.770298580790254" lon="15.073736222736912"><ele>1541.0</ele><time>2026-04-19T07:59:30Z</time></trkpt><trkpt lat="37.77046826121107" lon="15.073826939734868"><ele>1540.0</ele><time>2026-04-19T07:59:31Z</time></trkpt><trkpt lat="37.77064198282264" lon="15.073881066134303"><ele>1539.0</ele><time>2026-04-19T07:59:32Z</time></trkpt><trkpt lat="37.77082368115104" lon="15.07392183021652"><ele>1539.0</ele><time>2026-04-19T07:59:33Z</time></trkpt><trkpt lat="37.77100638068959" lon="15.073956566024634"><ele>1539.0</ele><time>2026-04-19T07:59:34Z</time></trkpt><trkpt lat="37.7711803556903" lon="15.07400039032219"><ele>1539.0</ele><time>2026-04-19T07:59:35Z</time></trkpt><trkpt lat="37.7713493240117" lon="15.074047000007791"><ele>1536.6666666666667</ele><time>2026-04-19T07:59:36Z</time></trkpt><trkpt lat="37.771505490194926" lon="15.074116694761013"><ele>1534.3333333333335</ele><time>2026-04-19T07:59:37Z</time></trkpt><trkpt lat="37.77164343659069" lon="15.074223473953897"><ele>1532.0</ele><time>2026-04-19T07:59:38Z</time></trkpt><trkpt lat="37.771759070086645" lon="15.074375617629675"><ele>1532.0</ele><time>2026-04-19T07:59:39Z</time></trkpt><trkpt lat="37.77184284130597" lon="15.07457921361169"><ele>1532.0</ele><time>2026-04-19T07:59:40Z</time></trkpt><trkpt lat="37.77188879087069" lon="15.07481289547709"><ele>1532.0</ele><time>2026-04-19T07:59:41Z</time></trkpt><trkpt lat="37.77191619194284" lon="15.075053176405172"><ele>1531.6666666666667</ele><time>2026-04-19T07:59:42Z</time></trkpt><trkpt lat="37.77194670935948" lon="15.075305909407072"><ele>1531.3333333333333</ele><time>2026-04-19T07:59:43Z</time></trkpt><trkpt lat="37.77201034611685" lon="15.075549198275969"><ele>1531.0</ele><time>2026-04-19T07:59:44Z</time></trkpt><trkpt lat="37.77209380525457" lon="15.075784619674392"><ele>1528.0</ele><time>2026-04-19T07:59:45Z</time></trkpt><trkpt lat="37.77219264232433" lon="15.076012554972364"><ele>1525.0</ele><time>2026-04-19T07:59:46Z</time></trkpt><trkpt lat="37.77230837007633" lon="15.076221414158024"><ele>1522.0</ele><time>2026-04-19T07:59:47Z</time></trkpt><trkpt lat="37.77241660119815" lon="15.076420461146103"><ele>1519.3333333333333</ele><time>2026-04-19T07:59:48Z</time></trkpt><trkpt lat="37.77251242448885" lon="15.076606570188813"><ele>1516.6666666666667</ele><time>2026-04-19T07:59:49Z</time></trkpt><trkpt lat="37.7726244407633" lon="15.076787792096393"><ele>1514.0</ele><time>2026-04-19T07:59:50Z</time></trkpt><trkpt lat="37.772762462696264" lon="15.07690414618809"><ele>1513.6666666666667</ele><time>2026-04-19T07:59:51Z</time></trkpt><trkpt lat="37.772931937181745" lon="15.07697530302089"><ele>1513.3333333333333</ele><time>2026-04-19T07:59:52Z</time></trkpt><trkpt lat="37.773105385486645" lon="15.077011834275298"><ele>1513.0</ele><time>2026-04-19T07:59:53Z</time></trkpt><trkpt lat="37.77327838052442" lon="15.077088138507285"><ele>1513.0</ele><time>2026-04-19T07:59:54Z</time></trkpt><trkpt lat="37.77344133669261" lon="15.077195610085564"><ele>1513.0</ele><time>2026-04-19T07:59:55Z</time></trkpt><trkpt lat="37.77359335068517" lon="15.07733180677553"><ele>1513.0</ele><time>2026-04-19T07:59:56Z</time></trkpt><trkpt lat="37.773718588983634" lon="15.07752535987454"><ele>1510.3333333333333</ele><time>2026-04-19T07:59:57Z</time></trkpt><trkpt lat="37.77381238245896" lon="15.077727284886135"><ele>1507.6666666666667</ele><time>2026-04-19T07:59:58Z</time></trkpt><trkpt lat="37.773864101772546" lon="15.077898250832842"><ele>1505.0</ele><time>2026-04-19T07:59:59Z</time></trkpt><trkpt lat="37.773874319497224" lon="15.07806117724102"><ele>1505.0</ele><time>2026-04-19T08:00:00Z</time></trkpt><trkpt lat="37.773839064937626" lon="15.078213767361902"><ele>1505.0</ele><time>2026-04-19T08:00:01Z</time></trkpt><trkpt lat="37.77376725013744" lon="15.078340063720942"><ele>1505.0</ele><time>2026-04-19T08:00:02Z</time></trkpt><trkpt lat="37.77366967226665" lon="15.078421734050005"><ele>1505.0</ele><time>2026-04-19T08:00:03Z</time></trkpt><trkpt lat="37.77355461374949" lon="15.078494147755189"><ele>1502.6666666666667</ele><time>2026-04-19T08:00:04Z</time></trkpt><trkpt lat="37.77343163513275" lon="15.078574183443763"><ele>1500.3333333333333</ele><time>2026-04-19T08:00:05Z</time></trkpt><trkpt lat="37.77329438678387" lon="15.078658497501126"><ele>1498.0</ele><time>2026-04-19T08:00:06Z</time></trkpt><trkpt lat="37.773150535813016" lon="15.078745361618816"><ele>1498.0</ele><time>2026-04-19T08:00:07Z</time></trkpt><trkpt lat="37.77299141563012" lon="15.0788454987691"><ele>1498.0</ele><time>2026-04-19T08:00:08Z</time></trkpt><trkpt lat="37.77282164082673" lon="15.078952240968363"><ele>1498.0</ele><time>2026-04-19T08:00:09Z</time></trkpt><trkpt lat="37.772647583655264" lon="15.07905506406195"><ele>1496.6666666666665</ele><time>2026-04-19T08:00:10Z</time></trkpt><trkpt lat="37.77246501619852" lon="15.079169563670142"><ele>1495.3333333333333</ele><time>2026-04-19T08:00:11Z</time></trkpt><trkpt lat="37.772273152500304" lon="15.079291245766898"><ele>1494.0</ele><time>2026-04-19T08:00:12Z</time></trkpt><trkpt lat="37.772071217211725" lon="15.079418968137311"><ele>1494.0</ele><time>2026-04-19T08:00:13Z</time></trkpt><trkpt lat="37.77186353035271" lon="15.079551680179108"><ele>1494.0</ele><time>2026-04-19T08:00:14Z</time></trkpt><trkpt lat="37.771644935347794" lon="15.079684106331484"><ele>1495.5</ele><time>2026-04-19T08:00:15Z</time></trkpt><trkpt lat="37.771427927777225" lon="15.079820619027322"><ele>1497.0</ele><time>2026-04-19T08:00:16Z</time></trkpt><trkpt lat="37.77121281075868" lon="15.079958761473215"><ele>1494.0</ele><time>2026-04-19T08:00:17Z</time></trkpt><trkpt lat="37.771015332234526" lon="15.080080084512142"><ele>1491.0</ele><time>2026-04-19T08:00:18Z</time></trkpt><trkpt lat="37.77083586871603" lon="15.08018976410042"><ele>1488.0</ele><time>2026-04-19T08:00:19Z</time></trkpt><trkpt lat="37.77066738947756" lon="15.080295088719543"><ele>1488.0</ele><time>2026-04-19T08:00:20Z</time></trkpt><trkpt lat="37.770514361930196" lon="15.08041059799428"><ele>1488.0</ele><time>2026-04-19T08:00:21Z</time></trkpt><trkpt lat="37.7703739109259" lon="15.08055543249088"><ele>1488.0</ele><time>2026-04-19T08:00:22Z</time></trkpt><trkpt lat="37.770265475592026" lon="15.08073546156615"><ele>1482.0</ele><time>2026-04-19T08:00:23Z</time></trkpt><trkpt lat="37.7701896096155" lon="15.080940512184432"><ele>1476.0</ele><time>2026-04-19T08:00:24Z</time></trkpt><trkpt lat="37.77014560500467" lon="15.081172170865125"><ele>1470.0</ele><time>2026-04-19T08:00:25Z</time></trkpt><trkpt lat="37.770135166944854" lon="15.081416449166724"><ele>1469.3333333333333</ele><time>2026-04-19T08:00:26Z</time></trkpt><trkpt lat="37.77015994099945" lon="15.081665341863271"><ele>1468.6666666666665</ele><time>2026-04-19T08:00:27Z</time></trkpt><trkpt lat="37.77022405432127" lon="15.081901259519144"><ele>1468.0</ele><time>2026-04-19T08:00:28Z</time></trkpt><trkpt lat="37.77031682008359" lon="15.082102051566286"><ele>1468.0</ele><time>2026-04-19T08:00:29Z</time></trkpt><trkpt lat="37.7704404106425" lon="15.082274870179472"><ele>1468.0</ele><time>2026-04-19T08:00:30Z</time></trkpt><trkpt lat="37.770587860990545" lon="15.082425912074727"><ele>1468.0</ele><time>2026-04-19T08:00:31Z</time></trkpt><trkpt lat="37.770741287174765" lon="15.082577189688143"><ele>1466.3333333333333</ele><time>2026-04-19T08:00:32Z</time></trkpt><trkpt lat="37.77089369193872" lon="15.082743653484329"><ele>1464.6666666666667</ele><time>2026-04-19T08:00:33Z</time></trkpt><trkpt lat="37.77105240564841" lon="15.082904854391668"><ele>1463.0</ele><time>2026-04-19T08:00:34Z</time></trkpt><trkpt lat="37.7712100230657" lon="15.083073144617542"><ele>1463.0</ele><time>2026-04-19T08:00:35Z</time></trkpt><trkpt lat="37.77135543068841" lon="15.083232618496224"><ele>1463.0</ele><time>2026-04-19T08:00:36Z</time></trkpt><trkpt lat="37.77148939067169" lon="15.083393745133517"><ele>1463.0</ele><time>2026-04-19T08:00:37Z</time></trkpt><trkpt lat="37.771612544976655" lon="15.083568778024794"><ele>1459.3333333333335</ele><time>2026-04-19T08:00:38Z</time></trkpt><trkpt lat="37.77170309813089" lon="15.083780677981617"><ele>1455.6666666666667</ele><time>2026-04-19T08:00:39Z</time></trkpt><trkpt lat="37.77176130152347" lon="15.084019823283517"><ele>1452.0</ele><time>2026-04-19T08:00:40Z</time></trkpt><trkpt lat="37.77179620146023" lon="15.084268979289098"><ele>1452.6666666666667</ele><time>2026-04-19T08:00:41Z</time></trkpt><trkpt lat="37.77182411742248" lon="15.084533313535266"><ele>1453.3333333333335</ele><time>2026-04-19T08:00:42Z</time></trkpt><trkpt lat="37.77187890486249" lon="15.084792612202072"><ele>1454.0</ele><time>2026-04-19T08:00:43Z</time></trkpt><trkpt lat="37.77192174468888" lon="15.085038925943985"><ele>1451.0</ele><time>2026-04-19T08:00:44Z</time></trkpt><trkpt lat="37.77196147255482" lon="15.08528262867093"><ele>1448.0</ele><time>2026-04-19T08:00:45Z</time></trkpt><trkpt lat="37.77202416584169" lon="15.085517163895757"><ele>1445.0</ele><time>2026-04-19T08:00:46Z</time></trkpt><trkpt lat="37.77209376028383" lon="15.085718206854576"><ele>1442.3333333333335</ele><time>2026-04-19T08:00:47Z</time></trkpt><trkpt lat="37.77218618409318" lon="15.085895528820652"><ele>1439.6666666666667</ele><time>2026-04-19T08:00:48Z</time></trkpt><trkpt lat="37.7723193563278" lon="15.08604821297871"><ele>1437.0</ele><time>2026-04-19T08:00:49Z</time></trkpt><trkpt lat="37.77247498760528" lon="15.086188217400911"><ele>1437.0</ele><time>2026-04-19T08:00:50Z</time></trkpt><trkpt lat="37.77264901046776" lon="15.086332465090326"><ele>1437.0</ele><time>2026-04-19T08:00:51Z</time></trkpt><trkpt lat="37.772830738632955" lon="15.086496095773795"><ele>1437.0</ele><time>2026-04-19T08:00:52Z</time></trkpt><trkpt lat="37.7730273218789" lon="15.086663841620044"><ele>1430.5</ele><time>2026-04-19T08:00:53Z</time></trkpt><trkpt lat="37.77323186742151" lon="15.08684424107324"><ele>1424.0</ele><time>2026-04-19T08:00:54Z</time></trkpt><trkpt lat="37.77346358058348" lon="15.087052604215007"><ele>1424.5</ele><time>2026-04-19T08:00:55Z</time></trkpt><trkpt lat="37.77370050277486" lon="15.087269839169267"><ele>1425.0</ele><time>2026-04-19T08:00:56Z</time></trkpt><trkpt lat="37.77392814862272" lon="15.087462276907296"><ele>1421.5</ele><time>2026-04-19T08:00:57Z</time></trkpt><trkpt lat="37.77414713668186" lon="15.087645938019495"><ele>1418.0</ele><time>2026-04-19T08:00:58Z</time></trkpt><trkpt lat="37.77435584956087" lon="15.087824232878623"><ele>1418.0</ele><time>2026-04-19T08:00:59Z</time></trkpt><trkpt lat="37.77455563845001" lon="15.087997523332445"><ele>1418.0</ele><time>2026-04-19T08:01:00Z</time></trkpt><trkpt lat="37.77474162087359" lon="15.08815917436758"><ele>1414.3333333333335</ele><time>2026-04-19T08:01:01Z</time></trkpt><trkpt lat="37.774897922321664" lon="15.08830101715397"><ele>1410.6666666666667</ele><time>2026-04-19T08:01:02Z</time></trkpt><trkpt lat="37.775028100718984" lon="15.088418294836622"><ele>1407.0</ele><time>2026-04-19T08:01:03Z</time></trkpt><trkpt lat="37.7751367675652" lon="15.088510086079497"><ele>1405.0</ele><time>2026-04-19T08:01:04Z</time></trkpt><trkpt lat="37.77524879430454" lon="15.088559539962976"><ele>1403.0</ele><time>2026-04-19T08:01:05Z</time></trkpt><trkpt lat="37.77536303221802" lon="15.08854227921687"><ele>1401.0</ele><time>2026-04-19T08:01:06Z</time></trkpt><trkpt lat="37.775458227437476" lon="15.088468907636125"><ele>1399.0</ele><time>2026-04-19T08:01:07Z</time></trkpt><trkpt lat="37.775527469854566" lon="15.08835294358246"><ele>1402.25</ele><time>2026-04-19T08:01:08Z</time></trkpt><trkpt lat="37.77555522288635" lon="15.088203274598795"><ele>1405.5</ele><time>2026-04-19T08:01:09Z</time></trkpt><trkpt lat="37.775534310041955" lon="15.08804269857756"><ele>1408.75</ele><time>2026-04-19T08:01:10Z</time></trkpt><trkpt lat="37.77552452410048" lon="15.087894584879951"><ele>1412.0</ele><time>2026-04-19T08:01:11Z</time></trkpt><trkpt lat="37.77556065669478" lon="15.087762591280477"><ele>1412.0</ele><time>2026-04-19T08:01:12Z</time></trkpt><trkpt lat="37.775633473123946" lon="15.087677397218963"><ele>1412.0</ele><time>2026-04-19T08:01:13Z</time></trkpt><trkpt lat="37.77573585762655" lon="15.087652114901202"><ele>1412.0</ele><time>2026-04-19T08:01:14Z</time></trkpt><trkpt lat="37.775832614900274" lon="15.08768536529305"><ele>1412.0</ele><time>2026-04-19T08:01:15Z</time></trkpt><trkpt lat="37.77590619851213" lon="15.087774460590982"><ele>1412.0</ele><time>2026-04-19T08:01:16Z</time></trkpt><trkpt lat="37.775948175591964" lon="15.087907671860478"><ele>1412.0</ele><time>2026-04-19T08:01:17Z</time></trkpt><trkpt lat="37.775966251092754" lon="15.08807889544939"><ele>1412.0</ele><time>2026-04-19T08:01:18Z</time></trkpt><trkpt lat="37.77597500963639" lon="15.088280351184748"><ele>1412.0</ele><time>2026-04-19T08:01:19Z</time></trkpt><trkpt lat="37.77600123383195" lon="15.088500848355741"><ele>1407.3333333333335</ele><time>2026-04-19T08:01:20Z</time></trkpt><trkpt lat="37.77604159236255" lon="15.088737143005527"><ele>1402.6666666666667</ele><time>2026-04-19T08:01:21Z</time></trkpt><trkpt lat="37.776081430693104" lon="15.088994522723658"><ele>1398.0</ele><time>2026-04-19T08:01:22Z</time></trkpt><trkpt lat="37.77612014192955" lon="15.089269476704954"><ele>1396.3333333333333</ele><time>2026-04-19T08:01:23Z</time></trkpt><trkpt lat="37.77616170740956" lon="15.089554799212488"><ele>1394.6666666666665</ele><time>2026-04-19T08:01:24Z</time></trkpt><trkpt lat="37.776200585523334" lon="15.08982693893015"><ele>1393.0</ele><time>2026-04-19T08:01:25Z</time></trkpt><trkpt lat="37.77624336452575" lon="15.09009257963419"><ele>1391.6666666666665</ele><time>2026-04-19T08:01:26Z</time></trkpt><trkpt lat="37.77626813965835" lon="15.090341789249345"><ele>1390.3333333333333</ele><time>2026-04-19T08:01:27Z</time></trkpt><trkpt lat="37.77626690337164" lon="15.090592151412572"><ele>1389.0</ele><time>2026-04-19T08:01:28Z</time></trkpt><trkpt lat="37.77622126613964" lon="15.090834816723797"><ele>1386.6666666666667</ele><time>2026-04-19T08:01:29Z</time></trkpt><trkpt lat="37.776127152193446" lon="15.091063579448726"><ele>1384.3333333333335</ele><time>2026-04-19T08:01:30Z</time></trkpt><trkpt lat="37.77600428867161" lon="15.091287101762317"><ele>1382.0</ele><time>2026-04-19T08:01:31Z</time></trkpt><trkpt lat="37.77589882818701" lon="15.09150080298768"><ele>1379.0</ele><time>2026-04-19T08:01:32Z</time></trkpt><trkpt lat="37.77579113291017" lon="15.09169708362637"><ele>1376.0</ele><time>2026-04-19T08:01:33Z</time></trkpt><trkpt lat="37.77566921594116" lon="15.091846684765375"><ele>1373.0</ele><time>2026-04-19T08:01:34Z</time></trkpt><trkpt lat="37.77552179388034" lon="15.091946569431963"><ele>1373.0</ele><time>2026-04-19T08:01:35Z</time></trkpt><trkpt lat="37.77536159735423" lon="15.091981527455465"><ele>1373.0</ele><time>2026-04-19T08:01:36Z</time></trkpt><trkpt lat="37.77520712836832" lon="15.091943751881642"><ele>1373.0</ele><time>2026-04-19T08:01:37Z</time></trkpt><trkpt lat="37.775076381336156" lon="15.091865413245008"><ele>1373.0</ele><time>2026-04-19T08:01:38Z</time></trkpt><trkpt lat="37.77493472474248" lon="15.091769172415407"><ele>1373.0</ele><time>2026-04-19T08:01:39Z</time></trkpt><trkpt lat="37.77477826926435" lon="15.091719646587455"><ele>1373.0</ele><time>2026-04-19T08:01:40Z</time></trkpt><trkpt lat="37.77461037385789" lon="15.091735990346075"><ele>1373.0</ele><time>2026-04-19T08:01:41Z</time></trkpt><trkpt lat="37.77443910802371" lon="15.091807222795284"><ele>1373.0</ele><time>2026-04-19T08:01:42Z</time></trkpt><trkpt lat="37.77427425192604" lon="15.09191395820619"><ele>1373.0</ele><time>2026-04-19T08:01:43Z</time></trkpt><trkpt lat="37.774099561388255" lon="15.092024394099061"><ele>1374.0</ele><time>2026-04-19T08:01:44Z</time></trkpt><trkpt lat="37.773905168474954" lon="15.092105308074203"><ele>1375.0</ele><time>2026-04-19T08:01:45Z</time></trkpt><trkpt lat="37.77369553784084" lon="15.092142569981903"><ele>1376.0</ele><time>2026-04-19T08:01:46Z</time></trkpt><trkpt lat="37.773482696339286" lon="15.09213526433299"><ele>1376.0</ele><time>2026-04-19T08:01:47Z</time></trkpt><trkpt lat="37.77326700934343" lon="15.092082853647744"><ele>1376.0</ele><time>2026-04-19T08:01:48Z</time></trkpt><trkpt lat="37.77305236816807" lon="15.09206442310659"><ele>1376.0</ele><time>2026-04-19T08:01:49Z</time></trkpt><trkpt lat="37.7728404352273" lon="15.092077537453925"><ele>1374.0</ele><time>2026-04-19T08:01:50Z</time></trkpt><trkpt lat="37.77263239724861" lon="15.09209622844318"><ele>1372.0</ele><time>2026-04-19T08:01:51Z</time></trkpt><trkpt lat="37.77242948671487" lon="15.092113611714602"><ele>1370.0</ele><time>2026-04-19T08:01:52Z</time></trkpt><trkpt lat="37.772238083709176" lon="15.092111250088225"><ele>1370.0</ele><time>2026-04-19T08:01:53Z</time></trkpt><trkpt lat="37.77205654685235" lon="15.09205289701588"><ele>1370.0</ele><time>2026-04-19T08:01:54Z</time></trkpt><trkpt lat="37.77187719975647" lon="15.0919563332208"><ele>1370.0</ele><time>2026-04-19T08:01:55Z</time></trkpt><trkpt lat="37.77169668157004" lon="15.091860149635837"><ele>1372.6666666666667</ele><time>2026-04-19T08:01:56Z</time></trkpt><trkpt lat="37.77151217275651" lon="15.091761455406937"><ele>1375.3333333333333</ele><time>2026-04-19T08:01:57Z</time></trkpt><trkpt lat="37.77131194439515" lon="15.091657137086107"><ele>1378.0</ele><time>2026-04-19T08:01:58Z</time></trkpt><trkpt lat="37.771103705088244" lon="15.091586734609036"><ele>1376.3333333333333</ele><time>2026-04-19T08:01:59Z</time></trkpt><trkpt lat="37.770886593112266" lon="15.091534776012898"><ele>1374.6666666666667</ele><time>2026-04-19T08:02:00Z</time></trkpt><trkpt lat="37.770661913839284" lon="15.09149244136972"><ele>1373.0</ele><time>2026-04-19T08:02:01Z</time></trkpt><trkpt lat="37.77043454344122" lon="15.091450418416184"><ele>1373.0</ele><time>2026-04-19T08:02:02Z</time></trkpt><trkpt lat="37.77021653781296" lon="15.091407431043793"><ele>1373.0</ele><time>2026-04-19T08:02:03Z</time></trkpt><trkpt lat="37.77001045432706" lon="15.091367679486728"><ele>1373.0</ele><time>2026-04-19T08:02:04Z</time></trkpt><trkpt lat="37.76983042041436" lon="15.091335124943308"><ele>1370.0</ele><time>2026-04-19T08:02:05Z</time></trkpt><trkpt lat="37.769672469527166" lon="15.091301790692084"><ele>1367.0</ele><time>2026-04-19T08:02:06Z</time></trkpt><trkpt lat="37.76953421943599" lon="15.091241616923536"><ele>1364.0</ele><time>2026-04-19T08:02:07Z</time></trkpt><trkpt lat="37.76942160540082" lon="15.0911274335318"><ele>1365.0</ele><time>2026-04-19T08:02:08Z</time></trkpt><trkpt lat="37.76933525636426" lon="15.090959491594086"><ele>1366.0</ele><time>2026-04-19T08:02:09Z</time></trkpt><trkpt lat="37.769240835562634" lon="15.090802217862175"><ele>1367.0</ele><time>2026-04-19T08:02:10Z</time></trkpt><trkpt lat="37.76911340034942" lon="15.090717931648307"><ele>1367.0</ele><time>2026-04-19T08:02:11Z</time></trkpt><trkpt lat="37.76896682699263" lon="15.090673035923114"><ele>1367.0</ele><time>2026-04-19T08:02:12Z</time></trkpt><trkpt lat="37.76880880129869" lon="15.090663769492503"><ele>1367.0</ele><time>2026-04-19T08:02:13Z</time></trkpt><trkpt lat="37.76865070128482" lon="15.09064287788859"><ele>1359.5</ele><time>2026-04-19T08:02:14Z</time></trkpt><trkpt lat="37.768512902546206" lon="15.090567871448863"><ele>1352.0</ele><time>2026-04-19T08:02:15Z</time></trkpt><trkpt lat="37.768397886593746" lon="15.09044841266723"><ele>1344.5</ele><time>2026-04-19T08:02:16Z</time></trkpt><trkpt lat="37.768324502684656" lon="15.090282596774719"><ele>1337.0</ele><time>2026-04-19T08:02:17Z</time></trkpt><trkpt lat="37.76826944507018" lon="15.090108217506517"><ele>1337.0</ele><time>2026-04-19T08:02:18Z</time></trkpt><trkpt lat="37.76819066156963" lon="15.08995678448179"><ele>1337.0</ele><time>2026-04-19T08:02:19Z</time></trkpt><trkpt lat="37.76807244596406" lon="15.089826672216548"><ele>1337.0</ele><time>2026-04-19T08:02:20Z</time></trkpt><trkpt lat="37.76792657457132" lon="15.089743030375322"><ele>1334.3333333333335</ele><time>2026-04-19T08:02:21Z</time></trkpt><trkpt lat="37.7677773801449" lon="15.089659355132657"><ele>1331.6666666666667</ele><time>2026-04-19T08:02:22Z</time></trkpt><trkpt lat="37.76765259852244" lon="15.089518321953737"><ele>1329.0</ele><time>2026-04-19T08:02:23Z</time></trkpt><trkpt lat="37.767535499107936" lon="15.089360165789028"><ele>1329.0</ele><time>2026-04-19T08:02:24Z</time></trkpt><trkpt lat="37.767396577153555" lon="15.08920842623755"><ele>1329.0</ele><time>2026-04-19T08:02:25Z</time></trkpt><trkpt lat="37.76722620624371" lon="15.089108691470495"><ele>1329.0</ele><time>2026-04-19T08:02:26Z</time></trkpt><trkpt lat="37.76703412808917" lon="15.089048877248489"><ele>1327.6666666666667</ele><time>2026-04-19T08:02:27Z</time></trkpt><trkpt lat="37.76683823664496" lon="15.088999901742493"><ele>1326.3333333333335</ele><time>2026-04-19T08:02:28Z</time></trkpt><trkpt lat="37.76664104175015" lon="15.088902942287135"><ele>1325.0</ele><time>2026-04-19T08:02:29Z</time></trkpt><trkpt lat="37.76644724925013" lon="15.088781712739685"><ele>1325.0</ele><time>2026-04-19T08:02:30Z</time></trkpt><trkpt lat="37.766253854630826" lon="15.088638292344763"><ele>1325.0</ele><time>2026-04-19T08:02:31Z</time></trkpt><trkpt lat="37.76606518737652" lon="15.08850520023072"><ele>1325.0</ele><time>2026-04-19T08:02:32Z</time></trkpt><trkpt lat="37.76587793667439" lon="15.08836581467886"><ele>1323.6666666666667</ele><time>2026-04-19T08:02:33Z</time></trkpt><trkpt lat="37.765721922631506" lon="15.088214517027557"><ele>1322.3333333333333</ele><time>2026-04-19T08:02:34Z</time></trkpt><trkpt lat="37.76553138463187" lon="15.088045794704797"><ele>1321.0</ele><time>2026-04-19T08:02:35Z</time></trkpt><trkpt lat="37.76536316314371" lon="15.087856286888998"><ele>1318.3333333333333</ele><time>2026-04-19T08:02:36Z</time></trkpt><trkpt lat="37.76519279812334" lon="15.087682973198785"><ele>1315.6666666666667</ele><time>2026-04-19T08:02:37Z</time></trkpt><trkpt lat="37.76502547058187" lon="15.087526142804457"><ele>1313.0</ele><time>2026-04-19T08:02:38Z</time></trkpt><trkpt lat="37.764867409870845" lon="15.087385571900288"><ele>1313.0</ele><time>2026-04-19T08:02:39Z</time></trkpt><trkpt lat="37.76468457165336" lon="15.087277807859165"><ele>1313.0</ele><time>2026-04-19T08:02:40Z</time></trkpt><trkpt lat="37.764457992011906" lon="15.087214576023587"><ele>1313.0</ele><time>2026-04-19T08:02:41Z</time></trkpt><trkpt lat="37.7642425969235" lon="15.087083244368747"><ele>1306.6666666666667</ele><time>2026-04-19T08:02:42Z</time></trkpt><trkpt lat="37.764028032279775" lon="15.08695944455067"><ele>1300.3333333333333</ele><time>2026-04-19T08:02:43Z</time></trkpt><trkpt lat="37.76383720629736" lon="15.086849118833454"><ele>1294.0</ele><time>2026-04-19T08:02:44Z</time></trkpt><trkpt lat="37.76363961783575" lon="15.0867143500744"><ele>1289.5</ele><time>2026-04-19T08:02:45Z</time></trkpt><trkpt lat="37.76343986880879" lon="15.086570742507694"><ele>1285.0</ele><time>2026-04-19T08:02:46Z</time></trkpt><trkpt lat="37.76323821172086" lon="15.086435971389935"><ele>1285.0</ele><time>2026-04-19T08:02:47Z</time></trkpt><trkpt lat="37.76304318899178" lon="15.086308754752537"><ele>1285.0</ele><time>2026-04-19T08:02:48Z</time></trkpt><trkpt lat="37.76286213869013" lon="15.086179742175405"><ele>1285.0</ele><time>2026-04-19T08:02:49Z</time></trkpt><trkpt lat="37.7627005735396" lon="15.086048376450675"><ele>1285.6666666666665</ele><time>2026-04-19T08:02:50Z</time></trkpt><trkpt lat="37.76253491875087" lon="15.085926569997417"><ele>1286.3333333333333</ele><time>2026-04-19T08:02:51Z</time></trkpt><trkpt lat="37.762372213017" lon="15.085807898696533"><ele>1287.0</ele><time>2026-04-19T08:02:52Z</time></trkpt><trkpt lat="37.762212903316914" lon="15.085711364632859"><ele>1287.0</ele><time>2026-04-19T08:02:53Z</time></trkpt><trkpt lat="37.76205134757334" lon="15.085630766869997"><ele>1287.0</ele><time>2026-04-19T08:02:54Z</time></trkpt><trkpt lat="37.76188224801971" lon="15.085577192803296"><ele>1287.0</ele><time>2026-04-19T08:02:55Z</time></trkpt><trkpt lat="37.76169980023292" lon="15.085542804396228"><ele>1285.3333333333333</ele><time>2026-04-19T08:02:56Z</time></trkpt><trkpt lat="37.761518133383134" lon="15.08551759854118"><ele>1283.6666666666665</ele><time>2026-04-19T08:02:57Z</time></trkpt><trkpt lat="37.761323295657505" lon="15.085499124529816"><ele>1282.0</ele><time>2026-04-19T08:02:58Z</time></trkpt><trkpt lat="37.76112539022442" lon="15.085465369692146"><ele>1279.3333333333333</ele><time>2026-04-19T08:02:59Z</time></trkpt><trkpt lat="37.760927903813034" lon="15.085407947367425"><ele>1276.6666666666667</ele><time>2026-04-19T08:03:00Z</time></trkpt><trkpt lat="37.7607429226476" lon="15.085375705726607"><ele>1274.0</ele><time>2026-04-19T08:03:01Z</time></trkpt><trkpt lat="37.76056502912748" lon="15.085355632170536"><ele>1274.0</ele><time>2026-04-19T08:03:02Z</time></trkpt><trkpt lat="37.760392027562304" lon="15.085362121409066"><ele>1274.0</ele><time>2026-04-19T08:03:03Z</time></trkpt><trkpt lat="37.76021886672768" lon="15.085418713075835"><ele>1274.0</ele><time>2026-04-19T08:03:04Z</time></trkpt><trkpt lat="37.76004705405115" lon="15.085513069603087"><ele>1273.3333333333335</ele><time>2026-04-19T08:03:05Z</time></trkpt><trkpt lat="37.759867822307015" lon="15.085630038855184"><ele>1272.6666666666667</ele><time>2026-04-19T08:03:06Z</time></trkpt><trkpt lat="37.75967377417496" lon="15.085751241094787"><ele>1272.0</ele><time>2026-04-19T08:03:07Z</time></trkpt><trkpt lat="37.75946585997633" lon="15.0858788353975"><ele>1261.5</ele><time>2026-04-19T08:03:08Z</time></trkpt><trkpt lat="37.75925079192325" lon="15.085991404668581"><ele>1251.0</ele><time>2026-04-19T08:03:09Z</time></trkpt><trkpt lat="37.75904040236517" lon="15.086111836402045"><ele>1251.0</ele><time>2026-04-19T08:03:10Z</time></trkpt><trkpt lat="37.75883860977256" lon="15.086223136186463"><ele>1251.0</ele><time>2026-04-19T08:03:11Z</time></trkpt><trkpt lat="37.758629608659035" lon="15.086295968653653"><ele>1251.0</ele><time>2026-04-19T08:03:12Z</time></trkpt><trkpt lat="37.75842202976695" lon="15.086308757822778"><ele>1249.6666666666667</ele><time>2026-04-19T08:03:13Z</time></trkpt><trkpt lat="37.758217589394434" lon="15.086256993426145"><ele>1248.3333333333335</ele><time>2026-04-19T08:03:14Z</time></trkpt><trkpt lat="37.75804812920356" lon="15.08616162540625"><ele>1247.0</ele><time>2026-04-19T08:03:15Z</time></trkpt><trkpt lat="37.75786650605677" lon="15.086073530473046"><ele>1243.6666666666667</ele><time>2026-04-19T08:03:16Z</time></trkpt><trkpt lat="37.757676116443534" lon="15.086047076672354"><ele>1240.3333333333333</ele><time>2026-04-19T08:03:17Z</time></trkpt><trkpt lat="37.75748696930756" lon="15.08607957050672"><ele>1237.0</ele><time>2026-04-19T08:03:18Z</time></trkpt><trkpt lat="37.7572921839126" lon="15.08612560730634"><ele>1237.0</ele><time>2026-04-19T08:03:19Z</time></trkpt><trkpt lat="37.7570887914042" lon="15.086165842358378"><ele>1237.0</ele><time>2026-04-19T08:03:20Z</time></trkpt><trkpt lat="37.75688782571273" lon="15.086206417119985"><ele>1237.0</ele><time>2026-04-19T08:03:21Z</time></trkpt><trkpt lat="37.756686996179035" lon="15.086253426459132"><ele>1234.3333333333333</ele><time>2026-04-19T08:03:22Z</time></trkpt><trkpt lat="37.7564800233734" lon="15.086316383948404"><ele>1231.6666666666667</ele><time>2026-04-19T08:03:23Z</time></trkpt><trkpt lat="37.75626753435085" lon="15.086391025574711"><ele>1229.0</ele><time>2026-04-19T08:03:24Z</time></trkpt><trkpt lat="37.75604994970585" lon="15.086476536000802"><ele>1227.0</ele><time>2026-04-19T08:03:25Z</time></trkpt><trkpt lat="37.75582422584349" lon="15.086566558203335"><ele>1225.0</ele><time>2026-04-19T08:03:26Z</time></trkpt><trkpt lat="37.755587391900804" lon="15.086650417850677"><ele>1219.5</ele><time>2026-04-19T08:03:27Z</time></trkpt><trkpt lat="37.755347020708385" lon="15.086728085349536"><ele>1214.0</ele><time>2026-04-19T08:03:28Z</time></trkpt><trkpt lat="37.755120004484006" lon="15.086811949910139"><ele>1212.6666666666667</ele><time>2026-04-19T08:03:29Z</time></trkpt><trkpt lat="37.754899738317505" lon="15.086898211939511"><ele>1211.3333333333333</ele><time>2026-04-19T08:03:30Z</time></trkpt><trkpt lat="37.754693301907736" lon="15.086983139508893"><ele>1210.0</ele><time>2026-04-19T08:03:31Z</time></trkpt><trkpt lat="37.75450281306067" lon="15.08704425112376"><ele>1209.3333333333333</ele><time>2026-04-19T08:03:32Z</time></trkpt><trkpt lat="37.7543161389438" lon="15.087079111268501"><ele>1208.6666666666667</ele><time>2026-04-19T08:03:33Z</time></trkpt><trkpt lat="37.75411560213429" lon="15.08706695439394"><ele>1208.0</ele><time>2026-04-19T08:03:34Z</time></trkpt><trkpt lat="37.75390909019823" lon="15.087049954195288"><ele>1208.0</ele><time>2026-04-19T08:03:35Z</time></trkpt><trkpt lat="37.7536944944014" lon="15.087016993180631"><ele>1208.0</ele><time>2026-04-19T08:03:36Z</time></trkpt><trkpt lat="37.75347947470623" lon="15.086956410644353"><ele>1208.0</ele><time>2026-04-19T08:03:37Z</time></trkpt><trkpt lat="37.75325383383254" lon="15.086889894711721"><ele>1204.0</ele><time>2026-04-19T08:03:38Z</time></trkpt><trkpt lat="37.753021843019475" lon="15.08682420297631"><ele>1200.0</ele><time>2026-04-19T08:03:39Z</time></trkpt><trkpt lat="37.75278204916801" lon="15.086755092366866"><ele>1195.5</ele><time>2026-04-19T08:03:40Z</time></trkpt><trkpt lat="37.752552348876776" lon="15.086686962016879"><ele>1191.0</ele><time>2026-04-19T08:03:41Z</time></trkpt><trkpt lat="37.752331300056284" lon="15.086619581241909"><ele>1191.0</ele><time>2026-04-19T08:03:42Z</time></trkpt><trkpt lat="37.75212361920891" lon="15.086551401549135"><ele>1191.0</ele><time>2026-04-19T08:03:43Z</time></trkpt><trkpt lat="37.75194142244763" lon="15.086480472774987"><ele>1191.0</ele><time>2026-04-19T08:03:44Z</time></trkpt><trkpt lat="37.75178058081214" lon="15.086385019794337"><ele>1191.0</ele><time>2026-04-19T08:03:45Z</time></trkpt><trkpt lat="37.751638586545916" lon="15.086252076443097"><ele>1191.0</ele><time>2026-04-19T08:03:46Z</time></trkpt><trkpt lat="37.75153337885314" lon="15.086125586575555"><ele>1191.0</ele><time>2026-04-19T08:03:47Z</time></trkpt><trkpt lat="37.75144913053829" lon="15.086041799272826"><ele>1191.0</ele><time>2026-04-19T08:03:48Z</time></trkpt><trkpt lat="37.75135729768335" lon="15.086019507821417"><ele>1191.0</ele><time>2026-04-19T08:03:49Z</time></trkpt><trkpt lat="37.75125870503892" lon="15.08605885469521"><ele>1191.0</ele><time>2026-04-19T08:03:50Z</time></trkpt><trkpt lat="37.75116951186135" lon="15.086150146516799"><ele>1191.0</ele><time>2026-04-19T08:03:51Z</time></trkpt><trkpt lat="37.751089344898524" lon="15.086276281157122"><ele>1191.0</ele><time>2026-04-19T08:03:52Z</time></trkpt><trkpt lat="37.751004108963905" lon="15.086419864760916"><ele>1190.6666666666667</ele><time>2026-04-19T08:03:53Z</time></trkpt><trkpt lat="37.75090353476992" lon="15.086568694537924"><ele>1190.3333333333335</ele><time>2026-04-19T08:03:54Z</time></trkpt><trkpt lat="37.75078812004073" lon="15.086724693782898"><ele>1190.0</ele><time>2026-04-19T08:03:55Z</time></trkpt><trkpt lat="37.75066822669429" lon="15.086889166061685"><ele>1187.3333333333335</ele><time>2026-04-19T08:03:56Z</time></trkpt><trkpt lat="37.75053604688787" lon="15.087058334265015"><ele>1184.6666666666667</ele><time>2026-04-19T08:03:57Z</time></trkpt><trkpt lat="37.75037996584411" lon="15.087213237652957"><ele>1182.0</ele><time>2026-04-19T08:03:58Z</time></trkpt><trkpt lat="37.75020040263776" lon="15.087343376455358"><ele>1179.0</ele><time>2026-04-19T08:03:59Z</time></trkpt><trkpt lat="37.75001251337857" lon="15.087448742437557"><ele>1176.0</ele><time>2026-04-19T08:04:00Z</time></trkpt><trkpt lat="37.74981807782128" lon="15.087522997398972"><ele>1173.0</ele><time>2026-04-19T08:04:01Z</time></trkpt><trkpt lat="37.749619206292685" lon="15.087567385756358"><ele>1173.0</ele><time>2026-04-19T08:04:02Z</time></trkpt><trkpt lat="37.74941874758469" lon="15.087574171021227"><ele>1173.0</ele><time>2026-04-19T08:04:03Z</time></trkpt><trkpt lat="37.749220898727025" lon="15.087539910901667"><ele>1173.0</ele><time>2026-04-19T08:04:04Z</time></trkpt><trkpt lat="37.74902570730045" lon="15.087491553317808"><ele>1169.6666666666667</ele><time>2026-04-19T08:04:05Z</time></trkpt><trkpt lat="37.74884094779256" lon="15.087484615210434"><ele>1166.3333333333335</ele><time>2026-04-19T08:04:06Z</time></trkpt><trkpt lat="37.74866493446353" lon="15.087504152654716"><ele>1163.0</ele><time>2026-04-19T08:04:07Z</time></trkpt><trkpt lat="37.748496568101004" lon="15.087565315127026"><ele>1161.3333333333335</ele><time>2026-04-19T08:04:08Z</time></trkpt><trkpt lat="37.7483455921702" lon="15.087665176891486"><ele>1159.6666666666667</ele><time>2026-04-19T08:04:09Z</time></trkpt><trkpt lat="37.74820895623304" lon="15.087755582644983"><ele>1158.0</ele><time>2026-04-19T08:04:10Z</time></trkpt><trkpt lat="37.74807675099833" lon="15.087837563061301"><ele>1158.0</ele><time>2026-04-19T08:04:11Z</time></trkpt><trkpt lat="37.747958777790416" lon="15.087930475440556"><ele>1158.0</ele><time>2026-04-19T08:04:12Z</time></trkpt><trkpt lat="37.747882529547574" lon="15.088049538724844"><ele>1158.0</ele><time>2026-04-19T08:04:13Z</time></trkpt><trkpt lat="37.747859896400335" lon="15.088198167132655"><ele>1158.0</ele><time>2026-04-19T08:04:14Z</time></trkpt><trkpt lat="37.747886847951186" lon="15.08836339620827"><ele>1157.0</ele><time>2026-04-19T08:04:15Z</time></trkpt><trkpt lat="37.747954849948435" lon="15.088511529444178"><ele>1156.0</ele><time>2026-04-19T08:04:16Z</time></trkpt><trkpt lat="37.74805795152612" lon="15.088619901665329"><ele>1155.0</ele><time>2026-04-19T08:04:17Z</time></trkpt><trkpt lat="37.74818295663847" lon="15.088666851761152"><ele>1154.0</ele><time>2026-04-19T08:04:18Z</time></trkpt><trkpt lat="37.748312346834666" lon="15.08866475724959"><ele>1154.0</ele><time>2026-04-19T08:04:19Z</time></trkpt><trkpt lat="37.748446729985965" lon="15.088653933144933"><ele>1154.0</ele><time>2026-04-19T08:04:20Z</time></trkpt><trkpt lat="37.748576968941" lon="15.088702698872622"><ele>1154.0</ele><time>2026-04-19T08:04:21Z</time></trkpt><trkpt lat="37.748711604767834" lon="15.088769686774448"><ele>1154.0</ele><time>2026-04-19T08:04:22Z</time></trkpt><trkpt lat="37.74884911035174" lon="15.088884606254712"><ele>1153.3333333333335</ele><time>2026-04-19T08:04:23Z</time></trkpt><trkpt lat="37.74897715908023" lon="15.089024072277095"><ele>1152.6666666666667</ele><time>2026-04-19T08:04:24Z</time></trkpt><trkpt lat="37.74914167081185" lon="15.089164200400349"><ele>1152.0</ele><time>2026-04-19T08:04:25Z</time></trkpt><trkpt lat="37.74929280268456" lon="15.089273188727146"><ele>1153.3333333333333</ele><time>2026-04-19T08:04:26Z</time></trkpt><trkpt lat="37.749443030774884" lon="15.08936249134651"><ele>1154.6666666666665</ele><time>2026-04-19T08:04:27Z</time></trkpt><trkpt lat="37.749589891114724" lon="15.089452139366253"><ele>1156.0</ele><time>2026-04-19T08:04:28Z</time></trkpt><trkpt lat="37.74972381116921" lon="15.089546788519858"><ele>1156.0</ele><time>2026-04-19T08:04:29Z</time></trkpt><trkpt lat="37.74983557203245" lon="15.089663029826605"><ele>1156.0</ele><time>2026-04-19T08:04:30Z</time></trkpt><trkpt lat="37.74992158628437" lon="15.089836077692588"><ele>1156.0</ele><time>2026-04-19T08:04:31Z</time></trkpt><trkpt lat="37.74999561904945" lon="15.0900460786413"><ele>1154.0</ele><time>2026-04-19T08:04:32Z</time></trkpt><trkpt lat="37.750094558766705" lon="15.090266015174706"><ele>1152.0</ele><time>2026-04-19T08:04:33Z</time></trkpt><trkpt lat="37.750211815051586" lon="15.090474162657902"><ele>1150.0</ele><time>2026-04-19T08:04:34Z</time></trkpt><trkpt lat="37.75033622048997" lon="15.090698278321891"><ele>1146.3333333333333</ele><time>2026-04-19T08:04:35Z</time></trkpt><trkpt lat="37.750461295097935" lon="15.090903184006175"><ele>1142.6666666666667</ele><time>2026-04-19T08:04:36Z</time></trkpt><trkpt lat="37.750586739551935" lon="15.09110340069717"><ele>1139.0</ele><time>2026-04-19T08:04:37Z</time></trkpt><trkpt lat="37.75069173388605" lon="15.091315694396648"><ele>1139.0</ele><time>2026-04-19T08:04:38Z</time></trkpt><trkpt lat="37.75076560174191" lon="15.091543221259654"><ele>1139.0</ele><time>2026-04-19T08:04:39Z</time></trkpt><trkpt lat="37.75081961532272" lon="15.09178562188706"><ele>1139.0</ele><time>2026-04-19T08:04:40Z</time></trkpt><trkpt lat="37.750867546782125" lon="15.092027534815443"><ele>1136.6666666666667</ele><time>2026-04-19T08:04:41Z</time></trkpt><trkpt lat="37.7509152061016" lon="15.092252293918435"><ele>1134.3333333333333</ele><time>2026-04-19T08:04:42Z</time></trkpt><trkpt lat="37.750985037788894" lon="15.092453923006445"><ele>1132.0</ele><time>2026-04-19T08:04:43Z</time></trkpt><trkpt lat="37.751087223699116" lon="15.092652832087568"><ele>1131.0</ele><time>2026-04-19T08:04:44Z</time></trkpt><trkpt lat="37.751222907126895" lon="15.092838050762918"><ele>1130.0</ele><time>2026-04-19T08:04:45Z</time></trkpt><trkpt lat="37.75135853062883" lon="15.093032854097759"><ele>1129.0</ele><time>2026-04-19T08:04:46Z</time></trkpt><trkpt lat="37.75149250492532" lon="15.09323788217174"><ele>1126.0</ele><time>2026-04-19T08:04:47Z</time></trkpt><trkpt lat="37.75162440962508" lon="15.093435712947654"><ele>1123.0</ele><time>2026-04-19T08:04:48Z</time></trkpt><trkpt lat="37.75173437251347" lon="15.093637774373768"><ele>1120.0</ele><time>2026-04-19T08:04:49Z</time></trkpt><trkpt lat="37.75181409628394" lon="15.093842631920623"><ele>1121.6666666666665</ele><time>2026-04-19T08:04:50Z</time></trkpt><trkpt lat="37.75187497624209" lon="15.094027860885602"><ele>1123.3333333333333</ele><time>2026-04-19T08:04:51Z</time></trkpt><trkpt lat="37.7519570814108" lon="15.094193466293236"><ele>1125.0</ele><time>2026-04-19T08:04:52Z</time></trkpt><trkpt lat="37.7520699605269" lon="15.094343683373356"><ele>1121.6666666666667</ele><time>2026-04-19T08:04:53Z</time></trkpt><trkpt lat="37.75220741150489" lon="15.094487536252979"><ele>1118.3333333333335</ele><time>2026-04-19T08:04:54Z</time></trkpt><trkpt lat="37.752342029657" lon="15.094644038436511"><ele>1115.0</ele><time>2026-04-19T08:04:55Z</time></trkpt><trkpt lat="37.75246055534343" lon="15.09480274470791"><ele>1114.6666666666667</ele><time>2026-04-19T08:04:56Z</time></trkpt><trkpt lat="37.75257144079768" lon="15.094952143230394"><ele>1114.3333333333333</ele><time>2026-04-19T08:04:57Z</time></trkpt><trkpt lat="37.752660986773286" lon="15.095124977523287"><ele>1114.0</ele><time>2026-04-19T08:04:58Z</time></trkpt><trkpt lat="37.75272579935319" lon="15.095332779119058"><ele>1114.0</ele><time>2026-04-19T08:04:59Z</time></trkpt><trkpt lat="37.75279997247328" lon="15.095537976857011"><ele>1114.0</ele><time>2026-04-19T08:05:00Z</time></trkpt><trkpt lat="37.752900549408366" lon="15.095743581943168"><ele>1114.0</ele><time>2026-04-19T08:05:01Z</time></trkpt><trkpt lat="37.753021533147106" lon="15.095940626147309"><ele>1110.6666666666665</ele><time>2026-04-19T08:05:02Z</time></trkpt><trkpt lat="37.75316251877237" lon="15.0961310099483"><ele>1107.3333333333333</ele><time>2026-04-19T08:05:03Z</time></trkpt><trkpt lat="37.75333584240758" lon="15.096313757708158"><ele>1104.0</ele><time>2026-04-19T08:05:04Z</time></trkpt><trkpt lat="37.75352718836904" lon="15.096490780576682"><ele>1099.5</ele><time>2026-04-19T08:05:05Z</time></trkpt><trkpt lat="37.753729235830114" lon="15.096682833300981"><ele>1095.0</ele><time>2026-04-19T08:05:06Z</time></trkpt><trkpt lat="37.75394225937262" lon="15.096891323846306"><ele>1095.0</ele><time>2026-04-19T08:05:07Z</time></trkpt><trkpt lat="37.75415106574376" lon="15.097102503094433"><ele>1095.0</ele><time>2026-04-19T08:05:08Z</time></trkpt><trkpt lat="37.75435030861801" lon="15.097303638725647"><ele>1091.0</ele><time>2026-04-19T08:05:09Z</time></trkpt><trkpt lat="37.75453657184236" lon="15.09749559606966"><ele>1087.0</ele><time>2026-04-19T08:05:10Z</time></trkpt><trkpt lat="37.75470574635537" lon="15.097666346134051"><ele>1087.0</ele><time>2026-04-19T08:05:11Z</time></trkpt><trkpt lat="37.75485504593535" lon="15.09780604167129"><ele>1087.0</ele><time>2026-04-19T08:05:12Z</time></trkpt><trkpt lat="37.75499490876684" lon="15.097889194691467"><ele>1087.0</ele><time>2026-04-19T08:05:13Z</time></trkpt><trkpt lat="37.75514362778131" lon="15.097924619741473"><ele>1086.4</ele><time>2026-04-19T08:05:14Z</time></trkpt><trkpt lat="37.75527495308594" lon="15.097941473196855"><ele>1085.8000000000002</ele><time>2026-04-19T08:05:15Z</time></trkpt><trkpt lat="37.755371868773786" lon="15.097983641974595"><ele>1085.2</ele><time>2026-04-19T08:05:16Z</time></trkpt><trkpt lat="37.75544053895485" lon="15.098063925076913"><ele>1084.6000000000001</ele><time>2026-04-19T08:05:17Z</time></trkpt><trkpt lat="37.755471408828875" lon="15.098188258233103"><ele>1084.0</ele><time>2026-04-19T08:05:18Z</time></trkpt><trkpt lat="37.75544748926311" lon="15.098320311323604"><ele>1081.8</ele><time>2026-04-19T08:05:19Z</time></trkpt><trkpt lat="37.75538477884028" lon="15.09841524060772"><ele>1079.6000000000001</ele><time>2026-04-19T08:05:20Z</time></trkpt><trkpt lat="37.755290850584444" lon="15.09846216927192"><ele>1077.4</ele><time>2026-04-19T08:05:21Z</time></trkpt><trkpt lat="37.755179730353994" lon="15.098465996356499"><ele>1075.2</ele><time>2026-04-19T08:05:22Z</time></trkpt><trkpt lat="37.75505239754762" lon="15.098421998670432"><ele>1073.0</ele><time>2026-04-19T08:05:23Z</time></trkpt><trkpt lat="37.75491097161354" lon="15.098353511312155"><ele>1072.3333333333335</ele><time>2026-04-19T08:05:24Z</time></trkpt><trkpt lat="37.75475419183348" lon="15.098291394851879"><ele>1071.6666666666667</ele><time>2026-04-19T08:05:25Z</time></trkpt><trkpt lat="37.75458306796357" lon="15.09825328984119"><ele>1071.0</ele><time>2026-04-19T08:05:26Z</time></trkpt><trkpt lat="37.75439818141767" lon="15.098212840368571"><ele>1074.3333333333333</ele><time>2026-04-19T08:05:27Z</time></trkpt><trkpt lat="37.75419337998776" lon="15.098181126206462"><ele>1077.6666666666665</ele><time>2026-04-19T08:05:28Z</time></trkpt><trkpt lat="37.75396867574844" lon="15.098166317390442"><ele>1081.0</ele><time>2026-04-19T08:05:29Z</time></trkpt><trkpt lat="37.75372877187452" lon="15.098154256556729"><ele>1076.0</ele><time>2026-04-19T08:05:30Z</time></trkpt><trkpt lat="37.75348117462824" lon="15.098141523476489"><ele>1071.0</ele><time>2026-04-19T08:05:31Z</time></trkpt><trkpt lat="37.753234305233306" lon="15.098124024771964"><ele>1071.0</ele><time>2026-04-19T08:05:32Z</time></trkpt><trkpt lat="37.752990052056155" lon="15.098100870869581"><ele>1071.0</ele><time>2026-04-19T08:05:33Z</time></trkpt><trkpt lat="37.7527440743177" lon="15.098079398844996"><ele>1065.5</ele><time>2026-04-19T08:05:34Z</time></trkpt><trkpt lat="37.75249839822033" lon="15.098061304629208"><ele>1060.0</ele><time>2026-04-19T08:05:35Z</time></trkpt><trkpt lat="37.75225516765386" lon="15.098041611127826"><ele>1060.0</ele><time>2026-04-19T08:05:36Z</time></trkpt><trkpt lat="37.75202084707157" lon="15.098025333638518"><ele>1060.0</ele><time>2026-04-19T08:05:37Z</time></trkpt><trkpt lat="37.75179036129783" lon="15.098010145249635"><ele>1059.3333333333333</ele><time>2026-04-19T08:05:38Z</time></trkpt><trkpt lat="37.75156764219752" lon="15.097998490350491"><ele>1058.6666666666667</ele><time>2026-04-19T08:05:39Z</time></trkpt><trkpt lat="37.75135329642667" lon="15.097995898493528"><ele>1058.0</ele><time>2026-04-19T08:05:40Z</time></trkpt><trkpt lat="37.75114749711283" lon="15.098006590015169"><ele>1055.3333333333335</ele><time>2026-04-19T08:05:41Z</time></trkpt><trkpt lat="37.75095103465974" lon="15.098016141167365"><ele>1052.6666666666667</ele><time>2026-04-19T08:05:42Z</time></trkpt><trkpt lat="37.75076445949157" lon="15.098026752667005"><ele>1050.0</ele><time>2026-04-19T08:05:43Z</time></trkpt><trkpt lat="37.750587181582176" lon="15.098045642966675"><ele>1050.0</ele><time>2026-04-19T08:05:44Z</time></trkpt><trkpt lat="37.7504148795281" lon="15.098077703712978"><ele>1050.0</ele><time>2026-04-19T08:05:45Z</time></trkpt><trkpt lat="37.75025699158766" lon="15.098107570928418"><ele>1050.0</ele><time>2026-04-19T08:05:46Z</time></trkpt><trkpt lat="37.750115930254594" lon="15.098146558728718"><ele>1049.0</ele><time>2026-04-19T08:05:47Z</time></trkpt><trkpt lat="37.74998326827543" lon="15.098226272898387"><ele>1048.0</ele><time>2026-04-19T08:05:48Z</time></trkpt><trkpt lat="37.749852495284756" lon="15.09833313607426"><ele>1047.0</ele><time>2026-04-19T08:05:49Z</time></trkpt><trkpt lat="37.74972800543917" lon="15.098459824955356"><ele>1044.0</ele><time>2026-04-19T08:05:50Z</time></trkpt><trkpt lat="37.74964139283691" lon="15.098614865362359"><ele>1041.0</ele><time>2026-04-19T08:05:51Z</time></trkpt><trkpt lat="37.74960381403567" lon="15.098781605281179"><ele>1038.0</ele><time>2026-04-19T08:05:52Z</time></trkpt><trkpt lat="37.74958947455939" lon="15.098960840403922"><ele>1035.0</ele><time>2026-04-19T08:05:53Z</time></trkpt><trkpt lat="37.74954728902778" lon="15.09912725001608"><ele>1032.25</ele><time>2026-04-19T08:05:54Z</time></trkpt><trkpt lat="37.74946001941922" lon="15.099266275818826"><ele>1029.5</ele><time>2026-04-19T08:05:55Z</time></trkpt><trkpt lat="37.74933114059089" lon="15.099365008316363"><ele>1026.75</ele><time>2026-04-19T08:05:56Z</time></trkpt><trkpt lat="37.7491901601651" lon="15.09945070803844"><ele>1024.0</ele><time>2026-04-19T08:05:57Z</time></trkpt><trkpt lat="37.74904494379948" lon="15.099520242759013"><ele>1024.0</ele><time>2026-04-19T08:05:58Z</time></trkpt><trkpt lat="37.74889496595451" lon="15.099533897810458"><ele>1024.0</ele><time>2026-04-19T08:05:59Z</time></trkpt><trkpt lat="37.74874627052265" lon="15.099506555371603"><ele>1024.0</ele><time>2026-04-19T08:06:00Z</time></trkpt><trkpt lat="37.74858867863594" lon="15.099450454234809"><ele>1021.3333333333333</ele><time>2026-04-19T08:06:01Z</time></trkpt><trkpt lat="37.74842806771114" lon="15.099416644965412"><ele>1018.6666666666667</ele><time>2026-04-19T08:06:02Z</time></trkpt><trkpt lat="37.7482658562109" lon="15.099373296488487"><ele>1016.0</ele><time>2026-04-19T08:06:03Z</time></trkpt><trkpt lat="37.748098339099656" lon="15.099328628502816"><ele>1016.0</ele><time>2026-04-19T08:06:04Z</time></trkpt><trkpt lat="37.747927200573265" lon="15.099286680357793"><ele>1016.0</ele><time>2026-04-19T08:06:05Z</time></trkpt><trkpt lat="37.74774945573016" lon="15.09924558078799"><ele>1016.0</ele><time>2026-04-19T08:06:06Z</time></trkpt><trkpt lat="37.747569445507274" lon="15.099211686955343"><ele>1015.0</ele><time>2026-04-19T08:06:07Z</time></trkpt><trkpt lat="37.74738502519048" lon="15.099188575625746"><ele>1014.0</ele><time>2026-04-19T08:06:08Z</time></trkpt><trkpt lat="37.7471959428206" lon="15.099184029601286"><ele>1013.0</ele><time>2026-04-19T08:06:09Z</time></trkpt><trkpt lat="37.747004333230684" lon="15.099193696055043"><ele>1012.0</ele><time>2026-04-19T08:06:10Z</time></trkpt><trkpt lat="37.74681314973619" lon="15.099186637178052"><ele>1011.0</ele><time>2026-04-19T08:06:11Z</time></trkpt><trkpt lat="37.74663826412364" lon="15.099179609077929"><ele>1010.0</ele><time>2026-04-19T08:06:12Z</time></trkpt><trkpt lat="37.74647128860235" lon="15.099168390534825"><ele>1010.0</ele><time>2026-04-19T08:06:13Z</time></trkpt><trkpt lat="37.74632658440174" lon="15.099129744021688"><ele>1010.0</ele><time>2026-04-19T08:06:14Z</time></trkpt><trkpt lat="37.74620547222179" lon="15.099042615021858"><ele>1010.0</ele><time>2026-04-19T08:06:15Z</time></trkpt><trkpt lat="37.74609677750384" lon="15.09891281116299"><ele>1010.0</ele><time>2026-04-19T08:06:16Z</time></trkpt><trkpt lat="37.74599524868674" lon="15.098768274186812"><ele>1010.25</ele><time>2026-04-19T08:06:17Z</time></trkpt><trkpt lat="37.74590849234959" lon="15.098621810612528"><ele>1010.5</ele><time>2026-04-19T08:06:18Z</time></trkpt><trkpt lat="37.745819423858265" lon="15.098526045401503"><ele>1010.75</ele><time>2026-04-19T08:06:19Z</time></trkpt><trkpt lat="37.74572918918206" lon="15.098453790945648"><ele>1011.0</ele><time>2026-04-19T08:06:20Z</time></trkpt><trkpt lat="37.74562456501851" lon="15.098432344665898"><ele>1011.0</ele><time>2026-04-19T08:06:21Z</time></trkpt><trkpt lat="37.745518924104125" lon="15.098461411408051"><ele>1010.9999999999999</ele><time>2026-04-19T08:06:22Z</time></trkpt><trkpt lat="37.74542469674866" lon="15.098526065941229"><ele>1010.9999999999999</ele><time>2026-04-19T08:06:23Z</time></trkpt><trkpt lat="37.74532883079089" lon="15.098608180507"><ele>1011.0</ele><time>2026-04-19T08:06:24Z</time></trkpt><trkpt lat="37.74523652108056" lon="15.098692463315874"><ele>1011.0</ele><time>2026-04-19T08:06:25Z</time></trkpt><trkpt lat="37.74516429808729" lon="15.098752086452789"><ele>1009.6666666666666</ele><time>2026-04-19T08:06:26Z</time></trkpt><trkpt lat="37.745108010106506" lon="15.098789847523243"><ele>1008.3333333333333</ele><time>2026-04-19T08:06:27Z</time></trkpt><trkpt lat="37.745039763865464" lon="15.098834838457432"><ele>1007.0</ele><time>2026-04-19T08:06:30Z</time></trkpt><trkpt lat="37.74498444533952" lon="15.098886255041046"><ele>1005.6666666666666</ele><time>2026-04-19T08:07:45Z</time></trkpt><trkpt lat="37.744891648146634" lon="15.098987790853183"><ele>1004.3333333333333</ele><time>2026-04-19T08:07:47Z</time></trkpt><trkpt lat="37.744807858181936" lon="15.099060266248294"><ele>1003.0</ele><time>2026-04-19T08:07:48Z</time></trkpt><trkpt lat="37.744715689211205" lon="15.099154396739799"><ele>1001.5999999999999</ele><time>2026-04-19T08:07:49Z</time></trkpt><trkpt lat="37.7446324788641" lon="15.099258060724878"><ele>1000.1999999999999</ele><time>2026-04-19T08:07:50Z</time></trkpt><trkpt lat="37.744559927366836" lon="15.099359095545674"><ele>998.8</ele><time>2026-04-19T08:07:51Z</time></trkpt><trkpt lat="37.74448851587423" lon="15.099446730148681"><ele>997.4</ele><time>2026-04-19T08:07:52Z</time></trkpt><trkpt lat="37.74441429291448" lon="15.099543837436268"><ele>996.0</ele><time>2026-04-19T08:07:53Z</time></trkpt><trkpt lat="37.7443023587002" lon="15.099618573252778"><ele>996.0</ele><time>2026-04-19T08:07:54Z</time></trkpt><trkpt lat="37.74416839304839" lon="15.099660692460276"><ele>996.0</ele><time>2026-04-19T08:07:55Z</time></trkpt><trkpt lat="37.744031867345825" lon="15.09968003406279"><ele>996.0</ele><time>2026-04-19T08:07:56Z</time></trkpt><trkpt lat="37.743893663388754" lon="15.099697615769209"><ele>996.0</ele><time>2026-04-19T08:07:57Z</time></trkpt><trkpt lat="37.74376316178185" lon="15.099764590693427"><ele>996.0</ele><time>2026-04-19T08:07:58Z</time></trkpt><trkpt lat="37.743650526892694" lon="15.099892281622216"><ele>996.0</ele><time>2026-04-19T08:07:59Z</time></trkpt><trkpt lat="37.743562583531386" lon="15.100043336916492"><ele>996.0</ele><time>2026-04-19T08:08:00Z</time></trkpt><trkpt lat="37.74348122043187" lon="15.100190846324269"><ele>996.0</ele><time>2026-04-19T08:08:01Z</time></trkpt><trkpt lat="37.74338659157688" lon="15.100304194089036"><ele>992.0</ele><time>2026-04-19T08:08:02Z</time></trkpt><trkpt lat="37.74327289602602" lon="15.100358692807248"><ele>988.0</ele><time>2026-04-19T08:08:03Z</time></trkpt><trkpt lat="37.743153052309" lon="15.100369173723772"><ele>984.0</ele><time>2026-04-19T08:08:04Z</time></trkpt><trkpt lat="37.74302341769175" lon="15.100303262528035"><ele>980.0</ele><time>2026-04-19T08:08:05Z</time></trkpt><trkpt lat="37.742899261625446" lon="15.10023521191081"><ele>980.0</ele><time>2026-04-19T08:08:06Z</time></trkpt><trkpt lat="37.74278307762154" lon="15.100143170897814"><ele>980.0</ele><time>2026-04-19T08:08:07Z</time></trkpt><trkpt lat="37.74268160587496" lon="15.100028950524964"><ele>980.0</ele><time>2026-04-19T08:08:08Z</time></trkpt><trkpt lat="37.74258176497799" lon="15.099852758002656"><ele>980.0</ele><time>2026-04-19T08:08:09Z</time></trkpt><trkpt lat="37.7424870968189" lon="15.099687419955467"><ele>979.5</ele><time>2026-04-19T08:08:10Z</time></trkpt><trkpt lat="37.74239577276778" lon="15.099537966693035"><ele>979.0</ele><time>2026-04-19T08:08:11Z</time></trkpt><trkpt lat="37.74230865787453" lon="15.099395620026645"><ele>978.5</ele><time>2026-04-19T08:08:12Z</time></trkpt><trkpt lat="37.742217435835606" lon="15.099277550267088"><ele>978.0</ele><time>2026-04-19T08:08:13Z</time></trkpt><trkpt lat="37.742119715858166" lon="15.099199578792668"><ele>978.0</ele><time>2026-04-19T08:08:14Z</time></trkpt><trkpt lat="37.74199712489306" lon="15.099150556568159"><ele>978.0</ele><time>2026-04-19T08:08:15Z</time></trkpt><trkpt lat="37.74187278034114" lon="15.099164010805517"><ele>978.0</ele><time>2026-04-19T08:08:16Z</time></trkpt><trkpt lat="37.74174309517383" lon="15.099231484192815"><ele>978.0</ele><time>2026-04-19T08:08:17Z</time></trkpt><trkpt lat="37.74160821135599" lon="15.099324925415003"><ele>975.3333333333333</ele><time>2026-04-19T08:08:18Z</time></trkpt><trkpt lat="37.74145782871962" lon="15.099423531848212"><ele>972.6666666666666</ele><time>2026-04-19T08:08:19Z</time></trkpt><trkpt lat="37.74129019092736" lon="15.09953177140224"><ele>970.0</ele><time>2026-04-19T08:08:20Z</time></trkpt><trkpt lat="37.74112972533106" lon="15.099640258467847"><ele>969.0</ele><time>2026-04-19T08:08:21Z</time></trkpt><trkpt lat="37.740972390983245" lon="15.099740065415917"><ele>968.0</ele><time>2026-04-19T08:08:22Z</time></trkpt><trkpt lat="37.740804029152095" lon="15.099841478163679"><ele>967.0</ele><time>2026-04-19T08:08:23Z</time></trkpt><trkpt lat="37.74061303766238" lon="15.099921638542263"><ele>963.6666666666666</ele><time>2026-04-19T08:08:24Z</time></trkpt><trkpt lat="37.74041482965882" lon="15.099991236364309"><ele>960.3333333333333</ele><time>2026-04-19T08:08:25Z</time></trkpt><trkpt lat="37.74020791293375" lon="15.100067779914593"><ele>957.0</ele><time>2026-04-19T08:08:26Z</time></trkpt><trkpt lat="37.73999633955355" lon="15.100146698120035"><ele>955.6666666666667</ele><time>2026-04-19T08:08:27Z</time></trkpt><trkpt lat="37.739787715323644" lon="15.100230871443271"><ele>954.3333333333334</ele><time>2026-04-19T08:08:28Z</time></trkpt><trkpt lat="37.73957459205075" lon="15.10030981400964"><ele>953.0</ele><time>2026-04-19T08:08:29Z</time></trkpt><trkpt lat="37.73936883016175" lon="15.100387208804063"><ele>951.0</ele><time>2026-04-19T08:08:30Z</time></trkpt><trkpt lat="37.73917074915358" lon="15.100459486952357"><ele>949.0</ele><time>2026-04-19T08:08:31Z</time></trkpt><trkpt lat="37.738983462466024" lon="15.100527705647231"><ele>947.0</ele><time>2026-04-19T08:08:32Z</time></trkpt><trkpt lat="37.738817565328134" lon="15.100590753900182"><ele>947.0</ele><time>2026-04-19T08:08:33Z</time></trkpt><trkpt lat="37.738681538833276" lon="15.100658302944515"><ele>947.0</ele><time>2026-04-19T08:08:34Z</time></trkpt><trkpt lat="37.738581664023" lon="15.100767280175702"><ele>947.0</ele><time>2026-04-19T08:08:35Z</time></trkpt><trkpt lat="37.73851070054438" lon="15.10092937545313"><ele>947.0</ele><time>2026-04-19T08:08:36Z</time></trkpt><trkpt lat="37.73846952984364" lon="15.10111676269133"><ele>946.3333333333334</ele><time>2026-04-19T08:08:37Z</time></trkpt><trkpt lat="37.73846431212355" lon="15.101306891785594"><ele>945.6666666666667</ele><time>2026-04-19T08:08:38Z</time></trkpt><trkpt lat="37.738500913302666" lon="15.101488767676386"><ele>945.0</ele><time>2026-04-19T08:08:39Z</time></trkpt><trkpt lat="37.738566959352255" lon="15.101669689169807"><ele>941.6666666666667</ele><time>2026-04-19T08:08:40Z</time></trkpt><trkpt lat="37.73864847442938" lon="15.101852402859489"><ele>938.3333333333334</ele><time>2026-04-19T08:08:41Z</time></trkpt><trkpt lat="37.73872918205247" lon="15.102043209353885"><ele>935.0</ele><time>2026-04-19T08:08:42Z</time></trkpt><trkpt lat="37.73881135941299" lon="15.102237295585926"><ele>932.6666666666667</ele><time>2026-04-19T08:08:43Z</time></trkpt><trkpt lat="37.738879069497465" lon="15.102440851127492"><ele>930.3333333333333</ele><time>2026-04-19T08:08:44Z</time></trkpt><trkpt lat="37.73892905986485" lon="15.102655232005349"><ele>928.0</ele><time>2026-04-19T08:08:45Z</time></trkpt><trkpt lat="37.73896300424199" lon="15.102882019840365"><ele>928.0</ele><time>2026-04-19T08:08:46Z</time></trkpt><trkpt lat="37.73896791736984" lon="15.103122315194184"><ele>928.0</ele><time>2026-04-19T08:08:47Z</time></trkpt><trkpt lat="37.73895609097981" lon="15.103367275049507"><ele>928.0</ele><time>2026-04-19T08:08:48Z</time></trkpt><trkpt lat="37.73893082124344" lon="15.103620547661304"><ele>926.0</ele><time>2026-04-19T08:08:49Z</time></trkpt><trkpt lat="37.73888126739749" lon="15.103875169199236"><ele>924.0</ele><time>2026-04-19T08:08:50Z</time></trkpt><trkpt lat="37.73881905920913" lon="15.104130137744212"><ele>922.0</ele><time>2026-04-19T08:08:51Z</time></trkpt><trkpt lat="37.73875787680388" lon="15.104391165142049"><ele>919.3333333333333</ele><time>2026-04-19T08:08:52Z</time></trkpt><trkpt lat="37.73870008259835" lon="15.104658397518156"><ele>916.6666666666667</ele><time>2026-04-19T08:08:53Z</time></trkpt><trkpt lat="37.73864072774828" lon="15.104934274832727"><ele>914.0</ele><time>2026-04-19T08:08:54Z</time></trkpt><trkpt lat="37.7385799270538" lon="15.105214073365135"><ele>911.0</ele><time>2026-04-19T08:08:55Z</time></trkpt><trkpt lat="37.73852122862277" lon="15.105486478970679"><ele>908.0</ele><time>2026-04-19T08:08:56Z</time></trkpt><trkpt lat="37.738467270573715" lon="15.10573059270328"><ele>905.0</ele><time>2026-04-19T08:08:57Z</time></trkpt><trkpt lat="37.73841713361002" lon="15.105949416024178"><ele>904.3333333333334</ele><time>2026-04-19T08:08:58Z</time></trkpt><trkpt lat="37.73836218848226" lon="15.10614512407235"><ele>903.6666666666667</ele><time>2026-04-19T08:08:59Z</time></trkpt><trkpt lat="37.73827480609205" lon="15.10631890985762"><ele>903.0</ele><time>2026-04-19T08:09:00Z</time></trkpt><trkpt lat="37.738147855629194" lon="15.106438401014707"><ele>903.0</ele><time>2026-04-19T08:09:01Z</time></trkpt><trkpt lat="37.737994817034064" lon="15.10650072542181"><ele>903.0</ele><time>2026-04-19T08:09:02Z</time></trkpt><trkpt lat="37.73783004252596" lon="15.106525839983764"><ele>903.0</ele><time>2026-04-19T08:09:03Z</time></trkpt><trkpt lat="37.73767542431205" lon="15.106534439870902"><ele>899.5</ele><time>2026-04-19T08:09:04Z</time></trkpt><trkpt lat="37.73753747248318" lon="15.106572291249512"><ele>896.0</ele><time>2026-04-19T08:09:05Z</time></trkpt><trkpt lat="37.73741448127511" lon="15.106653637013057"><ele>892.5</ele><time>2026-04-19T08:09:06Z</time></trkpt><trkpt lat="37.73731842886475" lon="15.106779043585314"><ele>889.0</ele><time>2026-04-19T08:09:07Z</time></trkpt><trkpt lat="37.7372493833757" lon="15.106937099811345"><ele>889.0</ele><time>2026-04-19T08:09:08Z</time></trkpt><trkpt lat="37.737221302108125" lon="15.107121752432581"><ele>889.0</ele><time>2026-04-19T08:09:09Z</time></trkpt><trkpt lat="37.737237539111206" lon="15.10731043482595"><ele>889.0</ele><time>2026-04-19T08:09:10Z</time></trkpt><trkpt lat="37.73729999758567" lon="15.107488751842554"><ele>887.0</ele><time>2026-04-19T08:09:11Z</time></trkpt><trkpt lat="37.7373983938091" lon="15.107653963409057"><ele>885.0</ele><time>2026-04-19T08:09:12Z</time></trkpt><trkpt lat="37.7374898510302" lon="15.107830523138022"><ele>883.0</ele><time>2026-04-19T08:09:13Z</time></trkpt><trkpt lat="37.737544100586895" lon="15.108021436557907"><ele>883.0</ele><time>2026-04-19T08:09:14Z</time></trkpt><trkpt lat="37.73755532702839" lon="15.108214606120876"><ele>883.0</ele><time>2026-04-19T08:09:15Z</time></trkpt><trkpt lat="37.737527953962285" lon="15.108398882100204"><ele>883.0</ele><time>2026-04-19T08:09:16Z</time></trkpt><trkpt lat="37.73746956678888" lon="15.108558629255707"><ele>883.0</ele><time>2026-04-19T08:09:17Z</time></trkpt><trkpt lat="37.73737781399064" lon="15.10869867181297"><ele>883.0</ele><time>2026-04-19T08:09:18Z</time></trkpt><trkpt lat="37.737254216122054" lon="15.108806143671158"><ele>883.0</ele><time>2026-04-19T08:09:19Z</time></trkpt><trkpt lat="37.7371117206294" lon="15.108870291967506"><ele>883.0</ele><time>2026-04-19T08:09:20Z</time></trkpt><trkpt lat="37.736957127977156" lon="15.108896182789913"><ele>880.0</ele><time>2026-04-19T08:09:21Z</time></trkpt><trkpt lat="37.736793523012814" lon="15.108871999012893"><ele>877.0</ele><time>2026-04-19T08:09:22Z</time></trkpt><trkpt lat="37.736632280710495" lon="15.10878933162473"><ele>874.0</ele><time>2026-04-19T08:09:23Z</time></trkpt><trkpt lat="37.736456351598775" lon="15.10869881589781"><ele>874.0</ele><time>2026-04-19T08:09:24Z</time></trkpt><trkpt lat="37.73627862510769" lon="15.108621712381655"><ele>874.0</ele><time>2026-04-19T08:09:25Z</time></trkpt><trkpt lat="37.73611156969739" lon="15.10855773110021"><ele>874.0</ele><time>2026-04-19T08:09:26Z</time></trkpt><trkpt lat="37.73595300348862" lon="15.108513773345948"><ele>872.3333333333333</ele><time>2026-04-19T08:09:27Z</time></trkpt><trkpt lat="37.73579405156614" lon="15.108529699258531"><ele>870.6666666666667</ele><time>2026-04-19T08:09:28Z</time></trkpt><trkpt lat="37.7356463669972" lon="15.108597791763097"><ele>869.0</ele><time>2026-04-19T08:09:29Z</time></trkpt><trkpt lat="37.73552741593466" lon="15.108708889656693"><ele>869.0</ele><time>2026-04-19T08:09:30Z</time></trkpt><trkpt lat="37.73544667474763" lon="15.10887660629485"><ele>869.0</ele><time>2026-04-19T08:09:31Z</time></trkpt><trkpt lat="37.73541331590194" lon="15.10906227120995"><ele>869.0</ele><time>2026-04-19T08:09:32Z</time></trkpt><trkpt lat="37.73539119371685" lon="15.10922393360081"><ele>869.0</ele><time>2026-04-19T08:09:33Z</time></trkpt><trkpt lat="37.73531671926881" lon="15.109369501464116"><ele>864.6666666666667</ele><time>2026-04-19T08:09:34Z</time></trkpt><trkpt lat="37.73518968767532" lon="15.109481161727082"><ele>860.3333333333333</ele><time>2026-04-19T08:09:35Z</time></trkpt><trkpt lat="37.735035805340104" lon="15.109556236077777"><ele>856.0</ele><time>2026-04-19T08:09:36Z</time></trkpt><trkpt lat="37.73487085098841" lon="15.109615492650294"><ele>856.0</ele><time>2026-04-19T08:09:37Z</time></trkpt><trkpt lat="37.73470897518736" lon="15.109688138164207"><ele>856.0</ele><time>2026-04-19T08:09:38Z</time></trkpt><trkpt lat="37.734562134328336" lon="15.109777054475689"><ele>856.0</ele><time>2026-04-19T08:09:39Z</time></trkpt><trkpt lat="37.73443785224258" lon="15.109898593906479"><ele>850.0</ele><time>2026-04-19T08:09:40Z</time></trkpt><trkpt lat="37.73435213101034" lon="15.110059716700864"><ele>844.0</ele><time>2026-04-19T08:09:41Z</time></trkpt><trkpt lat="37.734297397548694" lon="15.110239912156445"><ele>838.0</ele><time>2026-04-19T08:09:42Z</time></trkpt><trkpt lat="37.734283039823026" lon="15.11043722075752"><ele>838.0</ele><time>2026-04-19T08:09:43Z</time></trkpt><trkpt lat="37.73431639176486" lon="15.110636611908856"><ele>838.0</ele><time>2026-04-19T08:09:44Z</time></trkpt><trkpt lat="37.73439961775304" lon="15.110825743734244"><ele>838.0</ele><time>2026-04-19T08:09:45Z</time></trkpt><trkpt lat="37.73450939712827" lon="15.11101053897564"><ele>837.3333333333333</ele><time>2026-04-19T08:09:46Z</time></trkpt><trkpt lat="37.734626579497196" lon="15.111200261009946"><ele>836.6666666666667</ele><time>2026-04-19T08:09:47Z</time></trkpt><trkpt lat="37.73475634367917" lon="15.11139771384767"><ele>836.0</ele><time>2026-04-19T08:09:48Z</time></trkpt><trkpt lat="37.73489026403663" lon="15.111610111246465"><ele>835.0</ele><time>2026-04-19T08:09:49Z</time></trkpt><trkpt lat="37.735010698868294" lon="15.111807284729203"><ele>834.0</ele><time>2026-04-19T08:09:50Z</time></trkpt><trkpt lat="37.73512579557754" lon="15.111990424662771"><ele>833.0</ele><time>2026-04-19T08:09:51Z</time></trkpt><trkpt lat="37.73523435318977" lon="15.112158518526757"><ele>833.0</ele><time>2026-04-19T08:09:52Z</time></trkpt><trkpt lat="37.73533079917858" lon="15.112306022265614"><ele>833.0</ele><time>2026-04-19T08:09:53Z</time></trkpt><trkpt lat="37.735404527095525" lon="15.112434701618021"><ele>833.0</ele><time>2026-04-19T08:09:54Z</time></trkpt><trkpt lat="37.73546543598522" lon="15.112539362386729"><ele>833.0</ele><time>2026-04-19T08:09:55Z</time></trkpt><trkpt lat="37.73551494241979" lon="15.112622692085509"><ele>832.0</ele><time>2026-04-19T08:09:56Z</time></trkpt><trkpt lat="37.73556685858562" lon="15.112716587404991"><ele>831.0</ele><time>2026-04-19T08:09:58Z</time></trkpt><trkpt lat="37.73556254132858" lon="15.112802302066305"><ele>830.0</ele><time>2026-04-19T08:10:00Z</time></trkpt><trkpt lat="37.73548911991354" lon="15.112876338260005"><ele>829.0</ele><time>2026-04-19T08:10:02Z</time></trkpt><trkpt lat="37.735401469924234" lon="15.112930015516366"><ele>828.0</ele><time>2026-04-19T08:10:04Z</time></trkpt><trkpt lat="37.73529829742756" lon="15.112999712473382"><ele>828.0000000000001</ele><time>2026-04-19T08:10:06Z</time></trkpt><trkpt lat="37.73523429016588" lon="15.113028678246017"><ele>828.0</ele><time>2026-04-19T08:10:07Z</time></trkpt><trkpt lat="37.735168177690554" lon="15.113051869345847"><ele>828.0</ele><time>2026-04-19T08:10:08Z</time></trkpt><trkpt lat="37.73509793455732" lon="15.11306720704139"><ele>828.0</ele><time>2026-04-19T08:10:09Z</time></trkpt><trkpt lat="37.73502493524533" lon="15.113081246368266"><ele>828.0</ele><time>2026-04-19T08:10:10Z</time></trkpt><trkpt lat="37.73494561097082" lon="15.113089574588166"><ele>828.0000000000001</ele><time>2026-04-19T08:10:11Z</time></trkpt><trkpt lat="37.73486122901769" lon="15.113086953319266"><ele>828.0</ele><time>2026-04-19T08:10:12Z</time></trkpt><trkpt lat="37.73477240120389" lon="15.113058574906388"><ele>828.2</ele><time>2026-04-19T08:10:13Z</time></trkpt><trkpt lat="37.73469258547574" lon="15.113000734865153"><ele>828.4</ele><time>2026-04-19T08:10:14Z</time></trkpt><trkpt lat="37.73460515224766" lon="15.112905435020176"><ele>828.6</ele><time>2026-04-19T08:10:15Z</time></trkpt><trkpt lat="37.734519991505834" lon="15.112835354035626"><ele>828.8000000000001</ele><time>2026-04-19T08:10:16Z</time></trkpt><trkpt lat="37.73441656402311" lon="15.112754008739513"><ele>829.0</ele><time>2026-04-19T08:10:17Z</time></trkpt><trkpt lat="37.73430947997716" lon="15.112666780524739"><ele>827.75</ele><time>2026-04-19T08:10:18Z</time></trkpt><trkpt lat="37.73421376228334" lon="15.112587843671252"><ele>826.5</ele><time>2026-04-19T08:10:19Z</time></trkpt><trkpt lat="37.734126131998856" lon="15.112502073071408"><ele>825.25</ele><time>2026-04-19T08:10:20Z</time></trkpt><trkpt lat="37.73402675515178" lon="15.11238971311753"><ele>824.0</ele><time>2026-04-19T08:10:21Z</time></trkpt><trkpt lat="37.73395337045729" lon="15.112279638763155"><ele>823.5</ele><time>2026-04-19T08:10:22Z</time></trkpt><trkpt lat="37.7338980981979" lon="15.112136973868195"><ele>823.0</ele><time>2026-04-19T08:10:23Z</time></trkpt><trkpt lat="37.73384309681239" lon="15.111999328288775"><ele>822.5</ele><time>2026-04-19T08:10:24Z</time></trkpt><trkpt lat="37.73379285201446" lon="15.111875720058682"><ele>822.0</ele><time>2026-04-19T08:10:25Z</time></trkpt><trkpt lat="37.73373241285893" lon="15.111777914104406"><ele>822.0</ele><time>2026-04-19T08:10:26Z</time></trkpt><trkpt lat="37.733652039879864" lon="15.111719435869281"><ele>822.0</ele><time>2026-04-19T08:10:27Z</time></trkpt><trkpt lat="37.73354440911217" lon="15.111720452554465"><ele>822.0</ele><time>2026-04-19T08:10:28Z</time></trkpt><trkpt lat="37.73344612583652" lon="15.111787653194353"><ele>822.0</ele><time>2026-04-19T08:10:29Z</time></trkpt><trkpt lat="37.73335689566218" lon="15.111912135905602"><ele>822.0</ele><time>2026-04-19T08:10:30Z</time></trkpt><trkpt lat="37.73326348184875" lon="15.112052852703725"><ele>823.3333333333333</ele><time>2026-04-19T08:10:31Z</time></trkpt><trkpt lat="37.73317771791179" lon="15.112222163390825"><ele>824.6666666666666</ele><time>2026-04-19T08:10:32Z</time></trkpt><trkpt lat="37.73310288945296" lon="15.112417577396437"><ele>826.0</ele><time>2026-04-19T08:10:33Z</time></trkpt><trkpt lat="37.733034602036476" lon="15.11262429114272"><ele>823.0</ele><time>2026-04-19T08:10:34Z</time></trkpt><trkpt lat="37.73297061774251" lon="15.112848514123643"><ele>820.0</ele><time>2026-04-19T08:10:35Z</time></trkpt><trkpt lat="37.73290033363963" lon="15.113076726487119"><ele>817.0</ele><time>2026-04-19T08:10:36Z</time></trkpt><trkpt lat="37.732824491432936" lon="15.113290818974448"><ele>813.0</ele><time>2026-04-19T08:10:37Z</time></trkpt><trkpt lat="37.7327473992151" lon="15.113471536697132"><ele>809.0</ele><time>2026-04-19T08:10:38Z</time></trkpt><trkpt lat="37.73267011124341" lon="15.113597394927059"><ele>805.0</ele><time>2026-04-19T08:10:39Z</time></trkpt><trkpt lat="37.73259055378867" lon="15.113685526662684"><ele>801.0</ele><time>2026-04-19T08:10:40Z</time></trkpt><trkpt lat="37.732483713167305" lon="15.113722405732005"><ele>801.0</ele><time>2026-04-19T08:10:41Z</time></trkpt><trkpt lat="37.73237621293379" lon="15.113707371922391"><ele>801.0</ele><time>2026-04-19T08:10:42Z</time></trkpt><trkpt lat="37.73228640236219" lon="15.113608344618006"><ele>801.0</ele><time>2026-04-19T08:10:43Z</time></trkpt><trkpt lat="37.73226198015853" lon="15.113503817716287"><ele>801.0</ele><time>2026-04-19T08:10:44Z</time></trkpt><trkpt lat="37.73225852606933" lon="15.113370666150589"><ele>801.0</ele><time>2026-04-19T08:10:45Z</time></trkpt><trkpt lat="37.73227694133826" lon="15.113241344800603"><ele>802.5</ele><time>2026-04-19T08:10:46Z</time></trkpt><trkpt lat="37.732300701759186" lon="15.113104255622039"><ele>804.0</ele><time>2026-04-19T08:10:47Z</time></trkpt><trkpt lat="37.73230441650975" lon="15.112953714184272"><ele>805.5</ele><time>2026-04-19T08:10:48Z</time></trkpt><trkpt lat="37.73226583108704" lon="15.11281552199959"><ele>807.0</ele><time>2026-04-19T08:10:49Z</time></trkpt><trkpt lat="37.73218373011178" lon="15.112716865671056"><ele>807.0</ele><time>2026-04-19T08:10:50Z</time></trkpt><trkpt lat="37.732085223376465" lon="15.112672003994138"><ele>807.0</ele><time>2026-04-19T08:10:51Z</time></trkpt><trkpt lat="37.73198159688174" lon="15.112687876215185"><ele>807.0</ele><time>2026-04-19T08:10:52Z</time></trkpt><trkpt lat="37.731882905847165" lon="15.112748476216018"><ele>807.0</ele><time>2026-04-19T08:10:53Z</time></trkpt><trkpt lat="37.73179368318616" lon="15.112845282454462"><ele>807.0</ele><time>2026-04-19T08:10:54Z</time></trkpt><trkpt lat="37.73172183787819" lon="15.112979385881244"><ele>806.0</ele><time>2026-04-19T08:10:55Z</time></trkpt><trkpt lat="37.731639970709" lon="15.113109707197907"><ele>805.0</ele><time>2026-04-19T08:10:56Z</time></trkpt><trkpt lat="37.731543940569054" lon="15.113210561447758"><ele>804.0</ele><time>2026-04-19T08:10:57Z</time></trkpt><trkpt lat="37.73143916945339" lon="15.113289236150964"><ele>803.0</ele><time>2026-04-19T08:10:58Z</time></trkpt><trkpt lat="37.73131573193378" lon="15.113350036096685"><ele>800.5</ele><time>2026-04-19T08:10:59Z</time></trkpt><trkpt lat="37.73118837888778" lon="15.113415767359358"><ele>798.0</ele><time>2026-04-19T08:11:00Z</time></trkpt><trkpt lat="37.73105819129014" lon="15.113440349093853"><ele>795.5</ele><time>2026-04-19T08:11:01Z</time></trkpt><trkpt lat="37.730948026511925" lon="15.11344288043764"><ele>793.0</ele><time>2026-04-19T08:11:02Z</time></trkpt><trkpt lat="37.730858079732634" lon="15.113429263694227"><ele>793.0</ele><time>2026-04-19T08:11:03Z</time></trkpt><trkpt lat="37.73077603671959" lon="15.113389605738021"><ele>793.0</ele><time>2026-04-19T08:11:04Z</time></trkpt><trkpt lat="37.730707654449226" lon="15.113311899668588"><ele>793.0</ele><time>2026-04-19T08:11:05Z</time></trkpt><trkpt lat="37.730645511847285" lon="15.113225426153438"><ele>793.0</ele><time>2026-04-19T08:11:06Z</time></trkpt><trkpt lat="37.73060732090126" lon="15.113114426837232"><ele>793.0</ele><time>2026-04-19T08:11:07Z</time></trkpt><trkpt lat="37.73057995095947" lon="15.112999838258057"><ele>792.2</ele><time>2026-04-19T08:11:08Z</time></trkpt><trkpt lat="37.7305223327134" lon="15.11290705323754"><ele>791.4</ele><time>2026-04-19T08:11:09Z</time></trkpt><trkpt lat="37.73044007656002" lon="15.112843569907405"><ele>790.6</ele><time>2026-04-19T08:11:10Z</time></trkpt><trkpt lat="37.730319303014035" lon="15.112823608673958"><ele>789.8000000000001</ele><time>2026-04-19T08:11:11Z</time></trkpt><trkpt lat="37.730186941598156" lon="15.112817880878984"><ele>789.0</ele><time>2026-04-19T08:11:12Z</time></trkpt><trkpt lat="37.73004932775237" lon="15.112807437252531"><ele>789.0</ele><time>2026-04-19T08:11:13Z</time></trkpt><trkpt lat="37.72990953013723" lon="15.11278325596121"><ele>789.0</ele><time>2026-04-19T08:11:14Z</time></trkpt><trkpt lat="37.72976401297926" lon="15.112760624941835"><ele>789.0</ele><time>2026-04-19T08:11:15Z</time></trkpt><trkpt lat="37.729618976434516" lon="15.112741439167959"><ele>789.0</ele><time>2026-04-19T08:11:16Z</time></trkpt><trkpt lat="37.72947660710353" lon="15.112733928840818"><ele>789.25</ele><time>2026-04-19T08:11:17Z</time></trkpt><trkpt lat="37.72933505302661" lon="15.11272112997433"><ele>789.5</ele><time>2026-04-19T08:11:18Z</time></trkpt><trkpt lat="37.72919685200329" lon="15.112700799235363"><ele>789.75</ele><time>2026-04-19T08:11:19Z</time></trkpt><trkpt lat="37.72906172245137" lon="15.11268517471239"><ele>790.0</ele><time>2026-04-19T08:11:20Z</time></trkpt><trkpt lat="37.728931535756125" lon="15.112680061101038"><ele>790.0</ele><time>2026-04-19T08:11:21Z</time></trkpt><trkpt lat="37.72878744868792" lon="15.112664227555069"><ele>790.0</ele><time>2026-04-19T08:11:22Z</time></trkpt><trkpt lat="37.7286511103193" lon="15.112639140455885"><ele>790.0</ele><time>2026-04-19T08:11:23Z</time></trkpt><trkpt lat="37.72851369173705" lon="15.11261555870657"><ele>790.0</ele><time>2026-04-19T08:11:24Z</time></trkpt><trkpt lat="37.72837361115234" lon="15.112608096629483"><ele>789.3333333333333</ele><time>2026-04-19T08:11:25Z</time></trkpt><trkpt lat="37.72822493150084" lon="15.112609962076812"><ele>788.6666666666667</ele><time>2026-04-19T08:11:26Z</time></trkpt><trkpt lat="37.72807168084846" lon="15.112611105728314"><ele>788.0</ele><time>2026-04-19T08:11:27Z</time></trkpt><trkpt lat="37.72791490479929" lon="15.112617015632594"><ele>788.0</ele><time>2026-04-19T08:11:28Z</time></trkpt><trkpt lat="37.72776021691343" lon="15.112636326770966"><ele>788.0</ele><time>2026-04-19T08:11:29Z</time></trkpt><trkpt lat="37.72761187841182" lon="15.112660091219222"><ele>788.0</ele><time>2026-04-19T08:11:30Z</time></trkpt><trkpt lat="37.727469054880714" lon="15.112699129611098"><ele>786.4</ele><time>2026-04-19T08:11:31Z</time></trkpt><trkpt lat="37.72734334202373" lon="15.112741143636379"><ele>784.8</ele><time>2026-04-19T08:11:32Z</time></trkpt><trkpt lat="37.72725373138267" lon="15.112773909000005"><ele>783.2</ele><time>2026-04-19T08:11:33Z</time></trkpt><trkpt lat="37.72717864855262" lon="15.112843508990416"><ele>781.6</ele><time>2026-04-19T08:11:34Z</time></trkpt><trkpt lat="37.72713162168095" lon="15.112959089449488"><ele>780.0</ele><time>2026-04-19T08:11:35Z</time></trkpt><trkpt lat="37.72710605620463" lon="15.113104963119302"><ele>777.75</ele><time>2026-04-19T08:11:36Z</time></trkpt><trkpt lat="37.727062239081306" lon="15.113255606711641"><ele>775.5</ele><time>2026-04-19T08:11:37Z</time></trkpt><trkpt lat="37.72699950041662" lon="15.113379230990466"><ele>773.25</ele><time>2026-04-19T08:11:38Z</time></trkpt><trkpt lat="37.72694197985874" lon="15.113508987411157"><ele>771.0</ele><time>2026-04-19T08:11:39Z</time></trkpt><trkpt lat="37.72687634588314" lon="15.113627432991152"><ele>769.5999999999999</ele><time>2026-04-19T08:11:40Z</time></trkpt><trkpt lat="37.726816182340286" lon="15.113753815472863"><ele>768.2</ele><time>2026-04-19T08:11:41Z</time></trkpt><trkpt lat="37.72676408218186" lon="15.113879120463409"><ele>766.8</ele><time>2026-04-19T08:11:42Z</time></trkpt><trkpt lat="37.726709432615216" lon="15.113973750230926"><ele>765.4000000000001</ele><time>2026-04-19T08:11:43Z</time></trkpt><trkpt lat="37.726655892579636" lon="15.11401948394492"><ele>764.0</ele><time>2026-04-19T08:11:44Z</time></trkpt><trkpt lat="37.72652299087718" lon="15.113968492203156"><ele>764.0</ele><time>2026-04-19T08:11:46Z</time></trkpt><trkpt lat="37.726490711531135" lon="15.113861291356287"><ele>764.0</ele><time>2026-04-19T08:11:47Z</time></trkpt><trkpt lat="37.726488216091894" lon="15.113747962178618"><ele>764.0</ele><time>2026-04-19T08:11:48Z</time></trkpt><trkpt lat="37.72645923549409" lon="15.113617050820741"><ele>764.0</ele><time>2026-04-19T08:11:49Z</time></trkpt><trkpt lat="37.726421066564015" lon="15.113476584949156"><ele>764.0</ele><time>2026-04-19T08:11:50Z</time></trkpt><trkpt lat="37.726367952644466" lon="15.113362028841989"><ele>764.0</ele><time>2026-04-19T08:11:51Z</time></trkpt><trkpt lat="37.72628315060945" lon="15.113266755414696"><ele>764.0</ele><time>2026-04-19T08:11:52Z</time></trkpt><trkpt lat="37.726187447579555" lon="15.11319629388551"><ele>764.0</ele><time>2026-04-19T08:11:53Z</time></trkpt><trkpt lat="37.726103944413005" lon="15.113143885908851"><ele>764.0</ele><time>2026-04-19T08:11:54Z</time></trkpt><trkpt lat="37.725999034792586" lon="15.113136889840641"><ele>764.0</ele><time>2026-04-19T08:11:55Z</time></trkpt><trkpt lat="37.72588789298221" lon="15.113173246911472"><ele>764.75</ele><time>2026-04-19T08:11:56Z</time></trkpt><trkpt lat="37.72577966171809" lon="15.113235069024068"><ele>765.5</ele><time>2026-04-19T08:11:57Z</time></trkpt><trkpt lat="37.72568163839199" lon="15.113320442617143"><ele>766.25</ele><time>2026-04-19T08:11:58Z</time></trkpt><trkpt lat="37.725606237976756" lon="15.11341478556721"><ele>767.0</ele><time>2026-04-19T08:11:59Z</time></trkpt><trkpt lat="37.725565446785275" lon="15.113546376977155"><ele>765.4000000000001</ele><time>2026-04-19T08:12:00Z</time></trkpt><trkpt lat="37.725537200725036" lon="15.113672296956329"><ele>763.8000000000001</ele><time>2026-04-19T08:12:01Z</time></trkpt><trkpt lat="37.725473219156285" lon="15.11375729361561"><ele>762.2</ele><time>2026-04-19T08:12:02Z</time></trkpt><trkpt lat="37.725409922250364" lon="15.113839330533464"><ele>760.6</ele><time>2026-04-19T08:12:03Z</time></trkpt><trkpt lat="37.7253535857054" lon="15.113922105905415"><ele>759.0</ele><time>2026-04-19T08:12:04Z</time></trkpt><trkpt lat="37.72535768689388" lon="15.114049163787515"><ele>758.8000000000001</ele><time>2026-04-19T08:12:05Z</time></trkpt><trkpt lat="37.7253195046468" lon="15.114136930609925"><ele>758.6</ele><time>2026-04-19T08:12:06Z</time></trkpt><trkpt lat="37.72518299122069" lon="15.114161609543494"><ele>758.4</ele><time>2026-04-19T08:12:07Z</time></trkpt><trkpt lat="37.72509209056324" lon="15.114223010739163"><ele>758.2</ele><time>2026-04-19T08:12:08Z</time></trkpt><trkpt lat="37.72499865300499" lon="15.114293407443181"><ele>758.0</ele><time>2026-04-19T08:12:09Z</time></trkpt><trkpt lat="37.724899021738516" lon="15.114365739711449"><ele>758.0</ele><time>2026-04-19T08:12:10Z</time></trkpt><trkpt lat="37.72479834929797" lon="15.114433195680592"><ele>758.0</ele><time>2026-04-19T08:12:11Z</time></trkpt><trkpt lat="37.724702530907045" lon="15.11449994697175"><ele>758.0</ele><time>2026-04-19T08:12:12Z</time></trkpt><trkpt lat="37.72460675133427" lon="15.114549688481507"><ele>758.0</ele><time>2026-04-19T08:12:13Z</time></trkpt><trkpt lat="37.72450473030544" lon="15.114571103965236"><ele>758.0</ele><time>2026-04-19T08:12:14Z</time></trkpt><trkpt lat="37.72440392657137" lon="15.114574674382734"><ele>757.5999999999999</ele><time>2026-04-19T08:12:15Z</time></trkpt><trkpt lat="37.72429605146748" lon="15.114543394058156"><ele>757.1999999999999</ele><time>2026-04-19T08:12:16Z</time></trkpt><trkpt lat="37.724198360193235" lon="15.114522099650411"><ele>756.8</ele><time>2026-04-19T08:12:17Z</time></trkpt><trkpt lat="37.724088216371" lon="15.114526284411813"><ele>756.4</ele><time>2026-04-19T08:12:18Z</time></trkpt><trkpt lat="37.723980695383815" lon="15.114520249397422"><ele>756.0</ele><time>2026-04-19T08:12:19Z</time></trkpt><trkpt lat="37.723880417684136" lon="15.11446953776404"><ele>756.0</ele><time>2026-04-19T08:12:20Z</time></trkpt><trkpt lat="37.72377214690658" lon="15.114442913283735"><ele>756.0</ele><time>2026-04-19T08:12:21Z</time></trkpt><trkpt lat="37.72365659962027" lon="15.114434312797279"><ele>756.0</ele><time>2026-04-19T08:12:22Z</time></trkpt><trkpt lat="37.72355311216604" lon="15.114413604454972"><ele>756.0</ele><time>2026-04-19T08:12:23Z</time></trkpt><trkpt lat="37.72344640591323" lon="15.114363378200563"><ele>756.0</ele><time>2026-04-19T08:12:24Z</time></trkpt><trkpt lat="37.72333685484792" lon="15.114316543596075"><ele>756.0</ele><time>2026-04-19T08:12:25Z</time></trkpt><trkpt lat="37.723231496807124" lon="15.11428361769221"><ele>756.0</ele><time>2026-04-19T08:12:26Z</time></trkpt><trkpt lat="37.72312034248454" lon="15.114259257755915"><ele>756.0</ele><time>2026-04-19T08:12:27Z</time></trkpt><trkpt lat="37.7230240615623" lon="15.11426055517396"><ele>756.0</ele><time>2026-04-19T08:12:28Z</time></trkpt><trkpt lat="37.72291069027342" lon="15.114312217005674"><ele>756.0</ele><time>2026-04-19T08:12:29Z</time></trkpt><trkpt lat="37.72282917395239" lon="15.114383411900931"><ele>756.0</ele><time>2026-04-19T08:12:30Z</time></trkpt><trkpt lat="37.72276286184846" lon="15.114475884575663"><ele>756.0</ele><time>2026-04-19T08:12:31Z</time></trkpt><trkpt lat="37.722706677122154" lon="15.114583491690414"><ele>756.0</ele><time>2026-04-19T08:12:32Z</time></trkpt><trkpt lat="37.72265826359847" lon="15.114707333387488"><ele>756.0</ele><time>2026-04-19T08:12:33Z</time></trkpt><trkpt lat="37.72259881035907" lon="15.114828501959028"><ele>756.0</ele><time>2026-04-19T08:12:34Z</time></trkpt><trkpt lat="37.722529885001464" lon="15.114953317899023"><ele>752.0</ele><time>2026-04-19T08:12:35Z</time></trkpt><trkpt lat="37.72246330249356" lon="15.115085244074333"><ele>748.0</ele><time>2026-04-19T08:12:36Z</time></trkpt><trkpt lat="37.7223972424059" lon="15.115219885985992"><ele>744.0</ele><time>2026-04-19T08:12:37Z</time></trkpt><trkpt lat="37.722330575770684" lon="15.115355467177796"><ele>740.0</ele><time>2026-04-19T08:12:38Z</time></trkpt><trkpt lat="37.72226563302272" lon="15.115486100676103"><ele>740.0</ele><time>2026-04-19T08:12:39Z</time></trkpt><trkpt lat="37.72220308051801" lon="15.115612276418089"><ele>740.0</ele><time>2026-04-19T08:12:40Z</time></trkpt><trkpt lat="37.72214693301753" lon="15.115727465340674"><ele>740.0</ele><time>2026-04-19T08:12:41Z</time></trkpt><trkpt lat="37.72208544009915" lon="15.115837433615315"><ele>740.0</ele><time>2026-04-19T08:12:42Z</time></trkpt><trkpt lat="37.72202503570424" lon="15.115951397063073"><ele>740.0</ele><time>2026-04-19T08:12:43Z</time></trkpt><trkpt lat="37.72196654997451" lon="15.116060347884206"><ele>738.2</ele><time>2026-04-19T08:12:44Z</time></trkpt><trkpt lat="37.72190593384684" lon="15.116167506779686"><ele>736.4</ele><time>2026-04-19T08:12:45Z</time></trkpt><trkpt lat="37.72185238171877" lon="15.116276111312416"><ele>734.5999999999999</ele><time>2026-04-19T08:12:46Z</time></trkpt><trkpt lat="37.72180062833366" lon="15.116377909084003"><ele>732.8</ele><time>2026-04-19T08:12:47Z</time></trkpt><trkpt lat="37.72175280864987" lon="15.11647495601122"><ele>731.0</ele><time>2026-04-19T08:12:48Z</time></trkpt><trkpt lat="37.721701717911046" lon="15.116563359410499"><ele>729.1999999999999</ele><time>2026-04-19T08:12:49Z</time></trkpt><trkpt lat="37.721646202806795" lon="15.116646831618397"><ele>727.4</ele><time>2026-04-19T08:12:50Z</time></trkpt><trkpt lat="37.72158482457536" lon="15.116713580458926"><ele>725.6</ele><time>2026-04-19T08:12:51Z</time></trkpt><trkpt lat="37.721465053274486" lon="15.116676830431675"><ele>723.8</ele><time>2026-04-19T08:12:52Z</time></trkpt><trkpt lat="37.721376759874325" lon="15.116682571421064"><ele>722.0</ele><time>2026-04-19T08:12:53Z</time></trkpt><trkpt lat="37.72128701766879" lon="15.116682412581673"><ele>722.0</ele><time>2026-04-19T08:12:54Z</time></trkpt><trkpt lat="37.72119719676526" lon="15.116677375996245"><ele>722.0</ele><time>2026-04-19T08:12:55Z</time></trkpt><trkpt lat="37.721125969733706" lon="15.116675045552276"><ele>722.0</ele><time>2026-04-19T08:12:56Z</time></trkpt><trkpt lat="37.72105090581713" lon="15.116709723255319"><ele>722.0</ele><time>2026-04-19T08:12:58Z</time></trkpt><trkpt lat="37.72105458119206" lon="15.116806153354645"><ele>722.0</ele><time>2026-04-19T08:13:02Z</time></trkpt><trkpt lat="37.72101371967373" lon="15.116870065301526"><ele>722.0</ele><time>2026-04-19T08:13:06Z</time></trkpt><trkpt lat="37.72093610945073" lon="15.116880677335036"><ele>721.0</ele><time>2026-04-19T08:13:09Z</time></trkpt><trkpt lat="37.72101929673438" lon="15.116900003136456"><ele>720.0</ele><time>2026-04-19T08:13:10Z</time></trkpt><trkpt lat="37.720890269796676" lon="15.116855288962103"><ele>719.0</ele><time>2026-04-19T08:13:11Z</time></trkpt><trkpt lat="37.720841514191726" lon="15.116932945276297"><ele>718.0</ele><time>2026-04-19T08:13:14Z</time></trkpt><trkpt lat="37.72076467541958" lon="15.116951544413185"><ele>717.0</ele><time>2026-04-19T08:13:18Z</time></trkpt><trkpt lat="37.72072096368173" lon="15.116875813777186"><ele>716.0</ele><time>2026-04-19T08:16:23Z</time></trkpt><trkpt lat="37.720651979783014" lon="15.116825057331337"><ele>716.0</ele><time>2026-04-19T08:16:25Z</time></trkpt><trkpt lat="37.720568799938725" lon="15.116782887308018"><ele>716.0</ele><time>2026-04-19T08:16:28Z</time></trkpt><trkpt lat="37.72051105728617" lon="15.116714532694928"><ele>716.0</ele><time>2026-04-19T08:16:30Z</time></trkpt><trkpt lat="37.72042444946798" lon="15.116691604195484"><ele>716.0</ele><time>2026-04-19T08:16:32Z</time></trkpt><trkpt lat="37.720329995932254" lon="15.116692034339215"><ele>716.0</ele><time>2026-04-19T08:16:34Z</time></trkpt><trkpt lat="37.72026274015603" lon="15.116680664213678"><ele>716.0</ele><time>2026-04-19T08:16:35Z</time></trkpt><trkpt lat="37.72017840581731" lon="15.116660580711654"><ele>715.4</ele><time>2026-04-19T08:16:36Z</time></trkpt><trkpt lat="37.72007554138498" lon="15.116638032406966"><ele>714.8</ele><time>2026-04-19T08:16:37Z</time></trkpt><trkpt lat="37.719977634871334" lon="15.116606933091038"><ele>714.1999999999999</ele><time>2026-04-19T08:16:38Z</time></trkpt><trkpt lat="37.719876524154664" lon="15.116579114007187"><ele>713.5999999999999</ele><time>2026-04-19T08:16:39Z</time></trkpt><trkpt lat="37.71975027235654" lon="15.116545959249109"><ele>713.0</ele><time>2026-04-19T08:16:40Z</time></trkpt><trkpt lat="37.71963299870215" lon="15.116518668948544"><ele>715.0</ele><time>2026-04-19T08:16:41Z</time></trkpt><trkpt lat="37.71951283559323" lon="15.116483640524576"><ele>717.0</ele><time>2026-04-19T08:16:42Z</time></trkpt><trkpt lat="37.71939871999042" lon="15.116452575257942"><ele>719.0</ele><time>2026-04-19T08:16:43Z</time></trkpt><trkpt lat="37.71928403439906" lon="15.116436454544607"><ele>721.0</ele><time>2026-04-19T08:16:44Z</time></trkpt><trkpt lat="37.71917933317911" lon="15.11641112230917"><ele>721.0</ele><time>2026-04-19T08:16:45Z</time></trkpt><trkpt lat="37.71908935669694" lon="15.116382143065676"><ele>721.0</ele><time>2026-04-19T08:16:46Z</time></trkpt><trkpt lat="37.71900490978314" lon="15.116416919887037"><ele>721.0</ele><time>2026-04-19T08:16:47Z</time></trkpt><trkpt lat="37.71890074987205" lon="15.116497720349694"><ele>721.0</ele><time>2026-04-19T08:16:48Z</time></trkpt><trkpt lat="37.71880434671032" lon="15.116618556429504"><ele>721.0</ele><time>2026-04-19T08:16:49Z</time></trkpt><trkpt lat="37.718728301589984" lon="15.116767856159763"><ele>718.0</ele><time>2026-04-19T08:16:50Z</time></trkpt><trkpt lat="37.7186732902521" lon="15.116953538279626"><ele>715.0</ele><time>2026-04-19T08:16:51Z</time></trkpt><trkpt lat="37.7186166587779" lon="15.117102475669391"><ele>712.0</ele><time>2026-04-19T08:16:52Z</time></trkpt><trkpt lat="37.718569320164896" lon="15.117267755550936"><ele>709.0</ele><time>2026-04-19T08:16:53Z</time></trkpt><trkpt lat="37.71851660533684" lon="15.117381809746368"><ele>707.0</ele><time>2026-04-19T08:16:54Z</time></trkpt><trkpt lat="37.71843732282265" lon="15.117484574471915"><ele>705.0</ele><time>2026-04-19T08:16:55Z</time></trkpt><trkpt lat="37.71835357106568" lon="15.117522527377469"><ele>703.0</ele><time>2026-04-19T08:16:56Z</time></trkpt><trkpt lat="37.718259897654534" lon="15.117504028186465"><ele>701.0</ele><time>2026-04-19T08:16:57Z</time></trkpt><trkpt lat="37.7181752534472" lon="15.11747898963832"><ele>699.0</ele><time>2026-04-19T08:16:58Z</time></trkpt><trkpt lat="37.71807561280546" lon="15.117440450860055"><ele>701.25</ele><time>2026-04-19T08:16:59Z</time></trkpt><trkpt lat="37.7179667743455" lon="15.117368879291082"><ele>703.5</ele><time>2026-04-19T08:17:00Z</time></trkpt><trkpt lat="37.71787455284171" lon="15.117279219912204"><ele>705.75</ele><time>2026-04-19T08:17:01Z</time></trkpt><trkpt lat="37.717803226344344" lon="15.117150824185812"><ele>708.0</ele><time>2026-04-19T08:17:02Z</time></trkpt><trkpt lat="37.71775008689458" lon="15.116988691187807"><ele>704.3333333333334</ele><time>2026-04-19T08:17:03Z</time></trkpt><trkpt lat="37.717674197134926" lon="15.116818613623872"><ele>700.6666666666667</ele><time>2026-04-19T08:17:04Z</time></trkpt><trkpt lat="37.71759503077275" lon="15.116649380892051"><ele>697.0</ele><time>2026-04-19T08:17:05Z</time></trkpt><trkpt lat="37.71751291609154" lon="15.116477983303296"><ele>697.0</ele><time>2026-04-19T08:17:06Z</time></trkpt><trkpt lat="37.717426673500384" lon="15.11630534340023"><ele>697.0</ele><time>2026-04-19T08:17:07Z</time></trkpt><trkpt lat="37.717328104956984" lon="15.116123536030853"><ele>697.0</ele><time>2026-04-19T08:17:08Z</time></trkpt><trkpt lat="37.71727592371824" lon="15.115948143717024"><ele>697.0</ele><time>2026-04-19T08:17:09Z</time></trkpt><trkpt lat="37.717202519765365" lon="15.11579574072263"><ele>697.0</ele><time>2026-04-19T08:17:10Z</time></trkpt><trkpt lat="37.717102476796285" lon="15.115682575044545"><ele>697.0</ele><time>2026-04-19T08:17:11Z</time></trkpt><trkpt lat="37.71698707950777" lon="15.115617386753424"><ele>697.0</ele><time>2026-04-19T08:17:12Z</time></trkpt><trkpt lat="37.716869758426974" lon="15.115593707006889"><ele>697.75</ele><time>2026-04-19T08:17:13Z</time></trkpt><trkpt lat="37.71674376155491" lon="15.115605676509217"><ele>698.5</ele><time>2026-04-19T08:17:14Z</time></trkpt><trkpt lat="37.71661333386833" lon="15.115657099920401"><ele>699.25</ele><time>2026-04-19T08:17:15Z</time></trkpt><trkpt lat="37.71647409203877" lon="15.115742462566155"><ele>700.0</ele><time>2026-04-19T08:17:16Z</time></trkpt><trkpt lat="37.71633538703392" lon="15.11586447912284"><ele>696.6666666666667</ele><time>2026-04-19T08:17:17Z</time></trkpt><trkpt lat="37.71617850566285" lon="15.116001433431622"><ele>693.3333333333334</ele><time>2026-04-19T08:17:18Z</time></trkpt><trkpt lat="37.71598633633489" lon="15.116116560880805"><ele>690.0</ele><time>2026-04-19T08:17:19Z</time></trkpt><trkpt lat="37.71578815051491" lon="15.116247447470059"><ele>687.5</ele><time>2026-04-19T08:17:20Z</time></trkpt><trkpt lat="37.71557037159226" lon="15.116410219919215"><ele>685.0</ele><time>2026-04-19T08:17:21Z</time></trkpt><trkpt lat="37.715343327557186" lon="15.116538226493308"><ele>676.5</ele><time>2026-04-19T08:17:22Z</time></trkpt><trkpt lat="37.71512671744332" lon="15.116660933768236"><ele>668.0</ele><time>2026-04-19T08:17:23Z</time></trkpt><trkpt lat="37.71491945607874" lon="15.116777411286897"><ele>668.0</ele><time>2026-04-19T08:17:24Z</time></trkpt><trkpt lat="37.714724111491336" lon="15.116897058624629"><ele>668.0</ele><time>2026-04-19T08:17:25Z</time></trkpt><trkpt lat="37.71454163272018" lon="15.11701816244212"><ele>668.0</ele><time>2026-04-19T08:17:26Z</time></trkpt><trkpt lat="37.71436918956705" lon="15.117122097607579"><ele>666.6666666666666</ele><time>2026-04-19T08:17:27Z</time></trkpt><trkpt lat="37.714200875255166" lon="15.11719286194684"><ele>665.3333333333334</ele><time>2026-04-19T08:17:28Z</time></trkpt><trkpt lat="37.71403667483772" lon="15.117223005485297"><ele>664.0</ele><time>2026-04-19T08:17:29Z</time></trkpt><trkpt lat="37.71387226826266" lon="15.11723720208231"><ele>664.0</ele><time>2026-04-19T08:17:30Z</time></trkpt><trkpt lat="37.71372090391451" lon="15.117246710727828"><ele>664.0</ele><time>2026-04-19T08:17:31Z</time></trkpt><trkpt lat="37.71359465639596" lon="15.117226356375767"><ele>664.0</ele><time>2026-04-19T08:17:32Z</time></trkpt><trkpt lat="37.7134914022813" lon="15.117168908783691"><ele>664.0</ele><time>2026-04-19T08:17:33Z</time></trkpt><trkpt lat="37.71340687882763" lon="15.117068903126954"><ele>664.5</ele><time>2026-04-19T08:17:34Z</time></trkpt><trkpt lat="37.71333423265793" lon="15.116951645843411"><ele>665.0</ele><time>2026-04-19T08:17:35Z</time></trkpt><trkpt lat="37.713262322176455" lon="15.116813057675737"><ele>665.5</ele><time>2026-04-19T08:17:36Z</time></trkpt><trkpt lat="37.71318520680903" lon="15.116642586423687"><ele>666.0</ele><time>2026-04-19T08:17:37Z</time></trkpt><trkpt lat="37.71309780478421" lon="15.116467210907842"><ele>666.0</ele><time>2026-04-19T08:17:38Z</time></trkpt><trkpt lat="37.7130141300199" lon="15.11628983553359"><ele>666.0</ele><time>2026-04-19T08:17:39Z</time></trkpt><trkpt lat="37.71292898029725" lon="15.116127259077993"><ele>666.0</ele><time>2026-04-19T08:17:40Z</time></trkpt><trkpt lat="37.712825950226346" lon="15.115994836791367"><ele>664.0</ele><time>2026-04-19T08:17:41Z</time></trkpt><trkpt lat="37.7126961775786" lon="15.115921206165607"><ele>662.0</ele><time>2026-04-19T08:17:42Z</time></trkpt><trkpt lat="37.71256884217055" lon="15.115903276837152"><ele>660.0</ele><time>2026-04-19T08:17:43Z</time></trkpt><trkpt lat="37.712438344312964" lon="15.115944117821043"><ele>658.0</ele><time>2026-04-19T08:17:44Z</time></trkpt><trkpt lat="37.71230405436796" lon="15.116024485703239"><ele>658.0</ele><time>2026-04-19T08:17:45Z</time></trkpt><trkpt lat="37.71217142626551" lon="15.11613334367035"><ele>658.0</ele><time>2026-04-19T08:17:46Z</time></trkpt><trkpt lat="37.71204036910189" lon="15.116263956113258"><ele>658.0</ele><time>2026-04-19T08:17:47Z</time></trkpt><trkpt lat="37.711904288050036" lon="15.11639005687853"><ele>658.25</ele><time>2026-04-19T08:17:48Z</time></trkpt><trkpt lat="37.71178196228931" lon="15.116492268196989"><ele>658.5</ele><time>2026-04-19T08:17:49Z</time></trkpt><trkpt lat="37.71166305987907" lon="15.116592684576224"><ele>658.75</ele><time>2026-04-19T08:17:50Z</time></trkpt><trkpt lat="37.71155386762276" lon="15.116692059160211"><ele>659.0</ele><time>2026-04-19T08:17:51Z</time></trkpt><trkpt lat="37.71143644094676" lon="15.116743274471247"><ele>659.0</ele><time>2026-04-19T08:17:52Z</time></trkpt><trkpt lat="37.711338259549194" lon="15.116745200921484"><ele>659.0</ele><time>2026-04-19T08:17:53Z</time></trkpt><trkpt lat="37.71125649253043" lon="15.116697371530169"><ele>659.0</ele><time>2026-04-19T08:17:54Z</time></trkpt><trkpt lat="37.71117975800368" lon="15.116622425056066"><ele>659.0</ele><time>2026-04-19T08:17:55Z</time></trkpt><trkpt lat="37.71109579599443" lon="15.116559523017372"><ele>659.0</ele><time>2026-04-19T08:17:56Z</time></trkpt><trkpt lat="37.71099952279225" lon="15.116485128105719"><ele>657.0</ele><time>2026-04-19T08:17:57Z</time></trkpt><trkpt lat="37.71090175735577" lon="15.116417053460328"><ele>655.0</ele><time>2026-04-19T08:17:58Z</time></trkpt><trkpt lat="37.7108180005544" lon="15.11635175286353"><ele>653.0</ele><time>2026-04-19T08:17:59Z</time></trkpt><trkpt lat="37.71074286047376" lon="15.116269571707535"><ele>651.0</ele><time>2026-04-19T08:18:00Z</time></trkpt><trkpt lat="37.71067265139085" lon="15.11621233949062"><ele>649.0</ele><time>2026-04-19T08:18:01Z</time></trkpt><trkpt lat="37.710596026177235" lon="15.116158916881048"><ele>649.0</ele><time>2026-04-19T08:18:02Z</time></trkpt><trkpt lat="37.71052450221639" lon="15.116117419903127"><ele>649.0</ele><time>2026-04-19T08:18:03Z</time></trkpt><trkpt lat="37.71045793894507" lon="15.116093055114522"><ele>649.0</ele><time>2026-04-19T08:18:04Z</time></trkpt><trkpt lat="37.71033182127693" lon="15.116105195245966"><ele>649.0</ele><time>2026-04-19T08:18:06Z</time></trkpt><trkpt lat="37.71026373365427" lon="15.116102088279657"><ele>649.0</ele><time>2026-04-19T08:18:07Z</time></trkpt><trkpt lat="37.710196827751275" lon="15.116140110080742"><ele>649.0</ele><time>2026-04-19T08:18:08Z</time></trkpt><trkpt lat="37.710119613969844" lon="15.11615083047276"><ele>648.0</ele><time>2026-04-19T08:18:09Z</time></trkpt><trkpt lat="37.71004559715963" lon="15.116160503802707"><ele>647.0</ele><time>2026-04-19T08:18:10Z</time></trkpt><trkpt lat="37.70996804409533" lon="15.116164198645338"><ele>646.0</ele><time>2026-04-19T08:18:11Z</time></trkpt><trkpt lat="37.70988365114514" lon="15.116157064714612"><ele>645.0</ele><time>2026-04-19T08:18:12Z</time></trkpt><trkpt lat="37.70980043580572" lon="15.116132660812733"><ele>644.0</ele><time>2026-04-19T08:18:13Z</time></trkpt><trkpt lat="37.70972776383361" lon="15.116088098641468"><ele>643.0</ele><time>2026-04-19T08:18:14Z</time></trkpt><trkpt lat="37.7096570110779" lon="15.116051367514295"><ele>643.0</ele><time>2026-04-19T08:18:15Z</time></trkpt><trkpt lat="37.70958619770026" lon="15.116026049848438"><ele>643.0</ele><time>2026-04-19T08:18:16Z</time></trkpt><trkpt lat="37.70952019011793" lon="15.116025219650066"><ele>643.0</ele><time>2026-04-19T08:18:17Z</time></trkpt><trkpt lat="37.709396480061514" lon="15.116076172483233"><ele>643.0</ele><time>2026-04-19T08:18:19Z</time></trkpt><trkpt lat="37.709336087973554" lon="15.11610481151235"><ele>643.0</ele><time>2026-04-19T08:18:20Z</time></trkpt><trkpt lat="37.70927736178527" lon="15.116141525418934"><ele>643.0</ele><time>2026-04-19T08:18:21Z</time></trkpt><trkpt lat="37.709204134030465" lon="15.116174700380961"><ele>639.5</ele><time>2026-04-19T08:18:22Z</time></trkpt><trkpt lat="37.70910710018371" lon="15.116220277484443"><ele>636.0</ele><time>2026-04-19T08:18:23Z</time></trkpt><trkpt lat="37.70899710309501" lon="15.11628429183178"><ele>632.5</ele><time>2026-04-19T08:18:24Z</time></trkpt><trkpt lat="37.70887321543222" lon="15.116355969278937"><ele>629.0</ele><time>2026-04-19T08:18:25Z</time></trkpt><trkpt lat="37.70873631799206" lon="15.116432908819299"><ele>629.0</ele><time>2026-04-19T08:18:26Z</time></trkpt><trkpt lat="37.70860025219892" lon="15.116546894804527"><ele>629.0</ele><time>2026-04-19T08:18:27Z</time></trkpt><trkpt lat="37.70848106063144" lon="15.116662463548646"><ele>629.0</ele><time>2026-04-19T08:18:28Z</time></trkpt><trkpt lat="37.70836573422592" lon="15.116776867975851"><ele>625.25</ele><time>2026-04-19T08:18:29Z</time></trkpt><trkpt lat="37.70824066035436" lon="15.116896056604286"><ele>621.5</ele><time>2026-04-19T08:18:30Z</time></trkpt><trkpt lat="37.708133495645065" lon="15.117011044261599"><ele>617.75</ele><time>2026-04-19T08:18:31Z</time></trkpt><trkpt lat="37.70803799403281" lon="15.117142584931445"><ele>614.0</ele><time>2026-04-19T08:18:32Z</time></trkpt><trkpt lat="37.707946483289575" lon="15.117256710388016"><ele>614.0</ele><time>2026-04-19T08:18:33Z</time></trkpt><trkpt lat="37.70786464879883" lon="15.117360237165494"><ele>614.0</ele><time>2026-04-19T08:18:34Z</time></trkpt><trkpt lat="37.707797672953866" lon="15.117436262381222"><ele>614.0</ele><time>2026-04-19T08:18:35Z</time></trkpt><trkpt lat="37.70773252895418" lon="15.117480474834835"><ele>614.0</ele><time>2026-04-19T08:18:36Z</time></trkpt><trkpt lat="37.70763599706638" lon="15.117458481839023"><ele>614.0</ele><time>2026-04-19T08:18:38Z</time></trkpt><trkpt lat="37.70759987155788" lon="15.1173430232877"><ele>614.0</ele><time>2026-04-19T08:18:40Z</time></trkpt><trkpt lat="37.70761971572877" lon="15.117266101769584"><ele>614.0</ele><time>2026-04-19T08:18:41Z</time></trkpt><trkpt lat="37.70766760405202" lon="15.117179499269453"><ele>614.0</ele><time>2026-04-19T08:18:42Z</time></trkpt><trkpt lat="37.70773657907563" lon="15.117084664962464"><ele>614.0</ele><time>2026-04-19T08:18:43Z</time></trkpt><trkpt lat="37.7078033909169" lon="15.116983501081943"><ele>614.0</ele><time>2026-04-19T08:18:44Z</time></trkpt><trkpt lat="37.707877052917766" lon="15.116877372021087"><ele>614.0</ele><time>2026-04-19T08:18:45Z</time></trkpt><trkpt lat="37.707949581468576" lon="15.116772365385637"><ele>614.0</ele><time>2026-04-19T08:18:46Z</time></trkpt><trkpt lat="37.70801591504871" lon="15.116682887491331"><ele>614.0</ele><time>2026-04-19T08:18:47Z</time></trkpt><trkpt lat="37.70807869152621" lon="15.116595242375888"><ele>614.0</ele><time>2026-04-19T08:18:48Z</time></trkpt><trkpt lat="37.708137133246005" lon="15.11650475590969"><ele>614.0</ele><time>2026-04-19T08:18:49Z</time></trkpt><trkpt lat="37.70818742457579" lon="15.116416475004248"><ele>614.8</ele><time>2026-04-19T08:18:50Z</time></trkpt><trkpt lat="37.70821484644968" lon="15.116323294246238"><ele>615.5999999999999</ele><time>2026-04-19T08:18:51Z</time></trkpt><trkpt lat="37.70821362941933" lon="15.11621086453981"><ele>616.4</ele><time>2026-04-19T08:18:52Z</time></trkpt><trkpt lat="37.7081644341809" lon="15.116112888647022"><ele>617.1999999999999</ele><time>2026-04-19T08:18:53Z</time></trkpt><trkpt lat="37.70808061253314" lon="15.116036533685788"><ele>618.0</ele><time>2026-04-19T08:18:54Z</time></trkpt><trkpt lat="37.70797380919024" lon="15.116002154835616"><ele>618.0</ele><time>2026-04-19T08:18:55Z</time></trkpt><trkpt lat="37.70786440872925" lon="15.11601811401549"><ele>618.0</ele><time>2026-04-19T08:18:56Z</time></trkpt><trkpt lat="37.707775498292754" lon="15.116078571542996"><ele>618.0</ele><time>2026-04-19T08:18:57Z</time></trkpt><trkpt lat="37.70770293560517" lon="15.116154724689956"><ele>618.0</ele><time>2026-04-19T08:18:58Z</time></trkpt><trkpt lat="37.70763852081626" lon="15.116245937856693"><ele>618.0</ele><time>2026-04-19T08:18:59Z</time></trkpt><trkpt lat="37.70756927558422" lon="15.116323002116914"><ele>616.3333333333334</ele><time>2026-04-19T08:19:00Z</time></trkpt><trkpt lat="37.70749422461133" lon="15.116379040573884"><ele>614.6666666666666</ele><time>2026-04-19T08:19:01Z</time></trkpt><trkpt lat="37.70743013139697" lon="15.116414918535812"><ele>613.0</ele><time>2026-04-19T08:19:02Z</time></trkpt><trkpt lat="37.70735136914135" lon="15.116392546244755"><ele>611.3333333333333</ele><time>2026-04-19T08:19:03Z</time></trkpt><trkpt lat="37.70728300009889" lon="15.116355068653965"><ele>609.6666666666666</ele><time>2026-04-19T08:19:04Z</time></trkpt><trkpt lat="37.707202054500485" lon="15.11629428443108"><ele>608.0</ele><time>2026-04-19T08:19:05Z</time></trkpt><trkpt lat="37.70712071341001" lon="15.116242746303627"><ele>608.0</ele><time>2026-04-19T08:19:06Z</time></trkpt><trkpt lat="37.70702209297414" lon="15.116196595826805"><ele>608.0</ele><time>2026-04-19T08:19:07Z</time></trkpt><trkpt lat="37.70691304966794" lon="15.116192061792093"><ele>608.0</ele><time>2026-04-19T08:19:08Z</time></trkpt><trkpt lat="37.706815345649005" lon="15.116207845018922"><ele>608.0</ele><time>2026-04-19T08:19:09Z</time></trkpt><trkpt lat="37.70672676682985" lon="15.11624555156811"><ele>608.0</ele><time>2026-04-19T08:19:10Z</time></trkpt><trkpt lat="37.70666104624898" lon="15.11631895900272"><ele>606.1999999999999</ele><time>2026-04-19T08:19:11Z</time></trkpt><trkpt lat="37.70660330871536" lon="15.11640743771981"><ele>604.4</ele><time>2026-04-19T08:19:12Z</time></trkpt><trkpt lat="37.70653861685287" lon="15.116506664050183"><ele>602.5999999999999</ele><time>2026-04-19T08:19:13Z</time></trkpt><trkpt lat="37.706468707235" lon="15.116604942040738"><ele>600.8</ele><time>2026-04-19T08:19:14Z</time></trkpt><trkpt lat="37.70638996358565" lon="15.116696797719658"><ele>599.0</ele><time>2026-04-19T08:19:15Z</time></trkpt><trkpt lat="37.706323595698485" lon="15.116784237919822"><ele>597.4</ele><time>2026-04-19T08:19:16Z</time></trkpt><trkpt lat="37.70626131153119" lon="15.11687198537932"><ele>595.8</ele><time>2026-04-19T08:19:17Z</time></trkpt><trkpt lat="37.70619832479281" lon="15.116965950709718"><ele>594.2</ele><time>2026-04-19T08:19:18Z</time></trkpt><trkpt lat="37.70613444313968" lon="15.117063889835212"><ele>592.6</ele><time>2026-04-19T08:19:19Z</time></trkpt><trkpt lat="37.70606740431974" lon="15.117154891009275"><ele>591.0</ele><time>2026-04-19T08:19:20Z</time></trkpt><trkpt lat="37.706011642073236" lon="15.117240227520853"><ele>591.0</ele><time>2026-04-19T08:19:21Z</time></trkpt><trkpt lat="37.705950045137286" lon="15.117316898984406"><ele>591.0</ele><time>2026-04-19T08:19:22Z</time></trkpt><trkpt lat="37.705890631136214" lon="15.117376717613512"><ele>591.0</ele><time>2026-04-19T08:19:23Z</time></trkpt><trkpt lat="37.705817405458234" lon="15.117405677539487"><ele>591.0</ele><time>2026-04-19T08:19:24Z</time></trkpt><trkpt lat="37.705740257108666" lon="15.117403597750558"><ele>591.0</ele><time>2026-04-19T08:19:25Z</time></trkpt><trkpt lat="37.70567006101364" lon="15.117362841240505"><ele>591.0</ele><time>2026-04-19T08:19:26Z</time></trkpt><trkpt lat="37.70559590161499" lon="15.117316379015918"><ele>591.0</ele><time>2026-04-19T08:19:27Z</time></trkpt><trkpt lat="37.70551460078404" lon="15.117273729212846"><ele>591.0</ele><time>2026-04-19T08:19:28Z</time></trkpt><trkpt lat="37.70543935203094" lon="15.117197656776478"><ele>591.0</ele><time>2026-04-19T08:19:29Z</time></trkpt><trkpt lat="37.705355659060345" lon="15.117115134824378"><ele>591.0</ele><time>2026-04-19T08:19:30Z</time></trkpt><trkpt lat="37.70528440113846" lon="15.117037668818838"><ele>591.0</ele><time>2026-04-19T08:19:31Z</time></trkpt><trkpt lat="37.70521720608708" lon="15.116961280619263"><ele>589.5</ele><time>2026-04-19T08:19:32Z</time></trkpt><trkpt lat="37.70515967700597" lon="15.116893079291641"><ele>588.0</ele><time>2026-04-19T08:19:33Z</time></trkpt><trkpt lat="37.705110980776276" lon="15.11683926515466"><ele>586.5</ele><time>2026-04-19T08:19:34Z</time></trkpt><trkpt lat="37.705068404214614" lon="15.116773550048801"><ele>585.0</ele><time>2026-04-19T08:19:35Z</time></trkpt><trkpt lat="37.705040938324956" lon="15.11668324179548"><ele>583.5</ele><time>2026-04-19T08:19:36Z</time></trkpt><trkpt lat="37.70504067512004" lon="15.11656654611248"><ele>582.0</ele><time>2026-04-19T08:19:37Z</time></trkpt><trkpt lat="37.70501661635524" lon="15.116429051712979"><ele>582.0</ele><time>2026-04-19T08:19:38Z</time></trkpt><trkpt lat="37.704988281943145" lon="15.116270390057226"><ele>582.0</ele><time>2026-04-19T08:19:39Z</time></trkpt><trkpt lat="37.70496587494241" lon="15.11609326262887"><ele>582.0</ele><time>2026-04-19T08:19:40Z</time></trkpt><trkpt lat="37.70494141865398" lon="15.115909840102393"><ele>582.0</ele><time>2026-04-19T08:19:41Z</time></trkpt><trkpt lat="37.70492934923574" lon="15.115728505816087"><ele>581.75</ele><time>2026-04-19T08:19:42Z</time></trkpt><trkpt lat="37.70493956535984" lon="15.115566717074195"><ele>581.5</ele><time>2026-04-19T08:19:43Z</time></trkpt><trkpt lat="37.70494377113986" lon="15.115403015743565"><ele>581.25</ele><time>2026-04-19T08:19:44Z</time></trkpt><trkpt lat="37.704927794843655" lon="15.115239640785987"><ele>581.0</ele><time>2026-04-19T08:19:45Z</time></trkpt><trkpt lat="37.70489189186309" lon="15.115089040689327"><ele>581.0</ele><time>2026-04-19T08:19:46Z</time></trkpt><trkpt lat="37.7048364720143" lon="15.114952045895574"><ele>581.0</ele><time>2026-04-19T08:19:47Z</time></trkpt><trkpt lat="37.70476774294918" lon="15.11482090248096"><ele>581.0</ele><time>2026-04-19T08:19:48Z</time></trkpt><trkpt lat="37.704683327506736" lon="15.11470151088407"><ele>581.0</ele><time>2026-04-19T08:19:49Z</time></trkpt><trkpt lat="37.70460211599112" lon="15.114570895509594"><ele>580.75</ele><time>2026-04-19T08:19:50Z</time></trkpt><trkpt lat="37.70453451249691" lon="15.114427153767373"><ele>580.5</ele><time>2026-04-19T08:19:51Z</time></trkpt><trkpt lat="37.704478878500325" lon="15.114279927211076"><ele>580.25</ele><time>2026-04-19T08:19:52Z</time></trkpt><trkpt lat="37.70442585723983" lon="15.114139360094294"><ele>580.0</ele><time>2026-04-19T08:19:53Z</time></trkpt><trkpt lat="37.7043842765652" lon="15.114021056768694"><ele>578.8333333333334</ele><time>2026-04-19T08:19:54Z</time></trkpt><trkpt lat="37.70434805745242" lon="15.113928718965333"><ele>577.6666666666667</ele><time>2026-04-19T08:19:55Z</time></trkpt><trkpt lat="37.704310148163955" lon="15.113843459228338"><ele>576.5</ele><time>2026-04-19T08:19:56Z</time></trkpt><trkpt lat="37.704271844677734" lon="15.113761352252872"><ele>575.3333333333334</ele><time>2026-04-19T08:19:57Z</time></trkpt><trkpt lat="37.704236773309695" lon="15.113676866922582"><ele>574.1666666666666</ele><time>2026-04-19T08:19:58Z</time></trkpt><trkpt lat="37.70420351156687" lon="15.113583767854925"><ele>573.0</ele><time>2026-04-19T08:19:59Z</time></trkpt><trkpt lat="37.70416246197532" lon="15.113492027473873"><ele>573.0</ele><time>2026-04-19T08:20:00Z</time></trkpt><trkpt lat="37.70410925553514" lon="15.113384337400468"><ele>573.0</ele><time>2026-04-19T08:20:01Z</time></trkpt><trkpt lat="37.704049860948615" lon="15.113267224288718"><ele>573.0</ele><time>2026-04-19T08:20:02Z</time></trkpt><trkpt lat="37.70398209514172" lon="15.113146530574104"><ele>573.0</ele><time>2026-04-19T08:20:03Z</time></trkpt><trkpt lat="37.703909746365824" lon="15.113017381803978"><ele>573.25</ele><time>2026-04-19T08:20:04Z</time></trkpt><trkpt lat="37.703838527739144" lon="15.112875194762296"><ele>573.5</ele><time>2026-04-19T08:20:05Z</time></trkpt><trkpt lat="37.703761919305684" lon="15.112728400502768"><ele>573.75</ele><time>2026-04-19T08:20:06Z</time></trkpt><trkpt lat="37.70366709173189" lon="15.112592715997163"><ele>574.0</ele><time>2026-04-19T08:20:07Z</time></trkpt><trkpt lat="37.70356181561461" lon="15.112462290935111"><ele>577.3333333333334</ele><time>2026-04-19T08:20:08Z</time></trkpt><trkpt lat="37.7034579512606" lon="15.11233236815444"><ele>580.6666666666666</ele><time>2026-04-19T08:20:09Z</time></trkpt><trkpt lat="37.70335064088903" lon="15.112196314583354"><ele>584.0</ele><time>2026-04-19T08:20:10Z</time></trkpt><trkpt lat="37.70323779315706" lon="15.112060006424306"><ele>584.0</ele><time>2026-04-19T08:20:11Z</time></trkpt><trkpt lat="37.70312370143884" lon="15.111918356614169"><ele>584.0</ele><time>2026-04-19T08:20:12Z</time></trkpt><trkpt lat="37.70302859409953" lon="15.11174805549425"><ele>584.0</ele><time>2026-04-19T08:20:13Z</time></trkpt><trkpt lat="37.702954220314595" lon="15.111547061705238"><ele>586.0</ele><time>2026-04-19T08:20:14Z</time></trkpt><trkpt lat="37.702886220515964" lon="15.1113753551004"><ele>588.0</ele><time>2026-04-19T08:20:15Z</time></trkpt><trkpt lat="37.70284666711033" lon="15.111214624509152"><ele>590.0</ele><time>2026-04-19T08:20:16Z</time></trkpt><trkpt lat="37.702838818721304" lon="15.111038736841177"><ele>592.0</ele><time>2026-04-19T08:20:17Z</time></trkpt><trkpt lat="37.70284366607981" lon="15.110868660808935"><ele>592.25</ele><time>2026-04-19T08:20:18Z</time></trkpt><trkpt lat="37.702818665216725" lon="15.110702876927487"><ele>592.5</ele><time>2026-04-19T08:20:19Z</time></trkpt><trkpt lat="37.70274360801979" lon="15.11055498261246"><ele>592.75</ele><time>2026-04-19T08:20:20Z</time></trkpt><trkpt lat="37.702640260723406" lon="15.11043515485711"><ele>593.0</ele><time>2026-04-19T08:20:21Z</time></trkpt><trkpt lat="37.70251228916689" lon="15.110331811958028"><ele>593.0</ele><time>2026-04-19T08:20:22Z</time></trkpt><trkpt lat="37.702377712891476" lon="15.11026913196896"><ele>593.0</ele><time>2026-04-19T08:20:23Z</time></trkpt><trkpt lat="37.70227591678839" lon="15.110117139113365"><ele>593.0</ele><time>2026-04-19T08:20:24Z</time></trkpt><trkpt lat="37.702166463095615" lon="15.110024839929304"><ele>593.0</ele><time>2026-04-19T08:20:25Z</time></trkpt><trkpt lat="37.702050708335136" lon="15.109938773403247"><ele>595.6666666666666</ele><time>2026-04-19T08:20:26Z</time></trkpt><trkpt lat="37.70190835873547" lon="15.109863392425295"><ele>598.3333333333334</ele><time>2026-04-19T08:20:27Z</time></trkpt><trkpt lat="37.70174826709227" lon="15.109799395305433"><ele>601.0</ele><time>2026-04-19T08:20:28Z</time></trkpt><trkpt lat="37.70157123615277" lon="15.109684913872794"><ele>601.0</ele><time>2026-04-19T08:20:29Z</time></trkpt><trkpt lat="37.70137990047997" lon="15.109581627441964"><ele>601.0</ele><time>2026-04-19T08:20:30Z</time></trkpt><trkpt lat="37.701212106075815" lon="15.109455697972155"><ele>601.0</ele><time>2026-04-19T08:20:31Z</time></trkpt><trkpt lat="37.701054111990445" lon="15.109301203347824"><ele>600.0</ele><time>2026-04-19T08:20:32Z</time></trkpt><trkpt lat="37.70089750380227" lon="15.109121569375707"><ele>599.0</ele><time>2026-04-19T08:20:33Z</time></trkpt><trkpt lat="37.7007387797064" lon="15.108938057400565"><ele>598.0</ele><time>2026-04-19T08:20:34Z</time></trkpt><trkpt lat="37.70058799318075" lon="15.108785301852823"><ele>600.0</ele><time>2026-04-19T08:20:35Z</time></trkpt><trkpt lat="37.70046284803872" lon="15.108639871794304"><ele>602.0</ele><time>2026-04-19T08:20:36Z</time></trkpt><trkpt lat="37.70033607172227" lon="15.10851862437544"><ele>604.0</ele><time>2026-04-19T08:20:37Z</time></trkpt><trkpt lat="37.700221899057674" lon="15.108409924035195"><ele>604.0</ele><time>2026-04-19T08:20:38Z</time></trkpt><trkpt lat="37.70011910044373" lon="15.108322999666525"><ele>604.0</ele><time>2026-04-19T08:20:39Z</time></trkpt><trkpt lat="37.699998543759975" lon="15.108268147113002"><ele>604.0</ele><time>2026-04-19T08:20:40Z</time></trkpt><trkpt lat="37.699859794195085" lon="15.108265249587483"><ele>604.0</ele><time>2026-04-19T08:20:41Z</time></trkpt><trkpt lat="37.69972617551613" lon="15.108285408482573"><ele>604.0</ele><time>2026-04-19T08:20:42Z</time></trkpt><trkpt lat="37.69960129001112" lon="15.108260751978522"><ele>604.0</ele><time>2026-04-19T08:20:43Z</time></trkpt><trkpt lat="37.69948495375703" lon="15.10819752587154"><ele>604.0</ele><time>2026-04-19T08:20:44Z</time></trkpt><trkpt lat="37.699390694295246" lon="15.108110169146245"><ele>604.0</ele><time>2026-04-19T08:20:45Z</time></trkpt><trkpt lat="37.69930186287547" lon="15.10804073250963"><ele>604.0</ele><time>2026-04-19T08:20:46Z</time></trkpt><trkpt lat="37.699213457666445" lon="15.108018412752854"><ele>604.0</ele><time>2026-04-19T08:20:47Z</time></trkpt><trkpt lat="37.69913943448592" lon="15.107996781566433"><ele>604.0</ele><time>2026-04-19T08:20:48Z</time></trkpt><trkpt lat="37.69905136266792" lon="15.107991055815447"><ele>604.0</ele><time>2026-04-19T08:20:49Z</time></trkpt><trkpt lat="37.698966988876506" lon="15.107997292075659"><ele>604.0</ele><time>2026-04-19T08:20:50Z</time></trkpt><trkpt lat="37.69888499284969" lon="15.107993186932678"><ele>604.0</ele><time>2026-04-19T08:20:51Z</time></trkpt><trkpt lat="37.69880232861016" lon="15.107996175871166"><ele>604.0</ele><time>2026-04-19T08:20:52Z</time></trkpt><trkpt lat="37.698710343285725" lon="15.108018410017754"><ele>604.0</ele><time>2026-04-19T08:20:53Z</time></trkpt><trkpt lat="37.69861774043596" lon="15.108027798594367"><ele>604.0</ele><time>2026-04-19T08:20:54Z</time></trkpt><trkpt lat="37.69852117818358" lon="15.10802983682018"><ele>604.0</ele><time>2026-04-19T08:20:55Z</time></trkpt><trkpt lat="37.698423506676185" lon="15.108012195405372"><ele>604.0</ele><time>2026-04-19T08:20:56Z</time></trkpt><trkpt lat="37.6983349013395" lon="15.10794596801382"><ele>602.5</ele><time>2026-04-19T08:20:57Z</time></trkpt><trkpt lat="37.698233163897925" lon="15.10789324813883"><ele>601.0</ele><time>2026-04-19T08:20:58Z</time></trkpt><trkpt lat="37.69813276890079" lon="15.107827495221846"><ele>599.5</ele><time>2026-04-19T08:20:59Z</time></trkpt><trkpt lat="37.69802394371991" lon="15.107754153213156"><ele>598.0</ele><time>2026-04-19T08:21:00Z</time></trkpt><trkpt lat="37.69790146872873" lon="15.107710943967417"><ele>598.0</ele><time>2026-04-19T08:21:01Z</time></trkpt><trkpt lat="37.6977677052968" lon="15.107679837638369"><ele>598.0</ele><time>2026-04-19T08:21:02Z</time></trkpt><trkpt lat="37.69762188792507" lon="15.10766747797822"><ele>598.0</ele><time>2026-04-19T08:21:03Z</time></trkpt><trkpt lat="37.697482705628374" lon="15.107672964635478"><ele>598.0</ele><time>2026-04-19T08:21:04Z</time></trkpt><trkpt lat="37.69732447344778" lon="15.107673565886873"><ele>595.6666666666667</ele><time>2026-04-19T08:21:05Z</time></trkpt><trkpt lat="37.69716069996947" lon="15.10767903827964"><ele>593.3333333333334</ele><time>2026-04-19T08:21:06Z</time></trkpt><trkpt lat="37.696990235131764" lon="15.107691927277164"><ele>591.0</ele><time>2026-04-19T08:21:07Z</time></trkpt><trkpt lat="37.69681724206283" lon="15.107703091133454"><ele>589.0</ele><time>2026-04-19T08:21:08Z</time></trkpt><trkpt lat="37.696649215636405" lon="15.10771170310203"><ele>587.0</ele><time>2026-04-19T08:21:09Z</time></trkpt><trkpt lat="37.69648239608752" lon="15.107738168773722"><ele>585.0</ele><time>2026-04-19T08:21:10Z</time></trkpt><trkpt lat="37.69633242845413" lon="15.10774002289054"><ele>585.0</ele><time>2026-04-19T08:21:11Z</time></trkpt><trkpt lat="37.69618875973172" lon="15.107755135054832"><ele>585.0</ele><time>2026-04-19T08:21:12Z</time></trkpt><trkpt lat="37.69605258975041" lon="15.107763910435764"><ele>585.0</ele><time>2026-04-19T08:21:13Z</time></trkpt><trkpt lat="37.69593266331661" lon="15.107764397578707"><ele>585.0</ele><time>2026-04-19T08:21:14Z</time></trkpt><trkpt lat="37.69583143663277" lon="15.10775828279797"><ele>585.5</ele><time>2026-04-19T08:21:15Z</time></trkpt><trkpt lat="37.69576033766023" lon="15.107762716059634"><ele>586.0</ele><time>2026-04-19T08:21:25Z</time></trkpt><trkpt lat="37.69568764083646" lon="15.107802074112744"><ele>586.5</ele><time>2026-04-19T08:21:28Z</time></trkpt><trkpt lat="37.69571409440512" lon="15.10791705243077"><ele>587.0</ele><time>2026-04-19T08:21:29Z</time></trkpt><trkpt lat="37.6957395463713" lon="15.108016726078171"><ele>587.5</ele><time>2026-04-19T08:21:30Z</time></trkpt><trkpt lat="37.695730627378815" lon="15.108154515311531"><ele>588.0</ele><time>2026-04-19T08:21:31Z</time></trkpt><trkpt lat="37.695736712171325" lon="15.10827740805955"><ele>585.75</ele><time>2026-04-19T08:21:32Z</time></trkpt><trkpt lat="37.69575372309805" lon="15.108420142903347"><ele>583.5</ele><time>2026-04-19T08:21:33Z</time></trkpt><trkpt lat="37.6957765846152" lon="15.108578067490651"><ele>581.25</ele><time>2026-04-19T08:21:34Z</time></trkpt><trkpt lat="37.69580329698215" lon="15.108753031029854"><ele>579.0</ele><time>2026-04-19T08:21:35Z</time></trkpt><trkpt lat="37.69582295938162" lon="15.108916475463415"><ele>579.0</ele><time>2026-04-19T08:21:36Z</time></trkpt><trkpt lat="37.69583566898939" lon="15.109071281512513"><ele>579.0</ele><time>2026-04-19T08:21:37Z</time></trkpt><trkpt lat="37.69584884318131" lon="15.109237488939531"><ele>579.0</ele><time>2026-04-19T08:21:38Z</time></trkpt><trkpt lat="37.695868567638094" lon="15.109396297923583"><ele>579.0</ele><time>2026-04-19T08:21:39Z</time></trkpt><trkpt lat="37.69588027118299" lon="15.10955078099205"><ele>577.0</ele><time>2026-04-19T08:21:40Z</time></trkpt><trkpt lat="37.695896675599116" lon="15.109696652192106"><ele>575.0</ele><time>2026-04-19T08:21:41Z</time></trkpt><trkpt lat="37.695912451859854" lon="15.109845198533366"><ele>573.0</ele><time>2026-04-19T08:21:42Z</time></trkpt><trkpt lat="37.69593240352211" lon="15.109991249695627"><ele>571.0</ele><time>2026-04-19T08:21:43Z</time></trkpt><trkpt lat="37.695952276298236" lon="15.11013124978297"><ele>569.75</ele><time>2026-04-19T08:21:44Z</time></trkpt><trkpt lat="37.695968122396756" lon="15.110286164642453"><ele>568.5</ele><time>2026-04-19T08:21:45Z</time></trkpt><trkpt lat="37.69598957536141" lon="15.1104340976146"><ele>567.25</ele><time>2026-04-19T08:21:46Z</time></trkpt><trkpt lat="37.69600745486347" lon="15.110583172175128"><ele>566.0</ele><time>2026-04-19T08:21:47Z</time></trkpt><trkpt lat="37.69602358701291" lon="15.110745853805861"><ele>564.0</ele><time>2026-04-19T08:21:48Z</time></trkpt><trkpt lat="37.696042046243726" lon="15.11091649155294"><ele>562.0</ele><time>2026-04-19T08:21:49Z</time></trkpt><trkpt lat="37.69605814939879" lon="15.111090866986029"><ele>560.0</ele><time>2026-04-19T08:21:50Z</time></trkpt><trkpt lat="37.69607262550742" lon="15.111264008765827"><ele>558.0</ele><time>2026-04-19T08:21:51Z</time></trkpt><trkpt lat="37.6960893794744" lon="15.111433835262503"><ele>556.75</ele><time>2026-04-19T08:21:52Z</time></trkpt><trkpt lat="37.696104207301666" lon="15.111595059207117"><ele>555.5</ele><time>2026-04-19T08:21:53Z</time></trkpt><trkpt lat="37.696120149763274" lon="15.111751731820611"><ele>554.25</ele><time>2026-04-19T08:21:54Z</time></trkpt><trkpt lat="37.69613461634048" lon="15.111901404776376"><ele>553.0</ele><time>2026-04-19T08:21:55Z</time></trkpt><trkpt lat="37.69615168439428" lon="15.112051165313485"><ele>553.0</ele><time>2026-04-19T08:21:56Z</time></trkpt><trkpt lat="37.69617236847179" lon="15.112195982682547"><ele>553.0</ele><time>2026-04-19T08:21:57Z</time></trkpt><trkpt lat="37.696190830534974" lon="15.1123352320045"><ele>553.0</ele><time>2026-04-19T08:21:58Z</time></trkpt><trkpt lat="37.69619935534923" lon="15.112467449091218"><ele>553.0</ele><time>2026-04-19T08:21:59Z</time></trkpt><trkpt lat="37.69619732632596" lon="15.112577962123167"><ele>553.0</ele><time>2026-04-19T08:22:00Z</time></trkpt><trkpt lat="37.69620234684562" lon="15.1126731969145"><ele>551.0</ele><time>2026-04-19T08:22:01Z</time></trkpt><trkpt lat="37.69622071756381" lon="15.112813149755185"><ele>549.0</ele><time>2026-04-19T08:22:03Z</time></trkpt><trkpt lat="37.69624290052904" lon="15.112913160756715"><ele>547.0</ele><time>2026-04-19T08:22:06Z</time></trkpt><trkpt lat="37.69641964140033" lon="15.112968657727734"><ele>545.0</ele><time>2026-04-19T08:22:08Z</time></trkpt><trkpt lat="37.69651569207242" lon="15.113001409722097"><ele>545.0</ele><time>2026-04-19T08:22:09Z</time></trkpt><trkpt lat="37.69661096527323" lon="15.113077446349001"><ele>545.0</ele><time>2026-04-19T08:22:10Z</time></trkpt><trkpt lat="37.696708110825206" lon="15.113136375000094"><ele>545.0</ele><time>2026-04-19T08:22:11Z</time></trkpt><trkpt lat="37.69679311202738" lon="15.113221908963082"><ele>545.0</ele><time>2026-04-19T08:22:12Z</time></trkpt><trkpt lat="37.69688420074742" lon="15.113293675341534"><ele>545.0</ele><time>2026-04-19T08:22:13Z</time></trkpt><trkpt lat="37.69697021819362" lon="15.113366945598703"><ele>544.1666666666666</ele><time>2026-04-19T08:22:14Z</time></trkpt><trkpt lat="37.69705846009508" lon="15.113428570358804"><ele>543.3333333333333</ele><time>2026-04-19T08:22:15Z</time></trkpt><trkpt lat="37.69713541109577" lon="15.113492639151925"><ele>542.5</ele><time>2026-04-19T08:22:16Z</time></trkpt><trkpt lat="37.69722061690515" lon="15.113509185420524"><ele>541.6666666666666</ele><time>2026-04-19T08:22:17Z</time></trkpt><trkpt lat="37.69730187256132" lon="15.113520472482877"><ele>540.8333333333334</ele><time>2026-04-19T08:22:18Z</time></trkpt><trkpt lat="37.69738808121659" lon="15.11353135687114"><ele>540.0</ele><time>2026-04-19T08:22:19Z</time></trkpt><trkpt lat="37.69747287356856" lon="15.113545125836715"><ele>540.0</ele><time>2026-04-19T08:22:20Z</time></trkpt><trkpt lat="37.69756580325178" lon="15.113561246124375"><ele>540.0</ele><time>2026-04-19T08:22:21Z</time></trkpt><trkpt lat="37.697639305144634" lon="15.113644469817363"><ele>540.0</ele><time>2026-04-19T08:22:22Z</time></trkpt><trkpt lat="37.697712207428125" lon="15.113722222591383"><ele>540.0</ele><time>2026-04-19T08:22:23Z</time></trkpt><trkpt lat="37.69778151036109" lon="15.113806138325833"><ele>540.0</ele><time>2026-04-19T08:22:24Z</time></trkpt><trkpt lat="37.697855715289016" lon="15.11388253726708"><ele>539.5</ele><time>2026-04-19T08:22:25Z</time></trkpt><trkpt lat="37.69790787609863" lon="15.113971050155751"><ele>539.0</ele><time>2026-04-19T08:22:26Z</time></trkpt><trkpt lat="37.69794487293323" lon="15.114068925373056"><ele>538.5</ele><time>2026-04-19T08:22:27Z</time></trkpt><trkpt lat="37.69796041503267" lon="15.114183661135717"><ele>538.0</ele><time>2026-04-19T08:22:28Z</time></trkpt><trkpt lat="37.69795428474276" lon="15.114301764645743"><ele>537.5</ele><time>2026-04-19T08:22:29Z</time></trkpt><trkpt lat="37.697930093047" lon="15.114411559325044"><ele>537.0</ele><time>2026-04-19T08:22:30Z</time></trkpt><trkpt lat="37.69787683753901" lon="15.114519059883193"><ele>536.0</ele><time>2026-04-19T08:22:31Z</time></trkpt><trkpt lat="37.69782220881807" lon="15.114641608661172"><ele>535.0</ele><time>2026-04-19T08:22:32Z</time></trkpt><trkpt lat="37.697788275218535" lon="15.114771242358339"><ele>534.0</ele><time>2026-04-19T08:22:33Z</time></trkpt><trkpt lat="37.6977800121489" lon="15.114908630347081"><ele>533.0</ele><time>2026-04-19T08:22:34Z</time></trkpt><trkpt lat="37.69780418316576" lon="15.115054268835706"><ele>532.0</ele><time>2026-04-19T08:22:35Z</time></trkpt><trkpt lat="37.69784927597335" lon="15.115195246162598"><ele>531.2</ele><time>2026-04-19T08:22:36Z</time></trkpt><trkpt lat="37.697903059116264" lon="15.115323279900124"><ele>530.4000000000001</ele><time>2026-04-19T08:22:37Z</time></trkpt><trkpt lat="37.69795454329525" lon="15.115444544414325"><ele>529.5999999999999</ele><time>2026-04-19T08:22:38Z</time></trkpt><trkpt lat="37.69799808633247" lon="15.11556486237245"><ele>528.8</ele><time>2026-04-19T08:22:39Z</time></trkpt><trkpt lat="37.69803978605666" lon="15.115681996974832"><ele>528.0</ele><time>2026-04-19T08:22:40Z</time></trkpt><trkpt lat="37.69808591841451" lon="15.115794367413407"><ele>527.0</ele><time>2026-04-19T08:22:41Z</time></trkpt><trkpt lat="37.698127267639464" lon="15.11590399430693"><ele>526.0</ele><time>2026-04-19T08:22:42Z</time></trkpt><trkpt lat="37.69816762781725" lon="15.116011128247177"><ele>525.0</ele><time>2026-04-19T08:22:43Z</time></trkpt><trkpt lat="37.698200344496314" lon="15.116112614218602"><ele>524.0</ele><time>2026-04-19T08:22:44Z</time></trkpt><trkpt lat="37.69821355636135" lon="15.11621912681625"><ele>523.0</ele><time>2026-04-19T08:22:45Z</time></trkpt><trkpt lat="37.698197241685484" lon="15.11632629353153"><ele>522.0</ele><time>2026-04-19T08:22:46Z</time></trkpt><trkpt lat="37.698150096231" lon="15.116416796980166"><ele>522.0</ele><time>2026-04-19T08:22:47Z</time></trkpt><trkpt lat="37.69809091394507" lon="15.116492820402827"><ele>522.0</ele><time>2026-04-19T08:22:48Z</time></trkpt><trkpt lat="37.698023000852544" lon="15.116567577864393"><ele>522.0</ele><time>2026-04-19T08:22:49Z</time></trkpt><trkpt lat="37.697947249243825" lon="15.11666306676122"><ele>522.0</ele><time>2026-04-19T08:22:50Z</time></trkpt><trkpt lat="37.69786253726955" lon="15.11680045863415"><ele>522.0</ele><time>2026-04-19T08:22:51Z</time></trkpt><trkpt lat="37.69776026539335" lon="15.11696213924671"><ele>519.6666666666666</ele><time>2026-04-19T08:22:52Z</time></trkpt><trkpt lat="37.69763997063161" lon="15.11715090570026"><ele>517.3333333333333</ele><time>2026-04-19T08:22:53Z</time></trkpt><trkpt lat="37.6975132186589" lon="15.117368711931483"><ele>515.0</ele><time>2026-04-19T08:22:54Z</time></trkpt><trkpt lat="37.697364767712784" lon="15.117606697820548"><ele>513.0</ele><time>2026-04-19T08:22:55Z</time></trkpt><trkpt lat="37.6971783854135" lon="15.117852630625611"><ele>511.0</ele><time>2026-04-19T08:22:56Z</time></trkpt><trkpt lat="37.69700767683977" lon="15.11806225376116"><ele>508.0</ele><time>2026-04-19T08:22:57Z</time></trkpt><trkpt lat="37.69686790490977" lon="15.118248115935131"><ele>505.0</ele><time>2026-04-19T08:22:58Z</time></trkpt><trkpt lat="37.69674575215771" lon="15.118417129004873"><ele>502.0</ele><time>2026-04-19T08:22:59Z</time></trkpt><trkpt lat="37.69664046584035" lon="15.118585979352169"><ele>502.0</ele><time>2026-04-19T08:23:00Z</time></trkpt><trkpt lat="37.69652945076723" lon="15.118721661685434"><ele>502.0</ele><time>2026-04-19T08:23:01Z</time></trkpt><trkpt lat="37.69639609862368" lon="15.11883377980711"><ele>502.0</ele><time>2026-04-19T08:23:02Z</time></trkpt><trkpt lat="37.696241919693655" lon="15.118949605030084"><ele>498.6666666666667</ele><time>2026-04-19T08:23:03Z</time></trkpt><trkpt lat="37.69607593016551" lon="15.119075539381333"><ele>495.33333333333337</ele><time>2026-04-19T08:23:04Z</time></trkpt><trkpt lat="37.695890747030205" lon="15.119207910189369"><ele>492.0</ele><time>2026-04-19T08:23:05Z</time></trkpt><trkpt lat="37.695702671877136" lon="15.119344413668466"><ele>492.0</ele><time>2026-04-19T08:23:06Z</time></trkpt><trkpt lat="37.695525052217526" lon="15.119462163372768"><ele>492.0</ele><time>2026-04-19T08:23:07Z</time></trkpt><trkpt lat="37.69534350524812" lon="15.11955808867306"><ele>492.0</ele><time>2026-04-19T08:23:08Z</time></trkpt><trkpt lat="37.69515612981433" lon="15.119660191528554"><ele>491.66666666666663</ele><time>2026-04-19T08:23:09Z</time></trkpt><trkpt lat="37.69496776718235" lon="15.119764141606172"><ele>491.3333333333333</ele><time>2026-04-19T08:23:10Z</time></trkpt><trkpt lat="37.69478383067466" lon="15.119870119551198"><ele>491.0</ele><time>2026-04-19T08:23:11Z</time></trkpt><trkpt lat="37.69460537299254" lon="15.119968790010883"><ele>488.66666666666663</ele><time>2026-04-19T08:23:12Z</time></trkpt><trkpt lat="37.694430452855684" lon="15.120057182173726"><ele>486.33333333333337</ele><time>2026-04-19T08:23:13Z</time></trkpt><trkpt lat="37.694264095285305" lon="15.120142626044938"><ele>484.0</ele><time>2026-04-19T08:23:14Z</time></trkpt><trkpt lat="37.69412026639882" lon="15.12021563040138"><ele>482.33333333333337</ele><time>2026-04-19T08:23:15Z</time></trkpt><trkpt lat="37.69398476962752" lon="15.12029781688753"><ele>480.66666666666663</ele><time>2026-04-19T08:23:16Z</time></trkpt><trkpt lat="37.693856620035895" lon="15.120412120306973"><ele>479.0</ele><time>2026-04-19T08:23:17Z</time></trkpt><trkpt lat="37.69373436037333" lon="15.12056157990897"><ele>479.0</ele><time>2026-04-19T08:23:18Z</time></trkpt><trkpt lat="37.693607901698705" lon="15.120732438991045"><ele>479.0</ele><time>2026-04-19T08:23:19Z</time></trkpt><trkpt lat="37.6934462855253" lon="15.120866318348476"><ele>479.0</ele><time>2026-04-19T08:23:20Z</time></trkpt><trkpt lat="37.69327720697842" lon="15.120960690783207"><ele>475.3333333333333</ele><time>2026-04-19T08:23:21Z</time></trkpt><trkpt lat="37.69312438525171" lon="15.121054937484088"><ele>471.66666666666663</ele><time>2026-04-19T08:23:22Z</time></trkpt><trkpt lat="37.693007326413955" lon="15.121174302047"><ele>468.0</ele><time>2026-04-19T08:23:23Z</time></trkpt><trkpt lat="37.69292064447482" lon="15.121331546826294"><ele>468.0</ele><time>2026-04-19T08:23:24Z</time></trkpt><trkpt lat="37.6928534158186" lon="15.12149591219605"><ele>468.0</ele><time>2026-04-19T08:23:25Z</time></trkpt><trkpt lat="37.69280143789335" lon="15.121674182702595"><ele>468.0</ele><time>2026-04-19T08:23:26Z</time></trkpt><trkpt lat="37.692752135758106" lon="15.12185682220303"><ele>468.0</ele><time>2026-04-19T08:23:27Z</time></trkpt><trkpt lat="37.69265533597885" lon="15.122013839185618"><ele>465.33333333333337</ele><time>2026-04-19T08:23:28Z</time></trkpt><trkpt lat="37.692528835446815" lon="15.122144443280545"><ele>462.6666666666667</ele><time>2026-04-19T08:23:29Z</time></trkpt><trkpt lat="37.69238267163675" lon="15.122258575203269"><ele>460.0</ele><time>2026-04-19T08:23:30Z</time></trkpt><trkpt lat="37.69222672498007" lon="15.122381732547703"><ele>459.6666666666667</ele><time>2026-04-19T08:23:31Z</time></trkpt><trkpt lat="37.69206547914301" lon="15.12250598539118"><ele>459.33333333333337</ele><time>2026-04-19T08:23:32Z</time></trkpt><trkpt lat="37.691915163161134" lon="15.122627102320621"><ele>459.0</ele><time>2026-04-19T08:23:33Z</time></trkpt><trkpt lat="37.69178028528849" lon="15.122746492678429"><ele>458.0</ele><time>2026-04-19T08:23:34Z</time></trkpt><trkpt lat="37.691651780755464" lon="15.122850837018486"><ele>457.0</ele><time>2026-04-19T08:23:35Z</time></trkpt><trkpt lat="37.691533596749665" lon="15.122951181647545"><ele>456.0</ele><time>2026-04-19T08:23:36Z</time></trkpt><trkpt lat="37.69141824707831" lon="15.123047041540943"><ele>455.0</ele><time>2026-04-19T08:23:37Z</time></trkpt><trkpt lat="37.69130697632661" lon="15.123137775238703"><ele>455.0</ele><time>2026-04-19T08:23:38Z</time></trkpt><trkpt lat="37.69120362168735" lon="15.123229805697882"><ele>455.0</ele><time>2026-04-19T08:23:39Z</time></trkpt><trkpt lat="37.691104653938936" lon="15.123319179069199"><ele>455.0</ele><time>2026-04-19T08:23:40Z</time></trkpt><trkpt lat="37.69100040931748" lon="15.123411666689215"><ele>455.0</ele><time>2026-04-19T08:23:41Z</time></trkpt><trkpt lat="37.69088927369406" lon="15.123490362382999"><ele>453.25</ele><time>2026-04-19T08:23:42Z</time></trkpt><trkpt lat="37.69078872086125" lon="15.123592638084103"><ele>451.5</ele><time>2026-04-19T08:23:43Z</time></trkpt><trkpt lat="37.69069065010455" lon="15.123704937682696"><ele>449.75</ele><time>2026-04-19T08:23:44Z</time></trkpt><trkpt lat="37.69061005301113" lon="15.123848804863869"><ele>448.0</ele><time>2026-04-19T08:23:45Z</time></trkpt><trkpt lat="37.69055029139143" lon="15.124001493541986"><ele>445.25</ele><time>2026-04-19T08:23:46Z</time></trkpt><trkpt lat="37.690496656542095" lon="15.124147478050471"><ele>442.5</ele><time>2026-04-19T08:23:47Z</time></trkpt><trkpt lat="37.690452750314414" lon="15.124288839658943"><ele>439.75</ele><time>2026-04-19T08:23:48Z</time></trkpt><trkpt lat="37.69041889307348" lon="15.124430314222025"><ele>437.0</ele><time>2026-04-19T08:23:49Z</time></trkpt><trkpt lat="37.690394731955976" lon="15.124573657015782"><ele>437.0</ele><time>2026-04-19T08:23:50Z</time></trkpt><trkpt lat="37.6903727802414" lon="15.124714271116138"><ele>437.0</ele><time>2026-04-19T08:23:51Z</time></trkpt><trkpt lat="37.69034291484645" lon="15.12485414032623"><ele>437.0</ele><time>2026-04-19T08:23:52Z</time></trkpt><trkpt lat="37.69030376918974" lon="15.124989343297585"><ele>437.0</ele><time>2026-04-19T08:23:53Z</time></trkpt><trkpt lat="37.690239353717786" lon="15.125106270371495"><ele>436.8</ele><time>2026-04-19T08:23:54Z</time></trkpt><trkpt lat="37.690165432429524" lon="15.125221511181582"><ele>436.6</ele><time>2026-04-19T08:23:55Z</time></trkpt><trkpt lat="37.69008654773541" lon="15.125326700409865"><ele>436.40000000000003</ele><time>2026-04-19T08:23:56Z</time></trkpt><trkpt lat="37.690043998476575" lon="15.125411609161661"><ele>436.20000000000005</ele><time>2026-04-19T08:23:57Z</time></trkpt><trkpt lat="37.69003863998744" lon="15.125557149726806"><ele>436.0</ele><time>2026-04-19T08:23:59Z</time></trkpt><trkpt lat="37.690129024054976" lon="15.125662585898283"><ele>436.00000000000006</ele><time>2026-04-19T08:24:01Z</time></trkpt><trkpt lat="37.69019679501105" lon="15.125661192926785"><ele>436.0</ele><time>2026-04-19T08:24:02Z</time></trkpt><trkpt lat="37.690262025674244" lon="15.12561568343354"><ele>436.0</ele><time>2026-04-19T08:24:03Z</time></trkpt><trkpt lat="37.6903186072793" lon="15.125535079680201"><ele>436.0</ele><time>2026-04-19T08:24:04Z</time></trkpt><trkpt lat="37.69036761979156" lon="15.125434936846464"><ele>436.00000000000006</ele><time>2026-04-19T08:24:05Z</time></trkpt><trkpt lat="37.69041671529854" lon="15.125333462560285"><ele>436.0</ele><time>2026-04-19T08:24:06Z</time></trkpt><trkpt lat="37.69046438436427" lon="15.125233622444798"><ele>436.20000000000005</ele><time>2026-04-19T08:24:07Z</time></trkpt><trkpt lat="37.69051187365879" lon="15.12513324019767"><ele>436.40000000000003</ele><time>2026-04-19T08:24:08Z</time></trkpt><trkpt lat="37.69055888014452" lon="15.125027432285446"><ele>436.6</ele><time>2026-04-19T08:24:09Z</time></trkpt><trkpt lat="37.69059420054002" lon="15.124924147305679"><ele>436.8</ele><time>2026-04-19T08:24:10Z</time></trkpt><trkpt lat="37.69061017085033" lon="15.124830511445214"><ele>437.0</ele><time>2026-04-19T08:24:11Z</time></trkpt><trkpt lat="37.69065347722677" lon="15.124703469320398"><ele>436.99999999999994</ele><time>2026-04-19T08:24:13Z</time></trkpt><trkpt lat="37.690734982425866" lon="15.124684891825314"><ele>437.0</ele><time>2026-04-19T08:24:16Z</time></trkpt><trkpt lat="37.69078670274124" lon="15.124781149641313"><ele>437.0</ele><time>2026-04-19T08:24:18Z</time></trkpt><trkpt lat="37.69075249805394" lon="15.12486175663795"><ele>437.0</ele><time>2026-04-19T08:24:19Z</time></trkpt><trkpt lat="37.69073996809321" lon="15.124950003509733"><ele>436.99999999999994</ele><time>2026-04-19T08:24:20Z</time></trkpt><trkpt lat="37.690740637016084" lon="15.125053012648243"><ele>437.0</ele><time>2026-04-19T08:24:21Z</time></trkpt><trkpt lat="37.69071970883836" lon="15.125189157109151"><ele>434.75</ele><time>2026-04-19T08:24:22Z</time></trkpt><trkpt lat="37.69069860768252" lon="15.125347377261566"><ele>432.5</ele><time>2026-04-19T08:24:23Z</time></trkpt><trkpt lat="37.690665802512605" lon="15.125517310888391"><ele>430.25</ele><time>2026-04-19T08:24:24Z</time></trkpt><trkpt lat="37.690612566381866" lon="15.125687933182187"><ele>428.0</ele><time>2026-04-19T08:24:25Z</time></trkpt><trkpt lat="37.69053554380921" lon="15.12586716499547"><ele>426.66666666666663</ele><time>2026-04-19T08:24:26Z</time></trkpt><trkpt lat="37.69040975918922" lon="15.126038893381088"><ele>425.33333333333337</ele><time>2026-04-19T08:24:27Z</time></trkpt><trkpt lat="37.69028793566924" lon="15.126253232003993"><ele>424.0</ele><time>2026-04-19T08:24:28Z</time></trkpt><trkpt lat="37.69018125396143" lon="15.126494908582325"><ele>419.5</ele><time>2026-04-19T08:24:29Z</time></trkpt><trkpt lat="37.69006515167153" lon="15.126738638599617"><ele>415.0</ele><time>2026-04-19T08:24:30Z</time></trkpt><trkpt lat="37.68993693549552" lon="15.126975975878551"><ele>415.0</ele><time>2026-04-19T08:24:31Z</time></trkpt><trkpt lat="37.6897979920203" lon="15.127186484000484"><ele>415.0</ele><time>2026-04-19T08:24:32Z</time></trkpt><trkpt lat="37.68965459503468" lon="15.127376072128154"><ele>415.0</ele><time>2026-04-19T08:24:33Z</time></trkpt><trkpt lat="37.68952577445426" lon="15.127554887270012"><ele>412.0</ele><time>2026-04-19T08:24:34Z</time></trkpt><trkpt lat="37.68939868926999" lon="15.127714559426167"><ele>409.0</ele><time>2026-04-19T08:24:35Z</time></trkpt><trkpt lat="37.68930650728775" lon="15.127878938456425"><ele>406.0</ele><time>2026-04-19T08:24:36Z</time></trkpt><trkpt lat="37.689236333994465" lon="15.128023106816924"><ele>406.0</ele><time>2026-04-19T08:24:37Z</time></trkpt><trkpt lat="37.689232884640695" lon="15.128214355004095"><ele>406.0</ele><time>2026-04-19T08:24:38Z</time></trkpt><trkpt lat="37.68921503566229" lon="15.128367053788526"><ele>406.0</ele><time>2026-04-19T08:24:39Z</time></trkpt><trkpt lat="37.689241217424076" lon="15.12850497792487"><ele>406.0</ele><time>2026-04-19T08:24:40Z</time></trkpt><trkpt lat="37.68921053989739" lon="15.128593333034415"><ele>405.0</ele><time>2026-04-19T08:24:41Z</time></trkpt><trkpt lat="37.68907476212062" lon="15.12866473991887"><ele>404.0</ele><time>2026-04-19T08:24:43Z</time></trkpt><trkpt lat="37.689004396706146" lon="15.128696177213564"><ele>403.0</ele><time>2026-04-19T08:24:44Z</time></trkpt><trkpt lat="37.688967954988726" lon="15.128813390677177"><ele>402.0</ele><time>2026-04-19T08:24:45Z</time></trkpt><trkpt lat="37.68894414698882" lon="15.128952108044562"><ele>401.0</ele><time>2026-04-19T08:24:46Z</time></trkpt><trkpt lat="37.6889511053628" lon="15.129120836297941"><ele>398.8</ele><time>2026-04-19T08:24:47Z</time></trkpt><trkpt lat="37.68896177066959" lon="15.129288281787913"><ele>396.6</ele><time>2026-04-19T08:24:48Z</time></trkpt><trkpt lat="37.688966535208166" lon="15.12941885045366"><ele>394.4</ele><time>2026-04-19T08:24:49Z</time></trkpt><trkpt lat="37.688966715116905" lon="15.129526547646174"><ele>392.2</ele><time>2026-04-19T08:24:50Z</time></trkpt><trkpt lat="37.68891981452298" lon="15.129634383866017"><ele>390.0</ele><time>2026-04-19T08:24:51Z</time></trkpt><trkpt lat="37.688835749575006" lon="15.129716174241281"><ele>390.0</ele><time>2026-04-19T08:24:52Z</time></trkpt><trkpt lat="37.688731546562465" lon="15.12977167782848"><ele>390.0</ele><time>2026-04-19T08:24:53Z</time></trkpt><trkpt lat="37.68861971486466" lon="15.129835281112124"><ele>390.0</ele><time>2026-04-19T08:24:54Z</time></trkpt><trkpt lat="37.68850793893634" lon="15.129931107749522"><ele>390.0</ele><time>2026-04-19T08:24:55Z</time></trkpt><trkpt lat="37.688406028617315" lon="15.130063353834592"><ele>388.33333333333337</ele><time>2026-04-19T08:24:56Z</time></trkpt><trkpt lat="37.68831847631782" lon="15.130237406947225"><ele>386.6666666666667</ele><time>2026-04-19T08:24:57Z</time></trkpt><trkpt lat="37.68824875515796" lon="15.130441450591707"><ele>385.0</ele><time>2026-04-19T08:24:58Z</time></trkpt><trkpt lat="37.68818663908553" lon="15.130651872823904"><ele>384.0</ele><time>2026-04-19T08:24:59Z</time></trkpt><trkpt lat="37.688130168695295" lon="15.130865069320613"><ele>383.0</ele><time>2026-04-19T08:25:00Z</time></trkpt><trkpt lat="37.68808536888534" lon="15.131101730887757"><ele>382.0</ele><time>2026-04-19T08:25:01Z</time></trkpt><trkpt lat="37.688029957686986" lon="15.131343331820746"><ele>380.66666666666663</ele><time>2026-04-19T08:25:02Z</time></trkpt><trkpt lat="37.68797026652361" lon="15.131587934851526"><ele>379.3333333333333</ele><time>2026-04-19T08:25:03Z</time></trkpt><trkpt lat="37.68791342646683" lon="15.131815308207512"><ele>378.0</ele><time>2026-04-19T08:25:04Z</time></trkpt><trkpt lat="37.687865183145" lon="15.13203412166886"><ele>378.0</ele><time>2026-04-19T08:25:05Z</time></trkpt><trkpt lat="37.6878215251556" lon="15.132240109858019"><ele>378.0</ele><time>2026-04-19T08:25:06Z</time></trkpt><trkpt lat="37.68778331207962" lon="15.132414847660545"><ele>378.0</ele><time>2026-04-19T08:25:07Z</time></trkpt><trkpt lat="37.68774063040949" lon="15.1325513369925"><ele>378.0</ele><time>2026-04-19T08:25:08Z</time></trkpt><trkpt lat="37.68771089496735" lon="15.132666802430379"><ele>376.6666666666667</ele><time>2026-04-19T08:25:09Z</time></trkpt><trkpt lat="37.68768781657425" lon="15.132762691007388"><ele>375.3333333333333</ele><time>2026-04-19T08:25:10Z</time></trkpt><trkpt lat="37.68766305151514" lon="15.132842398276528"><ele>374.0</ele><time>2026-04-19T08:25:11Z</time></trkpt><trkpt lat="37.6875984036738" lon="15.132893198394457"><ele>372.66666666666663</ele><time>2026-04-19T08:25:12Z</time></trkpt><trkpt lat="37.68752206156068" lon="15.132916957863698"><ele>371.3333333333333</ele><time>2026-04-19T08:25:13Z</time></trkpt><trkpt lat="37.68743590276731" lon="15.132927050073489"><ele>370.0</ele><time>2026-04-19T08:25:14Z</time></trkpt><trkpt lat="37.687342927731194" lon="15.132947462781182"><ele>370.0</ele><time>2026-04-19T08:25:15Z</time></trkpt><trkpt lat="37.68725453531301" lon="15.132971739683173"><ele>370.0</ele><time>2026-04-19T08:25:16Z</time></trkpt><trkpt lat="37.687178256625636" lon="15.132993707206717"><ele>370.0</ele><time>2026-04-19T08:25:17Z</time></trkpt><trkpt lat="37.68711487708546" lon="15.133005382888495"><ele>370.0</ele><time>2026-04-19T08:25:18Z</time></trkpt><trkpt lat="37.68703121248399" lon="15.133089521665331"><ele>370.0</ele><time>2026-04-19T08:25:20Z</time></trkpt><trkpt lat="37.686977552207324" lon="15.133257710094108"><ele>369.5</ele><time>2026-04-19T08:25:22Z</time></trkpt><trkpt lat="37.68693430464941" lon="15.133352942797329"><ele>369.0</ele><time>2026-04-19T08:25:23Z</time></trkpt><trkpt lat="37.68688927635928" lon="15.13345988484636"><ele>368.5</ele><time>2026-04-19T08:25:24Z</time></trkpt><trkpt lat="37.68684691115776" lon="15.133564683439968"><ele>368.0</ele><time>2026-04-19T08:25:25Z</time></trkpt><trkpt lat="37.68680753912826" lon="15.13366821859572"><ele>367.5</ele><time>2026-04-19T08:25:26Z</time></trkpt><trkpt lat="37.68676859278991" lon="15.133754851494492"><ele>367.0</ele><time>2026-04-19T08:25:27Z</time></trkpt><trkpt lat="37.68673886407155" lon="15.133850722511141"><ele>367.0</ele><time>2026-04-19T08:25:28Z</time></trkpt><trkpt lat="37.686703224616735" lon="15.13393210040373"><ele>367.0</ele><time>2026-04-19T08:25:29Z</time></trkpt><trkpt lat="37.68666924674273" lon="15.134006128052912"><ele>367.0</ele><time>2026-04-19T08:25:30Z</time></trkpt><trkpt lat="37.68664180208532" lon="15.134084273887067"><ele>367.0</ele><time>2026-04-19T08:25:31Z</time></trkpt><trkpt lat="37.68661782736537" lon="15.134158858136143"><ele>367.0</ele><time>2026-04-19T08:25:32Z</time></trkpt><trkpt lat="37.68656351015639" lon="15.134278877207885"><ele>367.0</ele><time>2026-04-19T08:25:34Z</time></trkpt><trkpt lat="37.686493319370776" lon="15.134388041893656"><ele>366.20000000000005</ele><time>2026-04-19T08:25:36Z</time></trkpt><trkpt lat="37.68642424977254" lon="15.134544562766738"><ele>365.4</ele><time>2026-04-19T08:25:38Z</time></trkpt><trkpt lat="37.686382207551546" lon="15.134640475539634"><ele>364.6</ele><time>2026-04-19T08:25:39Z</time></trkpt><trkpt lat="37.68632824766236" lon="15.13473976613585"><ele>363.79999999999995</ele><time>2026-04-19T08:25:40Z</time></trkpt><trkpt lat="37.686279298848895" lon="15.134826040912923"><ele>363.0</ele><time>2026-04-19T08:25:41Z</time></trkpt><trkpt lat="37.6862285578213" lon="15.134882040376452"><ele>362.2</ele><time>2026-04-19T08:25:42Z</time></trkpt><trkpt lat="37.68621666869132" lon="15.134999915301451"><ele>361.4</ele><time>2026-04-19T08:25:44Z</time></trkpt><trkpt lat="37.68619470433686" lon="15.135103476877946"><ele>360.59999999999997</ele><time>2026-04-19T08:25:45Z</time></trkpt><trkpt lat="37.68625278795848" lon="15.135198114387977"><ele>359.79999999999995</ele><time>2026-04-19T08:25:47Z</time></trkpt><trkpt lat="37.686288269891875" lon="15.135339466093857"><ele>359.0</ele><time>2026-04-19T08:25:49Z</time></trkpt><trkpt lat="37.686309973654396" lon="15.135476137012315"><ele>359.0</ele><time>2026-04-19T08:25:51Z</time></trkpt><trkpt lat="37.686331417907745" lon="15.135637360575638"><ele>359.0</ele><time>2026-04-19T08:25:53Z</time></trkpt><trkpt lat="37.68633776558711" lon="15.13571727065149"><ele>359.0</ele><time>2026-04-19T08:25:54Z</time></trkpt><trkpt lat="37.68635641873343" lon="15.135861779833181"><ele>359.0</ele><time>2026-04-19T08:25:56Z</time></trkpt><trkpt lat="37.68638315206945" lon="15.13601328984469"><ele>359.0</ele><time>2026-04-19T08:25:58Z</time></trkpt><trkpt lat="37.68639117524537" lon="15.136095583422666"><ele>358.57142857142856</ele><time>2026-04-19T08:25:59Z</time></trkpt><trkpt lat="37.68640140212576" lon="15.136188574100126"><ele>358.14285714285717</ele><time>2026-04-19T08:26:00Z</time></trkpt><trkpt lat="37.686423084262756" lon="15.136276653925002"><ele>357.71428571428567</ele><time>2026-04-19T08:26:01Z</time></trkpt><trkpt lat="37.68643914469443" lon="15.136364567332432"><ele>357.2857142857143</ele><time>2026-04-19T08:26:02Z</time></trkpt><trkpt lat="37.686453436354576" lon="15.13645829601606"><ele>356.85714285714283</ele><time>2026-04-19T08:26:03Z</time></trkpt><trkpt lat="37.68646841546088" lon="15.13654359226347"><ele>356.4285714285714</ele><time>2026-04-19T08:26:04Z</time></trkpt><trkpt lat="37.686475021041396" lon="15.136624207084674"><ele>356.0</ele><time>2026-04-19T08:26:05Z</time></trkpt><trkpt lat="37.686489572019845" lon="15.136710040163894"><ele>355.1428571428571</ele><time>2026-04-19T08:26:06Z</time></trkpt><trkpt lat="37.68650508887979" lon="15.136789977851022"><ele>354.2857142857143</ele><time>2026-04-19T08:26:07Z</time></trkpt><trkpt lat="37.68652782703254" lon="15.136876152921337"><ele>353.42857142857144</ele><time>2026-04-19T08:26:08Z</time></trkpt><trkpt lat="37.68654297544699" lon="15.136964443436966"><ele>352.57142857142856</ele><time>2026-04-19T08:26:09Z</time></trkpt><trkpt lat="37.686554422396284" lon="15.137056691997147"><ele>351.7142857142857</ele><time>2026-04-19T08:26:10Z</time></trkpt><trkpt lat="37.68657075857999" lon="15.137141405236417"><ele>350.85714285714283</ele><time>2026-04-19T08:26:11Z</time></trkpt><trkpt lat="37.686589926286125" lon="15.137224176506813"><ele>350.0</ele><time>2026-04-19T08:26:12Z</time></trkpt><trkpt lat="37.68660997753654" lon="15.137305207801012"><ele>349.7142857142857</ele><time>2026-04-19T08:26:13Z</time></trkpt><trkpt lat="37.686626589368586" lon="15.137390315361705"><ele>349.42857142857144</ele><time>2026-04-19T08:26:14Z</time></trkpt><trkpt lat="37.68664520623336" lon="15.13746950391012"><ele>349.1428571428571</ele><time>2026-04-19T08:26:15Z</time></trkpt><trkpt lat="37.68666245089428" lon="15.137552848644793"><ele>348.8571428571429</ele><time>2026-04-19T08:26:16Z</time></trkpt><trkpt lat="37.68668314217959" lon="15.137634024110628"><ele>348.57142857142856</ele><time>2026-04-19T08:26:17Z</time></trkpt><trkpt lat="37.68669455496405" lon="15.137719752991954"><ele>348.2857142857143</ele><time>2026-04-19T08:26:18Z</time></trkpt><trkpt lat="37.68671491717331" lon="15.137801217667885"><ele>348.0</ele><time>2026-04-19T08:26:19Z</time></trkpt><trkpt lat="37.686734317189966" lon="15.13789026496609"><ele>348.0</ele><time>2026-04-19T08:26:20Z</time></trkpt><trkpt lat="37.68676422730299" lon="15.137972966538593"><ele>348.0</ele><time>2026-04-19T08:26:21Z</time></trkpt><trkpt lat="37.68680268083007" lon="15.138055602218977"><ele>348.0</ele><time>2026-04-19T08:26:22Z</time></trkpt><trkpt lat="37.68684085107069" lon="15.13814242701479"><ele>348.0</ele><time>2026-04-19T08:26:23Z</time></trkpt><trkpt lat="37.686881339475065" lon="15.13822530506135"><ele>348.0</ele><time>2026-04-19T08:26:24Z</time></trkpt><trkpt lat="37.68693437105441" lon="15.138293137583387"><ele>348.0</ele><time>2026-04-19T08:26:25Z</time></trkpt><trkpt lat="37.6869904518657" lon="15.138350846543306"><ele>346.85714285714283</ele><time>2026-04-19T08:26:26Z</time></trkpt><trkpt lat="37.68702475393487" lon="15.138438187388047"><ele>345.7142857142857</ele><time>2026-04-19T08:26:27Z</time></trkpt><trkpt lat="37.687044932982616" lon="15.138532453211432"><ele>344.57142857142856</ele><time>2026-04-19T08:26:28Z</time></trkpt><trkpt lat="37.68709405673118" lon="15.138606009003485"><ele>343.42857142857144</ele><time>2026-04-19T08:26:29Z</time></trkpt><trkpt lat="37.68711701641238" lon="15.13869300308916"><ele>342.2857142857143</ele><time>2026-04-19T08:26:30Z</time></trkpt><trkpt lat="37.687133445694165" lon="15.138779469413482"><ele>341.14285714285717</ele><time>2026-04-19T08:26:31Z</time></trkpt><trkpt lat="37.687157171342726" lon="15.138859920713752"><ele>340.0</ele><time>2026-04-19T08:26:32Z</time></trkpt><trkpt lat="37.68719254259252" lon="15.139001217581198"><ele>339.5</ele><time>2026-04-19T08:26:34Z</time></trkpt><trkpt lat="37.68719540756465" lon="15.139159877301237"><ele>339.0</ele><time>2026-04-19T08:26:36Z</time></trkpt><trkpt lat="37.68719176961226" lon="15.139245606742707"><ele>338.5</ele><time>2026-04-19T08:26:37Z</time></trkpt><trkpt lat="37.68719255490945" lon="15.139350287340282"><ele>338.0</ele><time>2026-04-19T08:26:38Z</time></trkpt><trkpt lat="37.687201110309765" lon="15.139463008856875"><ele>337.5</ele><time>2026-04-19T08:26:39Z</time></trkpt><trkpt lat="37.68720457184485" lon="15.139558888260023"><ele>337.0</ele><time>2026-04-19T08:26:40Z</time></trkpt><trkpt lat="37.6871982603698" lon="15.139656161372072"><ele>337.0</ele><time>2026-04-19T08:26:42Z</time></trkpt><trkpt lat="37.687194101337475" lon="15.139769121439715"><ele>337.0</ele><time>2026-04-19T08:26:45Z</time></trkpt><trkpt lat="37.68719476989504" lon="15.139881256422962"><ele>337.0</ele><time>2026-04-19T08:26:48Z</time></trkpt><trkpt lat="37.68719428977407" lon="15.139990060110991"><ele>337.0</ele><time>2026-04-19T08:26:50Z</time></trkpt><trkpt lat="37.68719289538329" lon="15.140117907035222"><ele>337.0</ele><time>2026-04-19T08:26:52Z</time></trkpt><trkpt lat="37.687194073189154" lon="15.140256345833063"><ele>336.5</ele><time>2026-04-19T08:26:54Z</time></trkpt><trkpt lat="37.687196771744894" lon="15.140405211129435"><ele>336.0</ele><time>2026-04-19T08:26:56Z</time></trkpt><trkpt lat="37.6872045945919" lon="15.140487176923397"><ele>335.5</ele><time>2026-04-19T08:26:57Z</time></trkpt><trkpt lat="37.68720846333287" lon="15.14057246154037"><ele>335.0</ele><time>2026-04-19T08:26:58Z</time></trkpt><trkpt lat="37.68720947996364" lon="15.140661330948223"><ele>334.5</ele><time>2026-04-19T08:26:59Z</time></trkpt><trkpt lat="37.687207640906195" lon="15.14075435435467"><ele>334.0</ele><time>2026-04-19T08:27:00Z</time></trkpt><trkpt lat="37.687205908639434" lon="15.140850974713505"><ele>333.3333333333333</ele><time>2026-04-19T08:27:01Z</time></trkpt><trkpt lat="37.68720590015186" lon="15.140954758117946"><ele>332.66666666666663</ele><time>2026-04-19T08:27:02Z</time></trkpt><trkpt lat="37.68720763034133" lon="15.141054697644899"><ele>332.0</ele><time>2026-04-19T08:27:03Z</time></trkpt><trkpt lat="37.687209118927825" lon="15.141160737973674"><ele>331.3333333333333</ele><time>2026-04-19T08:27:04Z</time></trkpt><trkpt lat="37.68720973369311" lon="15.141260510649555"><ele>330.6666666666667</ele><time>2026-04-19T08:27:05Z</time></trkpt><trkpt lat="37.68721014597685" lon="15.141360026381507"><ele>330.0</ele><time>2026-04-19T08:27:06Z</time></trkpt><trkpt lat="37.68720617552191" lon="15.141452861962833"><ele>329.0</ele><time>2026-04-19T08:27:07Z</time></trkpt><trkpt lat="37.687207226451015" lon="15.141561601730414"><ele>328.0</ele><time>2026-04-19T08:27:08Z</time></trkpt><trkpt lat="37.687203624332554" lon="15.141655378680172"><ele>327.0</ele><time>2026-04-19T08:27:09Z</time></trkpt><trkpt lat="37.68720687895471" lon="15.141772146385684"><ele>326.0</ele><time>2026-04-19T08:27:10Z</time></trkpt><trkpt lat="37.68720970635452" lon="15.141873163663712"><ele>325.0</ele><time>2026-04-19T08:27:11Z</time></trkpt><trkpt lat="37.68721045492293" lon="15.14197415754765"><ele>324.0</ele><time>2026-04-19T08:27:12Z</time></trkpt><trkpt lat="37.687211131539144" lon="15.14207600017565"><ele>324.0</ele><time>2026-04-19T08:27:13Z</time></trkpt><trkpt lat="37.687223471022214" lon="15.142184667479354"><ele>324.0</ele><time>2026-04-19T08:27:14Z</time></trkpt><trkpt lat="37.687215741881595" lon="15.142278109777903"><ele>324.0</ele><time>2026-04-19T08:27:15Z</time></trkpt><trkpt lat="37.68720939174997" lon="15.142378700367406"><ele>324.0</ele><time>2026-04-19T08:27:16Z</time></trkpt><trkpt lat="37.687217627409254" lon="15.142490468673893"><ele>324.0</ele><time>2026-04-19T08:27:17Z</time></trkpt><trkpt lat="37.68722268794902" lon="15.142577633770244"><ele>324.0</ele><time>2026-04-19T08:27:18Z</time></trkpt><trkpt lat="37.687221216397205" lon="15.142664547277516"><ele>323.3333333333333</ele><time>2026-04-19T08:27:19Z</time></trkpt><trkpt lat="37.68722573213488" lon="15.142755348383828"><ele>322.6666666666667</ele><time>2026-04-19T08:27:20Z</time></trkpt><trkpt lat="37.68722551048813" lon="15.142842670738863"><ele>322.0</ele><time>2026-04-19T08:27:21Z</time></trkpt><trkpt lat="37.68722264419057" lon="15.142933481841805"><ele>321.33333333333337</ele><time>2026-04-19T08:27:22Z</time></trkpt><trkpt lat="37.6872221664707" lon="15.143025475698273"><ele>320.6666666666667</ele><time>2026-04-19T08:27:23Z</time></trkpt><trkpt lat="37.687227110416984" lon="15.143131817400976"><ele>320.0</ele><time>2026-04-19T08:27:24Z</time></trkpt><trkpt lat="37.68722484960691" lon="15.143261097590981"><ele>319.0</ele><time>2026-04-19T08:27:25Z</time></trkpt><trkpt lat="37.68722182965297" lon="15.143421306899262"><ele>318.0</ele><time>2026-04-19T08:27:26Z</time></trkpt><trkpt lat="37.6872265686472" lon="15.143599029770975"><ele>317.0</ele><time>2026-04-19T08:27:27Z</time></trkpt><trkpt lat="37.687224519920875" lon="15.143774176209035"><ele>316.0</ele><time>2026-04-19T08:27:28Z</time></trkpt><trkpt lat="37.687222717962754" lon="15.143928810554199"><ele>314.5</ele><time>2026-04-19T08:27:29Z</time></trkpt><trkpt lat="37.68722068714829" lon="15.144076821774298"><ele>313.0</ele><time>2026-04-19T08:27:30Z</time></trkpt><trkpt lat="37.68721731816958" lon="15.144231908257552"><ele>311.5</ele><time>2026-04-19T08:27:31Z</time></trkpt><trkpt lat="37.68721911607687" lon="15.144392518731046"><ele>310.0</ele><time>2026-04-19T08:27:32Z</time></trkpt><trkpt lat="37.68722319306467" lon="15.144568892940146"><ele>310.0</ele><time>2026-04-19T08:27:33Z</time></trkpt><trkpt lat="37.68721892332783" lon="15.144727174905459"><ele>310.0</ele><time>2026-04-19T08:27:34Z</time></trkpt><trkpt lat="37.68721313390885" lon="15.144874749926183"><ele>310.0</ele><time>2026-04-19T08:27:35Z</time></trkpt><trkpt lat="37.68721030535491" lon="15.145015288478474"><ele>310.0</ele><time>2026-04-19T08:27:36Z</time></trkpt><trkpt lat="37.6871804414795" lon="15.145133068069129"><ele>309.0</ele><time>2026-04-19T08:27:37Z</time></trkpt><trkpt lat="37.68714148000766" lon="15.145234754604427"><ele>308.0</ele><time>2026-04-19T08:27:38Z</time></trkpt><trkpt lat="37.68709303503159" lon="15.145307035944304"><ele>307.0</ele><time>2026-04-19T08:27:39Z</time></trkpt><trkpt lat="37.687030998713055" lon="15.145421967106607"><ele>306.0</ele><time>2026-04-19T08:27:41Z</time></trkpt><trkpt lat="37.68702949310952" lon="15.145563107981598"><ele>305.0</ele><time>2026-04-19T08:27:43Z</time></trkpt><trkpt lat="37.6871083014032" lon="15.145666422968189"><ele>303.25</ele><time>2026-04-19T08:27:45Z</time></trkpt><trkpt lat="37.687212608402724" lon="15.14574054125886"><ele>301.5</ele><time>2026-04-19T08:27:47Z</time></trkpt><trkpt lat="37.6872283373795" lon="15.145900911022382"><ele>299.75</ele><time>2026-04-19T08:27:48Z</time></trkpt><trkpt lat="37.68723166247333" lon="15.146043780263561"><ele>298.0</ele><time>2026-04-19T08:27:49Z</time></trkpt><trkpt lat="37.68725960242165" lon="15.146212279937064"><ele>298.0</ele><time>2026-04-19T08:27:50Z</time></trkpt><trkpt lat="37.68729118076244" lon="15.146402722031807"><ele>298.0</ele><time>2026-04-19T08:27:51Z</time></trkpt><trkpt lat="37.68733531852855" lon="15.146615179217699"><ele>298.0</ele><time>2026-04-19T08:27:52Z</time></trkpt><trkpt lat="37.687376812981555" lon="15.146845364388025"><ele>296.3333333333333</ele><time>2026-04-19T08:27:53Z</time></trkpt><trkpt lat="37.687437068300596" lon="15.147087068973178"><ele>294.6666666666667</ele><time>2026-04-19T08:27:54Z</time></trkpt><trkpt lat="37.687512014724525" lon="15.147335451629784"><ele>293.0</ele><time>2026-04-19T08:27:55Z</time></trkpt><trkpt lat="37.68757206493433" lon="15.147585890250715"><ele>293.0</ele><time>2026-04-19T08:27:56Z</time></trkpt><trkpt lat="37.68764579654793" lon="15.147807614060113"><ele>293.0</ele><time>2026-04-19T08:27:57Z</time></trkpt><trkpt lat="37.68774164412208" lon="15.148015639737691"><ele>293.0</ele><time>2026-04-19T08:27:58Z</time></trkpt><trkpt lat="37.68781350824922" lon="15.148228306063888"><ele>291.0</ele><time>2026-04-19T08:27:59Z</time></trkpt><trkpt lat="37.68789410552222" lon="15.148414283540841"><ele>289.0</ele><time>2026-04-19T08:28:00Z</time></trkpt><trkpt lat="37.68797291913053" lon="15.14859306115713"><ele>287.0</ele><time>2026-04-19T08:28:01Z</time></trkpt><trkpt lat="37.688060391795844" lon="15.148756788950612"><ele>287.0</ele><time>2026-04-19T08:28:02Z</time></trkpt><trkpt lat="37.68813189186879" lon="15.148888889152893"><ele>287.0</ele><time>2026-04-19T08:28:03Z</time></trkpt><trkpt lat="37.68817144768024" lon="15.149037782426975"><ele>287.0</ele><time>2026-04-19T08:28:04Z</time></trkpt><trkpt lat="37.688193692897656" lon="15.149176269157818"><ele>287.0</ele><time>2026-04-19T08:28:05Z</time></trkpt><trkpt lat="37.68821955492945" lon="15.149310646571632"><ele>286.25</ele><time>2026-04-19T08:28:06Z</time></trkpt><trkpt lat="37.68826016941852" lon="15.149446888351708"><ele>285.5</ele><time>2026-04-19T08:28:07Z</time></trkpt><trkpt lat="37.68831692132408" lon="15.14958272378842"><ele>284.75</ele><time>2026-04-19T08:28:08Z</time></trkpt><trkpt lat="37.68838135653977" lon="15.149725819234257"><ele>284.0</ele><time>2026-04-19T08:28:09Z</time></trkpt><trkpt lat="37.688508699347956" lon="15.149825436706738"><ele>283.6666666666667</ele><time>2026-04-19T08:28:10Z</time></trkpt><trkpt lat="37.688653438837825" lon="15.149897286538868"><ele>283.3333333333333</ele><time>2026-04-19T08:28:11Z</time></trkpt><trkpt lat="37.68880955561761" lon="15.149960072864957"><ele>283.0</ele><time>2026-04-19T08:28:12Z</time></trkpt><trkpt lat="37.68896549927977" lon="15.150021277182057"><ele>283.0</ele><time>2026-04-19T08:28:13Z</time></trkpt><trkpt lat="37.689123552587596" lon="15.15008346665968"><ele>283.0</ele><time>2026-04-19T08:28:14Z</time></trkpt><trkpt lat="37.689280558257224" lon="15.150144554469179"><ele>283.0</ele><time>2026-04-19T08:28:15Z</time></trkpt><trkpt lat="37.68943348553835" lon="15.150188018014326"><ele>284.0</ele><time>2026-04-19T08:28:16Z</time></trkpt><trkpt lat="37.689577649035755" lon="15.150172256883645"><ele>285.0</ele><time>2026-04-19T08:28:17Z</time></trkpt><trkpt lat="37.68971367098673" lon="15.150187458561698"><ele>286.0</ele><time>2026-04-19T08:28:18Z</time></trkpt><trkpt lat="37.689860966972944" lon="15.15018163151966"><ele>287.0</ele><time>2026-04-19T08:28:19Z</time></trkpt><trkpt lat="37.69002078673662" lon="15.150175309034378"><ele>287.0</ele><time>2026-04-19T08:28:20Z</time></trkpt><trkpt lat="37.69019235892151" lon="15.150168521633805"><ele>287.0</ele><time>2026-04-19T08:28:21Z</time></trkpt><trkpt lat="37.69037230866243" lon="15.150161547686404"><ele>287.0</ele><time>2026-04-19T08:28:22Z</time></trkpt><trkpt lat="37.690559097777644" lon="15.150154334955422"><ele>286.6666666666667</ele><time>2026-04-19T08:28:23Z</time></trkpt><trkpt lat="37.69075279195126" lon="15.150147982307887"><ele>286.3333333333333</ele><time>2026-04-19T08:28:24Z</time></trkpt><trkpt lat="37.69095332654431" lon="15.15008892711633"><ele>286.0</ele><time>2026-04-19T08:28:25Z</time></trkpt><trkpt lat="37.69114943775035" lon="15.150086919781334"><ele>287.0</ele><time>2026-04-19T08:28:26Z</time></trkpt><trkpt lat="37.691330471250474" lon="15.150089555496347"><ele>288.0</ele><time>2026-04-19T08:28:27Z</time></trkpt><trkpt lat="37.69149338026954" lon="15.150092138141499"><ele>289.0</ele><time>2026-04-19T08:28:28Z</time></trkpt><trkpt lat="37.69163089796177" lon="15.150093548682197"><ele>289.0</ele><time>2026-04-19T08:28:29Z</time></trkpt><trkpt lat="37.691739781101" lon="15.150122595253833"><ele>289.0</ele><time>2026-04-19T08:28:30Z</time></trkpt><trkpt lat="37.6918388575737" lon="15.150146683266255"><ele>289.0</ele><time>2026-04-19T08:28:31Z</time></trkpt><trkpt lat="37.69192799890452" lon="15.150185808694346"><ele>289.0</ele><time>2026-04-19T08:28:32Z</time></trkpt><trkpt lat="37.69200292180746" lon="15.150225791147857"><ele>289.0</ele><time>2026-04-19T08:28:33Z</time></trkpt><trkpt lat="37.69204247969011" lon="15.150368665601908"><ele>289.5</ele><time>2026-04-19T08:28:34Z</time></trkpt><trkpt lat="37.692073616141805" lon="15.150498535530451"><ele>290.0</ele><time>2026-04-19T08:28:35Z</time></trkpt><trkpt lat="37.69211174472132" lon="15.150651008619224"><ele>290.5</ele><time>2026-04-19T08:28:36Z</time></trkpt><trkpt lat="37.69215561027353" lon="15.150822057408591"><ele>291.0</ele><time>2026-04-19T08:28:37Z</time></trkpt><trkpt lat="37.692230317983096" lon="15.15099381862259"><ele>289.0</ele><time>2026-04-19T08:28:38Z</time></trkpt><trkpt lat="37.69234978275845" lon="15.151145917228979"><ele>287.0</ele><time>2026-04-19T08:28:39Z</time></trkpt><trkpt lat="37.69250116364744" lon="15.15125375866207"><ele>285.0</ele><time>2026-04-19T08:28:40Z</time></trkpt><trkpt lat="37.69266546512218" lon="15.151367563654134"><ele>283.0</ele><time>2026-04-19T08:28:41Z</time></trkpt><trkpt lat="37.692841074671" lon="15.151466913228678"><ele>281.0</ele><time>2026-04-19T08:28:42Z</time></trkpt><trkpt lat="37.69300957785896" lon="15.151562242454949"><ele>279.0</ele><time>2026-04-19T08:28:43Z</time></trkpt><trkpt lat="37.693156293347236" lon="15.151652543676908"><ele>277.75</ele><time>2026-04-19T08:28:44Z</time></trkpt><trkpt lat="37.69327814929" lon="15.151743417594817"><ele>276.5</ele><time>2026-04-19T08:28:45Z</time></trkpt><trkpt lat="37.69336529553996" lon="15.151857549843033"><ele>275.25</ele><time>2026-04-19T08:28:46Z</time></trkpt><trkpt lat="37.69345071919518" lon="15.151989200065902"><ele>274.0</ele><time>2026-04-19T08:28:47Z</time></trkpt><trkpt lat="37.69349879926072" lon="15.152141795468383"><ele>274.0</ele><time>2026-04-19T08:28:48Z</time></trkpt><trkpt lat="37.69351499813357" lon="15.1523067691804"><ele>274.0</ele><time>2026-04-19T08:28:49Z</time></trkpt><trkpt lat="37.69349247908984" lon="15.152499921817387"><ele>274.0</ele><time>2026-04-19T08:28:50Z</time></trkpt><trkpt lat="37.69345766148453" lon="15.152703033154198"><ele>272.3333333333333</ele><time>2026-04-19T08:28:51Z</time></trkpt><trkpt lat="37.693421345882875" lon="15.152928049209946"><ele>270.6666666666667</ele><time>2026-04-19T08:28:52Z</time></trkpt><trkpt lat="37.693390973799985" lon="15.153153172890603"><ele>269.0</ele><time>2026-04-19T08:28:53Z</time></trkpt><trkpt lat="37.693358095898056" lon="15.153374572085745"><ele>268.33333333333337</ele><time>2026-04-19T08:28:54Z</time></trkpt><trkpt lat="37.69332147986003" lon="15.1535865754235"><ele>267.6666666666667</ele><time>2026-04-19T08:28:55Z</time></trkpt><trkpt lat="37.69328722149938" lon="15.153787399679553"><ele>267.0</ele><time>2026-04-19T08:28:56Z</time></trkpt><trkpt lat="37.69325421354831" lon="15.153979758453845"><ele>265.25</ele><time>2026-04-19T08:28:57Z</time></trkpt><trkpt lat="37.69320987417823" lon="15.154161745469553"><ele>263.5</ele><time>2026-04-19T08:28:58Z</time></trkpt><trkpt lat="37.69316780852379" lon="15.15433676591256"><ele>261.75</ele><time>2026-04-19T08:28:59Z</time></trkpt><trkpt lat="37.693160753955766" lon="15.154523691860998"><ele>260.0</ele><time>2026-04-19T08:29:00Z</time></trkpt><trkpt lat="37.69317488685622" lon="15.15471500867086"><ele>258.33333333333337</ele><time>2026-04-19T08:29:01Z</time></trkpt><trkpt lat="37.693199462278315" lon="15.15490537753928"><ele>256.6666666666667</ele><time>2026-04-19T08:29:02Z</time></trkpt><trkpt lat="37.69325041336966" lon="15.155092498769907"><ele>255.0</ele><time>2026-04-19T08:29:03Z</time></trkpt><trkpt lat="37.69333789637222" lon="15.15526749249332"><ele>255.0</ele><time>2026-04-19T08:29:04Z</time></trkpt><trkpt lat="37.69343643806699" lon="15.15544368250294"><ele>255.0</ele><time>2026-04-19T08:29:05Z</time></trkpt><trkpt lat="37.693552487000545" lon="15.155609041445203"><ele>255.0</ele><time>2026-04-19T08:29:06Z</time></trkpt><trkpt lat="37.69366097496784" lon="15.155760434843152"><ele>254.5</ele><time>2026-04-19T08:29:07Z</time></trkpt><trkpt lat="37.693773596333685" lon="15.15589181420507"><ele>254.0</ele><time>2026-04-19T08:29:08Z</time></trkpt><trkpt lat="37.69385666529307" lon="15.156038026037912"><ele>253.5</ele><time>2026-04-19T08:29:09Z</time></trkpt><trkpt lat="37.693941631447125" lon="15.156166893203148"><ele>253.0</ele><time>2026-04-19T08:29:10Z</time></trkpt><trkpt lat="37.69401883471645" lon="15.15628920885527"><ele>253.0</ele><time>2026-04-19T08:29:11Z</time></trkpt><trkpt lat="37.69409181139713" lon="15.156415566754697"><ele>253.0</ele><time>2026-04-19T08:29:12Z</time></trkpt><trkpt lat="37.694157802625995" lon="15.156551908242538"><ele>253.0</ele><time>2026-04-19T08:29:13Z</time></trkpt><trkpt lat="37.69423440441588" lon="15.156687748121195"><ele>253.0</ele><time>2026-04-19T08:29:14Z</time></trkpt><trkpt lat="37.69429954280462" lon="15.156846556875738"><ele>253.33333333333331</ele><time>2026-04-19T08:29:15Z</time></trkpt><trkpt lat="37.69436452825193" lon="15.157020636960105"><ele>253.66666666666669</ele><time>2026-04-19T08:29:16Z</time></trkpt><trkpt lat="37.69442552020504" lon="15.157204408685592"><ele>254.0</ele><time>2026-04-19T08:29:17Z</time></trkpt><trkpt lat="37.694485430876426" lon="15.157391609265296"><ele>252.66666666666669</ele><time>2026-04-19T08:29:18Z</time></trkpt><trkpt lat="37.69454287574404" lon="15.157581813069653"><ele>251.33333333333331</ele><time>2026-04-19T08:29:19Z</time></trkpt><trkpt lat="37.69460063076967" lon="15.157769097032645"><ele>250.0</ele><time>2026-04-19T08:29:20Z</time></trkpt><trkpt lat="37.694658972899575" lon="15.157959129454193"><ele>250.0</ele><time>2026-04-19T08:29:21Z</time></trkpt><trkpt lat="37.694720495467934" lon="15.158144559356952"><ele>250.0</ele><time>2026-04-19T08:29:22Z</time></trkpt><trkpt lat="37.69477714035103" lon="15.158323835641749"><ele>250.0</ele><time>2026-04-19T08:29:23Z</time></trkpt><trkpt lat="37.694812905097045" lon="15.158505370042517"><ele>248.5</ele><time>2026-04-19T08:29:24Z</time></trkpt><trkpt lat="37.69486683872497" lon="15.158672052867372"><ele>247.0</ele><time>2026-04-19T08:29:25Z</time></trkpt><trkpt lat="37.6949327278657" lon="15.158823093138531"><ele>245.5</ele><time>2026-04-19T08:29:26Z</time></trkpt><trkpt lat="37.69497643037404" lon="15.158981562182761"><ele>244.0</ele><time>2026-04-19T08:29:27Z</time></trkpt><trkpt lat="37.694991798893284" lon="15.159158597242076"><ele>243.0</ele><time>2026-04-19T08:29:28Z</time></trkpt><trkpt lat="37.69501964564563" lon="15.159363838239996"><ele>242.0</ele><time>2026-04-19T08:29:29Z</time></trkpt><trkpt lat="37.69505156314268" lon="15.159580636667467"><ele>241.0</ele><time>2026-04-19T08:29:30Z</time></trkpt><trkpt lat="37.6950802792333" lon="15.159763169320756"><ele>240.4</ele><time>2026-04-19T08:29:31Z</time></trkpt><trkpt lat="37.69510256165246" lon="15.159905478905955"><ele>239.8</ele><time>2026-04-19T08:29:32Z</time></trkpt><trkpt lat="37.69512281574532" lon="15.160034834634384"><ele>239.20000000000002</ele><time>2026-04-19T08:29:33Z</time></trkpt><trkpt lat="37.695140325049294" lon="15.160156995979746"><ele>238.60000000000002</ele><time>2026-04-19T08:29:34Z</time></trkpt><trkpt lat="37.69515472060696" lon="15.160269789546309"><ele>238.0</ele><time>2026-04-19T08:29:35Z</time></trkpt><trkpt lat="37.69518198926473" lon="15.16038469050231"><ele>238.0</ele><time>2026-04-19T08:29:36Z</time></trkpt><trkpt lat="37.6951760441055" lon="15.160512487966148"><ele>238.0</ele><time>2026-04-19T08:29:37Z</time></trkpt><trkpt lat="37.695168958689386" lon="15.160656287107182"><ele>238.0</ele><time>2026-04-19T08:29:38Z</time></trkpt><trkpt lat="37.69516412217738" lon="15.160808480199526"><ele>238.0</ele><time>2026-04-19T08:29:39Z</time></trkpt><trkpt lat="37.69516367732086" lon="15.160966961843984"><ele>236.75</ele><time>2026-04-19T08:29:40Z</time></trkpt><trkpt lat="37.695158109643785" lon="15.161127147393586"><ele>235.5</ele><time>2026-04-19T08:29:41Z</time></trkpt><trkpt lat="37.69516379563515" lon="15.16128833169992"><ele>234.25</ele><time>2026-04-19T08:29:42Z</time></trkpt><trkpt lat="37.69517778173312" lon="15.161453518856696"><ele>233.0</ele><time>2026-04-19T08:29:43Z</time></trkpt><trkpt lat="37.69520437765673" lon="15.16162411248849"><ele>232.25</ele><time>2026-04-19T08:29:44Z</time></trkpt><trkpt lat="37.69524157843247" lon="15.161795156624985"><ele>231.5</ele><time>2026-04-19T08:29:45Z</time></trkpt><trkpt lat="37.69527882702941" lon="15.16197380562858"><ele>230.75</ele><time>2026-04-19T08:29:46Z</time></trkpt><trkpt lat="37.695324743863594" lon="15.162155657074951"><ele>230.0</ele><time>2026-04-19T08:29:47Z</time></trkpt><trkpt lat="37.69538535515803" lon="15.162331572222602"><ele>229.25</ele><time>2026-04-19T08:29:48Z</time></trkpt><trkpt lat="37.695441869033175" lon="15.162512802827411"><ele>228.5</ele><time>2026-04-19T08:29:49Z</time></trkpt><trkpt lat="37.69552274695941" lon="15.162661445978667"><ele>227.75</ele><time>2026-04-19T08:29:50Z</time></trkpt><trkpt lat="37.69558365609039" lon="15.162814825789866"><ele>227.0</ele><time>2026-04-19T08:29:51Z</time></trkpt><trkpt lat="37.69564475269682" lon="15.162959710562486"><ele>227.0</ele><time>2026-04-19T08:29:52Z</time></trkpt><trkpt lat="37.695702653435724" lon="15.16310127028065"><ele>227.0</ele><time>2026-04-19T08:29:53Z</time></trkpt><trkpt lat="37.69576259068975" lon="15.163234809423328"><ele>227.0</ele><time>2026-04-19T08:29:54Z</time></trkpt><trkpt lat="37.69580387224088" lon="15.163375982442124"><ele>227.0</ele><time>2026-04-19T08:29:55Z</time></trkpt><trkpt lat="37.695869652616885" lon="15.16349709652322"><ele>226.39999999999998</ele><time>2026-04-19T08:29:56Z</time></trkpt><trkpt lat="37.69591801544268" lon="15.163627581232545"><ele>225.79999999999998</ele><time>2026-04-19T08:29:57Z</time></trkpt><trkpt lat="37.69596837363229" lon="15.163747023851469"><ele>225.2</ele><time>2026-04-19T08:29:58Z</time></trkpt><trkpt lat="37.696008004753516" lon="15.163872406502168"><ele>224.6</ele><time>2026-04-19T08:29:59Z</time></trkpt><trkpt lat="37.696066620596476" lon="15.163980685460029"><ele>224.0</ele><time>2026-04-19T08:30:00Z</time></trkpt><trkpt lat="37.696112707755375" lon="15.164094911181753"><ele>224.0</ele><time>2026-04-19T08:30:01Z</time></trkpt><trkpt lat="37.69615723438284" lon="15.164220083269507"><ele>224.0</ele><time>2026-04-19T08:30:02Z</time></trkpt><trkpt lat="37.696201860340594" lon="15.164351712660004"><ele>224.0</ele><time>2026-04-19T08:30:03Z</time></trkpt><trkpt lat="37.69624582889961" lon="15.164487488298816"><ele>224.0</ele><time>2026-04-19T08:30:04Z</time></trkpt><trkpt lat="37.69628504563162" lon="15.164636106816342"><ele>224.0</ele><time>2026-04-19T08:30:05Z</time></trkpt><trkpt lat="37.69632310781692" lon="15.164797321346612"><ele>224.0</ele><time>2026-04-19T08:30:06Z</time></trkpt><trkpt lat="37.69635907784092" lon="15.16496359647658"><ele>224.0</ele><time>2026-04-19T08:30:07Z</time></trkpt><trkpt lat="37.69639694840373" lon="15.165136224092702"><ele>224.0</ele><time>2026-04-19T08:30:08Z</time></trkpt><trkpt lat="37.69643119453356" lon="15.165309809561721"><ele>222.25</ele><time>2026-04-19T08:30:09Z</time></trkpt><trkpt lat="37.69646464044453" lon="15.16548697793896"><ele>220.5</ele><time>2026-04-19T08:30:10Z</time></trkpt><trkpt lat="37.69649048038562" lon="15.165666867404019"><ele>218.75</ele><time>2026-04-19T08:30:11Z</time></trkpt><trkpt lat="37.69650454125424" lon="15.165840049666262"><ele>217.0</ele><time>2026-04-19T08:30:12Z</time></trkpt><trkpt lat="37.696511333248" lon="15.166000065768749"><ele>216.5</ele><time>2026-04-19T08:30:13Z</time></trkpt><trkpt lat="37.69652760106172" lon="15.16615339430362"><ele>216.0</ele><time>2026-04-19T08:30:14Z</time></trkpt><trkpt lat="37.69655145563253" lon="15.166302409282412"><ele>215.5</ele><time>2026-04-19T08:30:15Z</time></trkpt><trkpt lat="37.696598796932996" lon="15.166437641272477"><ele>215.0</ele><time>2026-04-19T08:30:16Z</time></trkpt><trkpt lat="37.69668247900409" lon="15.166547179898018"><ele>214.0</ele><time>2026-04-19T08:30:17Z</time></trkpt><trkpt lat="37.69679150564006" lon="15.166629010855667"><ele>213.0</ele><time>2026-04-19T08:30:18Z</time></trkpt><trkpt lat="37.69691698345971" lon="15.166688849160707"><ele>212.0</ele><time>2026-04-19T08:30:19Z</time></trkpt><trkpt lat="37.69704822840584" lon="15.166736857676446"><ele>211.0</ele><time>2026-04-19T08:30:20Z</time></trkpt><trkpt lat="37.69719002275287" lon="15.166755190696597"><ele>210.5</ele><time>2026-04-19T08:30:21Z</time></trkpt><trkpt lat="37.69733788106523" lon="15.16674333101871"><ele>210.0</ele><time>2026-04-19T08:30:22Z</time></trkpt><trkpt lat="37.69748727481506" lon="15.166730547271515"><ele>209.5</ele><time>2026-04-19T08:30:23Z</time></trkpt><trkpt lat="37.69763293886723" lon="15.166722442514978"><ele>209.0</ele><time>2026-04-19T08:30:24Z</time></trkpt><trkpt lat="37.697777108447745" lon="15.166715051393592"><ele>207.5</ele><time>2026-04-19T08:30:25Z</time></trkpt><trkpt lat="37.69792174919602" lon="15.166707535824207"><ele>206.0</ele><time>2026-04-19T08:30:26Z</time></trkpt><trkpt lat="37.69806340481655" lon="15.166702999827566"><ele>204.5</ele><time>2026-04-19T08:30:27Z</time></trkpt><trkpt lat="37.69820126149545" lon="15.16669501406403"><ele>203.0</ele><time>2026-04-19T08:30:28Z</time></trkpt><trkpt lat="37.69834164047583" lon="15.166679787084345"><ele>203.0</ele><time>2026-04-19T08:30:29Z</time></trkpt><trkpt lat="37.69848100886406" lon="15.166649127961053"><ele>203.0</ele><time>2026-04-19T08:30:30Z</time></trkpt><trkpt lat="37.69861912459457" lon="15.166603822501358"><ele>203.0</ele><time>2026-04-19T08:30:31Z</time></trkpt><trkpt lat="37.69875305107325" lon="15.166538167579045"><ele>203.0</ele><time>2026-04-19T08:30:32Z</time></trkpt><trkpt lat="37.69887793136843" lon="15.166467959639462"><ele>204.25</ele><time>2026-04-19T08:30:33Z</time></trkpt><trkpt lat="37.698996887763286" lon="15.166392437443958"><ele>205.5</ele><time>2026-04-19T08:30:34Z</time></trkpt><trkpt lat="37.69910743480251" lon="15.16632104262568"><ele>206.75</ele><time>2026-04-19T08:30:35Z</time></trkpt><trkpt lat="37.699209473179906" lon="15.166257465360221"><ele>208.0</ele><time>2026-04-19T08:30:36Z</time></trkpt><trkpt lat="37.69930411750307" lon="15.166200312147309"><ele>208.0</ele><time>2026-04-19T08:30:37Z</time></trkpt><trkpt lat="37.69939883201729" lon="15.166155106662313"><ele>208.0</ele><time>2026-04-19T08:30:38Z</time></trkpt><trkpt lat="37.69949782993851" lon="15.166135679818343"><ele>208.0</ele><time>2026-04-19T08:30:39Z</time></trkpt><trkpt lat="37.69959475193199" lon="15.166165094037389"><ele>208.0</ele><time>2026-04-19T08:30:40Z</time></trkpt><trkpt lat="37.69967527265298" lon="15.166234933067656"><ele>208.0</ele><time>2026-04-19T08:30:41Z</time></trkpt><trkpt lat="37.69973593420051" lon="15.166325701090145"><ele>207.2</ele><time>2026-04-19T08:30:42Z</time></trkpt><trkpt lat="37.699780585277026" lon="15.166419383691183"><ele>206.4</ele><time>2026-04-19T08:30:43Z</time></trkpt><trkpt lat="37.69981436491194" lon="15.16652002950983"><ele>205.6</ele><time>2026-04-19T08:30:44Z</time></trkpt><trkpt lat="37.69983136695023" lon="15.166635450287773"><ele>204.79999999999998</ele><time>2026-04-19T08:30:45Z</time></trkpt><trkpt lat="37.699847241541654" lon="15.166751785361967"><ele>204.0</ele><time>2026-04-19T08:30:46Z</time></trkpt><trkpt lat="37.69986761136221" lon="15.166871896797517"><ele>202.33333333333334</ele><time>2026-04-19T08:30:47Z</time></trkpt><trkpt lat="37.699890364588036" lon="15.16699045997568"><ele>200.66666666666669</ele><time>2026-04-19T08:30:48Z</time></trkpt><trkpt lat="37.69989467072288" lon="15.167100405936997"><ele>199.0</ele><time>2026-04-19T08:30:49Z</time></trkpt><trkpt lat="37.69991981518001" lon="15.167197670017773"><ele>197.33333333333334</ele><time>2026-04-19T08:30:50Z</time></trkpt><trkpt lat="37.69993396787791" lon="15.167299672932048"><ele>195.66666666666669</ele><time>2026-04-19T08:30:51Z</time></trkpt><trkpt lat="37.69996119604995" lon="15.167410539728927"><ele>194.0</ele><time>2026-04-19T08:30:52Z</time></trkpt><trkpt lat="37.700008635510706" lon="15.167522792969303"><ele>194.25</ele><time>2026-04-19T08:30:53Z</time></trkpt><trkpt lat="37.70008109848006" lon="15.167629831649865"><ele>194.5</ele><time>2026-04-19T08:30:54Z</time></trkpt><trkpt lat="37.700178283270596" lon="15.167728109166116"><ele>194.75</ele><time>2026-04-19T08:30:55Z</time></trkpt><trkpt lat="37.700298326521064" lon="15.167804055645961"><ele>195.0</ele><time>2026-04-19T08:30:56Z</time></trkpt><trkpt lat="37.70043119232859" lon="15.167869602522664"><ele>195.0</ele><time>2026-04-19T08:30:57Z</time></trkpt><trkpt lat="37.700556236788515" lon="15.167940158331586"><ele>195.0</ele><time>2026-04-19T08:30:58Z</time></trkpt><trkpt lat="37.700675025298345" lon="15.168010404830275"><ele>195.0</ele><time>2026-04-19T08:30:59Z</time></trkpt><trkpt lat="37.70079202032595" lon="15.1680649668792"><ele>195.0</ele><time>2026-04-19T08:31:00Z</time></trkpt><trkpt lat="37.700896171770665" lon="15.168124109831952"><ele>195.0</ele><time>2026-04-19T08:31:01Z</time></trkpt><trkpt lat="37.70099452571427" lon="15.16817812579414"><ele>195.0</ele><time>2026-04-19T08:31:02Z</time></trkpt><trkpt lat="37.70108560110908" lon="15.168230984588368"><ele>195.0</ele><time>2026-04-19T08:31:03Z</time></trkpt><trkpt lat="37.701182442333305" lon="15.16828437501277"><ele>195.0</ele><time>2026-04-19T08:31:04Z</time></trkpt><trkpt lat="37.70128537581145" lon="15.16833804776585"><ele>195.0</ele><time>2026-04-19T08:31:05Z</time></trkpt><trkpt lat="37.7013874538901" lon="15.168405023191452"><ele>193.5</ele><time>2026-04-19T08:31:06Z</time></trkpt><trkpt lat="37.70149105358973" lon="15.168485304521635"><ele>192.0</ele><time>2026-04-19T08:31:07Z</time></trkpt><trkpt lat="37.70159775954259" lon="15.16856780421777"><ele>190.5</ele><time>2026-04-19T08:31:08Z</time></trkpt><trkpt lat="37.701708568539594" lon="15.168652705916827"><ele>189.0</ele><time>2026-04-19T08:31:09Z</time></trkpt><trkpt lat="37.70182715694438" lon="15.168761683576077"><ele>189.0</ele><time>2026-04-19T08:31:10Z</time></trkpt><trkpt lat="37.70196034861032" lon="15.168871545073833"><ele>189.0</ele><time>2026-04-19T08:31:11Z</time></trkpt><trkpt lat="37.70209222327644" lon="15.168985363622815"><ele>189.0</ele><time>2026-04-19T08:31:12Z</time></trkpt><trkpt lat="37.702213356504565" lon="15.169104600134897"><ele>188.0</ele><time>2026-04-19T08:31:13Z</time></trkpt><trkpt lat="37.702329773185" lon="15.169217708588542"><ele>187.0</ele><time>2026-04-19T08:31:14Z</time></trkpt><trkpt lat="37.70244340403075" lon="15.169325410757757"><ele>186.0</ele><time>2026-04-19T08:31:15Z</time></trkpt><trkpt lat="37.70255020823854" lon="15.169420365141542"><ele>185.0</ele><time>2026-04-19T08:31:16Z</time></trkpt><trkpt lat="37.70265016480891" lon="15.169508339013474"><ele>185.0</ele><time>2026-04-19T08:31:17Z</time></trkpt><trkpt lat="37.702744898531215" lon="15.169586795781012"><ele>185.0</ele><time>2026-04-19T08:31:18Z</time></trkpt><trkpt lat="37.70282717911028" lon="15.16965720093205"><ele>185.0</ele><time>2026-04-19T08:31:19Z</time></trkpt><trkpt lat="37.702899884217985" lon="15.16972140100348"><ele>185.0</ele><time>2026-04-19T08:31:20Z</time></trkpt><trkpt lat="37.70296917858088" lon="15.169784099805051"><ele>185.0</ele><time>2026-04-19T08:31:21Z</time></trkpt><trkpt lat="37.70304067293883" lon="15.169837458524098"><ele>184.83333333333331</ele><time>2026-04-19T08:31:22Z</time></trkpt><trkpt lat="37.703115473586" lon="15.1698873330177"><ele>184.66666666666666</ele><time>2026-04-19T08:31:23Z</time></trkpt><trkpt lat="37.70319008599376" lon="15.169938696681923"><ele>184.5</ele><time>2026-04-19T08:31:24Z</time></trkpt><trkpt lat="37.70326574376823" lon="15.169987723820658"><ele>184.33333333333334</ele><time>2026-04-19T08:31:25Z</time></trkpt><trkpt lat="37.70333963079982" lon="15.170036454352887"><ele>184.16666666666669</ele><time>2026-04-19T08:31:26Z</time></trkpt><trkpt lat="37.70340730697619" lon="15.170084614546418"><ele>184.0</ele><time>2026-04-19T08:31:27Z</time></trkpt><trkpt lat="37.703475307342316" lon="15.17012486224287"><ele>184.0</ele><time>2026-04-19T08:31:28Z</time></trkpt><trkpt lat="37.703534406254164" lon="15.170162975920139"><ele>184.0</ele><time>2026-04-19T08:31:29Z</time></trkpt><trkpt lat="37.703637277058526" lon="15.17024631816944"><ele>184.0</ele><time>2026-04-19T08:31:31Z</time></trkpt><trkpt lat="37.70372523094733" lon="15.170331691845332"><ele>184.0</ele><time>2026-04-19T08:31:33Z</time></trkpt><trkpt lat="37.70381010826603" lon="15.170432244593771"><ele>184.0</ele><time>2026-04-19T08:31:35Z</time></trkpt><trkpt lat="37.70385455475203" lon="15.170511819616209"><ele>184.2857142857143</ele><time>2026-04-19T08:31:36Z</time></trkpt><trkpt lat="37.70387922997917" lon="15.170613635672447"><ele>184.57142857142856</ele><time>2026-04-19T08:31:37Z</time></trkpt><trkpt lat="37.70389118182712" lon="15.170705311758113"><ele>184.85714285714286</ele><time>2026-04-19T08:31:38Z</time></trkpt><trkpt lat="37.70390780709793" lon="15.17079170854836"><ele>185.14285714285717</ele><time>2026-04-19T08:31:39Z</time></trkpt><trkpt lat="37.703945353442975" lon="15.170860970100343"><ele>185.42857142857144</ele><time>2026-04-19T08:31:40Z</time></trkpt><trkpt lat="37.70399447371391" lon="15.170919750475804"><ele>185.71428571428572</ele><time>2026-04-19T08:31:41Z</time></trkpt><trkpt lat="37.70405559618901" lon="15.170955247286173"><ele>186.0</ele><time>2026-04-19T08:31:42Z</time></trkpt><trkpt lat="37.70412779104084" lon="15.170952963471432"><ele>184.8</ele><time>2026-04-19T08:31:43Z</time></trkpt><trkpt lat="37.704208765885866" lon="15.170930166386105"><ele>183.60000000000002</ele><time>2026-04-19T08:31:44Z</time></trkpt><trkpt lat="37.70430456513456" lon="15.170925133894334"><ele>182.4</ele><time>2026-04-19T08:31:45Z</time></trkpt><trkpt lat="37.70441148971422" lon="15.170964784515826"><ele>181.2</ele><time>2026-04-19T08:31:46Z</time></trkpt><trkpt lat="37.70452288345126" lon="15.17102945239111"><ele>180.0</ele><time>2026-04-19T08:31:47Z</time></trkpt><trkpt lat="37.70463910451607" lon="15.171123672884839"><ele>179.75</ele><time>2026-04-19T08:31:48Z</time></trkpt><trkpt lat="37.70475347421446" lon="15.17122301088491"><ele>179.5</ele><time>2026-04-19T08:31:49Z</time></trkpt><trkpt lat="37.70485374759921" lon="15.171321412409965"><ele>179.25</ele><time>2026-04-19T08:31:50Z</time></trkpt><trkpt lat="37.70494152798876" lon="15.171409600328793"><ele>179.0</ele><time>2026-04-19T08:31:51Z</time></trkpt><trkpt lat="37.7050129501852" lon="15.171476784721003"><ele>179.2</ele><time>2026-04-19T08:31:52Z</time></trkpt><trkpt lat="37.705086820706455" lon="15.171562327156257"><ele>179.39999999999998</ele><time>2026-04-19T08:31:54Z</time></trkpt><trkpt lat="37.705140976297336" lon="15.171626477498172"><ele>179.6</ele><time>2026-04-19T08:31:58Z</time></trkpt><trkpt lat="37.70523242773737" lon="15.171759178999402"><ele>179.8</ele><time>2026-04-19T08:32:00Z</time></trkpt><trkpt lat="37.70527321702406" lon="15.171850326582323"><ele>180.0</ele><time>2026-04-19T08:32:01Z</time></trkpt><trkpt lat="37.70529596188135" lon="15.171983459157662"><ele>180.0</ele><time>2026-04-19T08:32:02Z</time></trkpt><trkpt lat="37.705328731532205" lon="15.172098234144634"><ele>180.0</ele><time>2026-04-19T08:32:03Z</time></trkpt><trkpt lat="37.70537123607223" lon="15.172186240080753"><ele>180.0</ele><time>2026-04-19T08:32:04Z</time></trkpt><trkpt lat="37.70539288453433" lon="15.172268188556354"><ele>180.0</ele><time>2026-04-19T08:32:05Z</time></trkpt><trkpt lat="37.70541834437913" lon="15.172347083858215"><ele>180.0</ele><time>2026-04-19T08:32:06Z</time></trkpt><trkpt lat="37.70543944393545" lon="15.172459842131438"><ele>180.0</ele><time>2026-04-19T08:32:07Z</time></trkpt><trkpt lat="37.70547821178813" lon="15.172579143457694"><ele>179.33333333333334</ele><time>2026-04-19T08:32:08Z</time></trkpt><trkpt lat="37.70551542552405" lon="15.172650416688027"><ele>178.66666666666666</ele><time>2026-04-19T08:32:09Z</time></trkpt><trkpt lat="37.70554552842482" lon="15.172765341645775"><ele>178.0</ele><time>2026-04-19T08:32:12Z</time></trkpt><trkpt lat="37.70557566504645" lon="15.17283632567717"><ele>177.33333333333331</ele><time>2026-04-19T08:32:13Z</time></trkpt><trkpt lat="37.70562478230075" lon="15.172908777082698"><ele>176.66666666666666</ele><time>2026-04-19T08:32:14Z</time></trkpt><trkpt lat="37.70565238496123" lon="15.172993541361272"><ele>176.0</ele><time>2026-04-19T08:32:16Z</time></trkpt><trkpt lat="37.70569599558363" lon="15.173080044793236"><ele>176.0</ele><time>2026-04-19T08:32:28Z</time></trkpt><trkpt lat="37.70573735125577" lon="15.17315848886299"><ele>176.0</ele><time>2026-04-19T08:32:29Z</time></trkpt><trkpt lat="37.705788590333405" lon="15.173258285090558"><ele>176.0</ele><time>2026-04-19T08:32:30Z</time></trkpt><trkpt lat="37.70582618917407" lon="15.173334947105788"><ele>176.0</ele><time>2026-04-19T08:32:31Z</time></trkpt><trkpt lat="37.70586417302321" lon="15.173414787256851"><ele>176.0</ele><time>2026-04-19T08:32:34Z</time></trkpt><trkpt lat="37.705920917478196" lon="15.173510830289377"><ele>176.0</ele><time>2026-04-19T08:32:37Z</time></trkpt><trkpt lat="37.70594575609615" lon="15.173658376167685"><ele>175.4</ele><time>2026-04-19T08:32:39Z</time></trkpt><trkpt lat="37.70595171358898" lon="15.173775339641665"><ele>174.8</ele><time>2026-04-19T08:32:41Z</time></trkpt><trkpt lat="37.70598116787979" lon="15.17385710456734"><ele>174.20000000000002</ele><time>2026-04-19T08:32:49Z</time></trkpt><trkpt lat="37.706091140645555" lon="15.173941074853975"><ele>173.60000000000002</ele><time>2026-04-19T08:32:51Z</time></trkpt><trkpt lat="37.70616121244616" lon="15.173948235558544"><ele>173.0</ele><time>2026-04-19T08:32:52Z</time></trkpt><trkpt lat="37.70625776997185" lon="15.17397311182545"><ele>172.8</ele><time>2026-04-19T08:32:54Z</time></trkpt><trkpt lat="37.706379360964156" lon="15.173972931423725"><ele>172.60000000000002</ele><time>2026-04-19T08:32:56Z</time></trkpt><trkpt lat="37.70644762896258" lon="15.173983940233928"><ele>172.39999999999998</ele><time>2026-04-19T08:32:57Z</time></trkpt><trkpt lat="37.706518320028785" lon="15.173982928497386"><ele>172.2</ele><time>2026-04-19T08:32:58Z</time></trkpt><trkpt lat="37.706597843692286" lon="15.173987529099053"><ele>172.0</ele><time>2026-04-19T08:32:59Z</time></trkpt><trkpt lat="37.70670931153999" lon="15.173985742757509"><ele>172.0</ele><time>2026-04-19T08:33:00Z</time></trkpt><trkpt lat="37.70685844251731" lon="15.174019830981667"><ele>172.0</ele><time>2026-04-19T08:33:01Z</time></trkpt><trkpt lat="37.706992929544214" lon="15.17403071285317"><ele>172.0</ele><time>2026-04-19T08:33:02Z</time></trkpt><trkpt lat="37.707120746807256" lon="15.17401682271858"><ele>172.0</ele><time>2026-04-19T08:33:03Z</time></trkpt><trkpt lat="37.707232260475706" lon="15.174040597893876"><ele>170.8</ele><time>2026-04-19T08:33:04Z</time></trkpt><trkpt lat="37.70733303481464" lon="15.174042929201681"><ele>169.6</ele><time>2026-04-19T08:33:05Z</time></trkpt><trkpt lat="37.70742349004838" lon="15.17404847352759"><ele>168.4</ele><time>2026-04-19T08:33:06Z</time></trkpt><trkpt lat="37.7075124156923" lon="15.174064003221591"><ele>167.20000000000002</ele><time>2026-04-19T08:33:07Z</time></trkpt><trkpt lat="37.707604476969344" lon="15.174082687683036"><ele>166.0</ele><time>2026-04-19T08:33:08Z</time></trkpt><trkpt lat="37.70769631075377" lon="15.174098756122296"><ele>165.8</ele><time>2026-04-19T08:33:09Z</time></trkpt><trkpt lat="37.707784952896695" lon="15.174111941463098"><ele>165.60000000000002</ele><time>2026-04-19T08:33:10Z</time></trkpt><trkpt lat="37.707862644399526" lon="15.174151902110976"><ele>165.4</ele><time>2026-04-19T08:33:11Z</time></trkpt><trkpt lat="37.70793567687535" lon="15.174169717418495"><ele>165.2</ele><time>2026-04-19T08:33:12Z</time></trkpt><trkpt lat="37.70805473355224" lon="15.174193810029925"><ele>165.0</ele><time>2026-04-19T08:33:14Z</time></trkpt><trkpt lat="37.70817199215058" lon="15.174221022930329"><ele>165.0</ele><time>2026-04-19T08:33:16Z</time></trkpt><trkpt lat="37.708277972608784" lon="15.174259187131367"><ele>165.0</ele><time>2026-04-19T08:33:18Z</time></trkpt><trkpt lat="37.70840720733384" lon="15.17429255044704"><ele>165.0</ele><time>2026-04-19T08:33:20Z</time></trkpt><trkpt lat="37.7084895418587" lon="15.17431134739763"><ele>165.0</ele><time>2026-04-19T08:33:21Z</time></trkpt><trkpt lat="37.708576095123114" lon="15.174342303306624"><ele>165.0</ele><time>2026-04-19T08:33:22Z</time></trkpt><trkpt lat="37.70868226383599" lon="15.174374447343588"><ele>164.2</ele><time>2026-04-19T08:33:23Z</time></trkpt><trkpt lat="37.70877988118974" lon="15.174396998107916"><ele>163.4</ele><time>2026-04-19T08:33:24Z</time></trkpt><trkpt lat="37.70886322898976" lon="15.174422306376322"><ele>162.60000000000002</ele><time>2026-04-19T08:33:25Z</time></trkpt><trkpt lat="37.70895316853921" lon="15.174445083299506"><ele>161.8</ele><time>2026-04-19T08:33:26Z</time></trkpt><trkpt lat="37.70905822817368" lon="15.174467639163982"><ele>161.0</ele><time>2026-04-19T08:33:27Z</time></trkpt><trkpt lat="37.70917269607964" lon="15.174489312077183"><ele>161.0</ele><time>2026-04-19T08:33:28Z</time></trkpt><trkpt lat="37.70927934111031" lon="15.174507421204403"><ele>161.0</ele><time>2026-04-19T08:33:29Z</time></trkpt><trkpt lat="37.709392497502336" lon="15.174518620451204"><ele>161.0</ele><time>2026-04-19T08:33:30Z</time></trkpt><trkpt lat="37.709514367613956" lon="15.174537139303764"><ele>161.0</ele><time>2026-04-19T08:33:31Z</time></trkpt><trkpt lat="37.709629721939436" lon="15.174556224595896"><ele>161.25</ele><time>2026-04-19T08:33:32Z</time></trkpt><trkpt lat="37.7097442540914" lon="15.174582682461683"><ele>161.5</ele><time>2026-04-19T08:33:33Z</time></trkpt><trkpt lat="37.70986106830165" lon="15.174613600009256"><ele>161.75</ele><time>2026-04-19T08:33:34Z</time></trkpt><trkpt lat="37.709981111560545" lon="15.174649712976867"><ele>162.0</ele><time>2026-04-19T08:33:35Z</time></trkpt><trkpt lat="37.71010455630175" lon="15.174683919492539"><ele>162.0</ele><time>2026-04-19T08:33:36Z</time></trkpt><trkpt lat="37.71022603199751" lon="15.17472755904426"><ele>162.0</ele><time>2026-04-19T08:33:37Z</time></trkpt><trkpt lat="37.710345840511714" lon="15.174774663277425"><ele>162.0</ele><time>2026-04-19T08:33:38Z</time></trkpt><trkpt lat="37.71046393843561" lon="15.174821955786506"><ele>162.0</ele><time>2026-04-19T08:33:39Z</time></trkpt><trkpt lat="37.710580628412536" lon="15.174865987772023"><ele>161.0</ele><time>2026-04-19T08:33:40Z</time></trkpt><trkpt lat="37.71069490683998" lon="15.17491040950262"><ele>160.0</ele><time>2026-04-19T08:33:41Z</time></trkpt><trkpt lat="37.710814248853524" lon="15.174950689282479"><ele>159.0</ele><time>2026-04-19T08:33:42Z</time></trkpt><trkpt lat="37.71094642436237" lon="15.174984651569122"><ele>158.0</ele><time>2026-04-19T08:33:43Z</time></trkpt><trkpt lat="37.71110430720268" lon="15.175036844248762"><ele>157.33333333333331</ele><time>2026-04-19T08:33:44Z</time></trkpt><trkpt lat="37.711270176649734" lon="15.175110776261468"><ele>156.66666666666666</ele><time>2026-04-19T08:33:45Z</time></trkpt><trkpt lat="37.71142005233246" lon="15.175174632605064"><ele>156.0</ele><time>2026-04-19T08:33:46Z</time></trkpt><trkpt lat="37.7115568018174" lon="15.175236936190608"><ele>156.0</ele><time>2026-04-19T08:33:47Z</time></trkpt><trkpt lat="37.7116871161284" lon="15.175300528525597"><ele>156.0</ele><time>2026-04-19T08:33:48Z</time></trkpt><trkpt lat="37.71181252270029" lon="15.175356041010351"><ele>156.0</ele><time>2026-04-19T08:33:49Z</time></trkpt><trkpt lat="37.71193975645366" lon="15.175411297814254"><ele>156.0</ele><time>2026-04-19T08:33:50Z</time></trkpt><trkpt lat="37.71206640638173" lon="15.175465726273785"><ele>155.0</ele><time>2026-04-19T08:33:51Z</time></trkpt><trkpt lat="37.712191212677624" lon="15.175524698453518"><ele>154.0</ele><time>2026-04-19T08:33:52Z</time></trkpt><trkpt lat="37.7123072327155" lon="15.175589436604914"><ele>153.0</ele><time>2026-04-19T08:33:53Z</time></trkpt><trkpt lat="37.71241261286819" lon="15.175651772735943"><ele>152.0</ele><time>2026-04-19T08:33:54Z</time></trkpt><trkpt lat="37.712503323771585" lon="15.175705891535666"><ele>152.0</ele><time>2026-04-19T08:33:55Z</time></trkpt><trkpt lat="37.71257934610403" lon="15.175753725216753"><ele>152.0</ele><time>2026-04-19T08:33:56Z</time></trkpt><trkpt lat="37.71264317864851" lon="15.175794994982146"><ele>152.0</ele><time>2026-04-19T08:33:57Z</time></trkpt><trkpt lat="37.712708129148915" lon="15.175832388263629"><ele>152.0</ele><time>2026-04-19T08:33:58Z</time></trkpt><trkpt lat="37.712773467183204" lon="15.175871894498005"><ele>152.0</ele><time>2026-04-19T08:33:59Z</time></trkpt><trkpt lat="37.71284926665185" lon="15.175909584820523"><ele>152.0</ele><time>2026-04-19T08:34:00Z</time></trkpt><trkpt lat="37.71293801698661" lon="15.175953314555073"><ele>150.75</ele><time>2026-04-19T08:34:01Z</time></trkpt><trkpt lat="37.71303979684596" lon="15.17600705873427"><ele>149.5</ele><time>2026-04-19T08:34:02Z</time></trkpt><trkpt lat="37.71315139292806" lon="15.176068964259166"><ele>148.25</ele><time>2026-04-19T08:34:03Z</time></trkpt><trkpt lat="37.713268208314666" lon="15.176132470263992"><ele>147.0</ele><time>2026-04-19T08:34:04Z</time></trkpt><trkpt lat="37.71337893947231" lon="15.176199592637337"><ele>147.0</ele><time>2026-04-19T08:34:05Z</time></trkpt><trkpt lat="37.713502123130475" lon="15.176269221823297"><ele>147.0</ele><time>2026-04-19T08:34:06Z</time></trkpt><trkpt lat="37.71362043808791" lon="15.176339662923464"><ele>147.0</ele><time>2026-04-19T08:34:07Z</time></trkpt><trkpt lat="37.71372466753963" lon="15.176415328683559"><ele>147.0</ele><time>2026-04-19T08:34:08Z</time></trkpt><trkpt lat="37.71382566670915" lon="15.176477590177857"><ele>146.4</ele><time>2026-04-19T08:34:09Z</time></trkpt><trkpt lat="37.71392692048086" lon="15.176522154998905"><ele>145.79999999999998</ele><time>2026-04-19T08:34:10Z</time></trkpt><trkpt lat="37.71401212573305" lon="15.17656784574068"><ele>145.2</ele><time>2026-04-19T08:34:11Z</time></trkpt><trkpt lat="37.71410121912039" lon="15.17661635587432"><ele>144.6</ele><time>2026-04-19T08:34:12Z</time></trkpt><trkpt lat="37.714207474845175" lon="15.176678266137758"><ele>144.0</ele><time>2026-04-19T08:34:13Z</time></trkpt><trkpt lat="37.71432456394224" lon="15.176748213027594"><ele>143.4</ele><time>2026-04-19T08:34:14Z</time></trkpt><trkpt lat="37.71442028526503" lon="15.176839323982138"><ele>142.8</ele><time>2026-04-19T08:34:15Z</time></trkpt><trkpt lat="37.7145186385458" lon="15.176903301669817"><ele>142.2</ele><time>2026-04-19T08:34:16Z</time></trkpt><trkpt lat="37.71461187122837" lon="15.17697365706601"><ele>141.6</ele><time>2026-04-19T08:34:17Z</time></trkpt><trkpt lat="37.71470629633681" lon="15.17703486694768"><ele>141.0</ele><time>2026-04-19T08:34:18Z</time></trkpt><trkpt lat="37.71477248859307" lon="15.177094651053562"><ele>141.0</ele><time>2026-04-19T08:34:19Z</time></trkpt><trkpt lat="37.7148648523927" lon="15.177170686465319"><ele>141.0</ele><time>2026-04-19T08:34:21Z</time></trkpt><trkpt lat="37.714943953523985" lon="15.177234544516716"><ele>141.0</ele><time>2026-04-19T08:34:23Z</time></trkpt><trkpt lat="37.71502017434792" lon="15.177287197218726"><ele>141.0</ele><time>2026-04-19T08:34:25Z</time></trkpt><trkpt lat="37.71510030265023" lon="15.177343900449934"><ele>141.0</ele><time>2026-04-19T08:34:27Z</time></trkpt><trkpt lat="37.71518432066521" lon="15.17740468337991"><ele>140.4</ele><time>2026-04-19T08:34:29Z</time></trkpt><trkpt lat="37.71527216165786" lon="15.177458620455626"><ele>139.8</ele><time>2026-04-19T08:34:31Z</time></trkpt><trkpt lat="37.71535849341408" lon="15.177521569084831"><ele>139.20000000000002</ele><time>2026-04-19T08:34:33Z</time></trkpt><trkpt lat="37.715442017870345" lon="15.177584404115189"><ele>138.6</ele><time>2026-04-19T08:34:35Z</time></trkpt><trkpt lat="37.715534822130124" lon="15.177659544464136"><ele>138.0</ele><time>2026-04-19T08:34:37Z</time></trkpt><trkpt lat="37.71559570778997" lon="15.177708296419922"><ele>138.0</ele><time>2026-04-19T08:34:38Z</time></trkpt><trkpt lat="37.71566030669673" lon="15.177766994927598"><ele>138.0</ele><time>2026-04-19T08:34:39Z</time></trkpt><trkpt lat="37.715732009672735" lon="15.177826172747121"><ele>138.0</ele><time>2026-04-19T08:34:40Z</time></trkpt><trkpt lat="37.71581286719626" lon="15.177881658853412"><ele>138.0</ele><time>2026-04-19T08:34:41Z</time></trkpt><trkpt lat="37.71590613326502" lon="15.17794353606416"><ele>138.0</ele><time>2026-04-19T08:34:42Z</time></trkpt><trkpt lat="37.71601238143248" lon="15.178019246529466"><ele>136.75</ele><time>2026-04-19T08:34:43Z</time></trkpt><trkpt lat="37.71612713281489" lon="15.178108463456043"><ele>135.5</ele><time>2026-04-19T08:34:44Z</time></trkpt><trkpt lat="37.716236095508094" lon="15.178183703942974"><ele>134.25</ele><time>2026-04-19T08:34:45Z</time></trkpt><trkpt lat="37.7163408359813" lon="15.178264992179539"><ele>133.0</ele><time>2026-04-19T08:34:46Z</time></trkpt><trkpt lat="37.71644388494295" lon="15.178345311458395"><ele>132.4</ele><time>2026-04-19T08:34:47Z</time></trkpt><trkpt lat="37.71654203646335" lon="15.1784115616124"><ele>131.8</ele><time>2026-04-19T08:34:48Z</time></trkpt><trkpt lat="37.716634321634" lon="15.178476710406917"><ele>131.2</ele><time>2026-04-19T08:34:49Z</time></trkpt><trkpt lat="37.71672192488241" lon="15.178537700665995"><ele>130.6</ele><time>2026-04-19T08:34:50Z</time></trkpt><trkpt lat="37.71680391036059" lon="15.178598471454029"><ele>130.0</ele><time>2026-04-19T08:34:51Z</time></trkpt><trkpt lat="37.71688136327672" lon="15.178664556327677"><ele>129.33333333333334</ele><time>2026-04-19T08:34:52Z</time></trkpt><trkpt lat="37.716952866203485" lon="15.17872267819635"><ele>128.66666666666669</ele><time>2026-04-19T08:34:53Z</time></trkpt><trkpt lat="37.71702009169012" lon="15.17877550035458"><ele>128.0</ele><time>2026-04-19T08:34:54Z</time></trkpt><trkpt lat="37.717108683360394" lon="15.178849354055584"><ele>127.33333333333334</ele><time>2026-04-19T08:34:56Z</time></trkpt><trkpt lat="37.71716788129724" lon="15.178889369333257"><ele>126.66666666666667</ele><time>2026-04-19T08:34:59Z</time></trkpt><trkpt lat="37.71723421040545" lon="15.178942662234705"><ele>126.0</ele><time>2026-04-19T08:35:03Z</time></trkpt><trkpt lat="37.71729675153129" lon="15.178987486843827"><ele>126.19999999999999</ele><time>2026-04-19T08:35:05Z</time></trkpt><trkpt lat="37.717377705757414" lon="15.179043694583644"><ele>126.39999999999999</ele><time>2026-04-19T08:35:08Z</time></trkpt><trkpt lat="37.71746198840087" lon="15.179104381744363"><ele>126.6</ele><time>2026-04-19T08:35:10Z</time></trkpt><trkpt lat="37.71754426010848" lon="15.179169535253251"><ele>126.8</ele><time>2026-04-19T08:35:12Z</time></trkpt><trkpt lat="37.717626155847064" lon="15.179229052664533"><ele>127.0</ele><time>2026-04-19T08:35:14Z</time></trkpt><trkpt lat="37.717724180292706" lon="15.17930322113376"><ele>127.0</ele><time>2026-04-19T08:35:16Z</time></trkpt><trkpt lat="37.71782407531056" lon="15.17937992791008"><ele>126.99999999999999</ele><time>2026-04-19T08:35:18Z</time></trkpt><trkpt lat="37.71791537564314" lon="15.17945311983267"><ele>126.99999999999999</ele><time>2026-04-19T08:35:20Z</time></trkpt><trkpt lat="37.718003901718234" lon="15.179518548435038"><ele>127.0</ele><time>2026-04-19T08:35:22Z</time></trkpt><trkpt lat="37.718089520976804" lon="15.179581806499177"><ele>127.0</ele><time>2026-04-19T08:35:24Z</time></trkpt><trkpt lat="37.71817292518888" lon="15.179646530358019"><ele>127.0</ele><time>2026-04-19T08:35:26Z</time></trkpt><trkpt lat="37.71824701383994" lon="15.17968157947829"><ele>126.99999999999999</ele><time>2026-04-19T08:35:27Z</time></trkpt><trkpt lat="37.71833166425277" lon="15.179745386876693"><ele>126.99999999999999</ele><time>2026-04-19T08:35:28Z</time></trkpt><trkpt lat="37.71843387213638" lon="15.179817521736265"><ele>127.0</ele><time>2026-04-19T08:35:29Z</time></trkpt><trkpt lat="37.71853496688467" lon="15.179922793512656"><ele>127.0</ele><time>2026-04-19T08:35:30Z</time></trkpt><trkpt lat="37.71865673382312" lon="15.180014266133325"><ele>125.0</ele><time>2026-04-19T08:35:31Z</time></trkpt><trkpt lat="37.71877643773133" lon="15.180105295391538"><ele>123.0</ele><time>2026-04-19T08:35:32Z</time></trkpt><trkpt lat="37.718896747500445" lon="15.18017946854959"><ele>121.0</ele><time>2026-04-19T08:35:33Z</time></trkpt><trkpt lat="37.71900716835282" lon="15.180272025753595"><ele>119.0</ele><time>2026-04-19T08:35:34Z</time></trkpt><trkpt lat="37.71911919869905" lon="15.180356786395512"><ele>119.0</ele><time>2026-04-19T08:35:35Z</time></trkpt><trkpt lat="37.71922644791605" lon="15.180441908732249"><ele>119.0</ele><time>2026-04-19T08:35:36Z</time></trkpt><trkpt lat="37.71933478264359" lon="15.18051040259839"><ele>119.0</ele><time>2026-04-19T08:35:37Z</time></trkpt><trkpt lat="37.71943300924884" lon="15.180581923199174"><ele>119.0</ele><time>2026-04-19T08:35:38Z</time></trkpt><trkpt lat="37.719524062415694" lon="15.180651675534431"><ele>118.0</ele><time>2026-04-19T08:35:39Z</time></trkpt><trkpt lat="37.71961356574007" lon="15.180718819261605"><ele>117.0</ele><time>2026-04-19T08:35:40Z</time></trkpt><trkpt lat="37.719702072564615" lon="15.180799845599342"><ele>116.0</ele><time>2026-04-19T08:35:41Z</time></trkpt><trkpt lat="37.71980062682106" lon="15.180881497796317"><ele>115.0</ele><time>2026-04-19T08:35:42Z</time></trkpt><trkpt lat="37.71991639442541" lon="15.18097452512223"><ele>115.0</ele><time>2026-04-19T08:35:43Z</time></trkpt><trkpt lat="37.72004463055814" lon="15.181064121407227"><ele>115.0</ele><time>2026-04-19T08:35:44Z</time></trkpt><trkpt lat="37.72016155399299" lon="15.181140067683607"><ele>115.0</ele><time>2026-04-19T08:35:45Z</time></trkpt><trkpt lat="37.72025477402309" lon="15.18121164222532"><ele>115.0</ele><time>2026-04-19T08:35:46Z</time></trkpt><trkpt lat="37.72034744752987" lon="15.181272190717074"><ele>114.0</ele><time>2026-04-19T08:35:47Z</time></trkpt><trkpt lat="37.720448756660346" lon="15.181343600966802"><ele>113.0</ele><time>2026-04-19T08:35:48Z</time></trkpt><trkpt lat="37.720544002444115" lon="15.181422052332211"><ele>112.0</ele><time>2026-04-19T08:35:49Z</time></trkpt><trkpt lat="37.72063112315641" lon="15.181488690588651"><ele>111.0</ele><time>2026-04-19T08:35:50Z</time></trkpt><trkpt lat="37.72070665843063" lon="15.181543694828598"><ele>110.0</ele><time>2026-04-19T08:35:51Z</time></trkpt><trkpt lat="37.72078834111392" lon="15.181608636048791"><ele>109.4</ele><time>2026-04-19T08:35:53Z</time></trkpt><trkpt lat="37.72084919916082" lon="15.181645180872824"><ele>108.8</ele><time>2026-04-19T08:35:58Z</time></trkpt><trkpt lat="37.72093190481933" lon="15.181715524068554"><ele>108.19999999999999</ele><time>2026-04-19T08:36:04Z</time></trkpt><trkpt lat="37.721047096735845" lon="15.181801313243684"><ele>107.6</ele><time>2026-04-19T08:36:06Z</time></trkpt><trkpt lat="37.721137508112115" lon="15.181835112246604"><ele>107.0</ele><time>2026-04-19T08:36:07Z</time></trkpt><trkpt lat="37.72121277743799" lon="15.181891499720345"><ele>106.6</ele><time>2026-04-19T08:36:08Z</time></trkpt><trkpt lat="37.721292994438954" lon="15.181954754941849"><ele>106.19999999999999</ele><time>2026-04-19T08:36:09Z</time></trkpt><trkpt lat="37.72138968492162" lon="15.182024398899966"><ele>105.8</ele><time>2026-04-19T08:36:10Z</time></trkpt><trkpt lat="37.721497638137166" lon="15.182099961512069"><ele>105.4</ele><time>2026-04-19T08:36:11Z</time></trkpt><trkpt lat="37.721578130019815" lon="15.182200929552515"><ele>105.0</ele><time>2026-04-19T08:36:12Z</time></trkpt><trkpt lat="37.721682465291686" lon="15.182250982212778"><ele>105.0</ele><time>2026-04-19T08:36:13Z</time></trkpt><trkpt lat="37.72178168654274" lon="15.18232455821524"><ele>105.0</ele><time>2026-04-19T08:36:14Z</time></trkpt><trkpt lat="37.721895733623114" lon="15.182391470801983"><ele>105.0</ele><time>2026-04-19T08:36:15Z</time></trkpt><trkpt lat="37.7219994109825" lon="15.182480400929318"><ele>105.0</ele><time>2026-04-19T08:36:16Z</time></trkpt><trkpt lat="37.7220880494406" lon="15.182564509550826"><ele>104.4</ele><time>2026-04-19T08:36:17Z</time></trkpt><trkpt lat="37.72216210957226" lon="15.182614295959"><ele>103.8</ele><time>2026-04-19T08:36:18Z</time></trkpt><trkpt lat="37.722219276310135" lon="15.182656893958276"><ele>103.19999999999999</ele><time>2026-04-19T08:36:19Z</time></trkpt><trkpt lat="37.72230356610766" lon="15.182726941501922"><ele>102.6</ele><time>2026-04-19T08:36:21Z</time></trkpt><trkpt lat="37.72240812156862" lon="15.182804872267726"><ele>102.0</ele><time>2026-04-19T08:36:23Z</time></trkpt><trkpt lat="37.72248217219657" lon="15.182859573482098"><ele>102.0</ele><time>2026-04-19T08:36:25Z</time></trkpt><trkpt lat="37.722539339840985" lon="15.182893212101156"><ele>102.0</ele><time>2026-04-19T08:36:28Z</time></trkpt><trkpt lat="37.722612958447215" lon="15.182969772787024"><ele>102.0</ele><time>2026-04-19T08:36:30Z</time></trkpt><trkpt lat="37.72258102035569" lon="15.183101644064074"><ele>102.0</ele><time>2026-04-19T08:36:32Z</time></trkpt><trkpt lat="37.72257231414052" lon="15.183214816197973"><ele>102.0</ele><time>2026-04-19T08:36:33Z</time></trkpt><trkpt lat="37.72256141251423" lon="15.183356022674705"><ele>102.0</ele><time>2026-04-19T08:36:34Z</time></trkpt><trkpt lat="37.7225482077762" lon="15.183513544672666"><ele>102.0</ele><time>2026-04-19T08:36:35Z</time></trkpt><trkpt lat="37.722532932607244" lon="15.18368946593267"><ele>102.0</ele><time>2026-04-19T08:36:36Z</time></trkpt><trkpt lat="37.7225219561528" lon="15.18386475235089"><ele>102.0</ele><time>2026-04-19T08:36:37Z</time></trkpt><trkpt lat="37.72251758684618" lon="15.184030034294366"><ele>102.0</ele><time>2026-04-19T08:36:38Z</time></trkpt><trkpt lat="37.72250133226427" lon="15.184183614433758"><ele>102.0</ele><time>2026-04-19T08:36:39Z</time></trkpt><trkpt lat="37.72249779976192" lon="15.184353417427557"><ele>102.0</ele><time>2026-04-19T08:36:40Z</time></trkpt><trkpt lat="37.72255956364928" lon="15.184476802714428"><ele>102.0</ele><time>2026-04-19T08:36:41Z</time></trkpt><trkpt lat="37.72264165039153" lon="15.184605781743587"><ele>100.25</ele><time>2026-04-19T08:36:42Z</time></trkpt><trkpt lat="37.72274857462947" lon="15.184700432118461"><ele>98.5</ele><time>2026-04-19T08:36:43Z</time></trkpt><trkpt lat="37.722858919561794" lon="15.18476373095261"><ele>96.75</ele><time>2026-04-19T08:36:44Z</time></trkpt><trkpt lat="37.72298039156267" lon="15.184807418028763"><ele>95.0</ele><time>2026-04-19T08:36:45Z</time></trkpt><trkpt lat="37.723105948160466" lon="15.184823769439369"><ele>94.4</ele><time>2026-04-19T08:36:46Z</time></trkpt><trkpt lat="37.723207166451864" lon="15.18487748487607"><ele>93.8</ele><time>2026-04-19T08:36:47Z</time></trkpt><trkpt lat="37.723308985301074" lon="15.184896863805488"><ele>93.19999999999999</ele><time>2026-04-19T08:36:48Z</time></trkpt><trkpt lat="37.72339206584285" lon="15.18495738812898"><ele>92.6</ele><time>2026-04-19T08:36:49Z</time></trkpt><trkpt lat="37.72345061862119" lon="15.185045467076213"><ele>92.0</ele><time>2026-04-19T08:36:50Z</time></trkpt><trkpt lat="37.72349696296275" lon="15.185137745807554"><ele>92.0</ele><time>2026-04-19T08:36:51Z</time></trkpt><trkpt lat="37.72353514623858" lon="15.185218373826618"><ele>92.0</ele><time>2026-04-19T08:36:52Z</time></trkpt><trkpt lat="37.7235926256288" lon="15.18528573607904"><ele>92.0</ele><time>2026-04-19T08:36:53Z</time></trkpt><trkpt lat="37.72362452417126" lon="15.185407204098178"><ele>92.0</ele><time>2026-04-19T08:36:54Z</time></trkpt><trkpt lat="37.72365944968472" lon="15.185539136829215"><ele>92.0</ele><time>2026-04-19T08:36:55Z</time></trkpt><trkpt lat="37.72370370567841" lon="15.18569255199679"><ele>91.0</ele><time>2026-04-19T08:36:56Z</time></trkpt><trkpt lat="37.723744647136954" lon="15.185864593764517"><ele>90.0</ele><time>2026-04-19T08:36:57Z</time></trkpt><trkpt lat="37.72376980990864" lon="15.186032988863884"><ele>89.0</ele><time>2026-04-19T08:36:58Z</time></trkpt><trkpt lat="37.72380472974064" lon="15.186173366350122"><ele>88.0</ele><time>2026-04-19T08:36:59Z</time></trkpt><trkpt lat="37.72383811023646" lon="15.186299804246605"><ele>88.0</ele><time>2026-04-19T08:37:00Z</time></trkpt><trkpt lat="37.723863153404906" lon="15.186419543455282"><ele>88.0</ele><time>2026-04-19T08:37:01Z</time></trkpt><trkpt lat="37.72389688944338" lon="15.186504337386381"><ele>88.0</ele><time>2026-04-19T08:37:02Z</time></trkpt><trkpt lat="37.72390099480219" lon="15.186585360367085"><ele>88.0</ele><time>2026-04-19T08:37:03Z</time></trkpt><trkpt lat="37.72395129326761" lon="15.18673295007646"><ele>88.0</ele><time>2026-04-19T08:37:05Z</time></trkpt><trkpt lat="37.72396043019083" lon="15.186821783307728"><ele>88.0</ele><time>2026-04-19T08:37:06Z</time></trkpt><trkpt lat="37.72401004932432" lon="15.186966522525566"><ele>88.0</ele><time>2026-04-19T08:37:08Z</time></trkpt><trkpt lat="37.72402277365979" lon="15.187072174391435"><ele>88.0</ele><time>2026-04-19T08:37:09Z</time></trkpt><trkpt lat="37.724051474889194" lon="15.187170083898486"><ele>88.0</ele><time>2026-04-19T08:37:10Z</time></trkpt><trkpt lat="37.72407573179135" lon="15.187266057264717"><ele>88.0</ele><time>2026-04-19T08:37:12Z</time></trkpt><trkpt lat="37.72411325140137" lon="15.187398375450126"><ele>88.0</ele><time>2026-04-19T08:37:15Z</time></trkpt><trkpt lat="37.724131188318026" lon="15.187503649971227"><ele>88.0</ele><time>2026-04-19T08:37:16Z</time></trkpt><trkpt lat="37.72414825351223" lon="15.18759581885814"><ele>87.66666666666666</ele><time>2026-04-19T08:37:17Z</time></trkpt><trkpt lat="37.724196213084745" lon="15.187756222984017"><ele>87.33333333333333</ele><time>2026-04-19T08:37:19Z</time></trkpt><trkpt lat="37.72421798157753" lon="15.187845853246042"><ele>87.0</ele><time>2026-04-19T08:37:20Z</time></trkpt><trkpt lat="37.72423495462274" lon="15.18792868180081"><ele>86.66666666666667</ele><time>2026-04-19T08:37:21Z</time></trkpt><trkpt lat="37.72425598346886" lon="15.18802013768298"><ele>86.33333333333334</ele><time>2026-04-19T08:37:22Z</time></trkpt><trkpt lat="37.72427100347146" lon="15.188105988562237"><ele>86.0</ele><time>2026-04-19T08:37:23Z</time></trkpt><trkpt lat="37.72429043471274" lon="15.18818708356672"><ele>85.33333333333334</ele><time>2026-04-19T08:37:24Z</time></trkpt><trkpt lat="37.72430676120885" lon="15.188272547743008"><ele>84.66666666666667</ele><time>2026-04-19T08:37:25Z</time></trkpt><trkpt lat="37.724332040743" lon="15.188362948764723"><ele>84.0</ele><time>2026-04-19T08:37:26Z</time></trkpt><trkpt lat="37.72435745109247" lon="15.18846524275032"><ele>83.33333333333333</ele><time>2026-04-19T08:37:27Z</time></trkpt><trkpt lat="37.724379641982665" lon="15.188581084587215"><ele>82.66666666666666</ele><time>2026-04-19T08:37:28Z</time></trkpt><trkpt lat="37.724408174077496" lon="15.188711428364039"><ele>82.0</ele><time>2026-04-19T08:37:29Z</time></trkpt><trkpt lat="37.724432991187605" lon="15.188848189531027"><ele>81.8</ele><time>2026-04-19T08:37:30Z</time></trkpt><trkpt lat="37.7244648858892" lon="15.188993354328817"><ele>81.6</ele><time>2026-04-19T08:37:31Z</time></trkpt><trkpt lat="37.72450233485511" lon="15.189105386699422"><ele>81.39999999999999</ele><time>2026-04-19T08:37:32Z</time></trkpt><trkpt lat="37.72452699517739" lon="15.189211748392877"><ele>81.19999999999999</ele><time>2026-04-19T08:37:33Z</time></trkpt><trkpt lat="37.72454973716395" lon="15.189309836164309"><ele>81.0</ele><time>2026-04-19T08:37:34Z</time></trkpt><trkpt lat="37.724553738425776" lon="15.189401099866835"><ele>80.2</ele><time>2026-04-19T08:37:35Z</time></trkpt><trkpt lat="37.72459300545506" lon="15.189485891227378"><ele>79.39999999999999</ele><time>2026-04-19T08:37:37Z</time></trkpt><trkpt lat="37.7247106431438" lon="15.189506759167912"><ele>78.6</ele><time>2026-04-19T08:37:39Z</time></trkpt><trkpt lat="37.72480154685718" lon="15.189459363783795"><ele>77.8</ele><time>2026-04-19T08:37:40Z</time></trkpt><trkpt lat="37.72490939289113" lon="15.189420877902561"><ele>77.0</ele><time>2026-04-19T08:37:41Z</time></trkpt><trkpt lat="37.72499928707852" lon="15.189395388958866"><ele>77.0</ele><time>2026-04-19T08:37:42Z</time></trkpt><trkpt lat="37.72507089185163" lon="15.189378969845116"><ele>77.0</ele><time>2026-04-19T08:37:43Z</time></trkpt><trkpt lat="37.72515240681806" lon="15.189374145738352"><ele>77.0</ele><time>2026-04-19T08:37:45Z</time></trkpt><trkpt lat="37.72524541692182" lon="15.189623832859025"><ele>77.0</ele><time>2026-04-19T08:37:48Z</time></trkpt><trkpt lat="37.725277673202015" lon="15.189757385931564"><ele>76.33333333333334</ele><time>2026-04-19T08:37:49Z</time></trkpt><trkpt lat="37.725308053307934" lon="15.189883333217326"><ele>75.66666666666667</ele><time>2026-04-19T08:37:50Z</time></trkpt><trkpt lat="37.725328858191176" lon="15.190000044769796"><ele>75.0</ele><time>2026-04-19T08:37:51Z</time></trkpt><trkpt lat="37.72535187762246" lon="15.190096542332324"><ele>74.33333333333333</ele><time>2026-04-19T08:37:52Z</time></trkpt><trkpt lat="37.7253621286291" lon="15.190196843972606"><ele>73.66666666666666</ele><time>2026-04-19T08:37:53Z</time></trkpt><trkpt lat="37.725390685000534" lon="15.1902918105622"><ele>73.0</ele><time>2026-04-19T08:37:54Z</time></trkpt><trkpt lat="37.725407837529076" lon="15.190399766896991"><ele>73.0</ele><time>2026-04-19T08:37:55Z</time></trkpt><trkpt lat="37.725432169264096" lon="15.19052360802069"><ele>73.0</ele><time>2026-04-19T08:37:56Z</time></trkpt><trkpt lat="37.725468689433704" lon="15.190649904306683"><ele>73.0</ele><time>2026-04-19T08:37:57Z</time></trkpt><trkpt lat="37.725505031874555" lon="15.190783639288496"><ele>73.0</ele><time>2026-04-19T08:37:58Z</time></trkpt><trkpt lat="37.72553722702358" lon="15.190928263777739"><ele>73.0</ele><time>2026-04-19T08:37:59Z</time></trkpt><trkpt lat="37.72557544571684" lon="15.19107732770494"><ele>71.5</ele><time>2026-04-19T08:38:00Z</time></trkpt><trkpt lat="37.72561132246895" lon="15.191221715057507"><ele>70.0</ele><time>2026-04-19T08:38:01Z</time></trkpt><trkpt lat="37.725646243056666" lon="15.191361789607933"><ele>68.5</ele><time>2026-04-19T08:38:02Z</time></trkpt><trkpt lat="37.72568622801011" lon="15.191532044586541"><ele>67.0</ele><time>2026-04-19T08:38:03Z</time></trkpt><trkpt lat="37.725725420338364" lon="15.19167784689332"><ele>66.4</ele><time>2026-04-19T08:38:04Z</time></trkpt><trkpt lat="37.725753235804625" lon="15.191812351071393"><ele>65.80000000000001</ele><time>2026-04-19T08:38:05Z</time></trkpt><trkpt lat="37.72578162851502" lon="15.191938492955488"><ele>65.2</ele><time>2026-04-19T08:38:06Z</time></trkpt><trkpt lat="37.72580362500621" lon="15.192057913278184"><ele>64.60000000000001</ele><time>2026-04-19T08:38:07Z</time></trkpt><trkpt lat="37.72583245422336" lon="15.192177718576954"><ele>64.0</ele><time>2026-04-19T08:38:08Z</time></trkpt><trkpt lat="37.72585708494521" lon="15.192292004086797"><ele>63.400000000000006</ele><time>2026-04-19T08:38:09Z</time></trkpt><trkpt lat="37.7258786164321" lon="15.192397198603013"><ele>62.800000000000004</ele><time>2026-04-19T08:38:10Z</time></trkpt><trkpt lat="37.725902497957655" lon="15.192503358786809"><ele>62.199999999999996</ele><time>2026-04-19T08:38:11Z</time></trkpt><trkpt lat="37.7259245598813" lon="15.19261216510836"><ele>61.599999999999994</ele><time>2026-04-19T08:38:12Z</time></trkpt><trkpt lat="37.72594895557916" lon="15.192733840711288"><ele>61.0</ele><time>2026-04-19T08:38:13Z</time></trkpt><trkpt lat="37.725982415482974" lon="15.192851884329496"><ele>61.0</ele><time>2026-04-19T08:38:14Z</time></trkpt><trkpt lat="37.72601391678657" lon="15.192967060509904"><ele>60.99999999999999</ele><time>2026-04-19T08:38:15Z</time></trkpt><trkpt lat="37.72604894843081" lon="15.193097021068745"><ele>60.99999999999999</ele><time>2026-04-19T08:38:16Z</time></trkpt><trkpt lat="37.726073857935795" lon="15.193234067539693"><ele>61.0</ele><time>2026-04-19T08:38:17Z</time></trkpt><trkpt lat="37.726111359890474" lon="15.193363866993732"><ele>61.0</ele><time>2026-04-19T08:38:18Z</time></trkpt><trkpt lat="37.726144281091045" lon="15.193501649932642"><ele>60.199999999999996</ele><time>2026-04-19T08:38:19Z</time></trkpt><trkpt lat="37.72616852785367" lon="15.193633559402494"><ele>59.39999999999999</ele><time>2026-04-19T08:38:20Z</time></trkpt><trkpt lat="37.726185944154544" lon="15.193767413613749"><ele>58.6</ele><time>2026-04-19T08:38:21Z</time></trkpt><trkpt lat="37.726204565809105" lon="15.193904240076316"><ele>57.8</ele><time>2026-04-19T08:38:22Z</time></trkpt><trkpt lat="37.72623801841871" lon="15.194047964800863"><ele>57.0</ele><time>2026-04-19T08:38:23Z</time></trkpt><trkpt lat="37.72627496519745" lon="15.194204914503432"><ele>55.75</ele><time>2026-04-19T08:38:24Z</time></trkpt><trkpt lat="37.72631662465911" lon="15.19436276949018"><ele>54.5</ele><time>2026-04-19T08:38:25Z</time></trkpt><trkpt lat="37.72635731096045" lon="15.194535347440546"><ele>53.25</ele><time>2026-04-19T08:38:26Z</time></trkpt><trkpt lat="37.72640058558193" lon="15.19470679685292"><ele>52.0</ele><time>2026-04-19T08:38:27Z</time></trkpt><trkpt lat="37.72643954695579" lon="15.194862080403373"><ele>51.6</ele><time>2026-04-19T08:38:28Z</time></trkpt><trkpt lat="37.72647336888005" lon="15.195008511069444"><ele>51.2</ele><time>2026-04-19T08:38:29Z</time></trkpt><trkpt lat="37.72650598465239" lon="15.195143915135976"><ele>50.8</ele><time>2026-04-19T08:38:30Z</time></trkpt><trkpt lat="37.72653007091544" lon="15.195258212991689"><ele>50.4</ele><time>2026-04-19T08:38:31Z</time></trkpt><trkpt lat="37.726550772753534" lon="15.195354958449565"><ele>50.0</ele><time>2026-04-19T08:38:32Z</time></trkpt><trkpt lat="37.72657562437052" lon="15.195478154744084"><ele>50.0</ele><time>2026-04-19T08:38:34Z</time></trkpt><trkpt lat="37.72659766993406" lon="15.195564995976754"><ele>50.0</ele><time>2026-04-19T08:38:36Z</time></trkpt><trkpt lat="37.726626541303915" lon="15.195670156919366"><ele>50.0</ele><time>2026-04-19T08:38:39Z</time></trkpt><trkpt lat="37.72675583359776" lon="15.195685294458654"><ele>50.0</ele><time>2026-04-19T08:38:41Z</time></trkpt><trkpt lat="37.726840382821386" lon="15.195649529860422"><ele>50.0</ele><time>2026-04-19T08:38:42Z</time></trkpt><trkpt lat="37.72693004493252" lon="15.195620070057995"><ele>49.25</ele><time>2026-04-19T08:38:43Z</time></trkpt><trkpt lat="37.72704574213105" lon="15.195579940332797"><ele>48.5</ele><time>2026-04-19T08:38:44Z</time></trkpt><trkpt lat="37.72716944336384" lon="15.195525057052219"><ele>47.75</ele><time>2026-04-19T08:38:45Z</time></trkpt><trkpt lat="37.72728447984443" lon="15.195483184575766"><ele>47.0</ele><time>2026-04-19T08:38:46Z</time></trkpt><trkpt lat="37.727392430947866" lon="15.195446430029806"><ele>47.0</ele><time>2026-04-19T08:38:47Z</time></trkpt><trkpt lat="37.727492479638286" lon="15.195407647725764"><ele>47.0</ele><time>2026-04-19T08:38:48Z</time></trkpt><trkpt lat="37.72758871339605" lon="15.195400244828848"><ele>47.0</ele><time>2026-04-19T08:38:49Z</time></trkpt><trkpt lat="37.72767548591901" lon="15.195369684553214"><ele>47.0</ele><time>2026-04-19T08:38:50Z</time></trkpt><trkpt lat="37.727756197934504" lon="15.195363297386438"><ele>47.0</ele><time>2026-04-19T08:38:51Z</time></trkpt><trkpt lat="37.72784749667437" lon="15.195374440377119"><ele>46.8</ele><time>2026-04-19T08:38:52Z</time></trkpt><trkpt lat="37.7279179055351" lon="15.195484582607762"><ele>46.6</ele><time>2026-04-19T08:38:53Z</time></trkpt><trkpt lat="37.72795712221481" lon="15.195611036084554"><ele>46.4</ele><time>2026-04-19T08:38:54Z</time></trkpt><trkpt lat="37.727994301762756" lon="15.195757472908488"><ele>46.199999999999996</ele><time>2026-04-19T08:38:55Z</time></trkpt><trkpt lat="37.72802431449984" lon="15.195885308372572"><ele>46.0</ele><time>2026-04-19T08:38:56Z</time></trkpt><trkpt lat="37.72802063154146" lon="15.196016125758865"><ele>45.8</ele><time>2026-04-19T08:38:57Z</time></trkpt><trkpt lat="37.72799449810046" lon="15.196138596511439"><ele>45.599999999999994</ele><time>2026-04-19T08:38:58Z</time></trkpt><trkpt lat="37.72796860578735" lon="15.196226232462346"><ele>45.4</ele><time>2026-04-19T08:38:59Z</time></trkpt><trkpt lat="37.727886902844524" lon="15.196307618239201"><ele>45.2</ele><time>2026-04-19T08:39:00Z</time></trkpt><trkpt lat="37.72777568358901" lon="15.196364218914924"><ele>45.0</ele><time>2026-04-19T08:39:01Z</time></trkpt><trkpt lat="37.727643365795714" lon="15.196413049005384"><ele>44.25</ele><time>2026-04-19T08:39:02Z</time></trkpt><trkpt lat="37.72751625101263" lon="15.196466966082188"><ele>43.5</ele><time>2026-04-19T08:39:03Z</time></trkpt><trkpt lat="37.72740178027434" lon="15.196508964867284"><ele>42.75</ele><time>2026-04-19T08:39:04Z</time></trkpt><trkpt lat="37.72729990233132" lon="15.19655346625852"><ele>42.0</ele><time>2026-04-19T08:39:05Z</time></trkpt><trkpt lat="37.72722427186555" lon="15.196622753641465"><ele>41.2</ele><time>2026-04-19T08:39:06Z</time></trkpt><trkpt lat="37.727184889448246" lon="15.196722358314696"><ele>40.400000000000006</ele><time>2026-04-19T08:39:07Z</time></trkpt><trkpt lat="37.72716842210014" lon="15.19684427267942"><ele>39.599999999999994</ele><time>2026-04-19T08:39:08Z</time></trkpt><trkpt lat="37.72718693902823" lon="15.196984322653545"><ele>38.8</ele><time>2026-04-19T08:39:09Z</time></trkpt><trkpt lat="37.727247626850456" lon="15.19713603125583"><ele>38.0</ele><time>2026-04-19T08:39:10Z</time></trkpt><trkpt lat="37.72731335252803" lon="15.197301899352908"><ele>38.33333333333333</ele><time>2026-04-19T08:39:11Z</time></trkpt><trkpt lat="37.72736322604553" lon="15.19749069978772"><ele>38.666666666666664</ele><time>2026-04-19T08:39:12Z</time></trkpt><trkpt lat="37.72741740213691" lon="15.197701537017185"><ele>39.0</ele><time>2026-04-19T08:39:13Z</time></trkpt><trkpt lat="37.72746749918299" lon="15.19791832439955"><ele>39.0</ele><time>2026-04-19T08:39:14Z</time></trkpt><trkpt lat="37.7274965482544" lon="15.198104388775855"><ele>39.0</ele><time>2026-04-19T08:39:15Z</time></trkpt><trkpt lat="37.727516998771755" lon="15.198248292790527"><ele>39.0</ele><time>2026-04-19T08:39:16Z</time></trkpt><trkpt lat="37.72751228476166" lon="15.198378300511587"><ele>39.0</ele><time>2026-04-19T08:39:17Z</time></trkpt><trkpt lat="37.72751557956632" lon="15.198514950116573"><ele>39.0</ele><time>2026-04-19T08:39:18Z</time></trkpt><trkpt lat="37.72751844744663" lon="15.198637160702969"><ele>39.0</ele><time>2026-04-19T08:39:19Z</time></trkpt><trkpt lat="37.727549539906065" lon="15.19874673505839"><ele>39.0</ele><time>2026-04-19T08:39:20Z</time></trkpt><trkpt lat="37.72756790779169" lon="15.19883929773255"><ele>39.0</ele><time>2026-04-19T08:39:21Z</time></trkpt><trkpt lat="37.72758922726137" lon="15.198967256657854"><ele>39.0</ele><time>2026-04-19T08:39:23Z</time></trkpt><trkpt lat="37.72759541286429" lon="15.199085573194377"><ele>39.0</ele><time>2026-04-19T08:39:25Z</time></trkpt><trkpt lat="37.72777171461623" lon="15.199051014253435"><ele>39.0</ele><time>2026-04-19T08:39:29Z</time></trkpt><trkpt lat="37.727864072303184" lon="15.199018097545816"><ele>39.0</ele><time>2026-04-19T08:39:30Z</time></trkpt><trkpt lat="37.7279570083787" lon="15.198972899719392"><ele>39.0</ele><time>2026-04-19T08:39:31Z</time></trkpt><trkpt lat="37.728041990096166" lon="15.198943564092337"><ele>39.0</ele><time>2026-04-19T08:39:32Z</time></trkpt><trkpt lat="37.72813630108704" lon="15.198905611328634"><ele>39.0</ele><time>2026-04-19T08:39:33Z</time></trkpt><trkpt lat="37.72822426041272" lon="15.198872382213123"><ele>39.0</ele><time>2026-04-19T08:39:34Z</time></trkpt><trkpt lat="37.72830580436149" lon="15.19883952465489"><ele>39.0</ele><time>2026-04-19T08:39:35Z</time></trkpt><trkpt lat="37.72838340732691" lon="15.198803805990693"><ele>39.0</ele><time>2026-04-19T08:39:36Z</time></trkpt><trkpt lat="37.728448992533515" lon="15.198765963572693"><ele>39.0</ele><time>2026-04-19T08:39:37Z</time></trkpt><trkpt lat="37.72850764386339" lon="15.198728300837896"><ele>38.333333333333336</ele><time>2026-04-19T08:39:38Z</time></trkpt><trkpt lat="37.72859376559275" lon="15.198685099609003"><ele>37.666666666666664</ele><time>2026-04-19T08:39:40Z</time></trkpt><trkpt lat="37.72865427486615" lon="15.198745505518454"><ele>37.0</ele><time>2026-04-19T08:39:44Z</time></trkpt><trkpt lat="37.728645167978776" lon="15.198856942757041"><ele>36.33333333333333</ele><time>2026-04-19T08:39:46Z</time></trkpt><trkpt lat="37.72864765710687" lon="15.198953628345699"><ele>35.666666666666664</ele><time>2026-04-19T08:39:51Z</time></trkpt><trkpt lat="37.72867536281134" lon="15.199049008010588"><ele>35.0</ele><time>2026-04-19T08:39:53Z</time></trkpt><trkpt lat="37.72869390003232" lon="15.1991267140573"><ele>34.33333333333333</ele><time>2026-04-19T08:39:54Z</time></trkpt><trkpt lat="37.7286994455133" lon="15.199228335051256"><ele>33.666666666666664</ele><time>2026-04-19T08:39:55Z</time></trkpt><trkpt lat="37.728701110669995" lon="15.199346011214184"><ele>33.0</ele><time>2026-04-19T08:39:56Z</time></trkpt><trkpt lat="37.728725847808114" lon="15.199456933148369"><ele>32.333333333333336</ele><time>2026-04-19T08:39:57Z</time></trkpt><trkpt lat="37.72874172049998" lon="15.199566227097616"><ele>31.666666666666668</ele><time>2026-04-19T08:39:58Z</time></trkpt><trkpt lat="37.728767835381085" lon="15.19967799555188"><ele>31.0</ele><time>2026-04-19T08:39:59Z</time></trkpt><trkpt lat="37.72878257589993" lon="15.199789758969738"><ele>30.8</ele><time>2026-04-19T08:40:00Z</time></trkpt><trkpt lat="37.72880054418603" lon="15.199911120005707"><ele>30.6</ele><time>2026-04-19T08:40:01Z</time></trkpt><trkpt lat="37.72882280556455" lon="15.20003599159773"><ele>30.4</ele><time>2026-04-19T08:40:02Z</time></trkpt><trkpt lat="37.72884758460029" lon="15.200163489943929"><ele>30.2</ele><time>2026-04-19T08:40:03Z</time></trkpt><trkpt lat="37.728873720644245" lon="15.20029989282315"><ele>30.0</ele><time>2026-04-19T08:40:04Z</time></trkpt><trkpt lat="37.728898210539946" lon="15.20042491843548"><ele>30.0</ele><time>2026-04-19T08:40:05Z</time></trkpt><trkpt lat="37.72891808913795" lon="15.200533822129552"><ele>30.0</ele><time>2026-04-19T08:40:06Z</time></trkpt><trkpt lat="37.72893149116976" lon="15.200635927721143"><ele>30.0</ele><time>2026-04-19T08:40:07Z</time></trkpt><trkpt lat="37.728939312330546" lon="15.200729519578365"><ele>30.0</ele><time>2026-04-19T08:40:08Z</time></trkpt><trkpt lat="37.728945503901244" lon="15.200827203498424"><ele>30.0</ele><time>2026-04-19T08:40:10Z</time></trkpt><trkpt lat="37.72896321256604" lon="15.200925827928051"><ele>30.0</ele><time>2026-04-19T08:40:12Z</time></trkpt><trkpt lat="37.728975645258565" lon="15.20101411212907"><ele>29.8</ele><time>2026-04-19T08:40:13Z</time></trkpt><trkpt lat="37.728983787466724" lon="15.201127111502254"><ele>29.6</ele><time>2026-04-19T08:40:14Z</time></trkpt><trkpt lat="37.728982968389865" lon="15.201269477647392"><ele>29.4</ele><time>2026-04-19T08:40:15Z</time></trkpt><trkpt lat="37.7289760207489" lon="15.201407183025937"><ele>29.2</ele><time>2026-04-19T08:40:16Z</time></trkpt><trkpt lat="37.72897748347814" lon="15.201543339306147"><ele>29.0</ele><time>2026-04-19T08:40:17Z</time></trkpt><trkpt lat="37.729000610571354" lon="15.201697880189283"><ele>28.25</ele><time>2026-04-19T08:40:18Z</time></trkpt><trkpt lat="37.729020246270174" lon="15.201865685737243"><ele>27.5</ele><time>2026-04-19T08:40:19Z</time></trkpt><trkpt lat="37.72902818062694" lon="15.202018739081533"><ele>26.75</ele><time>2026-04-19T08:40:20Z</time></trkpt><trkpt lat="37.72903674495482" lon="15.20216368321664"><ele>26.0</ele><time>2026-04-19T08:40:21Z</time></trkpt><trkpt lat="37.729045972856994" lon="15.202313846657608"><ele>25.4</ele><time>2026-04-19T08:40:22Z</time></trkpt><trkpt lat="37.729052211242845" lon="15.202464401443919"><ele>24.8</ele><time>2026-04-19T08:40:23Z</time></trkpt><trkpt lat="37.7290649433075" lon="15.202601545247473"><ele>24.2</ele><time>2026-04-19T08:40:24Z</time></trkpt><trkpt lat="37.7290762226447" lon="15.202728087273654"><ele>23.599999999999998</ele><time>2026-04-19T08:40:25Z</time></trkpt><trkpt lat="37.72905091060143" lon="15.202865137999055"><ele>23.0</ele><time>2026-04-19T08:40:26Z</time></trkpt><trkpt lat="37.729057549437755" lon="15.202995411567978"><ele>23.0</ele><time>2026-04-19T08:40:27Z</time></trkpt><trkpt lat="37.72907806190864" lon="15.203121507155847"><ele>23.0</ele><time>2026-04-19T08:40:28Z</time></trkpt><trkpt lat="37.72907429408353" lon="15.203254857234132"><ele>23.0</ele><time>2026-04-19T08:40:29Z</time></trkpt><trkpt lat="37.72909197511922" lon="15.203376695365112"><ele>23.0</ele><time>2026-04-19T08:40:30Z</time></trkpt><trkpt lat="37.72909755093812" lon="15.203496266488889"><ele>23.0</ele><time>2026-04-19T08:40:31Z</time></trkpt><trkpt lat="37.72910472276828" lon="15.203619143931078"><ele>22.5</ele><time>2026-04-19T08:40:32Z</time></trkpt><trkpt lat="37.72911535921565" lon="15.20373528414628"><ele>22.0</ele><time>2026-04-19T08:40:33Z</time></trkpt><trkpt lat="37.72913001375945" lon="15.203853150230554"><ele>21.5</ele><time>2026-04-19T08:40:34Z</time></trkpt><trkpt lat="37.72914744302273" lon="15.203962311999858"><ele>21.0</ele><time>2026-04-19T08:40:35Z</time></trkpt><trkpt lat="37.72917103270395" lon="15.204063354488355"><ele>20.5</ele><time>2026-04-19T08:40:36Z</time></trkpt><trkpt lat="37.729196699061156" lon="15.20416487468437"><ele>20.0</ele><time>2026-04-19T08:40:37Z</time></trkpt><trkpt lat="37.729210648108044" lon="15.204269610687225"><ele>19.714285714285715</ele><time>2026-04-19T08:40:38Z</time></trkpt><trkpt lat="37.72922759627004" lon="15.204363776021129"><ele>19.42857142857143</ele><time>2026-04-19T08:40:39Z</time></trkpt><trkpt lat="37.72922851557213" lon="15.204467664300429"><ele>19.142857142857146</ele><time>2026-04-19T08:40:40Z</time></trkpt><trkpt lat="37.729259480477" lon="15.204555990745344"><ele>18.857142857142858</ele><time>2026-04-19T08:40:41Z</time></trkpt><trkpt lat="37.72927540203878" lon="15.204641612423092"><ele>18.571428571428573</ele><time>2026-04-19T08:40:42Z</time></trkpt><trkpt lat="37.72929078342869" lon="15.204726049782913"><ele>18.28571428571429</ele><time>2026-04-19T08:40:43Z</time></trkpt><trkpt lat="37.72929918249711" lon="15.204811699932737"><ele>18.0</ele><time>2026-04-19T08:40:44Z</time></trkpt><trkpt lat="37.729310227433295" lon="15.20489170628784"><ele>17.333333333333332</ele><time>2026-04-19T08:40:45Z</time></trkpt><trkpt lat="37.72934832735814" lon="15.205042364011861"><ele>16.666666666666668</ele><time>2026-04-19T08:40:47Z</time></trkpt><trkpt lat="37.72936833524108" lon="15.205124823570625"><ele>16.0</ele><time>2026-04-19T08:40:48Z</time></trkpt><trkpt lat="37.72939354899063" lon="15.205228734695387"><ele>15.333333333333334</ele><time>2026-04-19T08:40:50Z</time></trkpt><trkpt lat="37.72940648070849" lon="15.205314418423914"><ele>14.666666666666668</ele><time>2026-04-19T08:40:54Z</time></trkpt><trkpt lat="37.72942763858441" lon="15.205394249982316"><ele>14.0</ele><time>2026-04-19T08:40:56Z</time></trkpt><trkpt lat="37.729461006004705" lon="15.20556193618826"><ele>13.833333333333334</ele><time>2026-04-19T08:40:58Z</time></trkpt><trkpt lat="37.72949923382116" lon="15.205653434622182"><ele>13.666666666666668</ele><time>2026-04-19T08:40:59Z</time></trkpt><trkpt lat="37.72950594311278" lon="15.205757824719118"><ele>13.5</ele><time>2026-04-19T08:41:00Z</time></trkpt><trkpt lat="37.72952677540697" lon="15.205856997340213"><ele>13.333333333333332</ele><time>2026-04-19T08:41:01Z</time></trkpt><trkpt lat="37.729548322987334" lon="15.205968212561196"><ele>13.166666666666666</ele><time>2026-04-19T08:41:02Z</time></trkpt><trkpt lat="37.729566979026686" lon="15.206074873097249"><ele>13.0</ele><time>2026-04-19T08:41:03Z</time></trkpt><trkpt lat="37.729581351658574" lon="15.206171538276935"><ele>12.999999999999998</ele><time>2026-04-19T08:41:04Z</time></trkpt><trkpt lat="37.72959324987358" lon="15.206262434215134"><ele>13.0</ele><time>2026-04-19T08:41:05Z</time></trkpt><trkpt lat="37.72960524767219" lon="15.206355939186395"><ele>13.0</ele><time>2026-04-19T08:41:06Z</time></trkpt><trkpt lat="37.72961780364733" lon="15.206453794291793"><ele>13.0</ele><time>2026-04-19T08:41:07Z</time></trkpt><trkpt lat="37.72963106766254" lon="15.206555840084489"><ele>12.999999999999998</ele><time>2026-04-19T08:41:08Z</time></trkpt><trkpt lat="37.72964468863038" lon="15.206660732557161"><ele>13.0</ele><time>2026-04-19T08:41:09Z</time></trkpt><trkpt lat="37.72968228481791" lon="15.206748600354011"><ele>12.200000000000001</ele><time>2026-04-19T08:41:10Z</time></trkpt><trkpt lat="37.729704677787815" lon="15.206825877385905"><ele>11.4</ele><time>2026-04-19T08:41:11Z</time></trkpt><trkpt lat="37.72972251275384" lon="15.206965236915362"><ele>10.600000000000001</ele><time>2026-04-19T08:41:13Z</time></trkpt><trkpt lat="37.72975047506189" lon="15.207054769820099"><ele>9.8</ele><time>2026-04-19T08:41:16Z</time></trkpt><trkpt lat="37.729777952525716" lon="15.207136118930928"><ele>9.0</ele><time>2026-04-19T08:41:19Z</time></trkpt><trkpt lat="37.729960073483966" lon="15.206970682587402"><ele>9.0</ele><time>2026-04-19T08:41:20Z</time></trkpt><trkpt lat="37.73002843461987" lon="15.206901123057833"><ele>9.0</ele><time>2026-04-19T08:41:21Z</time></trkpt><trkpt lat="37.73010721057028" lon="15.206835698711155"><ele>9.0</ele><time>2026-04-19T08:41:22Z</time></trkpt><trkpt lat="37.730177585269274" lon="15.206773855807986"><ele>9.0</ele><time>2026-04-19T08:41:23Z</time></trkpt><trkpt lat="37.73024983257839" lon="15.206707769721286"><ele>9.0</ele><time>2026-04-19T08:41:24Z</time></trkpt><trkpt lat="37.73032683862886" lon="15.206645089758114"><ele>9.0</ele><time>2026-04-19T08:41:25Z</time></trkpt><trkpt lat="37.73040129835356" lon="15.20658593236335"><ele>9.0</ele><time>2026-04-19T08:41:26Z</time></trkpt><trkpt lat="37.730471851586344" lon="15.206525498907487"><ele>9.0</ele><time>2026-04-19T08:41:27Z</time></trkpt><trkpt lat="37.730542587800045" lon="15.20646265831928"><ele>9.0</ele><time>2026-04-19T08:41:28Z</time></trkpt><trkpt lat="37.730619009824814" lon="15.206395516110408"><ele>9.0</ele><time>2026-04-19T08:41:29Z</time></trkpt><trkpt lat="37.73068920597921" lon="15.206329363274651"><ele>9.0</ele><time>2026-04-19T08:41:30Z</time></trkpt><trkpt lat="37.73076666547563" lon="15.206260877426573"><ele>9.0</ele><time>2026-04-19T08:41:31Z</time></trkpt><trkpt lat="37.730836767205936" lon="15.206204617033631"><ele>9.0</ele><time>2026-04-19T08:41:32Z</time></trkpt><trkpt lat="37.730903616255155" lon="15.206151381713353"><ele>9.0</ele><time>2026-04-19T08:41:33Z</time></trkpt><trkpt lat="37.73096434028768" lon="15.206104395567179"><ele>9.0</ele><time>2026-04-19T08:41:34Z</time></trkpt><trkpt lat="37.73104483761318" lon="15.20603731663518"><ele>9.0</ele><time>2026-04-19T08:41:36Z</time></trkpt><trkpt lat="37.73111604407219" lon="15.205983229294478"><ele>9.0</ele><time>2026-04-19T08:41:38Z</time></trkpt><trkpt lat="37.731200783305745" lon="15.20592098217273"><ele>9.0</ele><time>2026-04-19T08:41:40Z</time></trkpt><trkpt lat="37.73131432255995" lon="15.20584696855147"><ele>8.166666666666666</ele><time>2026-04-19T08:41:42Z</time></trkpt><trkpt lat="37.731377049304015" lon="15.205813497583383"><ele>7.333333333333333</ele><time>2026-04-19T08:41:43Z</time></trkpt><trkpt lat="37.73148637666399" lon="15.205767957360788"><ele>6.5</ele><time>2026-04-19T08:41:45Z</time></trkpt><trkpt lat="37.731577007023596" lon="15.205721231410228"><ele>5.666666666666666</ele><time>2026-04-19T08:41:47Z</time></trkpt><trkpt lat="37.73165207956598" lon="15.205684142298102"><ele>4.833333333333333</ele><time>2026-04-19T08:41:49Z</time></trkpt><trkpt lat="37.73171491554948" lon="15.205668697998364"><ele>4.0</ele><time>2026-04-19T08:41:57Z</time></trkpt><trkpt lat="37.73178882652714" lon="15.205663669450384"><ele>4.666666666666666</ele><time>2026-04-19T08:41:59Z</time></trkpt><trkpt lat="37.73188582153698" lon="15.205647564272212"><ele>5.333333333333333</ele><time>2026-04-19T08:42:01Z</time></trkpt><trkpt lat="37.73195743971563" lon="15.205604031499487"><ele>6.0</ele><time>2026-04-19T08:42:03Z</time></trkpt><trkpt lat="37.73201984774483" lon="15.205584992342487"><ele>6.666666666666666</ele><time>2026-04-19T08:42:05Z</time></trkpt><trkpt lat="37.7320905246413" lon="15.205546492688379"><ele>7.333333333333333</ele><time>2026-04-19T08:42:07Z</time></trkpt><trkpt lat="37.73217592604634" lon="15.20551869449065"><ele>8.0</ele><time>2026-04-19T08:42:09Z</time></trkpt><trkpt lat="37.73225060696273" lon="15.205480593502095"><ele>7.999999999999999</ele><time>2026-04-19T08:42:12Z</time></trkpt><trkpt lat="37.73233205947883" lon="15.20544385521067"><ele>8.0</ele><time>2026-04-19T08:42:14Z</time></trkpt><trkpt lat="37.732432112884226" lon="15.205413950444713"><ele>8.0</ele><time>2026-04-19T08:42:16Z</time></trkpt><trkpt lat="37.732515683995175" lon="15.205373720562656"><ele>8.0</ele><time>2026-04-19T08:42:18Z</time></trkpt><trkpt lat="37.73258073424908" lon="15.205338248350017"><ele>7.999999999999999</ele><time>2026-04-19T08:42:20Z</time></trkpt><trkpt lat="37.73264264981493" lon="15.205320643011298"><ele>8.0</ele><time>2026-04-19T08:42:22Z</time></trkpt><trkpt lat="37.73272554956464" lon="15.205285656951999"><ele>7.999999999999999</ele><time>2026-04-19T08:42:24Z</time></trkpt><trkpt lat="37.732812182992326" lon="15.205252918149522"><ele>8.0</ele><time>2026-04-19T08:42:26Z</time></trkpt><trkpt lat="37.732877078971384" lon="15.205227107291247"><ele>8.0</ele><time>2026-04-19T08:42:28Z</time></trkpt><trkpt lat="37.73294446181321" lon="15.205199987390374"><ele>8.0</ele><time>2026-04-19T08:42:30Z</time></trkpt><trkpt lat="37.73302219942564" lon="15.205173023679153"><ele>7.999999999999999</ele><time>2026-04-19T08:42:32Z</time></trkpt><trkpt lat="37.73309410266173" lon="15.205146980948902"><ele>8.0</ele><time>2026-04-19T08:42:34Z</time></trkpt><trkpt lat="37.733174357041996" lon="15.205132725301953"><ele>8.0</ele><time>2026-04-19T08:42:36Z</time></trkpt><trkpt lat="37.73328523828531" lon="15.205087715428432"><ele>8.0</ele><time>2026-04-19T08:42:38Z</time></trkpt><trkpt lat="37.73338564083677" lon="15.205051684866463"><ele>8.0</ele><time>2026-04-19T08:42:40Z</time></trkpt><trkpt lat="37.73348116279913" lon="15.205010936096286"><ele>8.0</ele><time>2026-04-19T08:42:42Z</time></trkpt><trkpt lat="37.73358556496119" lon="15.204971823154091"><ele>8.0</ele><time>2026-04-19T08:42:44Z</time></trkpt><trkpt lat="37.733700371918495" lon="15.204919526676965"><ele>7.800000000000001</ele><time>2026-04-19T08:42:46Z</time></trkpt><trkpt lat="37.73376456621189" lon="15.204896841512271"><ele>7.6000000000000005</ele><time>2026-04-19T08:42:47Z</time></trkpt><trkpt lat="37.7338766441221" lon="15.204847410488469"><ele>7.3999999999999995</ele><time>2026-04-19T08:42:49Z</time></trkpt><trkpt lat="37.7339847622065" lon="15.204800658084949"><ele>7.199999999999999</ele><time>2026-04-19T08:42:51Z</time></trkpt><trkpt lat="37.734073595480204" lon="15.204783069039438"><ele>7.0</ele><time>2026-04-19T08:42:53Z</time></trkpt><trkpt lat="37.734178096409245" lon="15.204729465151754"><ele>7.199999999999999</ele><time>2026-04-19T08:42:55Z</time></trkpt><trkpt lat="37.73428515816674" lon="15.204696653317107"><ele>7.3999999999999995</ele><time>2026-04-19T08:42:57Z</time></trkpt><trkpt lat="37.73440496223286" lon="15.204651346810964"><ele>7.6000000000000005</ele><time>2026-04-19T08:42:59Z</time></trkpt><trkpt lat="37.73450982497536" lon="15.204621115709882"><ele>7.800000000000001</ele><time>2026-04-19T08:43:01Z</time></trkpt><trkpt lat="37.734578561620296" lon="15.20459801429739"><ele>8.0</ele><time>2026-04-19T08:43:02Z</time></trkpt><trkpt lat="37.73464790254287" lon="15.204572067137914"><ele>8.0</ele><time>2026-04-19T08:43:03Z</time></trkpt><trkpt lat="37.73472335216681" lon="15.204550637354098"><ele>8.0</ele><time>2026-04-19T08:43:04Z</time></trkpt><trkpt lat="37.73481934345162" lon="15.204520255470799"><ele>8.0</ele><time>2026-04-19T08:43:05Z</time></trkpt><trkpt lat="37.73492857924051" lon="15.20448603256621"><ele>8.0</ele><time>2026-04-19T08:43:06Z</time></trkpt><trkpt lat="37.73502986909641" lon="15.204457335314425"><ele>8.0</ele><time>2026-04-19T08:43:07Z</time></trkpt><trkpt lat="37.735117822970636" lon="15.204444590517088"><ele>8.0</ele><time>2026-04-19T08:43:08Z</time></trkpt><trkpt lat="37.73521709030095" lon="15.204423062030651"><ele>8.0</ele><time>2026-04-19T08:43:09Z</time></trkpt><trkpt lat="37.73532703129661" lon="15.20442105895796"><ele>8.0</ele><time>2026-04-19T08:43:10Z</time></trkpt><trkpt lat="37.73545441391319" lon="15.204422548331396"><ele>8.0</ele><time>2026-04-19T08:43:11Z</time></trkpt><trkpt lat="37.73560139503897" lon="15.20441107758995"><ele>8.25</ele><time>2026-04-19T08:43:12Z</time></trkpt><trkpt lat="37.73573731810429" lon="15.204397346981255"><ele>8.5</ele><time>2026-04-19T08:43:13Z</time></trkpt><trkpt lat="37.735859488440006" lon="15.204386399804214"><ele>8.75</ele><time>2026-04-19T08:43:14Z</time></trkpt><trkpt lat="37.735976272821766" lon="15.204386335305214"><ele>9.0</ele><time>2026-04-19T08:43:15Z</time></trkpt><trkpt lat="37.73610523171346" lon="15.204377541536491"><ele>8.5</ele><time>2026-04-19T08:43:16Z</time></trkpt><trkpt lat="37.736231772480444" lon="15.204366834936657"><ele>8.0</ele><time>2026-04-19T08:43:17Z</time></trkpt><trkpt lat="37.736352972352485" lon="15.204360366940673"><ele>7.5</ele><time>2026-04-19T08:43:18Z</time></trkpt><trkpt lat="37.73646313635037" lon="15.204345108285045"><ele>7.0</ele><time>2026-04-19T08:43:19Z</time></trkpt><trkpt lat="37.736557667789384" lon="15.204325980090227"><ele>7.0</ele><time>2026-04-19T08:43:20Z</time></trkpt><trkpt lat="37.736655153514924" lon="15.204284195170983"><ele>6.999999999999999</ele><time>2026-04-19T08:43:21Z</time></trkpt><trkpt lat="37.73674623333735" lon="15.204241864421176"><ele>6.999999999999999</ele><time>2026-04-19T08:43:22Z</time></trkpt><trkpt lat="37.73683654669031" lon="15.204213308362197"><ele>7.0</ele><time>2026-04-19T08:43:23Z</time></trkpt><trkpt lat="37.73692510807956" lon="15.204198345313275"><ele>7.0</ele><time>2026-04-19T08:43:24Z</time></trkpt><trkpt lat="37.73701326673322" lon="15.204184476940288"><ele>6.8</ele><time>2026-04-19T08:43:25Z</time></trkpt><trkpt lat="37.73709229209382" lon="15.204180021991373"><ele>6.6</ele><time>2026-04-19T08:43:26Z</time></trkpt><trkpt lat="37.73720197606644" lon="15.204181795960814"><ele>6.3999999999999995</ele><time>2026-04-19T08:43:28Z</time></trkpt><trkpt lat="37.73729608359021" lon="15.204180451586478"><ele>6.199999999999999</ele><time>2026-04-19T08:43:30Z</time></trkpt><trkpt lat="37.73742463861828" lon="15.20416978303108"><ele>6.0</ele><time>2026-04-19T08:43:32Z</time></trkpt><trkpt lat="37.73750301670668" lon="15.204166968108403"><ele>5.999999999999999</ele><time>2026-04-19T08:43:33Z</time></trkpt><trkpt lat="37.737581341141116" lon="15.204158346898293"><ele>6.0</ele><time>2026-04-19T08:43:34Z</time></trkpt><trkpt lat="37.73765140166007" lon="15.204151866296025"><ele>6.0</ele><time>2026-04-19T08:43:35Z</time></trkpt><trkpt lat="37.73772273608699" lon="15.204143333657312"><ele>6.0</ele><time>2026-04-19T08:43:36Z</time></trkpt><trkpt lat="37.737788836385036" lon="15.204137257813668"><ele>6.0</ele><time>2026-04-19T08:43:37Z</time></trkpt><trkpt lat="37.73785301483324" lon="15.204139657030527"><ele>5.999999999999999</ele><time>2026-04-19T08:43:38Z</time></trkpt><trkpt lat="37.737933360585906" lon="15.204140164838142"><ele>6.0</ele><time>2026-04-19T08:43:39Z</time></trkpt><trkpt lat="37.73801881815421" lon="15.204141944669537"><ele>6.333333333333333</ele><time>2026-04-19T08:43:40Z</time></trkpt><trkpt lat="37.73810048176675" lon="15.2041429562603"><ele>6.666666666666666</ele><time>2026-04-19T08:43:41Z</time></trkpt><trkpt lat="37.73818903154429" lon="15.204140834308982"><ele>7.0</ele><time>2026-04-19T08:43:42Z</time></trkpt><trkpt lat="37.73827305228203" lon="15.204137682879528"><ele>7.333333333333333</ele><time>2026-04-19T08:43:43Z</time></trkpt><trkpt lat="37.73835073254616" lon="15.204133951891782"><ele>7.666666666666666</ele><time>2026-04-19T08:43:44Z</time></trkpt><trkpt lat="37.73842376074843" lon="15.204126994630824"><ele>8.0</ele><time>2026-04-19T08:43:45Z</time></trkpt><trkpt lat="37.738559772253865" lon="15.204123106330146"><ele>8.0</ele><time>2026-04-19T08:43:47Z</time></trkpt><trkpt lat="37.73866106085534" lon="15.20412758921679"><ele>8.0</ele><time>2026-04-19T08:43:48Z</time></trkpt><trkpt lat="37.7387792355048" lon="15.204133357341389"><ele>8.0</ele><time>2026-04-19T08:43:49Z</time></trkpt><trkpt lat="37.73890796678824" lon="15.204123342000225"><ele>8.0</ele><time>2026-04-19T08:43:50Z</time></trkpt><trkpt lat="37.73904361743775" lon="15.204111164694782"><ele>8.0</ele><time>2026-04-19T08:43:51Z</time></trkpt><trkpt lat="37.73915442226987" lon="15.20409997141273"><ele>8.0</ele><time>2026-04-19T08:43:52Z</time></trkpt><trkpt lat="37.739266299840025" lon="15.204103986604126"><ele>8.0</ele><time>2026-04-19T08:43:53Z</time></trkpt><trkpt lat="37.73937839882288" lon="15.204096566004294"><ele>8.0</ele><time>2026-04-19T08:43:54Z</time></trkpt><trkpt lat="37.73948522207826" lon="15.204088067444692"><ele>8.0</ele><time>2026-04-19T08:43:55Z</time></trkpt><trkpt lat="37.7395859937172" lon="15.20408404215352"><ele>7.6000000000000005</ele><time>2026-04-19T08:43:56Z</time></trkpt><trkpt lat="37.73968996165887" lon="15.204082110289647"><ele>7.200000000000001</ele><time>2026-04-19T08:43:57Z</time></trkpt><trkpt lat="37.739794197760354" lon="15.20408068771021"><ele>6.8</ele><time>2026-04-19T08:43:58Z</time></trkpt><trkpt lat="37.739900113825485" lon="15.20407719017275"><ele>6.4</ele><time>2026-04-19T08:43:59Z</time></trkpt><trkpt lat="37.74000721046234" lon="15.204070642873866"><ele>6.0</ele><time>2026-04-19T08:44:00Z</time></trkpt><trkpt lat="37.74010877002593" lon="15.204061830389989"><ele>6.0</ele><time>2026-04-19T08:44:01Z</time></trkpt><trkpt lat="37.740199120406515" lon="15.20406060781566"><ele>6.0</ele><time>2026-04-19T08:44:02Z</time></trkpt><trkpt lat="37.74028672728236" lon="15.204064803584785"><ele>6.0</ele><time>2026-04-19T08:44:03Z</time></trkpt><trkpt lat="37.74036945439287" lon="15.20405605368741"><ele>6.0</ele><time>2026-04-19T08:44:04Z</time></trkpt><trkpt lat="37.74044327308208" lon="15.204059157998486"><ele>6.0</ele><time>2026-04-19T08:44:05Z</time></trkpt><trkpt lat="37.74051871815412" lon="15.20405687933284"><ele>6.0</ele><time>2026-04-19T08:44:06Z</time></trkpt><trkpt lat="37.740595980476364" lon="15.204059639620885"><ele>6.333333333333333</ele><time>2026-04-19T08:44:07Z</time></trkpt><trkpt lat="37.74067740974038" lon="15.20406442596866"><ele>6.666666666666666</ele><time>2026-04-19T08:44:08Z</time></trkpt><trkpt lat="37.740761448991464" lon="15.20407213802078"><ele>7.0</ele><time>2026-04-19T08:44:09Z</time></trkpt><trkpt lat="37.74084779704106" lon="15.204090152781934"><ele>7.333333333333333</ele><time>2026-04-19T08:44:10Z</time></trkpt><trkpt lat="37.7409308884878" lon="15.204118477928606"><ele>7.666666666666666</ele><time>2026-04-19T08:44:11Z</time></trkpt><trkpt lat="37.74101260582952" lon="15.204143016596756"><ele>8.0</ele><time>2026-04-19T08:44:12Z</time></trkpt><trkpt lat="37.74109472042567" lon="15.204161564829281"><ele>8.333333333333332</ele><time>2026-04-19T08:44:13Z</time></trkpt><trkpt lat="37.74117586625052" lon="15.204178583312052"><ele>8.666666666666666</ele><time>2026-04-19T08:44:14Z</time></trkpt><trkpt lat="37.74125790428184" lon="15.204197159814106"><ele>9.0</ele><time>2026-04-19T08:44:15Z</time></trkpt><trkpt lat="37.74134450429292" lon="15.204213569893675"><ele>9.333333333333334</ele><time>2026-04-19T08:44:16Z</time></trkpt><trkpt lat="37.74143326513349" lon="15.204232263663826"><ele>9.666666666666668</ele><time>2026-04-19T08:44:17Z</time></trkpt><trkpt lat="37.74152445145782" lon="15.204256616370412"><ele>10.0</ele><time>2026-04-19T08:44:18Z</time></trkpt><trkpt lat="37.74161642604995" lon="15.204280573852976"><ele>10.0</ele><time>2026-04-19T08:44:19Z</time></trkpt><trkpt lat="37.741709994676675" lon="15.204304043627259"><ele>10.0</ele><time>2026-04-19T08:44:20Z</time></trkpt><trkpt lat="37.7418033829158" lon="15.204327302076727"><ele>10.0</ele><time>2026-04-19T08:44:21Z</time></trkpt><trkpt lat="37.74188721994545" lon="15.2043480619715"><ele>10.0</ele><time>2026-04-19T08:44:22Z</time></trkpt><trkpt lat="37.74197576932301" lon="15.204375274442102"><ele>10.0</ele><time>2026-04-19T08:44:23Z</time></trkpt><trkpt lat="37.74204950041363" lon="15.204394000371478"><ele>10.0</ele><time>2026-04-19T08:44:24Z</time></trkpt><trkpt lat="37.74211722838389" lon="15.204412613946342"><ele>10.0</ele><time>2026-04-19T08:44:25Z</time></trkpt><trkpt lat="37.7422323296319" lon="15.204450239075289"><ele>10.0</ele><time>2026-04-19T08:44:27Z</time></trkpt><trkpt lat="37.74233849425646" lon="15.204477518293288"><ele>10.0</ele><time>2026-04-19T08:44:29Z</time></trkpt><trkpt lat="37.742453376438945" lon="15.204507690501789"><ele>10.0</ele><time>2026-04-19T08:44:31Z</time></trkpt><trkpt lat="37.74256477857468" lon="15.204540529670814"><ele>10.0</ele><time>2026-04-19T08:44:33Z</time></trkpt><trkpt lat="37.74267873785521" lon="15.204569373209708"><ele>10.0</ele><time>2026-04-19T08:44:35Z</time></trkpt><trkpt lat="37.74279333397244" lon="15.204608249861323"><ele>10.0</ele><time>2026-04-19T08:44:37Z</time></trkpt><trkpt lat="37.742902420847756" lon="15.204652848708692"><ele>10.0</ele><time>2026-04-19T08:44:39Z</time></trkpt><trkpt lat="37.74300550125349" lon="15.20470670158902"><ele>9.833333333333334</ele><time>2026-04-19T08:44:41Z</time></trkpt><trkpt lat="37.74312758799264" lon="15.204758768884552"><ele>9.666666666666668</ele><time>2026-04-19T08:44:43Z</time></trkpt><trkpt lat="37.74319714306568" lon="15.204784627282013"><ele>9.5</ele><time>2026-04-19T08:44:44Z</time></trkpt><trkpt lat="37.743272324768206" lon="15.204811599847218"><ele>9.333333333333334</ele><time>2026-04-19T08:44:45Z</time></trkpt><trkpt lat="37.74334770929095" lon="15.204844993546086"><ele>9.166666666666666</ele><time>2026-04-19T08:44:46Z</time></trkpt><trkpt lat="37.743423334946755" lon="15.20487904973"><ele>9.0</ele><time>2026-04-19T08:44:47Z</time></trkpt><trkpt lat="37.743500572572714" lon="15.204914867987068"><ele>9.166666666666666</ele><time>2026-04-19T08:44:48Z</time></trkpt><trkpt lat="37.743577994711096" lon="15.204954726577544"><ele>9.333333333333334</ele><time>2026-04-19T08:44:49Z</time></trkpt><trkpt lat="37.74365901381798" lon="15.204991499779684"><ele>9.5</ele><time>2026-04-19T08:44:50Z</time></trkpt><trkpt lat="37.74373736763604" lon="15.205032259357745"><ele>9.666666666666668</ele><time>2026-04-19T08:44:51Z</time></trkpt><trkpt lat="37.74381379362972" lon="15.205072427972427"><ele>9.833333333333334</ele><time>2026-04-19T08:44:52Z</time></trkpt><trkpt lat="37.74388954513776" lon="15.20511134306572"><ele>10.0</ele><time>2026-04-19T08:44:53Z</time></trkpt><trkpt lat="37.74397398792803" lon="15.205153164070083"><ele>10.0</ele><time>2026-04-19T08:44:54Z</time></trkpt><trkpt lat="37.74406106220932" lon="15.205204364308972"><ele>10.0</ele><time>2026-04-19T08:44:55Z</time></trkpt><trkpt lat="37.74415212307315" lon="15.205263774435824"><ele>10.0</ele><time>2026-04-19T08:44:56Z</time></trkpt><trkpt lat="37.74425159239592" lon="15.205308420716921"><ele>10.0</ele><time>2026-04-19T08:44:57Z</time></trkpt><trkpt lat="37.74436010105849" lon="15.205345969616182"><ele>10.0</ele><time>2026-04-19T08:44:58Z</time></trkpt><trkpt lat="37.74446158437451" lon="15.20541500058483"><ele>10.0</ele><time>2026-04-19T08:44:59Z</time></trkpt><trkpt lat="37.74456666513263" lon="15.205486670067122"><ele>10.0</ele><time>2026-04-19T08:45:00Z</time></trkpt><trkpt lat="37.74467453087229" lon="15.20554600770089"><ele>10.0</ele><time>2026-04-19T08:45:01Z</time></trkpt><trkpt lat="37.744779037369284" lon="15.20558994793467"><ele>10.0</ele><time>2026-04-19T08:45:02Z</time></trkpt><trkpt lat="37.74487560636401" lon="15.20562643893967"><ele>10.0</ele><time>2026-04-19T08:45:03Z</time></trkpt><trkpt lat="37.74496604425921" lon="15.205677000596957"><ele>10.0</ele><time>2026-04-19T08:45:04Z</time></trkpt><trkpt lat="37.74506711875168" lon="15.205735983220519"><ele>10.0</ele><time>2026-04-19T08:45:05Z</time></trkpt><trkpt lat="37.74517116453135" lon="15.20578810887636"><ele>10.0</ele><time>2026-04-19T08:45:06Z</time></trkpt><trkpt lat="37.745277767800665" lon="15.205837867420666"><ele>10.0</ele><time>2026-04-19T08:45:07Z</time></trkpt><trkpt lat="37.74538451078427" lon="15.205891289396462"><ele>9.75</ele><time>2026-04-19T08:45:08Z</time></trkpt><trkpt lat="37.74549476980685" lon="15.205940469609398"><ele>9.5</ele><time>2026-04-19T08:45:09Z</time></trkpt><trkpt lat="37.745609763075905" lon="15.20598331716421"><ele>9.25</ele><time>2026-04-19T08:45:10Z</time></trkpt><trkpt lat="37.7457242203046" lon="15.206032592000042"><ele>9.0</ele><time>2026-04-19T08:45:11Z</time></trkpt><trkpt lat="37.74583589406458" lon="15.206089785890041"><ele>9.0</ele><time>2026-04-19T08:45:12Z</time></trkpt><trkpt lat="37.745936089204" lon="15.206144130560164"><ele>9.0</ele><time>2026-04-19T08:45:13Z</time></trkpt><trkpt lat="37.74602735526799" lon="15.206193152847954"><ele>9.0</ele><time>2026-04-19T08:45:14Z</time></trkpt><trkpt lat="37.74610978878403" lon="15.206239530877044"><ele>9.0</ele><time>2026-04-19T08:45:15Z</time></trkpt><trkpt lat="37.74619358780998" lon="15.206277761417251"><ele>9.0</ele><time>2026-04-19T08:45:16Z</time></trkpt><trkpt lat="37.746276412330296" lon="15.206308312377805"><ele>8.833333333333334</ele><time>2026-04-19T08:45:17Z</time></trkpt><trkpt lat="37.74635399299195" lon="15.206342732357806"><ele>8.666666666666666</ele><time>2026-04-19T08:45:18Z</time></trkpt><trkpt lat="37.746424528296394" lon="15.206383688773746"><ele>8.5</ele><time>2026-04-19T08:45:19Z</time></trkpt><trkpt lat="37.74649534459934" lon="15.206418160985876"><ele>8.333333333333332</ele><time>2026-04-19T08:45:20Z</time></trkpt><trkpt lat="37.74656885519557" lon="15.206454916917215"><ele>8.166666666666666</ele><time>2026-04-19T08:45:21Z</time></trkpt><trkpt lat="37.746653410254304" lon="15.206489083506973"><ele>8.0</ele><time>2026-04-19T08:45:22Z</time></trkpt><trkpt lat="37.74675915317835" lon="15.206534947596449"><ele>8.25</ele><time>2026-04-19T08:45:23Z</time></trkpt><trkpt lat="37.74687519181161" lon="15.206592207878977"><ele>8.5</ele><time>2026-04-19T08:45:24Z</time></trkpt><trkpt lat="37.74699687819945" lon="15.206666374469831"><ele>8.75</ele><time>2026-04-19T08:45:25Z</time></trkpt><trkpt lat="37.74712554781329" lon="15.20673846260777"><ele>9.0</ele><time>2026-04-19T08:45:26Z</time></trkpt><trkpt lat="37.747263526389354" lon="15.206801571307054"><ele>9.0</ele><time>2026-04-19T08:45:27Z</time></trkpt><trkpt lat="37.74738464335312" lon="15.206865829024558"><ele>9.0</ele><time>2026-04-19T08:45:28Z</time></trkpt><trkpt lat="37.74750215406984" lon="15.206927379440808"><ele>9.0</ele><time>2026-04-19T08:45:29Z</time></trkpt><trkpt lat="37.74762025989326" lon="15.206993410206751"><ele>9.0</ele><time>2026-04-19T08:45:30Z</time></trkpt><trkpt lat="37.74774268633283" lon="15.207054985823124"><ele>8.5</ele><time>2026-04-19T08:45:31Z</time></trkpt><trkpt lat="37.74785735314132" lon="15.207110549296818"><ele>8.0</ele><time>2026-04-19T08:45:32Z</time></trkpt><trkpt lat="37.74797224392369" lon="15.207171092774113"><ele>7.5</ele><time>2026-04-19T08:45:33Z</time></trkpt><trkpt lat="37.7480875235759" lon="15.207236541884976"><ele>7.0</ele><time>2026-04-19T08:45:34Z</time></trkpt><trkpt lat="37.74820233284223" lon="15.207301123687921"><ele>7.25</ele><time>2026-04-19T08:45:35Z</time></trkpt><trkpt lat="37.74831584340048" lon="15.207363138710997"><ele>7.5</ele><time>2026-04-19T08:45:36Z</time></trkpt><trkpt lat="37.748431138736365" lon="15.20741852448291"><ele>7.75</ele><time>2026-04-19T08:45:37Z</time></trkpt><trkpt lat="37.74854735791553" lon="15.20747491912833"><ele>8.0</ele><time>2026-04-19T08:45:38Z</time></trkpt><trkpt lat="37.74866580879896" lon="15.207529190202429"><ele>8.5</ele><time>2026-04-19T08:45:39Z</time></trkpt><trkpt lat="37.74879330922115" lon="15.207590538175378"><ele>9.0</ele><time>2026-04-19T08:45:40Z</time></trkpt><trkpt lat="37.74892790577204" lon="15.207653010302302"><ele>9.5</ele><time>2026-04-19T08:45:41Z</time></trkpt><trkpt lat="37.749068199218925" lon="15.20772127626257"><ele>10.0</ele><time>2026-04-19T08:45:42Z</time></trkpt><trkpt lat="37.7492143139144" lon="15.207795105276855"><ele>10.0</ele><time>2026-04-19T08:45:43Z</time></trkpt><trkpt lat="37.74936153520727" lon="15.207872418060672"><ele>10.0</ele><time>2026-04-19T08:45:44Z</time></trkpt><trkpt lat="37.74950934116468" lon="15.207946456667973"><ele>10.0</ele><time>2026-04-19T08:45:45Z</time></trkpt><trkpt lat="37.7496470054182" lon="15.208015008036183"><ele>10.0</ele><time>2026-04-19T08:45:46Z</time></trkpt><trkpt lat="37.749772913593596" lon="15.208084922669807"><ele>10.0</ele><time>2026-04-19T08:45:47Z</time></trkpt><trkpt lat="37.749890303365994" lon="15.208151888576758"><ele>10.0</ele><time>2026-04-19T08:45:48Z</time></trkpt><trkpt lat="37.75000137264153" lon="15.208215427239555"><ele>10.0</ele><time>2026-04-19T08:45:49Z</time></trkpt><trkpt lat="37.750101969117715" lon="15.20827266259579"><ele>10.0</ele><time>2026-04-19T08:45:50Z</time></trkpt><trkpt lat="37.75019987129863" lon="15.208323171202267"><ele>10.0</ele><time>2026-04-19T08:45:51Z</time></trkpt><trkpt lat="37.75030044932927" lon="15.20836931326166"><ele>10.0</ele><time>2026-04-19T08:45:52Z</time></trkpt><trkpt lat="37.750407140451706" lon="15.208413720333164"><ele>10.0</ele><time>2026-04-19T08:45:53Z</time></trkpt><trkpt lat="37.7505123114426" lon="15.20845595357761"><ele>10.0</ele><time>2026-04-19T08:45:54Z</time></trkpt><trkpt lat="37.75061355073349" lon="15.208497215673518"><ele>9.8</ele><time>2026-04-19T08:45:55Z</time></trkpt><trkpt lat="37.750709008304355" lon="15.208531411587627"><ele>9.6</ele><time>2026-04-19T08:45:56Z</time></trkpt><trkpt lat="37.75079896078898" lon="15.208575170818753"><ele>9.4</ele><time>2026-04-19T08:45:57Z</time></trkpt><trkpt lat="37.750883575348276" lon="15.208609551792764"><ele>9.2</ele><time>2026-04-19T08:45:58Z</time></trkpt><trkpt lat="37.750967252725786" lon="15.208639248825087"><ele>9.0</ele><time>2026-04-19T08:45:59Z</time></trkpt><trkpt lat="37.75104701377709" lon="15.208668483403535"><ele>8.6</ele><time>2026-04-19T08:46:00Z</time></trkpt><trkpt lat="37.75112240263313" lon="15.208700358368704"><ele>8.2</ele><time>2026-04-19T08:46:01Z</time></trkpt><trkpt lat="37.75120393731805" lon="15.20873411915635"><ele>7.799999999999999</ele><time>2026-04-19T08:46:02Z</time></trkpt><trkpt lat="37.75129562797529" lon="15.208761677982228"><ele>7.3999999999999995</ele><time>2026-04-19T08:46:03Z</time></trkpt><trkpt lat="37.75139744233876" lon="15.208800827007318"><ele>7.0</ele><time>2026-04-19T08:46:04Z</time></trkpt><trkpt lat="37.75150059008758" lon="15.208864608746568"><ele>7.0</ele><time>2026-04-19T08:46:05Z</time></trkpt><trkpt lat="37.75160801373706" lon="15.208923659921325"><ele>7.0</ele><time>2026-04-19T08:46:06Z</time></trkpt><trkpt lat="37.75172880627603" lon="15.20897225874299"><ele>7.0</ele><time>2026-04-19T08:46:07Z</time></trkpt><trkpt lat="37.75184543096327" lon="15.20902072143786"><ele>7.0</ele><time>2026-04-19T08:46:08Z</time></trkpt><trkpt lat="37.75195329042893" lon="15.209059764555512"><ele>7.6</ele><time>2026-04-19T08:46:09Z</time></trkpt><trkpt lat="37.75205492876265" lon="15.209101147287724"><ele>8.2</ele><time>2026-04-19T08:46:10Z</time></trkpt><trkpt lat="37.752144634600626" lon="15.209146887622325"><ele>8.8</ele><time>2026-04-19T08:46:11Z</time></trkpt><trkpt lat="37.7522259736013" lon="15.20918483447709"><ele>9.4</ele><time>2026-04-19T08:46:12Z</time></trkpt><trkpt lat="37.75230952777069" lon="15.209229825287315"><ele>10.0</ele><time>2026-04-19T08:46:13Z</time></trkpt><trkpt lat="37.75239324067734" lon="15.209267808607553"><ele>10.0</ele><time>2026-04-19T08:46:14Z</time></trkpt><trkpt lat="37.752476984336155" lon="15.209303733252876"><ele>10.0</ele><time>2026-04-19T08:46:15Z</time></trkpt><trkpt lat="37.75255643536382" lon="15.209346001515625"><ele>10.0</ele><time>2026-04-19T08:46:16Z</time></trkpt><trkpt lat="37.75262947746809" lon="15.20939254658649"><ele>10.0</ele><time>2026-04-19T08:46:17Z</time></trkpt><trkpt lat="37.752705142307924" lon="15.209435587871562"><ele>10.0</ele><time>2026-04-19T08:46:18Z</time></trkpt><trkpt lat="37.752783999775914" lon="15.20948865308334"><ele>10.0</ele><time>2026-04-19T08:46:19Z</time></trkpt><trkpt lat="37.7528684544686" lon="15.209536516239426"><ele>10.0</ele><time>2026-04-19T08:46:20Z</time></trkpt><trkpt lat="37.75295457693444" lon="15.209593714746196"><ele>10.0</ele><time>2026-04-19T08:46:21Z</time></trkpt><trkpt lat="37.75303723375803" lon="15.209664521943926"><ele>10.0</ele><time>2026-04-19T08:46:22Z</time></trkpt><trkpt lat="37.75313173341478" lon="15.20973580101461"><ele>10.0</ele><time>2026-04-19T08:46:23Z</time></trkpt><trkpt lat="37.75322962122401" lon="15.209817375877751"><ele>10.0</ele><time>2026-04-19T08:46:24Z</time></trkpt><trkpt lat="37.75333578795148" lon="15.209905481707171"><ele>10.0</ele><time>2026-04-19T08:46:25Z</time></trkpt><trkpt lat="37.753444353241264" lon="15.20998567749887"><ele>10.0</ele><time>2026-04-19T08:46:26Z</time></trkpt><trkpt lat="37.75354884956268" lon="15.210061125076544"><ele>10.0</ele><time>2026-04-19T08:46:27Z</time></trkpt><trkpt lat="37.753647104228186" lon="15.210130855214711"><ele>10.0</ele><time>2026-04-19T08:46:28Z</time></trkpt><trkpt lat="37.75372980196163" lon="15.21019362448343"><ele>10.0</ele><time>2026-04-19T08:46:29Z</time></trkpt><trkpt lat="37.7537972000975" lon="15.210250161716182"><ele>10.0</ele><time>2026-04-19T08:46:30Z</time></trkpt><trkpt lat="37.753866957518284" lon="15.210298793598406"><ele>10.0</ele><time>2026-04-19T08:46:31Z</time></trkpt><trkpt lat="37.75394807898105" lon="15.210354653951375"><ele>10.0</ele><time>2026-04-19T08:46:32Z</time></trkpt><trkpt lat="37.75404127257387" lon="15.210417485232572"><ele>10.0</ele><time>2026-04-19T08:46:33Z</time></trkpt><trkpt lat="37.75414478366786" lon="15.210493253321404"><ele>10.0</ele><time>2026-04-19T08:46:34Z</time></trkpt><trkpt lat="37.754249626629324" lon="15.210577762498726"><ele>10.0</ele><time>2026-04-19T08:46:35Z</time></trkpt><trkpt lat="37.75436079413862" lon="15.21067004246054"><ele>10.0</ele><time>2026-04-19T08:46:36Z</time></trkpt><trkpt lat="37.75448110699063" lon="15.210765328950918"><ele>10.0</ele><time>2026-04-19T08:46:37Z</time></trkpt><trkpt lat="37.754606118053786" lon="15.210863803745415"><ele>10.0</ele><time>2026-04-19T08:46:38Z</time></trkpt><trkpt lat="37.754734721165455" lon="15.210965140636464"><ele>10.0</ele><time>2026-04-19T08:46:39Z</time></trkpt><trkpt lat="37.75486069383819" lon="15.211058640664987"><ele>10.0</ele><time>2026-04-19T08:46:40Z</time></trkpt><trkpt lat="37.754977766316294" lon="15.211150453843302"><ele>10.0</ele><time>2026-04-19T08:46:41Z</time></trkpt><trkpt lat="37.75509759699835" lon="15.211240357504689"><ele>9.25</ele><time>2026-04-19T08:46:42Z</time></trkpt><trkpt lat="37.75522074856622" lon="15.211332842256697"><ele>8.5</ele><time>2026-04-19T08:46:43Z</time></trkpt><trkpt lat="37.755340008209984" lon="15.211418469706794"><ele>7.75</ele><time>2026-04-19T08:46:44Z</time></trkpt><trkpt lat="37.755454313994804" lon="15.21150000449103"><ele>7.0</ele><time>2026-04-19T08:46:45Z</time></trkpt><trkpt lat="37.755563216031284" lon="15.211579397691818"><ele>7.0</ele><time>2026-04-19T08:46:46Z</time></trkpt><trkpt lat="37.755667417564226" lon="15.211663921503344"><ele>7.0</ele><time>2026-04-19T08:46:47Z</time></trkpt><trkpt lat="37.75577255645505" lon="15.211747324556494"><ele>7.0</ele><time>2026-04-19T08:46:48Z</time></trkpt><trkpt lat="37.75588190963551" lon="15.21183103955022"><ele>7.0</ele><time>2026-04-19T08:46:49Z</time></trkpt><trkpt lat="37.75599440524452" lon="15.211914583498121"><ele>7.0</ele><time>2026-04-19T08:46:50Z</time></trkpt><trkpt lat="37.75610452625662" lon="15.211997551679714"><ele>7.0</ele><time>2026-04-19T08:46:51Z</time></trkpt><trkpt lat="37.75620882178702" lon="15.212080887896043"><ele>7.0</ele><time>2026-04-19T08:46:52Z</time></trkpt><trkpt lat="37.75631198626768" lon="15.212161075635054"><ele>7.0</ele><time>2026-04-19T08:46:53Z</time></trkpt><trkpt lat="37.75641323879792" lon="15.212236564984272"><ele>7.0</ele><time>2026-04-19T08:46:54Z</time></trkpt><trkpt lat="37.756512209418325" lon="15.212314729444454"><ele>6.999999999999999</ele><time>2026-04-19T08:46:55Z</time></trkpt><trkpt lat="37.75660982567001" lon="15.212383794372698"><ele>6.999999999999999</ele><time>2026-04-19T08:46:56Z</time></trkpt><trkpt lat="37.75670444858945" lon="15.21245086234251"><ele>7.0</ele><time>2026-04-19T08:46:57Z</time></trkpt><trkpt lat="37.756795614876786" lon="15.212518402260644"><ele>7.0</ele><time>2026-04-19T08:46:58Z</time></trkpt><trkpt lat="37.756885188756456" lon="15.212588004978388"><ele>7.199999999999999</ele><time>2026-04-19T08:46:59Z</time></trkpt><trkpt lat="37.75697865056064" lon="15.212652375246142"><ele>7.3999999999999995</ele><time>2026-04-19T08:47:00Z</time></trkpt><trkpt lat="37.75707060408343" lon="15.212724401016157"><ele>7.6000000000000005</ele><time>2026-04-19T08:47:01Z</time></trkpt><trkpt lat="37.75716661376447" lon="15.212797207306133"><ele>7.800000000000001</ele><time>2026-04-19T08:47:02Z</time></trkpt><trkpt lat="37.757255970440156" lon="15.212868920255953"><ele>8.0</ele><time>2026-04-19T08:47:03Z</time></trkpt><trkpt lat="37.7573429085711" lon="15.212937272153313"><ele>7.999999999999999</ele><time>2026-04-19T08:47:04Z</time></trkpt><trkpt lat="37.75742730201779" lon="15.213000795270132"><ele>8.0</ele><time>2026-04-19T08:47:05Z</time></trkpt><trkpt lat="37.757503377334416" lon="15.213058316432763"><ele>8.0</ele><time>2026-04-19T08:47:06Z</time></trkpt><trkpt lat="37.75756742732256" lon="15.213112108385646"><ele>8.0</ele><time>2026-04-19T08:47:07Z</time></trkpt><trkpt lat="37.757620092711406" lon="15.213157853912701"><ele>7.999999999999999</ele><time>2026-04-19T08:47:08Z</time></trkpt><trkpt lat="37.75767325849943" lon="15.213200889640211"><ele>8.0</ele><time>2026-04-19T08:47:09Z</time></trkpt><trkpt lat="37.75777344474609" lon="15.213277936500003"><ele>8.333333333333332</ele><time>2026-04-19T08:47:11Z</time></trkpt><trkpt lat="37.757867086843554" lon="15.21334602463153"><ele>8.666666666666666</ele><time>2026-04-19T08:47:13Z</time></trkpt><trkpt lat="37.757936537896434" lon="15.213394487026946"><ele>9.0</ele><time>2026-04-19T08:47:15Z</time></trkpt><trkpt lat="37.757995226484375" lon="15.213437680394678"><ele>9.333333333333334</ele><time>2026-04-19T08:47:20Z</time></trkpt><trkpt lat="37.758054708277214" lon="15.213500183963085"><ele>9.666666666666668</ele><time>2026-04-19T08:47:27Z</time></trkpt><trkpt lat="37.758113018275004" lon="15.213571471847862"><ele>10.0</ele><time>2026-04-19T08:47:29Z</time></trkpt><trkpt lat="37.75817522613474" lon="15.21359704601689"><ele>10.0</ele><time>2026-04-19T08:47:32Z</time></trkpt><trkpt lat="37.7582531975574" lon="15.213610249692529"><ele>10.0</ele><time>2026-04-19T08:47:36Z</time></trkpt><trkpt lat="37.75831865738338" lon="15.213681542848072"><ele>10.0</ele><time>2026-04-19T08:47:38Z</time></trkpt><trkpt lat="37.75836554774639" lon="15.21373979376738"><ele>10.0</ele><time>2026-04-19T08:47:40Z</time></trkpt><trkpt lat="37.758425749671" lon="15.21377718281597"><ele>10.0</ele><time>2026-04-19T08:47:42Z</time></trkpt><trkpt lat="37.75850703058036" lon="15.213839322366997"><ele>10.0</ele><time>2026-04-19T08:47:45Z</time></trkpt><trkpt lat="37.758561884053385" lon="15.213887058192446"><ele>10.0</ele><time>2026-04-19T08:47:46Z</time></trkpt><trkpt lat="37.758620216508724" lon="15.213929727313209"><ele>10.0</ele><time>2026-04-19T08:47:47Z</time></trkpt><trkpt lat="37.75872050456974" lon="15.213996183176407"><ele>10.0</ele><time>2026-04-19T08:47:49Z</time></trkpt><trkpt lat="37.758785483296194" lon="15.214058969282389"><ele>10.0</ele><time>2026-04-19T08:47:51Z</time></trkpt><trkpt lat="37.75885848482947" lon="15.214104115604115"><ele>10.0</ele><time>2026-04-19T08:47:54Z</time></trkpt><trkpt lat="37.75893095738755" lon="15.214167422418335"><ele>10.0</ele><time>2026-04-19T08:47:57Z</time></trkpt><trkpt lat="37.75899875694733" lon="15.214220395162844"><ele>10.0</ele><time>2026-04-19T08:48:00Z</time></trkpt><trkpt lat="37.7590787419783" lon="15.21424561064171"><ele>10.0</ele><time>2026-04-19T08:48:08Z</time></trkpt><trkpt lat="37.75913238778227" lon="15.21429573734922"><ele>10.0</ele><time>2026-04-19T08:48:09Z</time></trkpt><trkpt lat="37.759199062601816" lon="15.214366150829896"><ele>10.0</ele><time>2026-04-19T08:48:10Z</time></trkpt><trkpt lat="37.75928228684717" lon="15.21444372341206"><ele>10.0</ele><time>2026-04-19T08:48:11Z</time></trkpt><trkpt lat="37.759373100119035" lon="15.214517109753254"><ele>10.0</ele><time>2026-04-19T08:48:12Z</time></trkpt><trkpt lat="37.759449010235684" lon="15.214578169591316"><ele>10.0</ele><time>2026-04-19T08:48:13Z</time></trkpt><trkpt lat="37.75952678198445" lon="15.214638447104926"><ele>10.0</ele><time>2026-04-19T08:48:14Z</time></trkpt><trkpt lat="37.75961035050022" lon="15.214698479262816"><ele>10.0</ele><time>2026-04-19T08:48:15Z</time></trkpt><trkpt lat="37.75969106066228" lon="15.214763499400009"><ele>10.0</ele><time>2026-04-19T08:48:16Z</time></trkpt><trkpt lat="37.75977367343146" lon="15.214823478768354"><ele>10.0</ele><time>2026-04-19T08:48:17Z</time></trkpt><trkpt lat="37.75986137557216" lon="15.214878883680866"><ele>10.166666666666668</ele><time>2026-04-19T08:48:18Z</time></trkpt><trkpt lat="37.75994175533916" lon="15.214941265158993"><ele>10.333333333333334</ele><time>2026-04-19T08:48:19Z</time></trkpt><trkpt lat="37.76001803335924" lon="15.215004296807559"><ele>10.5</ele><time>2026-04-19T08:48:20Z</time></trkpt><trkpt lat="37.76008830682286" lon="15.215059626908259"><ele>10.666666666666666</ele><time>2026-04-19T08:48:21Z</time></trkpt><trkpt lat="37.760153213802816" lon="15.215109986130184"><ele>10.833333333333332</ele><time>2026-04-19T08:48:22Z</time></trkpt><trkpt lat="37.76020724276195" lon="15.215152889462683"><ele>11.0</ele><time>2026-04-19T08:48:23Z</time></trkpt><trkpt lat="37.76030975701334" lon="15.215234142915838"><ele>10.4</ele><time>2026-04-19T08:48:25Z</time></trkpt><trkpt lat="37.76036265796805" lon="15.215285358755304"><ele>9.8</ele><time>2026-04-19T08:48:26Z</time></trkpt><trkpt lat="37.76045698135764" lon="15.215357661596673"><ele>9.200000000000001</ele><time>2026-04-19T08:48:28Z</time></trkpt><trkpt lat="37.76056252770318" lon="15.215437688163552"><ele>8.600000000000001</ele><time>2026-04-19T08:48:30Z</time></trkpt><trkpt lat="37.760629767386526" lon="15.21549607727887"><ele>8.0</ele><time>2026-04-19T08:48:31Z</time></trkpt><trkpt lat="37.76068875421719" lon="15.215544917171853"><ele>8.0</ele><time>2026-04-19T08:48:32Z</time></trkpt><trkpt lat="37.76074344066995" lon="15.215591035419411"><ele>8.0</ele><time>2026-04-19T08:48:33Z</time></trkpt><trkpt lat="37.76084755738848" lon="15.215680449904067"><ele>8.0</ele><time>2026-04-19T08:48:35Z</time></trkpt><trkpt lat="37.76093485740155" lon="15.215742829011289"><ele>8.0</ele><time>2026-04-19T08:48:37Z</time></trkpt><trkpt lat="37.76100176706734" lon="15.21578623382671"><ele>8.0</ele><time>2026-04-19T08:48:39Z</time></trkpt><trkpt lat="37.76108031915369" lon="15.215845393879833"><ele>8.200000000000001</ele><time>2026-04-19T08:48:41Z</time></trkpt><trkpt lat="37.76118334158419" lon="15.215926546424159"><ele>8.4</ele><time>2026-04-19T08:48:43Z</time></trkpt><trkpt lat="37.76125175692886" lon="15.215979538714599"><ele>8.600000000000001</ele><time>2026-04-19T08:48:44Z</time></trkpt><trkpt lat="37.76133711759769" lon="15.216033803258693"><ele>8.8</ele><time>2026-04-19T08:48:45Z</time></trkpt><trkpt lat="37.76145158941371" lon="15.21612235019268"><ele>9.0</ele><time>2026-04-19T08:48:46Z</time></trkpt><trkpt lat="37.76156748965425" lon="15.216233831459926"><ele>9.0</ele><time>2026-04-19T08:48:47Z</time></trkpt><trkpt lat="37.761665965214696" lon="15.216313722117278"><ele>9.0</ele><time>2026-04-19T08:48:48Z</time></trkpt><trkpt lat="37.76174043219353" lon="15.216381400595552"><ele>9.0</ele><time>2026-04-19T08:48:49Z</time></trkpt><trkpt lat="37.76179141910196" lon="15.216438141825726"><ele>9.0</ele><time>2026-04-19T08:48:50Z</time></trkpt><trkpt lat="37.7618428007363" lon="15.216487652736975"><ele>9.0</ele><time>2026-04-19T08:48:51Z</time></trkpt><trkpt lat="37.7618955455359" lon="15.21653514084295"><ele>9.0</ele><time>2026-04-19T08:48:52Z</time></trkpt><trkpt lat="37.761952643635176" lon="15.216585042778524"><ele>9.000000000000002</ele><time>2026-04-19T08:48:53Z</time></trkpt><trkpt lat="37.76201115151799" lon="15.216634492275467"><ele>9.0</ele><time>2026-04-19T08:48:54Z</time></trkpt><trkpt lat="37.7620685972054" lon="15.216693701967358"><ele>9.0</ele><time>2026-04-19T08:48:55Z</time></trkpt><trkpt lat="37.76213233409009" lon="15.216755849758295"><ele>9.0</ele><time>2026-04-19T08:48:56Z</time></trkpt><trkpt lat="37.76219887862139" lon="15.216814322834868"><ele>9.0</ele><time>2026-04-19T08:48:57Z</time></trkpt><trkpt lat="37.762259012204055" lon="15.216871682334709"><ele>9.000000000000002</ele><time>2026-04-19T08:48:58Z</time></trkpt><trkpt lat="37.76231181250363" lon="15.216922743899318"><ele>9.0</ele><time>2026-04-19T08:48:59Z</time></trkpt><trkpt lat="37.76240375652728" lon="15.217014725631786"><ele>9.0</ele><time>2026-04-19T08:49:01Z</time></trkpt><trkpt lat="37.76250187085656" lon="15.21710271480683"><ele>9.0</ele><time>2026-04-19T08:49:03Z</time></trkpt><trkpt lat="37.762558565014714" lon="15.217148636885012"><ele>9.0</ele><time>2026-04-19T08:49:04Z</time></trkpt><trkpt lat="37.762612690332205" lon="15.21722109423188"><ele>9.0</ele><time>2026-04-19T08:49:05Z</time></trkpt><trkpt lat="37.762680039345064" lon="15.217285512488552"><ele>9.0</ele><time>2026-04-19T08:49:06Z</time></trkpt><trkpt lat="37.762752583969785" lon="15.217354900305102"><ele>9.0</ele><time>2026-04-19T08:49:07Z</time></trkpt><trkpt lat="37.7628264481172" lon="15.217425550301197"><ele>9.166666666666666</ele><time>2026-04-19T08:49:08Z</time></trkpt><trkpt lat="37.76289984437494" lon="15.217495752718902"><ele>9.333333333333334</ele><time>2026-04-19T08:49:09Z</time></trkpt><trkpt lat="37.76296976402091" lon="15.217562770051785"><ele>9.5</ele><time>2026-04-19T08:49:10Z</time></trkpt><trkpt lat="37.76303845325083" lon="15.217628635625452"><ele>9.666666666666668</ele><time>2026-04-19T08:49:11Z</time></trkpt><trkpt lat="37.76309959598528" lon="15.217687264929944"><ele>9.833333333333334</ele><time>2026-04-19T08:49:12Z</time></trkpt><trkpt lat="37.76315413578827" lon="15.217739562027432"><ele>10.0</ele><time>2026-04-19T08:49:13Z</time></trkpt><trkpt lat="37.7632327105077" lon="15.217814904478683"><ele>10.0</ele><time>2026-04-19T08:49:15Z</time></trkpt><trkpt lat="37.76332620868011" lon="15.21787347370546"><ele>10.0</ele><time>2026-04-19T08:49:17Z</time></trkpt><trkpt lat="37.76338185253147" lon="15.217920632097822"><ele>10.0</ele><time>2026-04-19T08:49:18Z</time></trkpt><trkpt lat="37.76344723815743" lon="15.21796602956503"><ele>10.0</ele><time>2026-04-19T08:49:19Z</time></trkpt><trkpt lat="37.76351627640005" lon="15.21802275828823"><ele>10.0</ele><time>2026-04-19T08:49:20Z</time></trkpt><trkpt lat="37.76359050102408" lon="15.218106595569454"><ele>10.0</ele><time>2026-04-19T08:49:21Z</time></trkpt><trkpt lat="37.76368814422452" lon="15.218186096266303"><ele>10.2</ele><time>2026-04-19T08:49:22Z</time></trkpt><trkpt lat="37.76380418521388" lon="15.218256475946648"><ele>10.4</ele><time>2026-04-19T08:49:23Z</time></trkpt><trkpt lat="37.76388860043037" lon="15.218326808402134"><ele>10.600000000000001</ele><time>2026-04-19T08:49:24Z</time></trkpt><trkpt lat="37.76395013961922" lon="15.218406910196872"><ele>10.8</ele><time>2026-04-19T08:49:25Z</time></trkpt><trkpt lat="37.76401234462029" lon="15.21846639777947"><ele>11.0</ele><time>2026-04-19T08:49:26Z</time></trkpt><trkpt lat="37.76409512469276" lon="15.218500980405846"><ele>11.0</ele><time>2026-04-19T08:49:27Z</time></trkpt><trkpt lat="37.764158984500085" lon="15.218554560938061"><ele>11.0</ele><time>2026-04-19T08:49:28Z</time></trkpt><trkpt lat="37.76421167411148" lon="15.218616507124867"><ele>11.0</ele><time>2026-04-19T08:49:29Z</time></trkpt><trkpt lat="37.76427083554727" lon="15.21865768360037"><ele>11.0</ele><time>2026-04-19T08:49:30Z</time></trkpt><trkpt lat="37.76433341036039" lon="15.218707409541805"><ele>11.0</ele><time>2026-04-19T08:49:31Z</time></trkpt><trkpt lat="37.764405010285465" lon="15.218761522719786"><ele>11.0</ele><time>2026-04-19T08:49:32Z</time></trkpt><trkpt lat="37.76447082515749" lon="15.218841288075918"><ele>10.8</ele><time>2026-04-19T08:49:33Z</time></trkpt><trkpt lat="37.764552252250986" lon="15.218910925083435"><ele>10.600000000000001</ele><time>2026-04-19T08:49:34Z</time></trkpt><trkpt lat="37.764635324703754" lon="15.218981969231821"><ele>10.4</ele><time>2026-04-19T08:49:35Z</time></trkpt><trkpt lat="37.76472909652661" lon="15.219062166201457"><ele>10.2</ele><time>2026-04-19T08:49:36Z</time></trkpt><trkpt lat="37.76483907962832" lon="15.219153253408013"><ele>10.0</ele><time>2026-04-19T08:49:37Z</time></trkpt><trkpt lat="37.76494371915184" lon="15.219240722393701"><ele>9.75</ele><time>2026-04-19T08:49:38Z</time></trkpt><trkpt lat="37.76503840706521" lon="15.219319872728537"><ele>9.5</ele><time>2026-04-19T08:49:39Z</time></trkpt><trkpt lat="37.76514169141784" lon="15.219406227369438"><ele>9.25</ele><time>2026-04-19T08:49:40Z</time></trkpt><trkpt lat="37.76525220255333" lon="15.219498308782187"><ele>9.0</ele><time>2026-04-19T08:49:41Z</time></trkpt><trkpt lat="37.76536741937053" lon="15.219593989723364"><ele>9.0</ele><time>2026-04-19T08:49:42Z</time></trkpt><trkpt lat="37.76548539490973" lon="15.219693653386205"><ele>9.0</ele><time>2026-04-19T08:49:43Z</time></trkpt><trkpt lat="37.765587148440474" lon="15.219779766340043"><ele>9.0</ele><time>2026-04-19T08:49:44Z</time></trkpt><trkpt lat="37.765677453810106" lon="15.219856190930662"><ele>9.0</ele><time>2026-04-19T08:49:45Z</time></trkpt><trkpt lat="37.76578536349052" lon="15.219924993781323"><ele>9.0</ele><time>2026-04-19T08:49:46Z</time></trkpt><trkpt lat="37.76588922651581" lon="15.220010479658074"><ele>9.0</ele><time>2026-04-19T08:49:47Z</time></trkpt><trkpt lat="37.76598795860765" lon="15.220118968026142"><ele>9.0</ele><time>2026-04-19T08:49:48Z</time></trkpt><trkpt lat="37.76610438375161" lon="15.220217564481056"><ele>9.0</ele><time>2026-04-19T08:49:49Z</time></trkpt><trkpt lat="37.766234529893566" lon="15.220313198624913"><ele>8.333333333333334</ele><time>2026-04-19T08:49:50Z</time></trkpt><trkpt lat="37.7663636198139" lon="15.220423451812866"><ele>7.666666666666667</ele><time>2026-04-19T08:49:51Z</time></trkpt><trkpt lat="37.766497180546914" lon="15.220533826080331"><ele>7.0</ele><time>2026-04-19T08:49:52Z</time></trkpt><trkpt lat="37.766614485523085" lon="15.220637590119079"><ele>7.0</ele><time>2026-04-19T08:49:53Z</time></trkpt><trkpt lat="37.76671487823101" lon="15.220727818252936"><ele>6.999999999999999</ele><time>2026-04-19T08:49:54Z</time></trkpt><trkpt lat="37.76680465420721" lon="15.220808977752245"><ele>6.999999999999999</ele><time>2026-04-19T08:49:55Z</time></trkpt><trkpt lat="37.76688188788515" lon="15.22087687922077"><ele>7.0</ele><time>2026-04-19T08:49:56Z</time></trkpt><trkpt lat="37.76696210101731" lon="15.220930195698946"><ele>7.0</ele><time>2026-04-19T08:49:57Z</time></trkpt><trkpt lat="37.767036949795724" lon="15.221011703446178"><ele>7.0</ele><time>2026-04-19T08:49:58Z</time></trkpt><trkpt lat="37.76713284742096" lon="15.221093605160284"><ele>7.0</ele><time>2026-04-19T08:49:59Z</time></trkpt><trkpt lat="37.7672514052404" lon="15.221194852618659"><ele>7.0</ele><time>2026-04-19T08:50:00Z</time></trkpt><trkpt lat="37.76739146053962" lon="15.22128956710944"><ele>7.0</ele><time>2026-04-19T08:50:01Z</time></trkpt><trkpt lat="37.76753282081228" lon="15.221420750540016"><ele>6.333333333333334</ele><time>2026-04-19T08:50:02Z</time></trkpt><trkpt lat="37.76770221022571" lon="15.221579836721045"><ele>5.666666666666667</ele><time>2026-04-19T08:50:03Z</time></trkpt><trkpt lat="37.76788323134209" lon="15.221734427277582"><ele>5.0</ele><time>2026-04-19T08:50:04Z</time></trkpt><trkpt lat="37.76804468942013" lon="15.22187060318743"><ele>5.0</ele><time>2026-04-19T08:50:05Z</time></trkpt><trkpt lat="37.76819781541022" lon="15.221998892050236"><ele>5.0</ele><time>2026-04-19T08:50:06Z</time></trkpt><trkpt lat="37.76834169346947" lon="15.222119433077387"><ele>5.0</ele><time>2026-04-19T08:50:07Z</time></trkpt><trkpt lat="37.76849014780694" lon="15.222220377897814"><ele>5.75</ele><time>2026-04-19T08:50:08Z</time></trkpt><trkpt lat="37.768610581843944" lon="15.222345679852724"><ele>6.5</ele><time>2026-04-19T08:50:09Z</time></trkpt><trkpt lat="37.768728651531376" lon="15.22244525429747"><ele>7.25</ele><time>2026-04-19T08:50:10Z</time></trkpt><trkpt lat="37.76884748147247" lon="15.222546000327132"><ele>8.0</ele><time>2026-04-19T08:50:11Z</time></trkpt><trkpt lat="37.76896970170867" lon="15.222650387375392"><ele>8.0</ele><time>2026-04-19T08:50:12Z</time></trkpt><trkpt lat="37.76909655526824" lon="15.222758731734693"><ele>8.0</ele><time>2026-04-19T08:50:13Z</time></trkpt><trkpt lat="37.76922887696822" lon="15.22287174646122"><ele>8.0</ele><time>2026-04-19T08:50:14Z</time></trkpt><trkpt lat="37.769376351612" lon="15.22299502236072"><ele>7.666666666666666</ele><time>2026-04-19T08:50:15Z</time></trkpt><trkpt lat="37.76953893974633" lon="15.223130092817012"><ele>7.333333333333334</ele><time>2026-04-19T08:50:16Z</time></trkpt><trkpt lat="37.769694184169175" lon="15.223259062623775"><ele>7.0</ele><time>2026-04-19T08:50:17Z</time></trkpt><trkpt lat="37.769840085041636" lon="15.223380649664424"><ele>7.0</ele><time>2026-04-19T08:50:18Z</time></trkpt><trkpt lat="37.76997900376988" lon="15.223500786943891"><ele>7.0</ele><time>2026-04-19T08:50:19Z</time></trkpt><trkpt lat="37.77011579066825" lon="15.223625515358613"><ele>7.0</ele><time>2026-04-19T08:50:20Z</time></trkpt><trkpt lat="37.770255904987685" lon="15.22375859758031"><ele>7.333333333333334</ele><time>2026-04-19T08:50:21Z</time></trkpt><trkpt lat="37.77039872775321" lon="15.223898619311814"><ele>7.666666666666666</ele><time>2026-04-19T08:50:22Z</time></trkpt><trkpt lat="37.77053703766148" lon="15.224043058296388"><ele>8.0</ele><time>2026-04-19T08:50:23Z</time></trkpt><trkpt lat="37.77068142948769" lon="15.224187995392452"><ele>8.666666666666666</ele><time>2026-04-19T08:50:24Z</time></trkpt><trkpt lat="37.77082623705225" lon="15.22433240536845"><ele>9.333333333333334</ele><time>2026-04-19T08:50:25Z</time></trkpt><trkpt lat="37.77097657245154" lon="15.224477790525754"><ele>10.0</ele><time>2026-04-19T08:50:26Z</time></trkpt><trkpt lat="37.77113447251064" lon="15.224612664524802"><ele>10.0</ele><time>2026-04-19T08:50:27Z</time></trkpt><trkpt lat="37.77129733376475" lon="15.224742586545124"><ele>10.0</ele><time>2026-04-19T08:50:28Z</time></trkpt><trkpt lat="37.771458063153126" lon="15.224870266479352"><ele>10.0</ele><time>2026-04-19T08:50:29Z</time></trkpt><trkpt lat="37.771617284306174" lon="15.224996748359038"><ele>10.333333333333334</ele><time>2026-04-19T08:50:30Z</time></trkpt><trkpt lat="37.77178196525902" lon="15.225103433472576"><ele>10.666666666666666</ele><time>2026-04-19T08:50:31Z</time></trkpt><trkpt lat="37.77191714349529" lon="15.225233621851148"><ele>11.0</ele><time>2026-04-19T08:50:32Z</time></trkpt><trkpt lat="37.7720514241076" lon="15.225339542075531"><ele>10.333333333333332</ele><time>2026-04-19T08:50:33Z</time></trkpt><trkpt lat="37.77219499780738" lon="15.225452792765822"><ele>9.666666666666666</ele><time>2026-04-19T08:50:34Z</time></trkpt><trkpt lat="37.7723414362713" lon="15.225568303135242"><ele>9.0</ele><time>2026-04-19T08:50:35Z</time></trkpt><trkpt lat="37.77249154884282" lon="15.225686711597938"><ele>9.0</ele><time>2026-04-19T08:50:36Z</time></trkpt><trkpt lat="37.77264375737653" lon="15.225806773364825"><ele>9.0</ele><time>2026-04-19T08:50:37Z</time></trkpt><trkpt lat="37.77280641025748" lon="15.225910554397768"><ele>9.0</ele><time>2026-04-19T08:50:38Z</time></trkpt><trkpt lat="37.77296176624917" lon="15.226033704875125"><ele>9.0</ele><time>2026-04-19T08:50:39Z</time></trkpt><trkpt lat="37.773109937939225" lon="15.226175595276496"><ele>9.0</ele><time>2026-04-19T08:50:40Z</time></trkpt><trkpt lat="37.773275091800976" lon="15.226280157759273"><ele>9.0</ele><time>2026-04-19T08:50:41Z</time></trkpt><trkpt lat="37.77342029249397" lon="15.226416884483053"><ele>9.333333333333334</ele><time>2026-04-19T08:50:42Z</time></trkpt><trkpt lat="37.77357314367191" lon="15.226533082616262"><ele>9.666666666666668</ele><time>2026-04-19T08:50:43Z</time></trkpt><trkpt lat="37.773733725821664" lon="15.22662810569399"><ele>10.0</ele><time>2026-04-19T08:50:44Z</time></trkpt><trkpt lat="37.77388592784683" lon="15.226737430454014"><ele>10.0</ele><time>2026-04-19T08:50:45Z</time></trkpt><trkpt lat="37.7740383313316" lon="15.22684003732835"><ele>10.0</ele><time>2026-04-19T08:50:46Z</time></trkpt><trkpt lat="37.77419037289839" lon="15.226942359808506"><ele>10.0</ele><time>2026-04-19T08:50:47Z</time></trkpt><trkpt lat="37.77432949822402" lon="15.227069984935484"><ele>9.0</ele><time>2026-04-19T08:50:48Z</time></trkpt><trkpt lat="37.774484881396425" lon="15.22715888968491"><ele>8.0</ele><time>2026-04-19T08:50:49Z</time></trkpt><trkpt lat="37.774633099223884" lon="15.22726431660885"><ele>7.0</ele><time>2026-04-19T08:50:50Z</time></trkpt><trkpt lat="37.77478045948297" lon="15.227368009006616"><ele>6.333333333333334</ele><time>2026-04-19T08:50:51Z</time></trkpt><trkpt lat="37.774926959094934" lon="15.227470579774282"><ele>5.666666666666667</ele><time>2026-04-19T08:50:52Z</time></trkpt><trkpt lat="37.77507234780241" lon="15.227574375066995"><ele>5.0</ele><time>2026-04-19T08:50:53Z</time></trkpt><trkpt lat="37.77522201993964" lon="15.227679558548648"><ele>6.333333333333334</ele><time>2026-04-19T08:50:54Z</time></trkpt><trkpt lat="37.77537705329846" lon="15.227786682193846"><ele>7.666666666666667</ele><time>2026-04-19T08:50:55Z</time></trkpt><trkpt lat="37.77553521724238" lon="15.227897162698646"><ele>9.0</ele><time>2026-04-19T08:50:56Z</time></trkpt><trkpt lat="37.775697004279664" lon="15.228010265268608"><ele>9.0</ele><time>2026-04-19T08:50:57Z</time></trkpt><trkpt lat="37.77586172768418" lon="15.228122166562642"><ele>9.0</ele><time>2026-04-19T08:50:58Z</time></trkpt><trkpt lat="37.77602972497353" lon="15.228237327445818"><ele>9.0</ele><time>2026-04-19T08:50:59Z</time></trkpt><trkpt lat="37.77619893268135" lon="15.228355056768839"><ele>8.666666666666666</ele><time>2026-04-19T08:51:00Z</time></trkpt><trkpt lat="37.77636976791742" lon="15.228476278388898"><ele>8.333333333333332</ele><time>2026-04-19T08:51:01Z</time></trkpt><trkpt lat="37.77654249823791" lon="15.228597837801018"><ele>8.0</ele><time>2026-04-19T08:51:02Z</time></trkpt><trkpt lat="37.776717713480686" lon="15.228723034906912"><ele>8.0</ele><time>2026-04-19T08:51:03Z</time></trkpt><trkpt lat="37.77689638881805" lon="15.22884801364911"><ele>8.0</ele><time>2026-04-19T08:51:04Z</time></trkpt><trkpt lat="37.77707752855761" lon="15.228972813421732"><ele>8.0</ele><time>2026-04-19T08:51:05Z</time></trkpt><trkpt lat="37.77726566470002" lon="15.22910161075277"><ele>8.0</ele><time>2026-04-19T08:51:06Z</time></trkpt><trkpt lat="37.777462412033145" lon="15.229240362879498"><ele>8.0</ele><time>2026-04-19T08:51:07Z</time></trkpt><trkpt lat="37.777659966069876" lon="15.229401551683225"><ele>10.333333333333332</ele><time>2026-04-19T08:51:08Z</time></trkpt><trkpt lat="37.777853491086745" lon="15.229535261015267"><ele>12.666666666666666</ele><time>2026-04-19T08:51:09Z</time></trkpt><trkpt lat="37.77804338855465" lon="15.229657574420067"><ele>15.0</ele><time>2026-04-19T08:51:10Z</time></trkpt><trkpt lat="37.77823180636924" lon="15.22976999013979"><ele>14.666666666666668</ele><time>2026-04-19T08:51:11Z</time></trkpt><trkpt lat="37.778411854953596" lon="15.229876224336898"><ele>14.333333333333334</ele><time>2026-04-19T08:51:12Z</time></trkpt><trkpt lat="37.77858673021992" lon="15.22998551144952"><ele>14.0</ele><time>2026-04-19T08:51:13Z</time></trkpt><trkpt lat="37.77875442900314" lon="15.23009031363402"><ele>15.333333333333334</ele><time>2026-04-19T08:51:14Z</time></trkpt><trkpt lat="37.77891719787157" lon="15.230170507277252"><ele>16.666666666666668</ele><time>2026-04-19T08:51:15Z</time></trkpt><trkpt lat="37.77906483268307" lon="15.230264770835179"><ele>18.0</ele><time>2026-04-19T08:51:16Z</time></trkpt><trkpt lat="37.77920849088671" lon="15.230355983856565"><ele>15.666666666666666</ele><time>2026-04-19T08:51:17Z</time></trkpt><trkpt lat="37.779351877963585" lon="15.230441512035792"><ele>13.333333333333332</ele><time>2026-04-19T08:51:18Z</time></trkpt><trkpt lat="37.77950000988636" lon="15.230535854813441"><ele>11.0</ele><time>2026-04-19T08:51:19Z</time></trkpt><trkpt lat="37.77964982851299" lon="15.230651916658207"><ele>10.666666666666666</ele><time>2026-04-19T08:51:20Z</time></trkpt><trkpt lat="37.7798142528659" lon="15.230755058973006"><ele>10.333333333333334</ele><time>2026-04-19T08:51:21Z</time></trkpt><trkpt lat="37.77998312547371" lon="15.230860991434987"><ele>10.0</ele><time>2026-04-19T08:51:22Z</time></trkpt><trkpt lat="37.78016023259342" lon="15.230962094416416"><ele>10.0</ele><time>2026-04-19T08:51:23Z</time></trkpt><trkpt lat="37.7803355772016" lon="15.231075384740118"><ele>10.0</ele><time>2026-04-19T08:51:24Z</time></trkpt><trkpt lat="37.78051507481621" lon="15.231178789123343"><ele>10.0</ele><time>2026-04-19T08:51:25Z</time></trkpt><trkpt lat="37.78068767680747" lon="15.231292096354476"><ele>10.0</ele><time>2026-04-19T08:51:26Z</time></trkpt><trkpt lat="37.780861251100326" lon="15.23140330080938"><ele>10.0</ele><time>2026-04-19T08:51:27Z</time></trkpt><trkpt lat="37.78103543439035" lon="15.231510130089255"><ele>10.0</ele><time>2026-04-19T08:51:28Z</time></trkpt><trkpt lat="37.78120913039327" lon="15.23161526569225"><ele>9.666666666666668</ele><time>2026-04-19T08:51:29Z</time></trkpt><trkpt lat="37.7813901794612" lon="15.231719293054121"><ele>9.333333333333334</ele><time>2026-04-19T08:51:30Z</time></trkpt><trkpt lat="37.78156491124125" lon="15.23184882521942"><ele>9.0</ele><time>2026-04-19T08:51:31Z</time></trkpt><trkpt lat="37.781751142852436" lon="15.231966260753646"><ele>9.0</ele><time>2026-04-19T08:51:32Z</time></trkpt><trkpt lat="37.78194404808103" lon="15.232087904814462"><ele>9.0</ele><time>2026-04-19T08:51:33Z</time></trkpt><trkpt lat="37.78214129874766" lon="15.232212288846542"><ele>9.0</ele><time>2026-04-19T08:51:34Z</time></trkpt><trkpt lat="37.782351032780106" lon="15.232322252381879"><ele>9.0</ele><time>2026-04-19T08:51:35Z</time></trkpt><trkpt lat="37.78254892852737" lon="15.232453253227602"><ele>9.0</ele><time>2026-04-19T08:51:36Z</time></trkpt><trkpt lat="37.78274363792776" lon="15.232578727170797"><ele>9.0</ele><time>2026-04-19T08:51:37Z</time></trkpt><trkpt lat="37.78294522898804" lon="15.232700219878824"><ele>9.0</ele><time>2026-04-19T08:51:38Z</time></trkpt><trkpt lat="37.783143633159625" lon="15.23282330438411"><ele>9.0</ele><time>2026-04-19T08:51:39Z</time></trkpt><trkpt lat="37.78333955140884" lon="15.23294629713874"><ele>9.0</ele><time>2026-04-19T08:51:40Z</time></trkpt><trkpt lat="37.7835313526391" lon="15.233069969310986"><ele>8.333333333333334</ele><time>2026-04-19T08:51:41Z</time></trkpt><trkpt lat="37.78372357817409" lon="15.233191272384882"><ele>7.666666666666667</ele><time>2026-04-19T08:51:42Z</time></trkpt><trkpt lat="37.78390499036432" lon="15.233310164248296"><ele>7.0</ele><time>2026-04-19T08:51:43Z</time></trkpt><trkpt lat="37.78408222229043" lon="15.233428117015812"><ele>7.0</ele><time>2026-04-19T08:51:44Z</time></trkpt><trkpt lat="37.78425598834308" lon="15.233543419712012"><ele>7.0</ele><time>2026-04-19T08:51:45Z</time></trkpt><trkpt lat="37.78442269222111" lon="15.233664188732728"><ele>7.0</ele><time>2026-04-19T08:51:46Z</time></trkpt><trkpt lat="37.78458088884306" lon="15.23377874298532"><ele>6.666666666666667</ele><time>2026-04-19T08:51:47Z</time></trkpt><trkpt lat="37.78472748915314" lon="15.233884186451712"><ele>6.333333333333334</ele><time>2026-04-19T08:51:48Z</time></trkpt><trkpt lat="37.78486199286388" lon="15.23398726040701"><ele>6.0</ele><time>2026-04-19T08:51:49Z</time></trkpt><trkpt lat="37.78498833991058" lon="15.234082126251783"><ele>6.199999999999999</ele><time>2026-04-19T08:51:50Z</time></trkpt><trkpt lat="37.78510016633027" lon="15.234168641582707"><ele>6.3999999999999995</ele><time>2026-04-19T08:51:51Z</time></trkpt><trkpt lat="37.78519212458128" lon="15.234245440630039"><ele>6.6</ele><time>2026-04-19T08:51:52Z</time></trkpt><trkpt lat="37.78528036590545" lon="15.234316753332019"><ele>6.8</ele><time>2026-04-19T08:51:53Z</time></trkpt><trkpt lat="37.785358502726496" lon="15.234376538789562"><ele>7.0</ele><time>2026-04-19T08:51:54Z</time></trkpt><trkpt lat="37.78544216470629" lon="15.234434004312872"><ele>7.000000000000001</ele><time>2026-04-19T08:51:55Z</time></trkpt><trkpt lat="37.785513763303705" lon="15.234490433231219"><ele>7.0</ele><time>2026-04-19T08:51:56Z</time></trkpt><trkpt lat="37.785587149710125" lon="15.234544690534241"><ele>7.0</ele><time>2026-04-19T08:51:57Z</time></trkpt><trkpt lat="37.785653356688684" lon="15.234598989661647"><ele>7.0</ele><time>2026-04-19T08:51:58Z</time></trkpt><trkpt lat="37.785715787420365" lon="15.234644501071068"><ele>7.000000000000001</ele><time>2026-04-19T08:51:59Z</time></trkpt><trkpt lat="37.785772456674316" lon="15.234689740331184"><ele>7.0</ele><time>2026-04-19T08:52:00Z</time></trkpt><trkpt lat="37.78583257741907" lon="15.23472134230783"><ele>6.8</ele><time>2026-04-19T08:52:01Z</time></trkpt><trkpt lat="37.7859357870925" lon="15.234805150498234"><ele>6.6</ele><time>2026-04-19T08:52:03Z</time></trkpt><trkpt lat="37.7860149288008" lon="15.234851202812239"><ele>6.3999999999999995</ele><time>2026-04-19T08:52:05Z</time></trkpt><trkpt lat="37.78608899465732" lon="15.234699792987245"><ele>6.199999999999999</ele><time>2026-04-19T08:52:06Z</time></trkpt><trkpt lat="37.786115137872024" lon="15.23460478826579"><ele>6.0</ele><time>2026-04-19T08:52:07Z</time></trkpt><trkpt lat="37.78614287540459" lon="15.234515017418222"><ele>6.166666666666667</ele><time>2026-04-19T08:52:08Z</time></trkpt><trkpt lat="37.78618507108513" lon="15.234431110310462"><ele>6.333333333333334</ele><time>2026-04-19T08:52:09Z</time></trkpt><trkpt lat="37.786236252398275" lon="15.234352761947777"><ele>6.5</ele><time>2026-04-19T08:52:10Z</time></trkpt><trkpt lat="37.78629160464199" lon="15.234276444358684"><ele>6.666666666666667</ele><time>2026-04-19T08:52:11Z</time></trkpt><trkpt lat="37.78633978407425" lon="15.23418487447961"><ele>6.833333333333334</ele><time>2026-04-19T08:52:12Z</time></trkpt><trkpt lat="37.78637273917655" lon="15.234068184892505"><ele>7.0</ele><time>2026-04-19T08:52:13Z</time></trkpt><trkpt lat="37.78638487920985" lon="15.233926193866397"><ele>7.0</ele><time>2026-04-19T08:52:14Z</time></trkpt><trkpt lat="37.78637149044334" lon="15.233765756148832"><ele>7.0</ele><time>2026-04-19T08:52:15Z</time></trkpt><trkpt lat="37.7863524867565" lon="15.233593121385907"><ele>7.0</ele><time>2026-04-19T08:52:16Z</time></trkpt><trkpt lat="37.78634388291621" lon="15.233421270263486"><ele>7.0</ele><time>2026-04-19T08:52:17Z</time></trkpt><trkpt lat="37.78634669625669" lon="15.233263322232082"><ele>7.0</ele><time>2026-04-19T08:52:18Z</time></trkpt><trkpt lat="37.78635859640579" lon="15.233084070141997"><ele>7.0</ele><time>2026-04-19T08:52:19Z</time></trkpt><trkpt lat="37.786406596976576" lon="15.232893168568568"><ele>7.0</ele><time>2026-04-19T08:52:20Z</time></trkpt><trkpt lat="37.78642961521461" lon="15.232681811084397"><ele>7.0</ele><time>2026-04-19T08:52:21Z</time></trkpt><trkpt lat="37.786477045916314" lon="15.232473578563908"><ele>7.0</ele><time>2026-04-19T08:52:22Z</time></trkpt><trkpt lat="37.786527027666985" lon="15.232259796130611"><ele>7.0</ele><time>2026-04-19T08:52:23Z</time></trkpt><trkpt lat="37.78656151803161" lon="15.232076066473189"><ele>7.333333333333334</ele><time>2026-04-19T08:52:24Z</time></trkpt><trkpt lat="37.78662095347777" lon="15.231895556631107"><ele>7.666666666666666</ele><time>2026-04-19T08:52:25Z</time></trkpt><trkpt lat="37.786704634663145" lon="15.231736297006107"><ele>8.0</ele><time>2026-04-19T08:52:26Z</time></trkpt><trkpt lat="37.786827592070495" lon="15.231614820537631"><ele>8.0</ele><time>2026-04-19T08:52:27Z</time></trkpt><trkpt lat="37.78695543914556" lon="15.231482053958825"><ele>8.0</ele><time>2026-04-19T08:52:28Z</time></trkpt><trkpt lat="37.78712733941712" lon="15.231357204568758"><ele>8.0</ele><time>2026-04-19T08:52:29Z</time></trkpt><trkpt lat="37.787324079719184" lon="15.231216289122932"><ele>8.0</ele><time>2026-04-19T08:52:30Z</time></trkpt><trkpt lat="37.78751649127304" lon="15.231062319152205"><ele>8.0</ele><time>2026-04-19T08:52:31Z</time></trkpt><trkpt lat="37.787678298201655" lon="15.230947289507155"><ele>8.0</ele><time>2026-04-19T08:52:32Z</time></trkpt><trkpt lat="37.787825568342896" lon="15.230832047110432"><ele>7.666666666666666</ele><time>2026-04-19T08:52:33Z</time></trkpt><trkpt lat="37.787970471074274" lon="15.23074565549792"><ele>7.333333333333334</ele><time>2026-04-19T08:52:34Z</time></trkpt><trkpt lat="37.78813547210025" lon="15.23068176871689"><ele>7.0</ele><time>2026-04-19T08:52:35Z</time></trkpt><trkpt lat="37.78831086326971" lon="15.230612629644309"><ele>8.333333333333334</ele><time>2026-04-19T08:52:36Z</time></trkpt><trkpt lat="37.78849921541424" lon="15.230558261203628"><ele>9.666666666666666</ele><time>2026-04-19T08:52:37Z</time></trkpt><trkpt lat="37.788699731952825" lon="15.230527463272564"><ele>11.0</ele><time>2026-04-19T08:52:38Z</time></trkpt><trkpt lat="37.78888999355453" lon="15.230470572185872"><ele>12.666666666666666</ele><time>2026-04-19T08:52:39Z</time></trkpt><trkpt lat="37.789059025176854" lon="15.230409496102297"><ele>14.333333333333332</ele><time>2026-04-19T08:52:40Z</time></trkpt><trkpt lat="37.789209148799415" lon="15.230357059570917"><ele>16.0</ele><time>2026-04-19T08:52:41Z</time></trkpt><trkpt lat="37.789338485471745" lon="15.230273469436789"><ele>16.666666666666664</ele><time>2026-04-19T08:52:42Z</time></trkpt><trkpt lat="37.78944838675853" lon="15.230148247404614"><ele>17.333333333333332</ele><time>2026-04-19T08:52:43Z</time></trkpt><trkpt lat="37.78953461491093" lon="15.229980765757878"><ele>18.0</ele><time>2026-04-19T08:52:44Z</time></trkpt><trkpt lat="37.789614886675565" lon="15.229788847538059"><ele>19.333333333333332</ele><time>2026-04-19T08:52:45Z</time></trkpt><trkpt lat="37.78971907608554" lon="15.229596296745694"><ele>20.666666666666664</ele><time>2026-04-19T08:52:46Z</time></trkpt><trkpt lat="37.78983018494737" lon="15.229393712534737"><ele>22.0</ele><time>2026-04-19T08:52:47Z</time></trkpt><trkpt lat="37.78993790274831" lon="15.229178664502006"><ele>22.0</ele><time>2026-04-19T08:52:48Z</time></trkpt><trkpt lat="37.79004602130701" lon="15.228959165230341"><ele>22.0</ele><time>2026-04-19T08:52:49Z</time></trkpt><trkpt lat="37.79015740595496" lon="15.228744466274014"><ele>22.0</ele><time>2026-04-19T08:52:50Z</time></trkpt><trkpt lat="37.79025287398783" lon="15.228517860486466"><ele>22.0</ele><time>2026-04-19T08:52:51Z</time></trkpt><trkpt lat="37.79033161182478" lon="15.228283858084298"><ele>22.0</ele><time>2026-04-19T08:52:52Z</time></trkpt><trkpt lat="37.79041190055708" lon="15.228050980063877"><ele>22.0</ele><time>2026-04-19T08:52:53Z</time></trkpt><trkpt lat="37.79049687227661" lon="15.227822961554049"><ele>23.0</ele><time>2026-04-19T08:52:54Z</time></trkpt><trkpt lat="37.79057958528716" lon="15.22759951926648"><ele>24.0</ele><time>2026-04-19T08:52:55Z</time></trkpt><trkpt lat="37.79065602688226" lon="15.227373645394856"><ele>25.0</ele><time>2026-04-19T08:52:56Z</time></trkpt><trkpt lat="37.790732694853546" lon="15.227138576646103"><ele>25.666666666666668</ele><time>2026-04-19T08:52:57Z</time></trkpt><trkpt lat="37.79080230429195" lon="15.226895739382263"><ele>26.333333333333336</ele><time>2026-04-19T08:52:58Z</time></trkpt><trkpt lat="37.790861594970885" lon="15.226638330408429"><ele>27.0</ele><time>2026-04-19T08:52:59Z</time></trkpt><trkpt lat="37.79091281173289" lon="15.226366850347237"><ele>27.0</ele><time>2026-04-19T08:53:00Z</time></trkpt><trkpt lat="37.790968204973076" lon="15.226083390329743"><ele>27.0</ele><time>2026-04-19T08:53:01Z</time></trkpt><trkpt lat="37.79103694434338" lon="15.225791620037038"><ele>27.5</ele><time>2026-04-19T08:53:02Z</time></trkpt><trkpt lat="37.791107687103946" lon="15.225475876676047"><ele>28.0</ele><time>2026-04-19T08:53:03Z</time></trkpt><trkpt lat="37.79117544730378" lon="15.225152721085784"><ele>28.0</ele><time>2026-04-19T08:53:04Z</time></trkpt><trkpt lat="37.79123810395834" lon="15.22484230675704"><ele>28.0</ele><time>2026-04-19T08:53:05Z</time></trkpt><trkpt lat="37.79128936598724" lon="15.224549263473996"><ele>30.0</ele><time>2026-04-19T08:53:06Z</time></trkpt><trkpt lat="37.79133611406113" lon="15.224267046150691"><ele>32.0</ele><time>2026-04-19T08:53:07Z</time></trkpt><trkpt lat="37.79138156612676" lon="15.223985780099994"><ele>33.5</ele><time>2026-04-19T08:53:08Z</time></trkpt><trkpt lat="37.79142830823926" lon="15.22370290797487"><ele>35.0</ele><time>2026-04-19T08:53:09Z</time></trkpt><trkpt lat="37.79147074955593" lon="15.223421713022452"><ele>34.5</ele><time>2026-04-19T08:53:10Z</time></trkpt><trkpt lat="37.79150771526616" lon="15.223138016092532"><ele>34.0</ele><time>2026-04-19T08:53:11Z</time></trkpt><trkpt lat="37.791542874554594" lon="15.222858115057603"><ele>34.0</ele><time>2026-04-19T08:53:12Z</time></trkpt><trkpt lat="37.79158352150201" lon="15.222579817458842"><ele>34.0</ele><time>2026-04-19T08:53:13Z</time></trkpt><trkpt lat="37.7916305364792" lon="15.222307625642387"><ele>34.0</ele><time>2026-04-19T08:53:14Z</time></trkpt><trkpt lat="37.79168077618554" lon="15.222046163228349"><ele>34.66666666666667</ele><time>2026-04-19T08:53:15Z</time></trkpt><trkpt lat="37.79172992539394" lon="15.221788490425064"><ele>35.333333333333336</ele><time>2026-04-19T08:53:16Z</time></trkpt><trkpt lat="37.7917796135881" lon="15.221533037250532"><ele>36.0</ele><time>2026-04-19T08:53:17Z</time></trkpt><trkpt lat="37.79182973170956" lon="15.221280605297665"><ele>36.333333333333336</ele><time>2026-04-19T08:53:18Z</time></trkpt><trkpt lat="37.79188531500299" lon="15.221026243778095"><ele>36.66666666666667</ele><time>2026-04-19T08:53:19Z</time></trkpt><trkpt lat="37.79194345512262" lon="15.220785671573008"><ele>37.0</ele><time>2026-04-19T08:53:20Z</time></trkpt><trkpt lat="37.791994060059054" lon="15.220561123028759"><ele>37.333333333333336</ele><time>2026-04-19T08:53:21Z</time></trkpt><trkpt lat="37.79203866294471" lon="15.220348192051052"><ele>37.666666666666664</ele><time>2026-04-19T08:53:22Z</time></trkpt><trkpt lat="37.79207994843075" lon="15.22015116235449"><ele>38.0</ele><time>2026-04-19T08:53:23Z</time></trkpt><trkpt lat="37.79211801983302" lon="15.219963210352558"><ele>39.0</ele><time>2026-04-19T08:53:24Z</time></trkpt><trkpt lat="37.792159192957556" lon="15.219776347363084"><ele>40.0</ele><time>2026-04-19T08:53:25Z</time></trkpt><trkpt lat="37.792208755981854" lon="15.21958806638563"><ele>41.0</ele><time>2026-04-19T08:53:26Z</time></trkpt><trkpt lat="37.79226269978622" lon="15.21939522414752"><ele>41.0</ele><time>2026-04-19T08:53:27Z</time></trkpt><trkpt lat="37.792320191398" lon="15.21919412126609"><ele>41.0</ele><time>2026-04-19T08:53:28Z</time></trkpt><trkpt lat="37.7923760299092" lon="15.218981054685365"><ele>41.0</ele><time>2026-04-19T08:53:29Z</time></trkpt><trkpt lat="37.792433456159" lon="15.218760952857993"><ele>41.666666666666664</ele><time>2026-04-19T08:53:30Z</time></trkpt><trkpt lat="37.7924924872864" lon="15.21853444129462"><ele>42.333333333333336</ele><time>2026-04-19T08:53:31Z</time></trkpt><trkpt lat="37.792554814549405" lon="15.218322140139161"><ele>43.0</ele><time>2026-04-19T08:53:32Z</time></trkpt><trkpt lat="37.792620664895686" lon="15.21813478785394"><ele>43.5</ele><time>2026-04-19T08:53:33Z</time></trkpt><trkpt lat="37.79267569861295" lon="15.21795809221696"><ele>44.0</ele><time>2026-04-19T08:53:34Z</time></trkpt><trkpt lat="37.79272314622973" lon="15.217790129541667"><ele>44.5</ele><time>2026-04-19T08:53:35Z</time></trkpt><trkpt lat="37.792775310803314" lon="15.217633036164843"><ele>45.0</ele><time>2026-04-19T08:53:36Z</time></trkpt><trkpt lat="37.792822701208465" lon="15.217488630488214"><ele>45.0</ele><time>2026-04-19T08:53:37Z</time></trkpt><trkpt lat="37.79287156609634" lon="15.217353997628619"><ele>45.0</ele><time>2026-04-19T08:53:38Z</time></trkpt><trkpt lat="37.79291852169874" lon="15.217231658846138"><ele>45.0</ele><time>2026-04-19T08:53:39Z</time></trkpt><trkpt lat="37.792957917259976" lon="15.217130226275835"><ele>45.0</ele><time>2026-04-19T08:53:40Z</time></trkpt><trkpt lat="37.79299022283056" lon="15.217052303000324"><ele>45.0</ele><time>2026-04-19T08:53:41Z</time></trkpt><trkpt lat="37.79304587899274" lon="15.21693278250324"><ele>45.4</ele><time>2026-04-19T08:53:43Z</time></trkpt><trkpt lat="37.793105328711675" lon="15.216811837175289"><ele>45.8</ele><time>2026-04-19T08:53:45Z</time></trkpt><trkpt lat="37.7931571379545" lon="15.21670410428789"><ele>46.2</ele><time>2026-04-19T08:53:47Z</time></trkpt><trkpt lat="37.79322096592627" lon="15.216585675041411"><ele>46.6</ele><time>2026-04-19T08:53:49Z</time></trkpt><trkpt lat="37.79326104511322" lon="15.216510729573798"><ele>47.0</ele><time>2026-04-19T08:53:50Z</time></trkpt><trkpt lat="37.79330299933034" lon="15.216420261691045"><ele>47.5</ele><time>2026-04-19T08:53:51Z</time></trkpt><trkpt lat="37.793332082194574" lon="15.21631214232178"><ele>48.0</ele><time>2026-04-19T08:53:52Z</time></trkpt><trkpt lat="37.79335755605624" lon="15.216177327420903"><ele>48.5</ele><time>2026-04-19T08:53:53Z</time></trkpt><trkpt lat="37.79338858735472" lon="15.216025974970462"><ele>49.0</ele><time>2026-04-19T08:53:54Z</time></trkpt><trkpt lat="37.79342069189977" lon="15.215847160710398"><ele>50.33333333333333</ele><time>2026-04-19T08:53:55Z</time></trkpt><trkpt lat="37.793463604170334" lon="15.21565004918872"><ele>51.66666666666667</ele><time>2026-04-19T08:53:56Z</time></trkpt><trkpt lat="37.79350332551263" lon="15.215455639243704"><ele>53.0</ele><time>2026-04-19T08:53:57Z</time></trkpt><trkpt lat="37.79354212686825" lon="15.215266284231827"><ele>53.333333333333336</ele><time>2026-04-19T08:53:58Z</time></trkpt><trkpt lat="37.79359267663325" lon="15.215074940486016"><ele>53.66666666666667</ele><time>2026-04-19T08:53:59Z</time></trkpt><trkpt lat="37.793667225863864" lon="15.21488274969583"><ele>54.0</ele><time>2026-04-19T08:54:00Z</time></trkpt><trkpt lat="37.79375920682151" lon="15.214699331678672"><ele>54.0</ele><time>2026-04-19T08:54:01Z</time></trkpt><trkpt lat="37.79384972738543" lon="15.214521290927264"><ele>54.0</ele><time>2026-04-19T08:54:02Z</time></trkpt><trkpt lat="37.79392756091992" lon="15.214352853663227"><ele>54.0</ele><time>2026-04-19T08:54:03Z</time></trkpt><trkpt lat="37.79400627633765" lon="15.214191894458544"><ele>54.0</ele><time>2026-04-19T08:54:04Z</time></trkpt><trkpt lat="37.794077807767" lon="15.214037071669347"><ele>54.00000000000001</ele><time>2026-04-19T08:54:05Z</time></trkpt><trkpt lat="37.79413957140755" lon="15.21390212444725"><ele>54.00000000000001</ele><time>2026-04-19T08:54:06Z</time></trkpt><trkpt lat="37.794196522928736" lon="15.213788919423042"><ele>54.0</ele><time>2026-04-19T08:54:07Z</time></trkpt><trkpt lat="37.79424456290525" lon="15.213710355916122"><ele>54.0</ele><time>2026-04-19T08:54:08Z</time></trkpt><trkpt lat="37.794304975180516" lon="15.213660174053185"><ele>55.166666666666664</ele><time>2026-04-19T08:54:09Z</time></trkpt><trkpt lat="37.79435234970885" lon="15.213592465817051"><ele>56.33333333333333</ele><time>2026-04-19T08:54:10Z</time></trkpt><trkpt lat="37.79437194239898" lon="15.213496606545275"><ele>57.5</ele><time>2026-04-19T08:54:11Z</time></trkpt><trkpt lat="37.79441163399984" lon="15.213383466151429"><ele>58.666666666666664</ele><time>2026-04-19T08:54:12Z</time></trkpt><trkpt lat="37.79447608653088" lon="15.213293330210986"><ele>59.83333333333333</ele><time>2026-04-19T08:54:13Z</time></trkpt><trkpt lat="37.7945254755664" lon="15.21321820229981"><ele>61.0</ele><time>2026-04-19T08:54:14Z</time></trkpt><trkpt lat="37.79457381770645" lon="15.213150870168747"><ele>61.4</ele><time>2026-04-19T08:54:15Z</time></trkpt><trkpt lat="37.79461670238939" lon="15.21308394438281"><ele>61.8</ele><time>2026-04-19T08:54:16Z</time></trkpt><trkpt lat="37.79469812593884" lon="15.212995458459137"><ele>62.199999999999996</ele><time>2026-04-19T08:54:18Z</time></trkpt><trkpt lat="37.79475842081069" lon="15.21291585146682"><ele>62.599999999999994</ele><time>2026-04-19T08:54:20Z</time></trkpt><trkpt lat="37.79482524496097" lon="15.212824354193577"><ele>63.0</ele><time>2026-04-19T08:54:22Z</time></trkpt><trkpt lat="37.79490101070397" lon="15.212706575731593"><ele>63.0</ele><time>2026-04-19T08:54:24Z</time></trkpt><trkpt lat="37.79494277560383" lon="15.21264621399695"><ele>63.0</ele><time>2026-04-19T08:54:25Z</time></trkpt><trkpt lat="37.7949868828391" lon="15.21258145500396"><ele>63.0</ele><time>2026-04-19T08:54:26Z</time></trkpt><trkpt lat="37.795039417910886" lon="15.212527337549842"><ele>63.0</ele><time>2026-04-19T08:54:27Z</time></trkpt><trkpt lat="37.79508715439169" lon="15.212474857035627"><ele>63.0</ele><time>2026-04-19T08:54:28Z</time></trkpt><trkpt lat="37.795173915032805" lon="15.21237748408991"><ele>63.0</ele><time>2026-04-19T08:54:30Z</time></trkpt><trkpt lat="37.79524344451911" lon="15.212308678237191"><ele>64.0</ele><time>2026-04-19T08:54:33Z</time></trkpt><trkpt lat="37.795299626062345" lon="15.212240940071927"><ele>65.0</ele><time>2026-04-19T08:54:35Z</time></trkpt><trkpt lat="37.795386081428425" lon="15.212171918293572"><ele>66.0</ele><time>2026-04-19T08:54:37Z</time></trkpt><trkpt lat="37.795441635149885" lon="15.212119296833254"><ele>67.0</ele><time>2026-04-19T08:54:38Z</time></trkpt><trkpt lat="37.795501133820274" lon="15.212072983927555"><ele>68.0</ele><time>2026-04-19T08:54:39Z</time></trkpt><trkpt lat="37.79558986051439" lon="15.212061811507445"><ele>69.0</ele><time>2026-04-19T08:54:40Z</time></trkpt><trkpt lat="37.79566708845237" lon="15.212042354271194"><ele>69.0</ele><time>2026-04-19T08:54:41Z</time></trkpt><trkpt lat="37.79574269892054" lon="15.212015834461567"><ele>69.0</ele><time>2026-04-19T08:54:42Z</time></trkpt><trkpt lat="37.7958194975587" lon="15.21197794095524"><ele>69.0</ele><time>2026-04-19T08:54:43Z</time></trkpt><trkpt lat="37.79590927696392" lon="15.21193912380777"><ele>69.0</ele><time>2026-04-19T08:54:44Z</time></trkpt><trkpt lat="37.79600982579586" lon="15.211893682677564"><ele>69.0</ele><time>2026-04-19T08:54:45Z</time></trkpt><trkpt lat="37.796124145899896" lon="15.211849575999741"><ele>69.4</ele><time>2026-04-19T08:54:46Z</time></trkpt><trkpt lat="37.79623148783159" lon="15.211799204215682"><ele>69.80000000000001</ele><time>2026-04-19T08:54:47Z</time></trkpt><trkpt lat="37.796328048719175" lon="15.211749229729657"><ele>70.19999999999999</ele><time>2026-04-19T08:54:48Z</time></trkpt><trkpt lat="37.796422765056455" lon="15.211693265145485"><ele>70.6</ele><time>2026-04-19T08:54:49Z</time></trkpt><trkpt lat="37.7965024496704" lon="15.211611362706252"><ele>71.0</ele><time>2026-04-19T08:54:50Z</time></trkpt><trkpt lat="37.7965701950367" lon="15.211528506287701"><ele>71.16666666666667</ele><time>2026-04-19T08:54:51Z</time></trkpt><trkpt lat="37.796634170442466" lon="15.211450893472609"><ele>71.33333333333334</ele><time>2026-04-19T08:54:52Z</time></trkpt><trkpt lat="37.79668843037137" lon="15.211387285382342"><ele>71.5</ele><time>2026-04-19T08:54:53Z</time></trkpt><trkpt lat="37.79674815922121" lon="15.211322283760081"><ele>71.66666666666667</ele><time>2026-04-19T08:54:54Z</time></trkpt><trkpt lat="37.79680090194031" lon="15.211258168425362"><ele>71.83333333333333</ele><time>2026-04-19T08:54:55Z</time></trkpt><trkpt lat="37.79685913711747" lon="15.211193774786592"><ele>72.0</ele><time>2026-04-19T08:54:56Z</time></trkpt><trkpt lat="37.79691190157328" lon="15.211139543265302"><ele>72.33333333333333</ele><time>2026-04-19T08:54:57Z</time></trkpt><trkpt lat="37.79699273322216" lon="15.211045830765709"><ele>72.66666666666667</ele><time>2026-04-19T08:54:59Z</time></trkpt><trkpt lat="37.79706157174393" lon="15.210967274415598"><ele>73.0</ele><time>2026-04-19T08:55:01Z</time></trkpt><trkpt lat="37.79711837271733" lon="15.210883639577665"><ele>73.33333333333334</ele><time>2026-04-19T08:55:03Z</time></trkpt><trkpt lat="37.79716298417852" lon="15.210817056805013"><ele>73.66666666666667</ele><time>2026-04-19T08:55:05Z</time></trkpt><trkpt lat="37.79721279040342" lon="15.210760651598543"><ele>74.0</ele><time>2026-04-19T08:55:08Z</time></trkpt><trkpt lat="37.79727038960598" lon="15.210690679103022"><ele>74.0</ele><time>2026-04-19T08:55:17Z</time></trkpt><trkpt lat="37.797343662498356" lon="15.210641055795756"><ele>74.0</ele><time>2026-04-19T08:55:18Z</time></trkpt><trkpt lat="37.7974263459195" lon="15.210649336086174"><ele>74.0</ele><time>2026-04-19T08:55:19Z</time></trkpt><trkpt lat="37.79752056680144" lon="15.210654050244067"><ele>74.0</ele><time>2026-04-19T08:55:20Z</time></trkpt><trkpt lat="37.79763758830096" lon="15.210690707505726"><ele>74.0</ele><time>2026-04-19T08:55:21Z</time></trkpt><trkpt lat="37.79775601971193" lon="15.21072094208374"><ele>74.0</ele><time>2026-04-19T08:55:22Z</time></trkpt><trkpt lat="37.797871425804956" lon="15.21076506573331"><ele>74.0</ele><time>2026-04-19T08:55:23Z</time></trkpt><trkpt lat="37.798013575356535" lon="15.210813202460328"><ele>74.0</ele><time>2026-04-19T08:55:24Z</time></trkpt><trkpt lat="37.79819070253244" lon="15.210886605257892"><ele>74.0</ele><time>2026-04-19T08:55:25Z</time></trkpt><trkpt lat="37.798353953586584" lon="15.210941450850873"><ele>74.0</ele><time>2026-04-19T08:55:26Z</time></trkpt><trkpt lat="37.798501201731376" lon="15.210998254880137"><ele>74.0</ele><time>2026-04-19T08:55:27Z</time></trkpt><trkpt lat="37.798650918483496" lon="15.211055484440264"><ele>73.0</ele><time>2026-04-19T08:55:28Z</time></trkpt><trkpt lat="37.798802821751316" lon="15.211107953372467"><ele>72.0</ele><time>2026-04-19T08:55:29Z</time></trkpt><trkpt lat="37.79894057491104" lon="15.2112163213259"><ele>71.0</ele><time>2026-04-19T08:55:30Z</time></trkpt><trkpt lat="37.79906180952653" lon="15.211358583270096"><ele>71.0</ele><time>2026-04-19T08:55:31Z</time></trkpt><trkpt lat="37.79918907163022" lon="15.21152962789811"><ele>71.0</ele><time>2026-04-19T08:55:32Z</time></trkpt><trkpt lat="37.79932022928705" lon="15.211712308445918"><ele>71.0</ele><time>2026-04-19T08:55:33Z</time></trkpt><trkpt lat="37.79946555582491" lon="15.211905574841154"><ele>71.33333333333334</ele><time>2026-04-19T08:55:34Z</time></trkpt><trkpt lat="37.79959129938893" lon="15.212078263778144"><ele>71.66666666666667</ele><time>2026-04-19T08:55:35Z</time></trkpt><trkpt lat="37.79970831075077" lon="15.212244578836383"><ele>72.0</ele><time>2026-04-19T08:55:36Z</time></trkpt><trkpt lat="37.79983034868989" lon="15.212408159908026"><ele>72.0</ele><time>2026-04-19T08:55:37Z</time></trkpt><trkpt lat="37.79996821232033" lon="15.212556084944188"><ele>72.0</ele><time>2026-04-19T08:55:38Z</time></trkpt><trkpt lat="37.80012403270065" lon="15.212692851108784"><ele>72.0</ele><time>2026-04-19T08:55:39Z</time></trkpt><trkpt lat="37.80028876021257" lon="15.212829387929311"><ele>72.33333333333333</ele><time>2026-04-19T08:55:40Z</time></trkpt><trkpt lat="37.80046019641342" lon="15.21296549396133"><ele>72.66666666666666</ele><time>2026-04-19T08:55:41Z</time></trkpt><trkpt lat="37.80063692997956" lon="15.213099940656127"><ele>73.0</ele><time>2026-04-19T08:55:42Z</time></trkpt><trkpt lat="37.800808957512224" lon="15.213241710645692"><ele>73.33333333333333</ele><time>2026-04-19T08:55:43Z</time></trkpt><trkpt lat="37.80097853742413" lon="15.213385737862229"><ele>73.66666666666667</ele><time>2026-04-19T08:55:44Z</time></trkpt><trkpt lat="37.801142701999495" lon="15.213538407175708"><ele>74.0</ele><time>2026-04-19T08:55:45Z</time></trkpt><trkpt lat="37.80129823799564" lon="15.21370416842885"><ele>71.66666666666667</ele><time>2026-04-19T08:55:46Z</time></trkpt><trkpt lat="37.80143276103472" lon="15.213877241894139"><ele>69.33333333333333</ele><time>2026-04-19T08:55:47Z</time></trkpt><trkpt lat="37.80155297413131" lon="15.214053886959498"><ele>67.0</ele><time>2026-04-19T08:55:48Z</time></trkpt><trkpt lat="37.801665461993" lon="15.214243295538084"><ele>67.0</ele><time>2026-04-19T08:55:49Z</time></trkpt><trkpt lat="37.80177831996974" lon="15.214446789843072"><ele>67.0</ele><time>2026-04-19T08:55:50Z</time></trkpt><trkpt lat="37.80189277961372" lon="15.214663345568228"><ele>67.0</ele><time>2026-04-19T08:55:51Z</time></trkpt><trkpt lat="37.802016678542444" lon="15.214888760485826"><ele>63.5</ele><time>2026-04-19T08:55:52Z</time></trkpt><trkpt lat="37.802167972973145" lon="15.215141203284757"><ele>60.0</ele><time>2026-04-19T08:55:53Z</time></trkpt><trkpt lat="37.802342697093984" lon="15.215412248174422"><ele>59.0</ele><time>2026-04-19T08:55:54Z</time></trkpt><trkpt lat="37.802562752029665" lon="15.215659414734514"><ele>58.0</ele><time>2026-04-19T08:55:55Z</time></trkpt><trkpt lat="37.80278584501544" lon="15.215925837275455"><ele>57.0</ele><time>2026-04-19T08:55:56Z</time></trkpt><trkpt lat="37.80299716001597" lon="15.21616377844039"><ele>56.0</ele><time>2026-04-19T08:55:57Z</time></trkpt><trkpt lat="37.80319024889413" lon="15.216390417843117"><ele>55.0</ele><time>2026-04-19T08:55:58Z</time></trkpt><trkpt lat="37.80337009766358" lon="15.216607270651503"><ele>54.0</ele><time>2026-04-19T08:55:59Z</time></trkpt><trkpt lat="37.80353749872983" lon="15.216809642499266"><ele>55.66666666666667</ele><time>2026-04-19T08:56:00Z</time></trkpt><trkpt lat="37.80369067373691" lon="15.216995619017668"><ele>57.333333333333336</ele><time>2026-04-19T08:56:01Z</time></trkpt><trkpt lat="37.803835044322376" lon="15.217168886783194"><ele>59.0</ele><time>2026-04-19T08:56:02Z</time></trkpt><trkpt lat="37.803975724136336" lon="15.217336967398436"><ele>59.0</ele><time>2026-04-19T08:56:03Z</time></trkpt><trkpt lat="37.804111326111766" lon="15.217493279234905"><ele>59.0</ele><time>2026-04-19T08:56:04Z</time></trkpt><trkpt lat="37.80423465577756" lon="15.217653698181568"><ele>59.0</ele><time>2026-04-19T08:56:05Z</time></trkpt><trkpt lat="37.80434236444255" lon="15.21782537525763"><ele>59.66666666666667</ele><time>2026-04-19T08:56:06Z</time></trkpt><trkpt lat="37.8044370300823" lon="15.21799188548841"><ele>60.33333333333333</ele><time>2026-04-19T08:56:07Z</time></trkpt><trkpt lat="37.804532907192424" lon="15.218156522075306"><ele>61.0</ele><time>2026-04-19T08:56:08Z</time></trkpt><trkpt lat="37.804621715394596" lon="15.218346949669185"><ele>61.0</ele><time>2026-04-19T08:56:09Z</time></trkpt><trkpt lat="37.80472821437956" lon="15.218546612171613"><ele>61.0</ele><time>2026-04-19T08:56:10Z</time></trkpt><trkpt lat="37.8048400186726" lon="15.21875622084651"><ele>61.0</ele><time>2026-04-19T08:56:11Z</time></trkpt><trkpt lat="37.80495466416019" lon="15.21897279451264"><ele>60.666666666666664</ele><time>2026-04-19T08:56:12Z</time></trkpt><trkpt lat="37.80506107863564" lon="15.21917286183354"><ele>60.33333333333333</ele><time>2026-04-19T08:56:13Z</time></trkpt><trkpt lat="37.805156094243664" lon="15.219351477912186"><ele>60.0</ele><time>2026-04-19T08:56:14Z</time></trkpt><trkpt lat="37.80524648607982" lon="15.219492502338205"><ele>60.0</ele><time>2026-04-19T08:56:15Z</time></trkpt><trkpt lat="37.8053245421785" lon="15.219630269930388"><ele>60.0</ele><time>2026-04-19T08:56:16Z</time></trkpt><trkpt lat="37.80541004251486" lon="15.219754671152627"><ele>60.0</ele><time>2026-04-19T08:56:17Z</time></trkpt><trkpt lat="37.80550063227984" lon="15.219880530408382"><ele>60.0</ele><time>2026-04-19T08:56:18Z</time></trkpt><trkpt lat="37.80560578744503" lon="15.220010187135754"><ele>59.33333333333333</ele><time>2026-04-19T08:56:19Z</time></trkpt><trkpt lat="37.80570700999464" lon="15.220162989650124"><ele>58.666666666666664</ele><time>2026-04-19T08:56:20Z</time></trkpt><trkpt lat="37.805821131834" lon="15.22030605440419"><ele>58.0</ele><time>2026-04-19T08:56:21Z</time></trkpt><trkpt lat="37.80593079459871" lon="15.22043719706671"><ele>58.0</ele><time>2026-04-19T08:56:22Z</time></trkpt><trkpt lat="37.80603635315816" lon="15.220549592343833"><ele>58.0</ele><time>2026-04-19T08:56:23Z</time></trkpt><trkpt lat="37.806120867452634" lon="15.220647660523815"><ele>58.0</ele><time>2026-04-19T08:56:24Z</time></trkpt><trkpt lat="37.80619402431219" lon="15.220756553846739"><ele>58.0</ele><time>2026-04-19T08:56:25Z</time></trkpt><trkpt lat="37.80623032939219" lon="15.220883550968505"><ele>58.0</ele><time>2026-04-19T08:56:26Z</time></trkpt><trkpt lat="37.80621224384192" lon="15.221032846656984"><ele>58.0</ele><time>2026-04-19T08:56:27Z</time></trkpt><trkpt lat="37.80618919921568" lon="15.221190039685112"><ele>58.0</ele><time>2026-04-19T08:56:28Z</time></trkpt><trkpt lat="37.806161311220734" lon="15.22135554222998"><ele>58.0</ele><time>2026-04-19T08:56:29Z</time></trkpt><trkpt lat="37.806135211370965" lon="15.221527204059079"><ele>58.0</ele><time>2026-04-19T08:56:30Z</time></trkpt><trkpt lat="37.80611290089045" lon="15.22168988120235"><ele>58.0</ele><time>2026-04-19T08:56:31Z</time></trkpt><trkpt lat="37.806087844873964" lon="15.221850585629669"><ele>58.0</ele><time>2026-04-19T08:56:32Z</time></trkpt><trkpt lat="37.80606414659344" lon="15.22198651463586"><ele>58.0</ele><time>2026-04-19T08:56:33Z</time></trkpt><trkpt lat="37.80604819882993" lon="15.22211904005212"><ele>58.0</ele><time>2026-04-19T08:56:34Z</time></trkpt><trkpt lat="37.806033622278534" lon="15.222243685516244"><ele>58.0</ele><time>2026-04-19T08:56:35Z</time></trkpt><trkpt lat="37.80601404207986" lon="15.222369926630538"><ele>58.0</ele><time>2026-04-19T08:56:36Z</time></trkpt><trkpt lat="37.80599584387059" lon="15.222489389563588"><ele>58.0</ele><time>2026-04-19T08:56:37Z</time></trkpt><trkpt lat="37.80597492340697" lon="15.222613457617193"><ele>58.0</ele><time>2026-04-19T08:56:38Z</time></trkpt><trkpt lat="37.805959650058526" lon="15.222733378831537"><ele>57.0</ele><time>2026-04-19T08:56:39Z</time></trkpt><trkpt lat="37.805944866641155" lon="15.222857738307457"><ele>56.0</ele><time>2026-04-19T08:56:40Z</time></trkpt><trkpt lat="37.80592365875847" lon="15.222976412743042"><ele>55.0</ele><time>2026-04-19T08:56:41Z</time></trkpt><trkpt lat="37.805907479788246" lon="15.223096464862918"><ele>54.0</ele><time>2026-04-19T08:56:42Z</time></trkpt><trkpt lat="37.80587399182917" lon="15.22321948579354"><ele>53.0</ele><time>2026-04-19T08:56:43Z</time></trkpt><trkpt lat="37.80590045117632" lon="15.22336559495453"><ele>53.5</ele><time>2026-04-19T08:56:44Z</time></trkpt><trkpt lat="37.805949099227696" lon="15.223518414310993"><ele>54.0</ele><time>2026-04-19T08:56:45Z</time></trkpt><trkpt lat="37.805987136186474" lon="15.22369558053742"><ele>54.5</ele><time>2026-04-19T08:56:46Z</time></trkpt><trkpt lat="37.80604155143232" lon="15.223875028719295"><ele>55.0</ele><time>2026-04-19T08:56:47Z</time></trkpt><trkpt lat="37.80609159819547" lon="15.224054351077497"><ele>55.0</ele><time>2026-04-19T08:56:48Z</time></trkpt><trkpt lat="37.80613449178893" lon="15.224228001174449"><ele>55.0</ele><time>2026-04-19T08:56:49Z</time></trkpt><trkpt lat="37.80618478129633" lon="15.224386211753224"><ele>55.0</ele><time>2026-04-19T08:56:50Z</time></trkpt><trkpt lat="37.80621704483783" lon="15.224542177400204"><ele>55.0</ele><time>2026-04-19T08:56:51Z</time></trkpt><trkpt lat="37.80624925568426" lon="15.224692644898909"><ele>54.5</ele><time>2026-04-19T08:56:52Z</time></trkpt><trkpt lat="37.80624610692449" lon="15.224857978346577"><ele>54.0</ele><time>2026-04-19T08:56:53Z</time></trkpt><trkpt lat="37.806251139384635" lon="15.225025177017883"><ele>53.5</ele><time>2026-04-19T08:56:54Z</time></trkpt><trkpt lat="37.80626341498047" lon="15.225188076920041"><ele>53.0</ele><time>2026-04-19T08:56:55Z</time></trkpt><trkpt lat="37.80624543235742" lon="15.225349540563153"><ele>53.0</ele><time>2026-04-19T08:56:56Z</time></trkpt><trkpt lat="37.806256314756226" lon="15.225510366714289"><ele>53.0</ele><time>2026-04-19T08:56:57Z</time></trkpt><trkpt lat="37.80626010569067" lon="15.225668749252696"><ele>53.0</ele><time>2026-04-19T08:56:58Z</time></trkpt><trkpt lat="37.80627424047364" lon="15.22582946426946"><ele>53.0</ele><time>2026-04-19T08:56:59Z</time></trkpt><trkpt lat="37.80629417847036" lon="15.22598205962924"><ele>52.0</ele><time>2026-04-19T08:57:00Z</time></trkpt><trkpt lat="37.806316548045835" lon="15.226124964210321"><ele>51.0</ele><time>2026-04-19T08:57:01Z</time></trkpt><trkpt lat="37.80633551345039" lon="15.226255468978302"><ele>50.0</ele><time>2026-04-19T08:57:02Z</time></trkpt><trkpt lat="37.806356342326886" lon="15.226375503489365"><ele>49.0</ele><time>2026-04-19T08:57:03Z</time></trkpt><trkpt lat="37.80637739604903" lon="15.226482196485419"><ele>48.0</ele><time>2026-04-19T08:57:04Z</time></trkpt><trkpt lat="37.80639571388643" lon="15.226572946694715"><ele>47.0</ele><time>2026-04-19T08:57:05Z</time></trkpt><trkpt lat="37.806417678176075" lon="15.226652517172697"><ele>46.0</ele><time>2026-04-19T08:57:06Z</time></trkpt><trkpt lat="37.80644188353224" lon="15.226732397527687"><ele>45.0</ele><time>2026-04-19T08:57:07Z</time></trkpt><trkpt lat="37.8064575050243" lon="15.226837365346244"><ele>44.0</ele><time>2026-04-19T08:57:08Z</time></trkpt><trkpt lat="37.806507651095956" lon="15.226935782865535"><ele>43.0</ele><time>2026-04-19T08:57:09Z</time></trkpt><trkpt lat="37.80660633747786" lon="15.226988001182736"><ele>42.0</ele><time>2026-04-19T08:57:10Z</time></trkpt><trkpt lat="37.80670414392418" lon="15.227013261203803"><ele>42.0</ele><time>2026-04-19T08:57:11Z</time></trkpt><trkpt lat="37.806793506342686" lon="15.227060773959897"><ele>42.0</ele><time>2026-04-19T08:57:12Z</time></trkpt><trkpt lat="37.80689233364842" lon="15.22709288251664"><ele>42.0</ele><time>2026-04-19T08:57:13Z</time></trkpt><trkpt lat="37.80699128538327" lon="15.227129837960758"><ele>42.0</ele><time>2026-04-19T08:57:14Z</time></trkpt><trkpt lat="37.807083920584645" lon="15.227159813834334"><ele>42.0</ele><time>2026-04-19T08:57:15Z</time></trkpt><trkpt lat="37.807169776827706" lon="15.227194245317088"><ele>42.2</ele><time>2026-04-19T08:57:16Z</time></trkpt><trkpt lat="37.80726077382429" lon="15.227241627085903"><ele>42.400000000000006</ele><time>2026-04-19T08:57:17Z</time></trkpt><trkpt lat="37.80734495993718" lon="15.227320099789186"><ele>42.599999999999994</ele><time>2026-04-19T08:57:18Z</time></trkpt><trkpt lat="37.80743284220534" lon="15.22738214758495"><ele>42.8</ele><time>2026-04-19T08:57:19Z</time></trkpt><trkpt lat="37.80752214927121" lon="15.227423816943649"><ele>43.0</ele><time>2026-04-19T08:57:20Z</time></trkpt><trkpt lat="37.807589363780814" lon="15.22749723028493"><ele>43.0</ele><time>2026-04-19T08:57:21Z</time></trkpt><trkpt lat="37.80764560139672" lon="15.227579166908338"><ele>43.0</ele><time>2026-04-19T08:57:22Z</time></trkpt><trkpt lat="37.80770500562274" lon="15.227671501717081"><ele>43.0</ele><time>2026-04-19T08:57:23Z</time></trkpt><trkpt lat="37.80777637135323" lon="15.22777850726394"><ele>43.0</ele><time>2026-04-19T08:57:24Z</time></trkpt><trkpt lat="37.8078494131402" lon="15.227905398115913"><ele>43.0</ele><time>2026-04-19T08:57:25Z</time></trkpt><trkpt lat="37.8079293704484" lon="15.228050378036794"><ele>42.75</ele><time>2026-04-19T08:57:26Z</time></trkpt><trkpt lat="37.808019707018175" lon="15.228209936178722"><ele>42.5</ele><time>2026-04-19T08:57:27Z</time></trkpt><trkpt lat="37.80811593466926" lon="15.228365152229886"><ele>42.25</ele><time>2026-04-19T08:57:28Z</time></trkpt><trkpt lat="37.80820549034276" lon="15.228493261656348"><ele>42.0</ele><time>2026-04-19T08:57:29Z</time></trkpt><trkpt lat="37.808275668100244" lon="15.22859160047184"><ele>42.0</ele><time>2026-04-19T08:57:30Z</time></trkpt><trkpt lat="37.80832733726027" lon="15.22866007721301"><ele>42.0</ele><time>2026-04-19T08:57:31Z</time></trkpt><trkpt lat="37.808369067455544" lon="15.22872270129012"><ele>42.0</ele><time>2026-04-19T08:57:32Z</time></trkpt><trkpt lat="37.80841664036613" lon="15.228790233095188"><ele>42.0</ele><time>2026-04-19T08:57:33Z</time></trkpt><trkpt lat="37.808464088717635" lon="15.228866926799883"><ele>42.0</ele><time>2026-04-19T08:57:34Z</time></trkpt><trkpt lat="37.80850931849158" lon="15.228953151307566"><ele>42.0</ele><time>2026-04-19T08:57:35Z</time></trkpt><trkpt lat="37.80856072917125" lon="15.229040956974954"><ele>41.57142857142857</ele><time>2026-04-19T08:57:36Z</time></trkpt><trkpt lat="37.8086126266998" lon="15.22912247217835"><ele>41.14285714285714</ele><time>2026-04-19T08:57:37Z</time></trkpt><trkpt lat="37.80865041909543" lon="15.22918680426644"><ele>40.714285714285715</ele><time>2026-04-19T08:57:38Z</time></trkpt><trkpt lat="37.80868849567412" lon="15.229253535017863"><ele>40.285714285714285</ele><time>2026-04-19T08:57:39Z</time></trkpt><trkpt lat="37.80873234943784" lon="15.229314272650281"><ele>39.857142857142854</ele><time>2026-04-19T08:57:40Z</time></trkpt><trkpt lat="37.80878499373847" lon="15.229385514626125"><ele>39.42857142857143</ele><time>2026-04-19T08:57:41Z</time></trkpt><trkpt lat="37.80883566148957" lon="15.229467556662279"><ele>39.0</ele><time>2026-04-19T08:57:42Z</time></trkpt><trkpt lat="37.808892548199175" lon="15.22955607666828"><ele>39.0</ele><time>2026-04-19T08:57:43Z</time></trkpt><trkpt lat="37.8089579389827" lon="15.229651633033852"><ele>39.0</ele><time>2026-04-19T08:57:44Z</time></trkpt><trkpt lat="37.809017065396745" lon="15.229736621539654"><ele>39.0</ele><time>2026-04-19T08:57:45Z</time></trkpt><trkpt lat="37.809069716829356" lon="15.229828081566941"><ele>39.0</ele><time>2026-04-19T08:57:46Z</time></trkpt><trkpt lat="37.809133178703604" lon="15.229921632776847"><ele>39.0</ele><time>2026-04-19T08:57:47Z</time></trkpt><trkpt lat="37.809196373875075" lon="15.230023218629094"><ele>39.0</ele><time>2026-04-19T08:57:48Z</time></trkpt><trkpt lat="37.80926639893879" lon="15.23013300106225"><ele>39.0</ele><time>2026-04-19T08:57:49Z</time></trkpt><trkpt lat="37.80934302526377" lon="15.230248494841659"><ele>39.0</ele><time>2026-04-19T08:57:50Z</time></trkpt><trkpt lat="37.809422445770615" lon="15.230368535638888"><ele>39.0</ele><time>2026-04-19T08:57:51Z</time></trkpt><trkpt lat="37.80950248719903" lon="15.230493613321311"><ele>39.0</ele><time>2026-04-19T08:57:52Z</time></trkpt><trkpt lat="37.80958407499288" lon="15.230616762032245"><ele>39.0</ele><time>2026-04-19T08:57:53Z</time></trkpt><trkpt lat="37.80965502654467" lon="15.230759137192168"><ele>39.0</ele><time>2026-04-19T08:57:54Z</time></trkpt><trkpt lat="37.8097454860937" lon="15.230901234374494"><ele>39.0</ele><time>2026-04-19T08:57:55Z</time></trkpt><trkpt lat="37.80984145888706" lon="15.231052492579543"><ele>38.666666666666664</ele><time>2026-04-19T08:57:56Z</time></trkpt><trkpt lat="37.80994342591887" lon="15.231213299873968"><ele>38.33333333333333</ele><time>2026-04-19T08:57:57Z</time></trkpt><trkpt lat="37.810065542385274" lon="15.231407077498156"><ele>38.0</ele><time>2026-04-19T08:57:58Z</time></trkpt><trkpt lat="37.81020453247596" lon="15.231626068966738"><ele>37.0</ele><time>2026-04-19T08:57:59Z</time></trkpt><trkpt lat="37.81035899733639" lon="15.231870834533241"><ele>36.0</ele><time>2026-04-19T08:58:00Z</time></trkpt><trkpt lat="37.81049300946085" lon="15.232084238742637"><ele>36.0</ele><time>2026-04-19T08:58:01Z</time></trkpt><trkpt lat="37.810620204795455" lon="15.232287313029017"><ele>36.0</ele><time>2026-04-19T08:58:02Z</time></trkpt><trkpt lat="37.810734744590235" lon="15.232440737801092"><ele>36.0</ele><time>2026-04-19T08:58:03Z</time></trkpt><trkpt lat="37.810816383720606" lon="15.232602844044294"><ele>35.75</ele><time>2026-04-19T08:58:04Z</time></trkpt><trkpt lat="37.8109048164286" lon="15.232745077738363"><ele>35.5</ele><time>2026-04-19T08:58:05Z</time></trkpt><trkpt lat="37.810981152738265" lon="15.232867855821127"><ele>35.25</ele><time>2026-04-19T08:58:06Z</time></trkpt><trkpt lat="37.81105285560368" lon="15.232982969484288"><ele>35.0</ele><time>2026-04-19T08:58:07Z</time></trkpt><trkpt lat="37.811120748457064" lon="15.233091427342938"><ele>35.0</ele><time>2026-04-19T08:58:08Z</time></trkpt><trkpt lat="37.81119008963402" lon="15.233202198677253"><ele>35.0</ele><time>2026-04-19T08:58:09Z</time></trkpt><trkpt lat="37.81126144988158" lon="15.233316195566351"><ele>35.0</ele><time>2026-04-19T08:58:10Z</time></trkpt><trkpt lat="37.811336645485106" lon="15.233436434106181"><ele>35.0</ele><time>2026-04-19T08:58:11Z</time></trkpt><trkpt lat="37.811415149400716" lon="15.233561981949844"><ele>35.0</ele><time>2026-04-19T08:58:12Z</time></trkpt><trkpt lat="37.81148521715782" lon="15.233674038205553"><ele>35.0</ele><time>2026-04-19T08:58:13Z</time></trkpt><trkpt lat="37.8115482229359" lon="15.233774800620903"><ele>35.0</ele><time>2026-04-19T08:58:14Z</time></trkpt><trkpt lat="37.811609202974104" lon="15.233872323304654"><ele>35.0</ele><time>2026-04-19T08:58:15Z</time></trkpt><trkpt lat="37.81167052488109" lon="15.233970392741915"><ele>35.0</ele><time>2026-04-19T08:58:16Z</time></trkpt><trkpt lat="37.81173688399144" lon="15.234051316922066"><ele>35.0</ele><time>2026-04-19T08:58:17Z</time></trkpt><trkpt lat="37.81179670001424" lon="15.234147188657287"><ele>35.0</ele><time>2026-04-19T08:58:18Z</time></trkpt><trkpt lat="37.81186226425525" lon="15.23425695506901"><ele>35.0</ele><time>2026-04-19T08:58:19Z</time></trkpt><trkpt lat="37.81193574251076" lon="15.234375093450218"><ele>35.0</ele><time>2026-04-19T08:58:20Z</time></trkpt><trkpt lat="37.81201707005212" lon="15.234502437696017"><ele>34.6</ele><time>2026-04-19T08:58:21Z</time></trkpt><trkpt lat="37.81209340504415" lon="15.234629994475123"><ele>34.2</ele><time>2026-04-19T08:58:22Z</time></trkpt><trkpt lat="37.81216362232624" lon="15.234746900601921"><ele>33.8</ele><time>2026-04-19T08:58:23Z</time></trkpt><trkpt lat="37.81222813623322" lon="15.234845860191804"><ele>33.4</ele><time>2026-04-19T08:58:24Z</time></trkpt><trkpt lat="37.812285007896946" lon="15.234935397454002"><ele>33.0</ele><time>2026-04-19T08:58:25Z</time></trkpt><trkpt lat="37.81233313321372" lon="15.235017819937557"><ele>33.0</ele><time>2026-04-19T08:58:26Z</time></trkpt><trkpt lat="37.81237559380505" lon="15.235090203653092"><ele>33.0</ele><time>2026-04-19T08:58:27Z</time></trkpt><trkpt lat="37.812425133992846" lon="15.235167737857493"><ele>33.0</ele><time>2026-04-19T08:58:28Z</time></trkpt><trkpt lat="37.812470761368864" lon="15.235238649638726"><ele>33.0</ele><time>2026-04-19T08:58:29Z</time></trkpt><trkpt lat="37.81252917881744" lon="15.235337730000175"><ele>33.0</ele><time>2026-04-19T08:58:31Z</time></trkpt><trkpt lat="37.81261338687447" lon="15.235484643717824"><ele>33.0</ele><time>2026-04-19T08:58:33Z</time></trkpt><trkpt lat="37.812648521713946" lon="15.235551550914366"><ele>33.0</ele><time>2026-04-19T08:58:34Z</time></trkpt><trkpt lat="37.81270477607206" lon="15.235684420721672"><ele>33.0</ele><time>2026-04-19T08:58:36Z</time></trkpt><trkpt lat="37.81275250100508" lon="15.235795802586955"><ele>33.0</ele><time>2026-04-19T08:58:37Z</time></trkpt><trkpt lat="37.81279695467546" lon="15.235944447543723"><ele>33.0</ele><time>2026-04-19T08:58:38Z</time></trkpt><trkpt lat="37.81287081612876" lon="15.236154069494548"><ele>32.5</ele><time>2026-04-19T08:58:39Z</time></trkpt><trkpt lat="37.81296099732016" lon="15.236428895143296"><ele>32.0</ele><time>2026-04-19T08:58:40Z</time></trkpt><trkpt lat="37.81306463867478" lon="15.236752563849683"><ele>32.0</ele><time>2026-04-19T08:58:41Z</time></trkpt><trkpt lat="37.81317501389811" lon="15.237116094746542"><ele>32.0</ele><time>2026-04-19T08:58:42Z</time></trkpt><trkpt lat="37.81328448081971" lon="15.237515641193255"><ele>31.0</ele><time>2026-04-19T08:58:43Z</time></trkpt><trkpt lat="37.81339549675828" lon="15.237936866584574"><ele>30.0</ele><time>2026-04-19T08:58:44Z</time></trkpt><trkpt lat="37.81350603880184" lon="15.238370138309556"><ele>30.0</ele><time>2026-04-19T08:58:45Z</time></trkpt><trkpt lat="37.81360227041024" lon="15.23874171789189"><ele>30.0</ele><time>2026-04-19T08:58:46Z</time></trkpt><trkpt lat="37.81369558875908" lon="15.239044360141234"><ele>29.666666666666664</ele><time>2026-04-19T08:58:47Z</time></trkpt><trkpt lat="37.81376196738189" lon="15.239311640120071"><ele>29.333333333333332</ele><time>2026-04-19T08:58:48Z</time></trkpt><trkpt lat="37.813825825488976" lon="15.239553746104304"><ele>29.0</ele><time>2026-04-19T08:58:49Z</time></trkpt><trkpt lat="37.81391125517828" lon="15.239778739138275"><ele>29.0</ele><time>2026-04-19T08:58:50Z</time></trkpt><trkpt lat="37.8140272658642" lon="15.23999100516115"><ele>29.0</ele><time>2026-04-19T08:58:51Z</time></trkpt><trkpt lat="37.81416996629301" lon="15.240186158833287"><ele>29.0</ele><time>2026-04-19T08:58:52Z</time></trkpt><trkpt lat="37.814324964788966" lon="15.240400309856835"><ele>29.0</ele><time>2026-04-19T08:58:53Z</time></trkpt><trkpt lat="37.81447948581835" lon="15.240627858096202"><ele>29.0</ele><time>2026-04-19T08:58:54Z</time></trkpt><trkpt lat="37.814640896115925" lon="15.240859410618375"><ele>28.666666666666664</ele><time>2026-04-19T08:58:55Z</time></trkpt><trkpt lat="37.81479192070674" lon="15.241072449379084"><ele>28.333333333333336</ele><time>2026-04-19T08:58:56Z</time></trkpt><trkpt lat="37.814939240453604" lon="15.241275240610085"><ele>28.0</ele><time>2026-04-19T08:58:57Z</time></trkpt><trkpt lat="37.81507453907117" lon="15.24146616758922"><ele>27.0</ele><time>2026-04-19T08:58:58Z</time></trkpt><trkpt lat="37.815204031781505" lon="15.241647315398069"><ele>26.0</ele><time>2026-04-19T08:58:59Z</time></trkpt><trkpt lat="37.815325291799304" lon="15.241816928351238"><ele>25.0</ele><time>2026-04-19T08:59:00Z</time></trkpt><trkpt lat="37.81543844732633" lon="15.241967177008316"><ele>25.0</ele><time>2026-04-19T08:59:01Z</time></trkpt><trkpt lat="37.81553803701312" lon="15.242109255035839"><ele>25.0</ele><time>2026-04-19T08:59:02Z</time></trkpt><trkpt lat="37.815625571070726" lon="15.242235094438007"><ele>25.0</ele><time>2026-04-19T08:59:03Z</time></trkpt><trkpt lat="37.81570983731919" lon="15.242352608445483"><ele>25.0</ele><time>2026-04-19T08:59:04Z</time></trkpt><trkpt lat="37.81579113693884" lon="15.242466452826541"><ele>25.0</ele><time>2026-04-19T08:59:05Z</time></trkpt><trkpt lat="37.81586756120276" lon="15.242575751294162"><ele>25.0</ele><time>2026-04-19T08:59:06Z</time></trkpt><trkpt lat="37.81595439617793" lon="15.242693565077007"><ele>25.0</ele><time>2026-04-19T08:59:07Z</time></trkpt><trkpt lat="37.81605159037312" lon="15.242817433340162"><ele>25.0</ele><time>2026-04-19T08:59:08Z</time></trkpt><trkpt lat="37.81614866538699" lon="15.242974301272827"><ele>25.0</ele><time>2026-04-19T08:59:09Z</time></trkpt><trkpt lat="37.81628374117691" lon="15.243133331618177"><ele>25.0</ele><time>2026-04-19T08:59:10Z</time></trkpt><trkpt lat="37.81640490484224" lon="15.24331637722161"><ele>25.0</ele><time>2026-04-19T08:59:11Z</time></trkpt><trkpt lat="37.81652203744721" lon="15.243482732448301"><ele>25.0</ele><time>2026-04-19T08:59:12Z</time></trkpt><trkpt lat="37.81662740515046" lon="15.243632179239208"><ele>25.0</ele><time>2026-04-19T08:59:13Z</time></trkpt><trkpt lat="37.8167263635534" lon="15.243771734870101"><ele>25.0</ele><time>2026-04-19T08:59:14Z</time></trkpt><trkpt lat="37.81682074557723" lon="15.243901223462304"><ele>25.0</ele><time>2026-04-19T08:59:15Z</time></trkpt><trkpt lat="37.81690546062373" lon="15.24401696876527"><ele>25.5</ele><time>2026-04-19T08:59:16Z</time></trkpt><trkpt lat="37.816981969799436" lon="15.244122903008224"><ele>26.0</ele><time>2026-04-19T08:59:17Z</time></trkpt><trkpt lat="37.81706203953195" lon="15.244234369094762"><ele>26.5</ele><time>2026-04-19T08:59:18Z</time></trkpt><trkpt lat="37.81715639754473" lon="15.244356429427633"><ele>27.0</ele><time>2026-04-19T08:59:19Z</time></trkpt><trkpt lat="37.81725132918264" lon="15.244504242036774"><ele>27.0</ele><time>2026-04-19T08:59:20Z</time></trkpt><trkpt lat="37.81734782641891" lon="15.244639038039416"><ele>27.000000000000004</ele><time>2026-04-19T08:59:21Z</time></trkpt><trkpt lat="37.81743351239583" lon="15.2447336764475"><ele>27.000000000000004</ele><time>2026-04-19T08:59:22Z</time></trkpt><trkpt lat="37.81747640054229" lon="15.244832965172694"><ele>27.0</ele><time>2026-04-19T08:59:23Z</time></trkpt><trkpt lat="37.817522732104" lon="15.244913015412429"><ele>27.0</ele><time>2026-04-19T08:59:24Z</time></trkpt><trkpt lat="37.817560836757885" lon="15.244988455078516"><ele>27.0</ele><time>2026-04-19T08:59:25Z</time></trkpt><trkpt lat="37.8175982350232" lon="15.245073232041397"><ele>27.0</ele><time>2026-04-19T08:59:28Z</time></trkpt><trkpt lat="37.81762850539968" lon="15.245148957048311"><ele>27.0</ele><time>2026-04-19T08:59:30Z</time></trkpt><trkpt lat="37.81767749343209" lon="15.245295484330182"><ele>27.0</ele><time>2026-04-19T08:59:32Z</time></trkpt><trkpt lat="37.81770199058493" lon="15.245374076564225"><ele>27.0</ele><time>2026-04-19T08:59:33Z</time></trkpt><trkpt lat="37.81772831512841" lon="15.245458531099326"><ele>27.0</ele><time>2026-04-19T08:59:34Z</time></trkpt><trkpt lat="37.817762480471" lon="15.245568140856188"><ele>26.75</ele><time>2026-04-19T08:59:35Z</time></trkpt><trkpt lat="37.81780249216339" lon="15.24569650816828"><ele>26.5</ele><time>2026-04-19T08:59:36Z</time></trkpt><trkpt lat="37.81784940835725" lon="15.245849849921424"><ele>26.25</ele><time>2026-04-19T08:59:37Z</time></trkpt><trkpt lat="37.81789397580177" lon="15.246004187070493"><ele>26.0</ele><time>2026-04-19T08:59:38Z</time></trkpt><trkpt lat="37.81793623046986" lon="15.246169631790693"><ele>26.0</ele><time>2026-04-19T08:59:39Z</time></trkpt><trkpt lat="37.81797385866976" lon="15.246354835205294"><ele>26.0</ele><time>2026-04-19T08:59:40Z</time></trkpt><trkpt lat="37.81801614678497" lon="15.246567765251822"><ele>26.0</ele><time>2026-04-19T08:59:41Z</time></trkpt><trkpt lat="37.81805959298417" lon="15.246776648763786"><ele>26.25</ele><time>2026-04-19T08:59:42Z</time></trkpt><trkpt lat="37.81809911438707" lon="15.246962805662026"><ele>26.5</ele><time>2026-04-19T08:59:43Z</time></trkpt><trkpt lat="37.81814463814995" lon="15.24710599133316"><ele>26.75</ele><time>2026-04-19T08:59:44Z</time></trkpt><trkpt lat="37.818173373293355" lon="15.247231931627093"><ele>27.0</ele><time>2026-04-19T08:59:45Z</time></trkpt><trkpt lat="37.8182012791999" lon="15.247345024573162"><ele>27.0</ele><time>2026-04-19T08:59:46Z</time></trkpt><trkpt lat="37.81823210944224" lon="15.247450331656824"><ele>27.000000000000004</ele><time>2026-04-19T08:59:47Z</time></trkpt><trkpt lat="37.81826731056641" lon="15.247561802120394"><ele>27.000000000000004</ele><time>2026-04-19T08:59:48Z</time></trkpt><trkpt lat="37.81831478652094" lon="15.24767558391486"><ele>27.0</ele><time>2026-04-19T08:59:49Z</time></trkpt><trkpt lat="37.818367134455784" lon="15.247790931241644"><ele>27.0</ele><time>2026-04-19T08:59:50Z</time></trkpt><trkpt lat="37.81843746665848" lon="15.247906825372926"><ele>27.400000000000002</ele><time>2026-04-19T08:59:51Z</time></trkpt><trkpt lat="37.81848872933324" lon="15.248021862254857"><ele>27.800000000000004</ele><time>2026-04-19T08:59:52Z</time></trkpt><trkpt lat="37.818552379611845" lon="15.248145514130206"><ele>28.2</ele><time>2026-04-19T08:59:53Z</time></trkpt><trkpt lat="37.8186108978023" lon="15.248263601986833"><ele>28.6</ele><time>2026-04-19T08:59:54Z</time></trkpt><trkpt lat="37.818673893065" lon="15.248384118778501"><ele>29.0</ele><time>2026-04-19T08:59:55Z</time></trkpt><trkpt lat="37.81870856418458" lon="15.248488845478002"><ele>28.833333333333332</ele><time>2026-04-19T08:59:56Z</time></trkpt><trkpt lat="37.81875840677018" lon="15.24856976895538"><ele>28.666666666666664</ele><time>2026-04-19T08:59:57Z</time></trkpt><trkpt lat="37.818799610189664" lon="15.248653171575567"><ele>28.5</ele><time>2026-04-19T08:59:58Z</time></trkpt><trkpt lat="37.81884236810981" lon="15.248737396226323"><ele>28.333333333333336</ele><time>2026-04-19T08:59:59Z</time></trkpt><trkpt lat="37.81887468972525" lon="15.24882034554288"><ele>28.166666666666668</ele><time>2026-04-19T09:00:00Z</time></trkpt><trkpt lat="37.81891047550782" lon="15.24889932395942"><ele>28.0</ele><time>2026-04-19T09:00:01Z</time></trkpt><trkpt lat="37.818947709499064" lon="15.248978782874836"><ele>28.000000000000004</ele><time>2026-04-19T09:00:02Z</time></trkpt><trkpt lat="37.818984790049065" lon="15.249054031952303"><ele>28.0</ele><time>2026-04-19T09:00:03Z</time></trkpt><trkpt lat="37.819020471697435" lon="15.249119872422156"><ele>28.0</ele><time>2026-04-19T09:00:04Z</time></trkpt><trkpt lat="37.81905881898972" lon="15.249193959665579"><ele>28.0</ele><time>2026-04-19T09:00:06Z</time></trkpt><trkpt lat="37.81910367978588" lon="15.249267959886227"><ele>28.000000000000004</ele><time>2026-04-19T09:00:09Z</time></trkpt><trkpt lat="37.81915685517338" lon="15.249354160176289"><ele>28.0</ele><time>2026-04-19T09:00:11Z</time></trkpt><trkpt lat="37.81922176129412" lon="15.249487880338828"><ele>28.0</ele><time>2026-04-19T09:00:13Z</time></trkpt><trkpt lat="37.81926667374421" lon="15.249597915129957"><ele>27.999999999999996</ele><time>2026-04-19T09:00:14Z</time></trkpt><trkpt lat="37.81931775158634" lon="15.249708356317079"><ele>27.999999999999996</ele><time>2026-04-19T09:00:15Z</time></trkpt><trkpt lat="37.81937686097883" lon="15.249828555589113"><ele>28.0</ele><time>2026-04-19T09:00:16Z</time></trkpt><trkpt lat="37.81944490557529" lon="15.249962891662506"><ele>28.0</ele><time>2026-04-19T09:00:17Z</time></trkpt><trkpt lat="37.819517433950374" lon="15.250104538303747"><ele>29.333333333333336</ele><time>2026-04-19T09:00:18Z</time></trkpt><trkpt lat="37.81960262924969" lon="15.250268806293585"><ele>30.666666666666664</ele><time>2026-04-19T09:00:19Z</time></trkpt><trkpt lat="37.819686296425154" lon="15.250434080901515"><ele>32.0</ele><time>2026-04-19T09:00:20Z</time></trkpt><trkpt lat="37.819771018966534" lon="15.25059740137103"><ele>32.0</ele><time>2026-04-19T09:00:21Z</time></trkpt><trkpt lat="37.81985859479869" lon="15.250759512563274"><ele>32.0</ele><time>2026-04-19T09:00:22Z</time></trkpt><trkpt lat="37.8199421581041" lon="15.250918532572788"><ele>32.0</ele><time>2026-04-19T09:00:23Z</time></trkpt><trkpt lat="37.8200246889693" lon="15.251075210865585"><ele>32.0</ele><time>2026-04-19T09:00:24Z</time></trkpt><trkpt lat="37.82010174140367" lon="15.251224657457428"><ele>32.0</ele><time>2026-04-19T09:00:25Z</time></trkpt><trkpt lat="37.82017108038131" lon="15.25136203608067"><ele>32.0</ele><time>2026-04-19T09:00:26Z</time></trkpt><trkpt lat="37.820232708107596" lon="15.25148915595236"><ele>32.0</ele><time>2026-04-19T09:00:27Z</time></trkpt><trkpt lat="37.82029465303297" lon="15.251610623652383"><ele>32.0</ele><time>2026-04-19T09:00:28Z</time></trkpt><trkpt lat="37.82035669172883" lon="15.25173196957791"><ele>32.0</ele><time>2026-04-19T09:00:29Z</time></trkpt><trkpt lat="37.820421494725004" lon="15.251856257453072"><ele>32.0</ele><time>2026-04-19T09:00:30Z</time></trkpt><trkpt lat="37.82049079020208" lon="15.251990965001507"><ele>32.0</ele><time>2026-04-19T09:00:31Z</time></trkpt><trkpt lat="37.820561113922444" lon="15.25213262188076"><ele>32.0</ele><time>2026-04-19T09:00:32Z</time></trkpt><trkpt lat="37.82062399643711" lon="15.252267747823732"><ele>32.0</ele><time>2026-04-19T09:00:33Z</time></trkpt><trkpt lat="37.82067390841125" lon="15.252399053835552"><ele>32.0</ele><time>2026-04-19T09:00:34Z</time></trkpt><trkpt lat="37.820707716426455" lon="15.252519209536047"><ele>32.0</ele><time>2026-04-19T09:00:35Z</time></trkpt><trkpt lat="37.82073388131096" lon="15.252638115009209"><ele>32.0</ele><time>2026-04-19T09:00:36Z</time></trkpt><trkpt lat="37.82075184855454" lon="15.25275233009355"><ele>31.200000000000003</ele><time>2026-04-19T09:00:37Z</time></trkpt><trkpt lat="37.82078295676041" lon="15.25287865198337"><ele>30.400000000000002</ele><time>2026-04-19T09:00:38Z</time></trkpt><trkpt lat="37.82080420821137" lon="15.253005532367924"><ele>29.599999999999998</ele><time>2026-04-19T09:00:39Z</time></trkpt><trkpt lat="37.820821129465884" lon="15.25313297329934"><ele>28.799999999999997</ele><time>2026-04-19T09:00:40Z</time></trkpt><trkpt lat="37.82083442381189" lon="15.253263440083934"><ele>28.0</ele><time>2026-04-19T09:00:41Z</time></trkpt><trkpt lat="37.82084477500592" lon="15.253405045942625"><ele>27.5</ele><time>2026-04-19T09:00:42Z</time></trkpt><trkpt lat="37.82084646152313" lon="15.253552999831118"><ele>27.0</ele><time>2026-04-19T09:00:43Z</time></trkpt><trkpt lat="37.82083495614025" lon="15.253703928810568"><ele>26.5</ele><time>2026-04-19T09:00:44Z</time></trkpt><trkpt lat="37.82081675646406" lon="15.253866721504437"><ele>26.0</ele><time>2026-04-19T09:00:45Z</time></trkpt><trkpt lat="37.820790051076" lon="15.254028999088053"><ele>26.0</ele><time>2026-04-19T09:00:46Z</time></trkpt><trkpt lat="37.82076911816684" lon="15.254192630289634"><ele>26.0</ele><time>2026-04-19T09:00:47Z</time></trkpt><trkpt lat="37.820749368246005" lon="15.254350234046095"><ele>26.0</ele><time>2026-04-19T09:00:48Z</time></trkpt><trkpt lat="37.820728469381905" lon="15.254503920815651"><ele>26.0</ele><time>2026-04-19T09:00:49Z</time></trkpt><trkpt lat="37.82070625510109" lon="15.254648464891211"><ele>26.0</ele><time>2026-04-19T09:00:50Z</time></trkpt><trkpt lat="37.820683989886064" lon="15.25478452289722"><ele>26.0</ele><time>2026-04-19T09:00:51Z</time></trkpt><trkpt lat="37.820663512158575" lon="15.25492362877339"><ele>26.0</ele><time>2026-04-19T09:00:52Z</time></trkpt><trkpt lat="37.82064275834547" lon="15.255061788673988"><ele>26.0</ele><time>2026-04-19T09:00:53Z</time></trkpt><trkpt lat="37.82062331066211" lon="15.255202484313743"><ele>26.0</ele><time>2026-04-19T09:00:54Z</time></trkpt><trkpt lat="37.82060423764188" lon="15.255329018055292"><ele>25.999999999999996</ele><time>2026-04-19T09:00:55Z</time></trkpt><trkpt lat="37.820587016066156" lon="15.255440612092004"><ele>26.0</ele><time>2026-04-19T09:00:56Z</time></trkpt><trkpt lat="37.820569147133384" lon="15.255545672377327"><ele>26.0</ele><time>2026-04-19T09:00:57Z</time></trkpt><trkpt lat="37.82055219068118" lon="15.255651503530418"><ele>26.0</ele><time>2026-04-19T09:00:58Z</time></trkpt><trkpt lat="37.820536629400834" lon="15.255760967717688"><ele>25.999999999999996</ele><time>2026-04-19T09:00:59Z</time></trkpt><trkpt lat="37.82051886416491" lon="15.25587137045905"><ele>26.0</ele><time>2026-04-19T09:01:00Z</time></trkpt><trkpt lat="37.82050292655302" lon="15.25598009983674"><ele>26.0</ele><time>2026-04-19T09:01:01Z</time></trkpt><trkpt lat="37.82048114520818" lon="15.256086554678205"><ele>26.0</ele><time>2026-04-19T09:01:02Z</time></trkpt><trkpt lat="37.82046241111166" lon="15.256200909889081"><ele>26.0</ele><time>2026-04-19T09:01:03Z</time></trkpt><trkpt lat="37.82044363239787" lon="15.25633067875124"><ele>26.0</ele><time>2026-04-19T09:01:04Z</time></trkpt><trkpt lat="37.82041950004284" lon="15.256468361696278"><ele>26.0</ele><time>2026-04-19T09:01:05Z</time></trkpt><trkpt lat="37.82039728404671" lon="15.256614674206553"><ele>25.6</ele><time>2026-04-19T09:01:06Z</time></trkpt><trkpt lat="37.820376943554834" lon="15.256754895396154"><ele>25.200000000000003</ele><time>2026-04-19T09:01:07Z</time></trkpt><trkpt lat="37.82035942821963" lon="15.256893893720529"><ele>24.799999999999997</ele><time>2026-04-19T09:01:08Z</time></trkpt><trkpt lat="37.82033931125477" lon="15.257027780085037"><ele>24.4</ele><time>2026-04-19T09:01:09Z</time></trkpt><trkpt lat="37.82031888128345" lon="15.257157983354762"><ele>24.0</ele><time>2026-04-19T09:01:10Z</time></trkpt><trkpt lat="37.820305706289986" lon="15.2572755906169"><ele>24.166666666666668</ele><time>2026-04-19T09:01:11Z</time></trkpt><trkpt lat="37.82029738695538" lon="15.257389991177792"><ele>24.333333333333336</ele><time>2026-04-19T09:01:12Z</time></trkpt><trkpt lat="37.82028638711953" lon="15.257495190891406"><ele>24.5</ele><time>2026-04-19T09:01:13Z</time></trkpt><trkpt lat="37.82027578683936" lon="15.257597299584315"><ele>24.666666666666668</ele><time>2026-04-19T09:01:14Z</time></trkpt><trkpt lat="37.8202639648077" lon="15.257707265689534"><ele>24.833333333333336</ele><time>2026-04-19T09:01:15Z</time></trkpt><trkpt lat="37.82026109467293" lon="15.257826154039206"><ele>25.0</ele><time>2026-04-19T09:01:16Z</time></trkpt><trkpt lat="37.82025837044019" lon="15.257948577560775"><ele>25.0</ele><time>2026-04-19T09:01:17Z</time></trkpt><trkpt lat="37.82025232387158" lon="15.25807209946116"><ele>25.0</ele><time>2026-04-19T09:01:18Z</time></trkpt><trkpt lat="37.820251845538024" lon="15.2582020408771"><ele>25.0</ele><time>2026-04-19T09:01:19Z</time></trkpt><trkpt lat="37.82025286014347" lon="15.258333626360008"><ele>25.0</ele><time>2026-04-19T09:01:20Z</time></trkpt><trkpt lat="37.82025570489743" lon="15.258470866103822"><ele>25.0</ele><time>2026-04-19T09:01:21Z</time></trkpt><trkpt lat="37.8202527937905" lon="15.258606608057507"><ele>25.0</ele><time>2026-04-19T09:01:22Z</time></trkpt><trkpt lat="37.820250324687656" lon="15.25873872966262"><ele>25.0</ele><time>2026-04-19T09:01:23Z</time></trkpt><trkpt lat="37.820258099901" lon="15.258872112443585"><ele>25.0</ele><time>2026-04-19T09:01:24Z</time></trkpt><trkpt lat="37.82027038899524" lon="15.25900618226913"><ele>25.0</ele><time>2026-04-19T09:01:25Z</time></trkpt><trkpt lat="37.820280221142255" lon="15.259137988123939"><ele>25.0</ele><time>2026-04-19T09:01:26Z</time></trkpt><trkpt lat="37.82029224375115" lon="15.259270078774446"><ele>25.0</ele><time>2026-04-19T09:01:27Z</time></trkpt><trkpt lat="37.820308007014205" lon="15.259399872844718"><ele>25.0</ele><time>2026-04-19T09:01:28Z</time></trkpt><trkpt lat="37.82032536359894" lon="15.259531461011965"><ele>25.0</ele><time>2026-04-19T09:01:29Z</time></trkpt><trkpt lat="37.82034160164116" lon="15.2596617183388"><ele>25.0</ele><time>2026-04-19T09:01:30Z</time></trkpt><trkpt lat="37.820364004622625" lon="15.259794694294351"><ele>25.0</ele><time>2026-04-19T09:01:31Z</time></trkpt><trkpt lat="37.82038767227418" lon="15.259922847470564"><ele>24.6</ele><time>2026-04-19T09:01:32Z</time></trkpt><trkpt lat="37.82040541950846" lon="15.260044546467999"><ele>24.2</ele><time>2026-04-19T09:01:33Z</time></trkpt><trkpt lat="37.82042604792981" lon="15.26016043350408"><ele>23.799999999999997</ele><time>2026-04-19T09:01:34Z</time></trkpt><trkpt lat="37.82045017369599" lon="15.26027187374062"><ele>23.4</ele><time>2026-04-19T09:01:35Z</time></trkpt><trkpt lat="37.82047495180101" lon="15.26038007746947"><ele>23.0</ele><time>2026-04-19T09:01:36Z</time></trkpt><trkpt lat="37.820501183493846" lon="15.26048445385058"><ele>23.0</ele><time>2026-04-19T09:01:37Z</time></trkpt><trkpt lat="37.820528577309936" lon="15.26058485627016"><ele>23.0</ele><time>2026-04-19T09:01:38Z</time></trkpt><trkpt lat="37.82055873148012" lon="15.26068518919889"><ele>23.0</ele><time>2026-04-19T09:01:39Z</time></trkpt><trkpt lat="37.82058471616797" lon="15.260784569458501"><ele>23.0</ele><time>2026-04-19T09:01:40Z</time></trkpt><trkpt lat="37.82061162762267" lon="15.260878484890723"><ele>23.0</ele><time>2026-04-19T09:01:41Z</time></trkpt><trkpt lat="37.820638945572966" lon="15.26097360286023"><ele>23.0</ele><time>2026-04-19T09:01:42Z</time></trkpt><trkpt lat="37.82066366562193" lon="15.261064861438813"><ele>23.0</ele><time>2026-04-19T09:01:43Z</time></trkpt><trkpt lat="37.820691649295505" lon="15.261160298188294"><ele>23.0</ele><time>2026-04-19T09:01:44Z</time></trkpt><trkpt lat="37.820716431634466" lon="15.261252311288063"><ele>23.0</ele><time>2026-04-19T09:01:45Z</time></trkpt><trkpt lat="37.82074294604595" lon="15.261349158089656"><ele>23.0</ele><time>2026-04-19T09:01:46Z</time></trkpt><trkpt lat="37.820771841692476" lon="15.261442082197773"><ele>23.0</ele><time>2026-04-19T09:01:47Z</time></trkpt><trkpt lat="37.8208027297966" lon="15.261537596827738"><ele>23.0</ele><time>2026-04-19T09:01:48Z</time></trkpt><trkpt lat="37.820824357290526" lon="15.261637508508487"><ele>22.666666666666668</ele><time>2026-04-19T09:01:49Z</time></trkpt><trkpt lat="37.82083589760745" lon="15.261738417862794"><ele>22.333333333333336</ele><time>2026-04-19T09:01:50Z</time></trkpt><trkpt lat="37.820848675870145" lon="15.26184740113632"><ele>22.0</ele><time>2026-04-19T09:01:51Z</time></trkpt><trkpt lat="37.82081707529658" lon="15.261950381195112"><ele>21.666666666666668</ele><time>2026-04-19T09:01:52Z</time></trkpt><trkpt lat="37.82077693931745" lon="15.26204543875508"><ele>21.333333333333332</ele><time>2026-04-19T09:01:53Z</time></trkpt><trkpt lat="37.82074155438099" lon="15.262132990964766"><ele>21.0</ele><time>2026-04-19T09:01:54Z</time></trkpt><trkpt lat="37.82056159333452" lon="15.26212413205624"><ele>21.0</ele><time>2026-04-19T09:01:55Z</time></trkpt><trkpt lat="37.8204639736024" lon="15.262192499601579"><ele>21.0</ele><time>2026-04-19T09:01:56Z</time></trkpt><trkpt lat="37.82034931821203" lon="15.262261802669016"><ele>21.0</ele><time>2026-04-19T09:01:57Z</time></trkpt><trkpt lat="37.82022512727004" lon="15.262322139489084"><ele>21.0</ele><time>2026-04-19T09:01:58Z</time></trkpt><trkpt lat="37.820096829928225" lon="15.262386842377193"><ele>21.5</ele><time>2026-04-19T09:01:59Z</time></trkpt><trkpt lat="37.81997011938088" lon="15.262461810408656"><ele>22.0</ele><time>2026-04-19T09:02:00Z</time></trkpt><trkpt lat="37.819839775584505" lon="15.262549372659757"><ele>22.5</ele><time>2026-04-19T09:02:01Z</time></trkpt><trkpt lat="37.819705340608536" lon="15.262625448187125"><ele>23.0</ele><time>2026-04-19T09:02:02Z</time></trkpt><trkpt lat="37.81957091839585" lon="15.262697006854125"><ele>23.0</ele><time>2026-04-19T09:02:03Z</time></trkpt><trkpt lat="37.81943832547885" lon="15.262771059596503"><ele>23.0</ele><time>2026-04-19T09:02:04Z</time></trkpt><trkpt lat="37.819308613976744" lon="15.262849965194178"><ele>23.0</ele><time>2026-04-19T09:02:05Z</time></trkpt><trkpt lat="37.81917212257673" lon="15.262917783423644"><ele>23.0</ele><time>2026-04-19T09:02:06Z</time></trkpt><trkpt lat="37.819037240736286" lon="15.262968253400063"><ele>22.5</ele><time>2026-04-19T09:02:07Z</time></trkpt><trkpt lat="37.81890843831665" lon="15.263037359286745"><ele>22.0</ele><time>2026-04-19T09:02:08Z</time></trkpt><trkpt lat="37.81878330721658" lon="15.263119547564395"><ele>21.5</ele><time>2026-04-19T09:02:09Z</time></trkpt><trkpt lat="37.81867429590786" lon="15.263234015554453"><ele>21.0</ele><time>2026-04-19T09:02:10Z</time></trkpt><trkpt lat="37.81859242899143" lon="15.26338045252597"><ele>21.0</ele><time>2026-04-19T09:02:11Z</time></trkpt><trkpt lat="37.81853324051927" lon="15.263542758882293"><ele>21.0</ele><time>2026-04-19T09:02:12Z</time></trkpt><trkpt lat="37.81850053163396" lon="15.26371186539136"><ele>21.0</ele><time>2026-04-19T09:02:13Z</time></trkpt><trkpt lat="37.81849512055446" lon="15.263881535315083"><ele>21.0</ele><time>2026-04-19T09:02:14Z</time></trkpt><trkpt lat="37.81849371972863" lon="15.26405024421481"><ele>20.75</ele><time>2026-04-19T09:02:15Z</time></trkpt><trkpt lat="37.818529557813136" lon="15.26421756209726"><ele>20.5</ele><time>2026-04-19T09:02:16Z</time></trkpt><trkpt lat="37.81858031019498" lon="15.264370216592065"><ele>20.25</ele><time>2026-04-19T09:02:17Z</time></trkpt><trkpt lat="37.818631607464006" lon="15.264518556304775"><ele>20.0</ele><time>2026-04-19T09:02:18Z</time></trkpt><trkpt lat="37.81867662380834" lon="15.264650140003972"><ele>20.0</ele><time>2026-04-19T09:02:19Z</time></trkpt><trkpt lat="37.818722971001954" lon="15.264768687281233"><ele>20.0</ele><time>2026-04-19T09:02:20Z</time></trkpt><trkpt lat="37.81873759008158" lon="15.264891805847597"><ele>20.0</ele><time>2026-04-19T09:02:21Z</time></trkpt><trkpt lat="37.8187365151135" lon="15.265007233633405"><ele>20.0</ele><time>2026-04-19T09:02:22Z</time></trkpt><trkpt lat="37.818729044234445" lon="15.265133147420617"><ele>20.0</ele><time>2026-04-19T09:02:23Z</time></trkpt><trkpt lat="37.818709461191" lon="15.265267535995982"><ele>19.5</ele><time>2026-04-19T09:02:24Z</time></trkpt><trkpt lat="37.81866848451436" lon="15.265408615604796"><ele>19.0</ele><time>2026-04-19T09:02:25Z</time></trkpt><trkpt lat="37.818641476163535" lon="15.265556466382531"><ele>18.5</ele><time>2026-04-19T09:02:26Z</time></trkpt><trkpt lat="37.81858752563056" lon="15.265699511988204"><ele>18.0</ele><time>2026-04-19T09:02:27Z</time></trkpt><trkpt lat="37.8185524160418" lon="15.26583508378758"><ele>18.0</ele><time>2026-04-19T09:02:28Z</time></trkpt><trkpt lat="37.81852737543416" lon="15.265964206125311"><ele>18.0</ele><time>2026-04-19T09:02:29Z</time></trkpt><trkpt lat="37.81850015173261" lon="15.266077948690956"><ele>18.0</ele><time>2026-04-19T09:02:30Z</time></trkpt><trkpt lat="37.81848009494377" lon="15.266186567165791"><ele>18.0</ele><time>2026-04-19T09:02:31Z</time></trkpt><trkpt lat="37.81846321360243" lon="15.266271767227085"><ele>18.0</ele><time>2026-04-19T09:02:32Z</time></trkpt><trkpt lat="37.81848367683773" lon="15.266379309109066"><ele>18.0</ele><time>2026-04-19T09:02:34Z</time></trkpt><trkpt lat="37.81856171011476" lon="15.26647744985866"><ele>17.5</ele><time>2026-04-19T09:02:36Z</time></trkpt><trkpt lat="37.81864446211564" lon="15.266503678187998"><ele>17.0</ele><time>2026-04-19T09:02:37Z</time></trkpt><trkpt lat="37.81874069677659" lon="15.266533174830064"><ele>16.5</ele><time>2026-04-19T09:02:38Z</time></trkpt><trkpt lat="37.81886485859495" lon="15.266571231922919"><ele>16.0</ele><time>2026-04-19T09:02:39Z</time></trkpt><trkpt lat="37.81900447351628" lon="15.26661436885722"><ele>16.0</ele><time>2026-04-19T09:02:40Z</time></trkpt><trkpt lat="37.81912994132273" lon="15.266653024555984"><ele>16.0</ele><time>2026-04-19T09:02:41Z</time></trkpt><trkpt lat="37.81926695977008" lon="15.266695238927984"><ele>16.0</ele><time>2026-04-19T09:02:42Z</time></trkpt><trkpt lat="37.81941996219929" lon="15.26672468099403"><ele>16.0</ele><time>2026-04-19T09:02:43Z</time></trkpt><trkpt lat="37.81955905681652" lon="15.266776551616488"><ele>16.0</ele><time>2026-04-19T09:02:44Z</time></trkpt><trkpt lat="37.81969786484799" lon="15.26681591279546"><ele>16.0</ele><time>2026-04-19T09:02:45Z</time></trkpt><trkpt lat="37.819826546713365" lon="15.266854973385515"><ele>16.0</ele><time>2026-04-19T09:02:46Z</time></trkpt><trkpt lat="37.8199458582025" lon="15.26688885898742"><ele>16.0</ele><time>2026-04-19T09:02:47Z</time></trkpt><trkpt lat="37.820052266304685" lon="15.266921524020075"><ele>16.0</ele><time>2026-04-19T09:02:48Z</time></trkpt><trkpt lat="37.820147546144106" lon="15.266955294818615"><ele>16.0</ele><time>2026-04-19T09:02:49Z</time></trkpt><trkpt lat="37.82023637086493" lon="15.266992914985758"><ele>16.0</ele><time>2026-04-19T09:02:50Z</time></trkpt><trkpt lat="37.82032794333431" lon="15.267039525184579"><ele>16.0</ele><time>2026-04-19T09:02:51Z</time></trkpt><trkpt lat="37.82041208568331" lon="15.267100642184511"><ele>16.0</ele><time>2026-04-19T09:02:52Z</time></trkpt><trkpt lat="37.82048868758333" lon="15.267165627672822"><ele>16.0</ele><time>2026-04-19T09:02:53Z</time></trkpt><trkpt lat="37.820560698209725" lon="15.267226937095556"><ele>16.0</ele><time>2026-04-19T09:02:54Z</time></trkpt><trkpt lat="37.82064327686085" lon="15.267271735937548"><ele>16.0</ele><time>2026-04-19T09:02:55Z</time></trkpt><trkpt lat="37.82073504004965" lon="15.267324763800595"><ele>16.0</ele><time>2026-04-19T09:02:56Z</time></trkpt><trkpt lat="37.820811356713875" lon="15.267391817404617"><ele>16.0</ele><time>2026-04-19T09:02:57Z</time></trkpt><trkpt lat="37.8208823531149" lon="15.267469906515009"><ele>16.0</ele><time>2026-04-19T09:02:58Z</time></trkpt><trkpt lat="37.82093516533572" lon="15.267575290963409"><ele>16.0</ele><time>2026-04-19T09:02:59Z</time></trkpt><trkpt lat="37.821009837837295" lon="15.267666681582515"><ele>16.0</ele><time>2026-04-19T09:03:00Z</time></trkpt><trkpt lat="37.82106971220299" lon="15.267772410350553"><ele>16.0</ele><time>2026-04-19T09:03:01Z</time></trkpt><trkpt lat="37.82113356281955" lon="15.26788260719968"><ele>16.0</ele><time>2026-04-19T09:03:02Z</time></trkpt><trkpt lat="37.821189854299746" lon="15.268004728081392"><ele>15.8</ele><time>2026-04-19T09:03:03Z</time></trkpt><trkpt lat="37.82124405290446" lon="15.26813285116057"><ele>15.600000000000001</ele><time>2026-04-19T09:03:04Z</time></trkpt><trkpt lat="37.82129187238341" lon="15.268241841399156"><ele>15.4</ele><time>2026-04-19T09:03:05Z</time></trkpt><trkpt lat="37.821338325067465" lon="15.268349403484006"><ele>15.2</ele><time>2026-04-19T09:03:06Z</time></trkpt><trkpt lat="37.82138055094406" lon="15.268472031951474"><ele>15.0</ele><time>2026-04-19T09:03:07Z</time></trkpt><trkpt lat="37.82142130323465" lon="15.268602402339056"><ele>15.0</ele><time>2026-04-19T09:03:08Z</time></trkpt><trkpt lat="37.821466151544755" lon="15.268734666894296"><ele>15.0</ele><time>2026-04-19T09:03:09Z</time></trkpt><trkpt lat="37.82151422424883" lon="15.268865126092086"><ele>15.0</ele><time>2026-04-19T09:03:10Z</time></trkpt><trkpt lat="37.821564210152516" lon="15.268998881140668"><ele>15.0</ele><time>2026-04-19T09:03:11Z</time></trkpt><trkpt lat="37.82161584504095" lon="15.269132857943577"><ele>15.0</ele><time>2026-04-19T09:03:12Z</time></trkpt><trkpt lat="37.82166534813893" lon="15.269263996137182"><ele>15.0</ele><time>2026-04-19T09:03:13Z</time></trkpt><trkpt lat="37.821716793887795" lon="15.269397314190673"><ele>15.0</ele><time>2026-04-19T09:03:14Z</time></trkpt><trkpt lat="37.821772992278" lon="15.269525536117696"><ele>15.0</ele><time>2026-04-19T09:03:15Z</time></trkpt><trkpt lat="37.82183068395243" lon="15.269644709481573"><ele>15.2</ele><time>2026-04-19T09:03:16Z</time></trkpt><trkpt lat="37.82189153806418" lon="15.269757048666259"><ele>15.4</ele><time>2026-04-19T09:03:17Z</time></trkpt><trkpt lat="37.82194956495545" lon="15.269867278825723"><ele>15.600000000000001</ele><time>2026-04-19T09:03:18Z</time></trkpt><trkpt lat="37.822030657321356" lon="15.269956654508418"><ele>15.8</ele><time>2026-04-19T09:03:19Z</time></trkpt><trkpt lat="37.822113785438255" lon="15.270024863297095"><ele>16.0</ele><time>2026-04-19T09:03:20Z</time></trkpt><trkpt lat="37.82219849059611" lon="15.27009386749426"><ele>15.600000000000001</ele><time>2026-04-19T09:03:21Z</time></trkpt><trkpt lat="37.82229638098792" lon="15.27014519622278"><ele>15.200000000000001</ele><time>2026-04-19T09:03:22Z</time></trkpt><trkpt lat="37.822396621932526" lon="15.27018227696039"><ele>14.799999999999999</ele><time>2026-04-19T09:03:23Z</time></trkpt><trkpt lat="37.82248334573167" lon="15.270218351250202"><ele>14.399999999999999</ele><time>2026-04-19T09:03:24Z</time></trkpt><trkpt lat="37.8225645954757" lon="15.270258744277374"><ele>14.0</ele><time>2026-04-19T09:03:25Z</time></trkpt><trkpt lat="37.82264111078409" lon="15.27029394814074"><ele>14.285714285714285</ele><time>2026-04-19T09:03:26Z</time></trkpt><trkpt lat="37.82271341273084" lon="15.270324546682422"><ele>14.571428571428571</ele><time>2026-04-19T09:03:27Z</time></trkpt><trkpt lat="37.82277781320955" lon="15.270372664257723"><ele>14.857142857142858</ele><time>2026-04-19T09:03:28Z</time></trkpt><trkpt lat="37.82284919921998" lon="15.270385161484484"><ele>15.142857142857142</ele><time>2026-04-19T09:03:29Z</time></trkpt><trkpt lat="37.82291435495209" lon="15.270419653177571"><ele>15.428571428571427</ele><time>2026-04-19T09:03:30Z</time></trkpt><trkpt lat="37.822980238126554" lon="15.270437837548092"><ele>15.714285714285714</ele><time>2026-04-19T09:03:31Z</time></trkpt><trkpt lat="37.8230440437035" lon="15.270452147610927"><ele>16.0</ele><time>2026-04-19T09:03:32Z</time></trkpt><trkpt lat="37.823108277082625" lon="15.270453693799935"><ele>15.999999999999998</ele><time>2026-04-19T09:03:33Z</time></trkpt><trkpt lat="37.82323376426344" lon="15.27043414707306"><ele>16.0</ele><time>2026-04-19T09:03:35Z</time></trkpt><trkpt lat="37.82329641157582" lon="15.270412004712849"><ele>16.0</ele><time>2026-04-19T09:03:36Z</time></trkpt><trkpt lat="37.82335874192419" lon="15.270383928664925"><ele>16.0</ele><time>2026-04-19T09:03:37Z</time></trkpt><trkpt lat="37.82341884276706" lon="15.270352802061376"><ele>15.999999999999998</ele><time>2026-04-19T09:03:38Z</time></trkpt><trkpt lat="37.823522986169145" lon="15.270293790250722"><ele>16.0</ele><time>2026-04-19T09:03:40Z</time></trkpt><trkpt lat="37.82360968408098" lon="15.27026282855619"><ele>15.8</ele><time>2026-04-19T09:03:42Z</time></trkpt><trkpt lat="37.82369576504301" lon="15.27040500912827"><ele>15.600000000000001</ele><time>2026-04-19T09:03:44Z</time></trkpt><trkpt lat="37.82374453584273" lon="15.270530560852125"><ele>15.4</ele><time>2026-04-19T09:03:46Z</time></trkpt><trkpt lat="37.82378436426099" lon="15.270616050172668"><ele>15.2</ele><time>2026-04-19T09:03:48Z</time></trkpt><trkpt lat="37.8238093565676" lon="15.27073088853359"><ele>15.0</ele><time>2026-04-19T09:03:51Z</time></trkpt><trkpt lat="37.82385208889769" lon="15.270830592238926"><ele>13.833333333333334</ele><time>2026-04-19T09:03:54Z</time></trkpt><trkpt lat="37.823881061568905" lon="15.27094407334263"><ele>12.666666666666666</ele><time>2026-04-19T09:03:58Z</time></trkpt><trkpt lat="37.8239314101128" lon="15.271006562125724"><ele>11.5</ele><time>2026-04-19T09:04:00Z</time></trkpt><trkpt lat="37.82388343974038" lon="15.271098683877373"><ele>10.333333333333332</ele><time>2026-04-19T09:04:01Z</time></trkpt><trkpt lat="37.823819275575985" lon="15.271226429536364"><ele>9.166666666666666</ele><time>2026-04-19T09:04:03Z</time></trkpt><trkpt lat="37.823793501428696" lon="15.27131094158969"><ele>8.0</ele><time>2026-04-19T09:04:04Z</time></trkpt><trkpt lat="37.82377484808267" lon="15.271405623056204"><ele>7.2</ele><time>2026-04-19T09:04:05Z</time></trkpt><trkpt lat="37.823775042259705" lon="15.271500122048504"><ele>6.4</ele><time>2026-04-19T09:04:06Z</time></trkpt><trkpt lat="37.823785432397585" lon="15.271582931957889"><ele>5.6000000000000005</ele><time>2026-04-19T09:04:07Z</time></trkpt><trkpt lat="37.82382671896844" lon="15.271705603418253"><ele>4.800000000000001</ele><time>2026-04-19T09:04:09Z</time></trkpt><trkpt lat="37.82382975076692" lon="15.271845530603569"><ele>4.0</ele><time>2026-04-19T09:04:11Z</time></trkpt><trkpt lat="37.823849876452925" lon="15.271963269956785"><ele>3.9999999999999996</ele><time>2026-04-19T09:04:13Z</time></trkpt><trkpt lat="37.82386464872312" lon="15.27205984191173"><ele>4.0</ele><time>2026-04-19T09:04:15Z</time></trkpt><trkpt lat="37.82388160655304" lon="15.272152498128632"><ele>4.0</ele><time>2026-04-19T09:04:17Z</time></trkpt><trkpt lat="37.82388868439506" lon="15.272291160040627"><ele>4.0</ele><time>2026-04-19T09:04:19Z</time></trkpt><trkpt lat="37.823898372203544" lon="15.272372335931243"><ele>3.9999999999999996</ele><time>2026-04-19T09:04:20Z</time></trkpt><trkpt lat="37.8239088354406" lon="15.272461830738058"><ele>4.0</ele><time>2026-04-19T09:04:21Z</time></trkpt><trkpt lat="37.82392223541257" lon="15.272548421340629"><ele>3.8571428571428568</ele><time>2026-04-19T09:04:22Z</time></trkpt><trkpt lat="37.82393401678214" lon="15.272635942609167"><ele>3.714285714285714</ele><time>2026-04-19T09:04:23Z</time></trkpt><trkpt lat="37.82394591105483" lon="15.272723801501225"><ele>3.571428571428571</ele><time>2026-04-19T09:04:24Z</time></trkpt><trkpt lat="37.8239589545463" lon="15.27281201438855"><ele>3.4285714285714284</ele><time>2026-04-19T09:04:25Z</time></trkpt><trkpt lat="37.823969090972675" lon="15.272900724030569"><ele>3.2857142857142856</ele><time>2026-04-19T09:04:26Z</time></trkpt><trkpt lat="37.82397849713168" lon="15.272991428329522"><ele>3.1428571428571423</ele><time>2026-04-19T09:04:27Z</time></trkpt><trkpt lat="37.82398714943566" lon="15.273081128334509"><ele>3.0</ele><time>2026-04-19T09:04:28Z</time></trkpt><trkpt lat="37.82400060830795" lon="15.273176942614159"><ele>2.9999999999999996</ele><time>2026-04-19T09:04:29Z</time></trkpt><trkpt lat="37.824011130466644" lon="15.27327200347378"><ele>3.0</ele><time>2026-04-19T09:04:30Z</time></trkpt><trkpt lat="37.82402187068529" lon="15.273365685734035"><ele>3.0</ele><time>2026-04-19T09:04:31Z</time></trkpt><trkpt lat="37.82403795164596" lon="15.273452962449246"><ele>3.0</ele><time>2026-04-19T09:04:32Z</time></trkpt><trkpt lat="37.82405411481972" lon="15.273531884472494"><ele>3.0</ele><time>2026-04-19T09:04:33Z</time></trkpt><trkpt lat="37.82407323779628" lon="15.27361063851286"><ele>2.9999999999999996</ele><time>2026-04-19T09:04:34Z</time></trkpt><trkpt lat="37.824094679717085" lon="15.273690160525161"><ele>3.0</ele><time>2026-04-19T09:04:35Z</time></trkpt><trkpt lat="37.824121624874635" lon="15.27376521196549"><ele>3.0</ele><time>2026-04-19T09:04:36Z</time></trkpt><trkpt lat="37.82415980155297" lon="15.273836005191782"><ele>3.0</ele><time>2026-04-19T09:04:37Z</time></trkpt><trkpt lat="37.824241344400804" lon="15.273943242510908"><ele>3.0</ele><time>2026-04-19T09:04:39Z</time></trkpt><trkpt lat="37.82432032523498" lon="15.274030008822605"><ele>3.0</ele><time>2026-04-19T09:04:41Z</time></trkpt><trkpt lat="37.82440939784016" lon="15.27409565561931"><ele>3.0</ele><time>2026-04-19T09:04:43Z</time></trkpt><trkpt lat="37.8244829547963" lon="15.274154498596607"><ele>2.5</ele><time>2026-04-19T09:04:45Z</time></trkpt><trkpt lat="37.8245563672308" lon="15.274214171291773"><ele>2.0</ele><time>2026-04-19T09:04:47Z</time></trkpt><trkpt lat="37.824616961173994" lon="15.274274899384409"><ele>1.5</ele><time>2026-04-19T09:04:49Z</time></trkpt><trkpt lat="37.82465725263306" lon="15.274337316156226"><ele>1.0</ele><time>2026-04-19T09:04:51Z</time></trkpt><trkpt lat="37.824695780762234" lon="15.274437816011856"><ele>0.5</ele><time>2026-04-19T09:04:54Z</time></trkpt><trkpt lat="37.82470154432874" lon="15.274525943256933"><ele>0.0</ele><time>2026-04-19T09:04:56Z</time></trkpt><trkpt lat="37.82468358896502" lon="15.274604449227247"><ele>0.0</ele><time>2026-04-19T09:04:58Z</time></trkpt><trkpt lat="37.82458277672645" lon="15.274665725109614"><ele>0.0</ele><time>2026-04-19T09:05:00Z</time></trkpt><trkpt lat="37.82445976178084" lon="15.274715730271216"><ele>0.0</ele><time>2026-04-19T09:05:02Z</time></trkpt><trkpt lat="37.82435112549897" lon="15.274750031954815"><ele>0.0</ele><time>2026-04-19T09:05:04Z</time></trkpt><trkpt lat="37.82424103573219" lon="15.274784038086022"><ele>0.5</ele><time>2026-04-19T09:05:06Z</time></trkpt><trkpt lat="37.824171262031825" lon="15.2748134646337"><ele>1.0</ele><time>2026-04-19T09:05:07Z</time></trkpt><trkpt lat="37.82410086115569" lon="15.27483530944363"><ele>1.5</ele><time>2026-04-19T09:05:08Z</time></trkpt><trkpt lat="37.82402770018921" lon="15.274879978368396"><ele>2.0</ele><time>2026-04-19T09:05:09Z</time></trkpt><trkpt lat="37.82395046650805" lon="15.27493035938809"><ele>2.5</ele><time>2026-04-19T09:05:10Z</time></trkpt><trkpt lat="37.82385536329946" lon="15.274978200789752"><ele>3.0</ele><time>2026-04-19T09:05:11Z</time></trkpt><trkpt lat="37.8237544667504" lon="15.275016489131287"><ele>3.0</ele><time>2026-04-19T09:05:12Z</time></trkpt><trkpt lat="37.82365256227428" lon="15.275048773772829"><ele>3.0</ele><time>2026-04-19T09:05:13Z</time></trkpt><trkpt lat="37.82355734192722" lon="15.275074803967726"><ele>3.0</ele><time>2026-04-19T09:05:14Z</time></trkpt><trkpt lat="37.82347130277182" lon="15.275115049988253"><ele>3.0</ele><time>2026-04-19T09:05:15Z</time></trkpt><trkpt lat="37.82339747421245" lon="15.275170932964421"><ele>3.0</ele><time>2026-04-19T09:05:16Z</time></trkpt><trkpt lat="37.82333945159783" lon="15.275251020143713"><ele>3.0</ele><time>2026-04-19T09:05:17Z</time></trkpt><trkpt lat="37.8232968753627" lon="15.275322263124782"><ele>3.0</ele><time>2026-04-19T09:05:18Z</time></trkpt><trkpt lat="37.8232607990486" lon="15.275388010168635"><ele>3.0</ele><time>2026-04-19T09:05:20Z</time></trkpt><trkpt lat="37.823330939803384" lon="15.275321053645484"><ele>3.0</ele><time>2026-04-19T09:05:28Z</time></trkpt><trkpt lat="37.82334589531783" lon="15.275115462348703"><ele>3.0</ele><time>2026-04-19T09:05:30Z</time></trkpt><trkpt lat="37.823492766182284" lon="15.275151589544839"><ele>3.0</ele><time>2026-04-19T09:05:31Z</time></trkpt><trkpt lat="37.82359588041732" lon="15.275099163327313"><ele>3.0</ele><time>2026-04-19T09:05:33Z</time></trkpt><trkpt lat="37.82366555268933" lon="15.275080256758773"><ele>3.0</ele><time>2026-04-19T09:05:34Z</time></trkpt><trkpt lat="37.823755861274485" lon="15.275025721145706"><ele>3.0</ele><time>2026-04-19T09:05:35Z</time></trkpt><trkpt lat="37.82387327490393" lon="15.274993152001166"><ele>3.0</ele><time>2026-04-19T09:05:36Z</time></trkpt><trkpt lat="37.82401579188486" lon="15.27494666829109"><ele>3.0</ele><time>2026-04-19T09:05:37Z</time></trkpt><trkpt lat="37.82415573166552" lon="15.274896537579217"><ele>3.0</ele><time>2026-04-19T09:05:38Z</time></trkpt><trkpt lat="37.82428521058757" lon="15.274836475474252"><ele>3.0</ele><time>2026-04-19T09:05:39Z</time></trkpt><trkpt lat="37.82439896860309" lon="15.274788009427178"><ele>3.0</ele><time>2026-04-19T09:05:40Z</time></trkpt><trkpt lat="37.82449444176437" lon="15.274751447735037"><ele>2.5</ele><time>2026-04-19T09:05:41Z</time></trkpt><trkpt lat="37.82458408218056" lon="15.274712021547721"><ele>2.0</ele><time>2026-04-19T09:05:42Z</time></trkpt><trkpt lat="37.82465812038641" lon="15.274679549828102"><ele>1.5</ele><time>2026-04-19T09:05:43Z</time></trkpt><trkpt lat="37.82472351557973" lon="15.27464280225315"><ele>1.0</ele><time>2026-04-19T09:05:44Z</time></trkpt><trkpt lat="37.82476867456303" lon="15.2744996361959"><ele>0.5</ele><time>2026-04-19T09:05:46Z</time></trkpt><trkpt lat="37.82474875892694" lon="15.274423473491755"><ele>0.0</ele><time>2026-04-19T09:05:47Z</time></trkpt><trkpt lat="37.824683407116346" lon="15.274275573107436"><ele>0.0</ele><time>2026-04-19T09:05:49Z</time></trkpt><trkpt lat="37.824637893709166" lon="15.274201589421837"><ele>0.0</ele><time>2026-04-19T09:05:50Z</time></trkpt><trkpt lat="37.8245750341546" lon="15.274146387400112"><ele>0.0</ele><time>2026-04-19T09:05:51Z</time></trkpt><trkpt lat="37.82448622802357" lon="15.274089476915634"><ele>0.0</ele><time>2026-04-19T09:05:53Z</time></trkpt><trkpt lat="37.82436210241304" lon="15.274012899501349"><ele>0.0</ele><time>2026-04-19T09:05:55Z</time></trkpt><trkpt lat="37.82428796302728" lon="15.273955034499023"><ele>0.5</ele><time>2026-04-19T09:05:56Z</time></trkpt><trkpt lat="37.824228979879436" lon="15.273883339888744"><ele>1.0</ele><time>2026-04-19T09:05:57Z</time></trkpt><trkpt lat="37.82418987940582" lon="15.273807398796823"><ele>1.5</ele><time>2026-04-19T09:05:58Z</time></trkpt><trkpt lat="37.824156245399564" lon="15.273731833435834"><ele>2.0</ele><time>2026-04-19T09:05:59Z</time></trkpt><trkpt lat="37.82412959316615" lon="15.273659208751582"><ele>2.5</ele><time>2026-04-19T09:06:00Z</time></trkpt><trkpt lat="37.824101905728824" lon="15.27357262957598"><ele>3.0</ele><time>2026-04-19T09:06:01Z</time></trkpt><trkpt lat="37.82407589486824" lon="15.273461575317473"><ele>3.0</ele><time>2026-04-19T09:06:02Z</time></trkpt><trkpt lat="37.82405329354811" lon="15.273325825219771"><ele>3.0</ele><time>2026-04-19T09:06:03Z</time></trkpt><trkpt lat="37.824034073208914" lon="15.27317523842729"><ele>3.0</ele><time>2026-04-19T09:06:04Z</time></trkpt><trkpt lat="37.8240124981317" lon="15.273008009457623"><ele>3.0</ele><time>2026-04-19T09:06:05Z</time></trkpt><trkpt lat="37.82400269503455" lon="15.272847321725175"><ele>3.0</ele><time>2026-04-19T09:06:06Z</time></trkpt><trkpt lat="37.82398503395418" lon="15.272697071658326"><ele>3.0</ele><time>2026-04-19T09:06:07Z</time></trkpt><trkpt lat="37.82397353820186" lon="15.272565185328892"><ele>3.0</ele><time>2026-04-19T09:06:08Z</time></trkpt><trkpt lat="37.82395930318069" lon="15.272453253915515"><ele>3.0</ele><time>2026-04-19T09:06:09Z</time></trkpt><trkpt lat="37.823944239233896" lon="15.27234234936031"><ele>3.0</ele><time>2026-04-19T09:06:10Z</time></trkpt><trkpt lat="37.82392184425575" lon="15.272235012793924"><ele>3.1666666666666665</ele><time>2026-04-19T09:06:11Z</time></trkpt><trkpt lat="37.82390925782574" lon="15.272132124254624"><ele>3.333333333333333</ele><time>2026-04-19T09:06:12Z</time></trkpt><trkpt lat="37.82390008806968" lon="15.272020958104353"><ele>3.5</ele><time>2026-04-19T09:06:13Z</time></trkpt><trkpt lat="37.823895761776235" lon="15.27190416441618"><ele>3.6666666666666665</ele><time>2026-04-19T09:06:14Z</time></trkpt><trkpt lat="37.82388150717047" lon="15.271795195635123"><ele>3.833333333333333</ele><time>2026-04-19T09:06:15Z</time></trkpt><trkpt lat="37.82387152484841" lon="15.271690331012499"><ele>4.0</ele><time>2026-04-19T09:06:16Z</time></trkpt><trkpt lat="37.82385862252655" lon="15.271590103805245"><ele>3.9999999999999996</ele><time>2026-04-19T09:06:17Z</time></trkpt><trkpt lat="37.82384852442602" lon="15.271496972829032"><ele>4.0</ele><time>2026-04-19T09:06:18Z</time></trkpt><trkpt lat="37.82383888596932" lon="15.271405072811264"><ele>4.0</ele><time>2026-04-19T09:06:19Z</time></trkpt><trkpt lat="37.82384420266295" lon="15.271316032225926"><ele>4.0</ele><time>2026-04-19T09:06:20Z</time></trkpt><trkpt lat="37.823880356938616" lon="15.271231425012394"><ele>3.9999999999999996</ele><time>2026-04-19T09:06:21Z</time></trkpt><trkpt lat="37.823925796890016" lon="15.271144145773182"><ele>4.0</ele><time>2026-04-19T09:06:22Z</time></trkpt><trkpt lat="37.82397587658088" lon="15.271048557027164"><ele>4.800000000000001</ele><time>2026-04-19T09:06:23Z</time></trkpt><trkpt lat="37.82401032942302" lon="15.270942720121775"><ele>5.6000000000000005</ele><time>2026-04-19T09:06:24Z</time></trkpt><trkpt lat="37.82407190335128" lon="15.270864714592355"><ele>6.4</ele><time>2026-04-19T09:06:25Z</time></trkpt><trkpt lat="37.82415035497402" lon="15.270820788479014"><ele>7.2</ele><time>2026-04-19T09:06:26Z</time></trkpt><trkpt lat="37.824216350107164" lon="15.270742316884336"><ele>8.0</ele><time>2026-04-19T09:06:27Z</time></trkpt><trkpt lat="37.82429412178683" lon="15.270668791600716"><ele>7.6000000000000005</ele><time>2026-04-19T09:06:28Z</time></trkpt><trkpt lat="37.82437323824383" lon="15.27059043864305"><ele>7.200000000000001</ele><time>2026-04-19T09:06:29Z</time></trkpt><trkpt lat="37.82444753547656" lon="15.27051660851132"><ele>6.8</ele><time>2026-04-19T09:06:30Z</time></trkpt><trkpt lat="37.82452039573742" lon="15.27044602089173"><ele>6.4</ele><time>2026-04-19T09:06:31Z</time></trkpt><trkpt lat="37.8245925943229" lon="15.270386921250193"><ele>6.0</ele><time>2026-04-19T09:06:32Z</time></trkpt><trkpt lat="37.82465644511691" lon="15.270330558066643"><ele>6.0</ele><time>2026-04-19T09:06:33Z</time></trkpt><trkpt lat="37.82471603114254" lon="15.270273622334537"><ele>6.0</ele><time>2026-04-19T09:06:34Z</time></trkpt><trkpt lat="37.82477186664385" lon="15.270222447969537"><ele>6.0</ele><time>2026-04-19T09:06:35Z</time></trkpt><trkpt lat="37.824829471152675" lon="15.270172191331792"><ele>6.0</ele><time>2026-04-19T09:06:36Z</time></trkpt><trkpt lat="37.82489207745426" lon="15.270114687412953"><ele>6.0</ele><time>2026-04-19T09:06:37Z</time></trkpt><trkpt lat="37.82495442963551" lon="15.270049887340534"><ele>6.0</ele><time>2026-04-19T09:06:38Z</time></trkpt><trkpt lat="37.82502124994512" lon="15.269991477996152"><ele>6.0</ele><time>2026-04-19T09:06:39Z</time></trkpt><trkpt lat="37.82508307444216" lon="15.26993199811874"><ele>6.0</ele><time>2026-04-19T09:06:40Z</time></trkpt><trkpt lat="37.825140954643125" lon="15.26987976480768"><ele>6.0</ele><time>2026-04-19T09:06:41Z</time></trkpt><trkpt lat="37.82519317675445" lon="15.269813119225018"><ele>6.0</ele><time>2026-04-19T09:06:42Z</time></trkpt><trkpt lat="37.82525528166913" lon="15.269772141983116"><ele>6.0</ele><time>2026-04-19T09:06:43Z</time></trkpt><trkpt lat="37.82530555106636" lon="15.269718683096663"><ele>6.0</ele><time>2026-04-19T09:06:44Z</time></trkpt><trkpt lat="37.8253975887556" lon="15.269634559780103"><ele>6.5</ele><time>2026-04-19T09:06:46Z</time></trkpt><trkpt lat="37.82548110836093" lon="15.269553310558996"><ele>7.0</ele><time>2026-04-19T09:06:48Z</time></trkpt><trkpt lat="37.82555288004739" lon="15.269483615781816"><ele>7.5</ele><time>2026-04-19T09:06:50Z</time></trkpt><trkpt lat="37.8255893930482" lon="15.269405301717379"><ele>8.0</ele><time>2026-04-19T09:06:52Z</time></trkpt><trkpt lat="37.8256704484787" lon="15.26939051617775"><ele>8.5</ele><time>2026-04-19T09:06:56Z</time></trkpt><trkpt lat="37.825737888536686" lon="15.269353757353754"><ele>9.0</ele><time>2026-04-19T09:07:07Z</time></trkpt><trkpt lat="37.825793539514784" lon="15.2693008106077"><ele>9.0</ele><time>2026-04-19T09:07:09Z</time></trkpt><trkpt lat="37.82588967277314" lon="15.269246388149599"><ele>9.0</ele><time>2026-04-19T09:07:11Z</time></trkpt><trkpt lat="37.82599423677875" lon="15.26920957909733"><ele>9.0</ele><time>2026-04-19T09:07:13Z</time></trkpt><trkpt lat="37.82608302593467" lon="15.269194482898786"><ele>9.0</ele><time>2026-04-19T09:07:15Z</time></trkpt><trkpt lat="37.82614835535449" lon="15.269159842105699"><ele>9.0</ele><time>2026-04-19T09:07:18Z</time></trkpt><trkpt lat="37.82622935586084" lon="15.269132296609985"><ele>8.666666666666666</ele><time>2026-04-19T09:07:22Z</time></trkpt><trkpt lat="37.826296700760906" lon="15.269109976824305"><ele>8.333333333333334</ele><time>2026-04-19T09:07:24Z</time></trkpt><trkpt lat="37.82636986932082" lon="15.269105830011467"><ele>8.0</ele><time>2026-04-19T09:07:26Z</time></trkpt><trkpt lat="37.826431237223446" lon="15.26907315770982"><ele>7.666666666666667</ele><time>2026-04-19T09:07:28Z</time></trkpt><trkpt lat="37.82650688291936" lon="15.269045613763351"><ele>7.333333333333334</ele><time>2026-04-19T09:07:30Z</time></trkpt><trkpt lat="37.82661118491877" lon="15.26900322500088"><ele>7.0</ele><time>2026-04-19T09:07:32Z</time></trkpt><trkpt lat="37.82668457757933" lon="15.268983735728098"><ele>7.0</ele><time>2026-04-19T09:07:34Z</time></trkpt><trkpt lat="37.82676379703955" lon="15.268955525609453"><ele>7.0</ele><time>2026-04-19T09:07:37Z</time></trkpt><trkpt lat="37.82682001650525" lon="15.268914267459689"><ele>7.0</ele><time>2026-04-19T09:07:39Z</time></trkpt><trkpt lat="37.82690376710698" lon="15.268895611788238"><ele>7.0</ele><time>2026-04-19T09:07:41Z</time></trkpt><trkpt lat="37.82696812950714" lon="15.26888405483242"><ele>7.0</ele><time>2026-04-19T09:07:44Z</time></trkpt><trkpt lat="37.827045073948135" lon="15.268854922828965"><ele>7.0</ele><time>2026-04-19T09:07:47Z</time></trkpt><trkpt lat="37.82711549936731" lon="15.268850945419963"><ele>7.0</ele><time>2026-04-19T09:07:52Z</time></trkpt><trkpt lat="37.827196565314416" lon="15.26882448468533"><ele>8.0</ele><time>2026-04-19T09:07:55Z</time></trkpt><trkpt lat="37.82729753211031" lon="15.268782981152187"><ele>9.0</ele><time>2026-04-19T09:07:57Z</time></trkpt><trkpt lat="37.827402470695176" lon="15.268743703748278"><ele>10.0</ele><time>2026-04-19T09:07:59Z</time></trkpt><trkpt lat="37.82751017963194" lon="15.268713431530161"><ele>11.0</ele><time>2026-04-19T09:08:01Z</time></trkpt><trkpt lat="37.82761487639964" lon="15.268711083700508"><ele>12.0</ele><time>2026-04-19T09:08:03Z</time></trkpt><trkpt lat="37.827712662814534" lon="15.268697472372557"><ele>12.0</ele><time>2026-04-19T09:08:05Z</time></trkpt><trkpt lat="37.82778877193856" lon="15.268698616181192"><ele>12.0</ele><time>2026-04-19T09:08:10Z</time></trkpt><trkpt lat="37.827867134443075" lon="15.268691098819932"><ele>12.0</ele><time>2026-04-19T09:08:13Z</time></trkpt><trkpt lat="37.827935447781655" lon="15.268697603892365"><ele>12.0</ele><time>2026-04-19T09:08:15Z</time></trkpt><trkpt lat="37.82804569938703" lon="15.268696986497217"><ele>12.0</ele><time>2026-04-19T09:08:17Z</time></trkpt><trkpt lat="37.8281689631957" lon="15.268693837261223"><ele>12.0</ele><time>2026-04-19T09:08:19Z</time></trkpt><trkpt lat="37.82824104888048" lon="15.26870327616737"><ele>12.0</ele><time>2026-04-19T09:08:20Z</time></trkpt><trkpt lat="37.82831389466954" lon="15.26869046953834"><ele>12.0</ele><time>2026-04-19T09:08:21Z</time></trkpt><trkpt lat="37.828408461174654" lon="15.268706402827904"><ele>12.0</ele><time>2026-04-19T09:08:23Z</time></trkpt><trkpt lat="37.82850008003336" lon="15.268700857773137"><ele>12.0</ele><time>2026-04-19T09:08:25Z</time></trkpt><trkpt lat="37.828602300831584" lon="15.268709613766166"><ele>12.0</ele><time>2026-04-19T09:08:27Z</time></trkpt><trkpt lat="37.82869624704218" lon="15.268703620334207"><ele>12.6</ele><time>2026-04-19T09:08:30Z</time></trkpt><trkpt lat="37.828800022362834" lon="15.268719587491447"><ele>13.2</ele><time>2026-04-19T09:08:32Z</time></trkpt><trkpt lat="37.828878794828" lon="15.268727381763155"><ele>13.8</ele><time>2026-04-19T09:08:36Z</time></trkpt><trkpt lat="37.828950193047284" lon="15.268727953667343"><ele>14.4</ele><time>2026-04-19T09:08:40Z</time></trkpt><trkpt lat="37.829043057516536" lon="15.268741646077352"><ele>15.0</ele><time>2026-04-19T09:08:46Z</time></trkpt><trkpt lat="37.829167271801936" lon="15.268739844867294"><ele>15.0</ele><time>2026-04-19T09:08:48Z</time></trkpt><trkpt lat="37.829233176521434" lon="15.268746942053829"><ele>15.0</ele><time>2026-04-19T09:08:49Z</time></trkpt><trkpt lat="37.829299126896586" lon="15.26875042459278"><ele>15.0</ele><time>2026-04-19T09:08:50Z</time></trkpt><trkpt lat="37.829413554792445" lon="15.268765834645667"><ele>15.0</ele><time>2026-04-19T09:08:52Z</time></trkpt><trkpt lat="37.82949431026555" lon="15.268782542638544"><ele>15.0</ele><time>2026-04-19T09:08:54Z</time></trkpt><trkpt lat="37.82956486582763" lon="15.268796760724394"><ele>15.0</ele><time>2026-04-19T09:08:56Z</time></trkpt><trkpt lat="37.829654773625954" lon="15.26881128712314"><ele>15.4</ele><time>2026-04-19T09:08:58Z</time></trkpt><trkpt lat="37.829757177350416" lon="15.268829503095413"><ele>15.8</ele><time>2026-04-19T09:09:00Z</time></trkpt><trkpt lat="37.82988741979217" lon="15.268854890019368"><ele>16.2</ele><time>2026-04-19T09:09:02Z</time></trkpt><trkpt lat="37.829957291554116" lon="15.268875561604247"><ele>16.6</ele><time>2026-04-19T09:09:03Z</time></trkpt><trkpt lat="37.83003205437839" lon="15.268899489720223"><ele>17.0</ele><time>2026-04-19T09:09:04Z</time></trkpt><trkpt lat="37.830109053201454" lon="15.268918383304705"><ele>16.999999999999996</ele><time>2026-04-19T09:09:05Z</time></trkpt><trkpt lat="37.830175433278825" lon="15.26893703947501"><ele>17.0</ele><time>2026-04-19T09:09:06Z</time></trkpt><trkpt lat="37.830248305410876" lon="15.26895690627466"><ele>17.0</ele><time>2026-04-19T09:09:08Z</time></trkpt><trkpt lat="37.830312797789006" lon="15.268984297656784"><ele>17.0</ele><time>2026-04-19T09:09:10Z</time></trkpt><trkpt lat="37.830376863647686" lon="15.269003916551908"><ele>17.0</ele><time>2026-04-19T09:09:12Z</time></trkpt><trkpt lat="37.83044238058372" lon="15.269025487075766"><ele>16.999999999999996</ele><time>2026-04-19T09:09:15Z</time></trkpt><trkpt lat="37.830535082190885" lon="15.269044012315359"><ele>17.0</ele><time>2026-04-19T09:09:18Z</time></trkpt><trkpt lat="37.83064294910981" lon="15.269103960920763"><ele>15.833333333333334</ele><time>2026-04-19T09:09:20Z</time></trkpt><trkpt lat="37.83071651466029" lon="15.269116150810438"><ele>14.666666666666668</ele><time>2026-04-19T09:09:21Z</time></trkpt><trkpt lat="37.83078852346028" lon="15.269145752589777"><ele>13.5</ele><time>2026-04-19T09:09:22Z</time></trkpt><trkpt lat="37.83085906638288" lon="15.269194534898823"><ele>12.333333333333334</ele><time>2026-04-19T09:09:23Z</time></trkpt><trkpt lat="37.83094577580653" lon="15.26923529861767"><ele>11.166666666666668</ele><time>2026-04-19T09:09:24Z</time></trkpt><trkpt lat="37.831020626036896" lon="15.269250090820204"><ele>10.0</ele><time>2026-04-19T09:09:25Z</time></trkpt><trkpt lat="37.83112999984842" lon="15.269311206216997"><ele>10.0</ele><time>2026-04-19T09:09:27Z</time></trkpt><trkpt lat="37.83118858839794" lon="15.269344441793033"><ele>10.0</ele><time>2026-04-19T09:09:28Z</time></trkpt><trkpt lat="37.831246226805405" lon="15.269376605974598"><ele>10.0</ele><time>2026-04-19T09:09:29Z</time></trkpt><trkpt lat="37.83130395666945" lon="15.26941101571133"><ele>10.0</ele><time>2026-04-19T09:09:30Z</time></trkpt><trkpt lat="37.83136488494071" lon="15.269444127324233"><ele>10.0</ele><time>2026-04-19T09:09:31Z</time></trkpt><trkpt lat="37.83142844266336" lon="15.26949161213583"><ele>10.0</ele><time>2026-04-19T09:09:32Z</time></trkpt><trkpt lat="37.831501833354736" lon="15.269533676342736"><ele>10.0</ele><time>2026-04-19T09:09:33Z</time></trkpt><trkpt lat="37.8315873619865" lon="15.269583302929862"><ele>10.0</ele><time>2026-04-19T09:09:34Z</time></trkpt><trkpt lat="37.83168838748913" lon="15.269644002866748"><ele>10.0</ele><time>2026-04-19T09:09:35Z</time></trkpt><trkpt lat="37.831786665810235" lon="15.269703052169884"><ele>10.0</ele><time>2026-04-19T09:09:36Z</time></trkpt><trkpt lat="37.83186554738384" lon="15.269733890631098"><ele>10.0</ele><time>2026-04-19T09:09:37Z</time></trkpt><trkpt lat="37.83192498487087" lon="15.269770629720288"><ele>10.0</ele><time>2026-04-19T09:09:38Z</time></trkpt><trkpt lat="37.832005343250906" lon="15.269822344598317"><ele>8.8</ele><time>2026-04-19T09:09:40Z</time></trkpt><trkpt lat="37.83206907623066" lon="15.269885301914323"><ele>7.6</ele><time>2026-04-19T09:09:42Z</time></trkpt><trkpt lat="37.83218646403039" lon="15.269967437810118"><ele>6.4</ele><time>2026-04-19T09:09:44Z</time></trkpt><trkpt lat="37.83227175285234" lon="15.270010015234135"><ele>5.2</ele><time>2026-04-19T09:09:45Z</time></trkpt><trkpt lat="37.83236658321741" lon="15.270086361729735"><ele>4.0</ele><time>2026-04-19T09:09:47Z</time></trkpt><trkpt lat="37.83244288329147" lon="15.270141479506577"><ele>4.0</ele><time>2026-04-19T09:09:49Z</time></trkpt><trkpt lat="37.832525805967165" lon="15.270204473655168"><ele>4.0</ele><time>2026-04-19T09:09:51Z</time></trkpt><trkpt lat="37.832625719384104" lon="15.27028508504261"><ele>4.0</ele><time>2026-04-19T09:09:53Z</time></trkpt><trkpt lat="37.83269383148191" lon="15.270340050878678"><ele>4.0</ele><time>2026-04-19T09:09:54Z</time></trkpt><trkpt lat="37.83277003698077" lon="15.270425224781462"><ele>4.0</ele><time>2026-04-19T09:09:55Z</time></trkpt><trkpt lat="37.83286510807954" lon="15.270493683366436"><ele>4.5</ele><time>2026-04-19T09:09:56Z</time></trkpt><trkpt lat="37.832965537483474" lon="15.270578944760194"><ele>5.0</ele><time>2026-04-19T09:09:57Z</time></trkpt><trkpt lat="37.83307315377914" lon="15.270666880906084"><ele>5.5</ele><time>2026-04-19T09:09:58Z</time></trkpt><trkpt lat="37.833191149606186" lon="15.270768598355694"><ele>6.0</ele><time>2026-04-19T09:09:59Z</time></trkpt><trkpt lat="37.83331094067486" lon="15.270867095568644"><ele>6.0</ele><time>2026-04-19T09:10:00Z</time></trkpt><trkpt lat="37.83342727992721" lon="15.270962794754558"><ele>6.0</ele><time>2026-04-19T09:10:01Z</time></trkpt><trkpt lat="37.83354102694215" lon="15.271053417374498"><ele>6.0</ele><time>2026-04-19T09:10:02Z</time></trkpt><trkpt lat="37.83365145821875" lon="15.271140794586374"><ele>6.0</ele><time>2026-04-19T09:10:03Z</time></trkpt><trkpt lat="37.83375736118144" lon="15.271225342920008"><ele>6.199999999999999</ele><time>2026-04-19T09:10:04Z</time></trkpt><trkpt lat="37.8338579388809" lon="15.27130080401122"><ele>6.3999999999999995</ele><time>2026-04-19T09:10:05Z</time></trkpt><trkpt lat="37.83395434751347" lon="15.27136842840794"><ele>6.6</ele><time>2026-04-19T09:10:06Z</time></trkpt><trkpt lat="37.8340470372061" lon="15.271430875822775"><ele>6.8</ele><time>2026-04-19T09:10:07Z</time></trkpt><trkpt lat="37.83413541233932" lon="15.27148851002106"><ele>7.0</ele><time>2026-04-19T09:10:08Z</time></trkpt><trkpt lat="37.83421998984807" lon="15.271547212569903"><ele>7.0</ele><time>2026-04-19T09:10:09Z</time></trkpt><trkpt lat="37.83430301728846" lon="15.271599797693334"><ele>6.999999999999999</ele><time>2026-04-19T09:10:10Z</time></trkpt><trkpt lat="37.83438156733017" lon="15.271646817662361"><ele>6.999999999999999</ele><time>2026-04-19T09:10:11Z</time></trkpt><trkpt lat="37.83445200012342" lon="15.271689789431932"><ele>7.0</ele><time>2026-04-19T09:10:12Z</time></trkpt><trkpt lat="37.8345142348086" lon="15.271733067017228"><ele>7.0</ele><time>2026-04-19T09:10:13Z</time></trkpt><trkpt lat="37.83462378942595" lon="15.271800191620198"><ele>7.166666666666667</ele><time>2026-04-19T09:10:15Z</time></trkpt><trkpt lat="37.83471753434479" lon="15.271859808000523"><ele>7.333333333333334</ele><time>2026-04-19T09:10:17Z</time></trkpt><trkpt lat="37.83479890537511" lon="15.271917183300747"><ele>7.5</ele><time>2026-04-19T09:10:19Z</time></trkpt><trkpt lat="37.83487639078489" lon="15.271968470014409"><ele>7.666666666666666</ele><time>2026-04-19T09:10:21Z</time></trkpt><trkpt lat="37.834959703692185" lon="15.272022931110095"><ele>7.833333333333333</ele><time>2026-04-19T09:10:23Z</time></trkpt><trkpt lat="37.83501837834978" lon="15.27205546187155"><ele>8.0</ele><time>2026-04-19T09:10:24Z</time></trkpt><trkpt lat="37.83508319205324" lon="15.272088838219812"><ele>7.833333333333333</ele><time>2026-04-19T09:10:25Z</time></trkpt><trkpt lat="37.835153210159376" lon="15.272133237064898"><ele>7.666666666666666</ele><time>2026-04-19T09:10:26Z</time></trkpt><trkpt lat="37.83522925117461" lon="15.272184665359227"><ele>7.5</ele><time>2026-04-19T09:10:27Z</time></trkpt><trkpt lat="37.835310680097336" lon="15.272235877598987"><ele>7.333333333333334</ele><time>2026-04-19T09:10:28Z</time></trkpt><trkpt lat="37.83538718608234" lon="15.272287923932486"><ele>7.166666666666667</ele><time>2026-04-19T09:10:29Z</time></trkpt><trkpt lat="37.83545746188294" lon="15.272336384637192"><ele>7.0</ele><time>2026-04-19T09:10:30Z</time></trkpt><trkpt lat="37.835521024691324" lon="15.272380400087863"><ele>7.0</ele><time>2026-04-19T09:10:31Z</time></trkpt><trkpt lat="37.835581350897804" lon="15.272411745787007"><ele>6.999999999999999</ele><time>2026-04-19T09:10:32Z</time></trkpt><trkpt lat="37.835686349360024" lon="15.272464684664135"><ele>6.999999999999999</ele><time>2026-04-19T09:10:34Z</time></trkpt><trkpt lat="37.835771789206795" lon="15.27253357847715"><ele>7.0</ele><time>2026-04-19T09:10:36Z</time></trkpt><trkpt lat="37.8358527655502" lon="15.272615766224968"><ele>7.0</ele><time>2026-04-19T09:10:38Z</time></trkpt><trkpt lat="37.83589505738304" lon="15.272681874225883"><ele>7.0</ele><time>2026-04-19T09:10:39Z</time></trkpt><trkpt lat="37.83593167147541" lon="15.272761602069437"><ele>7.0</ele><time>2026-04-19T09:10:40Z</time></trkpt><trkpt lat="37.835978469825854" lon="15.272839797821161"><ele>7.0</ele><time>2026-04-19T09:10:41Z</time></trkpt><trkpt lat="37.83602861268242" lon="15.272911285760966"><ele>7.0</ele><time>2026-04-19T09:10:42Z</time></trkpt><trkpt lat="37.836076898668985" lon="15.272974846405042"><ele>7.0</ele><time>2026-04-19T09:10:43Z</time></trkpt><trkpt lat="37.836121751450605" lon="15.273031139283107"><ele>7.0</ele><time>2026-04-19T09:10:44Z</time></trkpt><trkpt lat="37.83616794542806" lon="15.273090152657188"><ele>7.0</ele><time>2026-04-19T09:10:45Z</time></trkpt><trkpt lat="37.83621928785627" lon="15.2731498813723"><ele>7.666666666666667</ele><time>2026-04-19T09:10:46Z</time></trkpt><trkpt lat="37.836267420411026" lon="15.273212971719817"><ele>8.333333333333334</ele><time>2026-04-19T09:10:47Z</time></trkpt><trkpt lat="37.83631983446324" lon="15.27328417769087"><ele>9.0</ele><time>2026-04-19T09:10:48Z</time></trkpt><trkpt lat="37.836373323639954" lon="15.27335371463491"><ele>9.666666666666666</ele><time>2026-04-19T09:10:49Z</time></trkpt><trkpt lat="37.83642740680486" lon="15.273428522717076"><ele>10.333333333333332</ele><time>2026-04-19T09:10:50Z</time></trkpt><trkpt lat="37.836485927791" lon="15.273510621785034"><ele>11.0</ele><time>2026-04-19T09:10:51Z</time></trkpt><trkpt lat="37.836548783364556" lon="15.273594183247898"><ele>11.0</ele><time>2026-04-19T09:10:52Z</time></trkpt><trkpt lat="37.83661688091843" lon="15.273677544106034"><ele>11.0</ele><time>2026-04-19T09:10:53Z</time></trkpt><trkpt lat="37.83668358681887" lon="15.27375991910829"><ele>11.0</ele><time>2026-04-19T09:10:54Z</time></trkpt><trkpt lat="37.83674806157382" lon="15.273844194645037"><ele>11.0</ele><time>2026-04-19T09:10:55Z</time></trkpt><trkpt lat="37.83681209638573" lon="15.273933700745452"><ele>11.0</ele><time>2026-04-19T09:10:56Z</time></trkpt><trkpt lat="37.83687481121024" lon="15.27402497477456"><ele>11.666666666666666</ele><time>2026-04-19T09:10:57Z</time></trkpt><trkpt lat="37.83693358990042" lon="15.274110364291719"><ele>12.333333333333332</ele><time>2026-04-19T09:10:58Z</time></trkpt><trkpt lat="37.83698586168737" lon="15.274181159453"><ele>13.0</ele><time>2026-04-19T09:10:59Z</time></trkpt><trkpt lat="37.83703351245164" lon="15.274251124705984"><ele>13.666666666666666</ele><time>2026-04-19T09:11:00Z</time></trkpt><trkpt lat="37.83708693905643" lon="15.2743228243998"><ele>14.333333333333334</ele><time>2026-04-19T09:11:01Z</time></trkpt><trkpt lat="37.83714166960095" lon="15.274393023458495"><ele>15.0</ele><time>2026-04-19T09:11:02Z</time></trkpt><trkpt lat="37.83719461391617" lon="15.274456767811452"><ele>15.0</ele><time>2026-04-19T09:11:03Z</time></trkpt><trkpt lat="37.8372659286976" lon="15.274555574507632"><ele>15.0</ele><time>2026-04-19T09:11:05Z</time></trkpt><trkpt lat="37.8373279616589" lon="15.274641494322417"><ele>15.0</ele><time>2026-04-19T09:11:07Z</time></trkpt><trkpt lat="37.83740370619316" lon="15.274745646574036"><ele>15.0</ele><time>2026-04-19T09:11:09Z</time></trkpt><trkpt lat="37.83744852722559" lon="15.274806413002935"><ele>15.0</ele><time>2026-04-19T09:11:10Z</time></trkpt><trkpt lat="37.83749928079545" lon="15.27487662145905"><ele>15.5</ele><time>2026-04-19T09:11:11Z</time></trkpt><trkpt lat="37.83755386089238" lon="15.27495443435466"><ele>16.0</ele><time>2026-04-19T09:11:12Z</time></trkpt><trkpt lat="37.83761550968965" lon="15.275036857448773"><ele>16.5</ele><time>2026-04-19T09:11:13Z</time></trkpt><trkpt lat="37.8376771352202" lon="15.275119162764925"><ele>17.0</ele><time>2026-04-19T09:11:14Z</time></trkpt><trkpt lat="37.83773064080416" lon="15.275190976263202"><ele>17.5</ele><time>2026-04-19T09:11:15Z</time></trkpt><trkpt lat="37.83778650130575" lon="15.2752686006301"><ele>18.0</ele><time>2026-04-19T09:11:16Z</time></trkpt><trkpt lat="37.83786101124099" lon="15.27536440968017"><ele>18.0</ele><time>2026-04-19T09:11:17Z</time></trkpt><trkpt lat="37.83796026756177" lon="15.275491711916107"><ele>18.0</ele><time>2026-04-19T09:11:18Z</time></trkpt><trkpt lat="37.83806326267118" lon="15.275647868084297"><ele>18.0</ele><time>2026-04-19T09:11:19Z</time></trkpt><trkpt lat="37.838156694076964" lon="15.275789469972358"><ele>18.0</ele><time>2026-04-19T09:11:20Z</time></trkpt><trkpt lat="37.83824338729042" lon="15.275915191093455"><ele>18.166666666666668</ele><time>2026-04-19T09:11:21Z</time></trkpt><trkpt lat="37.83831271754769" lon="15.275999100048239"><ele>18.333333333333332</ele><time>2026-04-19T09:11:22Z</time></trkpt><trkpt lat="37.83836197279356" lon="15.276053258141083"><ele>18.5</ele><time>2026-04-19T09:11:23Z</time></trkpt><trkpt lat="37.838428363403736" lon="15.27610512221324"><ele>18.666666666666664</ele><time>2026-04-19T09:11:24Z</time></trkpt><trkpt lat="37.83850594731361" lon="15.27615470232221"><ele>18.833333333333332</ele><time>2026-04-19T09:11:25Z</time></trkpt><trkpt lat="37.838597730612285" lon="15.276207473534825"><ele>19.0</ele><time>2026-04-19T09:11:26Z</time></trkpt><trkpt lat="37.83869232574543" lon="15.276271789892995"><ele>19.0</ele><time>2026-04-19T09:11:27Z</time></trkpt><trkpt lat="37.83878682985909" lon="15.2763380465737"><ele>19.0</ele><time>2026-04-19T09:11:28Z</time></trkpt><trkpt lat="37.838877199820274" lon="15.276399332842736"><ele>19.0</ele><time>2026-04-19T09:11:29Z</time></trkpt><trkpt lat="37.83896038400699" lon="15.27645290766345"><ele>19.0</ele><time>2026-04-19T09:11:30Z</time></trkpt><trkpt lat="37.83903610321989" lon="15.276504601942237"><ele>19.0</ele><time>2026-04-19T09:11:31Z</time></trkpt><trkpt lat="37.83910648340589" lon="15.276549618801171"><ele>18.333333333333332</ele><time>2026-04-19T09:11:32Z</time></trkpt><trkpt lat="37.839171597475" lon="15.276591187876921"><ele>17.666666666666664</ele><time>2026-04-19T09:11:33Z</time></trkpt><trkpt lat="37.8392314446683" lon="15.276631889909668"><ele>17.0</ele><time>2026-04-19T09:11:34Z</time></trkpt><trkpt lat="37.839287797102585" lon="15.276669263271414"><ele>16.333333333333332</ele><time>2026-04-19T09:11:35Z</time></trkpt><trkpt lat="37.83939556145004" lon="15.276733490865"><ele>15.666666666666666</ele><time>2026-04-19T09:11:37Z</time></trkpt><trkpt lat="37.83950135185564" lon="15.276810664745927"><ele>15.0</ele><time>2026-04-19T09:11:39Z</time></trkpt><trkpt lat="37.83956286745342" lon="15.27685032335799"><ele>15.0</ele><time>2026-04-19T09:11:40Z</time></trkpt><trkpt lat="37.83962801144042" lon="15.276893904629429"><ele>15.0</ele><time>2026-04-19T09:11:41Z</time></trkpt><trkpt lat="37.83969591556411" lon="15.27693683851068"><ele>15.0</ele><time>2026-04-19T09:11:42Z</time></trkpt><trkpt lat="37.839768350740066" lon="15.276982705439265"><ele>15.0</ele><time>2026-04-19T09:11:43Z</time></trkpt><trkpt lat="37.83983752370422" lon="15.277029626296347"><ele>15.0</ele><time>2026-04-19T09:11:44Z</time></trkpt><trkpt lat="37.83989827562579" lon="15.277080345338398"><ele>15.0</ele><time>2026-04-19T09:11:45Z</time></trkpt><trkpt lat="37.839953370892026" lon="15.2771353162854"><ele>15.0</ele><time>2026-04-19T09:11:46Z</time></trkpt><trkpt lat="37.84001041699967" lon="15.277190390572263"><ele>15.0</ele><time>2026-04-19T09:11:47Z</time></trkpt><trkpt lat="37.840063026072634" lon="15.277254133702934"><ele>15.0</ele><time>2026-04-19T09:11:48Z</time></trkpt><trkpt lat="37.84014009819468" lon="15.277348730886542"><ele>15.0</ele><time>2026-04-19T09:11:50Z</time></trkpt><trkpt lat="37.84021375037441" lon="15.277440727619252"><ele>15.0</ele><time>2026-04-19T09:11:52Z</time></trkpt><trkpt lat="37.84029042229784" lon="15.277520481418172"><ele>15.333333333333334</ele><time>2026-04-19T09:11:54Z</time></trkpt><trkpt lat="37.84038015406174" lon="15.277608955617636"><ele>15.666666666666668</ele><time>2026-04-19T09:11:56Z</time></trkpt><trkpt lat="37.840426226214376" lon="15.277664858964297"><ele>16.0</ele><time>2026-04-19T09:11:57Z</time></trkpt><trkpt lat="37.840475818554765" lon="15.27771852714803"><ele>16.333333333333336</ele><time>2026-04-19T09:11:58Z</time></trkpt><trkpt lat="37.84052211688179" lon="15.277777500920816"><ele>16.666666666666668</ele><time>2026-04-19T09:11:59Z</time></trkpt><trkpt lat="37.8406017628874" lon="15.277879790487829"><ele>17.0</ele><time>2026-04-19T09:12:01Z</time></trkpt><trkpt lat="37.84064923409983" lon="15.277951373127433"><ele>16.999999999999996</ele><time>2026-04-19T09:12:03Z</time></trkpt><trkpt lat="37.84069114130713" lon="15.27802076064845"><ele>17.0</ele><time>2026-04-19T09:12:05Z</time></trkpt><trkpt lat="37.840736639323" lon="15.278123475473574"><ele>17.0</ele><time>2026-04-19T09:12:07Z</time></trkpt><trkpt lat="37.840783869954315" lon="15.278177192657354"><ele>17.0</ele><time>2026-04-19T09:12:08Z</time></trkpt><trkpt lat="37.84083381118816" lon="15.278239248635021"><ele>17.0</ele><time>2026-04-19T09:12:09Z</time></trkpt><trkpt lat="37.84087828331756" lon="15.27830088314893"><ele>16.999999999999996</ele><time>2026-04-19T09:12:10Z</time></trkpt><trkpt lat="37.84092063464745" lon="15.27836158880068"><ele>17.0</ele><time>2026-04-19T09:12:11Z</time></trkpt><trkpt lat="37.84098785641755" lon="15.278483445076178"><ele>17.6</ele><time>2026-04-19T09:12:13Z</time></trkpt><trkpt lat="37.84105600808309" lon="15.278597085642875"><ele>18.2</ele><time>2026-04-19T09:12:15Z</time></trkpt><trkpt lat="37.84110164696219" lon="15.278684268044485"><ele>18.8</ele><time>2026-04-19T09:12:16Z</time></trkpt><trkpt lat="37.84114673655207" lon="15.278791413738865"><ele>19.4</ele><time>2026-04-19T09:12:17Z</time></trkpt><trkpt lat="37.84118030823141" lon="15.278906780247015"><ele>20.0</ele><time>2026-04-19T09:12:18Z</time></trkpt><trkpt lat="37.84120481008088" lon="15.278988326690316"><ele>18.666666666666668</ele><time>2026-04-19T09:12:19Z</time></trkpt><trkpt lat="37.84123638637216" lon="15.279086973375069"><ele>17.333333333333336</ele><time>2026-04-19T09:12:21Z</time></trkpt><trkpt lat="37.84126177079845" lon="15.27916735168107"><ele>16.0</ele><time>2026-04-19T09:12:23Z</time></trkpt><trkpt lat="37.84129156843281" lon="15.279244820725458"><ele>14.666666666666668</ele><time>2026-04-19T09:12:25Z</time></trkpt><trkpt lat="37.84134089580423" lon="15.279334995659644"><ele>13.333333333333334</ele><time>2026-04-19T09:12:27Z</time></trkpt><trkpt lat="37.84140728154321" lon="15.279425338322456"><ele>12.0</ele><time>2026-04-19T09:12:29Z</time></trkpt><trkpt lat="37.84148899824654" lon="15.279506710832614"><ele>12.0</ele><time>2026-04-19T09:12:31Z</time></trkpt><trkpt lat="37.84154641410619" lon="15.27954692763456"><ele>12.0</ele><time>2026-04-19T09:12:32Z</time></trkpt><trkpt lat="37.84165873752932" lon="15.279603298600682"><ele>12.0</ele><time>2026-04-19T09:12:34Z</time></trkpt><trkpt lat="37.84173328937935" lon="15.279655740653594"><ele>12.0</ele><time>2026-04-19T09:12:36Z</time></trkpt><trkpt lat="37.84179928102322" lon="15.279701531721733"><ele>12.0</ele><time>2026-04-19T09:12:38Z</time></trkpt><trkpt lat="37.84186009899829" lon="15.27974230909335"><ele>12.0</ele><time>2026-04-19T09:12:40Z</time></trkpt><trkpt lat="37.841930378576215" lon="15.27978514674857"><ele>11.6</ele><time>2026-04-19T09:12:42Z</time></trkpt><trkpt lat="37.842015956889554" lon="15.279841437366244"><ele>11.2</ele><time>2026-04-19T09:12:44Z</time></trkpt><trkpt lat="37.84210815904053" lon="15.279906378836206"><ele>10.8</ele><time>2026-04-19T09:12:46Z</time></trkpt><trkpt lat="37.84219503776465" lon="15.279962941283625"><ele>10.4</ele><time>2026-04-19T09:12:48Z</time></trkpt><trkpt lat="37.842256644976466" lon="15.28001662710464"><ele>10.0</ele><time>2026-04-19T09:12:50Z</time></trkpt><trkpt lat="37.84232794132152" lon="15.280067512143853"><ele>10.0</ele><time>2026-04-19T09:12:52Z</time></trkpt><trkpt lat="37.8424398996142" lon="15.280061801802361"><ele>10.0</ele><time>2026-04-19T09:12:54Z</time></trkpt><trkpt lat="37.842502302470876" lon="15.280014999457073"><ele>10.0</ele><time>2026-04-19T09:12:55Z</time></trkpt><trkpt lat="37.84256433080479" lon="15.279947412829138"><ele>10.0</ele><time>2026-04-19T09:12:56Z</time></trkpt><trkpt lat="37.842633653956554" lon="15.279871613358882"><ele>10.0</ele><time>2026-04-19T09:12:57Z</time></trkpt><trkpt lat="37.84274124685914" lon="15.279810262320789"><ele>11.4</ele><time>2026-04-19T09:12:58Z</time></trkpt><trkpt lat="37.84282060870095" lon="15.27973257144205"><ele>12.8</ele><time>2026-04-19T09:12:59Z</time></trkpt><trkpt lat="37.842900117780786" lon="15.279674262681711"><ele>14.2</ele><time>2026-04-19T09:13:00Z</time></trkpt><trkpt lat="37.84297540711462" lon="15.279624021230745"><ele>15.6</ele><time>2026-04-19T09:13:01Z</time></trkpt><trkpt lat="37.8430877492023" lon="15.27959080150606"><ele>17.0</ele><time>2026-04-19T09:13:03Z</time></trkpt><trkpt lat="37.843155974505606" lon="15.279633076678198"><ele>17.0</ele><time>2026-04-19T09:13:04Z</time></trkpt><trkpt lat="37.84322394194681" lon="15.279719372279631"><ele>17.0</ele><time>2026-04-19T09:13:05Z</time></trkpt><trkpt lat="37.84329433414858" lon="15.279814266814101"><ele>17.0</ele><time>2026-04-19T09:13:06Z</time></trkpt><trkpt lat="37.84338288501646" lon="15.279913701560544"><ele>17.0</ele><time>2026-04-19T09:13:07Z</time></trkpt><trkpt lat="37.843481977174456" lon="15.28002631280981"><ele>18.0</ele><time>2026-04-19T09:13:08Z</time></trkpt><trkpt lat="37.84358776964122" lon="15.28015935385721"><ele>19.0</ele><time>2026-04-19T09:13:09Z</time></trkpt><trkpt lat="37.84370620164007" lon="15.280308877325876"><ele>20.0</ele><time>2026-04-19T09:13:10Z</time></trkpt><trkpt lat="37.843830537784825" lon="15.280456702753678"><ele>18.333333333333336</ele><time>2026-04-19T09:13:11Z</time></trkpt><trkpt lat="37.843936049122256" lon="15.28059993986763"><ele>16.666666666666668</ele><time>2026-04-19T09:13:12Z</time></trkpt><trkpt lat="37.844041007165515" lon="15.280757728553523"><ele>15.0</ele><time>2026-04-19T09:13:13Z</time></trkpt><trkpt lat="37.84415461901009" lon="15.280920080215878"><ele>15.0</ele><time>2026-04-19T09:13:14Z</time></trkpt><trkpt lat="37.84426988982294" lon="15.28108209926921"><ele>15.0</ele><time>2026-04-19T09:13:15Z</time></trkpt><trkpt lat="37.84438978231467" lon="15.28123976620224"><ele>15.0</ele><time>2026-04-19T09:13:16Z</time></trkpt><trkpt lat="37.844518617842475" lon="15.281392757887657"><ele>19.333333333333336</ele><time>2026-04-19T09:13:17Z</time></trkpt><trkpt lat="37.84464156454545" lon="15.281555381660342"><ele>23.666666666666668</ele><time>2026-04-19T09:13:18Z</time></trkpt><trkpt lat="37.84479701962962" lon="15.281662826294692"><ele>28.0</ele><time>2026-04-19T09:13:19Z</time></trkpt><trkpt lat="37.84494196714117" lon="15.281783371758918"><ele>28.0</ele><time>2026-04-19T09:13:20Z</time></trkpt><trkpt lat="37.845085194097386" lon="15.281895804224042"><ele>28.0</ele><time>2026-04-19T09:13:21Z</time></trkpt><trkpt lat="37.84521718066966" lon="15.282039788516133"><ele>28.0</ele><time>2026-04-19T09:13:22Z</time></trkpt><trkpt lat="37.84536254335635" lon="15.282148519995111"><ele>25.0</ele><time>2026-04-19T09:13:23Z</time></trkpt><trkpt lat="37.845485505890416" lon="15.282283477640862"><ele>22.0</ele><time>2026-04-19T09:13:24Z</time></trkpt><trkpt lat="37.8456056113534" lon="15.28241426231085"><ele>19.0</ele><time>2026-04-19T09:13:25Z</time></trkpt><trkpt lat="37.84571229975017" lon="15.282542518585377"><ele>19.0</ele><time>2026-04-19T09:13:26Z</time></trkpt><trkpt lat="37.84581174121179" lon="15.2826552467084"><ele>19.0</ele><time>2026-04-19T09:13:27Z</time></trkpt><trkpt lat="37.8458872587108" lon="15.282776145125741"><ele>19.0</ele><time>2026-04-19T09:13:28Z</time></trkpt><trkpt lat="37.84595867913283" lon="15.282876230014507"><ele>19.0</ele><time>2026-04-19T09:13:29Z</time></trkpt><trkpt lat="37.846047692409634" lon="15.282937344466243"><ele>21.0</ele><time>2026-04-19T09:13:30Z</time></trkpt><trkpt lat="37.84616118115118" lon="15.282988587110554"><ele>23.0</ele><time>2026-04-19T09:13:31Z</time></trkpt><trkpt lat="37.84628522114703" lon="15.283048994183382"><ele>25.0</ele><time>2026-04-19T09:13:32Z</time></trkpt><trkpt lat="37.84641974775297" lon="15.283120149572717"><ele>27.0</ele><time>2026-04-19T09:13:33Z</time></trkpt><trkpt lat="37.846544623608565" lon="15.283246880204423"><ele>27.0</ele><time>2026-04-19T09:13:34Z</time></trkpt><trkpt lat="37.84669160152858" lon="15.283334520860448"><ele>27.0</ele><time>2026-04-19T09:13:35Z</time></trkpt><trkpt lat="37.84679477287883" lon="15.283464452395519"><ele>27.0</ele><time>2026-04-19T09:13:36Z</time></trkpt><trkpt lat="37.84689390815416" lon="15.283579557858285"><ele>27.0</ele><time>2026-04-19T09:13:37Z</time></trkpt><trkpt lat="37.84699846133867" lon="15.28369389605728"><ele>27.200000000000003</ele><time>2026-04-19T09:13:38Z</time></trkpt><trkpt lat="37.847085976155036" lon="15.283802319143456"><ele>27.400000000000002</ele><time>2026-04-19T09:13:39Z</time></trkpt><trkpt lat="37.84715724620478" lon="15.283910144248019"><ele>27.599999999999998</ele><time>2026-04-19T09:13:40Z</time></trkpt><trkpt lat="37.84722394249345" lon="15.284011945873514"><ele>27.799999999999997</ele><time>2026-04-19T09:13:41Z</time></trkpt><trkpt lat="37.84728371194385" lon="15.28410842873805"><ele>28.0</ele><time>2026-04-19T09:13:42Z</time></trkpt><trkpt lat="37.847332849556615" lon="15.28419539097264"><ele>28.0</ele><time>2026-04-19T09:13:43Z</time></trkpt><trkpt lat="37.847378189050275" lon="15.284278107691728"><ele>27.999999999999996</ele><time>2026-04-19T09:13:44Z</time></trkpt><trkpt lat="37.84741417418368" lon="15.284365794425668"><ele>27.999999999999996</ele><time>2026-04-19T09:13:45Z</time></trkpt><trkpt lat="37.84745899577257" lon="15.284451499723"><ele>28.0</ele><time>2026-04-19T09:13:46Z</time></trkpt><trkpt lat="37.847501804550824" lon="15.28456628470185"><ele>28.0</ele><time>2026-04-19T09:13:47Z</time></trkpt><trkpt lat="37.847569080816044" lon="15.284696335978815"><ele>28.5</ele><time>2026-04-19T09:13:48Z</time></trkpt><trkpt lat="37.847650669020275" lon="15.284847481868326"><ele>29.0</ele><time>2026-04-19T09:13:49Z</time></trkpt><trkpt lat="37.847738286747266" lon="15.284999619014723"><ele>29.5</ele><time>2026-04-19T09:13:50Z</time></trkpt><trkpt lat="37.847830925922786" lon="15.28515125627635"><ele>30.0</ele><time>2026-04-19T09:13:51Z</time></trkpt><trkpt lat="37.847923367301284" lon="15.285294212046278"><ele>30.0</ele><time>2026-04-19T09:13:52Z</time></trkpt><trkpt lat="37.84802195447609" lon="15.285416846029829"><ele>30.0</ele><time>2026-04-19T09:13:53Z</time></trkpt><trkpt lat="37.8480938461235" lon="15.285540589945962"><ele>30.0</ele><time>2026-04-19T09:13:54Z</time></trkpt><trkpt lat="37.84815081810454" lon="15.285664546372017"><ele>30.0</ele><time>2026-04-19T09:13:55Z</time></trkpt><trkpt lat="37.84819945566877" lon="15.285782821732539"><ele>29.0</ele><time>2026-04-19T09:13:56Z</time></trkpt><trkpt lat="37.84824355122029" lon="15.285908161799654"><ele>28.0</ele><time>2026-04-19T09:13:57Z</time></trkpt><trkpt lat="37.848278225878715" lon="15.286049002810673"><ele>27.0</ele><time>2026-04-19T09:13:58Z</time></trkpt><trkpt lat="37.848292550015955" lon="15.286217166192333"><ele>26.0</ele><time>2026-04-19T09:13:59Z</time></trkpt><trkpt lat="37.84830954590537" lon="15.286421068341028"><ele>23.666666666666664</ele><time>2026-04-19T09:14:00Z</time></trkpt><trkpt lat="37.84832867239228" lon="15.286659016446675"><ele>21.333333333333332</ele><time>2026-04-19T09:14:01Z</time></trkpt><trkpt lat="37.84836189051627" lon="15.286930952646761"><ele>19.0</ele><time>2026-04-19T09:14:02Z</time></trkpt><trkpt lat="37.848398940569304" lon="15.287228064146536"><ele>17.5</ele><time>2026-04-19T09:14:03Z</time></trkpt><trkpt lat="37.84839885229806" lon="15.287539447391229"><ele>16.0</ele><time>2026-04-19T09:14:04Z</time></trkpt><trkpt lat="37.848391701120825" lon="15.287881947583323"><ele>16.0</ele><time>2026-04-19T09:14:05Z</time></trkpt><trkpt lat="37.84839048185669" lon="15.28824738199428"><ele>16.0</ele><time>2026-04-19T09:14:06Z</time></trkpt><trkpt lat="37.84843375827915" lon="15.288566463028317"><ele>36.0</ele><time>2026-04-19T09:14:07Z</time></trkpt><trkpt lat="37.84847698625458" lon="15.288880664969412"><ele>56.0</ele><time>2026-04-19T09:14:08Z</time></trkpt><trkpt lat="37.84848290546264" lon="15.28922989576356"><ele>60.333333333333336</ele><time>2026-04-19T09:14:09Z</time></trkpt><trkpt lat="37.84848710769047" lon="15.28950590966466"><ele>64.66666666666667</ele><time>2026-04-19T09:14:10Z</time></trkpt><trkpt lat="37.84848996386978" lon="15.289743710216879"><ele>69.0</ele><time>2026-04-19T09:14:11Z</time></trkpt><trkpt lat="37.84845509897639" lon="15.289977011674301"><ele>62.66666666666667</ele><time>2026-04-19T09:14:12Z</time></trkpt><trkpt lat="37.84838433973938" lon="15.290206410705908"><ele>56.333333333333336</ele><time>2026-04-19T09:14:13Z</time></trkpt><trkpt lat="37.84827775675538" lon="15.290435947105502"><ele>50.0</ele><time>2026-04-19T09:14:14Z</time></trkpt><trkpt lat="37.84816054797845" lon="15.29065971264993"><ele>50.0</ele><time>2026-04-19T09:14:15Z</time></trkpt><trkpt lat="37.84803377402396" lon="15.290855569490844"><ele>50.0</ele><time>2026-04-19T09:14:16Z</time></trkpt><trkpt lat="37.847910434162216" lon="15.291029349820088"><ele>50.0</ele><time>2026-04-19T09:14:17Z</time></trkpt><trkpt lat="37.84783679541181" lon="15.291231320371333"><ele>55.66666666666667</ele><time>2026-04-19T09:14:18Z</time></trkpt><trkpt lat="37.84778922495418" lon="15.291463196224152"><ele>61.33333333333333</ele><time>2026-04-19T09:14:19Z</time></trkpt><trkpt lat="37.84776325578572" lon="15.291705514410799"><ele>67.0</ele><time>2026-04-19T09:14:20Z</time></trkpt><trkpt lat="37.84778295158915" lon="15.291946465483619"><ele>67.0</ele><time>2026-04-19T09:14:21Z</time></trkpt><trkpt lat="37.8478382816693" lon="15.292189253249715"><ele>67.0</ele><time>2026-04-19T09:14:22Z</time></trkpt><trkpt lat="37.84790062202053" lon="15.292401840742935"><ele>67.0</ele><time>2026-04-19T09:14:23Z</time></trkpt><trkpt lat="37.847935162399565" lon="15.292602409021038"><ele>66.8</ele><time>2026-04-19T09:14:24Z</time></trkpt><trkpt lat="37.84799956324475" lon="15.292757048018053"><ele>66.6</ele><time>2026-04-19T09:14:25Z</time></trkpt><trkpt lat="37.84805349671731" lon="15.292864477773707"><ele>66.39999999999999</ele><time>2026-04-19T09:14:26Z</time></trkpt><trkpt lat="37.84807971400352" lon="15.292975965028855"><ele>66.2</ele><time>2026-04-19T09:14:27Z</time></trkpt><trkpt lat="37.848045260972604" lon="15.293106461273"><ele>66.0</ele><time>2026-04-19T09:14:28Z</time></trkpt><trkpt lat="37.84796122179487" lon="15.29323224288582"><ele>69.33333333333333</ele><time>2026-04-19T09:14:29Z</time></trkpt><trkpt lat="37.84786228590545" lon="15.293366124104852"><ele>72.66666666666666</ele><time>2026-04-19T09:14:30Z</time></trkpt><trkpt lat="37.84775177908406" lon="15.293534539796891"><ele>76.0</ele><time>2026-04-19T09:14:31Z</time></trkpt><trkpt lat="37.847632101112296" lon="15.293729562212611"><ele>62.5</ele><time>2026-04-19T09:14:32Z</time></trkpt><trkpt lat="37.84750256901776" lon="15.293960117768988"><ele>49.0</ele><time>2026-04-19T09:14:33Z</time></trkpt><trkpt lat="37.84735493840385" lon="15.294207340019355"><ele>49.0</ele><time>2026-04-19T09:14:34Z</time></trkpt><trkpt lat="37.84721288296483" lon="15.294424631636433"><ele>49.0</ele><time>2026-04-19T09:14:35Z</time></trkpt><trkpt lat="37.847088826990266" lon="15.294610392813391"><ele>49.0</ele><time>2026-04-19T09:14:36Z</time></trkpt><trkpt lat="37.84697197888347" lon="15.294779323614268"><ele>47.5</ele><time>2026-04-19T09:14:37Z</time></trkpt><trkpt lat="37.84686308744136" lon="15.294922326764619"><ele>46.0</ele><time>2026-04-19T09:14:38Z</time></trkpt><trkpt lat="37.84676075944098" lon="15.29503996698847"><ele>44.5</ele><time>2026-04-19T09:14:39Z</time></trkpt><trkpt lat="37.84667533876687" lon="15.295129262483933"><ele>43.0</ele><time>2026-04-19T09:14:40Z</time></trkpt><trkpt lat="37.84660205995931" lon="15.295186642321072"><ele>43.0</ele><time>2026-04-19T09:14:41Z</time></trkpt><trkpt lat="37.84653417654715" lon="15.295238865205986"><ele>43.0</ele><time>2026-04-19T09:14:42Z</time></trkpt><trkpt lat="37.84648468463639" lon="15.29529106590794"><ele>43.0</ele><time>2026-04-19T09:14:43Z</time></trkpt><trkpt lat="37.84643570818723" lon="15.295374244888878"><ele>43.0</ele><time>2026-04-19T09:14:45Z</time></trkpt><trkpt lat="37.846424996350486" lon="15.295455045660653"><ele>43.0</ele><time>2026-04-19T09:17:01Z</time></trkpt><trkpt lat="37.84642121675243" lon="15.295567852679106"><ele>43.0</ele><time>2026-04-19T09:17:48Z</time></trkpt><trkpt lat="37.84639806588244" lon="15.295709774576007"><ele>46.599999999999994</ele><time>2026-04-19T09:17:50Z</time></trkpt><trkpt lat="37.84639095878301" lon="15.29580696870341"><ele>50.199999999999996</ele><time>2026-04-19T09:17:51Z</time></trkpt><trkpt lat="37.846366232153" lon="15.29591264601226"><ele>53.8</ele><time>2026-04-19T09:17:52Z</time></trkpt><trkpt lat="37.846385669460915" lon="15.29603753217129"><ele>57.4</ele><time>2026-04-19T09:17:53Z</time></trkpt><trkpt lat="37.84637635213953" lon="15.296178974831353"><ele>61.0</ele><time>2026-04-19T09:17:54Z</time></trkpt><trkpt lat="37.84637223570474" lon="15.296340096708915"><ele>60.8</ele><time>2026-04-19T09:17:55Z</time></trkpt><trkpt lat="37.846377061090145" lon="15.29649757321683"><ele>60.599999999999994</ele><time>2026-04-19T09:17:56Z</time></trkpt><trkpt lat="37.846406992814664" lon="15.296627659654456"><ele>60.4</ele><time>2026-04-19T09:17:57Z</time></trkpt><trkpt lat="37.84646740116365" lon="15.296732497639516"><ele>60.2</ele><time>2026-04-19T09:17:58Z</time></trkpt><trkpt lat="37.846548954685346" lon="15.29682553233206"><ele>60.0</ele><time>2026-04-19T09:17:59Z</time></trkpt><trkpt lat="37.84663547233013" lon="15.29692187585947"><ele>60.0</ele><time>2026-04-19T09:18:00Z</time></trkpt><trkpt lat="37.84672288563856" lon="15.297022388097504"><ele>60.0</ele><time>2026-04-19T09:18:01Z</time></trkpt><trkpt lat="37.84679992652653" lon="15.297115701044719"><ele>60.0</ele><time>2026-04-19T09:18:02Z</time></trkpt><trkpt lat="37.84687129675384" lon="15.297202691523376"><ele>60.0</ele><time>2026-04-19T09:18:03Z</time></trkpt><trkpt lat="37.84694211063001" lon="15.29726969134723"><ele>60.0</ele><time>2026-04-19T09:18:04Z</time></trkpt><trkpt lat="37.847028026672255" lon="15.297310393157755"><ele>61.0</ele><time>2026-04-19T09:18:05Z</time></trkpt><trkpt lat="37.84711656128624" lon="15.2973207341757"><ele>62.0</ele><time>2026-04-19T09:18:06Z</time></trkpt><trkpt lat="37.847201868676144" lon="15.297303709421392"><ele>63.0</ele><time>2026-04-19T09:18:07Z</time></trkpt><trkpt lat="37.847285711174074" lon="15.29726277765266"><ele>64.0</ele><time>2026-04-19T09:18:08Z</time></trkpt><trkpt lat="37.84737884755929" lon="15.297187285448599"><ele>65.0</ele><time>2026-04-19T09:18:09Z</time></trkpt><trkpt lat="37.847478400056985" lon="15.297118622012071"><ele>65.0</ele><time>2026-04-19T09:18:10Z</time></trkpt><trkpt lat="37.84758080633071" lon="15.297037514348728"><ele>65.0</ele><time>2026-04-19T09:18:11Z</time></trkpt><trkpt lat="37.8476991823668" lon="15.296966510401617"><ele>65.0</ele><time>2026-04-19T09:18:12Z</time></trkpt><trkpt lat="37.84782555319818" lon="15.296887043866649"><ele>65.0</ele><time>2026-04-19T09:18:13Z</time></trkpt><trkpt lat="37.84795325436306" lon="15.296809331852497"><ele>62.5</ele><time>2026-04-19T09:18:14Z</time></trkpt><trkpt lat="37.848077998867424" lon="15.296731986841301"><ele>60.0</ele><time>2026-04-19T09:18:15Z</time></trkpt><trkpt lat="37.848198473137366" lon="15.29666338216154"><ele>57.5</ele><time>2026-04-19T09:18:16Z</time></trkpt><trkpt lat="37.84830958096289" lon="15.296591322883149"><ele>55.0</ele><time>2026-04-19T09:18:17Z</time></trkpt><trkpt lat="37.84841628789026" lon="15.296529632385393"><ele>51.0</ele><time>2026-04-19T09:18:18Z</time></trkpt><trkpt lat="37.84852650259311" lon="15.296470484854767"><ele>47.0</ele><time>2026-04-19T09:18:19Z</time></trkpt><trkpt lat="37.84864110231599" lon="15.296404710950307"><ele>43.0</ele><time>2026-04-19T09:18:20Z</time></trkpt><trkpt lat="37.8487577776501" lon="15.296347862290702"><ele>39.0</ele><time>2026-04-19T09:18:21Z</time></trkpt><trkpt lat="37.84887972108697" lon="15.296286515215517"><ele>49.75</ele><time>2026-04-19T09:18:22Z</time></trkpt><trkpt lat="37.84901772201129" lon="15.296279551595346"><ele>60.5</ele><time>2026-04-19T09:18:23Z</time></trkpt><trkpt lat="37.84915882300785" lon="15.296249566845256"><ele>71.25</ele><time>2026-04-19T09:18:24Z</time></trkpt><trkpt lat="37.849311188575115" lon="15.29627589840655"><ele>82.0</ele><time>2026-04-19T09:18:25Z</time></trkpt><trkpt lat="37.84948441462978" lon="15.296284799095984"><ele>93.66666666666666</ele><time>2026-04-19T09:18:26Z</time></trkpt><trkpt lat="37.8496451026723" lon="15.296286019164791"><ele>105.33333333333333</ele><time>2026-04-19T09:18:27Z</time></trkpt><trkpt lat="37.84985099498" lon="15.296289079438578"><ele>117.0</ele><time>2026-04-19T09:18:28Z</time></trkpt><trkpt lat="37.850059487053706" lon="15.296317684995369"><ele>129.0</ele><time>2026-04-19T09:18:29Z</time></trkpt><trkpt lat="37.85024772857237" lon="15.296359898676455"><ele>141.0</ele><time>2026-04-19T09:18:30Z</time></trkpt><trkpt lat="37.85041688667587" lon="15.296410000435356"><ele>153.0</ele><time>2026-04-19T09:18:31Z</time></trkpt><trkpt lat="37.85057281816095" lon="15.296501731571286"><ele>139.33333333333334</ele><time>2026-04-19T09:18:32Z</time></trkpt><trkpt lat="37.85074134531773" lon="15.296603672883673"><ele>125.66666666666667</ele><time>2026-04-19T09:18:33Z</time></trkpt><trkpt lat="37.85090568181638" lon="15.296707012361212"><ele>112.0</ele><time>2026-04-19T09:18:34Z</time></trkpt><trkpt lat="37.85104236388258" lon="15.296799764059612"><ele>112.0</ele><time>2026-04-19T09:18:35Z</time></trkpt><trkpt lat="37.85115591331635" lon="15.296904880873292"><ele>112.0</ele><time>2026-04-19T09:18:36Z</time></trkpt><trkpt lat="37.85124696717864" lon="15.297026140347436"><ele>112.0</ele><time>2026-04-19T09:18:37Z</time></trkpt><trkpt lat="37.851376050774725" lon="15.297154583703133"><ele>112.0</ele><time>2026-04-19T09:18:38Z</time></trkpt><trkpt lat="37.85146291194124" lon="15.297332359712835"><ele>90.33333333333334</ele><time>2026-04-19T09:18:39Z</time></trkpt><trkpt lat="37.85154951682164" lon="15.297507655467516"><ele>68.66666666666667</ele><time>2026-04-19T09:18:40Z</time></trkpt><trkpt lat="37.851653746096304" lon="15.297670995277961"><ele>47.0</ele><time>2026-04-19T09:18:41Z</time></trkpt><trkpt lat="37.851742509610474" lon="15.297850191795446"><ele>47.0</ele><time>2026-04-19T09:18:42Z</time></trkpt><trkpt lat="37.85185451996601" lon="15.29799599332836"><ele>47.0</ele><time>2026-04-19T09:18:43Z</time></trkpt><trkpt lat="37.8519583255679" lon="15.298136610540986"><ele>47.0</ele><time>2026-04-19T09:18:44Z</time></trkpt><trkpt lat="37.85207103932861" lon="15.298274892119295"><ele>47.0</ele><time>2026-04-19T09:18:45Z</time></trkpt><trkpt lat="37.85220382632992" lon="15.298390015179763"><ele>47.0</ele><time>2026-04-19T09:18:45.999Z</time></trkpt><trkpt lat="37.85234471282803" lon="15.298485721159288"><ele>47.0</ele><time>2026-04-19T09:18:46.999Z</time></trkpt><trkpt lat="37.852486749873" lon="15.298592650337577"><ele>47.5</ele><time>2026-04-19T09:18:47.999Z</time></trkpt><trkpt lat="37.85262368917253" lon="15.298696142777995"><ele>48.0</ele><time>2026-04-19T09:18:48.999Z</time></trkpt><trkpt lat="37.85275234941998" lon="15.298790495633497"><ele>48.5</ele><time>2026-04-19T09:18:49.999Z</time></trkpt><trkpt lat="37.85286091485896" lon="15.298888851935448"><ele>49.0</ele><time>2026-04-19T09:18:50.999Z</time></trkpt><trkpt lat="37.85297656130275" lon="15.2989712270702"><ele>49.0</ele><time>2026-04-19T09:18:51.999Z</time></trkpt><trkpt lat="37.853053678723995" lon="15.299089321237966"><ele>49.0</ele><time>2026-04-19T09:18:52.999Z</time></trkpt><trkpt lat="37.85311866404147" lon="15.299201322349248"><ele>49.0</ele><time>2026-04-19T09:18:53.999Z</time></trkpt><trkpt lat="37.853176475041074" lon="15.299302375702956"><ele>49.0</ele><time>2026-04-19T09:18:54.999Z</time></trkpt><trkpt lat="37.8532316817614" lon="15.299384912383465"><ele>49.0</ele><time>2026-04-19T09:18:55.999Z</time></trkpt><trkpt lat="37.85327760157132" lon="15.299450372531787"><ele>49.0</ele><time>2026-04-19T09:18:56.999Z</time></trkpt><trkpt lat="37.85334248811296" lon="15.299548254976758"><ele>49.0</ele><time>2026-04-19T09:18:58.999Z</time></trkpt><trkpt lat="37.85340606815579" lon="15.299638885248955"><ele>49.0</ele><time>2026-04-19T09:19:00.999Z</time></trkpt><trkpt lat="37.85348353234441" lon="15.29977264601012"><ele>49.0</ele><time>2026-04-19T09:19:02.999Z</time></trkpt><trkpt lat="37.853526747609656" lon="15.299853108285731"><ele>49.0</ele><time>2026-04-19T09:19:03.999Z</time></trkpt><trkpt lat="37.853567841633385" lon="15.299943233504804"><ele>48.99999999999999</ele><time>2026-04-19T09:19:05Z</time></trkpt><trkpt lat="37.85358326035749" lon="15.300046591010322"><ele>49.0</ele><time>2026-04-19T09:19:06Z</time></trkpt><trkpt lat="37.853599976227116" lon="15.300136030556896"><ele>49.0</ele><time>2026-04-19T09:19:07Z</time></trkpt><trkpt lat="37.85362194949937" lon="15.300211213147506"><ele>49.0</ele><time>2026-04-19T09:19:08Z</time></trkpt><trkpt lat="37.853637877982365" lon="15.30034476551906"><ele>48.99999999999999</ele><time>2026-04-19T09:19:10Z</time></trkpt><trkpt lat="37.853654290725416" lon="15.300468992870305"><ele>49.0</ele><time>2026-04-19T09:19:12Z</time></trkpt><trkpt lat="37.85367781800894" lon="15.300613618923252"><ele>46.99999999999999</ele><time>2026-04-19T09:19:14Z</time></trkpt><trkpt lat="37.85369326058226" lon="15.300692355528197"><ele>45.0</ele><time>2026-04-19T09:19:15Z</time></trkpt><trkpt lat="37.85374776674755" lon="15.30081139865969"><ele>43.0</ele><time>2026-04-19T09:19:17Z</time></trkpt><trkpt lat="37.85378518978887" lon="15.300893183142527"><ele>41.0</ele><time>2026-04-19T09:19:19Z</time></trkpt><trkpt lat="37.8538707950172" lon="15.300922828857063"><ele>39.0</ele><time>2026-04-19T09:19:21Z</time></trkpt><trkpt lat="37.853964914278784" lon="15.300945698119156"><ele>37.0</ele><time>2026-04-19T09:19:23Z</time></trkpt><trkpt lat="37.854072218707394" lon="15.300919361340444"><ele>37.0</ele><time>2026-04-19T09:19:25Z</time></trkpt><trkpt lat="37.85418568643832" lon="15.300868500541602"><ele>37.0</ele><time>2026-04-19T09:19:27Z</time></trkpt><trkpt lat="37.85424631858876" lon="15.300845564475868"><ele>37.0</ele><time>2026-04-19T09:19:28Z</time></trkpt><trkpt lat="37.8543094305497" lon="15.300822167368578"><ele>37.0</ele><time>2026-04-19T09:19:29Z</time></trkpt><trkpt lat="37.854394448392796" lon="15.300793509348535"><ele>37.0</ele><time>2026-04-19T09:19:31Z</time></trkpt><trkpt lat="37.85446311346083" lon="15.300776680165352"><ele>37.0</ele><time>2026-04-19T09:19:33Z</time></trkpt><trkpt lat="37.85452676306729" lon="15.300754218134575"><ele>36.0</ele><time>2026-04-19T09:19:34Z</time></trkpt><trkpt lat="37.85460138731746" lon="15.300709438962203"><ele>35.0</ele><time>2026-04-19T09:19:36Z</time></trkpt><trkpt lat="37.85467379259263" lon="15.300706781255386"><ele>34.0</ele><time>2026-04-19T09:19:41Z</time></trkpt><trkpt lat="37.854732477427426" lon="15.300648391763781"><ele>33.0</ele><time>2026-04-19T09:19:44Z</time></trkpt><trkpt lat="37.85479564302164" lon="15.300630270479141"><ele>32.0</ele><time>2026-04-19T09:19:47Z</time></trkpt><trkpt lat="37.85485135882012" lon="15.300590226146783"><ele>31.0</ele><time>2026-04-19T09:19:51Z</time></trkpt><trkpt lat="37.85498113069834" lon="15.30054430016398"><ele>31.0</ele><time>2026-04-19T09:19:53Z</time></trkpt><trkpt lat="37.855086080531265" lon="15.300505513555674"><ele>31.0</ele><time>2026-04-19T09:19:54Z</time></trkpt><trkpt lat="37.855193577889686" lon="15.300455715651538"><ele>31.0</ele><time>2026-04-19T09:19:55Z</time></trkpt><trkpt lat="37.85527964070595" lon="15.300403499800987"><ele>31.0</ele><time>2026-04-19T09:19:56Z</time></trkpt><trkpt lat="37.85536830989297" lon="15.300359716305872"><ele>31.0</ele><time>2026-04-19T09:19:57Z</time></trkpt><trkpt lat="37.855466907050335" lon="15.300310903637229"><ele>31.75</ele><time>2026-04-19T09:19:58Z</time></trkpt><trkpt lat="37.8555893707967" lon="15.300292224565839"><ele>32.5</ele><time>2026-04-19T09:19:59Z</time></trkpt><trkpt lat="37.855710165011104" lon="15.300335882964625"><ele>33.25</ele><time>2026-04-19T09:20:00Z</time></trkpt><trkpt lat="37.85583671945271" lon="15.300387892325483"><ele>34.0</ele><time>2026-04-19T09:20:01Z</time></trkpt><trkpt lat="37.855964107923214" lon="15.300430066715812"><ele>35.5</ele><time>2026-04-19T09:20:02Z</time></trkpt><trkpt lat="37.85606642143214" lon="15.300473054058793"><ele>37.0</ele><time>2026-04-19T09:20:03Z</time></trkpt><trkpt lat="37.85617230194123" lon="15.30049447831437"><ele>38.5</ele><time>2026-04-19T09:20:04Z</time></trkpt><trkpt lat="37.85628900139542" lon="15.300517553233863"><ele>40.0</ele><time>2026-04-19T09:20:05Z</time></trkpt><trkpt lat="37.85640688070121" lon="15.30054415716449"><ele>37.0</ele><time>2026-04-19T09:20:06Z</time></trkpt><trkpt lat="37.85654631085975" lon="15.300585871254295"><ele>34.0</ele><time>2026-04-19T09:20:07Z</time></trkpt><trkpt lat="37.856678767859194" lon="15.300627293060275"><ele>31.0</ele><time>2026-04-19T09:20:08Z</time></trkpt><trkpt lat="37.85679779131846" lon="15.300665033428858"><ele>28.0</ele><time>2026-04-19T09:20:09Z</time></trkpt><trkpt lat="37.85690097428716" lon="15.300685923833996"><ele>28.0</ele><time>2026-04-19T09:20:10Z</time></trkpt><trkpt lat="37.85698873608269" lon="15.300685791189112"><ele>27.999999999999996</ele><time>2026-04-19T09:20:11Z</time></trkpt><trkpt lat="37.85706989774594" lon="15.30061713606492"><ele>27.999999999999996</ele><time>2026-04-19T09:20:12Z</time></trkpt><trkpt lat="37.857137147980694" lon="15.300524666344616"><ele>28.0</ele><time>2026-04-19T09:20:13Z</time></trkpt><trkpt lat="37.85720201943059" lon="15.300410163796679"><ele>28.0</ele><time>2026-04-19T09:20:14Z</time></trkpt><trkpt lat="37.85727506413538" lon="15.300336030251644"><ele>27.599999999999998</ele><time>2026-04-19T09:20:15Z</time></trkpt><trkpt lat="37.8573352611218" lon="15.300255861710355"><ele>27.199999999999996</ele><time>2026-04-19T09:20:16Z</time></trkpt><trkpt lat="37.85738056909884" lon="15.300168273113677"><ele>26.8</ele><time>2026-04-19T09:20:17Z</time></trkpt><trkpt lat="37.85743603140401" lon="15.30008945789481"><ele>26.4</ele><time>2026-04-19T09:20:18Z</time></trkpt><trkpt lat="37.85747832153519" lon="15.299942928934462"><ele>26.0</ele><time>2026-04-19T09:20:19Z</time></trkpt><trkpt lat="37.857517977829" lon="15.299760500223734"><ele>30.0</ele><time>2026-04-19T09:20:20Z</time></trkpt><trkpt lat="37.85757801742421" lon="15.29955747921967"><ele>34.0</ele><time>2026-04-19T09:20:21Z</time></trkpt><trkpt lat="37.85764304983641" lon="15.299366030349027"><ele>38.0</ele><time>2026-04-19T09:20:22Z</time></trkpt><trkpt lat="37.857700432348196" lon="15.299190645925734"><ele>32.0</ele><time>2026-04-19T09:20:23Z</time></trkpt><trkpt lat="37.85776190335267" lon="15.299021360167497"><ele>26.0</ele><time>2026-04-19T09:20:24Z</time></trkpt><trkpt lat="37.85784469361019" lon="15.29887287967787"><ele>20.0</ele><time>2026-04-19T09:20:25Z</time></trkpt><trkpt lat="37.85793437684651" lon="15.29876499476642"><ele>14.0</ele><time>2026-04-19T09:20:26Z</time></trkpt><trkpt lat="37.85801397707357" lon="15.298635887838309"><ele>14.0</ele><time>2026-04-19T09:20:27Z</time></trkpt><trkpt lat="37.858096601094516" lon="15.298458704255047"><ele>14.0</ele><time>2026-04-19T09:20:28Z</time></trkpt><trkpt lat="37.85818727711345" lon="15.298263954532882"><ele>14.0</ele><time>2026-04-19T09:20:29Z</time></trkpt><trkpt lat="37.85829592092733" lon="15.298052691196563"><ele>10.333333333333334</ele><time>2026-04-19T09:20:30Z</time></trkpt><trkpt lat="37.85842795507711" lon="15.297820501968081"><ele>6.666666666666667</ele><time>2026-04-19T09:20:31Z</time></trkpt><trkpt lat="37.85854286920187" lon="15.297588494042255"><ele>3.0</ele><time>2026-04-19T09:20:32Z</time></trkpt><trkpt lat="37.858643203160575" lon="15.29736271762674"><ele>7.666666666666667</ele><time>2026-04-19T09:20:33Z</time></trkpt><trkpt lat="37.85873257919964" lon="15.297156467127268"><ele>12.333333333333334</ele><time>2026-04-19T09:20:34Z</time></trkpt><trkpt lat="37.85879845594671" lon="15.296962774577466"><ele>17.0</ele><time>2026-04-19T09:20:35Z</time></trkpt><trkpt lat="37.85884777182686" lon="15.296773039420087"><ele>17.0</ele><time>2026-04-19T09:20:36Z</time></trkpt><trkpt lat="37.8589350477685" lon="15.296614371174167"><ele>17.0</ele><time>2026-04-19T09:20:37Z</time></trkpt><trkpt lat="37.85904841260803" lon="15.296485404984677"><ele>17.0</ele><time>2026-04-19T09:20:38Z</time></trkpt><trkpt lat="37.85918289763871" lon="15.296364257867635"><ele>15.666666666666668</ele><time>2026-04-19T09:20:39Z</time></trkpt><trkpt lat="37.85933316035683" lon="15.296244972499855"><ele>14.333333333333332</ele><time>2026-04-19T09:20:40Z</time></trkpt><trkpt lat="37.85947082357006" lon="15.296116312524315"><ele>13.0</ele><time>2026-04-19T09:20:41Z</time></trkpt><trkpt lat="37.85956571670512" lon="15.295946976552054"><ele>13.0</ele><time>2026-04-19T09:20:42Z</time></trkpt><trkpt lat="37.85963273644409" lon="15.295770195895757"><ele>13.0</ele><time>2026-04-19T09:20:43Z</time></trkpt><trkpt lat="37.85972243800899" lon="15.295606458847061"><ele>13.0</ele><time>2026-04-19T09:20:44Z</time></trkpt><trkpt lat="37.859863510567166" lon="15.295475304093674"><ele>16.0</ele><time>2026-04-19T09:20:45Z</time></trkpt><trkpt lat="37.860033648542135" lon="15.295395075874545"><ele>19.0</ele><time>2026-04-19T09:20:46Z</time></trkpt><trkpt lat="37.860200959165006" lon="15.295361387140877"><ele>22.0</ele><time>2026-04-19T09:20:47Z</time></trkpt><trkpt lat="37.86036436179428" lon="15.295389812398414"><ele>25.666666666666664</ele><time>2026-04-19T09:20:48Z</time></trkpt><trkpt lat="37.86053659163685" lon="15.295426807413923"><ele>29.333333333333332</ele><time>2026-04-19T09:20:49Z</time></trkpt><trkpt lat="37.860706562302525" lon="15.295479223902753"><ele>33.0</ele><time>2026-04-19T09:20:50Z</time></trkpt><trkpt lat="37.86086331638702" lon="15.295503048394337"><ele>33.5</ele><time>2026-04-19T09:20:51Z</time></trkpt><trkpt lat="37.86100734355578" lon="15.295555841500319"><ele>34.0</ele><time>2026-04-19T09:20:52Z</time></trkpt><trkpt lat="37.86114738185242" lon="15.295603766172356"><ele>34.5</ele><time>2026-04-19T09:20:53Z</time></trkpt><trkpt lat="37.86128470690757" lon="15.295647629099602"><ele>35.0</ele><time>2026-04-19T09:20:54Z</time></trkpt><trkpt lat="37.86139511364756" lon="15.2957555533696"><ele>35.0</ele><time>2026-04-19T09:20:55Z</time></trkpt><trkpt lat="37.86146620731297" lon="15.295885067601924"><ele>35.0</ele><time>2026-04-19T09:20:56Z</time></trkpt><trkpt lat="37.861515533511934" lon="15.296009865871692"><ele>35.0</ele><time>2026-04-19T09:20:57Z</time></trkpt><trkpt lat="37.8615681923031" lon="15.296129941338497"><ele>35.0</ele><time>2026-04-19T09:20:58Z</time></trkpt><trkpt lat="37.86162335296297" lon="15.29623728207209"><ele>35.0</ele><time>2026-04-19T09:20:59Z</time></trkpt><trkpt lat="37.861699547180464" lon="15.296304660682878"><ele>36.0</ele><time>2026-04-19T09:21:00Z</time></trkpt><trkpt lat="37.861802608614084" lon="15.296322445642835"><ele>37.0</ele><time>2026-04-19T09:21:01Z</time></trkpt><trkpt lat="37.861919889227906" lon="15.29634223117888"><ele>38.0</ele><time>2026-04-19T09:21:02Z</time></trkpt><trkpt lat="37.86205444630334" lon="15.296352475488444"><ele>39.0</ele><time>2026-04-19T09:21:03Z</time></trkpt><trkpt lat="37.862208978041224" lon="15.296349019639708"><ele>39.0</ele><time>2026-04-19T09:21:04Z</time></trkpt><trkpt lat="37.862350216527545" lon="15.296368249959308"><ele>39.0</ele><time>2026-04-19T09:21:05Z</time></trkpt><trkpt lat="37.862461241001505" lon="15.29634002080097"><ele>39.0</ele><time>2026-04-19T09:21:06Z</time></trkpt><trkpt lat="37.86256157932235" lon="15.296267601622564"><ele>39.0</ele><time>2026-04-19T09:21:07Z</time></trkpt><trkpt lat="37.86264277198127" lon="15.296137215363549"><ele>35.0</ele><time>2026-04-19T09:21:08Z</time></trkpt><trkpt lat="37.86273426220567" lon="15.295986238608503"><ele>31.0</ele><time>2026-04-19T09:21:09Z</time></trkpt><trkpt lat="37.86286068633593" lon="15.295882396243051"><ele>27.0</ele><time>2026-04-19T09:21:10Z</time></trkpt><trkpt lat="37.86300923232862" lon="15.295833620698996"><ele>27.0</ele><time>2026-04-19T09:21:11Z</time></trkpt><trkpt lat="37.86317577166092" lon="15.295832016959567"><ele>27.0</ele><time>2026-04-19T09:21:12Z</time></trkpt><trkpt lat="37.86334530044626" lon="15.29586312943988"><ele>27.0</ele><time>2026-04-19T09:21:13Z</time></trkpt><trkpt lat="37.863525288957504" lon="15.295891719194481"><ele>27.333333333333336</ele><time>2026-04-19T09:21:14Z</time></trkpt><trkpt lat="37.863702159829685" lon="15.295923605430744"><ele>27.666666666666668</ele><time>2026-04-19T09:21:15Z</time></trkpt><trkpt lat="37.86386844469765" lon="15.2959572406236"><ele>28.0</ele><time>2026-04-19T09:21:16Z</time></trkpt><trkpt lat="37.864025346903595" lon="15.295996492629731"><ele>28.0</ele><time>2026-04-19T09:21:17Z</time></trkpt><trkpt lat="37.86417961586896" lon="15.296053958820417"><ele>28.0</ele><time>2026-04-19T09:21:18Z</time></trkpt><trkpt lat="37.864333356356916" lon="15.296111154780053"><ele>28.0</ele><time>2026-04-19T09:21:19Z</time></trkpt><trkpt lat="37.86446352131855" lon="15.296204707873589"><ele>23.666666666666668</ele><time>2026-04-19T09:21:20Z</time></trkpt><trkpt lat="37.8646101073902" lon="15.296270458724623"><ele>19.333333333333336</ele><time>2026-04-19T09:21:21Z</time></trkpt><trkpt lat="37.864745717613125" lon="15.296348022562864"><ele>15.0</ele><time>2026-04-19T09:21:22Z</time></trkpt><trkpt lat="37.8648799437873" lon="15.296426574852182"><ele>15.0</ele><time>2026-04-19T09:21:23Z</time></trkpt><trkpt lat="37.865023425135995" lon="15.296502188300462"><ele>15.0</ele><time>2026-04-19T09:21:24Z</time></trkpt><trkpt lat="37.86515719918366" lon="15.296575922078103"><ele>15.0</ele><time>2026-04-19T09:21:25Z</time></trkpt><trkpt lat="37.86528367215961" lon="15.296644361051003"><ele>15.0</ele><time>2026-04-19T09:21:26Z</time></trkpt><trkpt lat="37.865405974404275" lon="15.296719477557353"><ele>18.0</ele><time>2026-04-19T09:21:27Z</time></trkpt><trkpt lat="37.865527076557335" lon="15.296789990397702"><ele>21.0</ele><time>2026-04-19T09:21:28Z</time></trkpt><trkpt lat="37.86565202820572" lon="15.296861335172274"><ele>24.0</ele><time>2026-04-19T09:21:29Z</time></trkpt><trkpt lat="37.865780348657665" lon="15.29693406994415"><ele>27.0</ele><time>2026-04-19T09:21:30Z</time></trkpt><trkpt lat="37.86590102919668" lon="15.297034514310196"><ele>27.0</ele><time>2026-04-19T09:21:31Z</time></trkpt><trkpt lat="37.86601983695208" lon="15.297134689632838"><ele>27.0</ele><time>2026-04-19T09:21:32Z</time></trkpt><trkpt lat="37.86613550356116" lon="15.297257736047193"><ele>27.0</ele><time>2026-04-19T09:21:33Z</time></trkpt><trkpt lat="37.866253259140734" lon="15.297402124794857"><ele>27.0</ele><time>2026-04-19T09:21:34Z</time></trkpt><trkpt lat="37.86637086822219" lon="15.297570255891838"><ele>27.0</ele><time>2026-04-19T09:21:35Z</time></trkpt><trkpt lat="37.866489716738414" lon="15.297749279665256"><ele>27.0</ele><time>2026-04-19T09:21:36Z</time></trkpt><trkpt lat="37.86661073127483" lon="15.297899073304196"><ele>27.0</ele><time>2026-04-19T09:21:37Z</time></trkpt><trkpt lat="37.86672274492805" lon="15.298054181532581"><ele>27.0</ele><time>2026-04-19T09:21:38Z</time></trkpt><trkpt lat="37.86687675082122" lon="15.298157142200987"><ele>27.0</ele><time>2026-04-19T09:21:39Z</time></trkpt><trkpt lat="37.867048772755744" lon="15.298226342206442"><ele>23.666666666666668</ele><time>2026-04-19T09:21:40Z</time></trkpt><trkpt lat="37.86722235988504" lon="15.29828227352324"><ele>20.333333333333336</ele><time>2026-04-19T09:21:41Z</time></trkpt><trkpt lat="37.867397788836755" lon="15.298320498924909"><ele>17.0</ele><time>2026-04-19T09:21:42Z</time></trkpt><trkpt lat="37.86757924843094" lon="15.298305357458965"><ele>16.666666666666668</ele><time>2026-04-19T09:21:43Z</time></trkpt><trkpt lat="37.86777390907" lon="15.29830738096466"><ele>16.333333333333332</ele><time>2026-04-19T09:21:44Z</time></trkpt><trkpt lat="37.867933350070885" lon="15.298137879221606"><ele>16.0</ele><time>2026-04-19T09:21:45Z</time></trkpt><trkpt lat="37.868116977427185" lon="15.29805924926568"><ele>18.333333333333332</ele><time>2026-04-19T09:21:46Z</time></trkpt><trkpt lat="37.86832196763442" lon="15.298029220210896"><ele>20.666666666666668</ele><time>2026-04-19T09:21:47Z</time></trkpt><trkpt lat="37.86853281899814" lon="15.298053934500903"><ele>23.0</ele><time>2026-04-19T09:21:48Z</time></trkpt><trkpt lat="37.86874696501133" lon="15.298116954099644"><ele>23.0</ele><time>2026-04-19T09:21:49Z</time></trkpt><trkpt lat="37.868978157004925" lon="15.298196289742766"><ele>23.0</ele><time>2026-04-19T09:21:50Z</time></trkpt><trkpt lat="37.86923736034036" lon="15.298294957005387"><ele>27.5</ele><time>2026-04-19T09:21:51Z</time></trkpt><trkpt lat="37.8695195876136" lon="15.29839316098258"><ele>32.0</ele><time>2026-04-19T09:21:52Z</time></trkpt><trkpt lat="37.86981514847446" lon="15.298508149241252"><ele>41.0</ele><time>2026-04-19T09:21:53Z</time></trkpt><trkpt lat="37.87012056852221" lon="15.29863204158589"><ele>50.0</ele><time>2026-04-19T09:21:54Z</time></trkpt><trkpt lat="37.87041374972721" lon="15.298759311602186"><ele>50.0</ele><time>2026-04-19T09:21:55Z</time></trkpt><trkpt lat="37.870721880682716" lon="15.298909568621502"><ele>50.0</ele><time>2026-04-19T09:21:56Z</time></trkpt><trkpt lat="37.87104671850485" lon="15.299055427331917"><ele>37.5</ele><time>2026-04-19T09:21:57Z</time></trkpt><trkpt lat="37.871323594521485" lon="15.299235912510325"><ele>25.0</ele><time>2026-04-19T09:21:58Z</time></trkpt><trkpt lat="37.87158159292962" lon="15.299415459642093"><ele>31.0</ele><time>2026-04-19T09:21:59Z</time></trkpt><trkpt lat="37.87184600006818" lon="15.299582095557392"><ele>37.0</ele><time>2026-04-19T09:22:00Z</time></trkpt><trkpt lat="37.872089090707775" lon="15.299749570210956"><ele>28.0</ele><time>2026-04-19T09:22:01Z</time></trkpt><trkpt lat="37.87232808853097" lon="15.299908855464459"><ele>19.0</ele><time>2026-04-19T09:22:02Z</time></trkpt><trkpt lat="37.87256048567161" lon="15.30008763581987"><ele>24.0</ele><time>2026-04-19T09:22:03Z</time></trkpt><trkpt lat="37.872797692929566" lon="15.30024948429636"><ele>29.0</ele><time>2026-04-19T09:22:04Z</time></trkpt><trkpt lat="37.87302877320343" lon="15.300407206261623"><ele>29.0</ele><time>2026-04-19T09:22:05Z</time></trkpt><trkpt lat="37.873255890894015" lon="15.300563549100577"><ele>29.0</ele><time>2026-04-19T09:22:06Z</time></trkpt><trkpt lat="37.87348020357589" lon="15.30071852879482"><ele>30.0</ele><time>2026-04-19T09:22:07Z</time></trkpt><trkpt lat="37.87369585075196" lon="15.300865978069595"><ele>31.0</ele><time>2026-04-19T09:22:08Z</time></trkpt><trkpt lat="37.87389899698361" lon="15.301004784862117"><ele>31.0</ele><time>2026-04-19T09:22:09Z</time></trkpt><trkpt lat="37.874092264301915" lon="15.30113736024063"><ele>31.0</ele><time>2026-04-19T09:22:10Z</time></trkpt><trkpt lat="37.87429005881495" lon="15.30127369663502"><ele>31.0</ele><time>2026-04-19T09:22:11Z</time></trkpt><trkpt lat="37.87449865576298" lon="15.301388186332874"><ele>26.0</ele><time>2026-04-19T09:22:12Z</time></trkpt><trkpt lat="37.87471967185933" lon="15.301472953031933"><ele>21.0</ele><time>2026-04-19T09:22:13Z</time></trkpt><trkpt lat="37.8749356022496" lon="15.301534253691067"><ele>22.666666666666664</ele><time>2026-04-19T09:22:14Z</time></trkpt><trkpt lat="37.87514402493515" lon="15.301580662533382"><ele>24.333333333333332</ele><time>2026-04-19T09:22:15Z</time></trkpt><trkpt lat="37.87535418411887" lon="15.301607695710622"><ele>26.0</ele><time>2026-04-19T09:22:16Z</time></trkpt><trkpt lat="37.87556918053823" lon="15.30161851626263"><ele>26.0</ele><time>2026-04-19T09:22:17Z</time></trkpt><trkpt lat="37.87577553203639" lon="15.30167593192555"><ele>26.0</ele><time>2026-04-19T09:22:18Z</time></trkpt><trkpt lat="37.875973348667095" lon="15.301770083784847"><ele>26.0</ele><time>2026-04-19T09:22:19Z</time></trkpt><trkpt lat="37.87616967016465" lon="15.301888635408613"><ele>26.333333333333332</ele><time>2026-04-19T09:22:20Z</time></trkpt><trkpt lat="37.87636713336136" lon="15.30200595178771"><ele>26.666666666666664</ele><time>2026-04-19T09:22:21Z</time></trkpt><trkpt lat="37.876562625240844" lon="15.302119778608667"><ele>27.0</ele><time>2026-04-19T09:22:22Z</time></trkpt><trkpt lat="37.87674263825138" lon="15.302227379615545"><ele>28.333333333333336</ele><time>2026-04-19T09:22:23Z</time></trkpt><trkpt lat="37.87690617026528" lon="15.302338148560718"><ele>29.666666666666668</ele><time>2026-04-19T09:22:24Z</time></trkpt><trkpt lat="37.877060648257824" lon="15.302457142006844"><ele>31.0</ele><time>2026-04-19T09:22:25Z</time></trkpt><trkpt lat="37.877219000924015" lon="15.30257733920701"><ele>31.0</ele><time>2026-04-19T09:22:26Z</time></trkpt><trkpt lat="37.877381263655934" lon="15.302694741820398"><ele>31.0</ele><time>2026-04-19T09:22:27Z</time></trkpt><trkpt lat="37.87755647867249" lon="15.302826973562725"><ele>31.0</ele><time>2026-04-19T09:22:28Z</time></trkpt><trkpt lat="37.8777140005547" lon="15.302950562038333"><ele>33.333333333333336</ele><time>2026-04-19T09:22:29Z</time></trkpt><trkpt lat="37.87785877171313" lon="15.303069018338169"><ele>35.666666666666664</ele><time>2026-04-19T09:22:30Z</time></trkpt><trkpt lat="37.878035556911385" lon="15.303167602561793"><ele>38.0</ele><time>2026-04-19T09:22:31Z</time></trkpt><trkpt lat="37.87819773795843" lon="15.30327522798842"><ele>33.666666666666664</ele><time>2026-04-19T09:22:32Z</time></trkpt><trkpt lat="37.87836542779235" lon="15.30338608268213"><ele>29.333333333333336</ele><time>2026-04-19T09:22:33Z</time></trkpt><trkpt lat="37.878535837826874" lon="15.303494972169032"><ele>25.0</ele><time>2026-04-19T09:22:34Z</time></trkpt><trkpt lat="37.87869601064315" lon="15.30361912897079"><ele>25.0</ele><time>2026-04-19T09:22:35Z</time></trkpt><trkpt lat="37.87885798452892" lon="15.303706741932796"><ele>25.0</ele><time>2026-04-19T09:22:36Z</time></trkpt><trkpt lat="37.879017223295904" lon="15.30376624445393"><ele>25.0</ele><time>2026-04-19T09:22:37Z</time></trkpt><trkpt lat="37.879152840764256" lon="15.30386284425079"><ele>23.75</ele><time>2026-04-19T09:22:38.001Z</time></trkpt><trkpt lat="37.87927562272596" lon="15.30395446816891"><ele>22.5</ele><time>2026-04-19T09:22:39.001Z</time></trkpt><trkpt lat="37.879385622781214" lon="15.30405854025382"><ele>21.25</ele><time>2026-04-19T09:22:40.001Z</time></trkpt><trkpt lat="37.87948537588124" lon="15.304160469395768"><ele>20.0</ele><time>2026-04-19T09:22:41.001Z</time></trkpt><trkpt lat="37.87957664014336" lon="15.304263617634888"><ele>20.0</ele><time>2026-04-19T09:22:42.001Z</time></trkpt><trkpt lat="37.879653122505275" lon="15.304352970385377"><ele>20.0</ele><time>2026-04-19T09:22:43.001Z</time></trkpt><trkpt lat="37.8797179098058" lon="15.304428339739786"><ele>20.0</ele><time>2026-04-19T09:22:44.001Z</time></trkpt><trkpt lat="37.879774975543675" lon="15.30449368748583"><ele>20.0</ele><time>2026-04-19T09:22:45.001Z</time></trkpt><trkpt lat="37.87983437252538" lon="15.304534865328685"><ele>20.0</ele><time>2026-04-19T09:22:46.001Z</time></trkpt><trkpt lat="37.879891029848935" lon="15.304604685877782"><ele>20.0</ele><time>2026-04-19T09:22:48.001Z</time></trkpt><trkpt lat="37.879952859626336" lon="15.304681674159047"><ele>19.0</ele><time>2026-04-19T09:24:00Z</time></trkpt><trkpt lat="37.880060924962685" lon="15.304806109614233"><ele>18.0</ele><time>2026-04-19T09:24:02Z</time></trkpt><trkpt lat="37.88012540794412" lon="15.304894262787485"><ele>17.0</ele><time>2026-04-19T09:24:03Z</time></trkpt><trkpt lat="37.880210074239734" lon="15.304990114832139"><ele>16.0</ele><time>2026-04-19T09:24:04Z</time></trkpt><trkpt lat="37.880320184333165" lon="15.305117942775713"><ele>17.0</ele><time>2026-04-19T09:24:05Z</time></trkpt><trkpt lat="37.88046966886511" lon="15.3052846381412"><ele>18.0</ele><time>2026-04-19T09:24:06Z</time></trkpt><trkpt lat="37.88065770980235" lon="15.305493188136744"><ele>19.0</ele><time>2026-04-19T09:24:07Z</time></trkpt><trkpt lat="37.88082501298582" lon="15.305683447098108"><ele>22.666666666666664</ele><time>2026-04-19T09:24:08Z</time></trkpt><trkpt lat="37.88097007744435" lon="15.305855413205386"><ele>26.333333333333332</ele><time>2026-04-19T09:24:09Z</time></trkpt><trkpt lat="37.88105157803667" lon="15.30605365958582"><ele>30.0</ele><time>2026-04-19T09:24:10Z</time></trkpt><trkpt lat="37.88111683970755" lon="15.306238291960803"><ele>29.666666666666664</ele><time>2026-04-19T09:24:11Z</time></trkpt><trkpt lat="37.88117870203497" lon="15.306423143083384"><ele>29.333333333333332</ele><time>2026-04-19T09:24:12Z</time></trkpt><trkpt lat="37.881268376557735" lon="15.306591798208508"><ele>29.0</ele><time>2026-04-19T09:24:13Z</time></trkpt><trkpt lat="37.88134213394424" lon="15.306740768576597"><ele>29.0</ele><time>2026-04-19T09:24:14Z</time></trkpt><trkpt lat="37.881435700412936" lon="15.306864031388034"><ele>29.0</ele><time>2026-04-19T09:24:15Z</time></trkpt><trkpt lat="37.88153247110414" lon="15.306974089897231"><ele>29.0</ele><time>2026-04-19T09:24:16Z</time></trkpt><trkpt lat="37.8816334535091" lon="15.307075434575106"><ele>29.0</ele><time>2026-04-19T09:24:17Z</time></trkpt><trkpt lat="37.88172528421491" lon="15.30717925754207"><ele>31.25</ele><time>2026-04-19T09:24:18Z</time></trkpt><trkpt lat="37.88181925621918" lon="15.307284838865575"><ele>33.5</ele><time>2026-04-19T09:24:19Z</time></trkpt><trkpt lat="37.88190623509364" lon="15.307408800834638"><ele>35.75</ele><time>2026-04-19T09:24:20Z</time></trkpt><trkpt lat="37.88200709880163" lon="15.307521086379008"><ele>38.0</ele><time>2026-04-19T09:24:21Z</time></trkpt><trkpt lat="37.882110017871206" lon="15.307635650661451"><ele>38.0</ele><time>2026-04-19T09:24:22Z</time></trkpt><trkpt lat="37.88221013371892" lon="15.307723290284525"><ele>38.0</ele><time>2026-04-19T09:24:23Z</time></trkpt><trkpt lat="37.882296447379126" lon="15.307817966676756"><ele>38.0</ele><time>2026-04-19T09:24:24Z</time></trkpt><trkpt lat="37.88238103154648" lon="15.307923906919521"><ele>38.0</ele><time>2026-04-19T09:24:25Z</time></trkpt><trkpt lat="37.882467139796525" lon="15.308014045267532"><ele>38.0</ele><time>2026-04-19T09:24:26Z</time></trkpt><trkpt lat="37.88255530043067" lon="15.30811131314759"><ele>38.0</ele><time>2026-04-19T09:24:27Z</time></trkpt><trkpt lat="37.88263894043875" lon="15.308210955852987"><ele>38.0</ele><time>2026-04-19T09:24:28Z</time></trkpt><trkpt lat="37.88272405773593" lon="15.308308653610574"><ele>38.0</ele><time>2026-04-19T09:24:29Z</time></trkpt><trkpt lat="37.88280928406316" lon="15.308405147680707"><ele>38.0</ele><time>2026-04-19T09:24:30Z</time></trkpt><trkpt lat="37.882894932657614" lon="15.308512703564887"><ele>38.0</ele><time>2026-04-19T09:24:31Z</time></trkpt><trkpt lat="37.882984360304455" lon="15.308622937718537"><ele>38.0</ele><time>2026-04-19T09:24:32Z</time></trkpt><trkpt lat="37.88307845725498" lon="15.308737411770382"><ele>38.0</ele><time>2026-04-19T09:24:33Z</time></trkpt><trkpt lat="37.88317290709422" lon="15.308862785197283"><ele>41.5</ele><time>2026-04-19T09:24:34Z</time></trkpt><trkpt lat="37.8832682906057" lon="15.308996101398327"><ele>45.0</ele><time>2026-04-19T09:24:35Z</time></trkpt><trkpt lat="37.88336020958555" lon="15.309134425390369"><ele>48.5</ele><time>2026-04-19T09:24:36Z</time></trkpt><trkpt lat="37.883460625847775" lon="15.309273811812174"><ele>52.0</ele><time>2026-04-19T09:24:37Z</time></trkpt><trkpt lat="37.883556030838115" lon="15.309416950082689"><ele>52.0</ele><time>2026-04-19T09:24:38Z</time></trkpt><trkpt lat="37.883654365846915" lon="15.309559059452399"><ele>52.0</ele><time>2026-04-19T09:24:39Z</time></trkpt><trkpt lat="37.88375093356789" lon="15.30970116272329"><ele>52.0</ele><time>2026-04-19T09:24:40Z</time></trkpt><trkpt lat="37.88384783286171" lon="15.309844032487923"><ele>52.0</ele><time>2026-04-19T09:24:41Z</time></trkpt><trkpt lat="37.883942335064894" lon="15.309986688061418"><ele>54.0</ele><time>2026-04-19T09:24:42Z</time></trkpt><trkpt lat="37.88403558766785" lon="15.310127983296107"><ele>56.0</ele><time>2026-04-19T09:24:43Z</time></trkpt><trkpt lat="37.884113627225915" lon="15.310283442720051"><ele>58.0</ele><time>2026-04-19T09:24:44Z</time></trkpt><trkpt lat="37.88420919198571" lon="15.310417477160147"><ele>60.0</ele><time>2026-04-19T09:24:45Z</time></trkpt><trkpt lat="37.88429976886938" lon="15.310536804178893"><ele>53.25</ele><time>2026-04-19T09:24:46Z</time></trkpt><trkpt lat="37.88438603749872" lon="15.310642623428315"><ele>46.5</ele><time>2026-04-19T09:24:47Z</time></trkpt><trkpt lat="37.8844787745701" lon="15.310728952450564"><ele>39.75</ele><time>2026-04-19T09:24:48Z</time></trkpt><trkpt lat="37.88453299802766" lon="15.310864565711983"><ele>33.0</ele><time>2026-04-19T09:24:49Z</time></trkpt><trkpt lat="37.88460068773649" lon="15.31098027149143"><ele>33.0</ele><time>2026-04-19T09:24:50.001Z</time></trkpt><trkpt lat="37.88470010192788" lon="15.311074936754645"><ele>33.0</ele><time>2026-04-19T09:24:51.001Z</time></trkpt><trkpt lat="37.88481076183058" lon="15.311159756444304"><ele>33.0</ele><time>2026-04-19T09:24:52.001Z</time></trkpt><trkpt lat="37.88490746470981" lon="15.311281228991188"><ele>33.0</ele><time>2026-04-19T09:24:53.001Z</time></trkpt><trkpt lat="37.885002639790024" lon="15.311405223885192"><ele>37.0</ele><time>2026-04-19T09:24:54.001Z</time></trkpt><trkpt lat="37.88510985493884" lon="15.31152467787059"><ele>41.0</ele><time>2026-04-19T09:24:55.001Z</time></trkpt><trkpt lat="37.88522365547902" lon="15.311648632714999"><ele>45.0</ele><time>2026-04-19T09:24:56.001Z</time></trkpt><trkpt lat="37.88534618807397" lon="15.311777589882864"><ele>45.0</ele><time>2026-04-19T09:24:57.001Z</time></trkpt><trkpt lat="37.885487836446394" lon="15.31191377697841"><ele>45.0</ele><time>2026-04-19T09:24:58.001Z</time></trkpt><trkpt lat="37.88564022303372" lon="15.31204965101204"><ele>45.0</ele><time>2026-04-19T09:24:59.001Z</time></trkpt><trkpt lat="37.88579977898715" lon="15.31219795762299"><ele>43.0</ele><time>2026-04-19T09:25:00.001Z</time></trkpt><trkpt lat="37.88596357612957" lon="15.312361833910503"><ele>41.0</ele><time>2026-04-19T09:25:01.001Z</time></trkpt><trkpt lat="37.88610452789336" lon="15.312562265739679"><ele>39.0</ele><time>2026-04-19T09:25:02.001Z</time></trkpt><trkpt lat="37.88626017775983" lon="15.312750648466846"><ele>39.0</ele><time>2026-04-19T09:25:03.001Z</time></trkpt><trkpt lat="37.886406653201036" lon="15.312924224742954"><ele>39.0</ele><time>2026-04-19T09:25:04Z</time></trkpt><trkpt lat="37.88655090533231" lon="15.313083377868486"><ele>39.0</ele><time>2026-04-19T09:25:05Z</time></trkpt><trkpt lat="37.88669889566883" lon="15.313227895137596"><ele>39.333333333333336</ele><time>2026-04-19T09:25:06Z</time></trkpt><trkpt lat="37.88684641336206" lon="15.313360094983521"><ele>39.66666666666667</ele><time>2026-04-19T09:25:07Z</time></trkpt><trkpt lat="37.88699067693627" lon="15.313482769113664"><ele>40.0</ele><time>2026-04-19T09:25:08Z</time></trkpt><trkpt lat="37.8871281476071" lon="15.313592843575865"><ele>40.0</ele><time>2026-04-19T09:25:09Z</time></trkpt><trkpt lat="37.887245961691676" lon="15.313685108656262"><ele>40.0</ele><time>2026-04-19T09:25:10Z</time></trkpt><trkpt lat="37.8873419464483" lon="15.313757730888007"><ele>40.0</ele><time>2026-04-19T09:25:11Z</time></trkpt><trkpt lat="37.887408881688096" lon="15.313814612453163"><ele>40.0</ele><time>2026-04-19T09:25:12Z</time></trkpt><trkpt lat="37.88747446134401" lon="15.31385284964023"><ele>40.0</ele><time>2026-04-19T09:25:13Z</time></trkpt><trkpt lat="37.88754178583884" lon="15.31393464876991"><ele>40.0</ele><time>2026-04-19T09:25:14Z</time></trkpt><trkpt lat="37.88763781192231" lon="15.314040358160437"><ele>40.0</ele><time>2026-04-19T09:25:15Z</time></trkpt><trkpt lat="37.88774433710598" lon="15.314176545672417"><ele>40.0</ele><time>2026-04-19T09:25:16Z</time></trkpt><trkpt lat="37.88786400327322" lon="15.314343336512952"><ele>40.0</ele><time>2026-04-19T09:25:17Z</time></trkpt><trkpt lat="37.88800193317582" lon="15.31453865868933"><ele>40.0</ele><time>2026-04-19T09:25:18Z</time></trkpt><trkpt lat="37.88815951973522" lon="15.314768975569702"><ele>40.0</ele><time>2026-04-19T09:25:19Z</time></trkpt><trkpt lat="37.88832162144451" lon="15.315046997114413"><ele>47.5</ele><time>2026-04-19T09:25:20Z</time></trkpt><trkpt lat="37.8884937255468" lon="15.315371459194054"><ele>55.0</ele><time>2026-04-19T09:25:21Z</time></trkpt><trkpt lat="37.888672444682456" lon="15.315711535852802"><ele>55.0</ele><time>2026-04-19T09:25:22Z</time></trkpt><trkpt lat="37.888843246529774" lon="15.316012341772497"><ele>55.0</ele><time>2026-04-19T09:25:23Z</time></trkpt><trkpt lat="37.88901215990164" lon="15.316282971224648"><ele>53.5</ele><time>2026-04-19T09:25:24Z</time></trkpt><trkpt lat="37.88917322179332" lon="15.316526313755249"><ele>52.0</ele><time>2026-04-19T09:25:25Z</time></trkpt><trkpt lat="37.88933667583657" lon="15.316743920812193"><ele>52.0</ele><time>2026-04-19T09:25:26Z</time></trkpt><trkpt lat="37.889502921678314" lon="15.316978950084236"><ele>52.0</ele><time>2026-04-19T09:25:27Z</time></trkpt><trkpt lat="37.88968091820062" lon="15.317207957659775"><ele>39.5</ele><time>2026-04-19T09:25:28Z</time></trkpt><trkpt lat="37.88985731480883" lon="15.317422976847608"><ele>27.0</ele><time>2026-04-19T09:25:29Z</time></trkpt><trkpt lat="37.89003615730185" lon="15.317627674741535"><ele>39.5</ele><time>2026-04-19T09:25:30Z</time></trkpt><trkpt lat="37.89022410769742" lon="15.317831688878558"><ele>52.0</ele><time>2026-04-19T09:25:31Z</time></trkpt><trkpt lat="37.89042051173601" lon="15.318037508666599"><ele>39.5</ele><time>2026-04-19T09:25:32Z</time></trkpt><trkpt lat="37.89062223734781" lon="15.318249179288278"><ele>27.0</ele><time>2026-04-19T09:25:33Z</time></trkpt><trkpt lat="37.890826479823865" lon="15.31846311534821"><ele>45.0</ele><time>2026-04-19T09:25:34Z</time></trkpt><trkpt lat="37.89103208958447" lon="15.318678065650223"><ele>63.0</ele><time>2026-04-19T09:25:35Z</time></trkpt><trkpt lat="37.89124105415721" lon="15.318896523167092"><ele>50.0</ele><time>2026-04-19T09:25:36Z</time></trkpt><trkpt lat="37.89145123881766" lon="15.31911616066551"><ele>37.0</ele><time>2026-04-19T09:25:37Z</time></trkpt><trkpt lat="37.891661453870796" lon="15.319335822859369"><ele>35.5</ele><time>2026-04-19T09:25:38Z</time></trkpt><trkpt lat="37.89187233402607" lon="15.31955617910523"><ele>34.0</ele><time>2026-04-19T09:25:39Z</time></trkpt><trkpt lat="37.892085205379985" lon="15.319778713320643"><ele>34.0</ele><time>2026-04-19T09:25:40Z</time></trkpt><trkpt lat="37.89230172479102" lon="15.320005739665074"><ele>34.0</ele><time>2026-04-19T09:25:41Z</time></trkpt><trkpt lat="37.89252311348708" lon="15.320234211419258"><ele>37.5</ele><time>2026-04-19T09:25:42Z</time></trkpt><trkpt lat="37.89273463578287" lon="15.320451666023363"><ele>41.0</ele><time>2026-04-19T09:25:43Z</time></trkpt><trkpt lat="37.89293990645256" lon="15.320664913234237"><ele>41.0</ele><time>2026-04-19T09:25:44Z</time></trkpt><trkpt lat="37.893139401884795" lon="15.320871588881737"><ele>41.0</ele><time>2026-04-19T09:25:45Z</time></trkpt><trkpt lat="37.89334064950394" lon="15.321058785871111"><ele>40.5</ele><time>2026-04-19T09:25:46Z</time></trkpt><trkpt lat="37.89352198763043" lon="15.321266646375319"><ele>40.0</ele><time>2026-04-19T09:25:47Z</time></trkpt><trkpt lat="37.89369378513522" lon="15.321480157511639"><ele>40.0</ele><time>2026-04-19T09:25:48Z</time></trkpt><trkpt lat="37.893832232392526" lon="15.321714230393516"><ele>40.0</ele><time>2026-04-19T09:25:49Z</time></trkpt><trkpt lat="37.89397152447596" lon="15.321923855391175"><ele>40.0</ele><time>2026-04-19T09:25:50Z</time></trkpt><trkpt lat="37.89409232382416" lon="15.32215180921267"><ele>42.333333333333336</ele><time>2026-04-19T09:25:51Z</time></trkpt><trkpt lat="37.89422025856239" lon="15.322384490752645"><ele>44.666666666666664</ele><time>2026-04-19T09:25:52Z</time></trkpt><trkpt lat="37.8943619769614" lon="15.322585067548637"><ele>47.0</ele><time>2026-04-19T09:25:53Z</time></trkpt><trkpt lat="37.89452507052039" lon="15.322745334912513"><ele>47.0</ele><time>2026-04-19T09:25:54Z</time></trkpt><trkpt lat="37.89471675718025" lon="15.3228741237021"><ele>47.0</ele><time>2026-04-19T09:25:55Z</time></trkpt><trkpt lat="37.894909420443476" lon="15.323012196443404"><ele>47.0</ele><time>2026-04-19T09:25:56Z</time></trkpt><trkpt lat="37.8950830126723" lon="15.323207227284986"><ele>46.0</ele><time>2026-04-19T09:25:57Z</time></trkpt><trkpt lat="37.89524471673596" lon="15.323440987862808"><ele>45.0</ele><time>2026-04-19T09:25:58Z</time></trkpt><trkpt lat="37.89541267272216" lon="15.32367827808585"><ele>34.5</ele><time>2026-04-19T09:25:59Z</time></trkpt><trkpt lat="37.89556126057925" lon="15.323931567281276"><ele>24.0</ele><time>2026-04-19T09:26:00Z</time></trkpt><trkpt lat="37.895736431178435" lon="15.324128743633537"><ele>29.333333333333336</ele><time>2026-04-19T09:26:01Z</time></trkpt><trkpt lat="37.89593044862436" lon="15.324290238069691"><ele>34.66666666666667</ele><time>2026-04-19T09:26:02Z</time></trkpt><trkpt lat="37.896093292812914" lon="15.32445406015039"><ele>40.0</ele><time>2026-04-19T09:26:03Z</time></trkpt><trkpt lat="37.89624184448554" lon="15.324599777690036"><ele>40.0</ele><time>2026-04-19T09:26:04Z</time></trkpt><trkpt lat="37.896426979651935" lon="15.324663874566712"><ele>40.0</ele><time>2026-04-19T09:26:05Z</time></trkpt><trkpt lat="37.89662243832896" lon="15.32469751285182"><ele>40.0</ele><time>2026-04-19T09:26:06Z</time></trkpt><trkpt lat="37.89681986191978" lon="15.324774664529935"><ele>38.5</ele><time>2026-04-19T09:26:07Z</time></trkpt><trkpt lat="37.897017294037994" lon="15.324915120071184"><ele>37.0</ele><time>2026-04-19T09:26:08Z</time></trkpt><trkpt lat="37.89720382301725" lon="15.325079903211302"><ele>37.0</ele><time>2026-04-19T09:26:09Z</time></trkpt><trkpt lat="37.89735473298381" lon="15.325227386970361"><ele>37.0</ele><time>2026-04-19T09:26:10Z</time></trkpt><trkpt lat="37.89747488474942" lon="15.325359425663473"><ele>37.0</ele><time>2026-04-19T09:26:11Z</time></trkpt><trkpt lat="37.897589851242955" lon="15.325495437916961"><ele>37.0</ele><time>2026-04-19T09:26:12Z</time></trkpt><trkpt lat="37.89771877969581" lon="15.325653343793299"><ele>37.0</ele><time>2026-04-19T09:26:13Z</time></trkpt><trkpt lat="37.897872741413664" lon="15.325810995332912"><ele>37.0</ele><time>2026-04-19T09:26:14Z</time></trkpt><trkpt lat="37.898043709565044" lon="15.325971265657227"><ele>37.0</ele><time>2026-04-19T09:26:15Z</time></trkpt><trkpt lat="37.898220580767614" lon="15.326132595880603"><ele>37.0</ele><time>2026-04-19T09:26:16Z</time></trkpt><trkpt lat="37.898393204173914" lon="15.326292710215219"><ele>37.0</ele><time>2026-04-19T09:26:17Z</time></trkpt><trkpt lat="37.8985538596842" lon="15.32645563704948"><ele>39.333333333333336</ele><time>2026-04-19T09:26:18Z</time></trkpt><trkpt lat="37.89870765252271" lon="15.326629139311466"><ele>41.666666666666664</ele><time>2026-04-19T09:26:19Z</time></trkpt><trkpt lat="37.898849389668996" lon="15.326795063028195"><ele>44.0</ele><time>2026-04-19T09:26:20Z</time></trkpt><trkpt lat="37.89898363244347" lon="15.326955305651964"><ele>44.0</ele><time>2026-04-19T09:26:21Z</time></trkpt><trkpt lat="37.89910745971365" lon="15.32711420444658"><ele>44.0</ele><time>2026-04-19T09:26:22Z</time></trkpt><trkpt lat="37.89921774961384" lon="15.327271761236686"><ele>44.0</ele><time>2026-04-19T09:26:23Z</time></trkpt><trkpt lat="37.89931421854802" lon="15.327436435651833"><ele>44.0</ele><time>2026-04-19T09:26:24Z</time></trkpt><trkpt lat="37.89938918212231" lon="15.32760255599951"><ele>44.0</ele><time>2026-04-19T09:26:25Z</time></trkpt><trkpt lat="37.899444404132545" lon="15.327751832138746"><ele>44.0</ele><time>2026-04-19T09:26:26Z</time></trkpt><trkpt lat="37.89949435913459" lon="15.327887517803582"><ele>44.0</ele><time>2026-04-19T09:26:27Z</time></trkpt><trkpt lat="37.899555175399215" lon="15.32801074009366"><ele>37.33333333333333</ele><time>2026-04-19T09:26:28Z</time></trkpt><trkpt lat="37.89965703420623" lon="15.328139074827867"><ele>30.666666666666664</ele><time>2026-04-19T09:26:29Z</time></trkpt><trkpt lat="37.899793783793" lon="15.328258189964968"><ele>24.0</ele><time>2026-04-19T09:26:30Z</time></trkpt><trkpt lat="37.89997454238304" lon="15.32830074753026"><ele>30.0</ele><time>2026-04-19T09:26:31Z</time></trkpt><trkpt lat="37.90016312929057" lon="15.328344635575272"><ele>36.0</ele><time>2026-04-19T09:26:32Z</time></trkpt><trkpt lat="37.90035318695776" lon="15.32843370063407"><ele>42.0</ele><time>2026-04-19T09:26:33Z</time></trkpt><trkpt lat="37.9005211543486" lon="15.328532476428013"><ele>42.0</ele><time>2026-04-19T09:26:34Z</time></trkpt><trkpt lat="37.900652612907976" lon="15.328629615839699"><ele>42.0</ele><time>2026-04-19T09:26:35Z</time></trkpt><trkpt lat="37.90076965545301" lon="15.328739496069899"><ele>42.0</ele><time>2026-04-19T09:26:36Z</time></trkpt><trkpt lat="37.90091216786045" lon="15.32888548943731"><ele>40.0</ele><time>2026-04-19T09:26:37Z</time></trkpt><trkpt lat="37.90107456488" lon="15.329057700086707"><ele>38.0</ele><time>2026-04-19T09:26:38Z</time></trkpt><trkpt lat="37.90124233346452" lon="15.329249050310603"><ele>36.0</ele><time>2026-04-19T09:26:39Z</time></trkpt><trkpt lat="37.90140807950431" lon="15.329445214310146"><ele>36.0</ele><time>2026-04-19T09:26:40Z</time></trkpt><trkpt lat="37.901567204251904" lon="15.329631490587236"><ele>36.0</ele><time>2026-04-19T09:26:41Z</time></trkpt><trkpt lat="37.90173572660685" lon="15.329796858429551"><ele>36.0</ele><time>2026-04-19T09:26:42Z</time></trkpt><trkpt lat="37.90189348811676" lon="15.329985234611616"><ele>35.333333333333336</ele><time>2026-04-19T09:26:43Z</time></trkpt><trkpt lat="37.90210013126522" lon="15.330094783536678"><ele>34.66666666666667</ele><time>2026-04-19T09:26:44Z</time></trkpt><trkpt lat="37.90229444639446" lon="15.330211494881336"><ele>34.0</ele><time>2026-04-19T09:26:45Z</time></trkpt><trkpt lat="37.90246491654933" lon="15.330301780059346"><ele>37.25</ele><time>2026-04-19T09:26:46Z</time></trkpt><trkpt lat="37.902612102240006" lon="15.330380259248068"><ele>40.5</ele><time>2026-04-19T09:26:47Z</time></trkpt><trkpt lat="37.90273696329463" lon="15.330447227937734"><ele>43.75</ele><time>2026-04-19T09:26:48Z</time></trkpt><trkpt lat="37.902851648418626" lon="15.330515621500842"><ele>47.0</ele><time>2026-04-19T09:26:49Z</time></trkpt><trkpt lat="37.90294063009249" lon="15.330594909083914"><ele>47.0</ele><time>2026-04-19T09:26:50Z</time></trkpt><trkpt lat="37.902999787002855" lon="15.330708316368028"><ele>47.0</ele><time>2026-04-19T09:26:51Z</time></trkpt><trkpt lat="37.90305900602021" lon="15.330869934311059"><ele>47.0</ele><time>2026-04-19T09:26:52Z</time></trkpt><trkpt lat="37.903122857846355" lon="15.33107075965093"><ele>47.0</ele><time>2026-04-19T09:26:53Z</time></trkpt><trkpt lat="37.903189294984166" lon="15.331284989390946"><ele>45.0</ele><time>2026-04-19T09:26:54Z</time></trkpt><trkpt lat="37.90325509408017" lon="15.331506524341403"><ele>43.0</ele><time>2026-04-19T09:26:55Z</time></trkpt><trkpt lat="37.903311458034764" lon="15.331722162349296"><ele>41.0</ele><time>2026-04-19T09:26:56Z</time></trkpt><trkpt lat="37.90335938443805" lon="15.331918430324546"><ele>41.0</ele><time>2026-04-19T09:26:57Z</time></trkpt><trkpt lat="37.90340674671514" lon="15.33210452215842"><ele>41.0</ele><time>2026-04-19T09:26:58Z</time></trkpt><trkpt lat="37.90346316880674" lon="15.332291243462498"><ele>41.0</ele><time>2026-04-19T09:26:59.001Z</time></trkpt><trkpt lat="37.903539921457686" lon="15.33249322694385"><ele>39.666666666666664</ele><time>2026-04-19T09:27:00.001Z</time></trkpt><trkpt lat="37.903678151578816" lon="15.332667785814806"><ele>38.333333333333336</ele><time>2026-04-19T09:27:01.001Z</time></trkpt><trkpt lat="37.903764754765966" lon="15.33287206234006"><ele>37.0</ele><time>2026-04-19T09:27:02.001Z</time></trkpt><trkpt lat="37.90383136803897" lon="15.333063413455383"><ele>37.0</ele><time>2026-04-19T09:27:03.001Z</time></trkpt><trkpt lat="37.90387937609231" lon="15.333241992626382"><ele>37.0</ele><time>2026-04-19T09:27:04.001Z</time></trkpt><trkpt lat="37.903907518204" lon="15.333399287061779"><ele>37.0</ele><time>2026-04-19T09:27:05.001Z</time></trkpt><trkpt lat="37.90397050145891" lon="15.333535916692638"><ele>37.0</ele><time>2026-04-19T09:27:06.001Z</time></trkpt><trkpt lat="37.90404938437963" lon="15.33365550527769"><ele>37.0</ele><time>2026-04-19T09:27:07.001Z</time></trkpt><trkpt lat="37.90413904202359" lon="15.33375654233549"><ele>37.0</ele><time>2026-04-19T09:27:08.001Z</time></trkpt><trkpt lat="37.904235702293185" lon="15.333845605912702"><ele>37.0</ele><time>2026-04-19T09:27:09.001Z</time></trkpt><trkpt lat="37.904355415797255" lon="15.333950565288797"><ele>37.0</ele><time>2026-04-19T09:27:10Z</time></trkpt><trkpt lat="37.90449640664224" lon="15.334070616331921"><ele>32.66666666666667</ele><time>2026-04-19T09:27:11Z</time></trkpt><trkpt lat="37.904648465251164" lon="15.334198048507476"><ele>28.333333333333336</ele><time>2026-04-19T09:27:12Z</time></trkpt><trkpt lat="37.904800331985825" lon="15.334327163980053"><ele>24.0</ele><time>2026-04-19T09:27:13Z</time></trkpt><trkpt lat="37.904952227179805" lon="15.334428792670199"><ele>22.0</ele><time>2026-04-19T09:27:14Z</time></trkpt><trkpt lat="37.90509889992345" lon="15.334494537550146"><ele>20.0</ele><time>2026-04-19T09:27:15Z</time></trkpt><trkpt lat="37.905228464198395" lon="15.334563231025886"><ele>18.0</ele><time>2026-04-19T09:27:16Z</time></trkpt><trkpt lat="37.905349525415865" lon="15.334646566412617"><ele>16.0</ele><time>2026-04-19T09:27:17Z</time></trkpt><trkpt lat="37.90540196168832" lon="15.33482382597976"><ele>14.5</ele><time>2026-04-19T09:27:18Z</time></trkpt><trkpt lat="37.90546438269573" lon="15.334978244770575"><ele>13.0</ele><time>2026-04-19T09:27:19Z</time></trkpt><trkpt lat="37.90554093278497" lon="15.33512549008685"><ele>11.5</ele><time>2026-04-19T09:27:20Z</time></trkpt><trkpt lat="37.9056516911687" lon="15.33524459253488"><ele>10.0</ele><time>2026-04-19T09:27:21Z</time></trkpt><trkpt lat="37.90576222357153" lon="15.335328165489594"><ele>10.0</ele><time>2026-04-19T09:27:22Z</time></trkpt><trkpt lat="37.90586271180719" lon="15.335417355939509"><ele>10.0</ele><time>2026-04-19T09:27:23Z</time></trkpt><trkpt lat="37.90595624006496" lon="15.33550082629283"><ele>10.0</ele><time>2026-04-19T09:27:24Z</time></trkpt><trkpt lat="37.90606679994713" lon="15.335567028942412"><ele>10.0</ele><time>2026-04-19T09:27:25Z</time></trkpt><trkpt lat="37.90620422534404" lon="15.335595857868578"><ele>11.333333333333334</ele><time>2026-04-19T09:27:26Z</time></trkpt><trkpt lat="37.906357886619205" lon="15.335643832925971"><ele>12.666666666666668</ele><time>2026-04-19T09:27:27Z</time></trkpt><trkpt lat="37.906529283488226" lon="15.335672998917966"><ele>14.0</ele><time>2026-04-19T09:27:28Z</time></trkpt><trkpt lat="37.906711361840365" lon="15.335703362009571"><ele>18.666666666666668</ele><time>2026-04-19T09:27:29Z</time></trkpt><trkpt lat="37.906879644569415" lon="15.335738297228607"><ele>23.333333333333336</ele><time>2026-04-19T09:27:30Z</time></trkpt><trkpt lat="37.90704341418238" lon="15.335819200282236"><ele>28.0</ele><time>2026-04-19T09:27:31Z</time></trkpt><trkpt lat="37.90718954262825" lon="15.335949769296366"><ele>28.0</ele><time>2026-04-19T09:27:32Z</time></trkpt><trkpt lat="37.90730666353273" lon="15.336153176070768"><ele>28.0</ele><time>2026-04-19T09:27:33Z</time></trkpt><trkpt lat="37.90744448269267" lon="15.336392379108052"><ele>28.0</ele><time>2026-04-19T09:27:34Z</time></trkpt><trkpt lat="37.90760417424597" lon="15.33664579876826"><ele>34.0</ele><time>2026-04-19T09:27:35Z</time></trkpt><trkpt lat="37.9077647225086" lon="15.336897091727922"><ele>40.0</ele><time>2026-04-19T09:27:36Z</time></trkpt><trkpt lat="37.90790557524083" lon="15.337118158796189"><ele>37.333333333333336</ele><time>2026-04-19T09:27:37Z</time></trkpt><trkpt lat="37.90803174658748" lon="15.337316269157927"><ele>34.666666666666664</ele><time>2026-04-19T09:27:38Z</time></trkpt><trkpt lat="37.908128677910206" lon="15.337499797429823"><ele>32.0</ele><time>2026-04-19T09:27:39Z</time></trkpt><trkpt lat="37.90818368625415" lon="15.337697773613808"><ele>32.0</ele><time>2026-04-19T09:27:40Z</time></trkpt><trkpt lat="37.90819683814511" lon="15.337913908942564"><ele>32.0</ele><time>2026-04-19T09:27:41Z</time></trkpt><trkpt lat="37.90824125782595" lon="15.338102625449729"><ele>32.0</ele><time>2026-04-19T09:27:42Z</time></trkpt><trkpt lat="37.90829582262269" lon="15.33826902237985"><ele>29.0</ele><time>2026-04-19T09:27:43Z</time></trkpt><trkpt lat="37.908383997277745" lon="15.3384233237847"><ele>26.0</ele><time>2026-04-19T09:27:44Z</time></trkpt><trkpt lat="37.90850035988494" lon="15.338564814703544"><ele>23.0</ele><time>2026-04-19T09:27:45Z</time></trkpt><trkpt lat="37.908606101990074" lon="15.338747090296053"><ele>30.333333333333336</ele><time>2026-04-19T09:27:46Z</time></trkpt><trkpt lat="37.908721318125835" lon="15.33892006875027"><ele>37.666666666666664</ele><time>2026-04-19T09:27:47Z</time></trkpt><trkpt lat="37.908819055313295" lon="15.3391016344583"><ele>45.0</ele><time>2026-04-19T09:27:48Z</time></trkpt><trkpt lat="37.908896318788635" lon="15.339272671506665"><ele>45.0</ele><time>2026-04-19T09:27:49Z</time></trkpt><trkpt lat="37.90895225012056" lon="15.339423997681001"><ele>45.0</ele><time>2026-04-19T09:27:50Z</time></trkpt><trkpt lat="37.90898119416307" lon="15.339561095799695"><ele>45.0</ele><time>2026-04-19T09:27:51Z</time></trkpt><trkpt lat="37.90902069333337" lon="15.339691002036759"><ele>45.0</ele><time>2026-04-19T09:27:52Z</time></trkpt><trkpt lat="37.90907950366067" lon="15.339815510332055"><ele>42.0</ele><time>2026-04-19T09:27:53Z</time></trkpt><trkpt lat="37.909154084792185" lon="15.339916370424879"><ele>39.0</ele><time>2026-04-19T09:27:54Z</time></trkpt><trkpt lat="37.909237879993796" lon="15.340024198324928"><ele>36.0</ele><time>2026-04-19T09:27:55Z</time></trkpt><trkpt lat="37.90930660618925" lon="15.340157488452306"><ele>33.0</ele><time>2026-04-19T09:27:56Z</time></trkpt><trkpt lat="37.909358556808485" lon="15.340336416592956"><ele>44.0</ele><time>2026-04-19T09:27:57Z</time></trkpt><trkpt lat="37.90942012445733" lon="15.340550879136547"><ele>55.0</ele><time>2026-04-19T09:27:58Z</time></trkpt><trkpt lat="37.90948540432335" lon="15.34077912554377"><ele>66.0</ele><time>2026-04-19T09:27:59Z</time></trkpt><trkpt lat="37.90954230245905" lon="15.340988199575138"><ele>66.0</ele><time>2026-04-19T09:28:00Z</time></trkpt><trkpt lat="37.90960387542163" lon="15.341180516285887"><ele>66.0</ele><time>2026-04-19T09:28:01Z</time></trkpt><trkpt lat="37.90964595129777" lon="15.341361310509074"><ele>66.0</ele><time>2026-04-19T09:28:02Z</time></trkpt><trkpt lat="37.90968585938958" lon="15.341530943696267"><ele>64.0</ele><time>2026-04-19T09:28:03Z</time></trkpt><trkpt lat="37.90973777550206" lon="15.341696975995793"><ele>62.0</ele><time>2026-04-19T09:28:04Z</time></trkpt><trkpt lat="37.909791372952554" lon="15.341870003337615"><ele>60.0</ele><time>2026-04-19T09:28:05Z</time></trkpt><trkpt lat="37.90988262434314" lon="15.341996597092736"><ele>58.0</ele><time>2026-04-19T09:28:06Z</time></trkpt><trkpt lat="37.90995275068088" lon="15.34211918477425"><ele>52.33333333333333</ele><time>2026-04-19T09:28:07Z</time></trkpt><trkpt lat="37.91002569722913" lon="15.342261248628212"><ele>46.666666666666664</ele><time>2026-04-19T09:28:08Z</time></trkpt><trkpt lat="37.9101192769639" lon="15.342416436631103"><ele>41.0</ele><time>2026-04-19T09:28:09Z</time></trkpt><trkpt lat="37.91022023210259" lon="15.342586027376846"><ele>50.33333333333333</ele><time>2026-04-19T09:28:10Z</time></trkpt><trkpt lat="37.91031938923436" lon="15.342762928977695"><ele>59.666666666666664</ele><time>2026-04-19T09:28:11Z</time></trkpt><trkpt lat="37.91042128111526" lon="15.342932840534369"><ele>69.0</ele><time>2026-04-19T09:28:12Z</time></trkpt><trkpt lat="37.910496467483945" lon="15.343113118348777"><ele>69.0</ele><time>2026-04-19T09:28:13Z</time></trkpt><trkpt lat="37.91056053891333" lon="15.343286633960272"><ele>69.0</ele><time>2026-04-19T09:28:14Z</time></trkpt><trkpt lat="37.91060820788558" lon="15.343462449359356"><ele>69.0</ele><time>2026-04-19T09:28:15Z</time></trkpt><trkpt lat="37.910635621934084" lon="15.343647017023002"><ele>69.0</ele><time>2026-04-19T09:28:16Z</time></trkpt><trkpt lat="37.9106618614629" lon="15.343834391670264"><ele>66.0</ele><time>2026-04-19T09:28:17Z</time></trkpt><trkpt lat="37.91069676048209" lon="15.344028129925949"><ele>63.0</ele><time>2026-04-19T09:28:18Z</time></trkpt><trkpt lat="37.91078711862239" lon="15.34420634712135"><ele>60.0</ele><time>2026-04-19T09:28:19Z</time></trkpt><trkpt lat="37.910909941579554" lon="15.344378272303333"><ele>63.0</ele><time>2026-04-19T09:28:20Z</time></trkpt><trkpt lat="37.91104428588464" lon="15.344570137931424"><ele>66.0</ele><time>2026-04-19T09:28:21Z</time></trkpt><trkpt lat="37.91117192029702" lon="15.344765273388902"><ele>69.0</ele><time>2026-04-19T09:28:22Z</time></trkpt><trkpt lat="37.91128267050147" lon="15.344941795799622"><ele>69.0</ele><time>2026-04-19T09:28:23Z</time></trkpt><trkpt lat="37.911393290145284" lon="15.345103075832887"><ele>69.0</ele><time>2026-04-19T09:28:24Z</time></trkpt><trkpt lat="37.911543047030314" lon="15.345253284189846"><ele>69.0</ele><time>2026-04-19T09:28:25Z</time></trkpt><trkpt lat="37.91167408346426" lon="15.345424197938614"><ele>70.5</ele><time>2026-04-19T09:28:26Z</time></trkpt><trkpt lat="37.91177962266979" lon="15.345577056843892"><ele>72.0</ele><time>2026-04-19T09:28:27Z</time></trkpt><trkpt lat="37.91187111811272" lon="15.345716205951762"><ele>73.5</ele><time>2026-04-19T09:28:28Z</time></trkpt><trkpt lat="37.91193794110452" lon="15.3458633456182"><ele>75.0</ele><time>2026-04-19T09:28:29Z</time></trkpt><trkpt lat="37.912036288456946" lon="15.345940227903125"><ele>75.0</ele><time>2026-04-19T09:28:30Z</time></trkpt><trkpt lat="37.91212584121567" lon="15.346025169522546"><ele>75.0</ele><time>2026-04-19T09:28:31Z</time></trkpt><trkpt lat="37.91223440377834" lon="15.346023209511364"><ele>75.0</ele><time>2026-04-19T09:28:32Z</time></trkpt><trkpt lat="37.912332506522475" lon="15.34599710375431"><ele>75.0</ele><time>2026-04-19T09:28:33Z</time></trkpt><trkpt lat="37.91241798454917" lon="15.345934275492299"><ele>75.0</ele><time>2026-04-19T09:28:34Z</time></trkpt><trkpt lat="37.91250836905869" lon="15.345908521545631"><ele>76.16666666666667</ele><time>2026-04-19T09:28:35Z</time></trkpt><trkpt lat="37.91259556364421" lon="15.345882871914107"><ele>77.33333333333333</ele><time>2026-04-19T09:28:36Z</time></trkpt><trkpt lat="37.912684075398616" lon="15.34587733760171"><ele>78.5</ele><time>2026-04-19T09:28:37Z</time></trkpt><trkpt lat="37.912767353813734" lon="15.345892779200918"><ele>79.66666666666666</ele><time>2026-04-19T09:28:38Z</time></trkpt><trkpt lat="37.91283542922923" lon="15.345939220363407"><ele>80.83333333333333</ele><time>2026-04-19T09:28:39Z</time></trkpt><trkpt lat="37.9129003483996" lon="15.346001539396234"><ele>82.0</ele><time>2026-04-19T09:28:40Z</time></trkpt><trkpt lat="37.912975814660015" lon="15.34605616934007"><ele>82.0</ele><time>2026-04-19T09:28:41Z</time></trkpt><trkpt lat="37.91308220095889" lon="15.34611455152635"><ele>82.0</ele><time>2026-04-19T09:28:42Z</time></trkpt><trkpt lat="37.913227846688315" lon="15.34612856761842"><ele>82.0</ele><time>2026-04-19T09:28:43Z</time></trkpt><trkpt lat="37.91336969861768" lon="15.346092376560307"><ele>82.0</ele><time>2026-04-19T09:28:44Z</time></trkpt><trkpt lat="37.913486580749264" lon="15.346064851876868"><ele>73.8</ele><time>2026-04-19T09:28:45Z</time></trkpt><trkpt lat="37.91358160530737" lon="15.346071543341704"><ele>65.6</ele><time>2026-04-19T09:28:46Z</time></trkpt><trkpt lat="37.913645707350064" lon="15.346107578959945"><ele>57.39999999999999</ele><time>2026-04-19T09:28:47Z</time></trkpt><trkpt lat="37.9137516673571" lon="15.346120867489795"><ele>49.199999999999996</ele><time>2026-04-19T09:28:49Z</time></trkpt><trkpt lat="37.91384716200889" lon="15.34604630259994"><ele>41.0</ele><time>2026-04-19T09:28:51Z</time></trkpt><trkpt lat="37.9138377665428" lon="15.34591411468411"><ele>41.0</ele><time>2026-04-19T09:28:52Z</time></trkpt><trkpt lat="37.913840592690995" lon="15.345810653848693"><ele>41.0</ele><time>2026-04-19T09:28:53Z</time></trkpt><trkpt lat="37.91385343572946" lon="15.345679456394581"><ele>41.0</ele><time>2026-04-19T09:28:54Z</time></trkpt><trkpt lat="37.91389772000776" lon="15.34552202579167"><ele>41.0</ele><time>2026-04-19T09:28:55Z</time></trkpt><trkpt lat="37.91398236702696" lon="15.345355619809904"><ele>48.33333333333333</ele><time>2026-04-19T09:28:56Z</time></trkpt><trkpt lat="37.914086220822085" lon="15.345183857248465"><ele>55.666666666666664</ele><time>2026-04-19T09:28:57Z</time></trkpt><trkpt lat="37.91422150020039" lon="15.344991102516591"><ele>63.0</ele><time>2026-04-19T09:28:58Z</time></trkpt><trkpt lat="37.91431320004447" lon="15.344790295859553"><ele>54.666666666666664</ele><time>2026-04-19T09:28:59Z</time></trkpt><trkpt lat="37.914371453928375" lon="15.344587728521594"><ele>46.33333333333333</ele><time>2026-04-19T09:29:00Z</time></trkpt><trkpt lat="37.91443488810876" lon="15.344412901642489"><ele>38.0</ele><time>2026-04-19T09:29:01Z</time></trkpt><trkpt lat="37.91451999070625" lon="15.344273046721433"><ele>38.0</ele><time>2026-04-19T09:29:02Z</time></trkpt><trkpt lat="37.91460857984996" lon="15.344151654550028"><ele>38.0</ele><time>2026-04-19T09:29:03Z</time></trkpt><trkpt lat="37.914693471429" lon="15.34404469108248"><ele>38.0</ele><time>2026-04-19T09:29:04Z</time></trkpt><trkpt lat="37.91477880922808" lon="15.343951106368866"><ele>38.0</ele><time>2026-04-19T09:29:05Z</time></trkpt><trkpt lat="37.91485938124081" lon="15.34386008069045"><ele>37.33333333333333</ele><time>2026-04-19T09:29:06Z</time></trkpt><trkpt lat="37.91492592142473" lon="15.343768872453232"><ele>36.666666666666664</ele><time>2026-04-19T09:29:07Z</time></trkpt><trkpt lat="37.91498677820107" lon="15.343677398237764"><ele>36.0</ele><time>2026-04-19T09:29:08Z</time></trkpt><trkpt lat="37.91503879490327" lon="15.343590005353303"><ele>35.333333333333336</ele><time>2026-04-19T09:29:09Z</time></trkpt><trkpt lat="37.915079462537854" lon="15.343518117124527"><ele>34.66666666666667</ele><time>2026-04-19T09:29:10Z</time></trkpt><trkpt lat="37.9151217350076" lon="15.34343532995391"><ele>34.0</ele><time>2026-04-19T09:29:12Z</time></trkpt><trkpt lat="37.91517205824263" lon="15.343385280213255"><ele>34.0</ele><time>2026-04-19T09:29:14Z</time></trkpt><trkpt lat="37.915239118618196" lon="15.343427172335296"><ele>34.0</ele><time>2026-04-19T09:29:16Z</time></trkpt><trkpt lat="37.9152092670529" lon="15.343512036709226"><ele>34.0</ele><time>2026-04-19T09:29:18Z</time></trkpt><trkpt lat="37.91516245992974" lon="15.343588494926635"><ele>34.0</ele><time>2026-04-19T09:29:19Z</time></trkpt><trkpt lat="37.915090352642416" lon="15.34373107369066"><ele>34.0</ele><time>2026-04-19T09:29:20Z</time></trkpt><trkpt lat="37.91501294792748" lon="15.343917993383537"><ele>35.333333333333336</ele><time>2026-04-19T09:29:21Z</time></trkpt><trkpt lat="37.91489379857929" lon="15.34410822229678"><ele>36.666666666666664</ele><time>2026-04-19T09:29:22Z</time></trkpt><trkpt lat="37.914795052381976" lon="15.344278155024211"><ele>38.0</ele><time>2026-04-19T09:29:23Z</time></trkpt><trkpt lat="37.914693560724054" lon="15.344419945921729"><ele>38.0</ele><time>2026-04-19T09:29:24Z</time></trkpt><trkpt lat="37.91461938297268" lon="15.344591059034697"><ele>38.0</ele><time>2026-04-19T09:29:25Z</time></trkpt><trkpt lat="37.9145803453615" lon="15.344772519978429"><ele>38.0</ele><time>2026-04-19T09:29:26Z</time></trkpt><trkpt lat="37.91455491316867" lon="15.344943277739047"><ele>38.0</ele><time>2026-04-19T09:29:27Z</time></trkpt><trkpt lat="37.91453344214849" lon="15.345071861864103"><ele>34.83333333333333</ele><time>2026-04-19T09:29:28Z</time></trkpt><trkpt lat="37.91453318752774" lon="15.345167122157683"><ele>31.666666666666664</ele><time>2026-04-19T09:29:29Z</time></trkpt><trkpt lat="37.91458158554119" lon="15.34523738145028"><ele>28.5</ele><time>2026-04-19T09:29:30Z</time></trkpt><trkpt lat="37.91465495653072" lon="15.34527553203885"><ele>25.333333333333332</ele><time>2026-04-19T09:29:31Z</time></trkpt><trkpt lat="37.91474651334688" lon="15.345227437552158"><ele>22.166666666666664</ele><time>2026-04-19T09:29:32Z</time></trkpt><trkpt lat="37.9147910387591" lon="15.345107799332075"><ele>19.0</ele><time>2026-04-19T09:29:33Z</time></trkpt><trkpt lat="37.914817392090086" lon="15.344962367579607"><ele>19.0</ele><time>2026-04-19T09:29:34Z</time></trkpt><trkpt lat="37.91485818471722" lon="15.34479208477401"><ele>19.0</ele><time>2026-04-19T09:29:35Z</time></trkpt><trkpt lat="37.914944546982944" lon="15.344619290534537"><ele>19.0</ele><time>2026-04-19T09:29:36Z</time></trkpt><trkpt lat="37.91505524160323" lon="15.3444247296141"><ele>17.0</ele><time>2026-04-19T09:29:37Z</time></trkpt><trkpt lat="37.91518612939646" lon="15.344218902556811"><ele>15.0</ele><time>2026-04-19T09:29:38Z</time></trkpt><trkpt lat="37.915322388606874" lon="15.344032792858961"><ele>13.0</ele><time>2026-04-19T09:29:39Z</time></trkpt><trkpt lat="37.91544761838659" lon="15.34385623796272"><ele>20.0</ele><time>2026-04-19T09:29:40Z</time></trkpt><trkpt lat="37.915567152236605" lon="15.343685937392191"><ele>27.0</ele><time>2026-04-19T09:29:41Z</time></trkpt><trkpt lat="37.91570809411867" lon="15.343558943857595"><ele>34.0</ele><time>2026-04-19T09:29:42Z</time></trkpt><trkpt lat="37.9158638048809" lon="15.343490221563131"><ele>30.333333333333336</ele><time>2026-04-19T09:29:43Z</time></trkpt><trkpt lat="37.916028065200855" lon="15.343469690946566"><ele>26.666666666666668</ele><time>2026-04-19T09:29:44Z</time></trkpt><trkpt lat="37.91620467870447" lon="15.343474159233471"><ele>23.0</ele><time>2026-04-19T09:29:45Z</time></trkpt><trkpt lat="37.91638887828459" lon="15.34350984446771"><ele>23.0</ele><time>2026-04-19T09:29:46Z</time></trkpt><trkpt lat="37.91655905039569" lon="15.343545775114713"><ele>23.0</ele><time>2026-04-19T09:29:47Z</time></trkpt><trkpt lat="37.91670996815229" lon="15.343589007931476"><ele>23.0</ele><time>2026-04-19T09:29:48Z</time></trkpt><trkpt lat="37.916803693170316" lon="15.343646281816333"><ele>23.0</ele><time>2026-04-19T09:29:49Z</time></trkpt><trkpt lat="37.916905008636775" lon="15.343700192796396"><ele>24.0</ele><time>2026-04-19T09:29:51Z</time></trkpt><trkpt lat="37.91701919790316" lon="15.343773485359831"><ele>25.0</ele><time>2026-04-19T09:29:53Z</time></trkpt><trkpt lat="37.91709655972775" lon="15.343798648996033"><ele>25.999999999999996</ele><time>2026-04-19T09:29:54Z</time></trkpt><trkpt lat="37.91717599811971" lon="15.343855330663253"><ele>27.0</ele><time>2026-04-19T09:29:55Z</time></trkpt><trkpt lat="37.91727130218414" lon="15.343917157933701"><ele>28.0</ele><time>2026-04-19T09:29:56Z</time></trkpt><trkpt lat="37.91737566206169" lon="15.343979272312707"><ele>26.0</ele><time>2026-04-19T09:29:57Z</time></trkpt><trkpt lat="37.91747034865478" lon="15.344048146166836"><ele>24.0</ele><time>2026-04-19T09:29:58Z</time></trkpt><trkpt lat="37.91757795015126" lon="15.344078112103366"><ele>22.0</ele><time>2026-04-19T09:29:59Z</time></trkpt><trkpt lat="37.917695096583586" lon="15.344049299993706"><ele>20.0</ele><time>2026-04-19T09:30:00Z</time></trkpt><trkpt lat="37.9178113741017" lon="15.34403941806512"><ele>20.0</ele><time>2026-04-19T09:30:01Z</time></trkpt><trkpt lat="37.91792040749413" lon="15.34406969083144"><ele>20.0</ele><time>2026-04-19T09:30:02Z</time></trkpt><trkpt lat="37.918015261937036" lon="15.344138760729358"><ele>20.0</ele><time>2026-04-19T09:30:03Z</time></trkpt><trkpt lat="37.91808063914738" lon="15.344245315965255"><ele>20.0</ele><time>2026-04-19T09:30:04Z</time></trkpt><trkpt lat="37.918150993821094" lon="15.344350085465795"><ele>20.0</ele><time>2026-04-19T09:30:05Z</time></trkpt><trkpt lat="37.91823726374523" lon="15.34443299133601"><ele>20.0</ele><time>2026-04-19T09:30:06Z</time></trkpt><trkpt lat="37.9183449468365" lon="15.34450079732542"><ele>20.0</ele><time>2026-04-19T09:30:07Z</time></trkpt><trkpt lat="37.91848278472804" lon="15.344464602725203"><ele>20.0</ele><time>2026-04-19T09:30:08Z</time></trkpt><trkpt lat="37.918612409971054" lon="15.34446219691275"><ele>20.0</ele><time>2026-04-19T09:30:09Z</time></trkpt><trkpt lat="37.918717949234356" lon="15.344523782927741"><ele>20.833333333333336</ele><time>2026-04-19T09:30:10Z</time></trkpt><trkpt lat="37.91879893330283" lon="15.344558322853375"><ele>21.666666666666668</ele><time>2026-04-19T09:30:11Z</time></trkpt><trkpt lat="37.918862542553796" lon="15.34458570669314"><ele>22.5</ele><time>2026-04-19T09:30:12Z</time></trkpt><trkpt lat="37.91892194023707" lon="15.34465944847236"><ele>23.333333333333336</ele><time>2026-04-19T09:30:14Z</time></trkpt><trkpt lat="37.91889621643721" lon="15.344740109403647"><ele>24.166666666666668</ele><time>2026-04-19T09:30:15Z</time></trkpt><trkpt lat="37.91883535193124" lon="15.344848113268782"><ele>25.0</ele><time>2026-04-19T09:30:16Z</time></trkpt><trkpt lat="37.91878815353254" lon="15.34499220498458"><ele>23.0</ele><time>2026-04-19T09:30:17Z</time></trkpt><trkpt lat="37.91873214517366" lon="15.345147460692333"><ele>21.0</ele><time>2026-04-19T09:30:18Z</time></trkpt><trkpt lat="37.91870902340989" lon="15.345277903651889"><ele>19.0</ele><time>2026-04-19T09:30:19Z</time></trkpt><trkpt lat="37.91868375051293" lon="15.345390384459794"><ele>17.0</ele><time>2026-04-19T09:30:20Z</time></trkpt><trkpt lat="37.91865402404914" lon="15.345476011553277"><ele>15.0</ele><time>2026-04-19T09:30:21Z</time></trkpt><trkpt lat="37.91862604718563" lon="15.34555809375748"><ele>14.571428571428571</ele><time>2026-04-19T09:30:23Z</time></trkpt><trkpt lat="37.91860772391316" lon="15.345637827571448"><ele>14.142857142857142</ele><time>2026-04-19T09:30:28Z</time></trkpt><trkpt lat="37.918656024341054" lon="15.345706944445407"><ele>13.714285714285714</ele><time>2026-04-19T09:30:30Z</time></trkpt><trkpt lat="37.91873084847605" lon="15.345723513109892"><ele>13.285714285714285</ele><time>2026-04-19T09:30:32Z</time></trkpt><trkpt lat="37.91880133832684" lon="15.345757153898571"><ele>12.857142857142858</ele><time>2026-04-19T09:30:34Z</time></trkpt><trkpt lat="37.918860419440236" lon="15.345805101584892"><ele>12.428571428571427</ele><time>2026-04-19T09:30:36Z</time></trkpt><trkpt lat="37.91893359834134" lon="15.345865113842764"><ele>12.0</ele><time>2026-04-19T09:30:38Z</time></trkpt><trkpt lat="37.91901569354044" lon="15.345914222400703"><ele>12.0</ele><time>2026-04-19T09:30:40Z</time></trkpt><trkpt lat="37.91909462832641" lon="15.345992465497122"><ele>12.0</ele><time>2026-04-19T09:30:42Z</time></trkpt><trkpt lat="37.91917086323996" lon="15.346074569572444"><ele>12.0</ele><time>2026-04-19T09:30:44Z</time></trkpt><trkpt lat="37.91927147616764" lon="15.346141621400923"><ele>12.0</ele><time>2026-04-19T09:30:46Z</time></trkpt><trkpt lat="37.91937248058675" lon="15.34623220430547"><ele>12.0</ele><time>2026-04-19T09:30:48Z</time></trkpt><trkpt lat="37.919431320192245" lon="15.346262670984425"><ele>12.0</ele><time>2026-04-19T09:30:49Z</time></trkpt><trkpt lat="37.91949228394147" lon="15.346301778648746"><ele>12.0</ele><time>2026-04-19T09:30:50Z</time></trkpt><trkpt lat="37.91957271628002" lon="15.346298767924853"><ele>12.0</ele><time>2026-04-19T09:30:51Z</time></trkpt><trkpt lat="37.91964721403329" lon="15.346341277287594"><ele>12.0</ele><time>2026-04-19T09:30:52Z</time></trkpt><trkpt lat="37.91972522094861" lon="15.346386243392065"><ele>12.0</ele><time>2026-04-19T09:30:53Z</time></trkpt><trkpt lat="37.91980154266593" lon="15.346433858261603"><ele>12.0</ele><time>2026-04-19T09:30:54Z</time></trkpt><trkpt lat="37.919875284968306" lon="15.346495320075793"><ele>11.833333333333334</ele><time>2026-04-19T09:30:55Z</time></trkpt><trkpt lat="37.919945261732344" lon="15.346549129852416"><ele>11.666666666666666</ele><time>2026-04-19T09:30:56Z</time></trkpt><trkpt lat="37.920005829762665" lon="15.346590581098134"><ele>11.5</ele><time>2026-04-19T09:30:57Z</time></trkpt><trkpt lat="37.92008050070064" lon="15.34664370916404"><ele>11.333333333333332</ele><time>2026-04-19T09:30:58Z</time></trkpt><trkpt lat="37.92015142561881" lon="15.346723489709028"><ele>11.166666666666666</ele><time>2026-04-19T09:30:59Z</time></trkpt><trkpt lat="37.92024728190353" lon="15.346789438203638"><ele>11.0</ele><time>2026-04-19T09:31:00Z</time></trkpt><trkpt lat="37.92035116119196" lon="15.346854631061666"><ele>11.0</ele><time>2026-04-19T09:31:01Z</time></trkpt><trkpt lat="37.92044953043941" lon="15.346916807351494"><ele>11.0</ele><time>2026-04-19T09:31:02Z</time></trkpt><trkpt lat="37.920541165674045" lon="15.34697441405026"><ele>11.0</ele><time>2026-04-19T09:31:03Z</time></trkpt><trkpt lat="37.920627018923696" lon="15.347029029445252"><ele>11.0</ele><time>2026-04-19T09:31:04Z</time></trkpt><trkpt lat="37.92070782867499" lon="15.347079548702316"><ele>11.0</ele><time>2026-04-19T09:31:05Z</time></trkpt><trkpt lat="37.92078611619282" lon="15.34713077583867"><ele>11.0</ele><time>2026-04-19T09:31:06Z</time></trkpt><trkpt lat="37.92087346414341" lon="15.347184837555368"><ele>11.0</ele><time>2026-04-19T09:31:07Z</time></trkpt><trkpt lat="37.92096665648148" lon="15.347240158161652"><ele>11.0</ele><time>2026-04-19T09:31:08Z</time></trkpt><trkpt lat="37.92106683525768" lon="15.34729894559997"><ele>11.0</ele><time>2026-04-19T09:31:09Z</time></trkpt><trkpt lat="37.92117988767966" lon="15.347363191956312"><ele>11.0</ele><time>2026-04-19T09:31:10Z</time></trkpt><trkpt lat="37.92128311449172" lon="15.34748654686923"><ele>11.0</ele><time>2026-04-19T09:31:11Z</time></trkpt><trkpt lat="37.92142737314635" lon="15.347572014445966"><ele>11.0</ele><time>2026-04-19T09:31:12Z</time></trkpt><trkpt lat="37.92156328836814" lon="15.347651239361424"><ele>11.0</ele><time>2026-04-19T09:31:13Z</time></trkpt><trkpt lat="37.92167429896292" lon="15.34771581557947"><ele>11.0</ele><time>2026-04-19T09:31:14Z</time></trkpt><trkpt lat="37.92177811630436" lon="15.34777490984022"><ele>11.0</ele><time>2026-04-19T09:31:15Z</time></trkpt><trkpt lat="37.92186761017857" lon="15.34782585229516"><ele>11.0</ele><time>2026-04-19T09:31:16Z</time></trkpt><trkpt lat="37.92195194441045" lon="15.34787385651165"><ele>11.0</ele><time>2026-04-19T09:31:17Z</time></trkpt><trkpt lat="37.9220306089835" lon="15.347922423018606"><ele>11.0</ele><time>2026-04-19T09:31:18Z</time></trkpt><trkpt lat="37.92211187261984" lon="15.347947939675134"><ele>11.0</ele><time>2026-04-19T09:31:19Z</time></trkpt><trkpt lat="37.922184886475975" lon="15.348010250427262"><ele>11.200000000000001</ele><time>2026-04-19T09:31:20Z</time></trkpt><trkpt lat="37.92227198050443" lon="15.34804572614212"><ele>11.4</ele><time>2026-04-19T09:31:21Z</time></trkpt><trkpt lat="37.922353929749164" lon="15.348095317703704"><ele>11.6</ele><time>2026-04-19T09:31:22Z</time></trkpt><trkpt lat="37.92243473953476" lon="15.34813736636454"><ele>11.8</ele><time>2026-04-19T09:31:23Z</time></trkpt><trkpt lat="37.92251433463653" lon="15.348185654747573"><ele>12.0</ele><time>2026-04-19T09:31:24Z</time></trkpt><trkpt lat="37.92259632384727" lon="15.34823989606501"><ele>12.0</ele><time>2026-04-19T09:31:25Z</time></trkpt><trkpt lat="37.92267688915052" lon="15.348309804507114"><ele>12.0</ele><time>2026-04-19T09:31:26Z</time></trkpt><trkpt lat="37.922765100039726" lon="15.34836631069496"><ele>12.0</ele><time>2026-04-19T09:31:27Z</time></trkpt><trkpt lat="37.922858223944864" lon="15.34842658900131"><ele>12.0</ele><time>2026-04-19T09:31:28Z</time></trkpt><trkpt lat="37.922953854551565" lon="15.348488424618273"><ele>12.0</ele><time>2026-04-19T09:31:29Z</time></trkpt><trkpt lat="37.92304297806429" lon="15.348548025396633"><ele>12.0</ele><time>2026-04-19T09:31:30Z</time></trkpt><trkpt lat="37.92313049644837" lon="15.34861088464755"><ele>12.0</ele><time>2026-04-19T09:31:31Z</time></trkpt><trkpt lat="37.92320789923574" lon="15.348672611940072"><ele>12.0</ele><time>2026-04-19T09:31:32Z</time></trkpt><trkpt lat="37.9232796007806" lon="15.348734204402172"><ele>12.0</ele><time>2026-04-19T09:31:33Z</time></trkpt><trkpt lat="37.92334659107383" lon="15.348792279639824"><ele>12.0</ele><time>2026-04-19T09:31:34Z</time></trkpt><trkpt lat="37.92341145150311" lon="15.348848780545161"><ele>12.0</ele><time>2026-04-19T09:31:35Z</time></trkpt><trkpt lat="37.92347927114712" lon="15.348909936320883"><ele>11.6</ele><time>2026-04-19T09:31:36Z</time></trkpt><trkpt lat="37.92354692745297" lon="15.34897234190002"><ele>11.2</ele><time>2026-04-19T09:31:37Z</time></trkpt><trkpt lat="37.92363064873006" lon="15.349026124869848"><ele>10.8</ele><time>2026-04-19T09:31:38Z</time></trkpt><trkpt lat="37.92370584171807" lon="15.349101502732275"><ele>10.4</ele><time>2026-04-19T09:31:39Z</time></trkpt><trkpt lat="37.92378436958108" lon="15.34919782419064"><ele>10.0</ele><time>2026-04-19T09:31:40Z</time></trkpt><trkpt lat="37.92388250104904" lon="15.349293018423301"><ele>10.0</ele><time>2026-04-19T09:31:41Z</time></trkpt><trkpt lat="37.923992818695815" lon="15.349400445640194"><ele>10.0</ele><time>2026-04-19T09:31:42Z</time></trkpt><trkpt lat="37.92411180821281" lon="15.34951745062066"><ele>10.0</ele><time>2026-04-19T09:31:43Z</time></trkpt><trkpt lat="37.92423784098871" lon="15.349641381386881"><ele>10.0</ele><time>2026-04-19T09:31:44Z</time></trkpt><trkpt lat="37.92436618287153" lon="15.349764364541096"><ele>9.666666666666668</ele><time>2026-04-19T09:31:45Z</time></trkpt><trkpt lat="37.924490009608505" lon="15.349881809116146"><ele>9.333333333333334</ele><time>2026-04-19T09:31:46Z</time></trkpt><trkpt lat="37.924614749977074" lon="15.35000012023531"><ele>9.0</ele><time>2026-04-19T09:31:47Z</time></trkpt><trkpt lat="37.92474069030626" lon="15.350119292092455"><ele>9.0</ele><time>2026-04-19T09:31:48Z</time></trkpt><trkpt lat="37.924869800155975" lon="15.35024130312184"><ele>9.0</ele><time>2026-04-19T09:31:49Z</time></trkpt><trkpt lat="37.925005034458586" lon="15.350372480602454"><ele>9.0</ele><time>2026-04-19T09:31:50Z</time></trkpt><trkpt lat="37.92514699321183" lon="15.350510908051586"><ele>9.0</ele><time>2026-04-19T09:31:51Z</time></trkpt><trkpt lat="37.925297278228925" lon="15.350660888884963"><ele>9.0</ele><time>2026-04-19T09:31:52Z</time></trkpt><trkpt lat="37.92546096427739" lon="15.3508367315039"><ele>9.0</ele><time>2026-04-19T09:31:53Z</time></trkpt><trkpt lat="37.92564522639312" lon="15.35103993804194"><ele>9.0</ele><time>2026-04-19T09:31:54Z</time></trkpt><trkpt lat="37.92580256108427" lon="15.351213448686824"><ele>9.0</ele><time>2026-04-19T09:31:55Z</time></trkpt><trkpt lat="37.92595032895977" lon="15.351376408923928"><ele>9.0</ele><time>2026-04-19T09:31:56Z</time></trkpt><trkpt lat="37.926085970111046" lon="15.351527370739602"><ele>10.0</ele><time>2026-04-19T09:31:57Z</time></trkpt><trkpt lat="37.92621191228968" lon="15.351670286451759"><ele>11.0</ele><time>2026-04-19T09:31:58Z</time></trkpt><trkpt lat="37.92632837472727" lon="15.35180489701878"><ele>12.0</ele><time>2026-04-19T09:31:59Z</time></trkpt><trkpt lat="37.92643631611248" lon="15.351929704243112"><ele>12.0</ele><time>2026-04-19T09:32:00Z</time></trkpt><trkpt lat="37.92654324934146" lon="15.35204335142753"><ele>12.0</ele><time>2026-04-19T09:32:01Z</time></trkpt><trkpt lat="37.92664308322415" lon="15.352142962732014"><ele>12.0</ele><time>2026-04-19T09:32:02Z</time></trkpt><trkpt lat="37.92674531356844" lon="15.352243353655547"><ele>12.0</ele><time>2026-04-19T09:32:03Z</time></trkpt><trkpt lat="37.92684509254964" lon="15.352333869887623"><ele>11.5</ele><time>2026-04-19T09:32:04Z</time></trkpt><trkpt lat="37.926945140427414" lon="15.352418308081523"><ele>11.0</ele><time>2026-04-19T09:32:05Z</time></trkpt><trkpt lat="37.92704508591676" lon="15.352502658493094"><ele>10.5</ele><time>2026-04-19T09:32:06Z</time></trkpt><trkpt lat="37.92714555554987" lon="15.352590125917972"><ele>10.0</ele><time>2026-04-19T09:32:07Z</time></trkpt><trkpt lat="37.92724877647936" lon="15.352681782320252"><ele>10.0</ele><time>2026-04-19T09:32:08Z</time></trkpt><trkpt lat="37.92735572699442" lon="15.352776750453861"><ele>10.0</ele><time>2026-04-19T09:32:09Z</time></trkpt><trkpt lat="37.92746274866401" lon="15.352873729735823"><ele>10.0</ele><time>2026-04-19T09:32:10Z</time></trkpt><trkpt lat="37.92757012940118" lon="15.35297136061876"><ele>10.0</ele><time>2026-04-19T09:32:11Z</time></trkpt><trkpt lat="37.927674447301804" lon="15.35306709112536"><ele>10.5</ele><time>2026-04-19T09:32:12Z</time></trkpt><trkpt lat="37.9277783284662" lon="15.35316306777988"><ele>11.0</ele><time>2026-04-19T09:32:13Z</time></trkpt><trkpt lat="37.92788250697378" lon="15.353260300915023"><ele>11.5</ele><time>2026-04-19T09:32:14Z</time></trkpt><trkpt lat="37.927987846378215" lon="15.353359862207862"><ele>12.0</ele><time>2026-04-19T09:32:15Z</time></trkpt><trkpt lat="37.928085663834565" lon="15.353452611601327"><ele>12.0</ele><time>2026-04-19T09:32:16Z</time></trkpt><trkpt lat="37.928176210155726" lon="15.353540340302674"><ele>12.0</ele><time>2026-04-19T09:32:17Z</time></trkpt><trkpt lat="37.92826071449065" lon="15.353622215039293"><ele>12.0</ele><time>2026-04-19T09:32:18Z</time></trkpt><trkpt lat="37.928342190567385" lon="15.353701318870408"><ele>12.0</ele><time>2026-04-19T09:32:19Z</time></trkpt><trkpt lat="37.92841963699692" lon="15.353777775090359"><ele>12.0</ele><time>2026-04-19T09:32:20Z</time></trkpt><trkpt lat="37.928501685946195" lon="15.353834204656977"><ele>12.0</ele><time>2026-04-19T09:32:21Z</time></trkpt><trkpt lat="37.92855754538937" lon="15.353913920219162"><ele>12.0</ele><time>2026-04-19T09:32:22Z</time></trkpt><trkpt lat="37.92860739257802" lon="15.353963130046791"><ele>12.0</ele><time>2026-04-19T09:32:23Z</time></trkpt><trkpt lat="37.92872287929004" lon="15.353827880454624"><ele>12.0</ele><time>2026-04-19T09:32:24Z</time></trkpt><trkpt lat="37.92877136969083" lon="15.353735215637101"><ele>12.0</ele><time>2026-04-19T09:32:25Z</time></trkpt><trkpt lat="37.92883492599214" lon="15.353641282639229"><ele>12.0</ele><time>2026-04-19T09:32:26Z</time></trkpt><trkpt lat="37.928888767314284" lon="15.353551768245842"><ele>12.0</ele><time>2026-04-19T09:32:27Z</time></trkpt><trkpt lat="37.92894702986752" lon="15.35346528827201"><ele>12.0</ele><time>2026-04-19T09:32:28Z</time></trkpt><trkpt lat="37.92899900971637" lon="15.353381594177645"><ele>12.0</ele><time>2026-04-19T09:32:29Z</time></trkpt><trkpt lat="37.92903387051236" lon="15.353287054136167"><ele>12.0</ele><time>2026-04-19T09:32:30Z</time></trkpt><trkpt lat="37.929070175342844" lon="15.353204726689357"><ele>12.0</ele><time>2026-04-19T09:32:31Z</time></trkpt><trkpt lat="37.92913790985089" lon="15.35311206944379"><ele>12.0</ele><time>2026-04-19T09:32:33Z</time></trkpt><trkpt lat="37.92922131532042" lon="15.353125858434405"><ele>12.0</ele><time>2026-04-19T09:32:35Z</time></trkpt><trkpt lat="37.929281700152494" lon="15.35317727360366"><ele>12.0</ele><time>2026-04-19T09:32:36Z</time></trkpt><trkpt lat="37.929352525055" lon="15.353240430636031"><ele>12.0</ele><time>2026-04-19T09:32:37Z</time></trkpt><trkpt lat="37.92943535222069" lon="15.353307492272775"><ele>12.0</ele><time>2026-04-19T09:32:38Z</time></trkpt><trkpt lat="37.92950922134372" lon="15.353365079743236"><ele>12.0</ele><time>2026-04-19T09:32:39Z</time></trkpt><trkpt lat="37.92959197797615" lon="15.353416411053622"><ele>12.0</ele><time>2026-04-19T09:32:40Z</time></trkpt><trkpt lat="37.92969244967302" lon="15.353469642102947"><ele>12.0</ele><time>2026-04-19T09:32:41Z</time></trkpt><trkpt lat="37.9297990108696" lon="15.353570873219914"><ele>12.0</ele><time>2026-04-19T09:32:42Z</time></trkpt><trkpt lat="37.92989939870903" lon="15.353680680147834"><ele>12.0</ele><time>2026-04-19T09:32:43Z</time></trkpt><trkpt lat="37.9300009927188" lon="15.35374541002878"><ele>12.166666666666666</ele><time>2026-04-19T09:32:44Z</time></trkpt><trkpt lat="37.93007689846911" lon="15.35378828836237"><ele>12.333333333333332</ele><time>2026-04-19T09:32:45Z</time></trkpt><trkpt lat="37.93014130687152" lon="15.353818044971238"><ele>12.5</ele><time>2026-04-19T09:32:46Z</time></trkpt><trkpt lat="37.93021226508789" lon="15.353852679500482"><ele>12.666666666666666</ele><time>2026-04-19T09:32:53Z</time></trkpt><trkpt lat="37.93030134656356" lon="15.353889376173157"><ele>12.833333333333332</ele><time>2026-04-19T09:32:55Z</time></trkpt><trkpt lat="37.930400286933846" lon="15.353927078236085"><ele>13.0</ele><time>2026-04-19T09:32:57Z</time></trkpt><trkpt lat="37.930494336074574" lon="15.353967648075784"><ele>12.499999999999998</ele><time>2026-04-19T09:32:59Z</time></trkpt><trkpt lat="37.93057086510197" lon="15.353990303506116"><ele>12.0</ele><time>2026-04-19T09:33:02Z</time></trkpt><trkpt lat="37.93064169427319" lon="15.354026197440698"><ele>11.5</ele><time>2026-04-19T09:33:04Z</time></trkpt><trkpt lat="37.93074744164652" lon="15.354077662035245"><ele>11.0</ele><time>2026-04-19T09:33:06Z</time></trkpt><trkpt lat="37.930808624167355" lon="15.354100149373334"><ele>10.5</ele><time>2026-04-19T09:33:07Z</time></trkpt><trkpt lat="37.93090237456018" lon="15.354147263870582"><ele>10.0</ele><time>2026-04-19T09:33:09Z</time></trkpt><trkpt lat="37.93098980875203" lon="15.354216586076864"><ele>9.833333333333334</ele><time>2026-04-19T09:33:11Z</time></trkpt><trkpt lat="37.93108231075934" lon="15.354303712196662"><ele>9.666666666666668</ele><time>2026-04-19T09:33:13Z</time></trkpt><trkpt lat="37.93112997699399" lon="15.354359635837243"><ele>9.5</ele><time>2026-04-19T09:33:14Z</time></trkpt><trkpt lat="37.93119617156171" lon="15.354405755041144"><ele>9.333333333333334</ele><time>2026-04-19T09:33:15Z</time></trkpt><trkpt lat="37.931272497498995" lon="15.354414781485609"><ele>9.166666666666666</ele><time>2026-04-19T09:33:16Z</time></trkpt><trkpt lat="37.93135217848755" lon="15.354380766680501"><ele>9.0</ele><time>2026-04-19T09:33:17Z</time></trkpt><trkpt lat="37.93142871604019" lon="15.354307616463629"><ele>9.0</ele><time>2026-04-19T09:33:18Z</time></trkpt><trkpt lat="37.9315040606359" lon="15.354228242188176"><ele>9.0</ele><time>2026-04-19T09:33:19Z</time></trkpt><trkpt lat="37.931588560424146" lon="15.354200804737816"><ele>9.0</ele><time>2026-04-19T09:33:20Z</time></trkpt><trkpt lat="37.93166815104627" lon="15.354168725511174"><ele>9.0</ele><time>2026-04-19T09:33:21Z</time></trkpt><trkpt lat="37.93173966743347" lon="15.354150240802221"><ele>9.0</ele><time>2026-04-19T09:33:22Z</time></trkpt><trkpt lat="37.931807786283336" lon="15.35414334501574"><ele>9.0</ele><time>2026-04-19T09:33:23Z</time></trkpt><trkpt lat="37.93192786799293" lon="15.354163932555773"><ele>9.0</ele><time>2026-04-19T09:33:25Z</time></trkpt><trkpt lat="37.93204612502355" lon="15.354209106025255"><ele>9.0</ele><time>2026-04-19T09:33:27Z</time></trkpt><trkpt lat="37.93211017789545" lon="15.354302660843505"><ele>9.0</ele><time>2026-04-19T09:33:29Z</time></trkpt><trkpt lat="37.932128497237265" lon="15.354455924895074"><ele>9.0</ele><time>2026-04-19T09:33:31Z</time></trkpt><trkpt lat="37.93210450398857" lon="15.354565781787118"><ele>9.0</ele><time>2026-04-19T09:33:32Z</time></trkpt><trkpt lat="37.93206957326105" lon="15.35466408146777"><ele>8.833333333333334</ele><time>2026-04-19T09:33:33Z</time></trkpt><trkpt lat="37.93203521403312" lon="15.354740006544572"><ele>8.666666666666666</ele><time>2026-04-19T09:33:34Z</time></trkpt><trkpt lat="37.93200179723404" lon="15.35482293661156"><ele>8.5</ele><time>2026-04-19T09:33:35Z</time></trkpt><trkpt lat="37.93197876177241" lon="15.354911237262366"><ele>8.333333333333332</ele><time>2026-04-19T09:33:36Z</time></trkpt><trkpt lat="37.93197188661038" lon="15.355010024353339"><ele>8.166666666666666</ele><time>2026-04-19T09:33:37Z</time></trkpt><trkpt lat="37.931994436752596" lon="15.355108366645508"><ele>8.0</ele><time>2026-04-19T09:33:38Z</time></trkpt><trkpt lat="37.93202671627978" lon="15.355211061298949"><ele>8.0</ele><time>2026-04-19T09:33:39Z</time></trkpt><trkpt lat="37.93210430396862" lon="15.355315024749835"><ele>8.0</ele><time>2026-04-19T09:33:40Z</time></trkpt><trkpt lat="37.93225136254963" lon="15.355387006552238"><ele>8.0</ele><time>2026-04-19T09:33:41Z</time></trkpt><trkpt lat="37.93238736113098" lon="15.355464599729045"><ele>8.0</ele><time>2026-04-19T09:33:42Z</time></trkpt><trkpt lat="37.93249259451259" lon="15.355525364413174"><ele>8.600000000000001</ele><time>2026-04-19T09:33:43Z</time></trkpt><trkpt lat="37.93258245374242" lon="15.355578389425661"><ele>9.200000000000001</ele><time>2026-04-19T09:33:44Z</time></trkpt><trkpt lat="37.9326645479575" lon="15.35562972003677"><ele>9.8</ele><time>2026-04-19T09:33:45Z</time></trkpt><trkpt lat="37.932739168406734" lon="15.355675389602093"><ele>10.4</ele><time>2026-04-19T09:33:46Z</time></trkpt><trkpt lat="37.932853538595324" lon="15.355742230188824"><ele>11.0</ele><time>2026-04-19T09:33:48Z</time></trkpt><trkpt lat="37.9329463734182" lon="15.355795164568006"><ele>11.0</ele><time>2026-04-19T09:33:50Z</time></trkpt><trkpt lat="37.93296747845123" lon="15.355914965171479"><ele>11.0</ele><time>2026-04-19T09:33:52Z</time></trkpt><trkpt lat="37.932962370830886" lon="15.356080978326357"><ele>11.0</ele><time>2026-04-19T09:33:54Z</time></trkpt><trkpt lat="37.93294885006433" lon="15.356177902724074"><ele>11.0</ele><time>2026-04-19T09:33:55Z</time></trkpt><trkpt lat="37.932913228968225" lon="15.356282606501253"><ele>11.0</ele><time>2026-04-19T09:33:56Z</time></trkpt><trkpt lat="37.93286264974026" lon="15.356382073676727"><ele>10.8</ele><time>2026-04-19T09:33:57Z</time></trkpt><trkpt lat="37.9328170836689" lon="15.35650885124216"><ele>10.600000000000001</ele><time>2026-04-19T09:33:58Z</time></trkpt><trkpt lat="37.93276708787871" lon="15.35664795352666"><ele>10.4</ele><time>2026-04-19T09:33:59Z</time></trkpt><trkpt lat="37.93272415756529" lon="15.356769972102738"><ele>10.2</ele><time>2026-04-19T09:34:00Z</time></trkpt><trkpt lat="37.932687847301366" lon="15.356874704143284"><ele>10.0</ele><time>2026-04-19T09:34:01Z</time></trkpt><trkpt lat="37.932663127018884" lon="15.356953332029702"><ele>10.0</ele><time>2026-04-19T09:34:02Z</time></trkpt><trkpt lat="37.93263444970878" lon="15.357044557128976"><ele>10.0</ele><time>2026-04-19T09:34:04Z</time></trkpt><trkpt lat="37.93261113125467" lon="15.357157510462251"><ele>10.0</ele><time>2026-04-19T09:34:06Z</time></trkpt><trkpt lat="37.93263049656752" lon="15.357289899723671"><ele>10.0</ele><time>2026-04-19T09:34:08Z</time></trkpt><trkpt lat="37.93271008319259" lon="15.357377764776873"><ele>10.0</ele><time>2026-04-19T09:34:10Z</time></trkpt><trkpt lat="37.932804379490214" lon="15.357459622003873"><ele>9.75</ele><time>2026-04-19T09:34:12Z</time></trkpt><trkpt lat="37.93289933042831" lon="15.357538655989394"><ele>9.5</ele><time>2026-04-19T09:34:14Z</time></trkpt><trkpt lat="37.93298277206953" lon="15.3576080659881"><ele>9.25</ele><time>2026-04-19T09:34:16Z</time></trkpt><trkpt lat="37.93307670894746" lon="15.357686125149645"><ele>9.0</ele><time>2026-04-19T09:34:18Z</time></trkpt><trkpt lat="37.933182173559345" lon="15.357773763564733"><ele>9.0</ele><time>2026-04-19T09:34:20Z</time></trkpt><trkpt lat="37.93324111318716" lon="15.357822740898456"><ele>9.0</ele><time>2026-04-19T09:34:21Z</time></trkpt><trkpt lat="37.933304937228435" lon="15.357875777051687"><ele>9.0</ele><time>2026-04-19T09:34:22Z</time></trkpt><trkpt lat="37.93337092182005" lon="15.357930548070017"><ele>9.0</ele><time>2026-04-19T09:34:23Z</time></trkpt><trkpt lat="37.933439249189206" lon="15.357987235077042"><ele>9.0</ele><time>2026-04-19T09:34:24Z</time></trkpt><trkpt lat="37.933512218235286" lon="15.358047489350248"><ele>9.0</ele><time>2026-04-19T09:34:25Z</time></trkpt><trkpt lat="37.93358615255748" lon="15.358107677594862"><ele>8.8</ele><time>2026-04-19T09:34:26Z</time></trkpt><trkpt lat="37.93366223619488" lon="15.358170205798778"><ele>8.600000000000001</ele><time>2026-04-19T09:34:27Z</time></trkpt><trkpt lat="37.93373985268655" lon="15.358234153729827"><ele>8.4</ele><time>2026-04-19T09:34:28Z</time></trkpt><trkpt lat="37.93381596576615" lon="15.358296863025588"><ele>8.200000000000001</ele><time>2026-04-19T09:34:29Z</time></trkpt><trkpt lat="37.93389153933812" lon="15.358359127703073"><ele>8.0</ele><time>2026-04-19T09:34:30Z</time></trkpt><trkpt lat="37.93396278788294" lon="15.358419916721678"><ele>7.999999999999999</ele><time>2026-04-19T09:34:31Z</time></trkpt><trkpt lat="37.93403348666789" lon="15.35847938524991"><ele>8.0</ele><time>2026-04-19T09:34:32Z</time></trkpt><trkpt lat="37.934103308105655" lon="15.35853811580126"><ele>8.0</ele><time>2026-04-19T09:34:33Z</time></trkpt><trkpt lat="37.934172425519506" lon="15.358596254160915"><ele>8.0</ele><time>2026-04-19T09:34:34Z</time></trkpt><trkpt lat="37.93424139401978" lon="15.358654267263287"><ele>7.999999999999999</ele><time>2026-04-19T09:34:35Z</time></trkpt><trkpt lat="37.93431277201572" lon="15.358712461490482"><ele>8.0</ele><time>2026-04-19T09:34:36Z</time></trkpt><trkpt lat="37.934386157346935" lon="15.358773544987729"><ele>7.999999999999999</ele><time>2026-04-19T09:34:37Z</time></trkpt><trkpt lat="37.93446559291504" lon="15.3588396644988"><ele>8.0</ele><time>2026-04-19T09:34:38Z</time></trkpt><trkpt lat="37.934535694635315" lon="15.358898001611925"><ele>8.0</ele><time>2026-04-19T09:34:39Z</time></trkpt><trkpt lat="37.9346014565306" lon="15.35895248074286"><ele>8.0</ele><time>2026-04-19T09:34:40Z</time></trkpt><trkpt lat="37.93466928257188" lon="15.359008637074437"><ele>7.999999999999999</ele><time>2026-04-19T09:34:41Z</time></trkpt><trkpt lat="37.934744638246194" lon="15.359071027545014"><ele>8.0</ele><time>2026-04-19T09:34:42Z</time></trkpt><trkpt lat="37.93482614250714" lon="15.359138508714352"><ele>8.0</ele><time>2026-04-19T09:34:43Z</time></trkpt><trkpt lat="37.934916030420084" lon="15.359212931098158"><ele>8.0</ele><time>2026-04-19T09:34:44Z</time></trkpt><trkpt lat="37.93500793933727" lon="15.359287765075273"><ele>8.0</ele><time>2026-04-19T09:34:45Z</time></trkpt><trkpt lat="37.935095392665346" lon="15.359358093289694"><ele>8.0</ele><time>2026-04-19T09:34:46Z</time></trkpt><trkpt lat="37.935171993798214" lon="15.359419694381996"><ele>8.0</ele><time>2026-04-19T09:34:47Z</time></trkpt><trkpt lat="37.93524081809294" lon="15.359472050941775"><ele>8.333333333333332</ele><time>2026-04-19T09:34:48Z</time></trkpt><trkpt lat="37.93530085549236" lon="15.359517594357678"><ele>8.666666666666666</ele><time>2026-04-19T09:34:49Z</time></trkpt><trkpt lat="37.93535559425896" lon="15.359559118326564"><ele>9.0</ele><time>2026-04-19T09:34:50Z</time></trkpt><trkpt lat="37.93541961421043" lon="15.359605210490534"><ele>9.333333333333334</ele><time>2026-04-19T09:34:51Z</time></trkpt><trkpt lat="37.93548998889122" lon="15.35965541520625"><ele>9.666666666666668</ele><time>2026-04-19T09:34:52Z</time></trkpt><trkpt lat="37.93556632889984" lon="15.359708784437593"><ele>10.0</ele><time>2026-04-19T09:34:53Z</time></trkpt><trkpt lat="37.935650102117876" lon="15.359766640586342"><ele>10.0</ele><time>2026-04-19T09:34:54Z</time></trkpt><trkpt lat="37.93574174930001" lon="15.35982993471779"><ele>10.0</ele><time>2026-04-19T09:34:55Z</time></trkpt><trkpt lat="37.93584066934686" lon="15.359898251688758"><ele>10.0</ele><time>2026-04-19T09:34:56Z</time></trkpt><trkpt lat="37.93594471431043" lon="15.35997010807993"><ele>10.0</ele><time>2026-04-19T09:34:57Z</time></trkpt><trkpt lat="37.93605282574405" lon="15.360044772812918"><ele>10.75</ele><time>2026-04-19T09:34:58Z</time></trkpt><trkpt lat="37.93616047668228" lon="15.36012498730126"><ele>11.5</ele><time>2026-04-19T09:34:59Z</time></trkpt><trkpt lat="37.93627396992329" lon="15.360210616602966"><ele>12.25</ele><time>2026-04-19T09:35:00Z</time></trkpt><trkpt lat="37.93638003544936" lon="15.360290932852044"><ele>13.0</ele><time>2026-04-19T09:35:01Z</time></trkpt><trkpt lat="37.936472915468386" lon="15.360365882551468"><ele>13.0</ele><time>2026-04-19T09:35:02Z</time></trkpt><trkpt lat="37.93656096614214" lon="15.360439744066237"><ele>13.0</ele><time>2026-04-19T09:35:03Z</time></trkpt><trkpt lat="37.93664990945301" lon="15.360514353474182"><ele>13.0</ele><time>2026-04-19T09:35:04Z</time></trkpt><trkpt lat="37.93673767988993" lon="15.360589322726197"><ele>13.0</ele><time>2026-04-19T09:35:05Z</time></trkpt><trkpt lat="37.93682882795185" lon="15.360667632250744"><ele>13.0</ele><time>2026-04-19T09:35:06Z</time></trkpt><trkpt lat="37.9369200340785" lon="15.360748672778353"><ele>12.8</ele><time>2026-04-19T09:35:07Z</time></trkpt><trkpt lat="37.93700520184937" lon="15.36082453943608"><ele>12.600000000000001</ele><time>2026-04-19T09:35:08Z</time></trkpt><trkpt lat="37.937079487092646" lon="15.360890727339337"><ele>12.399999999999999</ele><time>2026-04-19T09:35:09Z</time></trkpt><trkpt lat="37.93714911624013" lon="15.360951828070853"><ele>12.2</ele><time>2026-04-19T09:35:10Z</time></trkpt><trkpt lat="37.93722153692447" lon="15.36101537842991"><ele>12.0</ele><time>2026-04-19T09:35:11Z</time></trkpt><trkpt lat="37.93729567630561" lon="15.361080436977222"><ele>12.0</ele><time>2026-04-19T09:35:12Z</time></trkpt><trkpt lat="37.93736654810495" lon="15.361142628177372"><ele>12.0</ele><time>2026-04-19T09:35:13Z</time></trkpt><trkpt lat="37.93743642619575" lon="15.361203947375824"><ele>12.0</ele><time>2026-04-19T09:35:14Z</time></trkpt><trkpt lat="37.93750465594487" lon="15.36126423867207"><ele>12.0</ele><time>2026-04-19T09:35:15Z</time></trkpt><trkpt lat="37.93757020418289" lon="15.361322135566148"><ele>12.0</ele><time>2026-04-19T09:35:16Z</time></trkpt><trkpt lat="37.93763241020912" lon="15.361377080357107"><ele>12.0</ele><time>2026-04-19T09:35:17Z</time></trkpt><trkpt lat="37.93769264646618" lon="15.361430285324023"><ele>11.999999999999998</ele><time>2026-04-19T09:35:18Z</time></trkpt><trkpt lat="37.93775164165437" lon="15.361482394083238"><ele>12.0</ele><time>2026-04-19T09:35:19Z</time></trkpt><trkpt lat="37.93781302039437" lon="15.36153660816074"><ele>12.0</ele><time>2026-04-19T09:35:20Z</time></trkpt><trkpt lat="37.93787050438179" lon="15.361587382118277"><ele>12.0</ele><time>2026-04-19T09:35:21Z</time></trkpt><trkpt lat="37.9379275919934" lon="15.361637805977423"><ele>12.0</ele><time>2026-04-19T09:35:22Z</time></trkpt><trkpt lat="37.937982736722" lon="15.361686513740171"><ele>11.999999999999998</ele><time>2026-04-19T09:35:23Z</time></trkpt><trkpt lat="37.938034478057936" lon="15.361732215371072"><ele>12.0</ele><time>2026-04-19T09:35:24Z</time></trkpt><trkpt lat="37.93812999676284" lon="15.36181658430835"><ele>11.999999999999998</ele><time>2026-04-19T09:35:26Z</time></trkpt><trkpt lat="37.938182890621434" lon="15.36186330394526"><ele>12.0</ele><time>2026-04-19T09:35:27Z</time></trkpt><trkpt lat="37.938236229630746" lon="15.361910416761173"><ele>12.0</ele><time>2026-04-19T09:35:28Z</time></trkpt><trkpt lat="37.93828930066461" lon="15.361957292888832"><ele>12.0</ele><time>2026-04-19T09:35:29Z</time></trkpt><trkpt lat="37.93834628716865" lon="15.362007627444934"><ele>12.0</ele><time>2026-04-19T09:35:30Z</time></trkpt><trkpt lat="37.93840340735172" lon="15.36205808006025"><ele>11.999999999999998</ele><time>2026-04-19T09:35:31Z</time></trkpt><trkpt lat="37.93846625986674" lon="15.362113602541509"><ele>12.0</ele><time>2026-04-19T09:35:32Z</time></trkpt><trkpt lat="37.93852793867122" lon="15.362168088288604"><ele>12.142857142857142</ele><time>2026-04-19T09:35:33Z</time></trkpt><trkpt lat="37.93858144045252" lon="15.362215350626169"><ele>12.285714285714285</ele><time>2026-04-19T09:35:34Z</time></trkpt><trkpt lat="37.93863565209904" lon="15.362263240012716"><ele>12.428571428571427</ele><time>2026-04-19T09:35:35Z</time></trkpt><trkpt lat="37.938704079087344" lon="15.362323857513688"><ele>12.571428571428571</ele><time>2026-04-19T09:35:36Z</time></trkpt><trkpt lat="37.93876082642851" lon="15.362374217639818"><ele>12.714285714285715</ele><time>2026-04-19T09:35:37Z</time></trkpt><trkpt lat="37.93882230593356" lon="15.36242877728447"><ele>12.857142857142856</ele><time>2026-04-19T09:35:38Z</time></trkpt><trkpt lat="37.938880645011736" lon="15.362480549992496"><ele>13.0</ele><time>2026-04-19T09:35:39Z</time></trkpt><trkpt lat="37.93893819365524" lon="15.362531621217244"><ele>13.0</ele><time>2026-04-19T09:35:40Z</time></trkpt><trkpt lat="37.93899512463598" lon="15.362582144310117"><ele>13.0</ele><time>2026-04-19T09:35:41Z</time></trkpt><trkpt lat="37.939050828987256" lon="15.362631158468501"><ele>13.0</ele><time>2026-04-19T09:35:42Z</time></trkpt><trkpt lat="37.93910844687781" lon="15.362681808490196"><ele>13.0</ele><time>2026-04-19T09:35:43Z</time></trkpt><trkpt lat="37.939166842750815" lon="15.362733142417303"><ele>13.0</ele><time>2026-04-19T09:35:44Z</time></trkpt><trkpt lat="37.93922135416632" lon="15.36278106164418"><ele>13.0</ele><time>2026-04-19T09:35:45Z</time></trkpt><trkpt lat="37.9392824374831" lon="15.362832302471173"><ele>13.0</ele><time>2026-04-19T09:35:46Z</time></trkpt><trkpt lat="37.939343058513955" lon="15.362882845641298"><ele>13.142857142857142</ele><time>2026-04-19T09:35:47Z</time></trkpt><trkpt lat="37.939403113760854" lon="15.362934389548913"><ele>13.285714285714286</ele><time>2026-04-19T09:35:48Z</time></trkpt><trkpt lat="37.939462397609915" lon="15.362988831073029"><ele>13.428571428571429</ele><time>2026-04-19T09:35:49Z</time></trkpt><trkpt lat="37.939521670370006" lon="15.363043262417925"><ele>13.571428571428571</ele><time>2026-04-19T09:35:50Z</time></trkpt><trkpt lat="37.93958190268202" lon="15.363098574934689"><ele>13.714285714285715</ele><time>2026-04-19T09:35:51Z</time></trkpt><trkpt lat="37.93964222192675" lon="15.36315396728875"><ele>13.857142857142858</ele><time>2026-04-19T09:35:52Z</time></trkpt><trkpt lat="37.939700436667074" lon="15.363209412557431"><ele>14.0</ele><time>2026-04-19T09:35:53Z</time></trkpt><trkpt lat="37.93976002008967" lon="15.363266166869254"><ele>14.000000000000002</ele><time>2026-04-19T09:35:54Z</time></trkpt><trkpt lat="37.939821065653355" lon="15.363324313908741"><ele>14.0</ele><time>2026-04-19T09:35:55Z</time></trkpt><trkpt lat="37.93988399715831" lon="15.363384257332402"><ele>14.0</ele><time>2026-04-19T09:35:56Z</time></trkpt><trkpt lat="37.93994842990617" lon="15.363445702834026"><ele>14.0</ele><time>2026-04-19T09:35:57Z</time></trkpt><trkpt lat="37.940013164762625" lon="15.363507436958862"><ele>14.000000000000002</ele><time>2026-04-19T09:35:58Z</time></trkpt><trkpt lat="37.94008050372876" lon="15.363571654484206"><ele>14.0</ele><time>2026-04-19T09:35:59Z</time></trkpt><trkpt lat="37.94015026286675" lon="15.363638179989488"><ele>13.714285714285714</ele><time>2026-04-19T09:36:00Z</time></trkpt><trkpt lat="37.940215766586114" lon="15.363700647354124"><ele>13.428571428571429</ele><time>2026-04-19T09:36:01Z</time></trkpt><trkpt lat="37.94027227480197" lon="15.363754536143112"><ele>13.142857142857142</ele><time>2026-04-19T09:36:02Z</time></trkpt><trkpt lat="37.940324568925426" lon="15.363805713448848"><ele>12.857142857142858</ele><time>2026-04-19T09:36:03Z</time></trkpt><trkpt lat="37.940381533000235" lon="15.363860630303042"><ele>12.571428571428571</ele><time>2026-04-19T09:36:04Z</time></trkpt><trkpt lat="37.94044034739736" lon="15.363917330992134"><ele>12.285714285714285</ele><time>2026-04-19T09:36:05Z</time></trkpt><trkpt lat="37.940495754573014" lon="15.363970746916161"><ele>12.0</ele><time>2026-04-19T09:36:06Z</time></trkpt><trkpt lat="37.940549478623595" lon="15.364022540203056"><ele>11.999999999999998</ele><time>2026-04-19T09:36:07Z</time></trkpt><trkpt lat="37.94060473033119" lon="15.364075857681268"><ele>12.0</ele><time>2026-04-19T09:36:08Z</time></trkpt><trkpt lat="37.940658702832174" lon="15.364127984143297"><ele>12.0</ele><time>2026-04-19T09:36:09Z</time></trkpt><trkpt lat="37.94071296678949" lon="15.364180392085181"><ele>12.0</ele><time>2026-04-19T09:36:10Z</time></trkpt><trkpt lat="37.94076701401744" lon="15.364232590715638"><ele>12.0</ele><time>2026-04-19T09:36:11Z</time></trkpt><trkpt lat="37.9408212519115" lon="15.364284897310235"><ele>11.999999999999998</ele><time>2026-04-19T09:36:12Z</time></trkpt><trkpt lat="37.94087650178694" lon="15.36433808185341"><ele>12.0</ele><time>2026-04-19T09:36:13Z</time></trkpt><trkpt lat="37.94097284121997" lon="15.364430819958791"><ele>11.833333333333334</ele><time>2026-04-19T09:36:15Z</time></trkpt><trkpt lat="37.94104962461891" lon="15.364504733075266"><ele>11.666666666666666</ele><time>2026-04-19T09:36:17Z</time></trkpt><trkpt lat="37.94114766436863" lon="15.364529633288248"><ele>11.5</ele><time>2026-04-19T09:36:19Z</time></trkpt><trkpt lat="37.941198253878426" lon="15.364582871181664"><ele>11.333333333333332</ele><time>2026-04-19T09:36:21Z</time></trkpt><trkpt lat="37.94125097202898" lon="15.364637267341232"><ele>11.166666666666666</ele><time>2026-04-19T09:36:25Z</time></trkpt><trkpt lat="37.941315722883914" lon="15.36469081205795"><ele>11.0</ele><time>2026-04-19T09:36:28Z</time></trkpt><trkpt lat="37.94137440671474" lon="15.364749793275275"><ele>11.0</ele><time>2026-04-19T09:36:31Z</time></trkpt><trkpt lat="37.94144707732587" lon="15.364814537335068"><ele>11.0</ele><time>2026-04-19T09:36:34Z</time></trkpt><trkpt lat="37.94149852264174" lon="15.364866404983411"><ele>11.0</ele><time>2026-04-19T09:36:36Z</time></trkpt><trkpt lat="37.941568043514536" lon="15.364933949669231"><ele>11.0</ele><time>2026-04-19T09:36:39Z</time></trkpt><trkpt lat="37.94164008770409" lon="15.365006566196731"><ele>11.0</ele><time>2026-04-19T09:36:42Z</time></trkpt><trkpt lat="37.94168909637296" lon="15.365057441355981"><ele>11.0</ele><time>2026-04-19T09:36:44Z</time></trkpt><trkpt lat="37.9417421523576" lon="15.36511056478183"><ele>12.0</ele><time>2026-04-19T09:36:46Z</time></trkpt><trkpt lat="37.94181849784192" lon="15.365181780438915"><ele>13.0</ele><time>2026-04-19T09:36:48Z</time></trkpt><trkpt lat="37.9418929314837" lon="15.365252747263204"><ele>14.000000000000002</ele><time>2026-04-19T09:36:50Z</time></trkpt><trkpt lat="37.9419698639458" lon="15.365329022079768"><ele>15.0</ele><time>2026-04-19T09:36:52Z</time></trkpt><trkpt lat="37.94208295316876" lon="15.36541251575694"><ele>16.0</ele><time>2026-04-19T09:36:54Z</time></trkpt><trkpt lat="37.942105335439166" lon="15.365524589206183"><ele>15.499999999999998</ele><time>2026-04-19T09:36:55Z</time></trkpt><trkpt lat="37.94216484343427" lon="15.365581680801906"><ele>15.0</ele><time>2026-04-19T09:36:56Z</time></trkpt><trkpt lat="37.94222693995502" lon="15.365641255831449"><ele>14.5</ele><time>2026-04-19T09:36:57Z</time></trkpt><trkpt lat="37.94228918254056" lon="15.365700971006014"><ele>14.0</ele><time>2026-04-19T09:36:58Z</time></trkpt><trkpt lat="37.9423562564816" lon="15.365765321351475"><ele>13.499999999999998</ele><time>2026-04-19T09:36:59Z</time></trkpt><trkpt lat="37.942422944305555" lon="15.365830724320311"><ele>13.0</ele><time>2026-04-19T09:37:00Z</time></trkpt><trkpt lat="37.94248504009714" lon="15.365893079822438"><ele>13.8</ele><time>2026-04-19T09:37:01Z</time></trkpt><trkpt lat="37.942576109645415" lon="15.365984530268493"><ele>14.600000000000001</ele><time>2026-04-19T09:37:03Z</time></trkpt><trkpt lat="37.942669568327105" lon="15.366079409235526"><ele>15.399999999999999</ele><time>2026-04-19T09:37:05Z</time></trkpt><trkpt lat="37.94272675149599" lon="15.366138320888417"><ele>16.2</ele><time>2026-04-19T09:37:06Z</time></trkpt><trkpt lat="37.942784086935475" lon="15.366197389430912"><ele>17.0</ele><time>2026-04-19T09:37:07Z</time></trkpt><trkpt lat="37.94283732694692" lon="15.366252238757815"><ele>17.0</ele><time>2026-04-19T09:37:08Z</time></trkpt><trkpt lat="37.94289857740602" lon="15.366315340657867"><ele>17.0</ele><time>2026-04-19T09:37:09Z</time></trkpt><trkpt lat="37.94297794318354" lon="15.36639710540129"><ele>17.0</ele><time>2026-04-19T09:37:10Z</time></trkpt><trkpt lat="37.9430666357867" lon="15.366488478946644"><ele>17.0</ele><time>2026-04-19T09:37:11Z</time></trkpt><trkpt lat="37.94314559308267" lon="15.366571803279145"><ele>17.0</ele><time>2026-04-19T09:37:12Z</time></trkpt><trkpt lat="37.94322549649376" lon="15.366657430292936"><ele>16.75</ele><time>2026-04-19T09:37:13Z</time></trkpt><trkpt lat="37.94331346613036" lon="15.36675340532015"><ele>16.5</ele><time>2026-04-19T09:37:14Z</time></trkpt><trkpt lat="37.94340234623845" lon="15.366850547382436"><ele>16.25</ele><time>2026-04-19T09:37:15Z</time></trkpt><trkpt lat="37.9434947664904" lon="15.366952415852921"><ele>16.0</ele><time>2026-04-19T09:37:16Z</time></trkpt><trkpt lat="37.94359555908139" lon="15.367063512557092"><ele>16.0</ele><time>2026-04-19T09:37:17Z</time></trkpt><trkpt lat="37.94370521805084" lon="15.367184382017317"><ele>16.0</ele><time>2026-04-19T09:37:18Z</time></trkpt><trkpt lat="37.943806501655516" lon="15.367296019935429"><ele>16.0</ele><time>2026-04-19T09:37:19Z</time></trkpt><trkpt lat="37.94392938727763" lon="15.36736086572082"><ele>16.0</ele><time>2026-04-19T09:37:20Z</time></trkpt><trkpt lat="37.94402750453079" lon="15.36747153593188"><ele>16.25</ele><time>2026-04-19T09:37:21Z</time></trkpt><trkpt lat="37.9441364562259" lon="15.367584086334114"><ele>16.5</ele><time>2026-04-19T09:37:22Z</time></trkpt><trkpt lat="37.9442410881165" lon="15.36770018151776"><ele>16.75</ele><time>2026-04-19T09:37:23Z</time></trkpt><trkpt lat="37.944339603538104" lon="15.367817650385414"><ele>17.0</ele><time>2026-04-19T09:37:24Z</time></trkpt><trkpt lat="37.94443908469193" lon="15.367930946563549"><ele>15.5</ele><time>2026-04-19T09:37:25Z</time></trkpt><trkpt lat="37.94454252451064" lon="15.368037752646902"><ele>14.0</ele><time>2026-04-19T09:37:26Z</time></trkpt><trkpt lat="37.94464726352159" lon="15.368141766542953"><ele>12.5</ele><time>2026-04-19T09:37:27Z</time></trkpt><trkpt lat="37.94474786336463" lon="15.368248707664128"><ele>11.0</ele><time>2026-04-19T09:37:28Z</time></trkpt><trkpt lat="37.94484090467681" lon="15.368354384327906"><ele>11.0</ele><time>2026-04-19T09:37:29Z</time></trkpt><trkpt lat="37.94492752712932" lon="15.368474228918013"><ele>11.0</ele><time>2026-04-19T09:37:30Z</time></trkpt><trkpt lat="37.94502581609214" lon="15.368569096783865"><ele>11.0</ele><time>2026-04-19T09:37:31Z</time></trkpt><trkpt lat="37.94512441582831" lon="15.368664315890651"><ele>11.0</ele><time>2026-04-19T09:37:32Z</time></trkpt><trkpt lat="37.9452201287572" lon="15.368756943943884"><ele>11.600000000000001</ele><time>2026-04-19T09:37:33Z</time></trkpt><trkpt lat="37.945314146951965" lon="15.368847931878799"><ele>12.2</ele><time>2026-04-19T09:37:34Z</time></trkpt><trkpt lat="37.94540263558369" lon="15.368933568406346"><ele>12.799999999999999</ele><time>2026-04-19T09:37:35Z</time></trkpt><trkpt lat="37.9454877871102" lon="15.369015975486311"><ele>13.399999999999999</ele><time>2026-04-19T09:37:36Z</time></trkpt><trkpt lat="37.94556968656959" lon="15.36909523531118"><ele>14.0</ele><time>2026-04-19T09:37:37Z</time></trkpt><trkpt lat="37.94565006510477" lon="15.369172189935822"><ele>14.0</ele><time>2026-04-19T09:37:38Z</time></trkpt><trkpt lat="37.94572962032862" lon="15.36924832090296"><ele>13.999999999999998</ele><time>2026-04-19T09:37:39Z</time></trkpt><trkpt lat="37.94580659701838" lon="15.36932198543144"><ele>13.999999999999998</ele><time>2026-04-19T09:37:40Z</time></trkpt><trkpt lat="37.945882615718936" lon="15.369394732031257"><ele>14.0</ele><time>2026-04-19T09:37:41Z</time></trkpt><trkpt lat="37.9459517341606" lon="15.369460875488652"><ele>14.0</ele><time>2026-04-19T09:37:42Z</time></trkpt><trkpt lat="37.94601768767906" lon="15.36952399014895"><ele>14.333333333333334</ele><time>2026-04-19T09:37:43Z</time></trkpt><trkpt lat="37.94608007559849" lon="15.369583694332604"><ele>14.666666666666668</ele><time>2026-04-19T09:37:44Z</time></trkpt><trkpt lat="37.94614273063204" lon="15.369643594496434"><ele>15.0</ele><time>2026-04-19T09:37:45Z</time></trkpt><trkpt lat="37.94620478729359" lon="15.369702922541919"><ele>15.333333333333332</ele><time>2026-04-19T09:37:46Z</time></trkpt><trkpt lat="37.946268329944765" lon="15.369763671258802"><ele>15.666666666666666</ele><time>2026-04-19T09:37:47Z</time></trkpt><trkpt lat="37.94633477058727" lon="15.36982719053415"><ele>16.0</ele><time>2026-04-19T09:37:48Z</time></trkpt><trkpt lat="37.94640353580791" lon="15.369892935619461"><ele>15.600000000000001</ele><time>2026-04-19T09:37:49Z</time></trkpt><trkpt lat="37.9464781437638" lon="15.369964341086655"><ele>15.200000000000001</ele><time>2026-04-19T09:37:50Z</time></trkpt><trkpt lat="37.94655674256939" lon="15.37003956624444"><ele>14.799999999999999</ele><time>2026-04-19T09:37:51Z</time></trkpt><trkpt lat="37.94663892186307" lon="15.37011822158801"><ele>14.399999999999999</ele><time>2026-04-19T09:37:52Z</time></trkpt><trkpt lat="37.946722976291625" lon="15.370199097435307"><ele>14.0</ele><time>2026-04-19T09:37:53Z</time></trkpt><trkpt lat="37.94680796671725" lon="15.370280684482474"><ele>14.0</ele><time>2026-04-19T09:37:54Z</time></trkpt><trkpt lat="37.94689293451875" lon="15.370362249791917"><ele>13.999999999999998</ele><time>2026-04-19T09:37:55Z</time></trkpt><trkpt lat="37.94697769909602" lon="15.370443620013937"><ele>13.999999999999998</ele><time>2026-04-19T09:37:56Z</time></trkpt><trkpt lat="37.947061818353156" lon="15.370524370757112"><ele>14.0</ele><time>2026-04-19T09:37:57Z</time></trkpt><trkpt lat="37.94714967999086" lon="15.370608673453464"><ele>14.0</ele><time>2026-04-19T09:37:58Z</time></trkpt><trkpt lat="37.947235978798055" lon="15.370691423586804"><ele>13.666666666666668</ele><time>2026-04-19T09:37:59Z</time></trkpt><trkpt lat="37.947316830805164" lon="15.370768950868177"><ele>13.333333333333334</ele><time>2026-04-19T09:38:00Z</time></trkpt><trkpt lat="37.94739349365838" lon="15.370842461276657"><ele>13.0</ele><time>2026-04-19T09:38:01Z</time></trkpt><trkpt lat="37.94746371790453" lon="15.370909797866686"><ele>12.666666666666668</ele><time>2026-04-19T09:38:02Z</time></trkpt><trkpt lat="37.947525909840344" lon="15.37096995052684"><ele>12.333333333333334</ele><time>2026-04-19T09:38:03Z</time></trkpt><trkpt lat="37.947583426837454" lon="15.37102602961195"><ele>12.0</ele><time>2026-04-19T09:38:04Z</time></trkpt><trkpt lat="37.94763587231683" lon="15.371077071886997"><ele>12.399999999999999</ele><time>2026-04-19T09:38:05Z</time></trkpt><trkpt lat="37.94773370495582" lon="15.371171821387799"><ele>12.799999999999999</ele><time>2026-04-19T09:38:07Z</time></trkpt><trkpt lat="37.94782452393" lon="15.371259092662545"><ele>13.2</ele><time>2026-04-19T09:38:09Z</time></trkpt><trkpt lat="37.9478821020598" lon="15.371314312807327"><ele>13.6</ele><time>2026-04-19T09:38:11Z</time></trkpt><trkpt lat="37.94794829790673" lon="15.371356202109515"><ele>14.0</ele><time>2026-04-19T09:38:14Z</time></trkpt><trkpt lat="37.94800656303458" lon="15.371408367135048"><ele>14.000000000000002</ele><time>2026-04-19T09:38:17Z</time></trkpt><trkpt lat="37.94804670860998" lon="15.371470867807165"><ele>14.0</ele><time>2026-04-19T09:38:19Z</time></trkpt><trkpt lat="37.948117129179195" lon="15.371537927720302"><ele>14.0</ele><time>2026-04-19T09:38:22Z</time></trkpt><trkpt lat="37.948175677932404" lon="15.371593982714062"><ele>14.0</ele><time>2026-04-19T09:38:27Z</time></trkpt><trkpt lat="37.94824138233349" lon="15.371656888565825"><ele>14.000000000000002</ele><time>2026-04-19T09:38:30Z</time></trkpt><trkpt lat="37.94830343428247" lon="15.371716297539315"><ele>14.0</ele><time>2026-04-19T09:38:32Z</time></trkpt><trkpt lat="37.94835663027548" lon="15.371767227751919"><ele>14.142857142857142</ele><time>2026-04-19T09:38:34Z</time></trkpt><trkpt lat="37.94840871959882" lon="15.371817098423579"><ele>14.285714285714285</ele><time>2026-04-19T09:38:37Z</time></trkpt><trkpt lat="37.94846956183135" lon="15.371875349220812"><ele>14.428571428571429</ele><time>2026-04-19T09:38:39Z</time></trkpt><trkpt lat="37.94852723530208" lon="15.371930566191235"><ele>14.571428571428571</ele><time>2026-04-19T09:38:41Z</time></trkpt><trkpt lat="37.94858546755232" lon="15.371986478352701"><ele>14.714285714285714</ele><time>2026-04-19T09:38:44Z</time></trkpt><trkpt lat="37.94864018499432" lon="15.372039021356063"><ele>14.857142857142858</ele><time>2026-04-19T09:38:48Z</time></trkpt><trkpt lat="37.948712334073505" lon="15.37210830326321"><ele>15.0</ele><time>2026-04-19T09:38:51Z</time></trkpt><trkpt lat="37.94877448222289" lon="15.37216798166028"><ele>14.6</ele><time>2026-04-19T09:38:53Z</time></trkpt><trkpt lat="37.94883030205685" lon="15.372221583098247"><ele>14.2</ele><time>2026-04-19T09:38:55Z</time></trkpt><trkpt lat="37.94892873191754" lon="15.372316411255355"><ele>13.8</ele><time>2026-04-19T09:38:57Z</time></trkpt><trkpt lat="37.9489996682381" lon="15.3723847328415"><ele>13.4</ele><time>2026-04-19T09:38:58Z</time></trkpt><trkpt lat="37.949070842377495" lon="15.372453283511572"><ele>13.0</ele><time>2026-04-19T09:38:59Z</time></trkpt><trkpt lat="37.94913501480624" lon="15.37251509057042"><ele>12.999999999999998</ele><time>2026-04-19T09:39:00Z</time></trkpt><trkpt lat="37.949193339314" lon="15.3725712652772"><ele>13.0</ele><time>2026-04-19T09:39:01Z</time></trkpt><trkpt lat="37.94928723375311" lon="15.372661432233373"><ele>13.0</ele><time>2026-04-19T09:39:03Z</time></trkpt><trkpt lat="37.94936743004976" lon="15.372738229281502"><ele>13.0</ele><time>2026-04-19T09:39:05Z</time></trkpt><trkpt lat="37.94942298646079" lon="15.372791430829908"><ele>12.999999999999998</ele><time>2026-04-19T09:39:06Z</time></trkpt><trkpt lat="37.94948295607836" lon="15.372848858526748"><ele>13.0</ele><time>2026-04-19T09:39:07Z</time></trkpt><trkpt lat="37.949543517393565" lon="15.372906852855595"><ele>13.0</ele><time>2026-04-19T09:39:08Z</time></trkpt><trkpt lat="37.94960560768423" lon="15.372966722929615"><ele>13.0</ele><time>2026-04-19T09:39:09Z</time></trkpt><trkpt lat="37.94972688941847" lon="15.372963265146101"><ele>13.0</ele><time>2026-04-19T09:39:10Z</time></trkpt><trkpt lat="37.94981375305179" lon="15.373054222126873"><ele>13.0</ele><time>2026-04-19T09:39:11Z</time></trkpt><trkpt lat="37.94990701177419" lon="15.373153633066853"><ele>13.0</ele><time>2026-04-19T09:39:12Z</time></trkpt><trkpt lat="37.94999834682272" lon="15.373255001600798"><ele>12.8</ele><time>2026-04-19T09:39:13Z</time></trkpt><trkpt lat="37.95007935078801" lon="15.373342132409345"><ele>12.600000000000001</ele><time>2026-04-19T09:39:14Z</time></trkpt><trkpt lat="37.95016009788847" lon="15.373419253363643"><ele>12.399999999999999</ele><time>2026-04-19T09:39:15Z</time></trkpt><trkpt lat="37.95023466890457" lon="15.373491900333965"><ele>12.2</ele><time>2026-04-19T09:39:16Z</time></trkpt><trkpt lat="37.950301623461854" lon="15.373555620220023"><ele>12.0</ele><time>2026-04-19T09:39:17Z</time></trkpt><trkpt lat="37.950368740228825" lon="15.373620859756377"><ele>12.0</ele><time>2026-04-19T09:39:18Z</time></trkpt><trkpt lat="37.950430620980285" lon="15.373683584180373"><ele>12.0</ele><time>2026-04-19T09:39:19Z</time></trkpt><trkpt lat="37.95049722491194" lon="15.373739219015905"><ele>12.0</ele><time>2026-04-19T09:39:20Z</time></trkpt><trkpt lat="37.950546436602316" lon="15.373790861789665"><ele>12.0</ele><time>2026-04-19T09:39:21Z</time></trkpt><trkpt lat="37.9505621899325" lon="15.37388410205726"><ele>12.0</ele><time>2026-04-19T09:39:22Z</time></trkpt><trkpt lat="37.950640541079856" lon="15.373959239097095"><ele>12.0</ele><time>2026-04-19T09:39:24Z</time></trkpt><trkpt lat="37.950702493925206" lon="15.374018649682725"><ele>12.0</ele><time>2026-04-19T09:39:27Z</time></trkpt><trkpt lat="37.95075789393269" lon="15.374071776451045"><ele>12.0</ele><time>2026-04-19T09:39:29Z</time></trkpt><trkpt lat="37.950816726509544" lon="15.374128216494091"><ele>12.0</ele><time>2026-04-19T09:39:30Z</time></trkpt><trkpt lat="37.95088764361028" lon="15.374196269350412"><ele>12.0</ele><time>2026-04-19T09:39:31Z</time></trkpt><trkpt lat="37.950980772612354" lon="15.374262763905888"><ele>12.0</ele><time>2026-04-19T09:39:32Z</time></trkpt><trkpt lat="37.95105628391652" lon="15.374358403620132"><ele>12.0</ele><time>2026-04-19T09:39:33Z</time></trkpt><trkpt lat="37.95113322870862" lon="15.374432543721019"><ele>12.0</ele><time>2026-04-19T09:39:34Z</time></trkpt><trkpt lat="37.95121499061623" lon="15.374511325643342"><ele>12.0</ele><time>2026-04-19T09:39:35Z</time></trkpt><trkpt lat="37.95130311841076" lon="15.37459577274463"><ele>12.0</ele><time>2026-04-19T09:39:36Z</time></trkpt><trkpt lat="37.9513955368946" lon="15.374683904948471"><ele>12.0</ele><time>2026-04-19T09:39:37Z</time></trkpt><trkpt lat="37.95149201110914" lon="15.374775905406054"><ele>12.0</ele><time>2026-04-19T09:39:38Z</time></trkpt><trkpt lat="37.95160997134461" lon="15.374845644939036"><ele>11.75</ele><time>2026-04-19T09:39:39Z</time></trkpt><trkpt lat="37.95171662350999" lon="15.374946594970751"><ele>11.5</ele><time>2026-04-19T09:39:40Z</time></trkpt><trkpt lat="37.95182270130951" lon="15.375039872303471"><ele>11.25</ele><time>2026-04-19T09:39:41Z</time></trkpt><trkpt lat="37.951925331927214" lon="15.375116145147626"><ele>11.0</ele><time>2026-04-19T09:39:42Z</time></trkpt><trkpt lat="37.95202556049566" lon="15.375187040355659"><ele>11.0</ele><time>2026-04-19T09:39:43Z</time></trkpt><trkpt lat="37.95212575457625" lon="15.37526667847691"><ele>11.0</ele><time>2026-04-19T09:39:44Z</time></trkpt><trkpt lat="37.95223043603837" lon="15.37534655502435"><ele>11.0</ele><time>2026-04-19T09:39:45Z</time></trkpt><trkpt lat="37.95233313815257" lon="15.375413989864253"><ele>11.0</ele><time>2026-04-19T09:39:46Z</time></trkpt><trkpt lat="37.95240821701157" lon="15.375464282561799"><ele>11.0</ele><time>2026-04-19T09:39:47Z</time></trkpt><trkpt lat="37.95248495787328" lon="15.37555977388349"><ele>11.166666666666666</ele><time>2026-04-19T09:39:49Z</time></trkpt><trkpt lat="37.95256826010569" lon="15.375588471443622"><ele>11.333333333333332</ele><time>2026-04-19T09:39:51Z</time></trkpt><trkpt lat="37.952636264924365" lon="15.375641870485888"><ele>11.5</ele><time>2026-04-19T09:39:53Z</time></trkpt><trkpt lat="37.95270527905555" lon="15.375691814305428"><ele>11.666666666666666</ele><time>2026-04-19T09:39:55Z</time></trkpt><trkpt lat="37.952759952966964" lon="15.375751498956388"><ele>11.833333333333334</ele><time>2026-04-19T09:39:57Z</time></trkpt><trkpt lat="37.95287698784746" lon="15.37579840283132"><ele>12.0</ele><time>2026-04-19T09:39:59Z</time></trkpt><trkpt lat="37.95294586408816" lon="15.37585483663606"><ele>12.0</ele><time>2026-04-19T09:40:00Z</time></trkpt><trkpt lat="37.953011573128165" lon="15.375938635466651"><ele>12.0</ele><time>2026-04-19T09:40:01Z</time></trkpt><trkpt lat="37.953096558578636" lon="15.376000050265757"><ele>12.0</ele><time>2026-04-19T09:40:02Z</time></trkpt><trkpt lat="37.95319336422391" lon="15.376070006984419"><ele>12.0</ele><time>2026-04-19T09:40:03Z</time></trkpt><trkpt lat="37.95329555650736" lon="15.376143856425411"><ele>12.0</ele><time>2026-04-19T09:40:04Z</time></trkpt><trkpt lat="37.9533858355499" lon="15.376208896389176"><ele>12.142857142857142</ele><time>2026-04-19T09:40:05Z</time></trkpt><trkpt lat="37.95346402671805" lon="15.376265022847596"><ele>12.285714285714285</ele><time>2026-04-19T09:40:06Z</time></trkpt><trkpt lat="37.95354069815626" lon="15.376288308905107"><ele>12.428571428571427</ele><time>2026-04-19T09:40:07Z</time></trkpt><trkpt lat="37.95359989406555" lon="15.376326477929675"><ele>12.571428571428571</ele><time>2026-04-19T09:40:08Z</time></trkpt><trkpt lat="37.953645440070446" lon="15.376395243508048"><ele>12.714285714285715</ele><time>2026-04-19T09:40:09Z</time></trkpt><trkpt lat="37.9537022283587" lon="15.376436179514673"><ele>12.857142857142856</ele><time>2026-04-19T09:40:10Z</time></trkpt><trkpt lat="37.953762700638144" lon="15.376480072628288"><ele>13.0</ele><time>2026-04-19T09:40:12Z</time></trkpt><trkpt lat="37.95381729924449" lon="15.376398265353892"><ele>13.0</ele><time>2026-04-19T09:40:19Z</time></trkpt><trkpt lat="37.95388149566325" lon="15.376439867381835"><ele>13.0</ele><time>2026-04-19T09:41:20Z</time></trkpt><trkpt lat="37.953908955992695" lon="15.376367275467475"><ele>13.0</ele><time>2026-04-19T09:41:35Z</time></trkpt><trkpt lat="37.95396749646191" lon="15.376334621780806"><ele>13.0</ele><time>2026-04-19T09:41:57Z</time></trkpt><trkpt lat="37.953951201889495" lon="15.376237422325074"><ele>13.0</ele><time>2026-04-19T09:43:40Z</time></trkpt><trkpt lat="37.95394544368907" lon="15.376341486867789"><ele>13.0</ele><time>2026-04-19T09:44:48Z</time></trkpt><trkpt lat="37.95397207452116" lon="15.376269036675119"><ele>13.0</ele><time>2026-04-19T09:45:49Z</time></trkpt><trkpt lat="37.954015707163194" lon="15.376203051809547"><ele>12.999999999999998</ele><time>2026-04-19T09:45:57Z</time></trkpt><trkpt lat="37.95395702470695" lon="15.376334511048526"><ele>13.0</ele><time>2026-04-19T09:46:03Z</time></trkpt><trkpt lat="37.95389901203478" lon="15.376377004835948"><ele>13.0</ele><time>2026-04-19T09:46:43Z</time></trkpt><trkpt lat="37.953836137652566" lon="15.376362051594018"><ele>13.0</ele><time>2026-04-19T09:46:53Z</time></trkpt><trkpt lat="37.95383804774612" lon="15.376468843059689"><ele>12.999999999999998</ele><time>2026-04-19T09:48:53Z</time></trkpt><trkpt lat="37.95391437754974" lon="15.376510434655243"><ele>13.0</ele><time>2026-04-19T09:48:54Z</time></trkpt><trkpt lat="37.954000815856226" lon="15.376557840671433"><ele>12.25</ele><time>2026-04-19T09:48:55Z</time></trkpt><trkpt lat="37.95409542538855" lon="15.37662211373"><ele>11.5</ele><time>2026-04-19T09:48:56Z</time></trkpt><trkpt lat="37.95417948857635" lon="15.376780607022058"><ele>10.75</ele><time>2026-04-19T09:48:57Z</time></trkpt><trkpt lat="37.954349745927054" lon="15.376821312939436"><ele>10.0</ele><time>2026-04-19T09:48:58Z</time></trkpt><trkpt lat="37.954517429489776" lon="15.37693979086678"><ele>10.0</ele><time>2026-04-19T09:48:59Z</time></trkpt><trkpt lat="37.95469509961891" lon="15.377068825505026"><ele>10.0</ele><time>2026-04-19T09:49:00Z</time></trkpt><trkpt lat="37.95484198032549" lon="15.377178332776554"><ele>10.0</ele><time>2026-04-19T09:49:01Z</time></trkpt><trkpt lat="37.954966770932" lon="15.377281137885376"><ele>10.5</ele><time>2026-04-19T09:49:02Z</time></trkpt><trkpt lat="37.95508133949276" lon="15.377375091095374"><ele>11.0</ele><time>2026-04-19T09:49:03Z</time></trkpt><trkpt lat="37.95518919228354" lon="15.377454309750293"><ele>11.5</ele><time>2026-04-19T09:49:04Z</time></trkpt><trkpt lat="37.955290299796694" lon="15.377520550547928"><ele>12.0</ele><time>2026-04-19T09:49:05Z</time></trkpt><trkpt lat="37.9553817476933" lon="15.377578152613331"><ele>12.0</ele><time>2026-04-19T09:49:06Z</time></trkpt><trkpt lat="37.95545879133848" lon="15.377640873054027"><ele>12.0</ele><time>2026-04-19T09:49:07Z</time></trkpt><trkpt lat="37.95552736319428" lon="15.377703338412582"><ele>12.0</ele><time>2026-04-19T09:49:08Z</time></trkpt><trkpt lat="37.955593974703994" lon="15.37775775604214"><ele>12.0</ele><time>2026-04-19T09:49:09Z</time></trkpt><trkpt lat="37.95565619969504" lon="15.37781290560077"><ele>12.0</ele><time>2026-04-19T09:49:10Z</time></trkpt><trkpt lat="37.95572120400916" lon="15.37786593686303"><ele>12.0</ele><time>2026-04-19T09:49:11Z</time></trkpt><trkpt lat="37.9557912400441" lon="15.37791092206464"><ele>12.0</ele><time>2026-04-19T09:49:12Z</time></trkpt><trkpt lat="37.95586757065842" lon="15.377904277141937"><ele>12.0</ele><time>2026-04-19T09:49:13Z</time></trkpt><trkpt lat="37.95593459701257" lon="15.377833321288449"><ele>12.0</ele><time>2026-04-19T09:49:14Z</time></trkpt><trkpt lat="37.95598569261344" lon="15.377726323093231"><ele>12.0</ele><time>2026-04-19T09:49:15Z</time></trkpt><trkpt lat="37.95603113493929" lon="15.377580774240128"><ele>12.0</ele><time>2026-04-19T09:49:16Z</time></trkpt><trkpt lat="37.956093861177976" lon="15.377451376871718"><ele>12.0</ele><time>2026-04-19T09:49:17Z</time></trkpt><trkpt lat="37.95616428077243" lon="15.377312326350296"><ele>12.0</ele><time>2026-04-19T09:49:18Z</time></trkpt><trkpt lat="37.956241504256724" lon="15.377164012986878"><ele>12.0</ele><time>2026-04-19T09:49:19Z</time></trkpt><trkpt lat="37.95633423943928" lon="15.377036561573815"><ele>12.0</ele><time>2026-04-19T09:49:20Z</time></trkpt><trkpt lat="37.956437649816266" lon="15.37694044466935"><ele>12.0</ele><time>2026-04-19T09:49:21Z</time></trkpt><trkpt lat="37.95656455366712" lon="15.37688743891619"><ele>12.0</ele><time>2026-04-19T09:49:22Z</time></trkpt><trkpt lat="37.95670359348801" lon="15.376854094421475"><ele>12.0</ele><time>2026-04-19T09:49:23Z</time></trkpt><trkpt lat="37.95685058661677" lon="15.376731757734152"><ele>12.0</ele><time>2026-04-19T09:49:24Z</time></trkpt><trkpt lat="37.95699738735699" lon="15.376564200074833"><ele>12.0</ele><time>2026-04-19T09:49:25Z</time></trkpt><trkpt lat="37.957136183586854" lon="15.376385068087455"><ele>12.0</ele><time>2026-04-19T09:49:26Z</time></trkpt><trkpt lat="37.9572554506865" lon="15.376224596685597"><ele>12.75</ele><time>2026-04-19T09:49:27Z</time></trkpt><trkpt lat="37.9573656886065" lon="15.376092867150978"><ele>13.5</ele><time>2026-04-19T09:49:28Z</time></trkpt><trkpt lat="37.95746433037134" lon="15.375982758604243"><ele>14.25</ele><time>2026-04-19T09:49:29Z</time></trkpt><trkpt lat="37.95755330550842" lon="15.375882309323194"><ele>15.0</ele><time>2026-04-19T09:49:30Z</time></trkpt><trkpt lat="37.95763650051226" lon="15.375796032634307"><ele>15.0</ele><time>2026-04-19T09:49:31Z</time></trkpt><trkpt lat="37.957716378521454" lon="15.375736573514008"><ele>15.0</ele><time>2026-04-19T09:49:32Z</time></trkpt><trkpt lat="37.95779493077944" lon="15.375711473987089"><ele>15.0</ele><time>2026-04-19T09:49:33Z</time></trkpt><trkpt lat="37.95788187178318" lon="15.375693906255158"><ele>15.0</ele><time>2026-04-19T09:49:34Z</time></trkpt><trkpt lat="37.95797947843979" lon="15.375708819597325"><ele>15.0</ele><time>2026-04-19T09:49:35Z</time></trkpt><trkpt lat="37.95808222883661" lon="15.37575315429605"><ele>15.0</ele><time>2026-04-19T09:49:36Z</time></trkpt><trkpt lat="37.95819325222061" lon="15.375821235185585"><ele>15.0</ele><time>2026-04-19T09:49:37Z</time></trkpt><trkpt lat="37.95829045661304" lon="15.375948813473329"><ele>15.0</ele><time>2026-04-19T09:49:38Z</time></trkpt><trkpt lat="37.95841680195684" lon="15.37605862437712"><ele>15.0</ele><time>2026-04-19T09:49:39Z</time></trkpt><trkpt lat="37.95855248480005" lon="15.376171562287745"><ele>15.25</ele><time>2026-04-19T09:49:40Z</time></trkpt><trkpt lat="37.95868320874778" lon="15.37628086428559"><ele>15.5</ele><time>2026-04-19T09:49:41Z</time></trkpt><trkpt lat="37.958799280867" lon="15.376378007994548"><ele>15.75</ele><time>2026-04-19T09:49:42Z</time></trkpt><trkpt lat="37.958895118190284" lon="15.376458285317806"><ele>16.0</ele><time>2026-04-19T09:49:43Z</time></trkpt><trkpt lat="37.95895313246402" lon="15.376510551676546"><ele>16.0</ele><time>2026-04-19T09:49:44Z</time></trkpt><trkpt lat="37.95904257081782" lon="15.376586044316946"><ele>16.0</ele><time>2026-04-19T09:49:46Z</time></trkpt><trkpt lat="37.95912070962291" lon="15.37672389292077"><ele>16.0</ele><time>2026-04-19T09:49:48Z</time></trkpt><trkpt lat="37.959143308514555" lon="15.376843211994077"><ele>16.0</ele><time>2026-04-19T09:49:49Z</time></trkpt><trkpt lat="37.959162176441474" lon="15.376981855532593"><ele>16.0</ele><time>2026-04-19T09:49:50Z</time></trkpt><trkpt lat="37.95915626129239" lon="15.377134244155268"><ele>15.75</ele><time>2026-04-19T09:49:51Z</time></trkpt><trkpt lat="37.95913858286616" lon="15.37730304045921"><ele>15.5</ele><time>2026-04-19T09:49:52Z</time></trkpt><trkpt lat="37.95910411393264" lon="15.377459951226449"><ele>15.25</ele><time>2026-04-19T09:49:53Z</time></trkpt><trkpt lat="37.95906284120494" lon="15.377621233732143"><ele>15.0</ele><time>2026-04-19T09:49:54.001Z</time></trkpt><trkpt lat="37.95902134590758" lon="15.377782206553437"><ele>15.0</ele><time>2026-04-19T09:49:55.001Z</time></trkpt><trkpt lat="37.95899185921671" lon="15.377939247529781"><ele>15.0</ele><time>2026-04-19T09:49:56.001Z</time></trkpt><trkpt lat="37.95894875522658" lon="15.378081324594376"><ele>15.0</ele><time>2026-04-19T09:49:57.001Z</time></trkpt><trkpt lat="37.95891153194422" lon="15.378217602063696"><ele>15.0</ele><time>2026-04-19T09:49:58.001Z</time></trkpt><trkpt lat="37.95887553865103" lon="15.378340014872965"><ele>14.833333333333334</ele><time>2026-04-19T09:49:59.001Z</time></trkpt><trkpt lat="37.95884498168502" lon="15.378449133689546"><ele>14.666666666666668</ele><time>2026-04-19T09:50:00.001Z</time></trkpt><trkpt lat="37.958809226567105" lon="15.378548209895541"><ele>14.5</ele><time>2026-04-19T09:50:01.001Z</time></trkpt><trkpt lat="37.95877627114688" lon="15.37864151866773"><ele>14.333333333333334</ele><time>2026-04-19T09:50:02.001Z</time></trkpt><trkpt lat="37.958739571266264" lon="15.378722207730762"><ele>14.166666666666668</ele><time>2026-04-19T09:50:03.001Z</time></trkpt><trkpt lat="37.95869022348022" lon="15.378784888849117"><ele>14.0</ele><time>2026-04-19T09:50:04.001Z</time></trkpt><trkpt lat="37.95863933363222" lon="15.378835171994305"><ele>14.2</ele><time>2026-04-19T09:50:05.001Z</time></trkpt><trkpt lat="37.958561879755464" lon="15.378944645573222"><ele>14.399999999999999</ele><time>2026-04-19T09:50:07.001Z</time></trkpt><trkpt lat="37.958474217557736" lon="15.378942971397812"><ele>14.6</ele><time>2026-04-19T09:50:08.001Z</time></trkpt><trkpt lat="37.95842767695732" lon="15.379020904789545"><ele>14.8</ele><time>2026-04-19T09:50:09.001Z</time></trkpt><trkpt lat="37.95837582003006" lon="15.379109478685972"><ele>15.0</ele><time>2026-04-19T09:50:10.001Z</time></trkpt><trkpt lat="37.95830968036541" lon="15.379235927670464"><ele>14.5</ele><time>2026-04-19T09:50:11.001Z</time></trkpt><trkpt lat="37.958242667634835" lon="15.379380043399285"><ele>14.0</ele><time>2026-04-19T09:50:12.001Z</time></trkpt><trkpt lat="37.958182073667146" lon="15.379508305689464"><ele>13.5</ele><time>2026-04-19T09:50:13.001Z</time></trkpt><trkpt lat="37.958120670122284" lon="15.37963734144213"><ele>13.0</ele><time>2026-04-19T09:50:14.001Z</time></trkpt><trkpt lat="37.95807479073176" lon="15.379746396956932"><ele>13.0</ele><time>2026-04-19T09:50:15Z</time></trkpt><trkpt lat="37.958070690477" lon="15.379890663724973"><ele>13.0</ele><time>2026-04-19T09:50:16Z</time></trkpt><trkpt lat="37.95812257927795" lon="15.380031161542052"><ele>13.0</ele><time>2026-04-19T09:50:17Z</time></trkpt><trkpt lat="37.95820646595676" lon="15.380157981578657"><ele>13.0</ele><time>2026-04-19T09:50:18Z</time></trkpt><trkpt lat="37.95828350151948" lon="15.380273534909604"><ele>13.0</ele><time>2026-04-19T09:50:19Z</time></trkpt><trkpt lat="37.95836630952331" lon="15.380397030089947"><ele>13.0</ele><time>2026-04-19T09:50:20Z</time></trkpt><trkpt lat="37.95846090758257" lon="15.380533790826512"><ele>13.0</ele><time>2026-04-19T09:50:21Z</time></trkpt><trkpt lat="37.95856060306696" lon="15.380670172297405"><ele>13.0</ele><time>2026-04-19T09:50:22Z</time></trkpt><trkpt lat="37.958664620966736" lon="15.38080198293104"><ele>12.5</ele><time>2026-04-19T09:50:23Z</time></trkpt><trkpt lat="37.958769163237015" lon="15.38092612047313"><ele>12.0</ele><time>2026-04-19T09:50:24Z</time></trkpt><trkpt lat="37.958875909603165" lon="15.38104106841397"><ele>11.5</ele><time>2026-04-19T09:50:25Z</time></trkpt><trkpt lat="37.95897034140859" lon="15.381136026768528"><ele>11.0</ele><time>2026-04-19T09:50:26Z</time></trkpt><trkpt lat="37.95905650404407" lon="15.381220324899013"><ele>11.0</ele><time>2026-04-19T09:50:27Z</time></trkpt><trkpt lat="37.95913607404158" lon="15.381298172943707"><ele>11.0</ele><time>2026-04-19T09:50:28Z</time></trkpt><trkpt lat="37.95920981851524" lon="15.381370321451769"><ele>11.0</ele><time>2026-04-19T09:50:29Z</time></trkpt><trkpt lat="37.95928132755299" lon="15.381440282993918"><ele>11.0</ele><time>2026-04-19T09:50:30Z</time></trkpt><trkpt lat="37.95935982561158" lon="15.381517081403107"><ele>11.0</ele><time>2026-04-19T09:50:31Z</time></trkpt><trkpt lat="37.95944458671903" lon="15.381599624234523"><ele>11.4</ele><time>2026-04-19T09:50:32Z</time></trkpt><trkpt lat="37.959537635205876" lon="15.38169033955743"><ele>11.8</ele><time>2026-04-19T09:50:33Z</time></trkpt><trkpt lat="37.95963757980198" lon="15.381787778002058"><ele>12.200000000000001</ele><time>2026-04-19T09:50:34Z</time></trkpt><trkpt lat="37.95973011778199" lon="15.381877995683741"><ele>12.600000000000001</ele><time>2026-04-19T09:50:35Z</time></trkpt><trkpt lat="37.959796427849845" lon="15.381942642149149"><ele>13.0</ele><time>2026-04-19T09:50:36Z</time></trkpt><trkpt lat="37.95986211735771" lon="15.382006346385253"><ele>13.0</ele><time>2026-04-19T09:50:37Z</time></trkpt><trkpt lat="37.959930842184185" lon="15.38207310227101"><ele>13.0</ele><time>2026-04-19T09:50:38Z</time></trkpt><trkpt lat="37.96000910513355" lon="15.382149623192657"><ele>13.0</ele><time>2026-04-19T09:50:39Z</time></trkpt><trkpt lat="37.96009563887839" lon="15.38223326047794"><ele>13.0</ele><time>2026-04-19T09:50:40Z</time></trkpt><trkpt lat="37.960184943494646" lon="15.382321061455581"><ele>13.0</ele><time>2026-04-19T09:50:41Z</time></trkpt><trkpt lat="37.960279282046564" lon="15.382413626755506"><ele>13.25</ele><time>2026-04-19T09:50:42Z</time></trkpt><trkpt lat="37.960377376439425" lon="15.382509878338746"><ele>13.5</ele><time>2026-04-19T09:50:43Z</time></trkpt><trkpt lat="37.960487884326284" lon="15.382594832117695"><ele>13.75</ele><time>2026-04-19T09:50:44Z</time></trkpt><trkpt lat="37.960589979681565" lon="15.382699485482025"><ele>14.0</ele><time>2026-04-19T09:50:45Z</time></trkpt><trkpt lat="37.96069568091545" lon="15.382806685370616"><ele>14.0</ele><time>2026-04-19T09:50:46Z</time></trkpt><trkpt lat="37.96080788341077" lon="15.38291343996407"><ele>14.0</ele><time>2026-04-19T09:50:47Z</time></trkpt><trkpt lat="37.960918921883525" lon="15.383024955671388"><ele>14.0</ele><time>2026-04-19T09:50:48Z</time></trkpt><trkpt lat="37.96103132968" lon="15.383138438896948"><ele>14.0</ele><time>2026-04-19T09:50:49Z</time></trkpt><trkpt lat="37.96114335748354" lon="15.38325031796093"><ele>13.399999999999999</ele><time>2026-04-19T09:50:50Z</time></trkpt><trkpt lat="37.961247872516125" lon="15.383344512686898"><ele>12.799999999999999</ele><time>2026-04-19T09:50:51Z</time></trkpt><trkpt lat="37.96132878289613" lon="15.383437831033"><ele>12.2</ele><time>2026-04-19T09:50:52Z</time></trkpt><trkpt lat="37.96140682972286" lon="15.383513761053754"><ele>11.600000000000001</ele><time>2026-04-19T09:50:53Z</time></trkpt><trkpt lat="37.96148526626917" lon="15.383591046506742"><ele>11.0</ele><time>2026-04-19T09:50:54Z</time></trkpt><trkpt lat="37.96157140606861" lon="15.383674056900375"><ele>11.0</ele><time>2026-04-19T09:50:55Z</time></trkpt><trkpt lat="37.96167201332074" lon="15.383772391818807"><ele>11.0</ele><time>2026-04-19T09:50:56Z</time></trkpt><trkpt lat="37.96178529802453" lon="15.383883155900286"><ele>11.0</ele><time>2026-04-19T09:50:57Z</time></trkpt><trkpt lat="37.96190594212073" lon="15.384001257416381"><ele>11.0</ele><time>2026-04-19T09:50:58Z</time></trkpt><trkpt lat="37.962024566356405" lon="15.384117381638069"><ele>12.0</ele><time>2026-04-19T09:50:59Z</time></trkpt><trkpt lat="37.96212787880824" lon="15.384218518602347"><ele>13.0</ele><time>2026-04-19T09:51:00Z</time></trkpt><trkpt lat="37.9622262780178" lon="15.384308557392522"><ele>14.0</ele><time>2026-04-19T09:51:01Z</time></trkpt><trkpt lat="37.96231578008886" lon="15.384387400989954"><ele>15.0</ele><time>2026-04-19T09:51:02Z</time></trkpt><trkpt lat="37.96239111226152" lon="15.384453167306116"><ele>15.0</ele><time>2026-04-19T09:51:03Z</time></trkpt><trkpt lat="37.96245597895772" lon="15.384508343997195"><ele>15.0</ele><time>2026-04-19T09:51:04Z</time></trkpt><trkpt lat="37.96251893467424" lon="15.384561895217006"><ele>15.0</ele><time>2026-04-19T09:51:05Z</time></trkpt><trkpt lat="37.96257859027706" lon="15.384612408339532"><ele>15.0</ele><time>2026-04-19T09:51:06Z</time></trkpt><trkpt lat="37.962649406492616" lon="15.384671861234132"><ele>15.0</ele><time>2026-04-19T09:51:07Z</time></trkpt><trkpt lat="37.96273797107815" lon="15.38474621460686"><ele>15.0</ele><time>2026-04-19T09:51:08Z</time></trkpt><trkpt lat="37.96283655372425" lon="15.384828978604272"><ele>14.5</ele><time>2026-04-19T09:51:09Z</time></trkpt><trkpt lat="37.96294696096902" lon="15.384920865252397"><ele>14.0</ele><time>2026-04-19T09:51:10Z</time></trkpt><trkpt lat="37.96306488613986" lon="15.385021802070602"><ele>13.5</ele><time>2026-04-19T09:51:11Z</time></trkpt><trkpt lat="37.96319258724663" lon="15.38513205571465"><ele>13.0</ele><time>2026-04-19T09:51:12Z</time></trkpt><trkpt lat="37.963323905977006" lon="15.385247552008554"><ele>13.25</ele><time>2026-04-19T09:51:13Z</time></trkpt><trkpt lat="37.96345851386558" lon="15.385368652505027"><ele>13.5</ele><time>2026-04-19T09:51:14Z</time></trkpt><trkpt lat="37.96357876754907" lon="15.385479795753941"><ele>13.75</ele><time>2026-04-19T09:51:15Z</time></trkpt><trkpt lat="37.9636896555081" lon="15.385571271389477"><ele>14.0</ele><time>2026-04-19T09:51:16.001Z</time></trkpt><trkpt lat="37.963783219459266" lon="15.385675428348659"><ele>13.2</ele><time>2026-04-19T09:51:17.001Z</time></trkpt><trkpt lat="37.963870352711346" lon="15.385746926682994"><ele>12.399999999999999</ele><time>2026-04-19T09:51:18.001Z</time></trkpt><trkpt lat="37.96396014248633" lon="15.385783077497743"><ele>11.6</ele><time>2026-04-19T09:51:19.001Z</time></trkpt><trkpt lat="37.964068576285804" lon="15.385751769596977"><ele>10.8</ele><time>2026-04-19T09:51:20.001Z</time></trkpt><trkpt lat="37.96415463560051" lon="15.385647280211064"><ele>10.0</ele><time>2026-04-19T09:51:21.001Z</time></trkpt><trkpt lat="37.964214353664296" lon="15.385514841361879"><ele>10.75</ele><time>2026-04-19T09:51:22.001Z</time></trkpt><trkpt lat="37.96427515270008" lon="15.38536435903249"><ele>11.5</ele><time>2026-04-19T09:51:23.001Z</time></trkpt><trkpt lat="37.964341446325946" lon="15.385199299811903"><ele>12.25</ele><time>2026-04-19T09:51:24.001Z</time></trkpt><trkpt lat="37.964423369391525" lon="15.385023745207237"><ele>13.0</ele><time>2026-04-19T09:51:25.001Z</time></trkpt><trkpt lat="37.964498607148336" lon="15.3848142794749"><ele>14.25</ele><time>2026-04-19T09:51:26.001Z</time></trkpt><trkpt lat="37.96460957000011" lon="15.384637978636688"><ele>15.5</ele><time>2026-04-19T09:51:27.001Z</time></trkpt><trkpt lat="37.9647046613816" lon="15.384500835580507"><ele>16.75</ele><time>2026-04-19T09:51:28.001Z</time></trkpt><trkpt lat="37.964770837451496" lon="15.384385098691293"><ele>18.0</ele><time>2026-04-19T09:51:29.001Z</time></trkpt><trkpt lat="37.96482533847969" lon="15.384297389447598"><ele>18.0</ele><time>2026-04-19T09:51:30.001Z</time></trkpt><trkpt lat="37.9648496645443" lon="15.384212791694809"><ele>18.0</ele><time>2026-04-19T09:51:31.001Z</time></trkpt><trkpt lat="37.96483234707701" lon="15.384132561237099"><ele>18.0</ele><time>2026-04-19T09:51:32.001Z</time></trkpt><trkpt lat="37.964735802703984" lon="15.384020389107981"><ele>18.0</ele><time>2026-04-19T09:51:34.001Z</time></trkpt><trkpt lat="37.9646564181878" lon="15.383989495940384"><ele>18.0</ele><time>2026-04-19T09:51:35.001Z</time></trkpt><trkpt lat="37.96458164227324" lon="15.383962724637652"><ele>18.0</ele><time>2026-04-19T09:51:36.001Z</time></trkpt><trkpt lat="37.9645252005131" lon="15.383920208007511"><ele>18.0</ele><time>2026-04-19T09:51:37.001Z</time></trkpt><trkpt lat="37.96448118956511" lon="15.383862781021818"><ele>18.0</ele><time>2026-04-19T09:51:38.001Z</time></trkpt><trkpt lat="37.96445479191131" lon="15.38370325897871"><ele>18.0</ele><time>2026-04-19T09:51:40.001Z</time></trkpt><trkpt lat="37.9644931654117" lon="15.383612270857073"><ele>18.0</ele><time>2026-04-19T09:51:41.001Z</time></trkpt><trkpt lat="37.96456552320682" lon="15.383535342649386"><ele>18.0</ele><time>2026-04-19T09:51:42.001Z</time></trkpt><trkpt lat="37.96466480188548" lon="15.383494055462254"><ele>18.6</ele><time>2026-04-19T09:51:43.001Z</time></trkpt><trkpt lat="37.96475680868772" lon="15.38346726720157"><ele>19.200000000000003</ele><time>2026-04-19T09:51:44.001Z</time></trkpt><trkpt lat="37.9648559198951" lon="15.383463050772432"><ele>19.8</ele><time>2026-04-19T09:51:45.001Z</time></trkpt><trkpt lat="37.964965157491235" lon="15.383491670550825"><ele>20.400000000000002</ele><time>2026-04-19T09:51:46.001Z</time></trkpt><trkpt lat="37.96509111353016" lon="15.383543788066758"><ele>21.0</ele><time>2026-04-19T09:51:47.001Z</time></trkpt><trkpt lat="37.965229393377285" lon="15.383635095340598"><ele>21.0</ele><time>2026-04-19T09:51:48.001Z</time></trkpt><trkpt lat="37.96537455210754" lon="15.383696951726884"><ele>21.0</ele><time>2026-04-19T09:51:49.001Z</time></trkpt><trkpt lat="37.96550590059799" lon="15.383768680766984"><ele>21.0</ele><time>2026-04-19T09:51:50.001Z</time></trkpt><trkpt lat="37.96562784398343" lon="15.383832471327025"><ele>21.0</ele><time>2026-04-19T09:51:51.001Z</time></trkpt><trkpt lat="37.96573783264807" lon="15.383888816169534"><ele>20.75</ele><time>2026-04-19T09:51:52.001Z</time></trkpt><trkpt lat="37.96585009094327" lon="15.383946357456278"><ele>20.5</ele><time>2026-04-19T09:51:53.001Z</time></trkpt><trkpt lat="37.96596088465055" lon="15.38399937547502"><ele>20.25</ele><time>2026-04-19T09:51:54.001Z</time></trkpt><trkpt lat="37.966066419885586" lon="15.38405247461446"><ele>20.0</ele><time>2026-04-19T09:51:55.001Z</time></trkpt><trkpt lat="37.96616121204915" lon="15.384108560289246"><ele>20.0</ele><time>2026-04-19T09:51:56.001Z</time></trkpt><trkpt lat="37.966240012387814" lon="15.384202933570803"><ele>20.0</ele><time>2026-04-19T09:51:57.001Z</time></trkpt><trkpt lat="37.966306915330684" lon="15.384333684026956"><ele>20.0</ele><time>2026-04-19T09:51:58.001Z</time></trkpt><trkpt lat="37.96633788979738" lon="15.384510702511761"><ele>20.0</ele><time>2026-04-19T09:51:59.001Z</time></trkpt><trkpt lat="37.96629475119067" lon="15.384701469427176"><ele>20.0</ele><time>2026-04-19T09:52:00.001Z</time></trkpt><trkpt lat="37.96623660602103" lon="15.384877451581639"><ele>20.0</ele><time>2026-04-19T09:52:01.001Z</time></trkpt><trkpt lat="37.96620373327507" lon="15.385061765234568"><ele>20.0</ele><time>2026-04-19T09:52:02.001Z</time></trkpt><trkpt lat="37.9661748186145" lon="15.385230721238385"><ele>20.0</ele><time>2026-04-19T09:52:03.001Z</time></trkpt><trkpt lat="37.966137250478496" lon="15.385394257316383"><ele>19.25</ele><time>2026-04-19T09:52:04.001Z</time></trkpt><trkpt lat="37.96610403640043" lon="15.385545705149502"><ele>18.5</ele><time>2026-04-19T09:52:05.001Z</time></trkpt><trkpt lat="37.966075239984036" lon="15.385689777173551"><ele>17.75</ele><time>2026-04-19T09:52:06.001Z</time></trkpt><trkpt lat="37.96606435817335" lon="15.385840093465069"><ele>17.0</ele><time>2026-04-19T09:52:07.001Z</time></trkpt><trkpt lat="37.966064828799375" lon="15.385955718087429"><ele>17.0</ele><time>2026-04-19T09:52:08.001Z</time></trkpt><trkpt lat="37.96608163293333" lon="15.386053090174702"><ele>17.0</ele><time>2026-04-19T09:52:09.001Z</time></trkpt><trkpt lat="37.966103963895165" lon="15.386150886585781"><ele>17.0</ele><time>2026-04-19T09:52:10.001Z</time></trkpt><trkpt lat="37.966130986577596" lon="15.38625282486318"><ele>17.0</ele><time>2026-04-19T09:52:11.001Z</time></trkpt><trkpt lat="37.96614024245612" lon="15.386362780989607"><ele>17.0</ele><time>2026-04-19T09:52:12.001Z</time></trkpt><trkpt lat="37.966095413619826" lon="15.386463971137903"><ele>17.0</ele><time>2026-04-19T09:52:13.001Z</time></trkpt><trkpt lat="37.966049931765546" lon="15.386621573241113"><ele>16.25</ele><time>2026-04-19T09:52:14.001Z</time></trkpt><trkpt lat="37.96599335243059" lon="15.386797609987562"><ele>15.5</ele><time>2026-04-19T09:52:15.001Z</time></trkpt><trkpt lat="37.96595023051494" lon="15.386939742125218"><ele>14.75</ele><time>2026-04-19T09:52:16.001Z</time></trkpt><trkpt lat="37.96591917166464" lon="15.387054364087199"><ele>14.0</ele><time>2026-04-19T09:52:17.001Z</time></trkpt><trkpt lat="37.96588949083288" lon="15.387185677848526"><ele>13.75</ele><time>2026-04-19T09:52:19.001Z</time></trkpt><trkpt lat="37.965960419101044" lon="15.387351992922879"><ele>13.5</ele><time>2026-04-19T09:52:21.001Z</time></trkpt><trkpt lat="37.966042148557136" lon="15.387426523602258"><ele>13.25</ele><time>2026-04-19T09:52:22.001Z</time></trkpt><trkpt lat="37.966152901099036" lon="15.387471612675704"><ele>13.0</ele><time>2026-04-19T09:52:23.001Z</time></trkpt><trkpt lat="37.9662576586112" lon="15.38755737378592"><ele>13.0</ele><time>2026-04-19T09:52:24.001Z</time></trkpt><trkpt lat="37.9663770637702" lon="15.387665860693321"><ele>13.0</ele><time>2026-04-19T09:52:25.001Z</time></trkpt><trkpt lat="37.96650394430306" lon="15.387781612020214"><ele>13.0</ele><time>2026-04-19T09:52:26.001Z</time></trkpt><trkpt lat="37.96664003321312" lon="15.387905242709078"><ele>12.666666666666666</ele><time>2026-04-19T09:52:27.001Z</time></trkpt><trkpt lat="37.966785123218045" lon="15.388035748504471"><ele>12.333333333333332</ele><time>2026-04-19T09:52:28.001Z</time></trkpt><trkpt lat="37.96694612959993" lon="15.388180537072937"><ele>12.0</ele><time>2026-04-19T09:52:29.001Z</time></trkpt><trkpt lat="37.96712554531805" lon="15.388344557972122"><ele>12.0</ele><time>2026-04-19T09:52:30.001Z</time></trkpt><trkpt lat="37.967316846254676" lon="15.388516974922199"><ele>12.0</ele><time>2026-04-19T09:52:31.001Z</time></trkpt><trkpt lat="37.96748190426157" lon="15.38866400125834"><ele>12.0</ele><time>2026-04-19T09:52:32.001Z</time></trkpt><trkpt lat="37.96762842079233" lon="15.388797772713517"><ele>11.666666666666666</ele><time>2026-04-19T09:52:33Z</time></trkpt><trkpt lat="37.96776295435086" lon="15.388924498301911"><ele>11.333333333333332</ele><time>2026-04-19T09:52:34Z</time></trkpt><trkpt lat="37.96789085891908" lon="15.389041035748795"><ele>11.0</ele><time>2026-04-19T09:52:35Z</time></trkpt><trkpt lat="37.96801629475512" lon="15.38915509653729"><ele>11.0</ele><time>2026-04-19T09:52:36Z</time></trkpt><trkpt lat="37.96812452032939" lon="15.389298777563344"><ele>11.0</ele><time>2026-04-19T09:52:37Z</time></trkpt><trkpt lat="37.96825001555337" lon="15.389415623096989"><ele>11.0</ele><time>2026-04-19T09:52:38Z</time></trkpt><trkpt lat="37.96837160084659" lon="15.389527239789562"><ele>11.0</ele><time>2026-04-19T09:52:39Z</time></trkpt><trkpt lat="37.968490074151724" lon="15.38963599978126"><ele>11.0</ele><time>2026-04-19T09:52:40Z</time></trkpt><trkpt lat="37.968606598246254" lon="15.389743706726525"><ele>11.0</ele><time>2026-04-19T09:52:41Z</time></trkpt><trkpt lat="37.96872120574222" lon="15.389849956978418"><ele>11.0</ele><time>2026-04-19T09:52:42Z</time></trkpt><trkpt lat="37.968838254795855" lon="15.389958468848954"><ele>11.0</ele><time>2026-04-19T09:52:43Z</time></trkpt><trkpt lat="37.968961981002224" lon="15.390075282368088"><ele>11.0</ele><time>2026-04-19T09:52:44Z</time></trkpt><trkpt lat="37.96909176414204" lon="15.390196540898657"><ele>11.0</ele><time>2026-04-19T09:52:45Z</time></trkpt><trkpt lat="37.96921821795762" lon="15.390313833860624"><ele>11.0</ele><time>2026-04-19T09:52:46Z</time></trkpt><trkpt lat="37.96933326090428" lon="15.390420542653205"><ele>11.0</ele><time>2026-04-19T09:52:47Z</time></trkpt><trkpt lat="37.96943743853075" lon="15.390517370239586"><ele>11.0</ele><time>2026-04-19T09:52:48Z</time></trkpt><trkpt lat="37.96953917748406" lon="15.390612319662736"><ele>11.0</ele><time>2026-04-19T09:52:49Z</time></trkpt><trkpt lat="37.9696298820855" lon="15.390696971156114"><ele>11.0</ele><time>2026-04-19T09:52:50Z</time></trkpt><trkpt lat="37.96970645869328" lon="15.390768437372717"><ele>11.0</ele><time>2026-04-19T09:52:51.001Z</time></trkpt><trkpt lat="37.96976962358081" lon="15.39082738690869"><ele>11.0</ele><time>2026-04-19T09:52:52.001Z</time></trkpt><trkpt lat="37.9698453842214" lon="15.390898094118773"><ele>11.0</ele><time>2026-04-19T09:52:54.001Z</time></trkpt><trkpt lat="37.969936623749774" lon="15.390982710821874"><ele>11.0</ele><time>2026-04-19T09:52:56.001Z</time></trkpt><trkpt lat="37.96999457488002" lon="15.391036910825271"><ele>11.200000000000001</ele><time>2026-04-19T09:52:57.001Z</time></trkpt><trkpt lat="37.970061844879815" lon="15.391100705764455"><ele>11.4</ele><time>2026-04-19T09:52:58.001Z</time></trkpt><trkpt lat="37.97014126939719" lon="15.391176027243578"><ele>11.6</ele><time>2026-04-19T09:52:59.001Z</time></trkpt><trkpt lat="37.970231714647355" lon="15.391262142589008"><ele>11.8</ele><time>2026-04-19T09:53:00.001Z</time></trkpt><trkpt lat="37.97033418755336" lon="15.391359374817084"><ele>12.0</ele><time>2026-04-19T09:53:01.001Z</time></trkpt><trkpt lat="37.970447507986954" lon="15.391466899863179"><ele>12.0</ele><time>2026-04-19T09:53:02.001Z</time></trkpt><trkpt lat="37.970570181188464" lon="15.391583299265461"><ele>12.0</ele><time>2026-04-19T09:53:03.001Z</time></trkpt><trkpt lat="37.97070241462367" lon="15.39170887392304"><ele>12.0</ele><time>2026-04-19T09:53:04.001Z</time></trkpt><trkpt lat="37.97084619687216" lon="15.391844688233142"><ele>11.666666666666666</ele><time>2026-04-19T09:53:05.001Z</time></trkpt><trkpt lat="37.97101159280617" lon="15.392000555710132"><ele>11.333333333333332</ele><time>2026-04-19T09:53:06.001Z</time></trkpt><trkpt lat="37.971196699849806" lon="15.392175394479803"><ele>11.0</ele><time>2026-04-19T09:53:07.001Z</time></trkpt><trkpt lat="37.971367267959636" lon="15.392337142312119"><ele>11.0</ele><time>2026-04-19T09:53:08.001Z</time></trkpt><trkpt lat="37.971525209865725" lon="15.392486916934093"><ele>11.0</ele><time>2026-04-19T09:53:09.001Z</time></trkpt><trkpt lat="37.971682600931075" lon="15.392636169993605"><ele>11.0</ele><time>2026-04-19T09:53:10.001Z</time></trkpt><trkpt lat="37.97184457873176" lon="15.39279013135836"><ele>10.666666666666666</ele><time>2026-04-19T09:53:11.001Z</time></trkpt><trkpt lat="37.97202916542094" lon="15.392942677394382"><ele>10.333333333333334</ele><time>2026-04-19T09:53:12.001Z</time></trkpt><trkpt lat="37.97219873496003" lon="15.393124877757408"><ele>10.0</ele><time>2026-04-19T09:53:13.001Z</time></trkpt><trkpt lat="37.972358431791754" lon="15.393246205930005"><ele>10.0</ele><time>2026-04-19T09:53:14.001Z</time></trkpt><trkpt lat="37.97250077537168" lon="15.39337905796414"><ele>10.0</ele><time>2026-04-19T09:53:15.001Z</time></trkpt><trkpt lat="37.97263781535439" lon="15.393496364740875"><ele>10.0</ele><time>2026-04-19T09:53:16.001Z</time></trkpt><trkpt lat="37.97276648665838" lon="15.393587582739531"><ele>10.5</ele><time>2026-04-19T09:53:17.001Z</time></trkpt><trkpt lat="37.972870083412765" lon="15.393672010343987"><ele>11.0</ele><time>2026-04-19T09:53:18.001Z</time></trkpt><trkpt lat="37.97296158948692" lon="15.393765321069981"><ele>11.5</ele><time>2026-04-19T09:53:19.001Z</time></trkpt><trkpt lat="37.973053609837855" lon="15.393841615668078"><ele>12.0</ele><time>2026-04-19T09:53:20.001Z</time></trkpt><trkpt lat="37.973140677643855" lon="15.39391380417698"><ele>12.0</ele><time>2026-04-19T09:53:21.001Z</time></trkpt><trkpt lat="37.97321979826984" lon="15.393980347134034"><ele>12.0</ele><time>2026-04-19T09:53:22.001Z</time></trkpt><trkpt lat="37.97330510323082" lon="15.394053592723308"><ele>12.0</ele><time>2026-04-19T09:53:23.001Z</time></trkpt><trkpt lat="37.9733888553799" lon="15.394125505124038"><ele>12.0</ele><time>2026-04-19T09:53:24.001Z</time></trkpt><trkpt lat="37.9734741919632" lon="15.394198777483535"><ele>12.0</ele><time>2026-04-19T09:53:25.001Z</time></trkpt><trkpt lat="37.97356552710552" lon="15.394279762113815"><ele>12.75</ele><time>2026-04-19T09:53:26.001Z</time></trkpt><trkpt lat="37.97365773977408" lon="15.39436130305364"><ele>13.5</ele><time>2026-04-19T09:53:27.001Z</time></trkpt><trkpt lat="37.973750395453806" lon="15.394443235657775"><ele>14.25</ele><time>2026-04-19T09:53:28.001Z</time></trkpt><trkpt lat="37.97384470873061" lon="15.394526634015046"><ele>15.0</ele><time>2026-04-19T09:53:29.001Z</time></trkpt><trkpt lat="37.97394233489054" lon="15.394612961841485"><ele>15.25</ele><time>2026-04-19T09:53:30.001Z</time></trkpt><trkpt lat="37.97404314993066" lon="15.394702021834695"><ele>15.5</ele><time>2026-04-19T09:53:31.001Z</time></trkpt><trkpt lat="37.97414619610848" lon="15.394792935037751"><ele>15.75</ele><time>2026-04-19T09:53:32.001Z</time></trkpt><trkpt lat="37.974244152741974" lon="15.394879358054538"><ele>16.0</ele><time>2026-04-19T09:53:33.001Z</time></trkpt><trkpt lat="37.97433855753405" lon="15.394963078684405"><ele>16.0</ele><time>2026-04-19T09:53:34.001Z</time></trkpt><trkpt lat="37.97443284681616" lon="15.39504670465462"><ele>16.0</ele><time>2026-04-19T09:53:35.001Z</time></trkpt><trkpt lat="37.974531758120264" lon="15.395134429903447"><ele>16.0</ele><time>2026-04-19T09:53:36.001Z</time></trkpt><trkpt lat="37.97463222013393" lon="15.395223161706134"><ele>16.0</ele><time>2026-04-19T09:53:37.001Z</time></trkpt><trkpt lat="37.974737213430515" lon="15.395315871724845"><ele>16.0</ele><time>2026-04-19T09:53:38.001Z</time></trkpt><trkpt lat="37.974852683073685" lon="15.395394364561776"><ele>16.0</ele><time>2026-04-19T09:53:39.001Z</time></trkpt><trkpt lat="37.97494156657309" lon="15.395496318451666"><ele>16.0</ele><time>2026-04-19T09:53:40.001Z</time></trkpt><trkpt lat="37.97503142775601" lon="15.395554499452198"><ele>16.0</ele><time>2026-04-19T09:53:41.001Z</time></trkpt><trkpt lat="37.97509826175878" lon="15.395625952369928"><ele>16.0</ele><time>2026-04-19T09:53:42.001Z</time></trkpt><trkpt lat="37.97516768188584" lon="15.395686217946128"><ele>15.666666666666666</ele><time>2026-04-19T09:53:43.001Z</time></trkpt><trkpt lat="37.97523085720561" lon="15.395736741696949"><ele>15.333333333333332</ele><time>2026-04-19T09:53:44.001Z</time></trkpt><trkpt lat="37.97529442130114" lon="15.395783336298297"><ele>15.0</ele><time>2026-04-19T09:53:45.001Z</time></trkpt><trkpt lat="37.97534726258857" lon="15.395833383554807"><ele>14.666666666666668</ele><time>2026-04-19T09:53:46.001Z</time></trkpt><trkpt lat="37.97540157212401" lon="15.395886115323972"><ele>14.333333333333334</ele><time>2026-04-19T09:53:47.001Z</time></trkpt><trkpt lat="37.97546490836197" lon="15.395957851158036"><ele>14.0</ele><time>2026-04-19T09:53:48.001Z</time></trkpt><trkpt lat="37.97554781834997" lon="15.396030418994188"><ele>14.0</ele><time>2026-04-19T09:53:49.001Z</time></trkpt><trkpt lat="37.97564256179169" lon="15.396115757586637"><ele>14.0</ele><time>2026-04-19T09:53:50.001Z</time></trkpt><trkpt lat="37.97575015045375" lon="15.396211655854751"><ele>14.0</ele><time>2026-04-19T09:53:51.001Z</time></trkpt><trkpt lat="37.975875863066534" lon="15.39631410088648"><ele>14.0</ele><time>2026-04-19T09:53:52.001Z</time></trkpt><trkpt lat="37.97601244338568" lon="15.396447659349132"><ele>13.666666666666668</ele><time>2026-04-19T09:53:53.001Z</time></trkpt><trkpt lat="37.97616855589376" lon="15.396603345448652"><ele>13.333333333333332</ele><time>2026-04-19T09:53:54.001Z</time></trkpt><trkpt lat="37.97634240655277" lon="15.396773387531171"><ele>13.0</ele><time>2026-04-19T09:53:55.001Z</time></trkpt><trkpt lat="37.976497582886815" lon="15.396938380204327"><ele>13.0</ele><time>2026-04-19T09:53:56.001Z</time></trkpt><trkpt lat="37.97664265766778" lon="15.397091163101313"><ele>13.0</ele><time>2026-04-19T09:53:57.001Z</time></trkpt><trkpt lat="37.97677761639897" lon="15.397236754625906"><ele>13.0</ele><time>2026-04-19T09:53:58.001Z</time></trkpt><trkpt lat="37.976905923098485" lon="15.397366354812872"><ele>13.0</ele><time>2026-04-19T09:53:59.001Z</time></trkpt><trkpt lat="37.9770153754455" lon="15.397478800982414"><ele>13.0</ele><time>2026-04-19T09:54:00.001Z</time></trkpt><trkpt lat="37.97711113008604" lon="15.397578358421315"><ele>13.0</ele><time>2026-04-19T09:54:01.001Z</time></trkpt><trkpt lat="37.97719677852973" lon="15.397667506071933"><ele>13.0</ele><time>2026-04-19T09:54:02.001Z</time></trkpt><trkpt lat="37.97728263359819" lon="15.397756668034612"><ele>13.0</ele><time>2026-04-19T09:54:03.001Z</time></trkpt><trkpt lat="37.97737022867795" lon="15.39785176290262"><ele>13.0</ele><time>2026-04-19T09:54:04.001Z</time></trkpt><trkpt lat="37.97746714220762" lon="15.39795622985242"><ele>13.0</ele><time>2026-04-19T09:54:05.001Z</time></trkpt><trkpt lat="37.977550962346974" lon="15.398041581912963"><ele>13.0</ele><time>2026-04-19T09:54:06.001Z</time></trkpt><trkpt lat="37.977629389802175" lon="15.398135238442931"><ele>12.8</ele><time>2026-04-19T09:54:08.001Z</time></trkpt><trkpt lat="37.97772154815349" lon="15.398237762206438"><ele>12.600000000000001</ele><time>2026-04-19T09:54:10.001Z</time></trkpt><trkpt lat="37.97779510741004" lon="15.398301916549084"><ele>12.399999999999999</ele><time>2026-04-19T09:54:11.001Z</time></trkpt><trkpt lat="37.97788273936899" lon="15.398369671580568"><ele>12.2</ele><time>2026-04-19T09:54:12.001Z</time></trkpt><trkpt lat="37.97796587430506" lon="15.398433509114298"><ele>12.0</ele><time>2026-04-19T09:54:13.001Z</time></trkpt><trkpt lat="37.978041214516814" lon="15.398488604176482"><ele>12.0</ele><time>2026-04-19T09:54:14.001Z</time></trkpt><trkpt lat="37.97811197321373" lon="15.398538043439212"><ele>12.0</ele><time>2026-04-19T09:54:15.001Z</time></trkpt><trkpt lat="37.97818469766789" lon="15.398591276627139"><ele>12.0</ele><time>2026-04-19T09:54:16.001Z</time></trkpt><trkpt lat="37.97827866208322" lon="15.398650579546507"><ele>12.0</ele><time>2026-04-19T09:54:17.001Z</time></trkpt><trkpt lat="37.97839068789841" lon="15.398747335986526"><ele>12.0</ele><time>2026-04-19T09:54:18.001Z</time></trkpt><trkpt lat="37.978533741391765" lon="15.398832949527629"><ele>12.0</ele><time>2026-04-19T09:54:19.001Z</time></trkpt><trkpt lat="37.97866649421163" lon="15.398949452606077"><ele>12.0</ele><time>2026-04-19T09:54:20.001Z</time></trkpt><trkpt lat="37.9788013799383" lon="15.3990400187118"><ele>12.0</ele><time>2026-04-19T09:54:21.001Z</time></trkpt><trkpt lat="37.97893849126046" lon="15.39913214310012"><ele>12.0</ele><time>2026-04-19T09:54:22.001Z</time></trkpt><trkpt lat="37.97908138626333" lon="15.399223280380042"><ele>12.0</ele><time>2026-04-19T09:54:23.001Z</time></trkpt><trkpt lat="37.97922197597123" lon="15.399348988262302"><ele>12.0</ele><time>2026-04-19T09:54:24.001Z</time></trkpt><trkpt lat="37.97938407890306" lon="15.399467403989576"><ele>12.666666666666668</ele><time>2026-04-19T09:54:25.001Z</time></trkpt><trkpt lat="37.97953824578973" lon="15.399559902665612"><ele>13.333333333333334</ele><time>2026-04-19T09:54:26.001Z</time></trkpt><trkpt lat="37.979681569618826" lon="15.399670777397484"><ele>14.0</ele><time>2026-04-19T09:54:27.001Z</time></trkpt><trkpt lat="37.97981148582302" lon="15.399793482788613"><ele>14.0</ele><time>2026-04-19T09:54:28.001Z</time></trkpt><trkpt lat="37.97992725401311" lon="15.399939925978835"><ele>14.0</ele><time>2026-04-19T09:54:29.001Z</time></trkpt><trkpt lat="37.98004811795226" lon="15.400097447714229"><ele>14.0</ele><time>2026-04-19T09:54:30.001Z</time></trkpt><trkpt lat="37.98016024361154" lon="15.400248132645103"><ele>14.333333333333334</ele><time>2026-04-19T09:54:31.001Z</time></trkpt><trkpt lat="37.9802728940222" lon="15.400383994822588"><ele>14.666666666666668</ele><time>2026-04-19T09:54:32.001Z</time></trkpt><trkpt lat="37.98038919654942" lon="15.400510711753597"><ele>15.0</ele><time>2026-04-19T09:54:33.001Z</time></trkpt><trkpt lat="37.98051131963578" lon="15.400626557850488"><ele>15.0</ele><time>2026-04-19T09:54:34.001Z</time></trkpt><trkpt lat="37.98064161721227" lon="15.400724832126018"><ele>15.0</ele><time>2026-04-19T09:54:35.001Z</time></trkpt><trkpt lat="37.98077847647013" lon="15.400806651954532"><ele>15.0</ele><time>2026-04-19T09:54:36.001Z</time></trkpt><trkpt lat="37.98091554029483" lon="15.40087695716325"><ele>15.0</ele><time>2026-04-19T09:54:37.001Z</time></trkpt><trkpt lat="37.98104259268616" lon="15.400933604626113"><ele>15.0</ele><time>2026-04-19T09:54:38.001Z</time></trkpt><trkpt lat="37.98116071204533" lon="15.400982981883645"><ele>15.0</ele><time>2026-04-19T09:54:39.001Z</time></trkpt><trkpt lat="37.98126596037444" lon="15.401054910496079"><ele>15.0</ele><time>2026-04-19T09:54:40.001Z</time></trkpt><trkpt lat="37.98136429485561" lon="15.401154840394986"><ele>15.0</ele><time>2026-04-19T09:54:41.001Z</time></trkpt><trkpt lat="37.981468900119914" lon="15.401260813288376"><ele>15.0</ele><time>2026-04-19T09:54:42.001Z</time></trkpt><trkpt lat="37.98157968645342" lon="15.401367290779119"><ele>15.0</ele><time>2026-04-19T09:54:43.001Z</time></trkpt><trkpt lat="37.981690980780094" lon="15.401481214558835"><ele>15.0</ele><time>2026-04-19T09:54:44.001Z</time></trkpt><trkpt lat="37.981807045646725" lon="15.401594921831707"><ele>15.25</ele><time>2026-04-19T09:54:45.001Z</time></trkpt><trkpt lat="37.981914948176374" lon="15.401707102226213"><ele>15.5</ele><time>2026-04-19T09:54:46.001Z</time></trkpt><trkpt lat="37.98201704204091" lon="15.401822816697697"><ele>15.75</ele><time>2026-04-19T09:54:47.001Z</time></trkpt><trkpt lat="37.98212245971478" lon="15.401923593900566"><ele>16.0</ele><time>2026-04-19T09:54:48.001Z</time></trkpt><trkpt lat="37.98221789220095" lon="15.402025821641372"><ele>16.0</ele><time>2026-04-19T09:54:49.001Z</time></trkpt><trkpt lat="37.98230510448098" lon="15.402124761747261"><ele>16.0</ele><time>2026-04-19T09:54:50.001Z</time></trkpt><trkpt lat="37.98238454382248" lon="15.402210436000399"><ele>16.0</ele><time>2026-04-19T09:54:51.001Z</time></trkpt><trkpt lat="37.9824554703746" lon="15.402280812860734"><ele>16.0</ele><time>2026-04-19T09:54:52.001Z</time></trkpt><trkpt lat="37.98251594294897" lon="15.402349328480751"><ele>16.0</ele><time>2026-04-19T09:54:53.001Z</time></trkpt><trkpt lat="37.98257375679841" lon="15.402413425008584"><ele>15.833333333333332</ele><time>2026-04-19T09:54:54.001Z</time></trkpt><trkpt lat="37.98262413402047" lon="15.4024768834851"><ele>15.666666666666666</ele><time>2026-04-19T09:54:55.001Z</time></trkpt><trkpt lat="37.982685008415814" lon="15.402535694250687"><ele>15.5</ele><time>2026-04-19T09:54:56.001Z</time></trkpt><trkpt lat="37.98275918018821" lon="15.402597086665429"><ele>15.333333333333332</ele><time>2026-04-19T09:54:57.001Z</time></trkpt><trkpt lat="37.982834825824604" lon="15.402669792608542"><ele>15.166666666666666</ele><time>2026-04-19T09:54:58.001Z</time></trkpt><trkpt lat="37.982913499891524" lon="15.402749985425247"><ele>15.0</ele><time>2026-04-19T09:54:59.001Z</time></trkpt><trkpt lat="37.982984033979605" lon="15.40282650959266"><ele>15.0</ele><time>2026-04-19T09:55:00.001Z</time></trkpt><trkpt lat="37.98305471379976" lon="15.402909040693796"><ele>15.0</ele><time>2026-04-19T09:55:01.001Z</time></trkpt><trkpt lat="37.98314043054013" lon="15.402997185754412"><ele>15.0</ele><time>2026-04-19T09:55:02.001Z</time></trkpt><trkpt lat="37.98323391539519" lon="15.403095440216346"><ele>15.0</ele><time>2026-04-19T09:55:03.001Z</time></trkpt><trkpt lat="37.983343226446266" lon="15.403190264414032"><ele>15.5</ele><time>2026-04-19T09:55:04.001Z</time></trkpt><trkpt lat="37.98345141948022" lon="15.403299603193958"><ele>16.0</ele><time>2026-04-19T09:55:05.001Z</time></trkpt><trkpt lat="37.98355210963031" lon="15.403424460995808"><ele>16.5</ele><time>2026-04-19T09:55:06.001Z</time></trkpt><trkpt lat="37.98366592140796" lon="15.403542145330167"><ele>17.0</ele><time>2026-04-19T09:55:07.001Z</time></trkpt><trkpt lat="37.983783924177324" lon="15.403664126768438"><ele>17.0</ele><time>2026-04-19T09:55:08.001Z</time></trkpt><trkpt lat="37.98390137521291" lon="15.403785528506"><ele>17.0</ele><time>2026-04-19T09:55:09.001Z</time></trkpt><trkpt lat="37.984018856887566" lon="15.403906696125086"><ele>17.0</ele><time>2026-04-19T09:55:10.001Z</time></trkpt><trkpt lat="37.98414494840842" lon="15.404030603091723"><ele>17.0</ele><time>2026-04-19T09:55:11.001Z</time></trkpt><trkpt lat="37.984291763628306" lon="15.404134595759459"><ele>17.0</ele><time>2026-04-19T09:55:12.001Z</time></trkpt><trkpt lat="37.98443179505658" lon="15.404265560402044"><ele>17.0</ele><time>2026-04-19T09:55:13.001Z</time></trkpt><trkpt lat="37.984578731085364" lon="15.404402497926654"><ele>17.0</ele><time>2026-04-19T09:55:14.001Z</time></trkpt><trkpt lat="37.98473363469952" lon="15.404544804365504"><ele>17.0</ele><time>2026-04-19T09:55:15.001Z</time></trkpt><trkpt lat="37.98488780129742" lon="15.404688021345539"><ele>17.0</ele><time>2026-04-19T09:55:16.001Z</time></trkpt><trkpt lat="37.98503792193571" lon="15.404827258246781"><ele>17.0</ele><time>2026-04-19T09:55:17.001Z</time></trkpt><trkpt lat="37.98518677043577" lon="15.40496448247861"><ele>17.0</ele><time>2026-04-19T09:55:18.001Z</time></trkpt><trkpt lat="37.98533128363472" lon="15.405095171214636"><ele>17.0</ele><time>2026-04-19T09:55:19.001Z</time></trkpt><trkpt lat="37.98546868292102" lon="15.405226182225029"><ele>17.0</ele><time>2026-04-19T09:55:20.001Z</time></trkpt><trkpt lat="37.9856013367058" lon="15.405358570364363"><ele>17.0</ele><time>2026-04-19T09:55:21.001Z</time></trkpt><trkpt lat="37.98572709551128" lon="15.405487517566625"><ele>17.0</ele><time>2026-04-19T09:55:22.001Z</time></trkpt><trkpt lat="37.98583977194758" lon="15.405614554786911"><ele>17.333333333333336</ele><time>2026-04-19T09:55:23.001Z</time></trkpt><trkpt lat="37.98596454758539" lon="15.405732013579241"><ele>17.666666666666668</ele><time>2026-04-19T09:55:24.001Z</time></trkpt><trkpt lat="37.98609851962696" lon="15.40584858509406"><ele>18.0</ele><time>2026-04-19T09:55:25.001Z</time></trkpt><trkpt lat="37.986217280115696" lon="15.405996434888038"><ele>18.0</ele><time>2026-04-19T09:55:26.001Z</time></trkpt><trkpt lat="37.98634858636655" lon="15.406133155315636"><ele>18.0</ele><time>2026-04-19T09:55:27.001Z</time></trkpt><trkpt lat="37.98647782204468" lon="15.406271545702197"><ele>18.0</ele><time>2026-04-19T09:55:28.001Z</time></trkpt><trkpt lat="37.98661150833842" lon="15.406388707442796"><ele>18.666666666666668</ele><time>2026-04-19T09:55:29.001Z</time></trkpt><trkpt lat="37.98673108872167" lon="15.406525688084175"><ele>19.333333333333336</ele><time>2026-04-19T09:55:30.001Z</time></trkpt><trkpt lat="37.986851585085034" lon="15.40665714474181"><ele>20.0</ele><time>2026-04-19T09:55:31.001Z</time></trkpt><trkpt lat="37.98696745291229" lon="15.406785771814736"><ele>20.0</ele><time>2026-04-19T09:55:32.001Z</time></trkpt><trkpt lat="37.987084827501135" lon="15.406911747888527"><ele>20.0</ele><time>2026-04-19T09:55:33.001Z</time></trkpt><trkpt lat="37.98719863830849" lon="15.40703544524563"><ele>20.0</ele><time>2026-04-19T09:55:34.001Z</time></trkpt><trkpt lat="37.98731154415233" lon="15.407157048820421"><ele>19.25</ele><time>2026-04-19T09:55:35.001Z</time></trkpt><trkpt lat="37.98742028416838" lon="15.40727966387741"><ele>18.5</ele><time>2026-04-19T09:55:36.001Z</time></trkpt><trkpt lat="37.987527953244246" lon="15.407398069051572"><ele>17.75</ele><time>2026-04-19T09:55:37.001Z</time></trkpt><trkpt lat="37.98762425623086" lon="15.407531828772978"><ele>17.0</ele><time>2026-04-19T09:55:38.001Z</time></trkpt><trkpt lat="37.987731176854496" lon="15.407650516002981"><ele>17.0</ele><time>2026-04-19T09:55:39.001Z</time></trkpt><trkpt lat="37.9878350945255" lon="15.407766786289095"><ele>17.0</ele><time>2026-04-19T09:55:40.001Z</time></trkpt><trkpt lat="37.987914057612855" lon="15.40785780312405"><ele>17.0</ele><time>2026-04-19T09:55:41.001Z</time></trkpt><trkpt lat="37.98799287888785" lon="15.407921175559329"><ele>17.0</ele><time>2026-04-19T09:55:42.001Z</time></trkpt><trkpt lat="37.988065580951826" lon="15.407995601382858"><ele>17.0</ele><time>2026-04-19T09:55:43.001Z</time></trkpt><trkpt lat="37.98813875402004" lon="15.408086132154061"><ele>16.5</ele><time>2026-04-19T09:55:44.001Z</time></trkpt><trkpt lat="37.988219221933186" lon="15.40818469619611"><ele>16.0</ele><time>2026-04-19T09:55:45.001Z</time></trkpt><trkpt lat="37.988308194501414" lon="15.408290069600856"><ele>15.5</ele><time>2026-04-19T09:55:46.001Z</time></trkpt><trkpt lat="37.98839321600503" lon="15.408420754955694"><ele>15.0</ele><time>2026-04-19T09:55:47.001Z</time></trkpt><trkpt lat="37.98851646789368" lon="15.408514933816104"><ele>15.0</ele><time>2026-04-19T09:55:48.001Z</time></trkpt><trkpt lat="37.98862464556688" lon="15.408649504335541"><ele>15.0</ele><time>2026-04-19T09:55:49.001Z</time></trkpt><trkpt lat="37.988736843230434" lon="15.408792887838754"><ele>15.0</ele><time>2026-04-19T09:55:50.001Z</time></trkpt><trkpt lat="37.98885841125617" lon="15.408930003274863"><ele>15.25</ele><time>2026-04-19T09:55:51.001Z</time></trkpt><trkpt lat="37.98895420887499" lon="15.409085338017185"><ele>15.5</ele><time>2026-04-19T09:55:52.001Z</time></trkpt><trkpt lat="37.98905611344505" lon="15.409202901294156"><ele>15.75</ele><time>2026-04-19T09:55:53.001Z</time></trkpt><trkpt lat="37.98914723338711" lon="15.409311949556537"><ele>16.0</ele><time>2026-04-19T09:55:54.001Z</time></trkpt><trkpt lat="37.98922788405056" lon="15.409411874370761"><ele>16.0</ele><time>2026-04-19T09:55:55.001Z</time></trkpt><trkpt lat="37.989308330318494" lon="15.409511155441528"><ele>16.0</ele><time>2026-04-19T09:55:56.001Z</time></trkpt><trkpt lat="37.98939141911879" lon="15.409615890899012"><ele>16.0</ele><time>2026-04-19T09:55:57.001Z</time></trkpt><trkpt lat="37.98947643273195" lon="15.4097242331848"><ele>16.0</ele><time>2026-04-19T09:55:58.001Z</time></trkpt><trkpt lat="37.98956321267681" lon="15.40984015695478"><ele>15.0</ele><time>2026-04-19T09:55:59.001Z</time></trkpt><trkpt lat="37.9896557180887" lon="15.409963729012198"><ele>14.0</ele><time>2026-04-19T09:56:00.001Z</time></trkpt><trkpt lat="37.98975163626556" lon="15.410091572184168"><ele>13.0</ele><time>2026-04-19T09:56:01.001Z</time></trkpt><trkpt lat="37.98985142395593" lon="15.410224557481897"><ele>12.0</ele><time>2026-04-19T09:56:02.001Z</time></trkpt><trkpt lat="37.98995467717459" lon="15.410362161144267"><ele>12.0</ele><time>2026-04-19T09:56:03.001Z</time></trkpt><trkpt lat="37.990060850820925" lon="15.41050365773456"><ele>12.0</ele><time>2026-04-19T09:56:04.001Z</time></trkpt><trkpt lat="37.9901780241737" lon="15.41064928023982"><ele>12.0</ele><time>2026-04-19T09:56:05.001Z</time></trkpt><trkpt lat="37.99030270582392" lon="15.410799530875956"><ele>12.0</ele><time>2026-04-19T09:56:06.001Z</time></trkpt><trkpt lat="37.99044784722295" lon="15.410971871864996"><ele>12.0</ele><time>2026-04-19T09:56:07.001Z</time></trkpt><trkpt lat="37.99062338255092" lon="15.411171299493347"><ele>12.0</ele><time>2026-04-19T09:56:08.001Z</time></trkpt><trkpt lat="37.99079461543382" lon="15.41136101306003"><ele>13.0</ele><time>2026-04-19T09:56:09.001Z</time></trkpt><trkpt lat="37.99094269070776" lon="15.41152488675005"><ele>14.0</ele><time>2026-04-19T09:56:10.001Z</time></trkpt><trkpt lat="37.99107926383814" lon="15.411676031111728"><ele>15.0</ele><time>2026-04-19T09:56:11.001Z</time></trkpt><trkpt lat="37.99120373865857" lon="15.411817652756683"><ele>15.0</ele><time>2026-04-19T09:56:12.001Z</time></trkpt><trkpt lat="37.99131655543196" lon="15.411946189895108"><ele>15.0</ele><time>2026-04-19T09:56:13.001Z</time></trkpt><trkpt lat="37.9914121352836" lon="15.412054280878287"><ele>15.0</ele><time>2026-04-19T09:56:14.001Z</time></trkpt><trkpt lat="37.99150137506078" lon="15.412126584184147"><ele>15.0</ele><time>2026-04-19T09:56:15.001Z</time></trkpt><trkpt lat="37.991550245951615" lon="15.412195742534896"><ele>15.166666666666666</ele><time>2026-04-19T09:56:16.001Z</time></trkpt><trkpt lat="37.991598893450885" lon="15.412254524877914"><ele>15.333333333333332</ele><time>2026-04-19T09:56:18.001Z</time></trkpt><trkpt lat="37.99164587620565" lon="15.412317364295294"><ele>15.5</ele><time>2026-04-19T09:56:20.001Z</time></trkpt><trkpt lat="37.9917359801155" lon="15.412212279349195"><ele>15.666666666666666</ele><time>2026-04-19T09:56:21.001Z</time></trkpt><trkpt lat="37.991785477094076" lon="15.412133018696412"><ele>15.833333333333332</ele><time>2026-04-19T09:56:22.001Z</time></trkpt><trkpt lat="37.991844488392864" lon="15.412044658883659"><ele>16.0</ele><time>2026-04-19T09:56:23.001Z</time></trkpt><trkpt lat="37.99190985303691" lon="15.411944197625745"><ele>15.999999999999998</ele><time>2026-04-19T09:56:24.001Z</time></trkpt><trkpt lat="37.99198069553429" lon="15.411858127392195"><ele>16.0</ele><time>2026-04-19T09:56:25.001Z</time></trkpt><trkpt lat="37.99203677888025" lon="15.41179899892714"><ele>16.0</ele><time>2026-04-19T09:56:26.001Z</time></trkpt><trkpt lat="37.99212721180327" lon="15.411730142308548"><ele>16.0</ele><time>2026-04-19T09:56:28.001Z</time></trkpt><trkpt lat="37.992151190613534" lon="15.411633013205424"><ele>15.999999999999998</ele><time>2026-04-19T09:56:30.001Z</time></trkpt><trkpt lat="37.99223359013579" lon="15.411606241716019"><ele>16.0</ele><time>2026-04-19T09:56:33.001Z</time></trkpt><trkpt lat="37.9923017319724" lon="15.411642456183335"><ele>16.0</ele><time>2026-04-19T09:56:39.001Z</time></trkpt><trkpt lat="37.99236035160475" lon="15.411701175711052"><ele>16.0</ele><time>2026-04-19T09:56:44.001Z</time></trkpt><trkpt lat="37.99246214355098" lon="15.411775943868886"><ele>16.0</ele><time>2026-04-19T09:56:47.001Z</time></trkpt><trkpt lat="37.992524951388106" lon="15.411827089947073"><ele>16.0</ele><time>2026-04-19T09:56:48.001Z</time></trkpt><trkpt lat="37.99261556236475" lon="15.411909608623956"><ele>16.0</ele><time>2026-04-19T09:56:49.001Z</time></trkpt><trkpt lat="37.99275084180684" lon="15.412067072735852"><ele>15.666666666666666</ele><time>2026-04-19T09:56:50.001Z</time></trkpt><trkpt lat="37.992908889193906" lon="15.41220304841782"><ele>15.333333333333332</ele><time>2026-04-19T09:56:51.001Z</time></trkpt><trkpt lat="37.99304658606724" lon="15.412293071410017"><ele>15.0</ele><time>2026-04-19T09:56:52.001Z</time></trkpt><trkpt lat="37.99316250901553" lon="15.412381565042732"><ele>15.0</ele><time>2026-04-19T09:56:53.001Z</time></trkpt><trkpt lat="37.993265890827146" lon="15.412513723282224"><ele>15.0</ele><time>2026-04-19T09:56:54.001Z</time></trkpt><trkpt lat="37.99336961220139" lon="15.412638510728819"><ele>15.0</ele><time>2026-04-19T09:56:55.001Z</time></trkpt><trkpt lat="37.99347835037221" lon="15.412730475860096"><ele>15.0</ele><time>2026-04-19T09:56:56.001Z</time></trkpt><trkpt lat="37.99358326544231" lon="15.412818122099786"><ele>15.5</ele><time>2026-04-19T09:56:57.001Z</time></trkpt><trkpt lat="37.99367176745176" lon="15.412893631823485"><ele>16.0</ele><time>2026-04-19T09:56:58.001Z</time></trkpt><trkpt lat="37.9937863315031" lon="15.412897367321866"><ele>16.5</ele><time>2026-04-19T09:56:59.001Z</time></trkpt><trkpt lat="37.99390354064339" lon="15.412828838756623"><ele>17.0</ele><time>2026-04-19T09:57:00.001Z</time></trkpt><trkpt lat="37.994019944871084" lon="15.412744654400264"><ele>17.0</ele><time>2026-04-19T09:57:01.001Z</time></trkpt><trkpt lat="37.994171128663545" lon="15.412649230102971"><ele>17.0</ele><time>2026-04-19T09:57:02.001Z</time></trkpt><trkpt lat="37.99429758483647" lon="15.412600889355614"><ele>17.0</ele><time>2026-04-19T09:57:03.001Z</time></trkpt><trkpt lat="37.99440679230418" lon="15.412558234799553"><ele>17.0</ele><time>2026-04-19T09:57:04.001Z</time></trkpt><trkpt lat="37.99449712715565" lon="15.412517481126548"><ele>17.0</ele><time>2026-04-19T09:57:05.001Z</time></trkpt><trkpt lat="37.994567294487766" lon="15.412478479096546"><ele>17.0</ele><time>2026-04-19T09:57:06.001Z</time></trkpt><trkpt lat="37.99464555793804" lon="15.412436713599009"><ele>17.0</ele><time>2026-04-19T09:57:07.001Z</time></trkpt><trkpt lat="37.9947498882286" lon="15.412413038803296"><ele>17.0</ele><time>2026-04-19T09:57:08.001Z</time></trkpt><trkpt lat="37.99486874588498" lon="15.41235094954046"><ele>17.0</ele><time>2026-04-19T09:57:09.001Z</time></trkpt><trkpt lat="37.99499510876253" lon="15.412298562953305"><ele>18.0</ele><time>2026-04-19T09:57:10.001Z</time></trkpt><trkpt lat="37.99511718284488" lon="15.412221003555869"><ele>19.0</ele><time>2026-04-19T09:57:11.001Z</time></trkpt><trkpt lat="37.99525427359959" lon="15.412152994968519"><ele>20.0</ele><time>2026-04-19T09:57:12.001Z</time></trkpt><trkpt lat="37.995399196747414" lon="15.412117019577185"><ele>21.0</ele><time>2026-04-19T09:57:13.001Z</time></trkpt><trkpt lat="37.99553018931944" lon="15.412052767993249"><ele>21.0</ele><time>2026-04-19T09:57:14.001Z</time></trkpt><trkpt lat="37.99564887840781" lon="15.411997595441928"><ele>21.0</ele><time>2026-04-19T09:57:15.001Z</time></trkpt><trkpt lat="37.99576371573562" lon="15.411947760506747"><ele>21.0</ele><time>2026-04-19T09:57:16.001Z</time></trkpt><trkpt lat="37.99588305419977" lon="15.411940315957375"><ele>21.0</ele><time>2026-04-19T09:57:17.001Z</time></trkpt><trkpt lat="37.99601936922227" lon="15.411963322238718"><ele>21.0</ele><time>2026-04-19T09:57:18.001Z</time></trkpt><trkpt lat="37.99618782693185" lon="15.412064375556483"><ele>21.0</ele><time>2026-04-19T09:57:19.001Z</time></trkpt><trkpt lat="37.99638537047524" lon="15.412178998081007"><ele>21.0</ele><time>2026-04-19T09:57:20.001Z</time></trkpt><trkpt lat="37.9966137736578" lon="15.41229825466927"><ele>21.0</ele><time>2026-04-19T09:57:21.001Z</time></trkpt><trkpt lat="37.99686508569023" lon="15.412427808072598"><ele>21.0</ele><time>2026-04-19T09:57:22.001Z</time></trkpt><trkpt lat="37.99711051474206" lon="15.412607364393244"><ele>21.0</ele><time>2026-04-19T09:57:23.001Z</time></trkpt><trkpt lat="37.997370760708975" lon="15.412813982964055"><ele>21.0</ele><time>2026-04-19T09:57:24.001Z</time></trkpt><trkpt lat="37.99763116266224" lon="15.413088805044762"><ele>20.5</ele><time>2026-04-19T09:57:25.001Z</time></trkpt><trkpt lat="37.997915073938174" lon="15.413353169866708"><ele>20.0</ele><time>2026-04-19T09:57:26.001Z</time></trkpt><trkpt lat="37.99818430181674" lon="15.41359824570821"><ele>20.0</ele><time>2026-04-19T09:57:27.001Z</time></trkpt><trkpt lat="37.99842615342431" lon="15.413821077419115"><ele>20.0</ele><time>2026-04-19T09:57:28.001Z</time></trkpt><trkpt lat="37.99865192061081" lon="15.414024597249785"><ele>20.0</ele><time>2026-04-19T09:57:29.001Z</time></trkpt><trkpt lat="37.99886941646926" lon="15.414223092078277"><ele>20.0</ele><time>2026-04-19T09:57:30.001Z</time></trkpt><trkpt lat="37.99904295398494" lon="15.414427569225857"><ele>20.333333333333336</ele><time>2026-04-19T09:57:31.001Z</time></trkpt><trkpt lat="37.999200465852574" lon="15.414587397246732"><ele>20.666666666666668</ele><time>2026-04-19T09:57:32.001Z</time></trkpt><trkpt lat="37.99933387416118" lon="15.41475891970886"><ele>21.0</ele><time>2026-04-19T09:57:33.001Z</time></trkpt><trkpt lat="37.99945330985741" lon="15.414913375452471"><ele>21.333333333333332</ele><time>2026-04-19T09:57:34.001Z</time></trkpt><trkpt lat="37.99955815463435" lon="15.415069544415841"><ele>21.666666666666664</ele><time>2026-04-19T09:57:35.001Z</time></trkpt><trkpt lat="37.999609770659745" lon="15.41526336586453"><ele>22.0</ele><time>2026-04-19T09:57:36.001Z</time></trkpt><trkpt lat="37.999603409294615" lon="15.41545798726187"><ele>21.25</ele><time>2026-04-19T09:57:37.001Z</time></trkpt><trkpt lat="37.99958026837873" lon="15.415629902765133"><ele>20.5</ele><time>2026-04-19T09:57:38.001Z</time></trkpt><trkpt lat="37.99955387179626" lon="15.415787506671268"><ele>19.75</ele><time>2026-04-19T09:57:39.001Z</time></trkpt><trkpt lat="37.99952766288272" lon="15.415925198947646"><ele>19.0</ele><time>2026-04-19T09:57:40.001Z</time></trkpt><trkpt lat="37.999491364413394" lon="15.416057005559015"><ele>19.0</ele><time>2026-04-19T09:57:41.001Z</time></trkpt><trkpt lat="37.999435584261704" lon="15.416224441953599"><ele>19.0</ele><time>2026-04-19T09:57:42.001Z</time></trkpt><trkpt lat="37.99936876520807" lon="15.416412575893835"><ele>19.0</ele><time>2026-04-19T09:57:43.001Z</time></trkpt><trkpt lat="37.99929644860153" lon="15.41661511427381"><ele>19.333333333333332</ele><time>2026-04-19T09:57:44.001Z</time></trkpt><trkpt lat="37.99923317126907" lon="15.416828893777534"><ele>19.666666666666668</ele><time>2026-04-19T09:57:45.001Z</time></trkpt><trkpt lat="37.999166172830904" lon="15.417027089404606"><ele>20.0</ele><time>2026-04-19T09:57:46.001Z</time></trkpt><trkpt lat="37.99909055470749" lon="15.417195285408058"><ele>18.6</ele><time>2026-04-19T09:57:47.001Z</time></trkpt><trkpt lat="37.99905267224072" lon="15.417360281385026"><ele>17.2</ele><time>2026-04-19T09:57:48.001Z</time></trkpt><trkpt lat="37.9990094797265" lon="15.417496097940507"><ele>15.8</ele><time>2026-04-19T09:57:49.001Z</time></trkpt><trkpt lat="37.99897697022003" lon="15.417616203796712"><ele>14.4</ele><time>2026-04-19T09:57:50.001Z</time></trkpt><trkpt lat="37.99892677137145" lon="15.417704617278543"><ele>13.0</ele><time>2026-04-19T09:57:51.001Z</time></trkpt><trkpt lat="37.99902367577259" lon="15.417889978532358"><ele>12.75</ele><time>2026-04-19T09:57:52.001Z</time></trkpt><trkpt lat="37.99912312806517" lon="15.417994671545852"><ele>12.5</ele><time>2026-04-19T09:57:53.001Z</time></trkpt><trkpt lat="37.9992204237292" lon="15.418111632664814"><ele>12.25</ele><time>2026-04-19T09:57:54.001Z</time></trkpt><trkpt lat="37.999322222779575" lon="15.418224962035957"><ele>12.0</ele><time>2026-04-19T09:57:55.001Z</time></trkpt><trkpt lat="37.99943346117881" lon="15.418348799981981"><ele>12.666666666666668</ele><time>2026-04-19T09:57:56.001Z</time></trkpt><trkpt lat="37.99954465439519" lon="15.418472587426445"><ele>13.333333333333334</ele><time>2026-04-19T09:57:57.001Z</time></trkpt><trkpt lat="37.999658218576265" lon="15.418599015744302"><ele>14.0</ele><time>2026-04-19T09:57:58.001Z</time></trkpt><trkpt lat="37.999780143918755" lon="15.418712043948979"><ele>14.25</ele><time>2026-04-19T09:57:59.001Z</time></trkpt><trkpt lat="37.999894905355326" lon="15.41884070717993"><ele>14.5</ele><time>2026-04-19T09:58:00.001Z</time></trkpt><trkpt lat="37.99998907027992" lon="15.418977182145507"><ele>14.75</ele><time>2026-04-19T09:58:01.001Z</time></trkpt><trkpt lat="38.000087749274044" lon="15.419095647091325"><ele>15.0</ele><time>2026-04-19T09:58:02.001Z</time></trkpt><trkpt lat="38.00017570765628" lon="15.41920124204646"><ele>15.0</ele><time>2026-04-19T09:58:03.001Z</time></trkpt><trkpt lat="38.000253884200454" lon="15.41929428310133"><ele>15.0</ele><time>2026-04-19T09:58:04.001Z</time></trkpt><trkpt lat="38.00030649822724" lon="15.419353968277507"><ele>15.0</ele><time>2026-04-19T09:58:05.001Z</time></trkpt><trkpt lat="38.00037514541315" lon="15.419375339358835"><ele>15.0</ele><time>2026-04-19T09:58:06.001Z</time></trkpt><trkpt lat="38.000433718857344" lon="15.419412582212141"><ele>15.0</ele><time>2026-04-19T09:58:07.001Z</time></trkpt><trkpt lat="38.00050344652601" lon="15.419529773979209"><ele>15.0</ele><time>2026-04-19T09:58:09.001Z</time></trkpt><trkpt lat="38.00057241351128" lon="15.41958758707392"><ele>15.0</ele><time>2026-04-19T09:58:11.001Z</time></trkpt><trkpt lat="38.00064557080494" lon="15.419557493631137"><ele>15.0</ele><time>2026-04-19T09:58:19.001Z</time></trkpt><trkpt lat="38.00075444694763" lon="15.419616542582247"><ele>15.0</ele><time>2026-04-19T09:58:49.001Z</time></trkpt><trkpt lat="38.00082887530155" lon="15.419709217502886"><ele>15.0</ele><time>2026-04-19T09:58:50.001Z</time></trkpt><trkpt lat="38.0009420721686" lon="15.41982991032805"><ele>15.0</ele><time>2026-04-19T09:58:51.001Z</time></trkpt><trkpt lat="38.00110916013197" lon="15.420005500911412"><ele>15.5</ele><time>2026-04-19T09:58:52Z</time></trkpt><trkpt lat="38.001304235713015" lon="15.420213390951412"><ele>16.0</ele><time>2026-04-19T09:58:53Z</time></trkpt><trkpt lat="38.001473334348255" lon="15.420387846064362"><ele>16.0</ele><time>2026-04-19T09:58:54Z</time></trkpt><trkpt lat="38.00159910317801" lon="15.420541017796117"><ele>16.0</ele><time>2026-04-19T09:58:55Z</time></trkpt><trkpt lat="38.001753120473715" lon="15.420664468399416"><ele>16.0</ele><time>2026-04-19T09:58:56Z</time></trkpt><trkpt lat="38.00191678746687" lon="15.420861872531097"><ele>16.0</ele><time>2026-04-19T09:58:57Z</time></trkpt><trkpt lat="38.00208114992633" lon="15.421054269447005"><ele>16.0</ele><time>2026-04-19T09:58:58Z</time></trkpt><trkpt lat="38.00219112968706" lon="15.421225559110036"><ele>16.0</ele><time>2026-04-19T09:58:59Z</time></trkpt><trkpt lat="38.002337538487474" lon="15.421318895051161"><ele>15.75</ele><time>2026-04-19T09:59:00Z</time></trkpt><trkpt lat="38.002482224156964" lon="15.421407688650644"><ele>15.5</ele><time>2026-04-19T09:59:01Z</time></trkpt><trkpt lat="38.0026145813331" lon="15.42148428692379"><ele>15.25</ele><time>2026-04-19T09:59:02Z</time></trkpt><trkpt lat="38.00269757078127" lon="15.42160663079622"><ele>15.0</ele><time>2026-04-19T09:59:03Z</time></trkpt><trkpt lat="38.00280007416117" lon="15.421669171785442"><ele>15.0</ele><time>2026-04-19T09:59:04Z</time></trkpt><trkpt lat="38.00288673412417" lon="15.421729773151425"><ele>15.0</ele><time>2026-04-19T09:59:05Z</time></trkpt><trkpt lat="38.003001170287995" lon="15.42178971906203"><ele>15.0</ele><time>2026-04-19T09:59:07Z</time></trkpt><trkpt lat="38.00305916343002" lon="15.421835577190445"><ele>15.0</ele><time>2026-04-19T09:59:08Z</time></trkpt><trkpt lat="38.00312334205723" lon="15.421889267818466"><ele>15.0</ele><time>2026-04-19T09:59:09Z</time></trkpt><trkpt lat="38.003177950532766" lon="15.421939322031855"><ele>15.0</ele><time>2026-04-19T09:59:10Z</time></trkpt><trkpt lat="38.00324318326097" lon="15.422015020900027"><ele>15.0</ele><time>2026-04-19T09:59:12Z</time></trkpt><trkpt lat="38.00330627293832" lon="15.422081839229936"><ele>15.0</ele><time>2026-04-19T09:59:17Z</time></trkpt><trkpt lat="38.00337814207797" lon="15.422156230563113"><ele>15.0</ele><time>2026-04-19T09:59:19Z</time></trkpt><trkpt lat="38.00346303409642" lon="15.422235408860852"><ele>15.0</ele><time>2026-04-19T09:59:21Z</time></trkpt><trkpt lat="38.00351132166155" lon="15.422287580446511"><ele>15.0</ele><time>2026-04-19T09:59:22Z</time></trkpt><trkpt lat="38.00355888833613" lon="15.422354069073728"><ele>15.0</ele><time>2026-04-19T09:59:23Z</time></trkpt><trkpt lat="38.003604443202434" lon="15.422409863410811"><ele>15.0</ele><time>2026-04-19T09:59:24Z</time></trkpt><trkpt lat="38.00370586735" lon="15.422491980853666"><ele>15.0</ele><time>2026-04-19T09:59:26Z</time></trkpt><trkpt lat="38.00380374369307" lon="15.422608214840373"><ele>15.0</ele><time>2026-04-19T09:59:28Z</time></trkpt><trkpt lat="38.003847401917824" lon="15.42267253882862"><ele>15.0</ele><time>2026-04-19T09:59:29Z</time></trkpt><trkpt lat="38.003898162437196" lon="15.42273031247202"><ele>15.0</ele><time>2026-04-19T09:59:30Z</time></trkpt><trkpt lat="38.003947090899175" lon="15.422783822185625"><ele>15.0</ele><time>2026-04-19T09:59:31Z</time></trkpt><trkpt lat="38.004000076413234" lon="15.422841769143583"><ele>15.0</ele><time>2026-04-19T09:59:32Z</time></trkpt><trkpt lat="38.004062320164735" lon="15.422909841063229"><ele>15.0</ele><time>2026-04-19T09:59:33Z</time></trkpt><trkpt lat="38.00414062566339" lon="15.422995478829362"><ele>15.0</ele><time>2026-04-19T09:59:34Z</time></trkpt><trkpt lat="38.00426715391636" lon="15.423108001447558"><ele>15.0</ele><time>2026-04-19T09:59:35Z</time></trkpt><trkpt lat="38.00438022363752" lon="15.42328799457001"><ele>14.666666666666668</ele><time>2026-04-19T09:59:36Z</time></trkpt><trkpt lat="38.00451033981302" lon="15.423449450406027"><ele>14.333333333333334</ele><time>2026-04-19T09:59:37Z</time></trkpt><trkpt lat="38.0046497871948" lon="15.423591506244676"><ele>14.0</ele><time>2026-04-19T09:59:38Z</time></trkpt><trkpt lat="38.00481763234161" lon="15.423752237386417"><ele>14.0</ele><time>2026-04-19T09:59:39Z</time></trkpt><trkpt lat="38.00501923032728" lon="15.423948144907556"><ele>14.0</ele><time>2026-04-19T09:59:40Z</time></trkpt><trkpt lat="38.00521852342625" lon="15.424169825841465"><ele>14.0</ele><time>2026-04-19T09:59:41Z</time></trkpt><trkpt lat="38.005384747510746" lon="15.424374507190562"><ele>14.0</ele><time>2026-04-19T09:59:42Z</time></trkpt><trkpt lat="38.005559693445235" lon="15.42455951108844"><ele>14.0</ele><time>2026-04-19T09:59:43Z</time></trkpt><trkpt lat="38.00570603447197" lon="15.424743247641224"><ele>14.0</ele><time>2026-04-19T09:59:44Z</time></trkpt><trkpt lat="38.005858862830465" lon="15.424910822228728"><ele>14.0</ele><time>2026-04-19T09:59:45Z</time></trkpt><trkpt lat="38.00600271883872" lon="15.425045473361726"><ele>14.0</ele><time>2026-04-19T09:59:46Z</time></trkpt><trkpt lat="38.006119872318706" lon="15.42518885889814"><ele>14.0</ele><time>2026-04-19T09:59:47Z</time></trkpt><trkpt lat="38.00623704115783" lon="15.425328272720444"><ele>14.0</ele><time>2026-04-19T09:59:48Z</time></trkpt><trkpt lat="38.006357520019996" lon="15.425459374376631"><ele>13.75</ele><time>2026-04-19T09:59:49Z</time></trkpt><trkpt lat="38.00646633164425" lon="15.425574295207845"><ele>13.5</ele><time>2026-04-19T09:59:50Z</time></trkpt><trkpt lat="38.00656943642616" lon="15.425679031534534"><ele>13.25</ele><time>2026-04-19T09:59:51.001Z</time></trkpt><trkpt lat="38.006669831706326" lon="15.425760229553902"><ele>13.0</ele><time>2026-04-19T09:59:52.001Z</time></trkpt><trkpt lat="38.006745754581225" lon="15.4258512144896"><ele>12.999999999999998</ele><time>2026-04-19T09:59:53.001Z</time></trkpt><trkpt lat="38.0068186087807" lon="15.425924687747408"><ele>13.0</ele><time>2026-04-19T09:59:54.001Z</time></trkpt><trkpt lat="38.006899173736514" lon="15.425984970912163"><ele>13.0</ele><time>2026-04-19T09:59:55.001Z</time></trkpt><trkpt lat="38.00694935999135" lon="15.426078671444952"><ele>13.0</ele><time>2026-04-19T09:59:56.001Z</time></trkpt><trkpt lat="38.00702954422845" lon="15.426117352587625"><ele>12.999999999999998</ele><time>2026-04-19T09:59:57.001Z</time></trkpt><trkpt lat="38.00708033107185" lon="15.426185776404836"><ele>13.0</ele><time>2026-04-19T09:59:58.001Z</time></trkpt><trkpt lat="38.007157045441616" lon="15.426264245342262"><ele>12.999999999999998</ele><time>2026-04-19T10:00:00.001Z</time></trkpt><trkpt lat="38.007234740342405" lon="15.42623624465826"><ele>13.0</ele><time>2026-04-19T10:00:02.001Z</time></trkpt><trkpt lat="38.007298967358786" lon="15.426145662215085"><ele>13.0</ele><time>2026-04-19T10:00:04.001Z</time></trkpt><trkpt lat="38.00734273270833" lon="15.426085618688777"><ele>13.0</ele><time>2026-04-19T10:00:05.001Z</time></trkpt><trkpt lat="38.00739385084515" lon="15.425992160577454"><ele>12.999999999999998</ele><time>2026-04-19T10:00:06.001Z</time></trkpt><trkpt lat="38.007457944311554" lon="15.425876120227684"><ele>13.0</ele><time>2026-04-19T10:00:07.001Z</time></trkpt><trkpt lat="38.00753737355355" lon="15.425763744757012"><ele>13.600000000000001</ele><time>2026-04-19T10:00:08.001Z</time></trkpt><trkpt lat="38.007604200369556" lon="15.425622961623347"><ele>14.200000000000001</ele><time>2026-04-19T10:00:09.001Z</time></trkpt><trkpt lat="38.00767731451135" lon="15.42549916452104"><ele>14.8</ele><time>2026-04-19T10:00:10.001Z</time></trkpt><trkpt lat="38.0077385022816" lon="15.425427331208738"><ele>15.4</ele><time>2026-04-19T10:00:11.001Z</time></trkpt><trkpt lat="38.00778242792802" lon="15.425355739243585"><ele>16.0</ele><time>2026-04-19T10:00:12.001Z</time></trkpt><trkpt lat="38.00781660908435" lon="15.425278055360922"><ele>16.5</ele><time>2026-04-19T10:00:13.001Z</time></trkpt><trkpt lat="38.00780970549219" lon="15.425194405915382"><ele>17.0</ele><time>2026-04-19T10:00:14.001Z</time></trkpt><trkpt lat="38.00776891700015" lon="15.425128112262955"><ele>17.5</ele><time>2026-04-19T10:00:15.001Z</time></trkpt><trkpt lat="38.00768911692582" lon="15.425075631260906"><ele>18.0</ele><time>2026-04-19T10:00:16.001Z</time></trkpt><trkpt lat="38.00761519265173" lon="15.425011705413416"><ele>18.5</ele><time>2026-04-19T10:00:17.001Z</time></trkpt><trkpt lat="38.00753795157958" lon="15.424932554870667"><ele>19.0</ele><time>2026-04-19T10:00:18.001Z</time></trkpt><trkpt lat="38.0074633116721" lon="15.424846461154017"><ele>19.0</ele><time>2026-04-19T10:00:19.001Z</time></trkpt><trkpt lat="38.007384538550326" lon="15.424763604487383"><ele>19.0</ele><time>2026-04-19T10:00:20.001Z</time></trkpt><trkpt lat="38.00729146876805" lon="15.42469105898"><ele>19.0</ele><time>2026-04-19T10:00:21.001Z</time></trkpt><trkpt lat="38.00720000137048" lon="15.42461205740648"><ele>19.0</ele><time>2026-04-19T10:00:22.001Z</time></trkpt><trkpt lat="38.00711529961301" lon="15.424513633215073"><ele>19.0</ele><time>2026-04-19T10:00:23.001Z</time></trkpt><trkpt lat="38.007027042845365" lon="15.424422475483555"><ele>20.4</ele><time>2026-04-19T10:00:24.001Z</time></trkpt><trkpt lat="38.00695121457186" lon="15.424334329529696"><ele>21.799999999999997</ele><time>2026-04-19T10:00:25.001Z</time></trkpt><trkpt lat="38.00688261711699" lon="15.424247572727177"><ele>23.200000000000003</ele><time>2026-04-19T10:00:26.001Z</time></trkpt><trkpt lat="38.0068180177186" lon="15.424164521212314"><ele>24.6</ele><time>2026-04-19T10:00:27.001Z</time></trkpt><trkpt lat="38.00677503166385" lon="15.424105921683857"><ele>26.0</ele><time>2026-04-19T10:00:28.001Z</time></trkpt><trkpt lat="38.00670472453083" lon="15.424010042689584"><ele>25.166666666666664</ele><time>2026-04-19T10:00:30.001Z</time></trkpt><trkpt lat="38.00662260648102" lon="15.42396538859446"><ele>24.333333333333332</ele><time>2026-04-19T10:00:32.001Z</time></trkpt><trkpt lat="38.0065577893552" lon="15.423946994458593"><ele>23.5</ele><time>2026-04-19T10:00:33.001Z</time></trkpt><trkpt lat="38.006488454092306" lon="15.42391786096051"><ele>22.666666666666664</ele><time>2026-04-19T10:00:34.001Z</time></trkpt><trkpt lat="38.00640838015596" lon="15.423892836401139"><ele>21.833333333333332</ele><time>2026-04-19T10:00:35.001Z</time></trkpt><trkpt lat="38.00631163850801" lon="15.423896293104976"><ele>21.0</ele><time>2026-04-19T10:00:37.001Z</time></trkpt><trkpt lat="38.006235840498086" lon="15.42393901710218"><ele>21.0</ele><time>2026-04-19T10:00:49Z</time></trkpt><trkpt lat="38.00615138308473" lon="15.423951352794044"><ele>21.0</ele><time>2026-04-19T10:01:55Z</time></trkpt><trkpt lat="38.00629488743349" lon="15.423921657308755"><ele>21.0</ele><time>2026-04-19T10:02:05Z</time></trkpt><trkpt lat="38.00632708672193" lon="15.424003211403239"><ele>21.0</ele><time>2026-04-19T10:02:14Z</time></trkpt><trkpt lat="38.00621698148377" lon="15.4240275174523"><ele>21.0</ele><time>2026-04-19T10:02:16Z</time></trkpt><trkpt lat="38.006218688497185" lon="15.423852773031841"><ele>21.0</ele><time>2026-04-19T10:02:45.001Z</time></trkpt><trkpt lat="38.006272844432154" lon="15.42397232914858"><ele>21.0</ele><time>2026-04-19T10:02:46.001Z</time></trkpt><trkpt lat="38.00628454617012" lon="15.424056264936057"><ele>21.0</ele><time>2026-04-19T10:03:11Z</time></trkpt><trkpt lat="38.00632415119939" lon="15.424163937958387"><ele>21.0</ele><time>2026-04-19T10:03:14.024Z</time></trkpt><trkpt lat="38.00626234048782" lon="15.42409863877182"><ele>21.0</ele><time>2026-04-19T10:03:17.014Z</time></trkpt><trkpt lat="38.006314495723366" lon="15.42403316023993"><ele>21.0</ele><time>2026-04-19T10:03:22Z</time></trkpt><trkpt lat="38.0063668559822" lon="15.42412499201679"><ele>21.0</ele><time>2026-04-19T10:03:32Z</time></trkpt><trkpt lat="38.00625111701521" lon="15.42402981495538"><ele>21.0</ele><time>2026-04-19T10:03:35Z</time></trkpt><trkpt lat="38.00623084014" lon="15.423862957666415"><ele>21.0</ele><time>2026-04-19T10:05:28.414Z</time></trkpt><trkpt lat="38.0062932247624" lon="15.42396841930544"><ele>21.0</ele><time>2026-04-19T10:06:09.999Z</time></trkpt></trkseg></trk></gpx>